<?xml version="1.0" encoding="UTF-8" standalone="no" ?>
<gpx xmlns="http://www.topografix.com/GPX/1/1" xmlns:xsi="http://www.w3.org/2001/XMLSchema-instance" xsi:schemaLocation="http://www.topografix.com/GPX/1/1 http://www.topografix.com/GPX/1/1/gpx.xsd" version="1.1" creator="VisuGPX - https://www.visugpx.com">
  <metadata>
    <name>Pic de L'escalette</name>
    <desc><![CDATA[
]]></desc>
  </metadata>
  <trk>
    <name><![CDATA[Morning Hike]]></name>
    <trkseg>
      <trkpt lat="42.93382" lon="0.76092">
        <ele>1481.8</ele>
        <time>2020-02-23T09:03:10Z</time>
      </trkpt>
      <trkpt lat="42.93379" lon="0.76091">
        <ele>1481.7</ele>
        <time>2020-02-23T09:03:11Z</time>
      </trkpt>
      <trkpt lat="42.93376" lon="0.76089">
        <ele>1481.6</ele>
        <time>2020-02-23T09:03:19Z</time>
      </trkpt>
      <trkpt lat="42.93373" lon="0.76088">
        <ele>1481.4</ele>
        <time>2020-02-23T09:03:20Z</time>
      </trkpt>
      <trkpt lat="42.93371" lon="0.76088">
        <ele>1481.3</ele>
        <time>2020-02-23T09:03:21Z</time>
      </trkpt>
      <trkpt lat="42.93369" lon="0.76087">
        <ele>1481.1</ele>
        <time>2020-02-23T09:03:22Z</time>
      </trkpt>
      <trkpt lat="42.93366" lon="0.76087">
        <ele>1481</ele>
        <time>2020-02-23T09:03:23Z</time>
      </trkpt>
      <trkpt lat="42.93364" lon="0.76087">
        <ele>1480.8</ele>
        <time>2020-02-23T09:03:24Z</time>
      </trkpt>
      <trkpt lat="42.93363" lon="0.76087">
        <ele>1480.7</ele>
        <time>2020-02-23T09:03:25Z</time>
      </trkpt>
      <trkpt lat="42.93361" lon="0.76087">
        <ele>1480.6</ele>
        <time>2020-02-23T09:03:26Z</time>
      </trkpt>
      <trkpt lat="42.9336" lon="0.76087">
        <ele>1480.6</ele>
        <time>2020-02-23T09:03:27Z</time>
      </trkpt>
      <trkpt lat="42.93359" lon="0.76087">
        <ele>1480.5</ele>
        <time>2020-02-23T09:03:28Z</time>
      </trkpt>
      <trkpt lat="42.93358" lon="0.76087">
        <ele>1480.4</ele>
        <time>2020-02-23T09:03:29Z</time>
      </trkpt>
      <trkpt lat="42.93356" lon="0.76087">
        <ele>1480.3</ele>
        <time>2020-02-23T09:03:30Z</time>
      </trkpt>
      <trkpt lat="42.93355" lon="0.76087">
        <ele>1480.2</ele>
        <time>2020-02-23T09:03:31Z</time>
      </trkpt>
      <trkpt lat="42.93354" lon="0.76087">
        <ele>1480.1</ele>
        <time>2020-02-23T09:03:32Z</time>
      </trkpt>
      <trkpt lat="42.93353" lon="0.76088">
        <ele>1480</ele>
        <time>2020-02-23T09:03:33Z</time>
      </trkpt>
      <trkpt lat="42.93352" lon="0.76088">
        <ele>1479.9</ele>
        <time>2020-02-23T09:03:34Z</time>
      </trkpt>
      <trkpt lat="42.93351" lon="0.76089">
        <ele>1479.8</ele>
        <time>2020-02-23T09:03:35Z</time>
      </trkpt>
      <trkpt lat="42.9335" lon="0.76089">
        <ele>1479.6</ele>
        <time>2020-02-23T09:03:36Z</time>
      </trkpt>
      <trkpt lat="42.93349" lon="0.7609">
        <ele>1479.5</ele>
        <time>2020-02-23T09:03:37Z</time>
      </trkpt>
      <trkpt lat="42.93348" lon="0.7609">
        <ele>1479.4</ele>
        <time>2020-02-23T09:03:38Z</time>
      </trkpt>
      <trkpt lat="42.93347" lon="0.76091">
        <ele>1479.3</ele>
        <time>2020-02-23T09:03:39Z</time>
      </trkpt>
      <trkpt lat="42.93346" lon="0.76091">
        <ele>1479.1</ele>
        <time>2020-02-23T09:03:40Z</time>
      </trkpt>
      <trkpt lat="42.93345" lon="0.76092">
        <ele>1479</ele>
        <time>2020-02-23T09:03:41Z</time>
      </trkpt>
      <trkpt lat="42.93344" lon="0.76092">
        <ele>1478.9</ele>
        <time>2020-02-23T09:03:42Z</time>
      </trkpt>
      <trkpt lat="42.93342" lon="0.76093">
        <ele>1478.7</ele>
        <time>2020-02-23T09:03:43Z</time>
      </trkpt>
      <trkpt lat="42.93341" lon="0.76093">
        <ele>1478.6</ele>
        <time>2020-02-23T09:03:44Z</time>
      </trkpt>
      <trkpt lat="42.9334" lon="0.76094">
        <ele>1479.5</ele>
        <time>2020-02-23T09:03:45Z</time>
      </trkpt>
      <trkpt lat="42.93339" lon="0.76094">
        <ele>1479.7</ele>
        <time>2020-02-23T09:03:46Z</time>
      </trkpt>
      <trkpt lat="42.93338" lon="0.76094">
        <ele>1479.8</ele>
        <time>2020-02-23T09:03:47Z</time>
      </trkpt>
      <trkpt lat="42.93337" lon="0.76095">
        <ele>1480</ele>
        <time>2020-02-23T09:03:48Z</time>
      </trkpt>
      <trkpt lat="42.93337" lon="0.76095">
        <ele>1480.1</ele>
        <time>2020-02-23T09:03:49Z</time>
      </trkpt>
      <trkpt lat="42.93336" lon="0.76096">
        <ele>1480.2</ele>
        <time>2020-02-23T09:03:50Z</time>
      </trkpt>
      <trkpt lat="42.93335" lon="0.76096">
        <ele>1480.3</ele>
        <time>2020-02-23T09:03:51Z</time>
      </trkpt>
      <trkpt lat="42.93335" lon="0.76096">
        <ele>1480.3</ele>
        <time>2020-02-23T09:03:52Z</time>
      </trkpt>
      <trkpt lat="42.93334" lon="0.76097">
        <ele>1480.4</ele>
        <time>2020-02-23T09:03:53Z</time>
      </trkpt>
      <trkpt lat="42.93334" lon="0.76097">
        <ele>1480.4</ele>
        <time>2020-02-23T09:03:54Z</time>
      </trkpt>
      <trkpt lat="42.93333" lon="0.76097">
        <ele>1480.5</ele>
        <time>2020-02-23T09:03:55Z</time>
      </trkpt>
      <trkpt lat="42.93333" lon="0.76098">
        <ele>1480.5</ele>
        <time>2020-02-23T09:03:56Z</time>
      </trkpt>
      <trkpt lat="42.93332" lon="0.76098">
        <ele>1480.6</ele>
        <time>2020-02-23T09:03:57Z</time>
      </trkpt>
      <trkpt lat="42.93332" lon="0.76098">
        <ele>1480.6</ele>
        <time>2020-02-23T09:03:58Z</time>
      </trkpt>
      <trkpt lat="42.93331" lon="0.76099">
        <ele>1480.6</ele>
        <time>2020-02-23T09:03:59Z</time>
      </trkpt>
      <trkpt lat="42.93331" lon="0.76099">
        <ele>1480.7</ele>
        <time>2020-02-23T09:04:00Z</time>
      </trkpt>
      <trkpt lat="42.9333" lon="0.76099">
        <ele>1480.7</ele>
        <time>2020-02-23T09:04:01Z</time>
      </trkpt>
      <trkpt lat="42.9333" lon="0.761">
        <ele>1480.8</ele>
        <time>2020-02-23T09:04:02Z</time>
      </trkpt>
      <trkpt lat="42.93329" lon="0.761">
        <ele>1481</ele>
        <time>2020-02-23T09:04:03Z</time>
      </trkpt>
      <trkpt lat="42.93329" lon="0.761">
        <ele>1481.1</ele>
        <time>2020-02-23T09:04:04Z</time>
      </trkpt>
      <trkpt lat="42.93328" lon="0.76101">
        <ele>1481.2</ele>
        <time>2020-02-23T09:04:05Z</time>
      </trkpt>
      <trkpt lat="42.93328" lon="0.76101">
        <ele>1481.3</ele>
        <time>2020-02-23T09:04:06Z</time>
      </trkpt>
      <trkpt lat="42.93327" lon="0.76101">
        <ele>1481.4</ele>
        <time>2020-02-23T09:04:07Z</time>
      </trkpt>
      <trkpt lat="42.93327" lon="0.76101">
        <ele>1481.5</ele>
        <time>2020-02-23T09:04:08Z</time>
      </trkpt>
      <trkpt lat="42.93326" lon="0.76101">
        <ele>1481.6</ele>
        <time>2020-02-23T09:04:09Z</time>
      </trkpt>
      <trkpt lat="42.93326" lon="0.76101">
        <ele>1481.7</ele>
        <time>2020-02-23T09:04:10Z</time>
      </trkpt>
      <trkpt lat="42.93326" lon="0.76101">
        <ele>1481.7</ele>
        <time>2020-02-23T09:04:11Z</time>
      </trkpt>
      <trkpt lat="42.93325" lon="0.76101">
        <ele>1481.7</ele>
        <time>2020-02-23T09:04:12Z</time>
      </trkpt>
      <trkpt lat="42.93325" lon="0.76101">
        <ele>1481.7</ele>
        <time>2020-02-23T09:04:13Z</time>
      </trkpt>
      <trkpt lat="42.93324" lon="0.76101">
        <ele>1481.7</ele>
        <time>2020-02-23T09:04:14Z</time>
      </trkpt>
      <trkpt lat="42.93324" lon="0.76101">
        <ele>1481.7</ele>
        <time>2020-02-23T09:04:15Z</time>
      </trkpt>
      <trkpt lat="42.93324" lon="0.76101">
        <ele>1481.7</ele>
        <time>2020-02-23T09:04:16Z</time>
      </trkpt>
      <trkpt lat="42.93323" lon="0.76101">
        <ele>1481.7</ele>
        <time>2020-02-23T09:04:17Z</time>
      </trkpt>
      <trkpt lat="42.93323" lon="0.76101">
        <ele>1481.7</ele>
        <time>2020-02-23T09:04:18Z</time>
      </trkpt>
      <trkpt lat="42.93322" lon="0.76101">
        <ele>1481.7</ele>
        <time>2020-02-23T09:04:19Z</time>
      </trkpt>
      <trkpt lat="42.93322" lon="0.76101">
        <ele>1481.7</ele>
        <time>2020-02-23T09:04:20Z</time>
      </trkpt>
      <trkpt lat="42.93321" lon="0.76101">
        <ele>1481.7</ele>
        <time>2020-02-23T09:04:21Z</time>
      </trkpt>
      <trkpt lat="42.93321" lon="0.76101">
        <ele>1481.7</ele>
        <time>2020-02-23T09:04:22Z</time>
      </trkpt>
      <trkpt lat="42.93321" lon="0.76101">
        <ele>1481.7</ele>
        <time>2020-02-23T09:04:23Z</time>
      </trkpt>
      <trkpt lat="42.9332" lon="0.76101">
        <ele>1481.6</ele>
        <time>2020-02-23T09:04:24Z</time>
      </trkpt>
      <trkpt lat="42.9332" lon="0.76101">
        <ele>1481.6</ele>
        <time>2020-02-23T09:04:25Z</time>
      </trkpt>
      <trkpt lat="42.93319" lon="0.76102">
        <ele>1481.6</ele>
        <time>2020-02-23T09:04:26Z</time>
      </trkpt>
      <trkpt lat="42.93319" lon="0.76102">
        <ele>1481.6</ele>
        <time>2020-02-23T09:04:27Z</time>
      </trkpt>
      <trkpt lat="42.93318" lon="0.76101">
        <ele>1481.6</ele>
        <time>2020-02-23T09:04:28Z</time>
      </trkpt>
      <trkpt lat="42.93317" lon="0.76101">
        <ele>1481.6</ele>
        <time>2020-02-23T09:04:29Z</time>
      </trkpt>
      <trkpt lat="42.93317" lon="0.76101">
        <ele>1481.6</ele>
        <time>2020-02-23T09:04:30Z</time>
      </trkpt>
      <trkpt lat="42.93316" lon="0.761">
        <ele>1481.7</ele>
        <time>2020-02-23T09:04:31Z</time>
      </trkpt>
      <trkpt lat="42.93315" lon="0.761">
        <ele>1481.7</ele>
        <time>2020-02-23T09:04:32Z</time>
      </trkpt>
      <trkpt lat="42.93315" lon="0.761">
        <ele>1481.8</ele>
        <time>2020-02-23T09:04:33Z</time>
      </trkpt>
      <trkpt lat="42.93314" lon="0.761">
        <ele>1481.8</ele>
        <time>2020-02-23T09:04:34Z</time>
      </trkpt>
      <trkpt lat="42.93313" lon="0.76099">
        <ele>1481.9</ele>
        <time>2020-02-23T09:04:35Z</time>
      </trkpt>
      <trkpt lat="42.93313" lon="0.76099">
        <ele>1482</ele>
        <time>2020-02-23T09:04:36Z</time>
      </trkpt>
      <trkpt lat="42.93312" lon="0.76099">
        <ele>1482</ele>
        <time>2020-02-23T09:04:37Z</time>
      </trkpt>
      <trkpt lat="42.93311" lon="0.76099">
        <ele>1482.1</ele>
        <time>2020-02-23T09:04:38Z</time>
      </trkpt>
      <trkpt lat="42.9331" lon="0.76098">
        <ele>1482.1</ele>
        <time>2020-02-23T09:04:39Z</time>
      </trkpt>
      <trkpt lat="42.9331" lon="0.76098">
        <ele>1482.2</ele>
        <time>2020-02-23T09:04:40Z</time>
      </trkpt>
      <trkpt lat="42.93309" lon="0.76098">
        <ele>1482.2</ele>
        <time>2020-02-23T09:04:41Z</time>
      </trkpt>
      <trkpt lat="42.93308" lon="0.76098">
        <ele>1482.2</ele>
        <time>2020-02-23T09:04:42Z</time>
      </trkpt>
      <trkpt lat="42.93307" lon="0.76098">
        <ele>1482.3</ele>
        <time>2020-02-23T09:04:43Z</time>
      </trkpt>
      <trkpt lat="42.93307" lon="0.76098">
        <ele>1482.3</ele>
        <time>2020-02-23T09:04:44Z</time>
      </trkpt>
      <trkpt lat="42.93306" lon="0.76099">
        <ele>1482.3</ele>
        <time>2020-02-23T09:04:45Z</time>
      </trkpt>
      <trkpt lat="42.93305" lon="0.76099">
        <ele>1482.3</ele>
        <time>2020-02-23T09:04:46Z</time>
      </trkpt>
      <trkpt lat="42.93304" lon="0.76099">
        <ele>1482.4</ele>
        <time>2020-02-23T09:04:47Z</time>
      </trkpt>
      <trkpt lat="42.93303" lon="0.761">
        <ele>1482.4</ele>
        <time>2020-02-23T09:04:48Z</time>
      </trkpt>
      <trkpt lat="42.93302" lon="0.761">
        <ele>1482.4</ele>
        <time>2020-02-23T09:04:49Z</time>
      </trkpt>
      <trkpt lat="42.93301" lon="0.76101">
        <ele>1482.4</ele>
        <time>2020-02-23T09:04:50Z</time>
      </trkpt>
      <trkpt lat="42.933" lon="0.76101">
        <ele>1482.5</ele>
        <time>2020-02-23T09:04:51Z</time>
      </trkpt>
      <trkpt lat="42.93299" lon="0.76101">
        <ele>1482.6</ele>
        <time>2020-02-23T09:04:52Z</time>
      </trkpt>
      <trkpt lat="42.93298" lon="0.76102">
        <ele>1482.8</ele>
        <time>2020-02-23T09:04:53Z</time>
      </trkpt>
      <trkpt lat="42.93298" lon="0.76102">
        <ele>1482.8</ele>
        <time>2020-02-23T09:04:54Z</time>
      </trkpt>
      <trkpt lat="42.93297" lon="0.76102">
        <ele>1482.9</ele>
        <time>2020-02-23T09:04:55Z</time>
      </trkpt>
      <trkpt lat="42.93297" lon="0.76101">
        <ele>1483</ele>
        <time>2020-02-23T09:04:56Z</time>
      </trkpt>
      <trkpt lat="42.93296" lon="0.76101">
        <ele>1483.1</ele>
        <time>2020-02-23T09:04:57Z</time>
      </trkpt>
      <trkpt lat="42.93295" lon="0.76101">
        <ele>1483.1</ele>
        <time>2020-02-23T09:04:58Z</time>
      </trkpt>
      <trkpt lat="42.93295" lon="0.76101">
        <ele>1483.2</ele>
        <time>2020-02-23T09:04:59Z</time>
      </trkpt>
      <trkpt lat="42.93294" lon="0.76101">
        <ele>1483.3</ele>
        <time>2020-02-23T09:05:00Z</time>
      </trkpt>
      <trkpt lat="42.93294" lon="0.76101">
        <ele>1483.4</ele>
        <time>2020-02-23T09:05:01Z</time>
      </trkpt>
      <trkpt lat="42.93293" lon="0.76101">
        <ele>1483.4</ele>
        <time>2020-02-23T09:05:02Z</time>
      </trkpt>
      <trkpt lat="42.93293" lon="0.76101">
        <ele>1483.5</ele>
        <time>2020-02-23T09:05:03Z</time>
      </trkpt>
      <trkpt lat="42.93292" lon="0.76101">
        <ele>1483.6</ele>
        <time>2020-02-23T09:05:04Z</time>
      </trkpt>
      <trkpt lat="42.93291" lon="0.761">
        <ele>1483.6</ele>
        <time>2020-02-23T09:05:05Z</time>
      </trkpt>
      <trkpt lat="42.93291" lon="0.761">
        <ele>1483.7</ele>
        <time>2020-02-23T09:05:06Z</time>
      </trkpt>
      <trkpt lat="42.9329" lon="0.761">
        <ele>1483.8</ele>
        <time>2020-02-23T09:05:07Z</time>
      </trkpt>
      <trkpt lat="42.9329" lon="0.761">
        <ele>1483.8</ele>
        <time>2020-02-23T09:05:08Z</time>
      </trkpt>
      <trkpt lat="42.93289" lon="0.761">
        <ele>1483.9</ele>
        <time>2020-02-23T09:05:09Z</time>
      </trkpt>
      <trkpt lat="42.93288" lon="0.761">
        <ele>1483.9</ele>
        <time>2020-02-23T09:05:10Z</time>
      </trkpt>
      <trkpt lat="42.93288" lon="0.76101">
        <ele>1484</ele>
        <time>2020-02-23T09:05:11Z</time>
      </trkpt>
      <trkpt lat="42.93287" lon="0.76101">
        <ele>1484.1</ele>
        <time>2020-02-23T09:05:12Z</time>
      </trkpt>
      <trkpt lat="42.93286" lon="0.76102">
        <ele>1484.2</ele>
        <time>2020-02-23T09:05:13Z</time>
      </trkpt>
      <trkpt lat="42.93285" lon="0.76102">
        <ele>1484.3</ele>
        <time>2020-02-23T09:05:14Z</time>
      </trkpt>
      <trkpt lat="42.93285" lon="0.76103">
        <ele>1484.4</ele>
        <time>2020-02-23T09:05:15Z</time>
      </trkpt>
      <trkpt lat="42.93284" lon="0.76103">
        <ele>1484.4</ele>
        <time>2020-02-23T09:05:16Z</time>
      </trkpt>
      <trkpt lat="42.93283" lon="0.76103">
        <ele>1484.5</ele>
        <time>2020-02-23T09:05:17Z</time>
      </trkpt>
      <trkpt lat="42.93283" lon="0.76104">
        <ele>1484.6</ele>
        <time>2020-02-23T09:05:18Z</time>
      </trkpt>
      <trkpt lat="42.93282" lon="0.76104">
        <ele>1484.7</ele>
        <time>2020-02-23T09:05:19Z</time>
      </trkpt>
      <trkpt lat="42.93281" lon="0.76105">
        <ele>1484.8</ele>
        <time>2020-02-23T09:05:20Z</time>
      </trkpt>
      <trkpt lat="42.9328" lon="0.76105">
        <ele>1484.9</ele>
        <time>2020-02-23T09:05:21Z</time>
      </trkpt>
      <trkpt lat="42.93279" lon="0.76106">
        <ele>1485</ele>
        <time>2020-02-23T09:05:22Z</time>
      </trkpt>
      <trkpt lat="42.93278" lon="0.76107">
        <ele>1485.2</ele>
        <time>2020-02-23T09:05:23Z</time>
      </trkpt>
      <trkpt lat="42.93277" lon="0.76108">
        <ele>1485.3</ele>
        <time>2020-02-23T09:05:24Z</time>
      </trkpt>
      <trkpt lat="42.93276" lon="0.76109">
        <ele>1485.4</ele>
        <time>2020-02-23T09:05:25Z</time>
      </trkpt>
      <trkpt lat="42.93275" lon="0.76109">
        <ele>1485.6</ele>
        <time>2020-02-23T09:05:26Z</time>
      </trkpt>
      <trkpt lat="42.93274" lon="0.7611">
        <ele>1485.7</ele>
        <time>2020-02-23T09:05:27Z</time>
      </trkpt>
      <trkpt lat="42.93273" lon="0.76111">
        <ele>1485.9</ele>
        <time>2020-02-23T09:05:28Z</time>
      </trkpt>
      <trkpt lat="42.93272" lon="0.76112">
        <ele>1486.2</ele>
        <time>2020-02-23T09:05:29Z</time>
      </trkpt>
      <trkpt lat="42.93271" lon="0.76112">
        <ele>1486.5</ele>
        <time>2020-02-23T09:05:30Z</time>
      </trkpt>
      <trkpt lat="42.9327" lon="0.76111">
        <ele>1486.8</ele>
        <time>2020-02-23T09:05:31Z</time>
      </trkpt>
      <trkpt lat="42.93269" lon="0.76111">
        <ele>1487.1</ele>
        <time>2020-02-23T09:05:32Z</time>
      </trkpt>
      <trkpt lat="42.93268" lon="0.7611">
        <ele>1487.4</ele>
        <time>2020-02-23T09:05:33Z</time>
      </trkpt>
      <trkpt lat="42.93268" lon="0.7611">
        <ele>1487.7</ele>
        <time>2020-02-23T09:05:34Z</time>
      </trkpt>
      <trkpt lat="42.93267" lon="0.7611">
        <ele>1487.9</ele>
        <time>2020-02-23T09:05:35Z</time>
      </trkpt>
      <trkpt lat="42.93266" lon="0.76109">
        <ele>1488</ele>
        <time>2020-02-23T09:05:36Z</time>
      </trkpt>
      <trkpt lat="42.93265" lon="0.76109">
        <ele>1488.1</ele>
        <time>2020-02-23T09:05:37Z</time>
      </trkpt>
      <trkpt lat="42.93264" lon="0.76109">
        <ele>1488.2</ele>
        <time>2020-02-23T09:05:38Z</time>
      </trkpt>
      <trkpt lat="42.93262" lon="0.76108">
        <ele>1488.3</ele>
        <time>2020-02-23T09:05:39Z</time>
      </trkpt>
      <trkpt lat="42.93261" lon="0.76107">
        <ele>1488.5</ele>
        <time>2020-02-23T09:05:40Z</time>
      </trkpt>
      <trkpt lat="42.9326" lon="0.76107">
        <ele>1488.6</ele>
        <time>2020-02-23T09:05:41Z</time>
      </trkpt>
      <trkpt lat="42.93259" lon="0.76106">
        <ele>1488.7</ele>
        <time>2020-02-23T09:05:42Z</time>
      </trkpt>
      <trkpt lat="42.93258" lon="0.76106">
        <ele>1488.9</ele>
        <time>2020-02-23T09:05:43Z</time>
      </trkpt>
      <trkpt lat="42.93257" lon="0.76105">
        <ele>1489</ele>
        <time>2020-02-23T09:05:44Z</time>
      </trkpt>
      <trkpt lat="42.93256" lon="0.76105">
        <ele>1489.2</ele>
        <time>2020-02-23T09:05:45Z</time>
      </trkpt>
      <trkpt lat="42.93255" lon="0.76104">
        <ele>1489.3</ele>
        <time>2020-02-23T09:05:46Z</time>
      </trkpt>
      <trkpt lat="42.93254" lon="0.76104">
        <ele>1489.5</ele>
        <time>2020-02-23T09:05:47Z</time>
      </trkpt>
      <trkpt lat="42.93253" lon="0.76103">
        <ele>1489.6</ele>
        <time>2020-02-23T09:05:48Z</time>
      </trkpt>
      <trkpt lat="42.93253" lon="0.76102">
        <ele>1489.8</ele>
        <time>2020-02-23T09:05:49Z</time>
      </trkpt>
      <trkpt lat="42.93252" lon="0.76102">
        <ele>1490.1</ele>
        <time>2020-02-23T09:05:50Z</time>
      </trkpt>
      <trkpt lat="42.93252" lon="0.76101">
        <ele>1490.3</ele>
        <time>2020-02-23T09:05:51Z</time>
      </trkpt>
      <trkpt lat="42.93252" lon="0.76101">
        <ele>1490.6</ele>
        <time>2020-02-23T09:05:52Z</time>
      </trkpt>
      <trkpt lat="42.93251" lon="0.761">
        <ele>1490.8</ele>
        <time>2020-02-23T09:05:53Z</time>
      </trkpt>
      <trkpt lat="42.93251" lon="0.76099">
        <ele>1491</ele>
        <time>2020-02-23T09:05:54Z</time>
      </trkpt>
      <trkpt lat="42.93251" lon="0.76099">
        <ele>1491.2</ele>
        <time>2020-02-23T09:05:55Z</time>
      </trkpt>
      <trkpt lat="42.9325" lon="0.76098">
        <ele>1491.5</ele>
        <time>2020-02-23T09:05:56Z</time>
      </trkpt>
      <trkpt lat="42.9325" lon="0.76098">
        <ele>1491.7</ele>
        <time>2020-02-23T09:05:57Z</time>
      </trkpt>
      <trkpt lat="42.9325" lon="0.76097">
        <ele>1491.9</ele>
        <time>2020-02-23T09:05:58Z</time>
      </trkpt>
      <trkpt lat="42.93249" lon="0.76097">
        <ele>1492.2</ele>
        <time>2020-02-23T09:05:59Z</time>
      </trkpt>
      <trkpt lat="42.93249" lon="0.76096">
        <ele>1492.4</ele>
        <time>2020-02-23T09:06:00Z</time>
      </trkpt>
      <trkpt lat="42.93249" lon="0.76095">
        <ele>1492.6</ele>
        <time>2020-02-23T09:06:01Z</time>
      </trkpt>
      <trkpt lat="42.93248" lon="0.76095">
        <ele>1492.7</ele>
        <time>2020-02-23T09:06:02Z</time>
      </trkpt>
      <trkpt lat="42.93248" lon="0.76094">
        <ele>1492.8</ele>
        <time>2020-02-23T09:06:03Z</time>
      </trkpt>
      <trkpt lat="42.93247" lon="0.76094">
        <ele>1492.9</ele>
        <time>2020-02-23T09:06:04Z</time>
      </trkpt>
      <trkpt lat="42.93247" lon="0.76094">
        <ele>1493</ele>
        <time>2020-02-23T09:06:05Z</time>
      </trkpt>
      <trkpt lat="42.93247" lon="0.76093">
        <ele>1493.1</ele>
        <time>2020-02-23T09:06:06Z</time>
      </trkpt>
      <trkpt lat="42.93246" lon="0.76093">
        <ele>1493.2</ele>
        <time>2020-02-23T09:06:07Z</time>
      </trkpt>
      <trkpt lat="42.93246" lon="0.76093">
        <ele>1493.3</ele>
        <time>2020-02-23T09:06:08Z</time>
      </trkpt>
      <trkpt lat="42.93245" lon="0.76093">
        <ele>1493.4</ele>
        <time>2020-02-23T09:06:09Z</time>
      </trkpt>
      <trkpt lat="42.93245" lon="0.76092">
        <ele>1493.5</ele>
        <time>2020-02-23T09:06:10Z</time>
      </trkpt>
      <trkpt lat="42.93244" lon="0.76092">
        <ele>1493.6</ele>
        <time>2020-02-23T09:06:11Z</time>
      </trkpt>
      <trkpt lat="42.93244" lon="0.76092">
        <ele>1493.7</ele>
        <time>2020-02-23T09:06:12Z</time>
      </trkpt>
      <trkpt lat="42.93243" lon="0.76092">
        <ele>1493.8</ele>
        <time>2020-02-23T09:06:13Z</time>
      </trkpt>
      <trkpt lat="42.93243" lon="0.76091">
        <ele>1493.8</ele>
        <time>2020-02-23T09:06:14Z</time>
      </trkpt>
      <trkpt lat="42.93243" lon="0.76091">
        <ele>1493.9</ele>
        <time>2020-02-23T09:06:15Z</time>
      </trkpt>
      <trkpt lat="42.93242" lon="0.76091">
        <ele>1494</ele>
        <time>2020-02-23T09:06:16Z</time>
      </trkpt>
      <trkpt lat="42.93242" lon="0.76091">
        <ele>1494.1</ele>
        <time>2020-02-23T09:06:17Z</time>
      </trkpt>
      <trkpt lat="42.93241" lon="0.7609">
        <ele>1494.2</ele>
        <time>2020-02-23T09:06:18Z</time>
      </trkpt>
      <trkpt lat="42.93241" lon="0.7609">
        <ele>1494.3</ele>
        <time>2020-02-23T09:06:19Z</time>
      </trkpt>
      <trkpt lat="42.9324" lon="0.7609">
        <ele>1494.5</ele>
        <time>2020-02-23T09:06:20Z</time>
      </trkpt>
      <trkpt lat="42.9324" lon="0.7609">
        <ele>1494.6</ele>
        <time>2020-02-23T09:06:21Z</time>
      </trkpt>
      <trkpt lat="42.93239" lon="0.76089">
        <ele>1494.7</ele>
        <time>2020-02-23T09:06:22Z</time>
      </trkpt>
      <trkpt lat="42.93239" lon="0.76089">
        <ele>1494.8</ele>
        <time>2020-02-23T09:06:23Z</time>
      </trkpt>
      <trkpt lat="42.93238" lon="0.76089">
        <ele>1494.9</ele>
        <time>2020-02-23T09:06:24Z</time>
      </trkpt>
      <trkpt lat="42.93238" lon="0.76088">
        <ele>1495.1</ele>
        <time>2020-02-23T09:06:25Z</time>
      </trkpt>
      <trkpt lat="42.93237" lon="0.76088">
        <ele>1495.2</ele>
        <time>2020-02-23T09:06:26Z</time>
      </trkpt>
      <trkpt lat="42.93237" lon="0.76087">
        <ele>1495.4</ele>
        <time>2020-02-23T09:06:27Z</time>
      </trkpt>
      <trkpt lat="42.93236" lon="0.76087">
        <ele>1495.5</ele>
        <time>2020-02-23T09:06:28Z</time>
      </trkpt>
      <trkpt lat="42.93236" lon="0.76087">
        <ele>1495.6</ele>
        <time>2020-02-23T09:06:29Z</time>
      </trkpt>
      <trkpt lat="42.93235" lon="0.76086">
        <ele>1496</ele>
        <time>2020-02-23T09:06:30Z</time>
      </trkpt>
      <trkpt lat="42.93234" lon="0.76086">
        <ele>1496.5</ele>
        <time>2020-02-23T09:06:31Z</time>
      </trkpt>
      <trkpt lat="42.93234" lon="0.76085">
        <ele>1496.9</ele>
        <time>2020-02-23T09:06:32Z</time>
      </trkpt>
      <trkpt lat="42.93233" lon="0.76085">
        <ele>1497.4</ele>
        <time>2020-02-23T09:06:33Z</time>
      </trkpt>
      <trkpt lat="42.93233" lon="0.76084">
        <ele>1497.9</ele>
        <time>2020-02-23T09:06:34Z</time>
      </trkpt>
      <trkpt lat="42.93232" lon="0.76084">
        <ele>1498.4</ele>
        <time>2020-02-23T09:06:35Z</time>
      </trkpt>
      <trkpt lat="42.93232" lon="0.76083">
        <ele>1498.8</ele>
        <time>2020-02-23T09:06:36Z</time>
      </trkpt>
      <trkpt lat="42.93231" lon="0.76083">
        <ele>1499.3</ele>
        <time>2020-02-23T09:06:37Z</time>
      </trkpt>
      <trkpt lat="42.93231" lon="0.76083">
        <ele>1499.3</ele>
        <time>2020-02-23T09:06:38Z</time>
      </trkpt>
      <trkpt lat="42.93231" lon="0.76083">
        <ele>1499.3</ele>
        <time>2020-02-23T09:06:39Z</time>
      </trkpt>
      <trkpt lat="42.93231" lon="0.76083">
        <ele>1499.3</ele>
        <time>2020-02-23T09:06:40Z</time>
      </trkpt>
      <trkpt lat="42.93231" lon="0.76083">
        <ele>1499.3</ele>
        <time>2020-02-23T09:06:41Z</time>
      </trkpt>
      <trkpt lat="42.93231" lon="0.76083">
        <ele>1499.3</ele>
        <time>2020-02-23T09:06:42Z</time>
      </trkpt>
      <trkpt lat="42.93228" lon="0.76081">
        <ele>1501.1</ele>
        <time>2020-02-23T09:06:43Z</time>
      </trkpt>
      <trkpt lat="42.93228" lon="0.76081">
        <ele>1501.1</ele>
        <time>2020-02-23T09:06:44Z</time>
      </trkpt>
      <trkpt lat="42.93227" lon="0.76081">
        <ele>1501.4</ele>
        <time>2020-02-23T09:06:45Z</time>
      </trkpt>
      <trkpt lat="42.93227" lon="0.7608">
        <ele>1501.6</ele>
        <time>2020-02-23T09:06:46Z</time>
      </trkpt>
      <trkpt lat="42.93226" lon="0.76079">
        <ele>1501.9</ele>
        <time>2020-02-23T09:06:47Z</time>
      </trkpt>
      <trkpt lat="42.93226" lon="0.76078">
        <ele>1502.2</ele>
        <time>2020-02-23T09:06:48Z</time>
      </trkpt>
      <trkpt lat="42.93226" lon="0.76078">
        <ele>1502.5</ele>
        <time>2020-02-23T09:06:49Z</time>
      </trkpt>
      <trkpt lat="42.93225" lon="0.76077">
        <ele>1502.8</ele>
        <time>2020-02-23T09:06:50Z</time>
      </trkpt>
      <trkpt lat="42.93225" lon="0.76076">
        <ele>1503.1</ele>
        <time>2020-02-23T09:06:51Z</time>
      </trkpt>
      <trkpt lat="42.93225" lon="0.76076">
        <ele>1503.3</ele>
        <time>2020-02-23T09:06:52Z</time>
      </trkpt>
      <trkpt lat="42.93224" lon="0.76075">
        <ele>1503.6</ele>
        <time>2020-02-23T09:06:53Z</time>
      </trkpt>
      <trkpt lat="42.93224" lon="0.76074">
        <ele>1503.8</ele>
        <time>2020-02-23T09:06:54Z</time>
      </trkpt>
      <trkpt lat="42.93223" lon="0.76074">
        <ele>1504.1</ele>
        <time>2020-02-23T09:06:55Z</time>
      </trkpt>
      <trkpt lat="42.93223" lon="0.76073">
        <ele>1504.4</ele>
        <time>2020-02-23T09:06:56Z</time>
      </trkpt>
      <trkpt lat="42.93223" lon="0.76072">
        <ele>1504.7</ele>
        <time>2020-02-23T09:06:57Z</time>
      </trkpt>
      <trkpt lat="42.93222" lon="0.76072">
        <ele>1504.9</ele>
        <time>2020-02-23T09:06:58Z</time>
      </trkpt>
      <trkpt lat="42.93222" lon="0.76071">
        <ele>1505.2</ele>
        <time>2020-02-23T09:06:59Z</time>
      </trkpt>
      <trkpt lat="42.93221" lon="0.76071">
        <ele>1505.5</ele>
        <time>2020-02-23T09:07:00Z</time>
      </trkpt>
      <trkpt lat="42.9322" lon="0.76071">
        <ele>1505.9</ele>
        <time>2020-02-23T09:07:01Z</time>
      </trkpt>
      <trkpt lat="42.93219" lon="0.76071">
        <ele>1506.3</ele>
        <time>2020-02-23T09:07:02Z</time>
      </trkpt>
      <trkpt lat="42.93218" lon="0.76071">
        <ele>1506.6</ele>
        <time>2020-02-23T09:07:03Z</time>
      </trkpt>
      <trkpt lat="42.93218" lon="0.76071">
        <ele>1507.1</ele>
        <time>2020-02-23T09:07:04Z</time>
      </trkpt>
      <trkpt lat="42.93217" lon="0.76071">
        <ele>1507.7</ele>
        <time>2020-02-23T09:07:05Z</time>
      </trkpt>
      <trkpt lat="42.93216" lon="0.76071">
        <ele>1508.3</ele>
        <time>2020-02-23T09:07:06Z</time>
      </trkpt>
      <trkpt lat="42.93215" lon="0.76071">
        <ele>1508.9</ele>
        <time>2020-02-23T09:07:07Z</time>
      </trkpt>
      <trkpt lat="42.93214" lon="0.76071">
        <ele>1509.4</ele>
        <time>2020-02-23T09:07:08Z</time>
      </trkpt>
      <trkpt lat="42.93213" lon="0.76071">
        <ele>1509.9</ele>
        <time>2020-02-23T09:07:09Z</time>
      </trkpt>
      <trkpt lat="42.93212" lon="0.76071">
        <ele>1510.1</ele>
        <time>2020-02-23T09:07:10Z</time>
      </trkpt>
      <trkpt lat="42.93212" lon="0.76071">
        <ele>1510.3</ele>
        <time>2020-02-23T09:07:11Z</time>
      </trkpt>
      <trkpt lat="42.93211" lon="0.76071">
        <ele>1510.4</ele>
        <time>2020-02-23T09:07:12Z</time>
      </trkpt>
      <trkpt lat="42.9321" lon="0.76072">
        <ele>1510.5</ele>
        <time>2020-02-23T09:07:13Z</time>
      </trkpt>
      <trkpt lat="42.9321" lon="0.76072">
        <ele>1510.6</ele>
        <time>2020-02-23T09:07:14Z</time>
      </trkpt>
      <trkpt lat="42.93209" lon="0.76072">
        <ele>1510.8</ele>
        <time>2020-02-23T09:07:15Z</time>
      </trkpt>
      <trkpt lat="42.93209" lon="0.76073">
        <ele>1510.9</ele>
        <time>2020-02-23T09:07:16Z</time>
      </trkpt>
      <trkpt lat="42.93208" lon="0.76073">
        <ele>1511</ele>
        <time>2020-02-23T09:07:17Z</time>
      </trkpt>
      <trkpt lat="42.93208" lon="0.76073">
        <ele>1511.1</ele>
        <time>2020-02-23T09:07:18Z</time>
      </trkpt>
      <trkpt lat="42.93207" lon="0.76074">
        <ele>1511.2</ele>
        <time>2020-02-23T09:07:19Z</time>
      </trkpt>
      <trkpt lat="42.93207" lon="0.76074">
        <ele>1511.4</ele>
        <time>2020-02-23T09:07:20Z</time>
      </trkpt>
      <trkpt lat="42.93206" lon="0.76074">
        <ele>1511.5</ele>
        <time>2020-02-23T09:07:21Z</time>
      </trkpt>
      <trkpt lat="42.93206" lon="0.76074">
        <ele>1511.6</ele>
        <time>2020-02-23T09:07:22Z</time>
      </trkpt>
      <trkpt lat="42.93205" lon="0.76075">
        <ele>1511.7</ele>
        <time>2020-02-23T09:07:23Z</time>
      </trkpt>
      <trkpt lat="42.93204" lon="0.76075">
        <ele>1511.8</ele>
        <time>2020-02-23T09:07:24Z</time>
      </trkpt>
      <trkpt lat="42.93204" lon="0.76075">
        <ele>1511.9</ele>
        <time>2020-02-23T09:07:25Z</time>
      </trkpt>
      <trkpt lat="42.93203" lon="0.76076">
        <ele>1512</ele>
        <time>2020-02-23T09:07:26Z</time>
      </trkpt>
      <trkpt lat="42.93203" lon="0.76076">
        <ele>1512.1</ele>
        <time>2020-02-23T09:07:27Z</time>
      </trkpt>
      <trkpt lat="42.93202" lon="0.76077">
        <ele>1512.2</ele>
        <time>2020-02-23T09:07:28Z</time>
      </trkpt>
      <trkpt lat="42.93201" lon="0.76077">
        <ele>1512.3</ele>
        <time>2020-02-23T09:07:29Z</time>
      </trkpt>
      <trkpt lat="42.93201" lon="0.76078">
        <ele>1512.4</ele>
        <time>2020-02-23T09:07:30Z</time>
      </trkpt>
      <trkpt lat="42.932" lon="0.76078">
        <ele>1512.5</ele>
        <time>2020-02-23T09:07:31Z</time>
      </trkpt>
      <trkpt lat="42.93199" lon="0.76078">
        <ele>1512.5</ele>
        <time>2020-02-23T09:07:32Z</time>
      </trkpt>
      <trkpt lat="42.93199" lon="0.76079">
        <ele>1512.6</ele>
        <time>2020-02-23T09:07:33Z</time>
      </trkpt>
      <trkpt lat="42.93198" lon="0.76079">
        <ele>1512.6</ele>
        <time>2020-02-23T09:07:34Z</time>
      </trkpt>
      <trkpt lat="42.93197" lon="0.7608">
        <ele>1512.7</ele>
        <time>2020-02-23T09:07:35Z</time>
      </trkpt>
      <trkpt lat="42.93197" lon="0.7608">
        <ele>1512.7</ele>
        <time>2020-02-23T09:07:36Z</time>
      </trkpt>
      <trkpt lat="42.93196" lon="0.76081">
        <ele>1512.8</ele>
        <time>2020-02-23T09:07:37Z</time>
      </trkpt>
      <trkpt lat="42.93195" lon="0.76081">
        <ele>1512.8</ele>
        <time>2020-02-23T09:07:38Z</time>
      </trkpt>
      <trkpt lat="42.93194" lon="0.76082">
        <ele>1512.9</ele>
        <time>2020-02-23T09:07:39Z</time>
      </trkpt>
      <trkpt lat="42.93194" lon="0.76082">
        <ele>1512.9</ele>
        <time>2020-02-23T09:07:40Z</time>
      </trkpt>
      <trkpt lat="42.93194" lon="0.76082">
        <ele>1512.9</ele>
        <time>2020-02-23T09:07:41Z</time>
      </trkpt>
      <trkpt lat="42.93193" lon="0.76082">
        <ele>1513</ele>
        <time>2020-02-23T09:07:42Z</time>
      </trkpt>
      <trkpt lat="42.93193" lon="0.76083">
        <ele>1513</ele>
        <time>2020-02-23T09:07:43Z</time>
      </trkpt>
      <trkpt lat="42.93192" lon="0.76083">
        <ele>1513</ele>
        <time>2020-02-23T09:07:44Z</time>
      </trkpt>
      <trkpt lat="42.93192" lon="0.76083">
        <ele>1513</ele>
        <time>2020-02-23T09:07:45Z</time>
      </trkpt>
      <trkpt lat="42.93192" lon="0.76083">
        <ele>1513</ele>
        <time>2020-02-23T09:07:46Z</time>
      </trkpt>
      <trkpt lat="42.93191" lon="0.76084">
        <ele>1513</ele>
        <time>2020-02-23T09:07:47Z</time>
      </trkpt>
      <trkpt lat="42.93191" lon="0.76084">
        <ele>1513.1</ele>
        <time>2020-02-23T09:07:48Z</time>
      </trkpt>
      <trkpt lat="42.9319" lon="0.76084">
        <ele>1513.1</ele>
        <time>2020-02-23T09:07:49Z</time>
      </trkpt>
      <trkpt lat="42.9319" lon="0.76085">
        <ele>1513.1</ele>
        <time>2020-02-23T09:07:50Z</time>
      </trkpt>
      <trkpt lat="42.9319" lon="0.76085">
        <ele>1513.1</ele>
        <time>2020-02-23T09:07:51Z</time>
      </trkpt>
      <trkpt lat="42.93189" lon="0.76085">
        <ele>1513.1</ele>
        <time>2020-02-23T09:07:52Z</time>
      </trkpt>
      <trkpt lat="42.93189" lon="0.76085">
        <ele>1513.1</ele>
        <time>2020-02-23T09:07:53Z</time>
      </trkpt>
      <trkpt lat="42.93188" lon="0.76086">
        <ele>1513.2</ele>
        <time>2020-02-23T09:07:54Z</time>
      </trkpt>
      <trkpt lat="42.93188" lon="0.76086">
        <ele>1513.2</ele>
        <time>2020-02-23T09:07:55Z</time>
      </trkpt>
      <trkpt lat="42.93188" lon="0.76086">
        <ele>1513.2</ele>
        <time>2020-02-23T09:07:56Z</time>
      </trkpt>
      <trkpt lat="42.93187" lon="0.76087">
        <ele>1513.2</ele>
        <time>2020-02-23T09:07:57Z</time>
      </trkpt>
      <trkpt lat="42.93187" lon="0.76087">
        <ele>1513.2</ele>
        <time>2020-02-23T09:07:58Z</time>
      </trkpt>
      <trkpt lat="42.93186" lon="0.76087">
        <ele>1513.2</ele>
        <time>2020-02-23T09:07:59Z</time>
      </trkpt>
      <trkpt lat="42.93186" lon="0.76088">
        <ele>1513.3</ele>
        <time>2020-02-23T09:08:00Z</time>
      </trkpt>
      <trkpt lat="42.93185" lon="0.76089">
        <ele>1513.1</ele>
        <time>2020-02-23T09:08:01Z</time>
      </trkpt>
      <trkpt lat="42.93185" lon="0.7609">
        <ele>1512.9</ele>
        <time>2020-02-23T09:08:02Z</time>
      </trkpt>
      <trkpt lat="42.93184" lon="0.76091">
        <ele>1512.7</ele>
        <time>2020-02-23T09:08:03Z</time>
      </trkpt>
      <trkpt lat="42.93184" lon="0.76092">
        <ele>1512.6</ele>
        <time>2020-02-23T09:08:04Z</time>
      </trkpt>
      <trkpt lat="42.93183" lon="0.76093">
        <ele>1512.4</ele>
        <time>2020-02-23T09:08:05Z</time>
      </trkpt>
      <trkpt lat="42.93183" lon="0.76094">
        <ele>1512.2</ele>
        <time>2020-02-23T09:08:06Z</time>
      </trkpt>
      <trkpt lat="42.93182" lon="0.76096">
        <ele>1512</ele>
        <time>2020-02-23T09:08:07Z</time>
      </trkpt>
      <trkpt lat="42.93182" lon="0.76097">
        <ele>1511.8</ele>
        <time>2020-02-23T09:08:08Z</time>
      </trkpt>
      <trkpt lat="42.93181" lon="0.76098">
        <ele>1511.6</ele>
        <time>2020-02-23T09:08:09Z</time>
      </trkpt>
      <trkpt lat="42.93181" lon="0.76099">
        <ele>1511.3</ele>
        <time>2020-02-23T09:08:10Z</time>
      </trkpt>
      <trkpt lat="42.9318" lon="0.76099">
        <ele>1511.1</ele>
        <time>2020-02-23T09:08:11Z</time>
      </trkpt>
      <trkpt lat="42.9318" lon="0.761">
        <ele>1510.9</ele>
        <time>2020-02-23T09:08:12Z</time>
      </trkpt>
      <trkpt lat="42.93179" lon="0.761">
        <ele>1510.6</ele>
        <time>2020-02-23T09:08:13Z</time>
      </trkpt>
      <trkpt lat="42.93178" lon="0.76101">
        <ele>1510.4</ele>
        <time>2020-02-23T09:08:14Z</time>
      </trkpt>
      <trkpt lat="42.93178" lon="0.76101">
        <ele>1510.2</ele>
        <time>2020-02-23T09:08:15Z</time>
      </trkpt>
      <trkpt lat="42.93177" lon="0.76102">
        <ele>1510</ele>
        <time>2020-02-23T09:08:16Z</time>
      </trkpt>
      <trkpt lat="42.93177" lon="0.76102">
        <ele>1509.8</ele>
        <time>2020-02-23T09:08:17Z</time>
      </trkpt>
      <trkpt lat="42.93176" lon="0.76103">
        <ele>1509.7</ele>
        <time>2020-02-23T09:08:18Z</time>
      </trkpt>
      <trkpt lat="42.93175" lon="0.76103">
        <ele>1509.7</ele>
        <time>2020-02-23T09:08:19Z</time>
      </trkpt>
      <trkpt lat="42.93175" lon="0.76104">
        <ele>1509.7</ele>
        <time>2020-02-23T09:08:20Z</time>
      </trkpt>
      <trkpt lat="42.93174" lon="0.76104">
        <ele>1509.7</ele>
        <time>2020-02-23T09:08:21Z</time>
      </trkpt>
      <trkpt lat="42.93173" lon="0.76105">
        <ele>1509.6</ele>
        <time>2020-02-23T09:08:22Z</time>
      </trkpt>
      <trkpt lat="42.93173" lon="0.76105">
        <ele>1509.6</ele>
        <time>2020-02-23T09:08:23Z</time>
      </trkpt>
      <trkpt lat="42.93172" lon="0.76106">
        <ele>1509.6</ele>
        <time>2020-02-23T09:08:24Z</time>
      </trkpt>
      <trkpt lat="42.93171" lon="0.76106">
        <ele>1509.6</ele>
        <time>2020-02-23T09:08:25Z</time>
      </trkpt>
      <trkpt lat="42.93171" lon="0.76106">
        <ele>1509.6</ele>
        <time>2020-02-23T09:08:26Z</time>
      </trkpt>
      <trkpt lat="42.9317" lon="0.76107">
        <ele>1509.6</ele>
        <time>2020-02-23T09:08:27Z</time>
      </trkpt>
      <trkpt lat="42.93169" lon="0.76107">
        <ele>1509.6</ele>
        <time>2020-02-23T09:08:28Z</time>
      </trkpt>
      <trkpt lat="42.93169" lon="0.76108">
        <ele>1509.6</ele>
        <time>2020-02-23T09:08:29Z</time>
      </trkpt>
      <trkpt lat="42.93168" lon="0.76108">
        <ele>1509.6</ele>
        <time>2020-02-23T09:08:30Z</time>
      </trkpt>
      <trkpt lat="42.93167" lon="0.76109">
        <ele>1509.6</ele>
        <time>2020-02-23T09:08:31Z</time>
      </trkpt>
      <trkpt lat="42.93166" lon="0.76109">
        <ele>1509.7</ele>
        <time>2020-02-23T09:08:32Z</time>
      </trkpt>
      <trkpt lat="42.93166" lon="0.7611">
        <ele>1509.7</ele>
        <time>2020-02-23T09:08:33Z</time>
      </trkpt>
      <trkpt lat="42.93165" lon="0.7611">
        <ele>1509.7</ele>
        <time>2020-02-23T09:08:34Z</time>
      </trkpt>
      <trkpt lat="42.93164" lon="0.76111">
        <ele>1509.7</ele>
        <time>2020-02-23T09:08:35Z</time>
      </trkpt>
      <trkpt lat="42.93163" lon="0.76111">
        <ele>1509.7</ele>
        <time>2020-02-23T09:08:36Z</time>
      </trkpt>
      <trkpt lat="42.93162" lon="0.76112">
        <ele>1509.7</ele>
        <time>2020-02-23T09:08:37Z</time>
      </trkpt>
      <trkpt lat="42.93161" lon="0.76112">
        <ele>1509.8</ele>
        <time>2020-02-23T09:08:38Z</time>
      </trkpt>
      <trkpt lat="42.9316" lon="0.76112">
        <ele>1509.9</ele>
        <time>2020-02-23T09:08:39Z</time>
      </trkpt>
      <trkpt lat="42.93159" lon="0.76113">
        <ele>1509.9</ele>
        <time>2020-02-23T09:08:40Z</time>
      </trkpt>
      <trkpt lat="42.93158" lon="0.76113">
        <ele>1510</ele>
        <time>2020-02-23T09:08:41Z</time>
      </trkpt>
      <trkpt lat="42.93157" lon="0.76113">
        <ele>1510.1</ele>
        <time>2020-02-23T09:08:42Z</time>
      </trkpt>
      <trkpt lat="42.93156" lon="0.76114">
        <ele>1510.2</ele>
        <time>2020-02-23T09:08:43Z</time>
      </trkpt>
      <trkpt lat="42.93155" lon="0.76114">
        <ele>1510.3</ele>
        <time>2020-02-23T09:08:44Z</time>
      </trkpt>
      <trkpt lat="42.93154" lon="0.76114">
        <ele>1510.3</ele>
        <time>2020-02-23T09:08:45Z</time>
      </trkpt>
      <trkpt lat="42.93154" lon="0.76113">
        <ele>1510.4</ele>
        <time>2020-02-23T09:08:46Z</time>
      </trkpt>
      <trkpt lat="42.93153" lon="0.76112">
        <ele>1510.6</ele>
        <time>2020-02-23T09:08:47Z</time>
      </trkpt>
      <trkpt lat="42.93153" lon="0.76112">
        <ele>1510.7</ele>
        <time>2020-02-23T09:08:48Z</time>
      </trkpt>
      <trkpt lat="42.93153" lon="0.76111">
        <ele>1510.8</ele>
        <time>2020-02-23T09:08:49Z</time>
      </trkpt>
      <trkpt lat="42.93152" lon="0.76111">
        <ele>1511</ele>
        <time>2020-02-23T09:08:50Z</time>
      </trkpt>
      <trkpt lat="42.93152" lon="0.7611">
        <ele>1511.1</ele>
        <time>2020-02-23T09:08:51Z</time>
      </trkpt>
      <trkpt lat="42.93151" lon="0.7611">
        <ele>1511.3</ele>
        <time>2020-02-23T09:08:52Z</time>
      </trkpt>
      <trkpt lat="42.93151" lon="0.76109">
        <ele>1511.5</ele>
        <time>2020-02-23T09:08:53Z</time>
      </trkpt>
      <trkpt lat="42.9315" lon="0.76108">
        <ele>1511.6</ele>
        <time>2020-02-23T09:08:54Z</time>
      </trkpt>
      <trkpt lat="42.9315" lon="0.76108">
        <ele>1511.8</ele>
        <time>2020-02-23T09:08:55Z</time>
      </trkpt>
      <trkpt lat="42.9315" lon="0.76107">
        <ele>1511.9</ele>
        <time>2020-02-23T09:08:56Z</time>
      </trkpt>
      <trkpt lat="42.93149" lon="0.76107">
        <ele>1512.1</ele>
        <time>2020-02-23T09:08:57Z</time>
      </trkpt>
      <trkpt lat="42.93149" lon="0.76106">
        <ele>1512.2</ele>
        <time>2020-02-23T09:08:58Z</time>
      </trkpt>
      <trkpt lat="42.93148" lon="0.76105">
        <ele>1512.4</ele>
        <time>2020-02-23T09:08:59Z</time>
      </trkpt>
      <trkpt lat="42.93148" lon="0.76105">
        <ele>1512.5</ele>
        <time>2020-02-23T09:09:00Z</time>
      </trkpt>
      <trkpt lat="42.93147" lon="0.76104">
        <ele>1512.8</ele>
        <time>2020-02-23T09:09:01Z</time>
      </trkpt>
      <trkpt lat="42.93147" lon="0.76103">
        <ele>1513.1</ele>
        <time>2020-02-23T09:09:02Z</time>
      </trkpt>
      <trkpt lat="42.93146" lon="0.76102">
        <ele>1513.4</ele>
        <time>2020-02-23T09:09:03Z</time>
      </trkpt>
      <trkpt lat="42.93145" lon="0.76101">
        <ele>1513.7</ele>
        <time>2020-02-23T09:09:04Z</time>
      </trkpt>
      <trkpt lat="42.93144" lon="0.761">
        <ele>1514</ele>
        <time>2020-02-23T09:09:05Z</time>
      </trkpt>
      <trkpt lat="42.93144" lon="0.76099">
        <ele>1514.4</ele>
        <time>2020-02-23T09:09:06Z</time>
      </trkpt>
      <trkpt lat="42.93143" lon="0.76098">
        <ele>1515.1</ele>
        <time>2020-02-23T09:09:07Z</time>
      </trkpt>
      <trkpt lat="42.93142" lon="0.76097">
        <ele>1515.7</ele>
        <time>2020-02-23T09:09:08Z</time>
      </trkpt>
      <trkpt lat="42.93142" lon="0.76096">
        <ele>1516.3</ele>
        <time>2020-02-23T09:09:09Z</time>
      </trkpt>
      <trkpt lat="42.93141" lon="0.76095">
        <ele>1517</ele>
        <time>2020-02-23T09:09:10Z</time>
      </trkpt>
      <trkpt lat="42.9314" lon="0.76094">
        <ele>1517.7</ele>
        <time>2020-02-23T09:09:11Z</time>
      </trkpt>
      <trkpt lat="42.93139" lon="0.76093">
        <ele>1518</ele>
        <time>2020-02-23T09:09:12Z</time>
      </trkpt>
      <trkpt lat="42.93139" lon="0.76092">
        <ele>1518.2</ele>
        <time>2020-02-23T09:09:13Z</time>
      </trkpt>
      <trkpt lat="42.93137" lon="0.7609">
        <ele>1518.6</ele>
        <time>2020-02-23T09:09:14Z</time>
      </trkpt>
      <trkpt lat="42.93136" lon="0.76088">
        <ele>1519.1</ele>
        <time>2020-02-23T09:09:15Z</time>
      </trkpt>
      <trkpt lat="42.93134" lon="0.76086">
        <ele>1519.5</ele>
        <time>2020-02-23T09:09:16Z</time>
      </trkpt>
      <trkpt lat="42.93133" lon="0.76084">
        <ele>1520</ele>
        <time>2020-02-23T09:09:17Z</time>
      </trkpt>
      <trkpt lat="42.93131" lon="0.76082">
        <ele>1520.8</ele>
        <time>2020-02-23T09:09:18Z</time>
      </trkpt>
      <trkpt lat="42.93132" lon="0.76081">
        <ele>1521.1</ele>
        <time>2020-02-23T09:09:19Z</time>
      </trkpt>
      <trkpt lat="42.93132" lon="0.76079">
        <ele>1521.5</ele>
        <time>2020-02-23T09:09:20Z</time>
      </trkpt>
      <trkpt lat="42.93132" lon="0.76078">
        <ele>1521.9</ele>
        <time>2020-02-23T09:09:21Z</time>
      </trkpt>
      <trkpt lat="42.93132" lon="0.76077">
        <ele>1522.3</ele>
        <time>2020-02-23T09:09:22Z</time>
      </trkpt>
      <trkpt lat="42.93132" lon="0.76075">
        <ele>1522.7</ele>
        <time>2020-02-23T09:09:23Z</time>
      </trkpt>
      <trkpt lat="42.93133" lon="0.76074">
        <ele>1523</ele>
        <time>2020-02-23T09:09:24Z</time>
      </trkpt>
      <trkpt lat="42.93133" lon="0.76073">
        <ele>1523.4</ele>
        <time>2020-02-23T09:09:25Z</time>
      </trkpt>
      <trkpt lat="42.93133" lon="0.76071">
        <ele>1523.8</ele>
        <time>2020-02-23T09:09:26Z</time>
      </trkpt>
      <trkpt lat="42.93133" lon="0.7607">
        <ele>1524.1</ele>
        <time>2020-02-23T09:09:27Z</time>
      </trkpt>
      <trkpt lat="42.93133" lon="0.76069">
        <ele>1524.4</ele>
        <time>2020-02-23T09:09:28Z</time>
      </trkpt>
      <trkpt lat="42.93133" lon="0.76067">
        <ele>1524.8</ele>
        <time>2020-02-23T09:09:29Z</time>
      </trkpt>
      <trkpt lat="42.93133" lon="0.76066">
        <ele>1525.2</ele>
        <time>2020-02-23T09:09:30Z</time>
      </trkpt>
      <trkpt lat="42.93133" lon="0.76065">
        <ele>1525.5</ele>
        <time>2020-02-23T09:09:31Z</time>
      </trkpt>
      <trkpt lat="42.93133" lon="0.76063">
        <ele>1525.9</ele>
        <time>2020-02-23T09:09:32Z</time>
      </trkpt>
      <trkpt lat="42.93133" lon="0.76062">
        <ele>1526.2</ele>
        <time>2020-02-23T09:09:33Z</time>
      </trkpt>
      <trkpt lat="42.93133" lon="0.7606">
        <ele>1526.6</ele>
        <time>2020-02-23T09:09:34Z</time>
      </trkpt>
      <trkpt lat="42.93133" lon="0.76059">
        <ele>1526.9</ele>
        <time>2020-02-23T09:09:35Z</time>
      </trkpt>
      <trkpt lat="42.93133" lon="0.76058">
        <ele>1527.2</ele>
        <time>2020-02-23T09:09:36Z</time>
      </trkpt>
      <trkpt lat="42.93133" lon="0.76056">
        <ele>1527.5</ele>
        <time>2020-02-23T09:09:37Z</time>
      </trkpt>
      <trkpt lat="42.93133" lon="0.76055">
        <ele>1527.7</ele>
        <time>2020-02-23T09:09:38Z</time>
      </trkpt>
      <trkpt lat="42.93133" lon="0.76054">
        <ele>1527.9</ele>
        <time>2020-02-23T09:09:39Z</time>
      </trkpt>
      <trkpt lat="42.93133" lon="0.76053">
        <ele>1528.1</ele>
        <time>2020-02-23T09:09:40Z</time>
      </trkpt>
      <trkpt lat="42.93133" lon="0.76052">
        <ele>1528.4</ele>
        <time>2020-02-23T09:09:41Z</time>
      </trkpt>
      <trkpt lat="42.93132" lon="0.76051">
        <ele>1528.6</ele>
        <time>2020-02-23T09:09:42Z</time>
      </trkpt>
      <trkpt lat="42.93132" lon="0.7605">
        <ele>1528.8</ele>
        <time>2020-02-23T09:09:43Z</time>
      </trkpt>
      <trkpt lat="42.93132" lon="0.76049">
        <ele>1529</ele>
        <time>2020-02-23T09:09:44Z</time>
      </trkpt>
      <trkpt lat="42.93132" lon="0.76048">
        <ele>1529.3</ele>
        <time>2020-02-23T09:09:45Z</time>
      </trkpt>
      <trkpt lat="42.93132" lon="0.76047">
        <ele>1529.5</ele>
        <time>2020-02-23T09:09:46Z</time>
      </trkpt>
      <trkpt lat="42.93131" lon="0.76046">
        <ele>1529.8</ele>
        <time>2020-02-23T09:09:47Z</time>
      </trkpt>
      <trkpt lat="42.93131" lon="0.76045">
        <ele>1530.1</ele>
        <time>2020-02-23T09:09:48Z</time>
      </trkpt>
      <trkpt lat="42.93131" lon="0.76045">
        <ele>1530.4</ele>
        <time>2020-02-23T09:09:49Z</time>
      </trkpt>
      <trkpt lat="42.93131" lon="0.76044">
        <ele>1530.7</ele>
        <time>2020-02-23T09:09:50Z</time>
      </trkpt>
      <trkpt lat="42.93131" lon="0.76042">
        <ele>1531</ele>
        <time>2020-02-23T09:09:51Z</time>
      </trkpt>
      <trkpt lat="42.93131" lon="0.76041">
        <ele>1531.3</ele>
        <time>2020-02-23T09:09:52Z</time>
      </trkpt>
      <trkpt lat="42.93131" lon="0.7604">
        <ele>1531.6</ele>
        <time>2020-02-23T09:09:53Z</time>
      </trkpt>
      <trkpt lat="42.93131" lon="0.76039">
        <ele>1532</ele>
        <time>2020-02-23T09:09:54Z</time>
      </trkpt>
      <trkpt lat="42.93131" lon="0.76038">
        <ele>1532.3</ele>
        <time>2020-02-23T09:09:55Z</time>
      </trkpt>
      <trkpt lat="42.93132" lon="0.76037">
        <ele>1532.6</ele>
        <time>2020-02-23T09:09:56Z</time>
      </trkpt>
      <trkpt lat="42.93132" lon="0.76036">
        <ele>1532.9</ele>
        <time>2020-02-23T09:09:57Z</time>
      </trkpt>
      <trkpt lat="42.93132" lon="0.76035">
        <ele>1533.1</ele>
        <time>2020-02-23T09:09:58Z</time>
      </trkpt>
      <trkpt lat="42.93132" lon="0.76034">
        <ele>1533.4</ele>
        <time>2020-02-23T09:09:59Z</time>
      </trkpt>
      <trkpt lat="42.93132" lon="0.76033">
        <ele>1533.6</ele>
        <time>2020-02-23T09:10:00Z</time>
      </trkpt>
      <trkpt lat="42.93132" lon="0.76032">
        <ele>1533.8</ele>
        <time>2020-02-23T09:10:01Z</time>
      </trkpt>
      <trkpt lat="42.93132" lon="0.76031">
        <ele>1534.1</ele>
        <time>2020-02-23T09:10:02Z</time>
      </trkpt>
      <trkpt lat="42.93133" lon="0.76029">
        <ele>1534.5</ele>
        <time>2020-02-23T09:10:03Z</time>
      </trkpt>
      <trkpt lat="42.93133" lon="0.76027">
        <ele>1535</ele>
        <time>2020-02-23T09:10:04Z</time>
      </trkpt>
      <trkpt lat="42.93133" lon="0.76026">
        <ele>1535.5</ele>
        <time>2020-02-23T09:10:05Z</time>
      </trkpt>
      <trkpt lat="42.93133" lon="0.76024">
        <ele>1536</ele>
        <time>2020-02-23T09:10:06Z</time>
      </trkpt>
      <trkpt lat="42.93134" lon="0.76022">
        <ele>1536.6</ele>
        <time>2020-02-23T09:10:07Z</time>
      </trkpt>
      <trkpt lat="42.93134" lon="0.7602">
        <ele>1537</ele>
        <time>2020-02-23T09:10:08Z</time>
      </trkpt>
      <trkpt lat="42.93134" lon="0.76019">
        <ele>1537.4</ele>
        <time>2020-02-23T09:10:09Z</time>
      </trkpt>
      <trkpt lat="42.93134" lon="0.76018">
        <ele>1537.7</ele>
        <time>2020-02-23T09:10:10Z</time>
      </trkpt>
      <trkpt lat="42.93133" lon="0.76016">
        <ele>1538</ele>
        <time>2020-02-23T09:10:11Z</time>
      </trkpt>
      <trkpt lat="42.93133" lon="0.76015">
        <ele>1538.3</ele>
        <time>2020-02-23T09:10:12Z</time>
      </trkpt>
      <trkpt lat="42.93132" lon="0.76014">
        <ele>1538.6</ele>
        <time>2020-02-23T09:10:13Z</time>
      </trkpt>
      <trkpt lat="42.93132" lon="0.76013">
        <ele>1538.9</ele>
        <time>2020-02-23T09:10:14Z</time>
      </trkpt>
      <trkpt lat="42.93131" lon="0.76012">
        <ele>1539.2</ele>
        <time>2020-02-23T09:10:15Z</time>
      </trkpt>
      <trkpt lat="42.93131" lon="0.76011">
        <ele>1539.5</ele>
        <time>2020-02-23T09:10:16Z</time>
      </trkpt>
      <trkpt lat="42.93131" lon="0.7601">
        <ele>1539.9</ele>
        <time>2020-02-23T09:10:17Z</time>
      </trkpt>
      <trkpt lat="42.9313" lon="0.76009">
        <ele>1540.3</ele>
        <time>2020-02-23T09:10:18Z</time>
      </trkpt>
      <trkpt lat="42.9313" lon="0.76008">
        <ele>1540.8</ele>
        <time>2020-02-23T09:10:19Z</time>
      </trkpt>
      <trkpt lat="42.93129" lon="0.76007">
        <ele>1541.2</ele>
        <time>2020-02-23T09:10:20Z</time>
      </trkpt>
      <trkpt lat="42.93129" lon="0.76006">
        <ele>1541.7</ele>
        <time>2020-02-23T09:10:21Z</time>
      </trkpt>
      <trkpt lat="42.93129" lon="0.76005">
        <ele>1542.1</ele>
        <time>2020-02-23T09:10:22Z</time>
      </trkpt>
      <trkpt lat="42.93128" lon="0.76004">
        <ele>1542.5</ele>
        <time>2020-02-23T09:10:23Z</time>
      </trkpt>
      <trkpt lat="42.93128" lon="0.76002">
        <ele>1542.9</ele>
        <time>2020-02-23T09:10:24Z</time>
      </trkpt>
      <trkpt lat="42.93128" lon="0.76001">
        <ele>1543.3</ele>
        <time>2020-02-23T09:10:25Z</time>
      </trkpt>
      <trkpt lat="42.93128" lon="0.76">
        <ele>1543.7</ele>
        <time>2020-02-23T09:10:26Z</time>
      </trkpt>
      <trkpt lat="42.93127" lon="0.75999">
        <ele>1544</ele>
        <time>2020-02-23T09:10:27Z</time>
      </trkpt>
      <trkpt lat="42.93127" lon="0.75998">
        <ele>1544.3</ele>
        <time>2020-02-23T09:10:28Z</time>
      </trkpt>
      <trkpt lat="42.93127" lon="0.75997">
        <ele>1544.5</ele>
        <time>2020-02-23T09:10:29Z</time>
      </trkpt>
      <trkpt lat="42.93126" lon="0.75996">
        <ele>1544.8</ele>
        <time>2020-02-23T09:10:30Z</time>
      </trkpt>
      <trkpt lat="42.93126" lon="0.75995">
        <ele>1545</ele>
        <time>2020-02-23T09:10:31Z</time>
      </trkpt>
      <trkpt lat="42.93126" lon="0.75994">
        <ele>1545.3</ele>
        <time>2020-02-23T09:10:32Z</time>
      </trkpt>
      <trkpt lat="42.93126" lon="0.75993">
        <ele>1545.5</ele>
        <time>2020-02-23T09:10:33Z</time>
      </trkpt>
      <trkpt lat="42.93125" lon="0.75992">
        <ele>1545.7</ele>
        <time>2020-02-23T09:10:34Z</time>
      </trkpt>
      <trkpt lat="42.93125" lon="0.75991">
        <ele>1546</ele>
        <time>2020-02-23T09:10:35Z</time>
      </trkpt>
      <trkpt lat="42.93125" lon="0.7599">
        <ele>1546.2</ele>
        <time>2020-02-23T09:10:36Z</time>
      </trkpt>
      <trkpt lat="42.93124" lon="0.75989">
        <ele>1546.5</ele>
        <time>2020-02-23T09:10:37Z</time>
      </trkpt>
      <trkpt lat="42.93124" lon="0.75988">
        <ele>1546.7</ele>
        <time>2020-02-23T09:10:38Z</time>
      </trkpt>
      <trkpt lat="42.93124" lon="0.75987">
        <ele>1546.9</ele>
        <time>2020-02-23T09:10:39Z</time>
      </trkpt>
      <trkpt lat="42.93124" lon="0.75986">
        <ele>1547.1</ele>
        <time>2020-02-23T09:10:40Z</time>
      </trkpt>
      <trkpt lat="42.93123" lon="0.75985">
        <ele>1547.3</ele>
        <time>2020-02-23T09:10:41Z</time>
      </trkpt>
      <trkpt lat="42.93123" lon="0.75984">
        <ele>1547.5</ele>
        <time>2020-02-23T09:10:42Z</time>
      </trkpt>
      <trkpt lat="42.93123" lon="0.75983">
        <ele>1547.8</ele>
        <time>2020-02-23T09:10:43Z</time>
      </trkpt>
      <trkpt lat="42.93122" lon="0.75982">
        <ele>1548.1</ele>
        <time>2020-02-23T09:10:44Z</time>
      </trkpt>
      <trkpt lat="42.93121" lon="0.75981">
        <ele>1548.4</ele>
        <time>2020-02-23T09:10:45Z</time>
      </trkpt>
      <trkpt lat="42.9312" lon="0.7598">
        <ele>1548.7</ele>
        <time>2020-02-23T09:10:46Z</time>
      </trkpt>
      <trkpt lat="42.93119" lon="0.75979">
        <ele>1549.1</ele>
        <time>2020-02-23T09:10:47Z</time>
      </trkpt>
      <trkpt lat="42.93118" lon="0.75979">
        <ele>1549.5</ele>
        <time>2020-02-23T09:10:48Z</time>
      </trkpt>
      <trkpt lat="42.93117" lon="0.75978">
        <ele>1549.9</ele>
        <time>2020-02-23T09:10:49Z</time>
      </trkpt>
      <trkpt lat="42.93117" lon="0.75977">
        <ele>1550.4</ele>
        <time>2020-02-23T09:10:50Z</time>
      </trkpt>
      <trkpt lat="42.93116" lon="0.75976">
        <ele>1550.8</ele>
        <time>2020-02-23T09:10:51Z</time>
      </trkpt>
      <trkpt lat="42.93115" lon="0.75975">
        <ele>1551.2</ele>
        <time>2020-02-23T09:10:52Z</time>
      </trkpt>
      <trkpt lat="42.93114" lon="0.75974">
        <ele>1551.5</ele>
        <time>2020-02-23T09:10:53Z</time>
      </trkpt>
      <trkpt lat="42.93114" lon="0.75973">
        <ele>1551.8</ele>
        <time>2020-02-23T09:10:54Z</time>
      </trkpt>
      <trkpt lat="42.93113" lon="0.75973">
        <ele>1552.1</ele>
        <time>2020-02-23T09:10:55Z</time>
      </trkpt>
      <trkpt lat="42.93113" lon="0.75972">
        <ele>1552.3</ele>
        <time>2020-02-23T09:10:56Z</time>
      </trkpt>
      <trkpt lat="42.93112" lon="0.75971">
        <ele>1552.4</ele>
        <time>2020-02-23T09:10:57Z</time>
      </trkpt>
      <trkpt lat="42.93111" lon="0.7597">
        <ele>1552.6</ele>
        <time>2020-02-23T09:10:58Z</time>
      </trkpt>
      <trkpt lat="42.93111" lon="0.7597">
        <ele>1552.7</ele>
        <time>2020-02-23T09:10:59Z</time>
      </trkpt>
      <trkpt lat="42.9311" lon="0.75969">
        <ele>1552.8</ele>
        <time>2020-02-23T09:11:00Z</time>
      </trkpt>
      <trkpt lat="42.93109" lon="0.75968">
        <ele>1552.9</ele>
        <time>2020-02-23T09:11:01Z</time>
      </trkpt>
      <trkpt lat="42.93109" lon="0.75967">
        <ele>1553.1</ele>
        <time>2020-02-23T09:11:02Z</time>
      </trkpt>
      <trkpt lat="42.93108" lon="0.75967">
        <ele>1553.2</ele>
        <time>2020-02-23T09:11:03Z</time>
      </trkpt>
      <trkpt lat="42.93108" lon="0.75966">
        <ele>1553.3</ele>
        <time>2020-02-23T09:11:04Z</time>
      </trkpt>
      <trkpt lat="42.93107" lon="0.75965">
        <ele>1553.5</ele>
        <time>2020-02-23T09:11:05Z</time>
      </trkpt>
      <trkpt lat="42.93107" lon="0.75964">
        <ele>1553.6</ele>
        <time>2020-02-23T09:11:06Z</time>
      </trkpt>
      <trkpt lat="42.93107" lon="0.75963">
        <ele>1553.7</ele>
        <time>2020-02-23T09:11:07Z</time>
      </trkpt>
      <trkpt lat="42.93106" lon="0.75962">
        <ele>1553.8</ele>
        <time>2020-02-23T09:11:08Z</time>
      </trkpt>
      <trkpt lat="42.93106" lon="0.75961">
        <ele>1554</ele>
        <time>2020-02-23T09:11:09Z</time>
      </trkpt>
      <trkpt lat="42.93106" lon="0.75961">
        <ele>1554.1</ele>
        <time>2020-02-23T09:11:10Z</time>
      </trkpt>
      <trkpt lat="42.93105" lon="0.7596">
        <ele>1554.2</ele>
        <time>2020-02-23T09:11:11Z</time>
      </trkpt>
      <trkpt lat="42.93105" lon="0.75959">
        <ele>1554.4</ele>
        <time>2020-02-23T09:11:12Z</time>
      </trkpt>
      <trkpt lat="42.93105" lon="0.75958">
        <ele>1554.6</ele>
        <time>2020-02-23T09:11:13Z</time>
      </trkpt>
      <trkpt lat="42.93104" lon="0.75957">
        <ele>1554.9</ele>
        <time>2020-02-23T09:11:14Z</time>
      </trkpt>
      <trkpt lat="42.93104" lon="0.75956">
        <ele>1554.9</ele>
        <time>2020-02-23T09:11:15Z</time>
      </trkpt>
      <trkpt lat="42.93104" lon="0.75955">
        <ele>1555.9</ele>
        <time>2020-02-23T09:11:16Z</time>
      </trkpt>
      <trkpt lat="42.93104" lon="0.75954">
        <ele>1555.9</ele>
        <time>2020-02-23T09:11:17Z</time>
      </trkpt>
      <trkpt lat="42.93103" lon="0.75955">
        <ele>1555.9</ele>
        <time>2020-02-23T09:11:18Z</time>
      </trkpt>
      <trkpt lat="42.93103" lon="0.75955">
        <ele>1555.9</ele>
        <time>2020-02-23T09:11:19Z</time>
      </trkpt>
      <trkpt lat="42.93102" lon="0.75956">
        <ele>1555.9</ele>
        <time>2020-02-23T09:11:20Z</time>
      </trkpt>
      <trkpt lat="42.93102" lon="0.75956">
        <ele>1554.9</ele>
        <time>2020-02-23T09:11:21Z</time>
      </trkpt>
      <trkpt lat="42.93101" lon="0.75957">
        <ele>1554.9</ele>
        <time>2020-02-23T09:11:22Z</time>
      </trkpt>
      <trkpt lat="42.93101" lon="0.75957">
        <ele>1554.8</ele>
        <time>2020-02-23T09:11:23Z</time>
      </trkpt>
      <trkpt lat="42.931" lon="0.75957">
        <ele>1554.8</ele>
        <time>2020-02-23T09:11:24Z</time>
      </trkpt>
      <trkpt lat="42.931" lon="0.75958">
        <ele>1554.8</ele>
        <time>2020-02-23T09:11:25Z</time>
      </trkpt>
      <trkpt lat="42.93099" lon="0.75958">
        <ele>1554.8</ele>
        <time>2020-02-23T09:11:26Z</time>
      </trkpt>
      <trkpt lat="42.93099" lon="0.75959">
        <ele>1554.8</ele>
        <time>2020-02-23T09:11:27Z</time>
      </trkpt>
      <trkpt lat="42.93098" lon="0.75959">
        <ele>1554.8</ele>
        <time>2020-02-23T09:11:28Z</time>
      </trkpt>
      <trkpt lat="42.93098" lon="0.7596">
        <ele>1554.8</ele>
        <time>2020-02-23T09:11:29Z</time>
      </trkpt>
      <trkpt lat="42.93097" lon="0.7596">
        <ele>1554.8</ele>
        <time>2020-02-23T09:11:30Z</time>
      </trkpt>
      <trkpt lat="42.93097" lon="0.7596">
        <ele>1553.7</ele>
        <time>2020-02-23T09:11:31Z</time>
      </trkpt>
      <trkpt lat="42.93096" lon="0.75961">
        <ele>1553.7</ele>
        <time>2020-02-23T09:11:32Z</time>
      </trkpt>
      <trkpt lat="42.93096" lon="0.75961">
        <ele>1553.7</ele>
        <time>2020-02-23T09:11:33Z</time>
      </trkpt>
      <trkpt lat="42.93096" lon="0.75962">
        <ele>1553.7</ele>
        <time>2020-02-23T09:11:34Z</time>
      </trkpt>
      <trkpt lat="42.93096" lon="0.75962">
        <ele>1553.7</ele>
        <time>2020-02-23T09:11:35Z</time>
      </trkpt>
      <trkpt lat="42.93096" lon="0.75963">
        <ele>1553.7</ele>
        <time>2020-02-23T09:11:36Z</time>
      </trkpt>
      <trkpt lat="42.93095" lon="0.75963">
        <ele>1553.7</ele>
        <time>2020-02-23T09:11:37Z</time>
      </trkpt>
      <trkpt lat="42.93095" lon="0.75964">
        <ele>1553.7</ele>
        <time>2020-02-23T09:11:38Z</time>
      </trkpt>
      <trkpt lat="42.93095" lon="0.75964">
        <ele>1553.8</ele>
        <time>2020-02-23T09:11:39Z</time>
      </trkpt>
      <trkpt lat="42.93095" lon="0.75965">
        <ele>1552.7</ele>
        <time>2020-02-23T09:11:40Z</time>
      </trkpt>
      <trkpt lat="42.93095" lon="0.75965">
        <ele>1552.7</ele>
        <time>2020-02-23T09:11:41Z</time>
      </trkpt>
      <trkpt lat="42.93095" lon="0.75966">
        <ele>1552.7</ele>
        <time>2020-02-23T09:11:42Z</time>
      </trkpt>
      <trkpt lat="42.93095" lon="0.75966">
        <ele>1552.7</ele>
        <time>2020-02-23T09:11:43Z</time>
      </trkpt>
      <trkpt lat="42.93095" lon="0.75967">
        <ele>1552.7</ele>
        <time>2020-02-23T09:11:44Z</time>
      </trkpt>
      <trkpt lat="42.93095" lon="0.75968">
        <ele>1552.7</ele>
        <time>2020-02-23T09:11:45Z</time>
      </trkpt>
      <trkpt lat="42.93094" lon="0.75968">
        <ele>1552.8</ele>
        <time>2020-02-23T09:11:46Z</time>
      </trkpt>
      <trkpt lat="42.93094" lon="0.75969">
        <ele>1552.8</ele>
        <time>2020-02-23T09:11:47Z</time>
      </trkpt>
      <trkpt lat="42.93094" lon="0.75969">
        <ele>1551.7</ele>
        <time>2020-02-23T09:11:48Z</time>
      </trkpt>
      <trkpt lat="42.93094" lon="0.7597">
        <ele>1551.7</ele>
        <time>2020-02-23T09:11:49Z</time>
      </trkpt>
      <trkpt lat="42.93094" lon="0.7597">
        <ele>1551.7</ele>
        <time>2020-02-23T09:11:50Z</time>
      </trkpt>
      <trkpt lat="42.93094" lon="0.75971">
        <ele>1551.7</ele>
        <time>2020-02-23T09:11:51Z</time>
      </trkpt>
      <trkpt lat="42.93094" lon="0.75971">
        <ele>1551.7</ele>
        <time>2020-02-23T09:11:52Z</time>
      </trkpt>
      <trkpt lat="42.93094" lon="0.75972">
        <ele>1551.7</ele>
        <time>2020-02-23T09:11:53Z</time>
      </trkpt>
      <trkpt lat="42.93094" lon="0.75972">
        <ele>1551.7</ele>
        <time>2020-02-23T09:11:54Z</time>
      </trkpt>
      <trkpt lat="42.93093" lon="0.75973">
        <ele>1551.7</ele>
        <time>2020-02-23T09:11:55Z</time>
      </trkpt>
      <trkpt lat="42.93093" lon="0.75973">
        <ele>1550.7</ele>
        <time>2020-02-23T09:11:56Z</time>
      </trkpt>
      <trkpt lat="42.93093" lon="0.75974">
        <ele>1550.7</ele>
        <time>2020-02-23T09:11:57Z</time>
      </trkpt>
      <trkpt lat="42.93092" lon="0.75975">
        <ele>1550.7</ele>
        <time>2020-02-23T09:11:58Z</time>
      </trkpt>
      <trkpt lat="42.93092" lon="0.75975">
        <ele>1550.7</ele>
        <time>2020-02-23T09:11:59Z</time>
      </trkpt>
      <trkpt lat="42.93091" lon="0.75976">
        <ele>1550.8</ele>
        <time>2020-02-23T09:12:00Z</time>
      </trkpt>
      <trkpt lat="42.93091" lon="0.75977">
        <ele>1550.8</ele>
        <time>2020-02-23T09:12:01Z</time>
      </trkpt>
      <trkpt lat="42.9309" lon="0.75978">
        <ele>1549.8</ele>
        <time>2020-02-23T09:12:02Z</time>
      </trkpt>
      <trkpt lat="42.93089" lon="0.75978">
        <ele>1549.8</ele>
        <time>2020-02-23T09:12:03Z</time>
      </trkpt>
      <trkpt lat="42.93089" lon="0.75979">
        <ele>1549.8</ele>
        <time>2020-02-23T09:12:04Z</time>
      </trkpt>
      <trkpt lat="42.93088" lon="0.7598">
        <ele>1550</ele>
        <time>2020-02-23T09:12:05Z</time>
      </trkpt>
      <trkpt lat="42.93088" lon="0.75981">
        <ele>1550</ele>
        <time>2020-02-23T09:12:06Z</time>
      </trkpt>
      <trkpt lat="42.93087" lon="0.75981">
        <ele>1550</ele>
        <time>2020-02-23T09:12:07Z</time>
      </trkpt>
      <trkpt lat="42.93087" lon="0.75982">
        <ele>1549</ele>
        <time>2020-02-23T09:12:08Z</time>
      </trkpt>
      <trkpt lat="42.93086" lon="0.75983">
        <ele>1549</ele>
        <time>2020-02-23T09:12:09Z</time>
      </trkpt>
      <trkpt lat="42.93086" lon="0.75983">
        <ele>1549</ele>
        <time>2020-02-23T09:12:10Z</time>
      </trkpt>
      <trkpt lat="42.93085" lon="0.75983">
        <ele>1549</ele>
        <time>2020-02-23T09:12:11Z</time>
      </trkpt>
      <trkpt lat="42.93085" lon="0.75984">
        <ele>1549</ele>
        <time>2020-02-23T09:12:12Z</time>
      </trkpt>
      <trkpt lat="42.93085" lon="0.75984">
        <ele>1549.3</ele>
        <time>2020-02-23T09:12:13Z</time>
      </trkpt>
      <trkpt lat="42.93084" lon="0.75985">
        <ele>1549.3</ele>
        <time>2020-02-23T09:12:14Z</time>
      </trkpt>
      <trkpt lat="42.93084" lon="0.75985">
        <ele>1549.3</ele>
        <time>2020-02-23T09:12:15Z</time>
      </trkpt>
      <trkpt lat="42.93084" lon="0.75986">
        <ele>1549.3</ele>
        <time>2020-02-23T09:12:16Z</time>
      </trkpt>
      <trkpt lat="42.93083" lon="0.75986">
        <ele>1549.3</ele>
        <time>2020-02-23T09:12:17Z</time>
      </trkpt>
      <trkpt lat="42.93083" lon="0.75986">
        <ele>1548.3</ele>
        <time>2020-02-23T09:12:18Z</time>
      </trkpt>
      <trkpt lat="42.93083" lon="0.75987">
        <ele>1548.3</ele>
        <time>2020-02-23T09:12:19Z</time>
      </trkpt>
      <trkpt lat="42.93082" lon="0.75987">
        <ele>1548.3</ele>
        <time>2020-02-23T09:12:20Z</time>
      </trkpt>
      <trkpt lat="42.93082" lon="0.75988">
        <ele>1548.6</ele>
        <time>2020-02-23T09:12:21Z</time>
      </trkpt>
      <trkpt lat="42.93082" lon="0.75988">
        <ele>1548.6</ele>
        <time>2020-02-23T09:12:22Z</time>
      </trkpt>
      <trkpt lat="42.93081" lon="0.75989">
        <ele>1548.6</ele>
        <time>2020-02-23T09:12:23Z</time>
      </trkpt>
      <trkpt lat="42.93081" lon="0.75989">
        <ele>1548.6</ele>
        <time>2020-02-23T09:12:24Z</time>
      </trkpt>
      <trkpt lat="42.93081" lon="0.75989">
        <ele>1548.6</ele>
        <time>2020-02-23T09:12:25Z</time>
      </trkpt>
      <trkpt lat="42.9308" lon="0.7599">
        <ele>1548.6</ele>
        <time>2020-02-23T09:12:26Z</time>
      </trkpt>
      <trkpt lat="42.9308" lon="0.7599">
        <ele>1548.6</ele>
        <time>2020-02-23T09:12:27Z</time>
      </trkpt>
      <trkpt lat="42.93079" lon="0.75991">
        <ele>1547.7</ele>
        <time>2020-02-23T09:12:28Z</time>
      </trkpt>
      <trkpt lat="42.93079" lon="0.75992">
        <ele>1547.7</ele>
        <time>2020-02-23T09:12:29Z</time>
      </trkpt>
      <trkpt lat="42.9308" lon="0.75993">
        <ele>1547.7</ele>
        <time>2020-02-23T09:12:30Z</time>
      </trkpt>
      <trkpt lat="42.9308" lon="0.75994">
        <ele>1547.7</ele>
        <time>2020-02-23T09:12:31Z</time>
      </trkpt>
      <trkpt lat="42.9308" lon="0.75995">
        <ele>1546.8</ele>
        <time>2020-02-23T09:12:32Z</time>
      </trkpt>
      <trkpt lat="42.9308" lon="0.75997">
        <ele>1546.8</ele>
        <time>2020-02-23T09:12:33Z</time>
      </trkpt>
      <trkpt lat="42.9308" lon="0.75998">
        <ele>1546.8</ele>
        <time>2020-02-23T09:12:34Z</time>
      </trkpt>
      <trkpt lat="42.9308" lon="0.75999">
        <ele>1546</ele>
        <time>2020-02-23T09:12:35Z</time>
      </trkpt>
      <trkpt lat="42.9308" lon="0.76">
        <ele>1546</ele>
        <time>2020-02-23T09:12:36Z</time>
      </trkpt>
      <trkpt lat="42.9308" lon="0.76001">
        <ele>1546</ele>
        <time>2020-02-23T09:12:37Z</time>
      </trkpt>
      <trkpt lat="42.9308" lon="0.76003">
        <ele>1546</ele>
        <time>2020-02-23T09:12:38Z</time>
      </trkpt>
      <trkpt lat="42.9308" lon="0.76004">
        <ele>1545.1</ele>
        <time>2020-02-23T09:12:39Z</time>
      </trkpt>
      <trkpt lat="42.93079" lon="0.76005">
        <ele>1545.1</ele>
        <time>2020-02-23T09:12:40Z</time>
      </trkpt>
      <trkpt lat="42.93079" lon="0.76006">
        <ele>1545.1</ele>
        <time>2020-02-23T09:12:41Z</time>
      </trkpt>
      <trkpt lat="42.93079" lon="0.76007">
        <ele>1545.1</ele>
        <time>2020-02-23T09:12:42Z</time>
      </trkpt>
      <trkpt lat="42.93079" lon="0.76008">
        <ele>1544.7</ele>
        <time>2020-02-23T09:12:43Z</time>
      </trkpt>
      <trkpt lat="42.93078" lon="0.7601">
        <ele>1544.7</ele>
        <time>2020-02-23T09:12:44Z</time>
      </trkpt>
      <trkpt lat="42.93078" lon="0.76011">
        <ele>1544.7</ele>
        <time>2020-02-23T09:12:45Z</time>
      </trkpt>
      <trkpt lat="42.93078" lon="0.76012">
        <ele>1543.9</ele>
        <time>2020-02-23T09:12:46Z</time>
      </trkpt>
      <trkpt lat="42.93078" lon="0.76013">
        <ele>1543.9</ele>
        <time>2020-02-23T09:12:47Z</time>
      </trkpt>
      <trkpt lat="42.93077" lon="0.76014">
        <ele>1543.9</ele>
        <time>2020-02-23T09:12:48Z</time>
      </trkpt>
      <trkpt lat="42.93077" lon="0.76016">
        <ele>1543.9</ele>
        <time>2020-02-23T09:12:49Z</time>
      </trkpt>
      <trkpt lat="42.93077" lon="0.76017">
        <ele>1543.1</ele>
        <time>2020-02-23T09:12:50Z</time>
      </trkpt>
      <trkpt lat="42.93076" lon="0.76018">
        <ele>1543.1</ele>
        <time>2020-02-23T09:12:51Z</time>
      </trkpt>
      <trkpt lat="42.93076" lon="0.76019">
        <ele>1543.4</ele>
        <time>2020-02-23T09:12:52Z</time>
      </trkpt>
      <trkpt lat="42.93075" lon="0.7602">
        <ele>1542.6</ele>
        <time>2020-02-23T09:12:53Z</time>
      </trkpt>
      <trkpt lat="42.93075" lon="0.76022">
        <ele>1542.6</ele>
        <time>2020-02-23T09:12:54Z</time>
      </trkpt>
      <trkpt lat="42.93074" lon="0.76023">
        <ele>1542.6</ele>
        <time>2020-02-23T09:12:55Z</time>
      </trkpt>
      <trkpt lat="42.93074" lon="0.76024">
        <ele>1542.6</ele>
        <time>2020-02-23T09:12:56Z</time>
      </trkpt>
      <trkpt lat="42.93073" lon="0.76025">
        <ele>1541.8</ele>
        <time>2020-02-23T09:12:57Z</time>
      </trkpt>
      <trkpt lat="42.93073" lon="0.76027">
        <ele>1541.8</ele>
        <time>2020-02-23T09:12:58Z</time>
      </trkpt>
      <trkpt lat="42.93072" lon="0.76028">
        <ele>1542.1</ele>
        <time>2020-02-23T09:12:59Z</time>
      </trkpt>
      <trkpt lat="42.93072" lon="0.76029">
        <ele>1542.1</ele>
        <time>2020-02-23T09:13:00Z</time>
      </trkpt>
      <trkpt lat="42.93071" lon="0.76029">
        <ele>1541.3</ele>
        <time>2020-02-23T09:13:01Z</time>
      </trkpt>
      <trkpt lat="42.93071" lon="0.7603">
        <ele>1541.3</ele>
        <time>2020-02-23T09:13:02Z</time>
      </trkpt>
      <trkpt lat="42.93071" lon="0.76031">
        <ele>1541.3</ele>
        <time>2020-02-23T09:13:03Z</time>
      </trkpt>
      <trkpt lat="42.9307" lon="0.76032">
        <ele>1541.3</ele>
        <time>2020-02-23T09:13:04Z</time>
      </trkpt>
      <trkpt lat="42.9307" lon="0.76032">
        <ele>1541.3</ele>
        <time>2020-02-23T09:13:05Z</time>
      </trkpt>
      <trkpt lat="42.93069" lon="0.76033">
        <ele>1541.6</ele>
        <time>2020-02-23T09:13:06Z</time>
      </trkpt>
      <trkpt lat="42.93069" lon="0.76034">
        <ele>1540.8</ele>
        <time>2020-02-23T09:13:07Z</time>
      </trkpt>
      <trkpt lat="42.93068" lon="0.76035">
        <ele>1540.8</ele>
        <time>2020-02-23T09:13:08Z</time>
      </trkpt>
      <trkpt lat="42.93068" lon="0.76035">
        <ele>1540.8</ele>
        <time>2020-02-23T09:13:09Z</time>
      </trkpt>
      <trkpt lat="42.93067" lon="0.76036">
        <ele>1540.8</ele>
        <time>2020-02-23T09:13:10Z</time>
      </trkpt>
      <trkpt lat="42.93067" lon="0.76037">
        <ele>1540.8</ele>
        <time>2020-02-23T09:13:11Z</time>
      </trkpt>
      <trkpt lat="42.93066" lon="0.76038">
        <ele>1540.1</ele>
        <time>2020-02-23T09:13:12Z</time>
      </trkpt>
      <trkpt lat="42.93066" lon="0.76037">
        <ele>1541.1</ele>
        <time>2020-02-23T09:13:13Z</time>
      </trkpt>
      <trkpt lat="42.93065" lon="0.76037">
        <ele>1541.1</ele>
        <time>2020-02-23T09:13:14Z</time>
      </trkpt>
      <trkpt lat="42.93064" lon="0.76037">
        <ele>1541.1</ele>
        <time>2020-02-23T09:13:15Z</time>
      </trkpt>
      <trkpt lat="42.93063" lon="0.76037">
        <ele>1541.3</ele>
        <time>2020-02-23T09:13:16Z</time>
      </trkpt>
      <trkpt lat="42.93062" lon="0.76036">
        <ele>1541.3</ele>
        <time>2020-02-23T09:13:17Z</time>
      </trkpt>
      <trkpt lat="42.93061" lon="0.76036">
        <ele>1541.3</ele>
        <time>2020-02-23T09:13:18Z</time>
      </trkpt>
      <trkpt lat="42.93061" lon="0.76036">
        <ele>1541.3</ele>
        <time>2020-02-23T09:13:19Z</time>
      </trkpt>
      <trkpt lat="42.9306" lon="0.76036">
        <ele>1541.5</ele>
        <time>2020-02-23T09:13:20Z</time>
      </trkpt>
      <trkpt lat="42.93059" lon="0.76035">
        <ele>1541.5</ele>
        <time>2020-02-23T09:13:21Z</time>
      </trkpt>
      <trkpt lat="42.93058" lon="0.76035">
        <ele>1541.5</ele>
        <time>2020-02-23T09:13:22Z</time>
      </trkpt>
      <trkpt lat="42.93057" lon="0.76035">
        <ele>1541.5</ele>
        <time>2020-02-23T09:13:23Z</time>
      </trkpt>
      <trkpt lat="42.93057" lon="0.76034">
        <ele>1541.8</ele>
        <time>2020-02-23T09:13:24Z</time>
      </trkpt>
      <trkpt lat="42.93056" lon="0.76034">
        <ele>1541.8</ele>
        <time>2020-02-23T09:13:25Z</time>
      </trkpt>
      <trkpt lat="42.93055" lon="0.76034">
        <ele>1541.8</ele>
        <time>2020-02-23T09:13:26Z</time>
      </trkpt>
      <trkpt lat="42.93054" lon="0.76033">
        <ele>1542.5</ele>
        <time>2020-02-23T09:13:27Z</time>
      </trkpt>
      <trkpt lat="42.93054" lon="0.76033">
        <ele>1542.5</ele>
        <time>2020-02-23T09:13:28Z</time>
      </trkpt>
      <trkpt lat="42.93053" lon="0.76032">
        <ele>1542.7</ele>
        <time>2020-02-23T09:13:29Z</time>
      </trkpt>
      <trkpt lat="42.93052" lon="0.76032">
        <ele>1542.7</ele>
        <time>2020-02-23T09:13:30Z</time>
      </trkpt>
      <trkpt lat="42.93052" lon="0.76031">
        <ele>1542.7</ele>
        <time>2020-02-23T09:13:31Z</time>
      </trkpt>
      <trkpt lat="42.93051" lon="0.76031">
        <ele>1542.7</ele>
        <time>2020-02-23T09:13:32Z</time>
      </trkpt>
      <trkpt lat="42.9305" lon="0.7603">
        <ele>1542.9</ele>
        <time>2020-02-23T09:13:33Z</time>
      </trkpt>
      <trkpt lat="42.93049" lon="0.7603">
        <ele>1542.9</ele>
        <time>2020-02-23T09:13:34Z</time>
      </trkpt>
      <trkpt lat="42.93049" lon="0.76029">
        <ele>1542.9</ele>
        <time>2020-02-23T09:13:35Z</time>
      </trkpt>
      <trkpt lat="42.93048" lon="0.76028">
        <ele>1543.7</ele>
        <time>2020-02-23T09:13:36Z</time>
      </trkpt>
      <trkpt lat="42.93048" lon="0.76027">
        <ele>1543.7</ele>
        <time>2020-02-23T09:13:37Z</time>
      </trkpt>
      <trkpt lat="42.93047" lon="0.76027">
        <ele>1543.8</ele>
        <time>2020-02-23T09:13:38Z</time>
      </trkpt>
      <trkpt lat="42.93047" lon="0.76026">
        <ele>1543.8</ele>
        <time>2020-02-23T09:13:39Z</time>
      </trkpt>
      <trkpt lat="42.93046" lon="0.76025">
        <ele>1543.8</ele>
        <time>2020-02-23T09:13:40Z</time>
      </trkpt>
      <trkpt lat="42.93046" lon="0.76024">
        <ele>1544.6</ele>
        <time>2020-02-23T09:13:41Z</time>
      </trkpt>
      <trkpt lat="42.93045" lon="0.76023">
        <ele>1544.6</ele>
        <time>2020-02-23T09:13:42Z</time>
      </trkpt>
      <trkpt lat="42.93045" lon="0.76022">
        <ele>1544.6</ele>
        <time>2020-02-23T09:13:43Z</time>
      </trkpt>
      <trkpt lat="42.93044" lon="0.76021">
        <ele>1544.7</ele>
        <time>2020-02-23T09:13:44Z</time>
      </trkpt>
      <trkpt lat="42.93044" lon="0.7602">
        <ele>1544.7</ele>
        <time>2020-02-23T09:13:45Z</time>
      </trkpt>
      <trkpt lat="42.93043" lon="0.7602">
        <ele>1545.4</ele>
        <time>2020-02-23T09:13:46Z</time>
      </trkpt>
      <trkpt lat="42.93043" lon="0.76019">
        <ele>1545.4</ele>
        <time>2020-02-23T09:13:47Z</time>
      </trkpt>
      <trkpt lat="42.93043" lon="0.76017">
        <ele>1545.4</ele>
        <time>2020-02-23T09:13:48Z</time>
      </trkpt>
      <trkpt lat="42.93042" lon="0.76016">
        <ele>1545.4</ele>
        <time>2020-02-23T09:13:49Z</time>
      </trkpt>
      <trkpt lat="42.93042" lon="0.76015">
        <ele>1546.1</ele>
        <time>2020-02-23T09:13:50Z</time>
      </trkpt>
      <trkpt lat="42.93041" lon="0.76014">
        <ele>1546.1</ele>
        <time>2020-02-23T09:13:51Z</time>
      </trkpt>
      <trkpt lat="42.93041" lon="0.76013">
        <ele>1546.1</ele>
        <time>2020-02-23T09:13:52Z</time>
      </trkpt>
      <trkpt lat="42.93041" lon="0.76012">
        <ele>1546.2</ele>
        <time>2020-02-23T09:13:53Z</time>
      </trkpt>
      <trkpt lat="42.9304" lon="0.76011">
        <ele>1546.9</ele>
        <time>2020-02-23T09:13:54Z</time>
      </trkpt>
      <trkpt lat="42.9304" lon="0.7601">
        <ele>1546.9</ele>
        <time>2020-02-23T09:13:55Z</time>
      </trkpt>
      <trkpt lat="42.9304" lon="0.76009">
        <ele>1546.9</ele>
        <time>2020-02-23T09:13:56Z</time>
      </trkpt>
      <trkpt lat="42.93039" lon="0.76008">
        <ele>1546.9</ele>
        <time>2020-02-23T09:13:57Z</time>
      </trkpt>
      <trkpt lat="42.93039" lon="0.76007">
        <ele>1547.5</ele>
        <time>2020-02-23T09:13:58Z</time>
      </trkpt>
      <trkpt lat="42.93038" lon="0.76006">
        <ele>1547.7</ele>
        <time>2020-02-23T09:13:59Z</time>
      </trkpt>
      <trkpt lat="42.93037" lon="0.76005">
        <ele>1547.7</ele>
        <time>2020-02-23T09:14:00Z</time>
      </trkpt>
      <trkpt lat="42.93036" lon="0.76005">
        <ele>1547.7</ele>
        <time>2020-02-23T09:14:01Z</time>
      </trkpt>
      <trkpt lat="42.93036" lon="0.76004">
        <ele>1547.7</ele>
        <time>2020-02-23T09:14:02Z</time>
      </trkpt>
      <trkpt lat="42.93035" lon="0.76003">
        <ele>1548.4</ele>
        <time>2020-02-23T09:14:03Z</time>
      </trkpt>
      <trkpt lat="42.93034" lon="0.76002">
        <ele>1548.6</ele>
        <time>2020-02-23T09:14:04Z</time>
      </trkpt>
      <trkpt lat="42.93034" lon="0.76001">
        <ele>1548.6</ele>
        <time>2020-02-23T09:14:05Z</time>
      </trkpt>
      <trkpt lat="42.93033" lon="0.76">
        <ele>1548.6</ele>
        <time>2020-02-23T09:14:06Z</time>
      </trkpt>
      <trkpt lat="42.93032" lon="0.75999">
        <ele>1548.6</ele>
        <time>2020-02-23T09:14:07Z</time>
      </trkpt>
      <trkpt lat="42.93031" lon="0.75998">
        <ele>1549.5</ele>
        <time>2020-02-23T09:14:08Z</time>
      </trkpt>
      <trkpt lat="42.93031" lon="0.75997">
        <ele>1549.5</ele>
        <time>2020-02-23T09:14:09Z</time>
      </trkpt>
      <trkpt lat="42.9303" lon="0.75996">
        <ele>1549.5</ele>
        <time>2020-02-23T09:14:10Z</time>
      </trkpt>
      <trkpt lat="42.93029" lon="0.75995">
        <ele>1549.5</ele>
        <time>2020-02-23T09:14:11Z</time>
      </trkpt>
      <trkpt lat="42.93027" lon="0.75995">
        <ele>1549.8</ele>
        <time>2020-02-23T09:14:12Z</time>
      </trkpt>
      <trkpt lat="42.93026" lon="0.75994">
        <ele>1550.6</ele>
        <time>2020-02-23T09:14:13Z</time>
      </trkpt>
      <trkpt lat="42.93024" lon="0.75994">
        <ele>1550.8</ele>
        <time>2020-02-23T09:14:14Z</time>
      </trkpt>
      <trkpt lat="42.93022" lon="0.75993">
        <ele>1550.8</ele>
        <time>2020-02-23T09:14:15Z</time>
      </trkpt>
      <trkpt lat="42.93021" lon="0.75993">
        <ele>1551</ele>
        <time>2020-02-23T09:14:16Z</time>
      </trkpt>
      <trkpt lat="42.93019" lon="0.75992">
        <ele>1551.2</ele>
        <time>2020-02-23T09:14:17Z</time>
      </trkpt>
      <trkpt lat="42.93018" lon="0.75991">
        <ele>1551.2</ele>
        <time>2020-02-23T09:14:18Z</time>
      </trkpt>
      <trkpt lat="42.93016" lon="0.75989">
        <ele>1552.1</ele>
        <time>2020-02-23T09:14:19Z</time>
      </trkpt>
      <trkpt lat="42.93015" lon="0.75988">
        <ele>1552.2</ele>
        <time>2020-02-23T09:14:20Z</time>
      </trkpt>
      <trkpt lat="42.93014" lon="0.75987">
        <ele>1552.2</ele>
        <time>2020-02-23T09:14:21Z</time>
      </trkpt>
      <trkpt lat="42.93012" lon="0.75986">
        <ele>1553.3</ele>
        <time>2020-02-23T09:14:22Z</time>
      </trkpt>
      <trkpt lat="42.93011" lon="0.75984">
        <ele>1553.3</ele>
        <time>2020-02-23T09:14:23Z</time>
      </trkpt>
      <trkpt lat="42.9301" lon="0.75983">
        <ele>1553.3</ele>
        <time>2020-02-23T09:14:24Z</time>
      </trkpt>
      <trkpt lat="42.9301" lon="0.75981">
        <ele>1554.5</ele>
        <time>2020-02-23T09:14:25Z</time>
      </trkpt>
      <trkpt lat="42.93009" lon="0.75979">
        <ele>1554.5</ele>
        <time>2020-02-23T09:14:26Z</time>
      </trkpt>
      <trkpt lat="42.93008" lon="0.75978">
        <ele>1554.5</ele>
        <time>2020-02-23T09:14:27Z</time>
      </trkpt>
      <trkpt lat="42.93007" lon="0.75976">
        <ele>1555.5</ele>
        <time>2020-02-23T09:14:28Z</time>
      </trkpt>
      <trkpt lat="42.93007" lon="0.75975">
        <ele>1555.5</ele>
        <time>2020-02-23T09:14:29Z</time>
      </trkpt>
      <trkpt lat="42.93006" lon="0.75973">
        <ele>1556.6</ele>
        <time>2020-02-23T09:14:30Z</time>
      </trkpt>
      <trkpt lat="42.93005" lon="0.75972">
        <ele>1556.6</ele>
        <time>2020-02-23T09:14:31Z</time>
      </trkpt>
      <trkpt lat="42.93004" lon="0.7597">
        <ele>1556.7</ele>
        <time>2020-02-23T09:14:32Z</time>
      </trkpt>
      <trkpt lat="42.93004" lon="0.75969">
        <ele>1557.6</ele>
        <time>2020-02-23T09:14:33Z</time>
      </trkpt>
      <trkpt lat="42.93003" lon="0.75967">
        <ele>1557.8</ele>
        <time>2020-02-23T09:14:34Z</time>
      </trkpt>
      <trkpt lat="42.93002" lon="0.75966">
        <ele>1557.8</ele>
        <time>2020-02-23T09:14:35Z</time>
      </trkpt>
      <trkpt lat="42.93001" lon="0.75964">
        <ele>1558.8</ele>
        <time>2020-02-23T09:14:36Z</time>
      </trkpt>
      <trkpt lat="42.93" lon="0.75963">
        <ele>1558.8</ele>
        <time>2020-02-23T09:14:37Z</time>
      </trkpt>
      <trkpt lat="42.93" lon="0.75961">
        <ele>1559</ele>
        <time>2020-02-23T09:14:38Z</time>
      </trkpt>
      <trkpt lat="42.92999" lon="0.75959">
        <ele>1559.9</ele>
        <time>2020-02-23T09:14:39Z</time>
      </trkpt>
      <trkpt lat="42.92998" lon="0.75958">
        <ele>1559.9</ele>
        <time>2020-02-23T09:14:40Z</time>
      </trkpt>
      <trkpt lat="42.92997" lon="0.75956">
        <ele>1559.9</ele>
        <time>2020-02-23T09:14:41Z</time>
      </trkpt>
      <trkpt lat="42.92997" lon="0.75955">
        <ele>1561</ele>
        <time>2020-02-23T09:14:42Z</time>
      </trkpt>
      <trkpt lat="42.92996" lon="0.75953">
        <ele>1561</ele>
        <time>2020-02-23T09:14:43Z</time>
      </trkpt>
      <trkpt lat="42.92995" lon="0.75952">
        <ele>1561</ele>
        <time>2020-02-23T09:14:44Z</time>
      </trkpt>
      <trkpt lat="42.92995" lon="0.75951">
        <ele>1562</ele>
        <time>2020-02-23T09:14:45Z</time>
      </trkpt>
      <trkpt lat="42.92995" lon="0.75949">
        <ele>1562</ele>
        <time>2020-02-23T09:14:46Z</time>
      </trkpt>
      <trkpt lat="42.92994" lon="0.75948">
        <ele>1562</ele>
        <time>2020-02-23T09:14:47Z</time>
      </trkpt>
      <trkpt lat="42.92994" lon="0.75947">
        <ele>1562.9</ele>
        <time>2020-02-23T09:14:48Z</time>
      </trkpt>
      <trkpt lat="42.92994" lon="0.75945">
        <ele>1562.9</ele>
        <time>2020-02-23T09:14:49Z</time>
      </trkpt>
      <trkpt lat="42.92994" lon="0.75944">
        <ele>1563.2</ele>
        <time>2020-02-23T09:14:50Z</time>
      </trkpt>
      <trkpt lat="42.92994" lon="0.75943">
        <ele>1564.1</ele>
        <time>2020-02-23T09:14:51Z</time>
      </trkpt>
      <trkpt lat="42.92993" lon="0.75941">
        <ele>1564.1</ele>
        <time>2020-02-23T09:14:52Z</time>
      </trkpt>
      <trkpt lat="42.92993" lon="0.7594">
        <ele>1564.1</ele>
        <time>2020-02-23T09:14:53Z</time>
      </trkpt>
      <trkpt lat="42.92993" lon="0.75939">
        <ele>1565.1</ele>
        <time>2020-02-23T09:14:54Z</time>
      </trkpt>
      <trkpt lat="42.92993" lon="0.75937">
        <ele>1565.1</ele>
        <time>2020-02-23T09:14:55Z</time>
      </trkpt>
      <trkpt lat="42.92993" lon="0.75936">
        <ele>1565.1</ele>
        <time>2020-02-23T09:14:56Z</time>
      </trkpt>
      <trkpt lat="42.92993" lon="0.75935">
        <ele>1565.1</ele>
        <time>2020-02-23T09:14:57Z</time>
      </trkpt>
      <trkpt lat="42.92993" lon="0.75934">
        <ele>1566.1</ele>
        <time>2020-02-23T09:14:58Z</time>
      </trkpt>
      <trkpt lat="42.92993" lon="0.75933">
        <ele>1566.1</ele>
        <time>2020-02-23T09:14:59Z</time>
      </trkpt>
      <trkpt lat="42.92993" lon="0.75931">
        <ele>1566.1</ele>
        <time>2020-02-23T09:15:00Z</time>
      </trkpt>
      <trkpt lat="42.92993" lon="0.7593">
        <ele>1567</ele>
        <time>2020-02-23T09:15:01Z</time>
      </trkpt>
      <trkpt lat="42.92993" lon="0.75929">
        <ele>1567</ele>
        <time>2020-02-23T09:15:02Z</time>
      </trkpt>
      <trkpt lat="42.92993" lon="0.75928">
        <ele>1567</ele>
        <time>2020-02-23T09:15:03Z</time>
      </trkpt>
      <trkpt lat="42.92993" lon="0.75927">
        <ele>1567</ele>
        <time>2020-02-23T09:15:04Z</time>
      </trkpt>
      <trkpt lat="42.92993" lon="0.75925">
        <ele>1567.9</ele>
        <time>2020-02-23T09:15:05Z</time>
      </trkpt>
      <trkpt lat="42.92993" lon="0.75925">
        <ele>1567.9</ele>
        <time>2020-02-23T09:15:06Z</time>
      </trkpt>
      <trkpt lat="42.92993" lon="0.75925">
        <ele>1567.9</ele>
        <time>2020-02-23T09:15:07Z</time>
      </trkpt>
      <trkpt lat="42.92993" lon="0.75925">
        <ele>1567.9</ele>
        <time>2020-02-23T09:15:08Z</time>
      </trkpt>
      <trkpt lat="42.92994" lon="0.75925">
        <ele>1567.9</ele>
        <time>2020-02-23T09:15:09Z</time>
      </trkpt>
      <trkpt lat="42.92994" lon="0.75925">
        <ele>1567.9</ele>
        <time>2020-02-23T09:15:10Z</time>
      </trkpt>
      <trkpt lat="42.92994" lon="0.75925">
        <ele>1567.6</ele>
        <time>2020-02-23T09:15:11Z</time>
      </trkpt>
      <trkpt lat="42.92994" lon="0.75925">
        <ele>1567.6</ele>
        <time>2020-02-23T09:15:12Z</time>
      </trkpt>
      <trkpt lat="42.92994" lon="0.75925">
        <ele>1567.6</ele>
        <time>2020-02-23T09:15:13Z</time>
      </trkpt>
      <trkpt lat="42.92995" lon="0.75925">
        <ele>1567.6</ele>
        <time>2020-02-23T09:15:14Z</time>
      </trkpt>
      <trkpt lat="42.92995" lon="0.75925">
        <ele>1567.6</ele>
        <time>2020-02-23T09:15:15Z</time>
      </trkpt>
      <trkpt lat="42.92995" lon="0.75925">
        <ele>1567.6</ele>
        <time>2020-02-23T09:15:16Z</time>
      </trkpt>
      <trkpt lat="42.92995" lon="0.75925">
        <ele>1567.6</ele>
        <time>2020-02-23T09:15:17Z</time>
      </trkpt>
      <trkpt lat="42.92995" lon="0.75925">
        <ele>1567.6</ele>
        <time>2020-02-23T09:15:18Z</time>
      </trkpt>
      <trkpt lat="42.92995" lon="0.75925">
        <ele>1567.6</ele>
        <time>2020-02-23T09:15:19Z</time>
      </trkpt>
      <trkpt lat="42.92996" lon="0.75925">
        <ele>1567.6</ele>
        <time>2020-02-23T09:15:20Z</time>
      </trkpt>
      <trkpt lat="42.92996" lon="0.75926">
        <ele>1567.6</ele>
        <time>2020-02-23T09:15:21Z</time>
      </trkpt>
      <trkpt lat="42.92996" lon="0.75926">
        <ele>1567.6</ele>
        <time>2020-02-23T09:15:22Z</time>
      </trkpt>
      <trkpt lat="42.92996" lon="0.75926">
        <ele>1567.6</ele>
        <time>2020-02-23T09:15:23Z</time>
      </trkpt>
      <trkpt lat="42.92996" lon="0.75926">
        <ele>1567.6</ele>
        <time>2020-02-23T09:15:24Z</time>
      </trkpt>
      <trkpt lat="42.92997" lon="0.75926">
        <ele>1567.6</ele>
        <time>2020-02-23T09:15:25Z</time>
      </trkpt>
      <trkpt lat="42.92997" lon="0.75926">
        <ele>1567.6</ele>
        <time>2020-02-23T09:15:26Z</time>
      </trkpt>
      <trkpt lat="42.92997" lon="0.75926">
        <ele>1567.6</ele>
        <time>2020-02-23T09:15:27Z</time>
      </trkpt>
      <trkpt lat="42.92997" lon="0.75926">
        <ele>1567.3</ele>
        <time>2020-02-23T09:15:28Z</time>
      </trkpt>
      <trkpt lat="42.92997" lon="0.75926">
        <ele>1567.3</ele>
        <time>2020-02-23T09:15:29Z</time>
      </trkpt>
      <trkpt lat="42.92997" lon="0.75926">
        <ele>1567.3</ele>
        <time>2020-02-23T09:15:30Z</time>
      </trkpt>
      <trkpt lat="42.92998" lon="0.75926">
        <ele>1567.3</ele>
        <time>2020-02-23T09:15:31Z</time>
      </trkpt>
      <trkpt lat="42.92998" lon="0.75926">
        <ele>1567.3</ele>
        <time>2020-02-23T09:15:32Z</time>
      </trkpt>
      <trkpt lat="42.92998" lon="0.75926">
        <ele>1567.3</ele>
        <time>2020-02-23T09:15:33Z</time>
      </trkpt>
      <trkpt lat="42.92998" lon="0.75926">
        <ele>1567.3</ele>
        <time>2020-02-23T09:15:34Z</time>
      </trkpt>
      <trkpt lat="42.92998" lon="0.75926">
        <ele>1567.4</ele>
        <time>2020-02-23T09:15:35Z</time>
      </trkpt>
      <trkpt lat="42.92999" lon="0.75926">
        <ele>1567.4</ele>
        <time>2020-02-23T09:15:36Z</time>
      </trkpt>
      <trkpt lat="42.92999" lon="0.75926">
        <ele>1567.4</ele>
        <time>2020-02-23T09:15:37Z</time>
      </trkpt>
      <trkpt lat="42.92999" lon="0.75926">
        <ele>1567.4</ele>
        <time>2020-02-23T09:15:38Z</time>
      </trkpt>
      <trkpt lat="42.92999" lon="0.75926">
        <ele>1567.4</ele>
        <time>2020-02-23T09:15:39Z</time>
      </trkpt>
      <trkpt lat="42.92999" lon="0.75926">
        <ele>1567.4</ele>
        <time>2020-02-23T09:15:40Z</time>
      </trkpt>
      <trkpt lat="42.92999" lon="0.75926">
        <ele>1567.4</ele>
        <time>2020-02-23T09:15:41Z</time>
      </trkpt>
      <trkpt lat="42.93" lon="0.75926">
        <ele>1567.4</ele>
        <time>2020-02-23T09:15:42Z</time>
      </trkpt>
      <trkpt lat="42.93" lon="0.75926">
        <ele>1567.4</ele>
        <time>2020-02-23T09:15:43Z</time>
      </trkpt>
      <trkpt lat="42.93" lon="0.75926">
        <ele>1567.4</ele>
        <time>2020-02-23T09:15:44Z</time>
      </trkpt>
      <trkpt lat="42.93" lon="0.75926">
        <ele>1567.4</ele>
        <time>2020-02-23T09:15:45Z</time>
      </trkpt>
      <trkpt lat="42.93" lon="0.75926">
        <ele>1567.1</ele>
        <time>2020-02-23T09:15:46Z</time>
      </trkpt>
      <trkpt lat="42.93001" lon="0.75926">
        <ele>1567.1</ele>
        <time>2020-02-23T09:15:47Z</time>
      </trkpt>
      <trkpt lat="42.93001" lon="0.75926">
        <ele>1567.1</ele>
        <time>2020-02-23T09:15:48Z</time>
      </trkpt>
      <trkpt lat="42.93001" lon="0.75926">
        <ele>1567.1</ele>
        <time>2020-02-23T09:15:49Z</time>
      </trkpt>
      <trkpt lat="42.93001" lon="0.75926">
        <ele>1567.1</ele>
        <time>2020-02-23T09:15:50Z</time>
      </trkpt>
      <trkpt lat="42.93001" lon="0.75926">
        <ele>1567.1</ele>
        <time>2020-02-23T09:15:51Z</time>
      </trkpt>
      <trkpt lat="42.93001" lon="0.75926">
        <ele>1567.1</ele>
        <time>2020-02-23T09:15:52Z</time>
      </trkpt>
      <trkpt lat="42.93002" lon="0.75926">
        <ele>1567.1</ele>
        <time>2020-02-23T09:15:53Z</time>
      </trkpt>
      <trkpt lat="42.93002" lon="0.75926">
        <ele>1567.1</ele>
        <time>2020-02-23T09:15:54Z</time>
      </trkpt>
      <trkpt lat="42.93002" lon="0.75926">
        <ele>1567.1</ele>
        <time>2020-02-23T09:15:55Z</time>
      </trkpt>
      <trkpt lat="42.93002" lon="0.75926">
        <ele>1567.1</ele>
        <time>2020-02-23T09:15:56Z</time>
      </trkpt>
      <trkpt lat="42.93002" lon="0.75926">
        <ele>1567.1</ele>
        <time>2020-02-23T09:15:57Z</time>
      </trkpt>
      <trkpt lat="42.93004" lon="0.75926">
        <ele>1566.8</ele>
        <time>2020-02-23T09:15:58Z</time>
      </trkpt>
      <trkpt lat="42.93006" lon="0.75926">
        <ele>1566</ele>
        <time>2020-02-23T09:15:59Z</time>
      </trkpt>
      <trkpt lat="42.93007" lon="0.75926">
        <ele>1565.7</ele>
        <time>2020-02-23T09:16:00Z</time>
      </trkpt>
      <trkpt lat="42.93009" lon="0.75926">
        <ele>1565.7</ele>
        <time>2020-02-23T09:16:01Z</time>
      </trkpt>
      <trkpt lat="42.93011" lon="0.75926">
        <ele>1565.5</ele>
        <time>2020-02-23T09:16:02Z</time>
      </trkpt>
      <trkpt lat="42.93012" lon="0.75926">
        <ele>1565.5</ele>
        <time>2020-02-23T09:16:03Z</time>
      </trkpt>
      <trkpt lat="42.93012" lon="0.75926">
        <ele>1566.3</ele>
        <time>2020-02-23T09:16:04Z</time>
      </trkpt>
      <trkpt lat="42.93011" lon="0.75925">
        <ele>1566.3</ele>
        <time>2020-02-23T09:16:05Z</time>
      </trkpt>
      <trkpt lat="42.93011" lon="0.75925">
        <ele>1566.3</ele>
        <time>2020-02-23T09:16:06Z</time>
      </trkpt>
      <trkpt lat="42.9301" lon="0.75925">
        <ele>1566.3</ele>
        <time>2020-02-23T09:16:07Z</time>
      </trkpt>
      <trkpt lat="42.9301" lon="0.75924">
        <ele>1566.3</ele>
        <time>2020-02-23T09:16:08Z</time>
      </trkpt>
      <trkpt lat="42.93009" lon="0.75924">
        <ele>1566.5</ele>
        <time>2020-02-23T09:16:09Z</time>
      </trkpt>
      <trkpt lat="42.93009" lon="0.75924">
        <ele>1566.5</ele>
        <time>2020-02-23T09:16:10Z</time>
      </trkpt>
      <trkpt lat="42.93008" lon="0.75923">
        <ele>1566.6</ele>
        <time>2020-02-23T09:16:11Z</time>
      </trkpt>
      <trkpt lat="42.93008" lon="0.75923">
        <ele>1566.6</ele>
        <time>2020-02-23T09:16:12Z</time>
      </trkpt>
      <trkpt lat="42.93007" lon="0.75923">
        <ele>1566.6</ele>
        <time>2020-02-23T09:16:13Z</time>
      </trkpt>
      <trkpt lat="42.93007" lon="0.75922">
        <ele>1566.6</ele>
        <time>2020-02-23T09:16:14Z</time>
      </trkpt>
      <trkpt lat="42.93006" lon="0.75922">
        <ele>1566.8</ele>
        <time>2020-02-23T09:16:15Z</time>
      </trkpt>
      <trkpt lat="42.93006" lon="0.75922">
        <ele>1567.6</ele>
        <time>2020-02-23T09:16:16Z</time>
      </trkpt>
      <trkpt lat="42.93005" lon="0.75921">
        <ele>1567.6</ele>
        <time>2020-02-23T09:16:17Z</time>
      </trkpt>
      <trkpt lat="42.93005" lon="0.75921">
        <ele>1567.6</ele>
        <time>2020-02-23T09:16:18Z</time>
      </trkpt>
      <trkpt lat="42.93005" lon="0.75921">
        <ele>1567.6</ele>
        <time>2020-02-23T09:16:19Z</time>
      </trkpt>
      <trkpt lat="42.93004" lon="0.7592">
        <ele>1567.6</ele>
        <time>2020-02-23T09:16:20Z</time>
      </trkpt>
      <trkpt lat="42.93003" lon="0.7592">
        <ele>1568</ele>
        <time>2020-02-23T09:16:21Z</time>
      </trkpt>
      <trkpt lat="42.93002" lon="0.7592">
        <ele>1568</ele>
        <time>2020-02-23T09:16:22Z</time>
      </trkpt>
      <trkpt lat="42.93001" lon="0.7592">
        <ele>1568</ele>
        <time>2020-02-23T09:16:23Z</time>
      </trkpt>
      <trkpt lat="42.93001" lon="0.7592">
        <ele>1568</ele>
        <time>2020-02-23T09:16:24Z</time>
      </trkpt>
      <trkpt lat="42.93" lon="0.7592">
        <ele>1568.3</ele>
        <time>2020-02-23T09:16:25Z</time>
      </trkpt>
      <trkpt lat="42.92999" lon="0.7592">
        <ele>1568.3</ele>
        <time>2020-02-23T09:16:26Z</time>
      </trkpt>
      <trkpt lat="42.92998" lon="0.7592">
        <ele>1568.3</ele>
        <time>2020-02-23T09:16:27Z</time>
      </trkpt>
      <trkpt lat="42.92997" lon="0.7592">
        <ele>1568.6</ele>
        <time>2020-02-23T09:16:28Z</time>
      </trkpt>
      <trkpt lat="42.92996" lon="0.7592">
        <ele>1568.6</ele>
        <time>2020-02-23T09:16:29Z</time>
      </trkpt>
      <trkpt lat="42.92995" lon="0.7592">
        <ele>1568.6</ele>
        <time>2020-02-23T09:16:30Z</time>
      </trkpt>
      <trkpt lat="42.92994" lon="0.7592">
        <ele>1568.6</ele>
        <time>2020-02-23T09:16:31Z</time>
      </trkpt>
      <trkpt lat="42.92995" lon="0.75921">
        <ele>1568.6</ele>
        <time>2020-02-23T09:16:32Z</time>
      </trkpt>
      <trkpt lat="42.92996" lon="0.75921">
        <ele>1568.6</ele>
        <time>2020-02-23T09:16:33Z</time>
      </trkpt>
      <trkpt lat="42.92996" lon="0.75921">
        <ele>1568.6</ele>
        <time>2020-02-23T09:16:34Z</time>
      </trkpt>
      <trkpt lat="42.92997" lon="0.75922">
        <ele>1567.8</ele>
        <time>2020-02-23T09:16:35Z</time>
      </trkpt>
      <trkpt lat="42.92998" lon="0.75922">
        <ele>1567.5</ele>
        <time>2020-02-23T09:16:36Z</time>
      </trkpt>
      <trkpt lat="42.92998" lon="0.75923">
        <ele>1567.5</ele>
        <time>2020-02-23T09:16:37Z</time>
      </trkpt>
      <trkpt lat="42.92999" lon="0.75923">
        <ele>1567.5</ele>
        <time>2020-02-23T09:16:38Z</time>
      </trkpt>
      <trkpt lat="42.93" lon="0.75923">
        <ele>1567.5</ele>
        <time>2020-02-23T09:16:39Z</time>
      </trkpt>
      <trkpt lat="42.93" lon="0.75924">
        <ele>1567.2</ele>
        <time>2020-02-23T09:16:40Z</time>
      </trkpt>
      <trkpt lat="42.93001" lon="0.75924">
        <ele>1567.2</ele>
        <time>2020-02-23T09:16:41Z</time>
      </trkpt>
      <trkpt lat="42.93002" lon="0.75925">
        <ele>1567.2</ele>
        <time>2020-02-23T09:16:42Z</time>
      </trkpt>
      <trkpt lat="42.93002" lon="0.75925">
        <ele>1567.2</ele>
        <time>2020-02-23T09:16:43Z</time>
      </trkpt>
      <trkpt lat="42.93003" lon="0.75925">
        <ele>1567.2</ele>
        <time>2020-02-23T09:16:44Z</time>
      </trkpt>
      <trkpt lat="42.93004" lon="0.75925">
        <ele>1566.9</ele>
        <time>2020-02-23T09:16:45Z</time>
      </trkpt>
      <trkpt lat="42.93005" lon="0.75925">
        <ele>1566.9</ele>
        <time>2020-02-23T09:16:46Z</time>
      </trkpt>
      <trkpt lat="42.93006" lon="0.75924">
        <ele>1566.9</ele>
        <time>2020-02-23T09:16:47Z</time>
      </trkpt>
      <trkpt lat="42.93007" lon="0.75924">
        <ele>1566.6</ele>
        <time>2020-02-23T09:16:48Z</time>
      </trkpt>
      <trkpt lat="42.93008" lon="0.75923">
        <ele>1566.6</ele>
        <time>2020-02-23T09:16:49Z</time>
      </trkpt>
      <trkpt lat="42.93009" lon="0.75923">
        <ele>1566.6</ele>
        <time>2020-02-23T09:16:50Z</time>
      </trkpt>
      <trkpt lat="42.9301" lon="0.75922">
        <ele>1566.4</ele>
        <time>2020-02-23T09:16:51Z</time>
      </trkpt>
      <trkpt lat="42.93011" lon="0.75922">
        <ele>1566.4</ele>
        <time>2020-02-23T09:16:52Z</time>
      </trkpt>
      <trkpt lat="42.93012" lon="0.75921">
        <ele>1567.1</ele>
        <time>2020-02-23T09:16:53Z</time>
      </trkpt>
      <trkpt lat="42.93012" lon="0.75921">
        <ele>1567.2</ele>
        <time>2020-02-23T09:16:54Z</time>
      </trkpt>
      <trkpt lat="42.93013" lon="0.75921">
        <ele>1566.9</ele>
        <time>2020-02-23T09:16:55Z</time>
      </trkpt>
      <trkpt lat="42.93013" lon="0.7592">
        <ele>1566.9</ele>
        <time>2020-02-23T09:16:56Z</time>
      </trkpt>
      <trkpt lat="42.93014" lon="0.7592">
        <ele>1566.9</ele>
        <time>2020-02-23T09:16:57Z</time>
      </trkpt>
      <trkpt lat="42.93014" lon="0.7592">
        <ele>1566.9</ele>
        <time>2020-02-23T09:16:58Z</time>
      </trkpt>
      <trkpt lat="42.93015" lon="0.75919">
        <ele>1566.9</ele>
        <time>2020-02-23T09:16:59Z</time>
      </trkpt>
      <trkpt lat="42.93015" lon="0.75919">
        <ele>1566.9</ele>
        <time>2020-02-23T09:17:00Z</time>
      </trkpt>
      <trkpt lat="42.93016" lon="0.75918">
        <ele>1566.9</ele>
        <time>2020-02-23T09:17:01Z</time>
      </trkpt>
      <trkpt lat="42.93016" lon="0.75918">
        <ele>1566.7</ele>
        <time>2020-02-23T09:17:02Z</time>
      </trkpt>
      <trkpt lat="42.93017" lon="0.75918">
        <ele>1566.7</ele>
        <time>2020-02-23T09:17:03Z</time>
      </trkpt>
      <trkpt lat="42.93017" lon="0.75917">
        <ele>1567.4</ele>
        <time>2020-02-23T09:17:04Z</time>
      </trkpt>
      <trkpt lat="42.93018" lon="0.75917">
        <ele>1567.4</ele>
        <time>2020-02-23T09:17:05Z</time>
      </trkpt>
      <trkpt lat="42.93018" lon="0.75917">
        <ele>1567.4</ele>
        <time>2020-02-23T09:17:06Z</time>
      </trkpt>
      <trkpt lat="42.93019" lon="0.75916">
        <ele>1567.4</ele>
        <time>2020-02-23T09:17:07Z</time>
      </trkpt>
      <trkpt lat="42.93019" lon="0.75916">
        <ele>1567.2</ele>
        <time>2020-02-23T09:17:08Z</time>
      </trkpt>
      <trkpt lat="42.9302" lon="0.75915">
        <ele>1567.2</ele>
        <time>2020-02-23T09:17:09Z</time>
      </trkpt>
      <trkpt lat="42.9302" lon="0.75915">
        <ele>1567.2</ele>
        <time>2020-02-23T09:17:10Z</time>
      </trkpt>
      <trkpt lat="42.93021" lon="0.75915">
        <ele>1567.2</ele>
        <time>2020-02-23T09:17:11Z</time>
      </trkpt>
      <trkpt lat="42.93021" lon="0.75915">
        <ele>1567.2</ele>
        <time>2020-02-23T09:17:12Z</time>
      </trkpt>
      <trkpt lat="42.93022" lon="0.75915">
        <ele>1567.2</ele>
        <time>2020-02-23T09:17:13Z</time>
      </trkpt>
      <trkpt lat="42.93023" lon="0.75915">
        <ele>1566.9</ele>
        <time>2020-02-23T09:17:14Z</time>
      </trkpt>
      <trkpt lat="42.93023" lon="0.75915">
        <ele>1566.9</ele>
        <time>2020-02-23T09:17:15Z</time>
      </trkpt>
      <trkpt lat="42.93024" lon="0.75915">
        <ele>1566.9</ele>
        <time>2020-02-23T09:17:16Z</time>
      </trkpt>
      <trkpt lat="42.93024" lon="0.75915">
        <ele>1566.9</ele>
        <time>2020-02-23T09:17:17Z</time>
      </trkpt>
      <trkpt lat="42.93025" lon="0.75914">
        <ele>1566.9</ele>
        <time>2020-02-23T09:17:18Z</time>
      </trkpt>
      <trkpt lat="42.93025" lon="0.75914">
        <ele>1566.9</ele>
        <time>2020-02-23T09:17:19Z</time>
      </trkpt>
      <trkpt lat="42.93026" lon="0.75914">
        <ele>1566.7</ele>
        <time>2020-02-23T09:17:20Z</time>
      </trkpt>
      <trkpt lat="42.93026" lon="0.75914">
        <ele>1566.7</ele>
        <time>2020-02-23T09:17:21Z</time>
      </trkpt>
      <trkpt lat="42.93027" lon="0.75914">
        <ele>1566.7</ele>
        <time>2020-02-23T09:17:22Z</time>
      </trkpt>
      <trkpt lat="42.93027" lon="0.75914">
        <ele>1566.7</ele>
        <time>2020-02-23T09:17:23Z</time>
      </trkpt>
      <trkpt lat="42.93028" lon="0.75914">
        <ele>1566.7</ele>
        <time>2020-02-23T09:17:24Z</time>
      </trkpt>
      <trkpt lat="42.93028" lon="0.75914">
        <ele>1566.7</ele>
        <time>2020-02-23T09:17:25Z</time>
      </trkpt>
      <trkpt lat="42.93029" lon="0.75914">
        <ele>1566.4</ele>
        <time>2020-02-23T09:17:26Z</time>
      </trkpt>
      <trkpt lat="42.93029" lon="0.75913">
        <ele>1566.4</ele>
        <time>2020-02-23T09:17:27Z</time>
      </trkpt>
      <trkpt lat="42.9303" lon="0.75914">
        <ele>1566.4</ele>
        <time>2020-02-23T09:17:28Z</time>
      </trkpt>
      <trkpt lat="42.93031" lon="0.75914">
        <ele>1566.4</ele>
        <time>2020-02-23T09:17:29Z</time>
      </trkpt>
      <trkpt lat="42.93031" lon="0.75915">
        <ele>1566.4</ele>
        <time>2020-02-23T09:17:30Z</time>
      </trkpt>
      <trkpt lat="42.93032" lon="0.75915">
        <ele>1566.1</ele>
        <time>2020-02-23T09:17:31Z</time>
      </trkpt>
      <trkpt lat="42.93032" lon="0.75916">
        <ele>1566.1</ele>
        <time>2020-02-23T09:17:32Z</time>
      </trkpt>
      <trkpt lat="42.93033" lon="0.75916">
        <ele>1566.1</ele>
        <time>2020-02-23T09:17:33Z</time>
      </trkpt>
      <trkpt lat="42.93033" lon="0.75916">
        <ele>1566.1</ele>
        <time>2020-02-23T09:17:34Z</time>
      </trkpt>
      <trkpt lat="42.93034" lon="0.75917">
        <ele>1566.1</ele>
        <time>2020-02-23T09:17:35Z</time>
      </trkpt>
      <trkpt lat="42.93035" lon="0.75917">
        <ele>1565.5</ele>
        <time>2020-02-23T09:17:36Z</time>
      </trkpt>
      <trkpt lat="42.93035" lon="0.75918">
        <ele>1565.3</ele>
        <time>2020-02-23T09:17:37Z</time>
      </trkpt>
      <trkpt lat="42.93036" lon="0.75918">
        <ele>1565.3</ele>
        <time>2020-02-23T09:17:38Z</time>
      </trkpt>
      <trkpt lat="42.93036" lon="0.75919">
        <ele>1565.3</ele>
        <time>2020-02-23T09:17:39Z</time>
      </trkpt>
      <trkpt lat="42.93037" lon="0.75919">
        <ele>1565.3</ele>
        <time>2020-02-23T09:17:40Z</time>
      </trkpt>
      <trkpt lat="42.93037" lon="0.75919">
        <ele>1565.3</ele>
        <time>2020-02-23T09:17:41Z</time>
      </trkpt>
      <trkpt lat="42.93038" lon="0.75919">
        <ele>1565.1</ele>
        <time>2020-02-23T09:17:42Z</time>
      </trkpt>
      <trkpt lat="42.93039" lon="0.75919">
        <ele>1565.1</ele>
        <time>2020-02-23T09:17:43Z</time>
      </trkpt>
      <trkpt lat="42.93039" lon="0.75919">
        <ele>1565.1</ele>
        <time>2020-02-23T09:17:44Z</time>
      </trkpt>
      <trkpt lat="42.9304" lon="0.75918">
        <ele>1565.1</ele>
        <time>2020-02-23T09:17:45Z</time>
      </trkpt>
      <trkpt lat="42.93041" lon="0.75918">
        <ele>1565.1</ele>
        <time>2020-02-23T09:17:46Z</time>
      </trkpt>
      <trkpt lat="42.93041" lon="0.75918">
        <ele>1564.9</ele>
        <time>2020-02-23T09:17:47Z</time>
      </trkpt>
      <trkpt lat="42.93042" lon="0.75917">
        <ele>1565.6</ele>
        <time>2020-02-23T09:17:48Z</time>
      </trkpt>
      <trkpt lat="42.93043" lon="0.75917">
        <ele>1565.6</ele>
        <time>2020-02-23T09:17:49Z</time>
      </trkpt>
      <trkpt lat="42.93043" lon="0.75917">
        <ele>1565.6</ele>
        <time>2020-02-23T09:17:50Z</time>
      </trkpt>
      <trkpt lat="42.93044" lon="0.75916">
        <ele>1565.6</ele>
        <time>2020-02-23T09:17:51Z</time>
      </trkpt>
      <trkpt lat="42.93045" lon="0.75916">
        <ele>1565.4</ele>
        <time>2020-02-23T09:17:52Z</time>
      </trkpt>
      <trkpt lat="42.93045" lon="0.75916">
        <ele>1565.4</ele>
        <time>2020-02-23T09:17:53Z</time>
      </trkpt>
      <trkpt lat="42.93046" lon="0.75915">
        <ele>1565.4</ele>
        <time>2020-02-23T09:17:54Z</time>
      </trkpt>
      <trkpt lat="42.93047" lon="0.75915">
        <ele>1565.4</ele>
        <time>2020-02-23T09:17:55Z</time>
      </trkpt>
      <trkpt lat="42.93047" lon="0.75914">
        <ele>1565.4</ele>
        <time>2020-02-23T09:17:56Z</time>
      </trkpt>
      <trkpt lat="42.93048" lon="0.75914">
        <ele>1565.3</ele>
        <time>2020-02-23T09:17:57Z</time>
      </trkpt>
      <trkpt lat="42.93048" lon="0.75913">
        <ele>1565.3</ele>
        <time>2020-02-23T09:17:58Z</time>
      </trkpt>
      <trkpt lat="42.93049" lon="0.75913">
        <ele>1566</ele>
        <time>2020-02-23T09:17:59Z</time>
      </trkpt>
      <trkpt lat="42.9305" lon="0.75912">
        <ele>1566</ele>
        <time>2020-02-23T09:18:00Z</time>
      </trkpt>
      <trkpt lat="42.9305" lon="0.75911">
        <ele>1566</ele>
        <time>2020-02-23T09:18:01Z</time>
      </trkpt>
      <trkpt lat="42.93051" lon="0.75911">
        <ele>1565.9</ele>
        <time>2020-02-23T09:18:02Z</time>
      </trkpt>
      <trkpt lat="42.93051" lon="0.7591">
        <ele>1565.9</ele>
        <time>2020-02-23T09:18:03Z</time>
      </trkpt>
      <trkpt lat="42.93052" lon="0.75909">
        <ele>1565.9</ele>
        <time>2020-02-23T09:18:04Z</time>
      </trkpt>
      <trkpt lat="42.93053" lon="0.75909">
        <ele>1565.9</ele>
        <time>2020-02-23T09:18:05Z</time>
      </trkpt>
      <trkpt lat="42.93053" lon="0.75908">
        <ele>1566.5</ele>
        <time>2020-02-23T09:18:06Z</time>
      </trkpt>
      <trkpt lat="42.93054" lon="0.75907">
        <ele>1566.5</ele>
        <time>2020-02-23T09:18:07Z</time>
      </trkpt>
      <trkpt lat="42.93054" lon="0.75907">
        <ele>1566.5</ele>
        <time>2020-02-23T09:18:08Z</time>
      </trkpt>
      <trkpt lat="42.93055" lon="0.75906">
        <ele>1566.5</ele>
        <time>2020-02-23T09:18:09Z</time>
      </trkpt>
      <trkpt lat="42.93055" lon="0.75905">
        <ele>1566.5</ele>
        <time>2020-02-23T09:18:10Z</time>
      </trkpt>
      <trkpt lat="42.93056" lon="0.75904">
        <ele>1567.1</ele>
        <time>2020-02-23T09:18:11Z</time>
      </trkpt>
      <trkpt lat="42.93056" lon="0.75903">
        <ele>1567.1</ele>
        <time>2020-02-23T09:18:12Z</time>
      </trkpt>
      <trkpt lat="42.93057" lon="0.75902">
        <ele>1567.2</ele>
        <time>2020-02-23T09:18:13Z</time>
      </trkpt>
      <trkpt lat="42.93058" lon="0.75902">
        <ele>1567.2</ele>
        <time>2020-02-23T09:18:14Z</time>
      </trkpt>
      <trkpt lat="42.93058" lon="0.75901">
        <ele>1567.2</ele>
        <time>2020-02-23T09:18:15Z</time>
      </trkpt>
      <trkpt lat="42.93059" lon="0.759">
        <ele>1567.8</ele>
        <time>2020-02-23T09:18:16Z</time>
      </trkpt>
      <trkpt lat="42.93059" lon="0.75899">
        <ele>1567.8</ele>
        <time>2020-02-23T09:18:17Z</time>
      </trkpt>
      <trkpt lat="42.9306" lon="0.75898">
        <ele>1567.8</ele>
        <time>2020-02-23T09:18:18Z</time>
      </trkpt>
      <trkpt lat="42.9306" lon="0.75897">
        <ele>1567.9</ele>
        <time>2020-02-23T09:18:19Z</time>
      </trkpt>
      <trkpt lat="42.93061" lon="0.75896">
        <ele>1567.9</ele>
        <time>2020-02-23T09:18:20Z</time>
      </trkpt>
      <trkpt lat="42.93061" lon="0.75895">
        <ele>1568.6</ele>
        <time>2020-02-23T09:18:21Z</time>
      </trkpt>
      <trkpt lat="42.93061" lon="0.75895">
        <ele>1568.6</ele>
        <time>2020-02-23T09:18:22Z</time>
      </trkpt>
      <trkpt lat="42.93061" lon="0.75895">
        <ele>1568.6</ele>
        <time>2020-02-23T09:18:23Z</time>
      </trkpt>
      <trkpt lat="42.93061" lon="0.75895">
        <ele>1568.6</ele>
        <time>2020-02-23T09:18:24Z</time>
      </trkpt>
      <trkpt lat="42.93061" lon="0.75895">
        <ele>1568.6</ele>
        <time>2020-02-23T09:18:25Z</time>
      </trkpt>
      <trkpt lat="42.9306" lon="0.75895">
        <ele>1568.6</ele>
        <time>2020-02-23T09:18:26Z</time>
      </trkpt>
      <trkpt lat="42.9306" lon="0.75895">
        <ele>1568.6</ele>
        <time>2020-02-23T09:18:27Z</time>
      </trkpt>
      <trkpt lat="42.9306" lon="0.75895">
        <ele>1568.5</ele>
        <time>2020-02-23T09:18:28Z</time>
      </trkpt>
      <trkpt lat="42.9306" lon="0.75895">
        <ele>1568.5</ele>
        <time>2020-02-23T09:18:29Z</time>
      </trkpt>
      <trkpt lat="42.9306" lon="0.75895">
        <ele>1568.5</ele>
        <time>2020-02-23T09:18:30Z</time>
      </trkpt>
      <trkpt lat="42.93059" lon="0.75895">
        <ele>1568.5</ele>
        <time>2020-02-23T09:18:31Z</time>
      </trkpt>
      <trkpt lat="42.93059" lon="0.75895">
        <ele>1568.5</ele>
        <time>2020-02-23T09:18:32Z</time>
      </trkpt>
      <trkpt lat="42.93059" lon="0.75895">
        <ele>1568.5</ele>
        <time>2020-02-23T09:18:33Z</time>
      </trkpt>
      <trkpt lat="42.93059" lon="0.75894">
        <ele>1568.5</ele>
        <time>2020-02-23T09:18:34Z</time>
      </trkpt>
      <trkpt lat="42.93059" lon="0.75894">
        <ele>1568.5</ele>
        <time>2020-02-23T09:18:35Z</time>
      </trkpt>
      <trkpt lat="42.93059" lon="0.75894">
        <ele>1568.5</ele>
        <time>2020-02-23T09:18:36Z</time>
      </trkpt>
      <trkpt lat="42.93058" lon="0.75894">
        <ele>1568.5</ele>
        <time>2020-02-23T09:18:37Z</time>
      </trkpt>
      <trkpt lat="42.93058" lon="0.75894">
        <ele>1568.5</ele>
        <time>2020-02-23T09:18:38Z</time>
      </trkpt>
      <trkpt lat="42.93058" lon="0.75894">
        <ele>1568.5</ele>
        <time>2020-02-23T09:18:39Z</time>
      </trkpt>
      <trkpt lat="42.93058" lon="0.75894">
        <ele>1568.5</ele>
        <time>2020-02-23T09:18:40Z</time>
      </trkpt>
      <trkpt lat="42.93058" lon="0.75894">
        <ele>1568.5</ele>
        <time>2020-02-23T09:18:41Z</time>
      </trkpt>
      <trkpt lat="42.93057" lon="0.75894">
        <ele>1568.6</ele>
        <time>2020-02-23T09:18:42Z</time>
      </trkpt>
      <trkpt lat="42.93057" lon="0.75894">
        <ele>1568.6</ele>
        <time>2020-02-23T09:18:43Z</time>
      </trkpt>
      <trkpt lat="42.93057" lon="0.75894">
        <ele>1568.6</ele>
        <time>2020-02-23T09:18:44Z</time>
      </trkpt>
      <trkpt lat="42.93057" lon="0.75894">
        <ele>1568.6</ele>
        <time>2020-02-23T09:18:45Z</time>
      </trkpt>
      <trkpt lat="42.93057" lon="0.75894">
        <ele>1568.5</ele>
        <time>2020-02-23T09:18:46Z</time>
      </trkpt>
      <trkpt lat="42.93057" lon="0.75894">
        <ele>1568.5</ele>
        <time>2020-02-23T09:18:47Z</time>
      </trkpt>
      <trkpt lat="42.93056" lon="0.75894">
        <ele>1568.5</ele>
        <time>2020-02-23T09:18:48Z</time>
      </trkpt>
      <trkpt lat="42.93056" lon="0.75894">
        <ele>1568.5</ele>
        <time>2020-02-23T09:18:49Z</time>
      </trkpt>
      <trkpt lat="42.93056" lon="0.75893">
        <ele>1568.5</ele>
        <time>2020-02-23T09:18:50Z</time>
      </trkpt>
      <trkpt lat="42.93056" lon="0.75893">
        <ele>1568.5</ele>
        <time>2020-02-23T09:18:51Z</time>
      </trkpt>
      <trkpt lat="42.93056" lon="0.75893">
        <ele>1568.5</ele>
        <time>2020-02-23T09:18:52Z</time>
      </trkpt>
      <trkpt lat="42.93055" lon="0.75893">
        <ele>1568.5</ele>
        <time>2020-02-23T09:18:53Z</time>
      </trkpt>
      <trkpt lat="42.93055" lon="0.75893">
        <ele>1568.5</ele>
        <time>2020-02-23T09:18:54Z</time>
      </trkpt>
      <trkpt lat="42.93055" lon="0.75893">
        <ele>1568.5</ele>
        <time>2020-02-23T09:18:55Z</time>
      </trkpt>
      <trkpt lat="42.93055" lon="0.75893">
        <ele>1568.5</ele>
        <time>2020-02-23T09:18:56Z</time>
      </trkpt>
      <trkpt lat="42.93055" lon="0.75893">
        <ele>1568.5</ele>
        <time>2020-02-23T09:18:57Z</time>
      </trkpt>
      <trkpt lat="42.93055" lon="0.75893">
        <ele>1568.5</ele>
        <time>2020-02-23T09:18:58Z</time>
      </trkpt>
      <trkpt lat="42.93054" lon="0.75893">
        <ele>1568.5</ele>
        <time>2020-02-23T09:18:59Z</time>
      </trkpt>
      <trkpt lat="42.93054" lon="0.75893">
        <ele>1568.5</ele>
        <time>2020-02-23T09:19:00Z</time>
      </trkpt>
      <trkpt lat="42.93054" lon="0.75893">
        <ele>1568.5</ele>
        <time>2020-02-23T09:19:01Z</time>
      </trkpt>
      <trkpt lat="42.93054" lon="0.75893">
        <ele>1568.5</ele>
        <time>2020-02-23T09:19:02Z</time>
      </trkpt>
      <trkpt lat="42.93054" lon="0.75893">
        <ele>1568.5</ele>
        <time>2020-02-23T09:19:03Z</time>
      </trkpt>
      <trkpt lat="42.93053" lon="0.75893">
        <ele>1568.5</ele>
        <time>2020-02-23T09:19:04Z</time>
      </trkpt>
      <trkpt lat="42.93053" lon="0.75892">
        <ele>1568.5</ele>
        <time>2020-02-23T09:19:05Z</time>
      </trkpt>
      <trkpt lat="42.93053" lon="0.75892">
        <ele>1568.5</ele>
        <time>2020-02-23T09:19:06Z</time>
      </trkpt>
      <trkpt lat="42.93053" lon="0.75892">
        <ele>1568.5</ele>
        <time>2020-02-23T09:19:07Z</time>
      </trkpt>
      <trkpt lat="42.93053" lon="0.75892">
        <ele>1568.5</ele>
        <time>2020-02-23T09:19:08Z</time>
      </trkpt>
      <trkpt lat="42.93053" lon="0.75892">
        <ele>1568.5</ele>
        <time>2020-02-23T09:19:09Z</time>
      </trkpt>
      <trkpt lat="42.93052" lon="0.75892">
        <ele>1568.5</ele>
        <time>2020-02-23T09:19:10Z</time>
      </trkpt>
      <trkpt lat="42.93052" lon="0.75892">
        <ele>1568.5</ele>
        <time>2020-02-23T09:19:11Z</time>
      </trkpt>
      <trkpt lat="42.93052" lon="0.75892">
        <ele>1568.5</ele>
        <time>2020-02-23T09:19:12Z</time>
      </trkpt>
      <trkpt lat="42.93052" lon="0.75892">
        <ele>1568.5</ele>
        <time>2020-02-23T09:19:13Z</time>
      </trkpt>
      <trkpt lat="42.93052" lon="0.75891">
        <ele>1569.2</ele>
        <time>2020-02-23T09:19:14Z</time>
      </trkpt>
      <trkpt lat="42.93052" lon="0.7589">
        <ele>1569.2</ele>
        <time>2020-02-23T09:19:15Z</time>
      </trkpt>
      <trkpt lat="42.93051" lon="0.75889">
        <ele>1569.2</ele>
        <time>2020-02-23T09:19:16Z</time>
      </trkpt>
      <trkpt lat="42.93051" lon="0.75887">
        <ele>1569.2</ele>
        <time>2020-02-23T09:19:17Z</time>
      </trkpt>
      <trkpt lat="42.93051" lon="0.75886">
        <ele>1569.8</ele>
        <time>2020-02-23T09:19:18Z</time>
      </trkpt>
      <trkpt lat="42.93051" lon="0.75885">
        <ele>1569.8</ele>
        <time>2020-02-23T09:19:19Z</time>
      </trkpt>
      <trkpt lat="42.93051" lon="0.75884">
        <ele>1569.8</ele>
        <time>2020-02-23T09:19:20Z</time>
      </trkpt>
      <trkpt lat="42.93051" lon="0.75883">
        <ele>1570.3</ele>
        <time>2020-02-23T09:19:21Z</time>
      </trkpt>
      <trkpt lat="42.9305" lon="0.75882">
        <ele>1570.3</ele>
        <time>2020-02-23T09:19:22Z</time>
      </trkpt>
      <trkpt lat="42.9305" lon="0.75881">
        <ele>1570.3</ele>
        <time>2020-02-23T09:19:23Z</time>
      </trkpt>
      <trkpt lat="42.9305" lon="0.75879">
        <ele>1570.3</ele>
        <time>2020-02-23T09:19:24Z</time>
      </trkpt>
      <trkpt lat="42.93051" lon="0.75879">
        <ele>1570.4</ele>
        <time>2020-02-23T09:19:25Z</time>
      </trkpt>
      <trkpt lat="42.93051" lon="0.75879">
        <ele>1570.4</ele>
        <time>2020-02-23T09:19:26Z</time>
      </trkpt>
      <trkpt lat="42.93052" lon="0.75879">
        <ele>1570.4</ele>
        <time>2020-02-23T09:19:27Z</time>
      </trkpt>
      <trkpt lat="42.93052" lon="0.75879">
        <ele>1570.4</ele>
        <time>2020-02-23T09:19:28Z</time>
      </trkpt>
      <trkpt lat="42.93053" lon="0.75879">
        <ele>1570.4</ele>
        <time>2020-02-23T09:19:29Z</time>
      </trkpt>
      <trkpt lat="42.93053" lon="0.75879">
        <ele>1570.4</ele>
        <time>2020-02-23T09:19:30Z</time>
      </trkpt>
      <trkpt lat="42.93054" lon="0.75879">
        <ele>1570.4</ele>
        <time>2020-02-23T09:19:31Z</time>
      </trkpt>
      <trkpt lat="42.93054" lon="0.75879">
        <ele>1571</ele>
        <time>2020-02-23T09:19:32Z</time>
      </trkpt>
      <trkpt lat="42.93055" lon="0.75879">
        <ele>1571</ele>
        <time>2020-02-23T09:19:33Z</time>
      </trkpt>
      <trkpt lat="42.93055" lon="0.75878">
        <ele>1571</ele>
        <time>2020-02-23T09:19:34Z</time>
      </trkpt>
      <trkpt lat="42.93056" lon="0.75878">
        <ele>1571</ele>
        <time>2020-02-23T09:19:35Z</time>
      </trkpt>
      <trkpt lat="42.93056" lon="0.75878">
        <ele>1571</ele>
        <time>2020-02-23T09:19:36Z</time>
      </trkpt>
      <trkpt lat="42.93057" lon="0.75878">
        <ele>1571</ele>
        <time>2020-02-23T09:19:37Z</time>
      </trkpt>
      <trkpt lat="42.93057" lon="0.75878">
        <ele>1571.1</ele>
        <time>2020-02-23T09:19:38Z</time>
      </trkpt>
      <trkpt lat="42.93058" lon="0.75878">
        <ele>1571.1</ele>
        <time>2020-02-23T09:19:39Z</time>
      </trkpt>
      <trkpt lat="42.93058" lon="0.75878">
        <ele>1571.1</ele>
        <time>2020-02-23T09:19:40Z</time>
      </trkpt>
      <trkpt lat="42.93059" lon="0.75878">
        <ele>1571.1</ele>
        <time>2020-02-23T09:19:41Z</time>
      </trkpt>
      <trkpt lat="42.93059" lon="0.75878">
        <ele>1571.1</ele>
        <time>2020-02-23T09:19:42Z</time>
      </trkpt>
      <trkpt lat="42.9306" lon="0.75877">
        <ele>1571.1</ele>
        <time>2020-02-23T09:19:43Z</time>
      </trkpt>
      <trkpt lat="42.9306" lon="0.75877">
        <ele>1571.3</ele>
        <time>2020-02-23T09:19:44Z</time>
      </trkpt>
      <trkpt lat="42.93061" lon="0.75877">
        <ele>1571.3</ele>
        <time>2020-02-23T09:19:45Z</time>
      </trkpt>
      <trkpt lat="42.93062" lon="0.75877">
        <ele>1571.3</ele>
        <time>2020-02-23T09:19:46Z</time>
      </trkpt>
      <trkpt lat="42.93062" lon="0.75877">
        <ele>1571.3</ele>
        <time>2020-02-23T09:19:47Z</time>
      </trkpt>
      <trkpt lat="42.93063" lon="0.75877">
        <ele>1571.4</ele>
        <time>2020-02-23T09:19:48Z</time>
      </trkpt>
      <trkpt lat="42.93063" lon="0.75877">
        <ele>1571.6</ele>
        <time>2020-02-23T09:19:49Z</time>
      </trkpt>
      <trkpt lat="42.93064" lon="0.75877">
        <ele>1571.6</ele>
        <time>2020-02-23T09:19:50Z</time>
      </trkpt>
      <trkpt lat="42.93065" lon="0.75877">
        <ele>1571.6</ele>
        <time>2020-02-23T09:19:51Z</time>
      </trkpt>
      <trkpt lat="42.93065" lon="0.75877">
        <ele>1571.6</ele>
        <time>2020-02-23T09:19:52Z</time>
      </trkpt>
      <trkpt lat="42.93066" lon="0.75877">
        <ele>1571.6</ele>
        <time>2020-02-23T09:19:53Z</time>
      </trkpt>
      <trkpt lat="42.93066" lon="0.75877">
        <ele>1571.9</ele>
        <time>2020-02-23T09:19:54Z</time>
      </trkpt>
      <trkpt lat="42.93067" lon="0.75877">
        <ele>1571.9</ele>
        <time>2020-02-23T09:19:55Z</time>
      </trkpt>
      <trkpt lat="42.93068" lon="0.75877">
        <ele>1571.9</ele>
        <time>2020-02-23T09:19:56Z</time>
      </trkpt>
      <trkpt lat="42.93068" lon="0.75877">
        <ele>1571.9</ele>
        <time>2020-02-23T09:19:57Z</time>
      </trkpt>
      <trkpt lat="42.93069" lon="0.75877">
        <ele>1571.9</ele>
        <time>2020-02-23T09:19:58Z</time>
      </trkpt>
      <trkpt lat="42.93069" lon="0.75877">
        <ele>1572.2</ele>
        <time>2020-02-23T09:19:59Z</time>
      </trkpt>
      <trkpt lat="42.9307" lon="0.75877">
        <ele>1572.2</ele>
        <time>2020-02-23T09:20:00Z</time>
      </trkpt>
      <trkpt lat="42.93071" lon="0.75877">
        <ele>1572.2</ele>
        <time>2020-02-23T09:20:01Z</time>
      </trkpt>
      <trkpt lat="42.93071" lon="0.75876">
        <ele>1572.2</ele>
        <time>2020-02-23T09:20:02Z</time>
      </trkpt>
      <trkpt lat="42.93072" lon="0.75876">
        <ele>1572.2</ele>
        <time>2020-02-23T09:20:03Z</time>
      </trkpt>
      <trkpt lat="42.93072" lon="0.75876">
        <ele>1572.2</ele>
        <time>2020-02-23T09:20:04Z</time>
      </trkpt>
      <trkpt lat="42.93073" lon="0.75876">
        <ele>1572.6</ele>
        <time>2020-02-23T09:20:05Z</time>
      </trkpt>
      <trkpt lat="42.93073" lon="0.75875">
        <ele>1572.6</ele>
        <time>2020-02-23T09:20:06Z</time>
      </trkpt>
      <trkpt lat="42.93074" lon="0.75875">
        <ele>1572.6</ele>
        <time>2020-02-23T09:20:07Z</time>
      </trkpt>
      <trkpt lat="42.93074" lon="0.75875">
        <ele>1572.6</ele>
        <time>2020-02-23T09:20:08Z</time>
      </trkpt>
      <trkpt lat="42.93075" lon="0.75875">
        <ele>1572.6</ele>
        <time>2020-02-23T09:20:09Z</time>
      </trkpt>
      <trkpt lat="42.93075" lon="0.75874">
        <ele>1572.6</ele>
        <time>2020-02-23T09:20:10Z</time>
      </trkpt>
      <trkpt lat="42.93076" lon="0.75874">
        <ele>1573.3</ele>
        <time>2020-02-23T09:20:11Z</time>
      </trkpt>
      <trkpt lat="42.93076" lon="0.75874">
        <ele>1573.7</ele>
        <time>2020-02-23T09:20:12Z</time>
      </trkpt>
      <trkpt lat="42.93077" lon="0.75874">
        <ele>1573.7</ele>
        <time>2020-02-23T09:20:13Z</time>
      </trkpt>
      <trkpt lat="42.93077" lon="0.75873">
        <ele>1573.7</ele>
        <time>2020-02-23T09:20:14Z</time>
      </trkpt>
      <trkpt lat="42.93078" lon="0.75873">
        <ele>1573.8</ele>
        <time>2020-02-23T09:20:15Z</time>
      </trkpt>
      <trkpt lat="42.93078" lon="0.75873">
        <ele>1573.8</ele>
        <time>2020-02-23T09:20:16Z</time>
      </trkpt>
      <trkpt lat="42.93077" lon="0.75872">
        <ele>1573.9</ele>
        <time>2020-02-23T09:20:17Z</time>
      </trkpt>
      <trkpt lat="42.93077" lon="0.75872">
        <ele>1573.9</ele>
        <time>2020-02-23T09:20:18Z</time>
      </trkpt>
      <trkpt lat="42.93077" lon="0.75872">
        <ele>1574</ele>
        <time>2020-02-23T09:20:19Z</time>
      </trkpt>
      <trkpt lat="42.93077" lon="0.75871">
        <ele>1574</ele>
        <time>2020-02-23T09:20:20Z</time>
      </trkpt>
      <trkpt lat="42.93077" lon="0.75871">
        <ele>1574.1</ele>
        <time>2020-02-23T09:20:21Z</time>
      </trkpt>
      <trkpt lat="42.93077" lon="0.75871">
        <ele>1574.1</ele>
        <time>2020-02-23T09:20:22Z</time>
      </trkpt>
      <trkpt lat="42.93077" lon="0.7587">
        <ele>1574.1</ele>
        <time>2020-02-23T09:20:23Z</time>
      </trkpt>
      <trkpt lat="42.93077" lon="0.7587">
        <ele>1574.2</ele>
        <time>2020-02-23T09:20:24Z</time>
      </trkpt>
      <trkpt lat="42.93076" lon="0.75869">
        <ele>1574.2</ele>
        <time>2020-02-23T09:20:25Z</time>
      </trkpt>
      <trkpt lat="42.93076" lon="0.75869">
        <ele>1574.3</ele>
        <time>2020-02-23T09:20:26Z</time>
      </trkpt>
      <trkpt lat="42.93076" lon="0.75869">
        <ele>1574.3</ele>
        <time>2020-02-23T09:20:27Z</time>
      </trkpt>
      <trkpt lat="42.93076" lon="0.75868">
        <ele>1574.4</ele>
        <time>2020-02-23T09:20:28Z</time>
      </trkpt>
      <trkpt lat="42.93076" lon="0.75868">
        <ele>1574.4</ele>
        <time>2020-02-23T09:20:29Z</time>
      </trkpt>
      <trkpt lat="42.93076" lon="0.75868">
        <ele>1574.5</ele>
        <time>2020-02-23T09:20:30Z</time>
      </trkpt>
      <trkpt lat="42.93076" lon="0.75867">
        <ele>1574.5</ele>
        <time>2020-02-23T09:20:31Z</time>
      </trkpt>
      <trkpt lat="42.93076" lon="0.75867">
        <ele>1574.5</ele>
        <time>2020-02-23T09:20:32Z</time>
      </trkpt>
      <trkpt lat="42.93075" lon="0.75866">
        <ele>1574.6</ele>
        <time>2020-02-23T09:20:33Z</time>
      </trkpt>
      <trkpt lat="42.93075" lon="0.75866">
        <ele>1574.6</ele>
        <time>2020-02-23T09:20:34Z</time>
      </trkpt>
      <trkpt lat="42.93075" lon="0.75866">
        <ele>1574.7</ele>
        <time>2020-02-23T09:20:35Z</time>
      </trkpt>
      <trkpt lat="42.93075" lon="0.75865">
        <ele>1574.7</ele>
        <time>2020-02-23T09:20:36Z</time>
      </trkpt>
      <trkpt lat="42.93075" lon="0.75865">
        <ele>1574.8</ele>
        <time>2020-02-23T09:20:37Z</time>
      </trkpt>
      <trkpt lat="42.93075" lon="0.75865">
        <ele>1574.8</ele>
        <time>2020-02-23T09:20:38Z</time>
      </trkpt>
      <trkpt lat="42.93075" lon="0.75864">
        <ele>1574.8</ele>
        <time>2020-02-23T09:20:39Z</time>
      </trkpt>
      <trkpt lat="42.93075" lon="0.75864">
        <ele>1574.9</ele>
        <time>2020-02-23T09:20:40Z</time>
      </trkpt>
      <trkpt lat="42.93074" lon="0.75863">
        <ele>1574.9</ele>
        <time>2020-02-23T09:20:41Z</time>
      </trkpt>
      <trkpt lat="42.93074" lon="0.75863">
        <ele>1575</ele>
        <time>2020-02-23T09:20:42Z</time>
      </trkpt>
      <trkpt lat="42.93074" lon="0.75863">
        <ele>1575</ele>
        <time>2020-02-23T09:20:43Z</time>
      </trkpt>
      <trkpt lat="42.93074" lon="0.75862">
        <ele>1575</ele>
        <time>2020-02-23T09:20:44Z</time>
      </trkpt>
      <trkpt lat="42.93074" lon="0.75862">
        <ele>1575.1</ele>
        <time>2020-02-23T09:20:45Z</time>
      </trkpt>
      <trkpt lat="42.93074" lon="0.75861">
        <ele>1575.2</ele>
        <time>2020-02-23T09:20:46Z</time>
      </trkpt>
      <trkpt lat="42.93074" lon="0.7586">
        <ele>1575.2</ele>
        <time>2020-02-23T09:20:47Z</time>
      </trkpt>
      <trkpt lat="42.93073" lon="0.7586">
        <ele>1575.3</ele>
        <time>2020-02-23T09:20:48Z</time>
      </trkpt>
      <trkpt lat="42.93073" lon="0.75859">
        <ele>1575.4</ele>
        <time>2020-02-23T09:20:49Z</time>
      </trkpt>
      <trkpt lat="42.93073" lon="0.75858">
        <ele>1575.5</ele>
        <time>2020-02-23T09:20:50Z</time>
      </trkpt>
      <trkpt lat="42.93073" lon="0.75857">
        <ele>1575.5</ele>
        <time>2020-02-23T09:20:51Z</time>
      </trkpt>
      <trkpt lat="42.93073" lon="0.75857">
        <ele>1575.6</ele>
        <time>2020-02-23T09:20:52Z</time>
      </trkpt>
      <trkpt lat="42.93073" lon="0.75856">
        <ele>1575.7</ele>
        <time>2020-02-23T09:20:53Z</time>
      </trkpt>
      <trkpt lat="42.93073" lon="0.75855">
        <ele>1575.8</ele>
        <time>2020-02-23T09:20:54Z</time>
      </trkpt>
      <trkpt lat="42.93073" lon="0.75854">
        <ele>1575.8</ele>
        <time>2020-02-23T09:20:55Z</time>
      </trkpt>
      <trkpt lat="42.93072" lon="0.75853">
        <ele>1575.9</ele>
        <time>2020-02-23T09:20:56Z</time>
      </trkpt>
      <trkpt lat="42.93072" lon="0.75853">
        <ele>1576</ele>
        <time>2020-02-23T09:20:57Z</time>
      </trkpt>
      <trkpt lat="42.93072" lon="0.75852">
        <ele>1576.1</ele>
        <time>2020-02-23T09:20:58Z</time>
      </trkpt>
      <trkpt lat="42.93072" lon="0.75851">
        <ele>1576.1</ele>
        <time>2020-02-23T09:20:59Z</time>
      </trkpt>
      <trkpt lat="42.93072" lon="0.7585">
        <ele>1576.2</ele>
        <time>2020-02-23T09:21:00Z</time>
      </trkpt>
      <trkpt lat="42.93072" lon="0.7585">
        <ele>1576.3</ele>
        <time>2020-02-23T09:21:01Z</time>
      </trkpt>
      <trkpt lat="42.93072" lon="0.75849">
        <ele>1576.4</ele>
        <time>2020-02-23T09:21:02Z</time>
      </trkpt>
      <trkpt lat="42.93071" lon="0.75848">
        <ele>1576.5</ele>
        <time>2020-02-23T09:21:03Z</time>
      </trkpt>
      <trkpt lat="42.93071" lon="0.75847">
        <ele>1576.5</ele>
        <time>2020-02-23T09:21:04Z</time>
      </trkpt>
      <trkpt lat="42.9307" lon="0.75847">
        <ele>1576.6</ele>
        <time>2020-02-23T09:21:05Z</time>
      </trkpt>
      <trkpt lat="42.9307" lon="0.75846">
        <ele>1576.7</ele>
        <time>2020-02-23T09:21:06Z</time>
      </trkpt>
      <trkpt lat="42.93069" lon="0.75845">
        <ele>1576.8</ele>
        <time>2020-02-23T09:21:07Z</time>
      </trkpt>
      <trkpt lat="42.93069" lon="0.75845">
        <ele>1576.9</ele>
        <time>2020-02-23T09:21:08Z</time>
      </trkpt>
      <trkpt lat="42.93069" lon="0.75844">
        <ele>1577</ele>
        <time>2020-02-23T09:21:09Z</time>
      </trkpt>
      <trkpt lat="42.93068" lon="0.75843">
        <ele>1577.1</ele>
        <time>2020-02-23T09:21:10Z</time>
      </trkpt>
      <trkpt lat="42.93068" lon="0.75842">
        <ele>1577.2</ele>
        <time>2020-02-23T09:21:11Z</time>
      </trkpt>
      <trkpt lat="42.93067" lon="0.75842">
        <ele>1577.3</ele>
        <time>2020-02-23T09:21:12Z</time>
      </trkpt>
      <trkpt lat="42.93067" lon="0.75841">
        <ele>1577.4</ele>
        <time>2020-02-23T09:21:13Z</time>
      </trkpt>
      <trkpt lat="42.93066" lon="0.7584">
        <ele>1577.5</ele>
        <time>2020-02-23T09:21:14Z</time>
      </trkpt>
      <trkpt lat="42.93066" lon="0.7584">
        <ele>1577.6</ele>
        <time>2020-02-23T09:21:15Z</time>
      </trkpt>
      <trkpt lat="42.93065" lon="0.75838">
        <ele>1577.8</ele>
        <time>2020-02-23T09:21:16Z</time>
      </trkpt>
      <trkpt lat="42.93065" lon="0.75836">
        <ele>1578</ele>
        <time>2020-02-23T09:21:17Z</time>
      </trkpt>
      <trkpt lat="42.93065" lon="0.75834">
        <ele>1578.2</ele>
        <time>2020-02-23T09:21:18Z</time>
      </trkpt>
      <trkpt lat="42.93064" lon="0.75833">
        <ele>1578.3</ele>
        <time>2020-02-23T09:21:19Z</time>
      </trkpt>
      <trkpt lat="42.93064" lon="0.75831">
        <ele>1578.5</ele>
        <time>2020-02-23T09:21:20Z</time>
      </trkpt>
      <trkpt lat="42.93064" lon="0.75829">
        <ele>1578.7</ele>
        <time>2020-02-23T09:21:21Z</time>
      </trkpt>
      <trkpt lat="42.93064" lon="0.75827">
        <ele>1578.9</ele>
        <time>2020-02-23T09:21:22Z</time>
      </trkpt>
      <trkpt lat="42.93064" lon="0.75826">
        <ele>1579</ele>
        <time>2020-02-23T09:21:23Z</time>
      </trkpt>
      <trkpt lat="42.93064" lon="0.75826">
        <ele>1579.1</ele>
        <time>2020-02-23T09:21:24Z</time>
      </trkpt>
      <trkpt lat="42.93064" lon="0.75825">
        <ele>1579.2</ele>
        <time>2020-02-23T09:21:25Z</time>
      </trkpt>
      <trkpt lat="42.93064" lon="0.75824">
        <ele>1579.3</ele>
        <time>2020-02-23T09:21:26Z</time>
      </trkpt>
      <trkpt lat="42.93064" lon="0.75823">
        <ele>1579.3</ele>
        <time>2020-02-23T09:21:27Z</time>
      </trkpt>
      <trkpt lat="42.93064" lon="0.75822">
        <ele>1579.4</ele>
        <time>2020-02-23T09:21:28Z</time>
      </trkpt>
      <trkpt lat="42.93064" lon="0.75821">
        <ele>1579.5</ele>
        <time>2020-02-23T09:21:29Z</time>
      </trkpt>
      <trkpt lat="42.93064" lon="0.7582">
        <ele>1579.6</ele>
        <time>2020-02-23T09:21:30Z</time>
      </trkpt>
      <trkpt lat="42.93064" lon="0.75819">
        <ele>1579.7</ele>
        <time>2020-02-23T09:21:31Z</time>
      </trkpt>
      <trkpt lat="42.93064" lon="0.75818">
        <ele>1579.7</ele>
        <time>2020-02-23T09:21:32Z</time>
      </trkpt>
      <trkpt lat="42.93065" lon="0.75817">
        <ele>1579.8</ele>
        <time>2020-02-23T09:21:33Z</time>
      </trkpt>
      <trkpt lat="42.93065" lon="0.75816">
        <ele>1579.9</ele>
        <time>2020-02-23T09:21:34Z</time>
      </trkpt>
      <trkpt lat="42.93065" lon="0.75815">
        <ele>1580</ele>
        <time>2020-02-23T09:21:35Z</time>
      </trkpt>
      <trkpt lat="42.93065" lon="0.75814">
        <ele>1580.1</ele>
        <time>2020-02-23T09:21:36Z</time>
      </trkpt>
      <trkpt lat="42.93065" lon="0.75813">
        <ele>1580.1</ele>
        <time>2020-02-23T09:21:37Z</time>
      </trkpt>
      <trkpt lat="42.93065" lon="0.75813">
        <ele>1580.2</ele>
        <time>2020-02-23T09:21:38Z</time>
      </trkpt>
      <trkpt lat="42.93066" lon="0.75812">
        <ele>1580.3</ele>
        <time>2020-02-23T09:21:39Z</time>
      </trkpt>
      <trkpt lat="42.93066" lon="0.75811">
        <ele>1580.3</ele>
        <time>2020-02-23T09:21:40Z</time>
      </trkpt>
      <trkpt lat="42.93066" lon="0.7581">
        <ele>1580.4</ele>
        <time>2020-02-23T09:21:41Z</time>
      </trkpt>
      <trkpt lat="42.93067" lon="0.7581">
        <ele>1580.5</ele>
        <time>2020-02-23T09:21:42Z</time>
      </trkpt>
      <trkpt lat="42.93067" lon="0.75809">
        <ele>1580.6</ele>
        <time>2020-02-23T09:21:43Z</time>
      </trkpt>
      <trkpt lat="42.93067" lon="0.75808">
        <ele>1580.6</ele>
        <time>2020-02-23T09:21:44Z</time>
      </trkpt>
      <trkpt lat="42.93068" lon="0.75807">
        <ele>1580.7</ele>
        <time>2020-02-23T09:21:45Z</time>
      </trkpt>
      <trkpt lat="42.93068" lon="0.75806">
        <ele>1580.8</ele>
        <time>2020-02-23T09:21:46Z</time>
      </trkpt>
      <trkpt lat="42.93068" lon="0.75806">
        <ele>1580.8</ele>
        <time>2020-02-23T09:21:47Z</time>
      </trkpt>
      <trkpt lat="42.93069" lon="0.75805">
        <ele>1580.9</ele>
        <time>2020-02-23T09:21:48Z</time>
      </trkpt>
      <trkpt lat="42.93069" lon="0.75804">
        <ele>1581</ele>
        <time>2020-02-23T09:21:49Z</time>
      </trkpt>
      <trkpt lat="42.93069" lon="0.75803">
        <ele>1581.1</ele>
        <time>2020-02-23T09:21:50Z</time>
      </trkpt>
      <trkpt lat="42.9307" lon="0.75803">
        <ele>1581.1</ele>
        <time>2020-02-23T09:21:51Z</time>
      </trkpt>
      <trkpt lat="42.9307" lon="0.75802">
        <ele>1581.2</ele>
        <time>2020-02-23T09:21:52Z</time>
      </trkpt>
      <trkpt lat="42.9307" lon="0.75801">
        <ele>1581.3</ele>
        <time>2020-02-23T09:21:53Z</time>
      </trkpt>
      <trkpt lat="42.93071" lon="0.75799">
        <ele>1581.5</ele>
        <time>2020-02-23T09:21:54Z</time>
      </trkpt>
      <trkpt lat="42.93072" lon="0.75798">
        <ele>1581.6</ele>
        <time>2020-02-23T09:21:55Z</time>
      </trkpt>
      <trkpt lat="42.93072" lon="0.75796">
        <ele>1581.8</ele>
        <time>2020-02-23T09:21:56Z</time>
      </trkpt>
      <trkpt lat="42.93073" lon="0.75795">
        <ele>1581.9</ele>
        <time>2020-02-23T09:21:57Z</time>
      </trkpt>
      <trkpt lat="42.93073" lon="0.75793">
        <ele>1582</ele>
        <time>2020-02-23T09:21:58Z</time>
      </trkpt>
      <trkpt lat="42.93074" lon="0.75792">
        <ele>1582.2</ele>
        <time>2020-02-23T09:21:59Z</time>
      </trkpt>
      <trkpt lat="42.93074" lon="0.7579">
        <ele>1582.3</ele>
        <time>2020-02-23T09:22:00Z</time>
      </trkpt>
      <trkpt lat="42.93074" lon="0.7579">
        <ele>1582.4</ele>
        <time>2020-02-23T09:22:01Z</time>
      </trkpt>
      <trkpt lat="42.93073" lon="0.75789">
        <ele>1582.5</ele>
        <time>2020-02-23T09:22:02Z</time>
      </trkpt>
      <trkpt lat="42.93073" lon="0.75788">
        <ele>1582.6</ele>
        <time>2020-02-23T09:22:03Z</time>
      </trkpt>
      <trkpt lat="42.93072" lon="0.75787">
        <ele>1582.7</ele>
        <time>2020-02-23T09:22:04Z</time>
      </trkpt>
      <trkpt lat="42.93072" lon="0.75786">
        <ele>1582.8</ele>
        <time>2020-02-23T09:22:05Z</time>
      </trkpt>
      <trkpt lat="42.93071" lon="0.75786">
        <ele>1582.8</ele>
        <time>2020-02-23T09:22:06Z</time>
      </trkpt>
      <trkpt lat="42.93071" lon="0.75785">
        <ele>1582.9</ele>
        <time>2020-02-23T09:22:07Z</time>
      </trkpt>
      <trkpt lat="42.9307" lon="0.75784">
        <ele>1583</ele>
        <time>2020-02-23T09:22:08Z</time>
      </trkpt>
      <trkpt lat="42.93069" lon="0.75783">
        <ele>1583</ele>
        <time>2020-02-23T09:22:09Z</time>
      </trkpt>
      <trkpt lat="42.93069" lon="0.75783">
        <ele>1583.1</ele>
        <time>2020-02-23T09:22:10Z</time>
      </trkpt>
      <trkpt lat="42.93068" lon="0.75782">
        <ele>1583.2</ele>
        <time>2020-02-23T09:22:11Z</time>
      </trkpt>
      <trkpt lat="42.93068" lon="0.75781">
        <ele>1583.2</ele>
        <time>2020-02-23T09:22:12Z</time>
      </trkpt>
      <trkpt lat="42.93068" lon="0.75781">
        <ele>1583.3</ele>
        <time>2020-02-23T09:22:13Z</time>
      </trkpt>
      <trkpt lat="42.93067" lon="0.75782">
        <ele>1583.3</ele>
        <time>2020-02-23T09:22:14Z</time>
      </trkpt>
      <trkpt lat="42.93067" lon="0.75782">
        <ele>1583.3</ele>
        <time>2020-02-23T09:22:15Z</time>
      </trkpt>
      <trkpt lat="42.93067" lon="0.75782">
        <ele>1583.3</ele>
        <time>2020-02-23T09:22:16Z</time>
      </trkpt>
      <trkpt lat="42.93067" lon="0.75783">
        <ele>1583.4</ele>
        <time>2020-02-23T09:22:17Z</time>
      </trkpt>
      <trkpt lat="42.93067" lon="0.75783">
        <ele>1583.4</ele>
        <time>2020-02-23T09:22:18Z</time>
      </trkpt>
      <trkpt lat="42.93066" lon="0.75783">
        <ele>1583.4</ele>
        <time>2020-02-23T09:22:19Z</time>
      </trkpt>
      <trkpt lat="42.93066" lon="0.75784">
        <ele>1583.4</ele>
        <time>2020-02-23T09:22:20Z</time>
      </trkpt>
      <trkpt lat="42.93066" lon="0.75784">
        <ele>1583.5</ele>
        <time>2020-02-23T09:22:21Z</time>
      </trkpt>
      <trkpt lat="42.93066" lon="0.75784">
        <ele>1583.5</ele>
        <time>2020-02-23T09:22:22Z</time>
      </trkpt>
      <trkpt lat="42.93065" lon="0.75785">
        <ele>1583.5</ele>
        <time>2020-02-23T09:22:23Z</time>
      </trkpt>
      <trkpt lat="42.93065" lon="0.75785">
        <ele>1583.6</ele>
        <time>2020-02-23T09:22:24Z</time>
      </trkpt>
      <trkpt lat="42.93065" lon="0.75785">
        <ele>1583.6</ele>
        <time>2020-02-23T09:22:25Z</time>
      </trkpt>
      <trkpt lat="42.93065" lon="0.75786">
        <ele>1583.6</ele>
        <time>2020-02-23T09:22:26Z</time>
      </trkpt>
      <trkpt lat="42.93065" lon="0.75786">
        <ele>1583.6</ele>
        <time>2020-02-23T09:22:27Z</time>
      </trkpt>
      <trkpt lat="42.93064" lon="0.75786">
        <ele>1583.7</ele>
        <time>2020-02-23T09:22:28Z</time>
      </trkpt>
      <trkpt lat="42.93064" lon="0.75787">
        <ele>1583.7</ele>
        <time>2020-02-23T09:22:29Z</time>
      </trkpt>
      <trkpt lat="42.93064" lon="0.75787">
        <ele>1583.7</ele>
        <time>2020-02-23T09:22:30Z</time>
      </trkpt>
      <trkpt lat="42.93064" lon="0.75787">
        <ele>1583.7</ele>
        <time>2020-02-23T09:22:31Z</time>
      </trkpt>
      <trkpt lat="42.93063" lon="0.75788">
        <ele>1583.8</ele>
        <time>2020-02-23T09:22:32Z</time>
      </trkpt>
      <trkpt lat="42.93063" lon="0.75788">
        <ele>1583.8</ele>
        <time>2020-02-23T09:22:33Z</time>
      </trkpt>
      <trkpt lat="42.93063" lon="0.75788">
        <ele>1583.8</ele>
        <time>2020-02-23T09:22:34Z</time>
      </trkpt>
      <trkpt lat="42.93063" lon="0.75789">
        <ele>1583.9</ele>
        <time>2020-02-23T09:22:35Z</time>
      </trkpt>
      <trkpt lat="42.93062" lon="0.75789">
        <ele>1583.9</ele>
        <time>2020-02-23T09:22:36Z</time>
      </trkpt>
      <trkpt lat="42.93062" lon="0.75789">
        <ele>1583.9</ele>
        <time>2020-02-23T09:22:37Z</time>
      </trkpt>
      <trkpt lat="42.93062" lon="0.7579">
        <ele>1583.9</ele>
        <time>2020-02-23T09:22:38Z</time>
      </trkpt>
      <trkpt lat="42.93062" lon="0.7579">
        <ele>1584</ele>
        <time>2020-02-23T09:22:39Z</time>
      </trkpt>
      <trkpt lat="42.93062" lon="0.7579">
        <ele>1584</ele>
        <time>2020-02-23T09:22:40Z</time>
      </trkpt>
      <trkpt lat="42.93061" lon="0.75791">
        <ele>1584</ele>
        <time>2020-02-23T09:22:41Z</time>
      </trkpt>
      <trkpt lat="42.93061" lon="0.75791">
        <ele>1584.1</ele>
        <time>2020-02-23T09:22:42Z</time>
      </trkpt>
      <trkpt lat="42.93061" lon="0.75791">
        <ele>1584.1</ele>
        <time>2020-02-23T09:22:43Z</time>
      </trkpt>
      <trkpt lat="42.93061" lon="0.7579">
        <ele>1584.2</ele>
        <time>2020-02-23T09:22:44Z</time>
      </trkpt>
      <trkpt lat="42.93061" lon="0.7579">
        <ele>1584.3</ele>
        <time>2020-02-23T09:22:45Z</time>
      </trkpt>
      <trkpt lat="42.93061" lon="0.75789">
        <ele>1584.3</ele>
        <time>2020-02-23T09:22:46Z</time>
      </trkpt>
      <trkpt lat="42.93061" lon="0.75789">
        <ele>1584.4</ele>
        <time>2020-02-23T09:22:47Z</time>
      </trkpt>
      <trkpt lat="42.93061" lon="0.75789">
        <ele>1584.6</ele>
        <time>2020-02-23T09:22:48Z</time>
      </trkpt>
      <trkpt lat="42.93061" lon="0.75788">
        <ele>1584.6</ele>
        <time>2020-02-23T09:22:49Z</time>
      </trkpt>
      <trkpt lat="42.93061" lon="0.75788">
        <ele>1584.7</ele>
        <time>2020-02-23T09:22:50Z</time>
      </trkpt>
      <trkpt lat="42.93061" lon="0.75787">
        <ele>1584.8</ele>
        <time>2020-02-23T09:22:51Z</time>
      </trkpt>
      <trkpt lat="42.93061" lon="0.75787">
        <ele>1584.9</ele>
        <time>2020-02-23T09:22:52Z</time>
      </trkpt>
      <trkpt lat="42.93061" lon="0.75787">
        <ele>1585</ele>
        <time>2020-02-23T09:22:53Z</time>
      </trkpt>
      <trkpt lat="42.93061" lon="0.75786">
        <ele>1585</ele>
        <time>2020-02-23T09:22:54Z</time>
      </trkpt>
      <trkpt lat="42.93061" lon="0.75786">
        <ele>1585.2</ele>
        <time>2020-02-23T09:22:55Z</time>
      </trkpt>
      <trkpt lat="42.93061" lon="0.75785">
        <ele>1585.3</ele>
        <time>2020-02-23T09:22:56Z</time>
      </trkpt>
      <trkpt lat="42.93061" lon="0.75785">
        <ele>1585.3</ele>
        <time>2020-02-23T09:22:57Z</time>
      </trkpt>
      <trkpt lat="42.93061" lon="0.75784">
        <ele>1585.4</ele>
        <time>2020-02-23T09:22:58Z</time>
      </trkpt>
      <trkpt lat="42.93061" lon="0.75784">
        <ele>1585.6</ele>
        <time>2020-02-23T09:22:59Z</time>
      </trkpt>
      <trkpt lat="42.93061" lon="0.75784">
        <ele>1585.6</ele>
        <time>2020-02-23T09:23:00Z</time>
      </trkpt>
      <trkpt lat="42.93061" lon="0.75783">
        <ele>1585.7</ele>
        <time>2020-02-23T09:23:01Z</time>
      </trkpt>
      <trkpt lat="42.93061" lon="0.75783">
        <ele>1585.8</ele>
        <time>2020-02-23T09:23:02Z</time>
      </trkpt>
      <trkpt lat="42.93061" lon="0.75782">
        <ele>1585.9</ele>
        <time>2020-02-23T09:23:03Z</time>
      </trkpt>
      <trkpt lat="42.9306" lon="0.75782">
        <ele>1586</ele>
        <time>2020-02-23T09:23:04Z</time>
      </trkpt>
      <trkpt lat="42.9306" lon="0.75782">
        <ele>1586.1</ele>
        <time>2020-02-23T09:23:05Z</time>
      </trkpt>
      <trkpt lat="42.9306" lon="0.75781">
        <ele>1586.1</ele>
        <time>2020-02-23T09:23:06Z</time>
      </trkpt>
      <trkpt lat="42.9306" lon="0.75781">
        <ele>1586.2</ele>
        <time>2020-02-23T09:23:07Z</time>
      </trkpt>
      <trkpt lat="42.9306" lon="0.7578">
        <ele>1586.3</ele>
        <time>2020-02-23T09:23:08Z</time>
      </trkpt>
      <trkpt lat="42.9306" lon="0.7578">
        <ele>1586.4</ele>
        <time>2020-02-23T09:23:09Z</time>
      </trkpt>
      <trkpt lat="42.9306" lon="0.75779">
        <ele>1586.5</ele>
        <time>2020-02-23T09:23:10Z</time>
      </trkpt>
      <trkpt lat="42.9306" lon="0.75779">
        <ele>1586.5</ele>
        <time>2020-02-23T09:23:11Z</time>
      </trkpt>
      <trkpt lat="42.9306" lon="0.75779">
        <ele>1586.6</ele>
        <time>2020-02-23T09:23:12Z</time>
      </trkpt>
      <trkpt lat="42.93061" lon="0.75778">
        <ele>1586.7</ele>
        <time>2020-02-23T09:23:13Z</time>
      </trkpt>
      <trkpt lat="42.93061" lon="0.75777">
        <ele>1586.9</ele>
        <time>2020-02-23T09:23:14Z</time>
      </trkpt>
      <trkpt lat="42.93061" lon="0.75776">
        <ele>1587</ele>
        <time>2020-02-23T09:23:15Z</time>
      </trkpt>
      <trkpt lat="42.93061" lon="0.75776">
        <ele>1587.1</ele>
        <time>2020-02-23T09:23:16Z</time>
      </trkpt>
      <trkpt lat="42.93062" lon="0.75775">
        <ele>1587.3</ele>
        <time>2020-02-23T09:23:17Z</time>
      </trkpt>
      <trkpt lat="42.93062" lon="0.75774">
        <ele>1587.4</ele>
        <time>2020-02-23T09:23:18Z</time>
      </trkpt>
      <trkpt lat="42.93062" lon="0.75773">
        <ele>1587.6</ele>
        <time>2020-02-23T09:23:19Z</time>
      </trkpt>
      <trkpt lat="42.93063" lon="0.75772">
        <ele>1587.7</ele>
        <time>2020-02-23T09:23:20Z</time>
      </trkpt>
      <trkpt lat="42.93063" lon="0.75772">
        <ele>1587.8</ele>
        <time>2020-02-23T09:23:21Z</time>
      </trkpt>
      <trkpt lat="42.93063" lon="0.75771">
        <ele>1588</ele>
        <time>2020-02-23T09:23:22Z</time>
      </trkpt>
      <trkpt lat="42.93064" lon="0.7577">
        <ele>1588</ele>
        <time>2020-02-23T09:23:23Z</time>
      </trkpt>
      <trkpt lat="42.93064" lon="0.75769">
        <ele>1588.1</ele>
        <time>2020-02-23T09:23:24Z</time>
      </trkpt>
      <trkpt lat="42.93064" lon="0.75769">
        <ele>1588.2</ele>
        <time>2020-02-23T09:23:25Z</time>
      </trkpt>
      <trkpt lat="42.93065" lon="0.75768">
        <ele>1588.2</ele>
        <time>2020-02-23T09:23:26Z</time>
      </trkpt>
      <trkpt lat="42.93066" lon="0.75766">
        <ele>1588.5</ele>
        <time>2020-02-23T09:23:27Z</time>
      </trkpt>
      <trkpt lat="42.93067" lon="0.75764">
        <ele>1588.7</ele>
        <time>2020-02-23T09:23:28Z</time>
      </trkpt>
      <trkpt lat="42.93068" lon="0.75762">
        <ele>1588.9</ele>
        <time>2020-02-23T09:23:29Z</time>
      </trkpt>
      <trkpt lat="42.93069" lon="0.75759">
        <ele>1589.1</ele>
        <time>2020-02-23T09:23:30Z</time>
      </trkpt>
      <trkpt lat="42.9307" lon="0.75757">
        <ele>1589.3</ele>
        <time>2020-02-23T09:23:31Z</time>
      </trkpt>
      <trkpt lat="42.93069" lon="0.75758">
        <ele>1589.4</ele>
        <time>2020-02-23T09:23:32Z</time>
      </trkpt>
      <trkpt lat="42.93068" lon="0.75758">
        <ele>1589.5</ele>
        <time>2020-02-23T09:23:33Z</time>
      </trkpt>
      <trkpt lat="42.93068" lon="0.75758">
        <ele>1589.6</ele>
        <time>2020-02-23T09:23:34Z</time>
      </trkpt>
      <trkpt lat="42.93067" lon="0.75758">
        <ele>1589.7</ele>
        <time>2020-02-23T09:23:35Z</time>
      </trkpt>
      <trkpt lat="42.93066" lon="0.75759">
        <ele>1589.8</ele>
        <time>2020-02-23T09:23:36Z</time>
      </trkpt>
      <trkpt lat="42.93066" lon="0.75759">
        <ele>1589.9</ele>
        <time>2020-02-23T09:23:37Z</time>
      </trkpt>
      <trkpt lat="42.93065" lon="0.75759">
        <ele>1589.9</ele>
        <time>2020-02-23T09:23:38Z</time>
      </trkpt>
      <trkpt lat="42.93064" lon="0.75759">
        <ele>1590</ele>
        <time>2020-02-23T09:23:39Z</time>
      </trkpt>
      <trkpt lat="42.93064" lon="0.7576">
        <ele>1590.1</ele>
        <time>2020-02-23T09:23:40Z</time>
      </trkpt>
      <trkpt lat="42.93063" lon="0.7576">
        <ele>1590.2</ele>
        <time>2020-02-23T09:23:41Z</time>
      </trkpt>
      <trkpt lat="42.93062" lon="0.7576">
        <ele>1590.3</ele>
        <time>2020-02-23T09:23:42Z</time>
      </trkpt>
      <trkpt lat="42.93062" lon="0.7576">
        <ele>1590.4</ele>
        <time>2020-02-23T09:23:43Z</time>
      </trkpt>
      <trkpt lat="42.93061" lon="0.75761">
        <ele>1590.5</ele>
        <time>2020-02-23T09:23:44Z</time>
      </trkpt>
      <trkpt lat="42.93061" lon="0.75761">
        <ele>1590.5</ele>
        <time>2020-02-23T09:23:45Z</time>
      </trkpt>
      <trkpt lat="42.93061" lon="0.75761">
        <ele>1590.5</ele>
        <time>2020-02-23T09:23:46Z</time>
      </trkpt>
      <trkpt lat="42.93061" lon="0.75761">
        <ele>1590.6</ele>
        <time>2020-02-23T09:23:47Z</time>
      </trkpt>
      <trkpt lat="42.93061" lon="0.75762">
        <ele>1590.6</ele>
        <time>2020-02-23T09:23:48Z</time>
      </trkpt>
      <trkpt lat="42.93061" lon="0.75762">
        <ele>1590.7</ele>
        <time>2020-02-23T09:23:49Z</time>
      </trkpt>
      <trkpt lat="42.93061" lon="0.75762">
        <ele>1590.7</ele>
        <time>2020-02-23T09:23:50Z</time>
      </trkpt>
      <trkpt lat="42.93061" lon="0.75763">
        <ele>1590.7</ele>
        <time>2020-02-23T09:23:51Z</time>
      </trkpt>
      <trkpt lat="42.93061" lon="0.75763">
        <ele>1590.8</ele>
        <time>2020-02-23T09:23:52Z</time>
      </trkpt>
      <trkpt lat="42.93061" lon="0.75763">
        <ele>1590.8</ele>
        <time>2020-02-23T09:23:53Z</time>
      </trkpt>
      <trkpt lat="42.93061" lon="0.75764">
        <ele>1590.9</ele>
        <time>2020-02-23T09:23:54Z</time>
      </trkpt>
      <trkpt lat="42.93061" lon="0.75764">
        <ele>1590.9</ele>
        <time>2020-02-23T09:23:55Z</time>
      </trkpt>
      <trkpt lat="42.93061" lon="0.75764">
        <ele>1590.9</ele>
        <time>2020-02-23T09:23:56Z</time>
      </trkpt>
      <trkpt lat="42.93061" lon="0.75764">
        <ele>1590.9</ele>
        <time>2020-02-23T09:23:57Z</time>
      </trkpt>
      <trkpt lat="42.93061" lon="0.75765">
        <ele>1591</ele>
        <time>2020-02-23T09:23:58Z</time>
      </trkpt>
      <trkpt lat="42.93061" lon="0.75765">
        <ele>1591</ele>
        <time>2020-02-23T09:23:59Z</time>
      </trkpt>
      <trkpt lat="42.93061" lon="0.75765">
        <ele>1591.1</ele>
        <time>2020-02-23T09:24:00Z</time>
      </trkpt>
      <trkpt lat="42.93061" lon="0.75766">
        <ele>1591.1</ele>
        <time>2020-02-23T09:24:01Z</time>
      </trkpt>
      <trkpt lat="42.93061" lon="0.75766">
        <ele>1591.1</ele>
        <time>2020-02-23T09:24:02Z</time>
      </trkpt>
      <trkpt lat="42.93061" lon="0.75766">
        <ele>1591.2</ele>
        <time>2020-02-23T09:24:03Z</time>
      </trkpt>
      <trkpt lat="42.93061" lon="0.75767">
        <ele>1591.2</ele>
        <time>2020-02-23T09:24:04Z</time>
      </trkpt>
      <trkpt lat="42.93061" lon="0.75767">
        <ele>1591.2</ele>
        <time>2020-02-23T09:24:05Z</time>
      </trkpt>
      <trkpt lat="42.93061" lon="0.75767">
        <ele>1591.2</ele>
        <time>2020-02-23T09:24:06Z</time>
      </trkpt>
      <trkpt lat="42.93061" lon="0.75767">
        <ele>1591.3</ele>
        <time>2020-02-23T09:24:07Z</time>
      </trkpt>
      <trkpt lat="42.93061" lon="0.75768">
        <ele>1591.4</ele>
        <time>2020-02-23T09:24:08Z</time>
      </trkpt>
      <trkpt lat="42.93061" lon="0.75768">
        <ele>1591.4</ele>
        <time>2020-02-23T09:24:09Z</time>
      </trkpt>
      <trkpt lat="42.93061" lon="0.75768">
        <ele>1591.4</ele>
        <time>2020-02-23T09:24:10Z</time>
      </trkpt>
      <trkpt lat="42.93061" lon="0.75769">
        <ele>1591.4</ele>
        <time>2020-02-23T09:24:11Z</time>
      </trkpt>
      <trkpt lat="42.93061" lon="0.75769">
        <ele>1591.4</ele>
        <time>2020-02-23T09:24:12Z</time>
      </trkpt>
      <trkpt lat="42.93061" lon="0.75769">
        <ele>1591.4</ele>
        <time>2020-02-23T09:24:13Z</time>
      </trkpt>
      <trkpt lat="42.93061" lon="0.7577">
        <ele>1591.5</ele>
        <time>2020-02-23T09:24:14Z</time>
      </trkpt>
      <trkpt lat="42.93061" lon="0.7577">
        <ele>1591.6</ele>
        <time>2020-02-23T09:24:15Z</time>
      </trkpt>
      <trkpt lat="42.93061" lon="0.7577">
        <ele>1591.6</ele>
        <time>2020-02-23T09:24:16Z</time>
      </trkpt>
      <trkpt lat="42.93061" lon="0.7577">
        <ele>1591.6</ele>
        <time>2020-02-23T09:24:17Z</time>
      </trkpt>
      <trkpt lat="42.93061" lon="0.75771">
        <ele>1591.6</ele>
        <time>2020-02-23T09:24:18Z</time>
      </trkpt>
      <trkpt lat="42.93061" lon="0.75771">
        <ele>1591.7</ele>
        <time>2020-02-23T09:24:19Z</time>
      </trkpt>
      <trkpt lat="42.93061" lon="0.75771">
        <ele>1591.7</ele>
        <time>2020-02-23T09:24:20Z</time>
      </trkpt>
      <trkpt lat="42.93061" lon="0.75772">
        <ele>1591.7</ele>
        <time>2020-02-23T09:24:21Z</time>
      </trkpt>
      <trkpt lat="42.93061" lon="0.75772">
        <ele>1591.8</ele>
        <time>2020-02-23T09:24:22Z</time>
      </trkpt>
      <trkpt lat="42.93061" lon="0.75772">
        <ele>1591.8</ele>
        <time>2020-02-23T09:24:23Z</time>
      </trkpt>
      <trkpt lat="42.93061" lon="0.75773">
        <ele>1591.9</ele>
        <time>2020-02-23T09:24:24Z</time>
      </trkpt>
      <trkpt lat="42.9306" lon="0.75773">
        <ele>1591.9</ele>
        <time>2020-02-23T09:24:25Z</time>
      </trkpt>
      <trkpt lat="42.9306" lon="0.75773">
        <ele>1591.9</ele>
        <time>2020-02-23T09:24:26Z</time>
      </trkpt>
      <trkpt lat="42.9306" lon="0.75773">
        <ele>1591.9</ele>
        <time>2020-02-23T09:24:27Z</time>
      </trkpt>
      <trkpt lat="42.9306" lon="0.75774">
        <ele>1591.9</ele>
        <time>2020-02-23T09:24:28Z</time>
      </trkpt>
      <trkpt lat="42.9306" lon="0.75774">
        <ele>1592</ele>
        <time>2020-02-23T09:24:29Z</time>
      </trkpt>
      <trkpt lat="42.9306" lon="0.75774">
        <ele>1592</ele>
        <time>2020-02-23T09:24:30Z</time>
      </trkpt>
      <trkpt lat="42.9306" lon="0.75775">
        <ele>1592</ele>
        <time>2020-02-23T09:24:31Z</time>
      </trkpt>
      <trkpt lat="42.9306" lon="0.75775">
        <ele>1592</ele>
        <time>2020-02-23T09:24:32Z</time>
      </trkpt>
      <trkpt lat="42.9306" lon="0.75775">
        <ele>1592</ele>
        <time>2020-02-23T09:24:33Z</time>
      </trkpt>
      <trkpt lat="42.9306" lon="0.75776">
        <ele>1592.1</ele>
        <time>2020-02-23T09:24:34Z</time>
      </trkpt>
      <trkpt lat="42.9306" lon="0.75776">
        <ele>1592.1</ele>
        <time>2020-02-23T09:24:35Z</time>
      </trkpt>
      <trkpt lat="42.9306" lon="0.75776">
        <ele>1592.1</ele>
        <time>2020-02-23T09:24:36Z</time>
      </trkpt>
      <trkpt lat="42.9306" lon="0.75776">
        <ele>1592.1</ele>
        <time>2020-02-23T09:24:37Z</time>
      </trkpt>
      <trkpt lat="42.9306" lon="0.75777">
        <ele>1592.1</ele>
        <time>2020-02-23T09:24:38Z</time>
      </trkpt>
      <trkpt lat="42.9306" lon="0.75777">
        <ele>1592.2</ele>
        <time>2020-02-23T09:24:39Z</time>
      </trkpt>
      <trkpt lat="42.9306" lon="0.75777">
        <ele>1592.2</ele>
        <time>2020-02-23T09:24:40Z</time>
      </trkpt>
      <trkpt lat="42.9306" lon="0.75778">
        <ele>1592.2</ele>
        <time>2020-02-23T09:24:41Z</time>
      </trkpt>
      <trkpt lat="42.9306" lon="0.75778">
        <ele>1592.2</ele>
        <time>2020-02-23T09:24:42Z</time>
      </trkpt>
      <trkpt lat="42.9306" lon="0.75778">
        <ele>1592.2</ele>
        <time>2020-02-23T09:24:43Z</time>
      </trkpt>
      <trkpt lat="42.9306" lon="0.7578">
        <ele>1592.3</ele>
        <time>2020-02-23T09:24:44Z</time>
      </trkpt>
      <trkpt lat="42.9306" lon="0.75781">
        <ele>1592.5</ele>
        <time>2020-02-23T09:24:45Z</time>
      </trkpt>
      <trkpt lat="42.9306" lon="0.75783">
        <ele>1592.8</ele>
        <time>2020-02-23T09:24:46Z</time>
      </trkpt>
      <trkpt lat="42.93059" lon="0.75785">
        <ele>1593</ele>
        <time>2020-02-23T09:24:47Z</time>
      </trkpt>
      <trkpt lat="42.93059" lon="0.75786">
        <ele>1593.3</ele>
        <time>2020-02-23T09:24:48Z</time>
      </trkpt>
      <trkpt lat="42.93059" lon="0.75788">
        <ele>1593.5</ele>
        <time>2020-02-23T09:24:49Z</time>
      </trkpt>
      <trkpt lat="42.93059" lon="0.75789">
        <ele>1593.8</ele>
        <time>2020-02-23T09:24:50Z</time>
      </trkpt>
      <trkpt lat="42.93059" lon="0.75791">
        <ele>1594</ele>
        <time>2020-02-23T09:24:51Z</time>
      </trkpt>
      <trkpt lat="42.93058" lon="0.75789">
        <ele>1594.4</ele>
        <time>2020-02-23T09:24:52Z</time>
      </trkpt>
      <trkpt lat="42.93057" lon="0.75787">
        <ele>1594.8</ele>
        <time>2020-02-23T09:24:53Z</time>
      </trkpt>
      <trkpt lat="42.93056" lon="0.75785">
        <ele>1595.2</ele>
        <time>2020-02-23T09:24:54Z</time>
      </trkpt>
      <trkpt lat="42.93055" lon="0.75783">
        <ele>1595.5</ele>
        <time>2020-02-23T09:24:55Z</time>
      </trkpt>
      <trkpt lat="42.93054" lon="0.7578">
        <ele>1595.9</ele>
        <time>2020-02-23T09:24:56Z</time>
      </trkpt>
      <trkpt lat="42.93053" lon="0.75778">
        <ele>1596.3</ele>
        <time>2020-02-23T09:24:57Z</time>
      </trkpt>
      <trkpt lat="42.93052" lon="0.75776">
        <ele>1596.6</ele>
        <time>2020-02-23T09:24:58Z</time>
      </trkpt>
      <trkpt lat="42.93051" lon="0.75774">
        <ele>1596.8</ele>
        <time>2020-02-23T09:24:59Z</time>
      </trkpt>
      <trkpt lat="42.9305" lon="0.75774">
        <ele>1596.9</ele>
        <time>2020-02-23T09:25:00Z</time>
      </trkpt>
      <trkpt lat="42.93049" lon="0.75774">
        <ele>1597</ele>
        <time>2020-02-23T09:25:01Z</time>
      </trkpt>
      <trkpt lat="42.93049" lon="0.75774">
        <ele>1597.1</ele>
        <time>2020-02-23T09:25:02Z</time>
      </trkpt>
      <trkpt lat="42.93048" lon="0.75773">
        <ele>1597.2</ele>
        <time>2020-02-23T09:25:03Z</time>
      </trkpt>
      <trkpt lat="42.93048" lon="0.75773">
        <ele>1597.3</ele>
        <time>2020-02-23T09:25:04Z</time>
      </trkpt>
      <trkpt lat="42.93047" lon="0.75773">
        <ele>1597.4</ele>
        <time>2020-02-23T09:25:05Z</time>
      </trkpt>
      <trkpt lat="42.93046" lon="0.75773">
        <ele>1597.5</ele>
        <time>2020-02-23T09:25:06Z</time>
      </trkpt>
      <trkpt lat="42.93046" lon="0.75773">
        <ele>1597.6</ele>
        <time>2020-02-23T09:25:07Z</time>
      </trkpt>
      <trkpt lat="42.93045" lon="0.75773">
        <ele>1597.7</ele>
        <time>2020-02-23T09:25:08Z</time>
      </trkpt>
      <trkpt lat="42.93045" lon="0.75773">
        <ele>1597.8</ele>
        <time>2020-02-23T09:25:09Z</time>
      </trkpt>
      <trkpt lat="42.93044" lon="0.75772">
        <ele>1597.9</ele>
        <time>2020-02-23T09:25:10Z</time>
      </trkpt>
      <trkpt lat="42.93043" lon="0.75772">
        <ele>1598</ele>
        <time>2020-02-23T09:25:11Z</time>
      </trkpt>
      <trkpt lat="42.93043" lon="0.75772">
        <ele>1598.1</ele>
        <time>2020-02-23T09:25:12Z</time>
      </trkpt>
      <trkpt lat="42.93042" lon="0.75772">
        <ele>1598.2</ele>
        <time>2020-02-23T09:25:13Z</time>
      </trkpt>
      <trkpt lat="42.93042" lon="0.75772">
        <ele>1598.3</ele>
        <time>2020-02-23T09:25:14Z</time>
      </trkpt>
      <trkpt lat="42.93041" lon="0.75772">
        <ele>1598.4</ele>
        <time>2020-02-23T09:25:15Z</time>
      </trkpt>
      <trkpt lat="42.93041" lon="0.75771">
        <ele>1598.5</ele>
        <time>2020-02-23T09:25:16Z</time>
      </trkpt>
      <trkpt lat="42.93041" lon="0.7577">
        <ele>1598.7</ele>
        <time>2020-02-23T09:25:17Z</time>
      </trkpt>
      <trkpt lat="42.93041" lon="0.75769">
        <ele>1598.8</ele>
        <time>2020-02-23T09:25:18Z</time>
      </trkpt>
      <trkpt lat="42.93042" lon="0.75768">
        <ele>1598.9</ele>
        <time>2020-02-23T09:25:19Z</time>
      </trkpt>
      <trkpt lat="42.93042" lon="0.75767">
        <ele>1599.1</ele>
        <time>2020-02-23T09:25:20Z</time>
      </trkpt>
      <trkpt lat="42.93042" lon="0.75766">
        <ele>1599.3</ele>
        <time>2020-02-23T09:25:21Z</time>
      </trkpt>
      <trkpt lat="42.93042" lon="0.75764">
        <ele>1599.4</ele>
        <time>2020-02-23T09:25:22Z</time>
      </trkpt>
      <trkpt lat="42.93042" lon="0.75763">
        <ele>1599.6</ele>
        <time>2020-02-23T09:25:23Z</time>
      </trkpt>
      <trkpt lat="42.93042" lon="0.75762">
        <ele>1599.8</ele>
        <time>2020-02-23T09:25:24Z</time>
      </trkpt>
      <trkpt lat="42.93042" lon="0.75761">
        <ele>1600</ele>
        <time>2020-02-23T09:25:25Z</time>
      </trkpt>
      <trkpt lat="42.93042" lon="0.7576">
        <ele>1600.1</ele>
        <time>2020-02-23T09:25:26Z</time>
      </trkpt>
      <trkpt lat="42.93043" lon="0.75759">
        <ele>1600.3</ele>
        <time>2020-02-23T09:25:27Z</time>
      </trkpt>
      <trkpt lat="42.93043" lon="0.75758">
        <ele>1600.5</ele>
        <time>2020-02-23T09:25:28Z</time>
      </trkpt>
      <trkpt lat="42.93044" lon="0.75757">
        <ele>1600.8</ele>
        <time>2020-02-23T09:25:29Z</time>
      </trkpt>
      <trkpt lat="42.93045" lon="0.75756">
        <ele>1601.1</ele>
        <time>2020-02-23T09:25:30Z</time>
      </trkpt>
      <trkpt lat="42.93046" lon="0.75754">
        <ele>1601.4</ele>
        <time>2020-02-23T09:25:31Z</time>
      </trkpt>
      <trkpt lat="42.93047" lon="0.75753">
        <ele>1601.7</ele>
        <time>2020-02-23T09:25:32Z</time>
      </trkpt>
      <trkpt lat="42.93048" lon="0.75752">
        <ele>1602</ele>
        <time>2020-02-23T09:25:33Z</time>
      </trkpt>
      <trkpt lat="42.93048" lon="0.75751">
        <ele>1602.2</ele>
        <time>2020-02-23T09:25:34Z</time>
      </trkpt>
      <trkpt lat="42.93049" lon="0.75749">
        <ele>1602.6</ele>
        <time>2020-02-23T09:25:35Z</time>
      </trkpt>
      <trkpt lat="42.9305" lon="0.75749">
        <ele>1602.7</ele>
        <time>2020-02-23T09:25:36Z</time>
      </trkpt>
      <trkpt lat="42.9305" lon="0.75748">
        <ele>1602.8</ele>
        <time>2020-02-23T09:25:37Z</time>
      </trkpt>
      <trkpt lat="42.9305" lon="0.75747">
        <ele>1602.8</ele>
        <time>2020-02-23T09:25:38Z</time>
      </trkpt>
      <trkpt lat="42.9305" lon="0.75747">
        <ele>1602.9</ele>
        <time>2020-02-23T09:25:39Z</time>
      </trkpt>
      <trkpt lat="42.9305" lon="0.75746">
        <ele>1603</ele>
        <time>2020-02-23T09:25:40Z</time>
      </trkpt>
      <trkpt lat="42.93051" lon="0.75746">
        <ele>1603</ele>
        <time>2020-02-23T09:25:41Z</time>
      </trkpt>
      <trkpt lat="42.93051" lon="0.75745">
        <ele>1603.1</ele>
        <time>2020-02-23T09:25:42Z</time>
      </trkpt>
      <trkpt lat="42.93051" lon="0.75744">
        <ele>1603.2</ele>
        <time>2020-02-23T09:25:43Z</time>
      </trkpt>
      <trkpt lat="42.93051" lon="0.75744">
        <ele>1603.2</ele>
        <time>2020-02-23T09:25:44Z</time>
      </trkpt>
      <trkpt lat="42.93051" lon="0.75743">
        <ele>1603.3</ele>
        <time>2020-02-23T09:25:45Z</time>
      </trkpt>
      <trkpt lat="42.93051" lon="0.75742">
        <ele>1603.3</ele>
        <time>2020-02-23T09:25:46Z</time>
      </trkpt>
      <trkpt lat="42.93052" lon="0.75742">
        <ele>1603.4</ele>
        <time>2020-02-23T09:25:47Z</time>
      </trkpt>
      <trkpt lat="42.93052" lon="0.75741">
        <ele>1603.5</ele>
        <time>2020-02-23T09:25:48Z</time>
      </trkpt>
      <trkpt lat="42.93052" lon="0.7574">
        <ele>1603.5</ele>
        <time>2020-02-23T09:25:49Z</time>
      </trkpt>
      <trkpt lat="42.93052" lon="0.7574">
        <ele>1603.6</ele>
        <time>2020-02-23T09:25:50Z</time>
      </trkpt>
      <trkpt lat="42.93052" lon="0.75739">
        <ele>1603.7</ele>
        <time>2020-02-23T09:25:51Z</time>
      </trkpt>
      <trkpt lat="42.93053" lon="0.75738">
        <ele>1603.7</ele>
        <time>2020-02-23T09:25:52Z</time>
      </trkpt>
      <trkpt lat="42.93053" lon="0.75738">
        <ele>1603.8</ele>
        <time>2020-02-23T09:25:53Z</time>
      </trkpt>
      <trkpt lat="42.93053" lon="0.75737">
        <ele>1603.9</ele>
        <time>2020-02-23T09:25:54Z</time>
      </trkpt>
      <trkpt lat="42.93053" lon="0.75736">
        <ele>1603.9</ele>
        <time>2020-02-23T09:25:55Z</time>
      </trkpt>
      <trkpt lat="42.93053" lon="0.75736">
        <ele>1604</ele>
        <time>2020-02-23T09:25:56Z</time>
      </trkpt>
      <trkpt lat="42.93053" lon="0.75735">
        <ele>1604</ele>
        <time>2020-02-23T09:25:57Z</time>
      </trkpt>
      <trkpt lat="42.93053" lon="0.75735">
        <ele>1604.1</ele>
        <time>2020-02-23T09:25:58Z</time>
      </trkpt>
      <trkpt lat="42.93053" lon="0.75734">
        <ele>1604.1</ele>
        <time>2020-02-23T09:25:59Z</time>
      </trkpt>
      <trkpt lat="42.93053" lon="0.75734">
        <ele>1604.2</ele>
        <time>2020-02-23T09:26:00Z</time>
      </trkpt>
      <trkpt lat="42.93053" lon="0.75733">
        <ele>1604.2</ele>
        <time>2020-02-23T09:26:01Z</time>
      </trkpt>
      <trkpt lat="42.93053" lon="0.75733">
        <ele>1604.3</ele>
        <time>2020-02-23T09:26:02Z</time>
      </trkpt>
      <trkpt lat="42.93053" lon="0.75732">
        <ele>1604.3</ele>
        <time>2020-02-23T09:26:03Z</time>
      </trkpt>
      <trkpt lat="42.93053" lon="0.75732">
        <ele>1604.4</ele>
        <time>2020-02-23T09:26:04Z</time>
      </trkpt>
      <trkpt lat="42.93053" lon="0.75731">
        <ele>1604.4</ele>
        <time>2020-02-23T09:26:05Z</time>
      </trkpt>
      <trkpt lat="42.93053" lon="0.75731">
        <ele>1604.4</ele>
        <time>2020-02-23T09:26:06Z</time>
      </trkpt>
      <trkpt lat="42.93053" lon="0.7573">
        <ele>1604.5</ele>
        <time>2020-02-23T09:26:07Z</time>
      </trkpt>
      <trkpt lat="42.93053" lon="0.7573">
        <ele>1604.5</ele>
        <time>2020-02-23T09:26:08Z</time>
      </trkpt>
      <trkpt lat="42.93053" lon="0.75729">
        <ele>1604.6</ele>
        <time>2020-02-23T09:26:09Z</time>
      </trkpt>
      <trkpt lat="42.93053" lon="0.75729">
        <ele>1604.6</ele>
        <time>2020-02-23T09:26:10Z</time>
      </trkpt>
      <trkpt lat="42.93053" lon="0.75728">
        <ele>1604.7</ele>
        <time>2020-02-23T09:26:11Z</time>
      </trkpt>
      <trkpt lat="42.93053" lon="0.75728">
        <ele>1604.7</ele>
        <time>2020-02-23T09:26:12Z</time>
      </trkpt>
      <trkpt lat="42.93053" lon="0.75727">
        <ele>1604.8</ele>
        <time>2020-02-23T09:26:13Z</time>
      </trkpt>
      <trkpt lat="42.93053" lon="0.75727">
        <ele>1604.8</ele>
        <time>2020-02-23T09:26:14Z</time>
      </trkpt>
      <trkpt lat="42.93053" lon="0.75726">
        <ele>1604.9</ele>
        <time>2020-02-23T09:26:15Z</time>
      </trkpt>
      <trkpt lat="42.93053" lon="0.75726">
        <ele>1604.9</ele>
        <time>2020-02-23T09:26:16Z</time>
      </trkpt>
      <trkpt lat="42.93053" lon="0.75725">
        <ele>1605</ele>
        <time>2020-02-23T09:26:17Z</time>
      </trkpt>
      <trkpt lat="42.93053" lon="0.75725">
        <ele>1605.1</ele>
        <time>2020-02-23T09:26:18Z</time>
      </trkpt>
      <trkpt lat="42.93053" lon="0.75724">
        <ele>1605.2</ele>
        <time>2020-02-23T09:26:19Z</time>
      </trkpt>
      <trkpt lat="42.93053" lon="0.75724">
        <ele>1605.2</ele>
        <time>2020-02-23T09:26:20Z</time>
      </trkpt>
      <trkpt lat="42.93053" lon="0.75723">
        <ele>1605.3</ele>
        <time>2020-02-23T09:26:21Z</time>
      </trkpt>
      <trkpt lat="42.93052" lon="0.75723">
        <ele>1605.4</ele>
        <time>2020-02-23T09:26:22Z</time>
      </trkpt>
      <trkpt lat="42.93052" lon="0.75722">
        <ele>1605.5</ele>
        <time>2020-02-23T09:26:23Z</time>
      </trkpt>
      <trkpt lat="42.93053" lon="0.75722">
        <ele>1605.6</ele>
        <time>2020-02-23T09:26:24Z</time>
      </trkpt>
      <trkpt lat="42.93053" lon="0.75722">
        <ele>1605.7</ele>
        <time>2020-02-23T09:26:25Z</time>
      </trkpt>
      <trkpt lat="42.93053" lon="0.75721">
        <ele>1605.7</ele>
        <time>2020-02-23T09:26:26Z</time>
      </trkpt>
      <trkpt lat="42.93053" lon="0.75721">
        <ele>1605.8</ele>
        <time>2020-02-23T09:26:27Z</time>
      </trkpt>
      <trkpt lat="42.93053" lon="0.75721">
        <ele>1605.8</ele>
        <time>2020-02-23T09:26:28Z</time>
      </trkpt>
      <trkpt lat="42.93053" lon="0.75721">
        <ele>1605.9</ele>
        <time>2020-02-23T09:26:29Z</time>
      </trkpt>
      <trkpt lat="42.93054" lon="0.7572">
        <ele>1606</ele>
        <time>2020-02-23T09:26:30Z</time>
      </trkpt>
      <trkpt lat="42.93054" lon="0.7572">
        <ele>1606</ele>
        <time>2020-02-23T09:26:31Z</time>
      </trkpt>
      <trkpt lat="42.93054" lon="0.7572">
        <ele>1606.1</ele>
        <time>2020-02-23T09:26:32Z</time>
      </trkpt>
      <trkpt lat="42.93054" lon="0.75719">
        <ele>1606.2</ele>
        <time>2020-02-23T09:26:33Z</time>
      </trkpt>
      <trkpt lat="42.93054" lon="0.75719">
        <ele>1606.2</ele>
        <time>2020-02-23T09:26:34Z</time>
      </trkpt>
      <trkpt lat="42.93054" lon="0.75719">
        <ele>1606.3</ele>
        <time>2020-02-23T09:26:35Z</time>
      </trkpt>
      <trkpt lat="42.93054" lon="0.75719">
        <ele>1606.4</ele>
        <time>2020-02-23T09:26:36Z</time>
      </trkpt>
      <trkpt lat="42.93055" lon="0.75718">
        <ele>1606.4</ele>
        <time>2020-02-23T09:26:37Z</time>
      </trkpt>
      <trkpt lat="42.93055" lon="0.75718">
        <ele>1606.5</ele>
        <time>2020-02-23T09:26:38Z</time>
      </trkpt>
      <trkpt lat="42.93055" lon="0.75718">
        <ele>1606.6</ele>
        <time>2020-02-23T09:26:39Z</time>
      </trkpt>
      <trkpt lat="42.93055" lon="0.75717">
        <ele>1606.6</ele>
        <time>2020-02-23T09:26:40Z</time>
      </trkpt>
      <trkpt lat="42.93055" lon="0.75717">
        <ele>1606.7</ele>
        <time>2020-02-23T09:26:41Z</time>
      </trkpt>
      <trkpt lat="42.93055" lon="0.75717">
        <ele>1606.8</ele>
        <time>2020-02-23T09:26:42Z</time>
      </trkpt>
      <trkpt lat="42.93055" lon="0.75717">
        <ele>1606.8</ele>
        <time>2020-02-23T09:26:43Z</time>
      </trkpt>
      <trkpt lat="42.93056" lon="0.75716">
        <ele>1606.9</ele>
        <time>2020-02-23T09:26:44Z</time>
      </trkpt>
      <trkpt lat="42.93056" lon="0.75716">
        <ele>1607</ele>
        <time>2020-02-23T09:26:45Z</time>
      </trkpt>
      <trkpt lat="42.93056" lon="0.75716">
        <ele>1607</ele>
        <time>2020-02-23T09:26:46Z</time>
      </trkpt>
      <trkpt lat="42.93056" lon="0.75715">
        <ele>1607.1</ele>
        <time>2020-02-23T09:26:47Z</time>
      </trkpt>
      <trkpt lat="42.93056" lon="0.75715">
        <ele>1607.2</ele>
        <time>2020-02-23T09:26:48Z</time>
      </trkpt>
      <trkpt lat="42.93056" lon="0.75715">
        <ele>1607.2</ele>
        <time>2020-02-23T09:26:49Z</time>
      </trkpt>
      <trkpt lat="42.93057" lon="0.75715">
        <ele>1607.3</ele>
        <time>2020-02-23T09:26:50Z</time>
      </trkpt>
      <trkpt lat="42.93057" lon="0.75714">
        <ele>1607.3</ele>
        <time>2020-02-23T09:26:51Z</time>
      </trkpt>
      <trkpt lat="42.93057" lon="0.75714">
        <ele>1607.4</ele>
        <time>2020-02-23T09:26:52Z</time>
      </trkpt>
      <trkpt lat="42.93057" lon="0.75714">
        <ele>1607.5</ele>
        <time>2020-02-23T09:26:53Z</time>
      </trkpt>
      <trkpt lat="42.93057" lon="0.75713">
        <ele>1607.5</ele>
        <time>2020-02-23T09:26:54Z</time>
      </trkpt>
      <trkpt lat="42.93057" lon="0.75713">
        <ele>1607.6</ele>
        <time>2020-02-23T09:26:55Z</time>
      </trkpt>
      <trkpt lat="42.93057" lon="0.75713">
        <ele>1607.7</ele>
        <time>2020-02-23T09:26:56Z</time>
      </trkpt>
      <trkpt lat="42.93058" lon="0.75713">
        <ele>1607.7</ele>
        <time>2020-02-23T09:26:57Z</time>
      </trkpt>
      <trkpt lat="42.93058" lon="0.75712">
        <ele>1607.8</ele>
        <time>2020-02-23T09:26:58Z</time>
      </trkpt>
      <trkpt lat="42.93058" lon="0.75712">
        <ele>1607.9</ele>
        <time>2020-02-23T09:26:59Z</time>
      </trkpt>
      <trkpt lat="42.93059" lon="0.75711">
        <ele>1608.1</ele>
        <time>2020-02-23T09:27:00Z</time>
      </trkpt>
      <trkpt lat="42.9306" lon="0.75711">
        <ele>1608.4</ele>
        <time>2020-02-23T09:27:01Z</time>
      </trkpt>
      <trkpt lat="42.9306" lon="0.7571">
        <ele>1608.6</ele>
        <time>2020-02-23T09:27:02Z</time>
      </trkpt>
      <trkpt lat="42.93061" lon="0.75709">
        <ele>1608.9</ele>
        <time>2020-02-23T09:27:03Z</time>
      </trkpt>
      <trkpt lat="42.93062" lon="0.75708">
        <ele>1609.1</ele>
        <time>2020-02-23T09:27:04Z</time>
      </trkpt>
      <trkpt lat="42.93063" lon="0.75708">
        <ele>1609.3</ele>
        <time>2020-02-23T09:27:05Z</time>
      </trkpt>
      <trkpt lat="42.93064" lon="0.75707">
        <ele>1609.5</ele>
        <time>2020-02-23T09:27:06Z</time>
      </trkpt>
      <trkpt lat="42.93065" lon="0.75706">
        <ele>1609.7</ele>
        <time>2020-02-23T09:27:07Z</time>
      </trkpt>
      <trkpt lat="42.93066" lon="0.75706">
        <ele>1609.8</ele>
        <time>2020-02-23T09:27:08Z</time>
      </trkpt>
      <trkpt lat="42.93066" lon="0.75706">
        <ele>1609.9</ele>
        <time>2020-02-23T09:27:09Z</time>
      </trkpt>
      <trkpt lat="42.93067" lon="0.75705">
        <ele>1610</ele>
        <time>2020-02-23T09:27:10Z</time>
      </trkpt>
      <trkpt lat="42.93068" lon="0.75705">
        <ele>1610.1</ele>
        <time>2020-02-23T09:27:11Z</time>
      </trkpt>
      <trkpt lat="42.93068" lon="0.75705">
        <ele>1610.2</ele>
        <time>2020-02-23T09:27:12Z</time>
      </trkpt>
      <trkpt lat="42.93069" lon="0.75705">
        <ele>1610.3</ele>
        <time>2020-02-23T09:27:13Z</time>
      </trkpt>
      <trkpt lat="42.93069" lon="0.75705">
        <ele>1610.4</ele>
        <time>2020-02-23T09:27:14Z</time>
      </trkpt>
      <trkpt lat="42.9307" lon="0.75705">
        <ele>1610.5</ele>
        <time>2020-02-23T09:27:15Z</time>
      </trkpt>
      <trkpt lat="42.93071" lon="0.75705">
        <ele>1610.6</ele>
        <time>2020-02-23T09:27:16Z</time>
      </trkpt>
      <trkpt lat="42.93071" lon="0.75704">
        <ele>1610.7</ele>
        <time>2020-02-23T09:27:17Z</time>
      </trkpt>
      <trkpt lat="42.93072" lon="0.75704">
        <ele>1610.8</ele>
        <time>2020-02-23T09:27:18Z</time>
      </trkpt>
      <trkpt lat="42.93072" lon="0.75704">
        <ele>1610.9</ele>
        <time>2020-02-23T09:27:19Z</time>
      </trkpt>
      <trkpt lat="42.93073" lon="0.75704">
        <ele>1611</ele>
        <time>2020-02-23T09:27:20Z</time>
      </trkpt>
      <trkpt lat="42.93074" lon="0.75704">
        <ele>1611.1</ele>
        <time>2020-02-23T09:27:21Z</time>
      </trkpt>
      <trkpt lat="42.93074" lon="0.75704">
        <ele>1611.2</ele>
        <time>2020-02-23T09:27:22Z</time>
      </trkpt>
      <trkpt lat="42.93075" lon="0.75704">
        <ele>1611.3</ele>
        <time>2020-02-23T09:27:23Z</time>
      </trkpt>
      <trkpt lat="42.93076" lon="0.75703">
        <ele>1611.4</ele>
        <time>2020-02-23T09:27:24Z</time>
      </trkpt>
      <trkpt lat="42.93076" lon="0.75703">
        <ele>1611.5</ele>
        <time>2020-02-23T09:27:25Z</time>
      </trkpt>
      <trkpt lat="42.93076" lon="0.75703">
        <ele>1611.5</ele>
        <time>2020-02-23T09:27:26Z</time>
      </trkpt>
      <trkpt lat="42.93077" lon="0.75703">
        <ele>1611.5</ele>
        <time>2020-02-23T09:27:27Z</time>
      </trkpt>
      <trkpt lat="42.93077" lon="0.75703">
        <ele>1611.6</ele>
        <time>2020-02-23T09:27:28Z</time>
      </trkpt>
      <trkpt lat="42.93077" lon="0.75703">
        <ele>1611.6</ele>
        <time>2020-02-23T09:27:29Z</time>
      </trkpt>
      <trkpt lat="42.93077" lon="0.75703">
        <ele>1611.6</ele>
        <time>2020-02-23T09:27:30Z</time>
      </trkpt>
      <trkpt lat="42.93077" lon="0.75703">
        <ele>1611.6</ele>
        <time>2020-02-23T09:27:31Z</time>
      </trkpt>
      <trkpt lat="42.93077" lon="0.75703">
        <ele>1611.7</ele>
        <time>2020-02-23T09:27:32Z</time>
      </trkpt>
      <trkpt lat="42.93078" lon="0.75703">
        <ele>1611.7</ele>
        <time>2020-02-23T09:27:33Z</time>
      </trkpt>
      <trkpt lat="42.93078" lon="0.75703">
        <ele>1611.7</ele>
        <time>2020-02-23T09:27:34Z</time>
      </trkpt>
      <trkpt lat="42.93078" lon="0.75703">
        <ele>1611.8</ele>
        <time>2020-02-23T09:27:35Z</time>
      </trkpt>
      <trkpt lat="42.93078" lon="0.75703">
        <ele>1611.8</ele>
        <time>2020-02-23T09:27:36Z</time>
      </trkpt>
      <trkpt lat="42.93078" lon="0.75703">
        <ele>1611.8</ele>
        <time>2020-02-23T09:27:37Z</time>
      </trkpt>
      <trkpt lat="42.93078" lon="0.75703">
        <ele>1611.8</ele>
        <time>2020-02-23T09:27:38Z</time>
      </trkpt>
      <trkpt lat="42.93079" lon="0.75703">
        <ele>1611.9</ele>
        <time>2020-02-23T09:27:39Z</time>
      </trkpt>
      <trkpt lat="42.93079" lon="0.75703">
        <ele>1611.9</ele>
        <time>2020-02-23T09:27:40Z</time>
      </trkpt>
      <trkpt lat="42.93079" lon="0.75703">
        <ele>1611.9</ele>
        <time>2020-02-23T09:27:41Z</time>
      </trkpt>
      <trkpt lat="42.93079" lon="0.75703">
        <ele>1612</ele>
        <time>2020-02-23T09:27:42Z</time>
      </trkpt>
      <trkpt lat="42.93079" lon="0.75703">
        <ele>1612</ele>
        <time>2020-02-23T09:27:43Z</time>
      </trkpt>
      <trkpt lat="42.93079" lon="0.75703">
        <ele>1612</ele>
        <time>2020-02-23T09:27:44Z</time>
      </trkpt>
      <trkpt lat="42.9308" lon="0.75703">
        <ele>1612.1</ele>
        <time>2020-02-23T09:27:45Z</time>
      </trkpt>
      <trkpt lat="42.9308" lon="0.75702">
        <ele>1612.1</ele>
        <time>2020-02-23T09:27:46Z</time>
      </trkpt>
      <trkpt lat="42.9308" lon="0.75702">
        <ele>1612.1</ele>
        <time>2020-02-23T09:27:47Z</time>
      </trkpt>
      <trkpt lat="42.9308" lon="0.75702">
        <ele>1612.2</ele>
        <time>2020-02-23T09:27:48Z</time>
      </trkpt>
      <trkpt lat="42.9308" lon="0.75702">
        <ele>1612.2</ele>
        <time>2020-02-23T09:27:49Z</time>
      </trkpt>
      <trkpt lat="42.93081" lon="0.75702">
        <ele>1612.3</ele>
        <time>2020-02-23T09:27:50Z</time>
      </trkpt>
      <trkpt lat="42.93081" lon="0.75702">
        <ele>1612.3</ele>
        <time>2020-02-23T09:27:51Z</time>
      </trkpt>
      <trkpt lat="42.93081" lon="0.75702">
        <ele>1612.3</ele>
        <time>2020-02-23T09:27:52Z</time>
      </trkpt>
      <trkpt lat="42.93081" lon="0.75702">
        <ele>1612.4</ele>
        <time>2020-02-23T09:27:53Z</time>
      </trkpt>
      <trkpt lat="42.93081" lon="0.75702">
        <ele>1612.4</ele>
        <time>2020-02-23T09:27:54Z</time>
      </trkpt>
      <trkpt lat="42.93081" lon="0.75702">
        <ele>1612.5</ele>
        <time>2020-02-23T09:27:55Z</time>
      </trkpt>
      <trkpt lat="42.93082" lon="0.75702">
        <ele>1612.5</ele>
        <time>2020-02-23T09:27:56Z</time>
      </trkpt>
      <trkpt lat="42.93082" lon="0.75702">
        <ele>1612.5</ele>
        <time>2020-02-23T09:27:57Z</time>
      </trkpt>
      <trkpt lat="42.93082" lon="0.75702">
        <ele>1612.6</ele>
        <time>2020-02-23T09:27:58Z</time>
      </trkpt>
      <trkpt lat="42.93082" lon="0.75702">
        <ele>1612.6</ele>
        <time>2020-02-23T09:27:59Z</time>
      </trkpt>
      <trkpt lat="42.93082" lon="0.75702">
        <ele>1612.7</ele>
        <time>2020-02-23T09:28:00Z</time>
      </trkpt>
      <trkpt lat="42.93082" lon="0.75702">
        <ele>1612.7</ele>
        <time>2020-02-23T09:28:01Z</time>
      </trkpt>
      <trkpt lat="42.93083" lon="0.75702">
        <ele>1612.7</ele>
        <time>2020-02-23T09:28:02Z</time>
      </trkpt>
      <trkpt lat="42.93083" lon="0.75702">
        <ele>1612.8</ele>
        <time>2020-02-23T09:28:03Z</time>
      </trkpt>
      <trkpt lat="42.93083" lon="0.75702">
        <ele>1612.8</ele>
        <time>2020-02-23T09:28:04Z</time>
      </trkpt>
      <trkpt lat="42.93083" lon="0.75702">
        <ele>1612.8</ele>
        <time>2020-02-23T09:28:05Z</time>
      </trkpt>
      <trkpt lat="42.93083" lon="0.75702">
        <ele>1612.9</ele>
        <time>2020-02-23T09:28:06Z</time>
      </trkpt>
      <trkpt lat="42.93084" lon="0.75702">
        <ele>1612.9</ele>
        <time>2020-02-23T09:28:07Z</time>
      </trkpt>
      <trkpt lat="42.93084" lon="0.75702">
        <ele>1613</ele>
        <time>2020-02-23T09:28:08Z</time>
      </trkpt>
      <trkpt lat="42.93084" lon="0.75702">
        <ele>1613</ele>
        <time>2020-02-23T09:28:09Z</time>
      </trkpt>
      <trkpt lat="42.93084" lon="0.75702">
        <ele>1613</ele>
        <time>2020-02-23T09:28:10Z</time>
      </trkpt>
      <trkpt lat="42.93084" lon="0.75701">
        <ele>1613.1</ele>
        <time>2020-02-23T09:28:11Z</time>
      </trkpt>
      <trkpt lat="42.93084" lon="0.75701">
        <ele>1613.1</ele>
        <time>2020-02-23T09:28:12Z</time>
      </trkpt>
      <trkpt lat="42.93085" lon="0.75701">
        <ele>1613.2</ele>
        <time>2020-02-23T09:28:13Z</time>
      </trkpt>
      <trkpt lat="42.93085" lon="0.75701">
        <ele>1613.2</ele>
        <time>2020-02-23T09:28:14Z</time>
      </trkpt>
      <trkpt lat="42.93085" lon="0.75701">
        <ele>1613.2</ele>
        <time>2020-02-23T09:28:15Z</time>
      </trkpt>
      <trkpt lat="42.93085" lon="0.75701">
        <ele>1613.3</ele>
        <time>2020-02-23T09:28:16Z</time>
      </trkpt>
      <trkpt lat="42.93085" lon="0.75701">
        <ele>1613.3</ele>
        <time>2020-02-23T09:28:17Z</time>
      </trkpt>
      <trkpt lat="42.93085" lon="0.75701">
        <ele>1613.4</ele>
        <time>2020-02-23T09:28:18Z</time>
      </trkpt>
      <trkpt lat="42.93086" lon="0.75701">
        <ele>1613.4</ele>
        <time>2020-02-23T09:28:19Z</time>
      </trkpt>
      <trkpt lat="42.93085" lon="0.75701">
        <ele>1613.5</ele>
        <time>2020-02-23T09:28:20Z</time>
      </trkpt>
      <trkpt lat="42.93085" lon="0.75701">
        <ele>1613.5</ele>
        <time>2020-02-23T09:28:21Z</time>
      </trkpt>
      <trkpt lat="42.93085" lon="0.75701">
        <ele>1613.6</ele>
        <time>2020-02-23T09:28:22Z</time>
      </trkpt>
      <trkpt lat="42.93085" lon="0.75701">
        <ele>1613.6</ele>
        <time>2020-02-23T09:28:23Z</time>
      </trkpt>
      <trkpt lat="42.93084" lon="0.75701">
        <ele>1613.7</ele>
        <time>2020-02-23T09:28:24Z</time>
      </trkpt>
      <trkpt lat="42.93084" lon="0.75701">
        <ele>1613.8</ele>
        <time>2020-02-23T09:28:25Z</time>
      </trkpt>
      <trkpt lat="42.93084" lon="0.75701">
        <ele>1613.8</ele>
        <time>2020-02-23T09:28:26Z</time>
      </trkpt>
      <trkpt lat="42.93083" lon="0.75701">
        <ele>1613.9</ele>
        <time>2020-02-23T09:28:27Z</time>
      </trkpt>
      <trkpt lat="42.93083" lon="0.75701">
        <ele>1614</ele>
        <time>2020-02-23T09:28:28Z</time>
      </trkpt>
      <trkpt lat="42.93083" lon="0.75701">
        <ele>1614</ele>
        <time>2020-02-23T09:28:29Z</time>
      </trkpt>
      <trkpt lat="42.93083" lon="0.75701">
        <ele>1614.1</ele>
        <time>2020-02-23T09:28:30Z</time>
      </trkpt>
      <trkpt lat="42.93082" lon="0.75701">
        <ele>1614.1</ele>
        <time>2020-02-23T09:28:31Z</time>
      </trkpt>
      <trkpt lat="42.93082" lon="0.75701">
        <ele>1614.2</ele>
        <time>2020-02-23T09:28:32Z</time>
      </trkpt>
      <trkpt lat="42.93082" lon="0.75701">
        <ele>1614.3</ele>
        <time>2020-02-23T09:28:33Z</time>
      </trkpt>
      <trkpt lat="42.93081" lon="0.75701">
        <ele>1614.3</ele>
        <time>2020-02-23T09:28:34Z</time>
      </trkpt>
      <trkpt lat="42.93081" lon="0.75702">
        <ele>1614.4</ele>
        <time>2020-02-23T09:28:35Z</time>
      </trkpt>
      <trkpt lat="42.93081" lon="0.75702">
        <ele>1614.5</ele>
        <time>2020-02-23T09:28:36Z</time>
      </trkpt>
      <trkpt lat="42.93081" lon="0.75702">
        <ele>1614.5</ele>
        <time>2020-02-23T09:28:37Z</time>
      </trkpt>
      <trkpt lat="42.9308" lon="0.75702">
        <ele>1614.6</ele>
        <time>2020-02-23T09:28:38Z</time>
      </trkpt>
      <trkpt lat="42.9308" lon="0.75702">
        <ele>1614.6</ele>
        <time>2020-02-23T09:28:39Z</time>
      </trkpt>
      <trkpt lat="42.9308" lon="0.75702">
        <ele>1614.7</ele>
        <time>2020-02-23T09:28:40Z</time>
      </trkpt>
      <trkpt lat="42.93079" lon="0.75702">
        <ele>1614.8</ele>
        <time>2020-02-23T09:28:41Z</time>
      </trkpt>
      <trkpt lat="42.93079" lon="0.75702">
        <ele>1614.8</ele>
        <time>2020-02-23T09:28:42Z</time>
      </trkpt>
      <trkpt lat="42.93079" lon="0.75702">
        <ele>1614.9</ele>
        <time>2020-02-23T09:28:43Z</time>
      </trkpt>
      <trkpt lat="42.93079" lon="0.75702">
        <ele>1614.9</ele>
        <time>2020-02-23T09:28:44Z</time>
      </trkpt>
      <trkpt lat="42.93078" lon="0.75702">
        <ele>1615</ele>
        <time>2020-02-23T09:28:45Z</time>
      </trkpt>
      <trkpt lat="42.93078" lon="0.75702">
        <ele>1615.1</ele>
        <time>2020-02-23T09:28:46Z</time>
      </trkpt>
      <trkpt lat="42.93078" lon="0.75702">
        <ele>1615.1</ele>
        <time>2020-02-23T09:28:47Z</time>
      </trkpt>
      <trkpt lat="42.93078" lon="0.75702">
        <ele>1615.2</ele>
        <time>2020-02-23T09:28:48Z</time>
      </trkpt>
      <trkpt lat="42.93077" lon="0.75702">
        <ele>1615.2</ele>
        <time>2020-02-23T09:28:49Z</time>
      </trkpt>
      <trkpt lat="42.93077" lon="0.75702">
        <ele>1615.3</ele>
        <time>2020-02-23T09:28:50Z</time>
      </trkpt>
      <trkpt lat="42.93077" lon="0.75702">
        <ele>1615.4</ele>
        <time>2020-02-23T09:28:51Z</time>
      </trkpt>
      <trkpt lat="42.93076" lon="0.75702">
        <ele>1615.4</ele>
        <time>2020-02-23T09:28:52Z</time>
      </trkpt>
      <trkpt lat="42.93076" lon="0.75702">
        <ele>1615.5</ele>
        <time>2020-02-23T09:28:53Z</time>
      </trkpt>
      <trkpt lat="42.93076" lon="0.75702">
        <ele>1615.5</ele>
        <time>2020-02-23T09:28:54Z</time>
      </trkpt>
      <trkpt lat="42.93076" lon="0.75701">
        <ele>1615.6</ele>
        <time>2020-02-23T09:28:55Z</time>
      </trkpt>
      <trkpt lat="42.93076" lon="0.75701">
        <ele>1615.7</ele>
        <time>2020-02-23T09:28:56Z</time>
      </trkpt>
      <trkpt lat="42.93076" lon="0.75701">
        <ele>1615.8</ele>
        <time>2020-02-23T09:28:57Z</time>
      </trkpt>
      <trkpt lat="42.93076" lon="0.757">
        <ele>1615.8</ele>
        <time>2020-02-23T09:28:58Z</time>
      </trkpt>
      <trkpt lat="42.93075" lon="0.757">
        <ele>1615.9</ele>
        <time>2020-02-23T09:28:59Z</time>
      </trkpt>
      <trkpt lat="42.93075" lon="0.75699">
        <ele>1615.9</ele>
        <time>2020-02-23T09:29:00Z</time>
      </trkpt>
      <trkpt lat="42.93075" lon="0.75699">
        <ele>1616</ele>
        <time>2020-02-23T09:29:01Z</time>
      </trkpt>
      <trkpt lat="42.93075" lon="0.75698">
        <ele>1616.1</ele>
        <time>2020-02-23T09:29:02Z</time>
      </trkpt>
      <trkpt lat="42.93075" lon="0.75698">
        <ele>1616.1</ele>
        <time>2020-02-23T09:29:03Z</time>
      </trkpt>
      <trkpt lat="42.93075" lon="0.75697">
        <ele>1616.2</ele>
        <time>2020-02-23T09:29:04Z</time>
      </trkpt>
      <trkpt lat="42.93075" lon="0.75697">
        <ele>1616.2</ele>
        <time>2020-02-23T09:29:05Z</time>
      </trkpt>
      <trkpt lat="42.93075" lon="0.75696">
        <ele>1616.3</ele>
        <time>2020-02-23T09:29:06Z</time>
      </trkpt>
      <trkpt lat="42.93075" lon="0.75696">
        <ele>1616.3</ele>
        <time>2020-02-23T09:29:07Z</time>
      </trkpt>
      <trkpt lat="42.93075" lon="0.75695">
        <ele>1616.4</ele>
        <time>2020-02-23T09:29:08Z</time>
      </trkpt>
      <trkpt lat="42.93075" lon="0.75695">
        <ele>1616.4</ele>
        <time>2020-02-23T09:29:09Z</time>
      </trkpt>
      <trkpt lat="42.93075" lon="0.75695">
        <ele>1616.5</ele>
        <time>2020-02-23T09:29:10Z</time>
      </trkpt>
      <trkpt lat="42.93075" lon="0.75694">
        <ele>1616.6</ele>
        <time>2020-02-23T09:29:11Z</time>
      </trkpt>
      <trkpt lat="42.93075" lon="0.75694">
        <ele>1616.6</ele>
        <time>2020-02-23T09:29:12Z</time>
      </trkpt>
      <trkpt lat="42.93074" lon="0.75693">
        <ele>1616.7</ele>
        <time>2020-02-23T09:29:13Z</time>
      </trkpt>
      <trkpt lat="42.93074" lon="0.75693">
        <ele>1616.7</ele>
        <time>2020-02-23T09:29:14Z</time>
      </trkpt>
      <trkpt lat="42.93074" lon="0.75692">
        <ele>1616.8</ele>
        <time>2020-02-23T09:29:15Z</time>
      </trkpt>
      <trkpt lat="42.93074" lon="0.75692">
        <ele>1616.8</ele>
        <time>2020-02-23T09:29:16Z</time>
      </trkpt>
      <trkpt lat="42.93074" lon="0.75691">
        <ele>1616.9</ele>
        <time>2020-02-23T09:29:17Z</time>
      </trkpt>
      <trkpt lat="42.93074" lon="0.75691">
        <ele>1616.9</ele>
        <time>2020-02-23T09:29:18Z</time>
      </trkpt>
      <trkpt lat="42.93074" lon="0.7569">
        <ele>1617</ele>
        <time>2020-02-23T09:29:19Z</time>
      </trkpt>
      <trkpt lat="42.93074" lon="0.7569">
        <ele>1617.1</ele>
        <time>2020-02-23T09:29:20Z</time>
      </trkpt>
      <trkpt lat="42.93074" lon="0.75689">
        <ele>1617.1</ele>
        <time>2020-02-23T09:29:21Z</time>
      </trkpt>
      <trkpt lat="42.93074" lon="0.75689">
        <ele>1617.2</ele>
        <time>2020-02-23T09:29:22Z</time>
      </trkpt>
      <trkpt lat="42.93075" lon="0.75689">
        <ele>1617.4</ele>
        <time>2020-02-23T09:29:23Z</time>
      </trkpt>
      <trkpt lat="42.93076" lon="0.75689">
        <ele>1617.5</ele>
        <time>2020-02-23T09:29:24Z</time>
      </trkpt>
      <trkpt lat="42.93077" lon="0.75688">
        <ele>1617.7</ele>
        <time>2020-02-23T09:29:25Z</time>
      </trkpt>
      <trkpt lat="42.93079" lon="0.75688">
        <ele>1617.9</ele>
        <time>2020-02-23T09:29:26Z</time>
      </trkpt>
      <trkpt lat="42.9308" lon="0.75688">
        <ele>1618.1</ele>
        <time>2020-02-23T09:29:27Z</time>
      </trkpt>
      <trkpt lat="42.93081" lon="0.75688">
        <ele>1618.3</ele>
        <time>2020-02-23T09:29:28Z</time>
      </trkpt>
      <trkpt lat="42.93082" lon="0.75687">
        <ele>1618.5</ele>
        <time>2020-02-23T09:29:29Z</time>
      </trkpt>
      <trkpt lat="42.93084" lon="0.75687">
        <ele>1618.7</ele>
        <time>2020-02-23T09:29:30Z</time>
      </trkpt>
      <trkpt lat="42.93083" lon="0.75687">
        <ele>1618.7</ele>
        <time>2020-02-23T09:29:31Z</time>
      </trkpt>
      <trkpt lat="42.93083" lon="0.75687">
        <ele>1618.7</ele>
        <time>2020-02-23T09:29:32Z</time>
      </trkpt>
      <trkpt lat="42.93083" lon="0.75687">
        <ele>1618.7</ele>
        <time>2020-02-23T09:29:33Z</time>
      </trkpt>
      <trkpt lat="42.93083" lon="0.75687">
        <ele>1618.7</ele>
        <time>2020-02-23T09:29:34Z</time>
      </trkpt>
      <trkpt lat="42.93083" lon="0.75688">
        <ele>1618.7</ele>
        <time>2020-02-23T09:29:35Z</time>
      </trkpt>
      <trkpt lat="42.93083" lon="0.75688">
        <ele>1618.7</ele>
        <time>2020-02-23T09:29:36Z</time>
      </trkpt>
      <trkpt lat="42.93083" lon="0.75688">
        <ele>1618.7</ele>
        <time>2020-02-23T09:29:37Z</time>
      </trkpt>
      <trkpt lat="42.93082" lon="0.75688">
        <ele>1618.7</ele>
        <time>2020-02-23T09:29:38Z</time>
      </trkpt>
      <trkpt lat="42.93082" lon="0.75688">
        <ele>1618.7</ele>
        <time>2020-02-23T09:29:39Z</time>
      </trkpt>
      <trkpt lat="42.93082" lon="0.75688">
        <ele>1618.7</ele>
        <time>2020-02-23T09:29:40Z</time>
      </trkpt>
      <trkpt lat="42.93082" lon="0.75688">
        <ele>1617.9</ele>
        <time>2020-02-23T09:29:41Z</time>
      </trkpt>
      <trkpt lat="42.93082" lon="0.75688">
        <ele>1617.9</ele>
        <time>2020-02-23T09:29:42Z</time>
      </trkpt>
      <trkpt lat="42.93082" lon="0.75688">
        <ele>1617.9</ele>
        <time>2020-02-23T09:29:43Z</time>
      </trkpt>
      <trkpt lat="42.93081" lon="0.75688">
        <ele>1617.9</ele>
        <time>2020-02-23T09:29:44Z</time>
      </trkpt>
      <trkpt lat="42.93081" lon="0.75688">
        <ele>1617.9</ele>
        <time>2020-02-23T09:29:45Z</time>
      </trkpt>
      <trkpt lat="42.93081" lon="0.75688">
        <ele>1617.9</ele>
        <time>2020-02-23T09:29:46Z</time>
      </trkpt>
      <trkpt lat="42.93081" lon="0.75688">
        <ele>1617.9</ele>
        <time>2020-02-23T09:29:47Z</time>
      </trkpt>
      <trkpt lat="42.93081" lon="0.75688">
        <ele>1617.9</ele>
        <time>2020-02-23T09:29:48Z</time>
      </trkpt>
      <trkpt lat="42.93081" lon="0.75688">
        <ele>1617.9</ele>
        <time>2020-02-23T09:29:49Z</time>
      </trkpt>
      <trkpt lat="42.93081" lon="0.75689">
        <ele>1617.9</ele>
        <time>2020-02-23T09:29:50Z</time>
      </trkpt>
      <trkpt lat="42.9308" lon="0.75689">
        <ele>1617.9</ele>
        <time>2020-02-23T09:29:51Z</time>
      </trkpt>
      <trkpt lat="42.9308" lon="0.75689">
        <ele>1617.9</ele>
        <time>2020-02-23T09:29:52Z</time>
      </trkpt>
      <trkpt lat="42.9308" lon="0.75689">
        <ele>1617.9</ele>
        <time>2020-02-23T09:29:53Z</time>
      </trkpt>
      <trkpt lat="42.9308" lon="0.75689">
        <ele>1617.9</ele>
        <time>2020-02-23T09:29:54Z</time>
      </trkpt>
      <trkpt lat="42.9308" lon="0.75689">
        <ele>1617.9</ele>
        <time>2020-02-23T09:29:55Z</time>
      </trkpt>
      <trkpt lat="42.9308" lon="0.75689">
        <ele>1617.9</ele>
        <time>2020-02-23T09:29:56Z</time>
      </trkpt>
      <trkpt lat="42.9308" lon="0.75689">
        <ele>1617.9</ele>
        <time>2020-02-23T09:29:57Z</time>
      </trkpt>
      <trkpt lat="42.93079" lon="0.75689">
        <ele>1617.9</ele>
        <time>2020-02-23T09:29:58Z</time>
      </trkpt>
      <trkpt lat="42.93079" lon="0.75689">
        <ele>1617.9</ele>
        <time>2020-02-23T09:29:59Z</time>
      </trkpt>
      <trkpt lat="42.93079" lon="0.75689">
        <ele>1617.9</ele>
        <time>2020-02-23T09:30:00Z</time>
      </trkpt>
      <trkpt lat="42.93079" lon="0.75689">
        <ele>1617.9</ele>
        <time>2020-02-23T09:30:01Z</time>
      </trkpt>
      <trkpt lat="42.93079" lon="0.75689">
        <ele>1617.1</ele>
        <time>2020-02-23T09:30:02Z</time>
      </trkpt>
      <trkpt lat="42.93079" lon="0.75689">
        <ele>1617.1</ele>
        <time>2020-02-23T09:30:03Z</time>
      </trkpt>
      <trkpt lat="42.93078" lon="0.7569">
        <ele>1617.1</ele>
        <time>2020-02-23T09:30:04Z</time>
      </trkpt>
      <trkpt lat="42.93078" lon="0.7569">
        <ele>1617.1</ele>
        <time>2020-02-23T09:30:05Z</time>
      </trkpt>
      <trkpt lat="42.93078" lon="0.7569">
        <ele>1617.1</ele>
        <time>2020-02-23T09:30:06Z</time>
      </trkpt>
      <trkpt lat="42.93078" lon="0.7569">
        <ele>1617.1</ele>
        <time>2020-02-23T09:30:07Z</time>
      </trkpt>
      <trkpt lat="42.93078" lon="0.7569">
        <ele>1615.8</ele>
        <time>2020-02-23T09:30:08Z</time>
      </trkpt>
      <trkpt lat="42.93078" lon="0.7569">
        <ele>1615.8</ele>
        <time>2020-02-23T09:30:09Z</time>
      </trkpt>
      <trkpt lat="42.93078" lon="0.7569">
        <ele>1615.8</ele>
        <time>2020-02-23T09:30:10Z</time>
      </trkpt>
      <trkpt lat="42.93077" lon="0.7569">
        <ele>1615.8</ele>
        <time>2020-02-23T09:30:11Z</time>
      </trkpt>
      <trkpt lat="42.93077" lon="0.7569">
        <ele>1615.8</ele>
        <time>2020-02-23T09:30:12Z</time>
      </trkpt>
      <trkpt lat="42.93077" lon="0.7569">
        <ele>1615.8</ele>
        <time>2020-02-23T09:30:13Z</time>
      </trkpt>
      <trkpt lat="42.93077" lon="0.7569">
        <ele>1615.8</ele>
        <time>2020-02-23T09:30:14Z</time>
      </trkpt>
      <trkpt lat="42.93077" lon="0.7569">
        <ele>1615.8</ele>
        <time>2020-02-23T09:30:15Z</time>
      </trkpt>
      <trkpt lat="42.93077" lon="0.7569">
        <ele>1615.8</ele>
        <time>2020-02-23T09:30:16Z</time>
      </trkpt>
      <trkpt lat="42.93077" lon="0.7569">
        <ele>1615.8</ele>
        <time>2020-02-23T09:30:17Z</time>
      </trkpt>
      <trkpt lat="42.93076" lon="0.75691">
        <ele>1615.8</ele>
        <time>2020-02-23T09:30:18Z</time>
      </trkpt>
      <trkpt lat="42.93076" lon="0.75691">
        <ele>1615.8</ele>
        <time>2020-02-23T09:30:19Z</time>
      </trkpt>
      <trkpt lat="42.93076" lon="0.75691">
        <ele>1615.8</ele>
        <time>2020-02-23T09:30:20Z</time>
      </trkpt>
      <trkpt lat="42.93076" lon="0.75691">
        <ele>1615.8</ele>
        <time>2020-02-23T09:30:21Z</time>
      </trkpt>
      <trkpt lat="42.93076" lon="0.75691">
        <ele>1615.8</ele>
        <time>2020-02-23T09:30:22Z</time>
      </trkpt>
      <trkpt lat="42.93076" lon="0.75691">
        <ele>1615</ele>
        <time>2020-02-23T09:30:23Z</time>
      </trkpt>
      <trkpt lat="42.93075" lon="0.75691">
        <ele>1615</ele>
        <time>2020-02-23T09:30:24Z</time>
      </trkpt>
      <trkpt lat="42.93075" lon="0.75691">
        <ele>1615</ele>
        <time>2020-02-23T09:30:25Z</time>
      </trkpt>
      <trkpt lat="42.93075" lon="0.75691">
        <ele>1615</ele>
        <time>2020-02-23T09:30:26Z</time>
      </trkpt>
      <trkpt lat="42.93075" lon="0.75691">
        <ele>1615</ele>
        <time>2020-02-23T09:30:27Z</time>
      </trkpt>
      <trkpt lat="42.93075" lon="0.75691">
        <ele>1615</ele>
        <time>2020-02-23T09:30:28Z</time>
      </trkpt>
      <trkpt lat="42.93075" lon="0.75691">
        <ele>1615</ele>
        <time>2020-02-23T09:30:29Z</time>
      </trkpt>
      <trkpt lat="42.93075" lon="0.75691">
        <ele>1615</ele>
        <time>2020-02-23T09:30:30Z</time>
      </trkpt>
      <trkpt lat="42.93074" lon="0.75691">
        <ele>1615</ele>
        <time>2020-02-23T09:30:31Z</time>
      </trkpt>
      <trkpt lat="42.93074" lon="0.75692">
        <ele>1615</ele>
        <time>2020-02-23T09:30:32Z</time>
      </trkpt>
      <trkpt lat="42.93075" lon="0.7569">
        <ele>1615</ele>
        <time>2020-02-23T09:30:33Z</time>
      </trkpt>
      <trkpt lat="42.93077" lon="0.75689">
        <ele>1617.1</ele>
        <time>2020-02-23T09:30:34Z</time>
      </trkpt>
      <trkpt lat="42.93078" lon="0.75688">
        <ele>1617.1</ele>
        <time>2020-02-23T09:30:35Z</time>
      </trkpt>
      <trkpt lat="42.93079" lon="0.75687">
        <ele>1617.9</ele>
        <time>2020-02-23T09:30:36Z</time>
      </trkpt>
      <trkpt lat="42.9308" lon="0.75686">
        <ele>1619.1</ele>
        <time>2020-02-23T09:30:37Z</time>
      </trkpt>
      <trkpt lat="42.93081" lon="0.75684">
        <ele>1619.1</ele>
        <time>2020-02-23T09:30:38Z</time>
      </trkpt>
      <trkpt lat="42.93083" lon="0.75683">
        <ele>1619.9</ele>
        <time>2020-02-23T09:30:39Z</time>
      </trkpt>
      <trkpt lat="42.93084" lon="0.75682">
        <ele>1619.9</ele>
        <time>2020-02-23T09:30:40Z</time>
      </trkpt>
      <trkpt lat="42.93085" lon="0.75681">
        <ele>1622</ele>
        <time>2020-02-23T09:30:41Z</time>
      </trkpt>
      <trkpt lat="42.93087" lon="0.7568">
        <ele>1622</ele>
        <time>2020-02-23T09:30:42Z</time>
      </trkpt>
      <trkpt lat="42.93089" lon="0.75679">
        <ele>1622.8</ele>
        <time>2020-02-23T09:30:43Z</time>
      </trkpt>
      <trkpt lat="42.9309" lon="0.75678">
        <ele>1622.8</ele>
        <time>2020-02-23T09:30:44Z</time>
      </trkpt>
      <trkpt lat="42.93092" lon="0.75677">
        <ele>1624.9</ele>
        <time>2020-02-23T09:30:45Z</time>
      </trkpt>
      <trkpt lat="42.93093" lon="0.75677">
        <ele>1624.9</ele>
        <time>2020-02-23T09:30:46Z</time>
      </trkpt>
      <trkpt lat="42.93093" lon="0.75676">
        <ele>1624.9</ele>
        <time>2020-02-23T09:30:47Z</time>
      </trkpt>
      <trkpt lat="42.93093" lon="0.75676">
        <ele>1624.9</ele>
        <time>2020-02-23T09:30:48Z</time>
      </trkpt>
      <trkpt lat="42.93094" lon="0.75676">
        <ele>1624.9</ele>
        <time>2020-02-23T09:30:49Z</time>
      </trkpt>
      <trkpt lat="42.93094" lon="0.75675">
        <ele>1624.9</ele>
        <time>2020-02-23T09:30:50Z</time>
      </trkpt>
      <trkpt lat="42.93094" lon="0.75675">
        <ele>1624.9</ele>
        <time>2020-02-23T09:30:51Z</time>
      </trkpt>
      <trkpt lat="42.93095" lon="0.75675">
        <ele>1625.6</ele>
        <time>2020-02-23T09:30:52Z</time>
      </trkpt>
      <trkpt lat="42.93095" lon="0.75675">
        <ele>1625.6</ele>
        <time>2020-02-23T09:30:53Z</time>
      </trkpt>
      <trkpt lat="42.93095" lon="0.75674">
        <ele>1625.6</ele>
        <time>2020-02-23T09:30:54Z</time>
      </trkpt>
      <trkpt lat="42.93096" lon="0.75674">
        <ele>1625.6</ele>
        <time>2020-02-23T09:30:55Z</time>
      </trkpt>
      <trkpt lat="42.93096" lon="0.75674">
        <ele>1625.6</ele>
        <time>2020-02-23T09:30:56Z</time>
      </trkpt>
      <trkpt lat="42.93096" lon="0.75674">
        <ele>1625.6</ele>
        <time>2020-02-23T09:30:57Z</time>
      </trkpt>
      <trkpt lat="42.93097" lon="0.75673">
        <ele>1625.6</ele>
        <time>2020-02-23T09:30:58Z</time>
      </trkpt>
      <trkpt lat="42.93097" lon="0.75673">
        <ele>1625.6</ele>
        <time>2020-02-23T09:30:59Z</time>
      </trkpt>
      <trkpt lat="42.93098" lon="0.75673">
        <ele>1625.6</ele>
        <time>2020-02-23T09:31:00Z</time>
      </trkpt>
      <trkpt lat="42.93098" lon="0.75673">
        <ele>1627.6</ele>
        <time>2020-02-23T09:31:01Z</time>
      </trkpt>
      <trkpt lat="42.93098" lon="0.75672">
        <ele>1627.6</ele>
        <time>2020-02-23T09:31:02Z</time>
      </trkpt>
      <trkpt lat="42.93099" lon="0.75672">
        <ele>1627.6</ele>
        <time>2020-02-23T09:31:03Z</time>
      </trkpt>
      <trkpt lat="42.93099" lon="0.75672">
        <ele>1627.6</ele>
        <time>2020-02-23T09:31:04Z</time>
      </trkpt>
      <trkpt lat="42.93099" lon="0.75671">
        <ele>1627.6</ele>
        <time>2020-02-23T09:31:05Z</time>
      </trkpt>
      <trkpt lat="42.931" lon="0.75671">
        <ele>1627.6</ele>
        <time>2020-02-23T09:31:06Z</time>
      </trkpt>
      <trkpt lat="42.931" lon="0.75671">
        <ele>1627.6</ele>
        <time>2020-02-23T09:31:07Z</time>
      </trkpt>
      <trkpt lat="42.931" lon="0.75671">
        <ele>1627.6</ele>
        <time>2020-02-23T09:31:08Z</time>
      </trkpt>
      <trkpt lat="42.93101" lon="0.7567">
        <ele>1627.6</ele>
        <time>2020-02-23T09:31:09Z</time>
      </trkpt>
      <trkpt lat="42.93101" lon="0.75671">
        <ele>1628.3</ele>
        <time>2020-02-23T09:31:10Z</time>
      </trkpt>
      <trkpt lat="42.93102" lon="0.75671">
        <ele>1628.3</ele>
        <time>2020-02-23T09:31:11Z</time>
      </trkpt>
      <trkpt lat="42.93103" lon="0.75671">
        <ele>1628.3</ele>
        <time>2020-02-23T09:31:12Z</time>
      </trkpt>
      <trkpt lat="42.93103" lon="0.75672">
        <ele>1628.3</ele>
        <time>2020-02-23T09:31:13Z</time>
      </trkpt>
      <trkpt lat="42.93104" lon="0.75672">
        <ele>1629</ele>
        <time>2020-02-23T09:31:14Z</time>
      </trkpt>
      <trkpt lat="42.93105" lon="0.75673">
        <ele>1629</ele>
        <time>2020-02-23T09:31:15Z</time>
      </trkpt>
      <trkpt lat="42.93105" lon="0.75673">
        <ele>1627.8</ele>
        <time>2020-02-23T09:31:16Z</time>
      </trkpt>
      <trkpt lat="42.93106" lon="0.75673">
        <ele>1627.8</ele>
        <time>2020-02-23T09:31:17Z</time>
      </trkpt>
      <trkpt lat="42.93107" lon="0.75674">
        <ele>1627.8</ele>
        <time>2020-02-23T09:31:18Z</time>
      </trkpt>
      <trkpt lat="42.93107" lon="0.75674">
        <ele>1628.4</ele>
        <time>2020-02-23T09:31:19Z</time>
      </trkpt>
      <trkpt lat="42.93108" lon="0.75674">
        <ele>1628.4</ele>
        <time>2020-02-23T09:31:20Z</time>
      </trkpt>
      <trkpt lat="42.93109" lon="0.75675">
        <ele>1628.4</ele>
        <time>2020-02-23T09:31:21Z</time>
      </trkpt>
      <trkpt lat="42.93109" lon="0.75675">
        <ele>1628.4</ele>
        <time>2020-02-23T09:31:22Z</time>
      </trkpt>
      <trkpt lat="42.93109" lon="0.75675">
        <ele>1628.4</ele>
        <time>2020-02-23T09:31:23Z</time>
      </trkpt>
      <trkpt lat="42.93109" lon="0.75675">
        <ele>1628.4</ele>
        <time>2020-02-23T09:31:24Z</time>
      </trkpt>
      <trkpt lat="42.93109" lon="0.75675">
        <ele>1628.4</ele>
        <time>2020-02-23T09:31:25Z</time>
      </trkpt>
      <trkpt lat="42.93109" lon="0.75674">
        <ele>1628.4</ele>
        <time>2020-02-23T09:31:26Z</time>
      </trkpt>
      <trkpt lat="42.93109" lon="0.75674">
        <ele>1628.4</ele>
        <time>2020-02-23T09:31:27Z</time>
      </trkpt>
      <trkpt lat="42.93109" lon="0.75674">
        <ele>1628.4</ele>
        <time>2020-02-23T09:31:28Z</time>
      </trkpt>
      <trkpt lat="42.93109" lon="0.75674">
        <ele>1628.4</ele>
        <time>2020-02-23T09:31:29Z</time>
      </trkpt>
      <trkpt lat="42.93109" lon="0.75674">
        <ele>1628.4</ele>
        <time>2020-02-23T09:31:30Z</time>
      </trkpt>
      <trkpt lat="42.93109" lon="0.75674">
        <ele>1628.4</ele>
        <time>2020-02-23T09:31:31Z</time>
      </trkpt>
      <trkpt lat="42.93109" lon="0.75673">
        <ele>1628.4</ele>
        <time>2020-02-23T09:31:32Z</time>
      </trkpt>
      <trkpt lat="42.93109" lon="0.75673">
        <ele>1628.4</ele>
        <time>2020-02-23T09:31:33Z</time>
      </trkpt>
      <trkpt lat="42.93109" lon="0.75673">
        <ele>1628.4</ele>
        <time>2020-02-23T09:31:34Z</time>
      </trkpt>
      <trkpt lat="42.93109" lon="0.75673">
        <ele>1628.4</ele>
        <time>2020-02-23T09:31:35Z</time>
      </trkpt>
      <trkpt lat="42.93109" lon="0.75673">
        <ele>1628.4</ele>
        <time>2020-02-23T09:31:36Z</time>
      </trkpt>
      <trkpt lat="42.93109" lon="0.75673">
        <ele>1629.6</ele>
        <time>2020-02-23T09:31:37Z</time>
      </trkpt>
      <trkpt lat="42.93109" lon="0.75672">
        <ele>1629.6</ele>
        <time>2020-02-23T09:31:38Z</time>
      </trkpt>
      <trkpt lat="42.93109" lon="0.75672">
        <ele>1629.6</ele>
        <time>2020-02-23T09:31:39Z</time>
      </trkpt>
      <trkpt lat="42.93108" lon="0.75672">
        <ele>1629.6</ele>
        <time>2020-02-23T09:31:40Z</time>
      </trkpt>
      <trkpt lat="42.93108" lon="0.75672">
        <ele>1629.6</ele>
        <time>2020-02-23T09:31:41Z</time>
      </trkpt>
      <trkpt lat="42.93108" lon="0.75672">
        <ele>1629.6</ele>
        <time>2020-02-23T09:31:42Z</time>
      </trkpt>
      <trkpt lat="42.93108" lon="0.75672">
        <ele>1629.6</ele>
        <time>2020-02-23T09:31:43Z</time>
      </trkpt>
      <trkpt lat="42.93108" lon="0.75671">
        <ele>1629.6</ele>
        <time>2020-02-23T09:31:44Z</time>
      </trkpt>
      <trkpt lat="42.93108" lon="0.75671">
        <ele>1629.6</ele>
        <time>2020-02-23T09:31:45Z</time>
      </trkpt>
      <trkpt lat="42.93108" lon="0.75671">
        <ele>1629.6</ele>
        <time>2020-02-23T09:31:46Z</time>
      </trkpt>
      <trkpt lat="42.93108" lon="0.75671">
        <ele>1629.6</ele>
        <time>2020-02-23T09:31:47Z</time>
      </trkpt>
      <trkpt lat="42.93108" lon="0.75671">
        <ele>1629.6</ele>
        <time>2020-02-23T09:31:48Z</time>
      </trkpt>
      <trkpt lat="42.93108" lon="0.75671">
        <ele>1629.6</ele>
        <time>2020-02-23T09:31:49Z</time>
      </trkpt>
      <trkpt lat="42.93108" lon="0.7567">
        <ele>1629.6</ele>
        <time>2020-02-23T09:31:50Z</time>
      </trkpt>
      <trkpt lat="42.93108" lon="0.7567">
        <ele>1629.6</ele>
        <time>2020-02-23T09:31:51Z</time>
      </trkpt>
      <trkpt lat="42.93108" lon="0.7567">
        <ele>1629.6</ele>
        <time>2020-02-23T09:31:52Z</time>
      </trkpt>
      <trkpt lat="42.93108" lon="0.7567">
        <ele>1629.6</ele>
        <time>2020-02-23T09:31:53Z</time>
      </trkpt>
      <trkpt lat="42.93108" lon="0.7567">
        <ele>1629.6</ele>
        <time>2020-02-23T09:31:54Z</time>
      </trkpt>
      <trkpt lat="42.93108" lon="0.7567">
        <ele>1629.6</ele>
        <time>2020-02-23T09:31:55Z</time>
      </trkpt>
      <trkpt lat="42.93108" lon="0.75669">
        <ele>1629.6</ele>
        <time>2020-02-23T09:31:56Z</time>
      </trkpt>
      <trkpt lat="42.93108" lon="0.75669">
        <ele>1629.6</ele>
        <time>2020-02-23T09:31:57Z</time>
      </trkpt>
      <trkpt lat="42.93108" lon="0.75669">
        <ele>1629.6</ele>
        <time>2020-02-23T09:31:58Z</time>
      </trkpt>
      <trkpt lat="42.93107" lon="0.75669">
        <ele>1629.6</ele>
        <time>2020-02-23T09:31:59Z</time>
      </trkpt>
      <trkpt lat="42.93107" lon="0.75669">
        <ele>1629.6</ele>
        <time>2020-02-23T09:32:00Z</time>
      </trkpt>
      <trkpt lat="42.93107" lon="0.75669">
        <ele>1629.6</ele>
        <time>2020-02-23T09:32:01Z</time>
      </trkpt>
      <trkpt lat="42.93107" lon="0.75668">
        <ele>1629.6</ele>
        <time>2020-02-23T09:32:02Z</time>
      </trkpt>
      <trkpt lat="42.93107" lon="0.75668">
        <ele>1630.8</ele>
        <time>2020-02-23T09:32:03Z</time>
      </trkpt>
      <trkpt lat="42.93107" lon="0.75668">
        <ele>1630.8</ele>
        <time>2020-02-23T09:32:04Z</time>
      </trkpt>
      <trkpt lat="42.93107" lon="0.75668">
        <ele>1630.8</ele>
        <time>2020-02-23T09:32:05Z</time>
      </trkpt>
      <trkpt lat="42.93107" lon="0.75668">
        <ele>1630.8</ele>
        <time>2020-02-23T09:32:06Z</time>
      </trkpt>
      <trkpt lat="42.93107" lon="0.75668">
        <ele>1630.2</ele>
        <time>2020-02-23T09:32:07Z</time>
      </trkpt>
      <trkpt lat="42.93107" lon="0.75667">
        <ele>1630.2</ele>
        <time>2020-02-23T09:32:08Z</time>
      </trkpt>
      <trkpt lat="42.93107" lon="0.75667">
        <ele>1630.2</ele>
        <time>2020-02-23T09:32:09Z</time>
      </trkpt>
      <trkpt lat="42.93107" lon="0.75667">
        <ele>1630.2</ele>
        <time>2020-02-23T09:32:10Z</time>
      </trkpt>
      <trkpt lat="42.93107" lon="0.75667">
        <ele>1630.2</ele>
        <time>2020-02-23T09:32:11Z</time>
      </trkpt>
      <trkpt lat="42.93107" lon="0.75667">
        <ele>1630.2</ele>
        <time>2020-02-23T09:32:12Z</time>
      </trkpt>
      <trkpt lat="42.93107" lon="0.75667">
        <ele>1630.2</ele>
        <time>2020-02-23T09:32:13Z</time>
      </trkpt>
      <trkpt lat="42.93107" lon="0.75666">
        <ele>1630.2</ele>
        <time>2020-02-23T09:32:14Z</time>
      </trkpt>
      <trkpt lat="42.93107" lon="0.75666">
        <ele>1630.2</ele>
        <time>2020-02-23T09:32:15Z</time>
      </trkpt>
      <trkpt lat="42.93107" lon="0.75666">
        <ele>1630.2</ele>
        <time>2020-02-23T09:32:16Z</time>
      </trkpt>
      <trkpt lat="42.93107" lon="0.75666">
        <ele>1630.2</ele>
        <time>2020-02-23T09:32:17Z</time>
      </trkpt>
      <trkpt lat="42.93106" lon="0.75666">
        <ele>1630.2</ele>
        <time>2020-02-23T09:32:18Z</time>
      </trkpt>
      <trkpt lat="42.93106" lon="0.75666">
        <ele>1630.2</ele>
        <time>2020-02-23T09:32:19Z</time>
      </trkpt>
      <trkpt lat="42.93106" lon="0.75665">
        <ele>1630.2</ele>
        <time>2020-02-23T09:32:20Z</time>
      </trkpt>
      <trkpt lat="42.93106" lon="0.75665">
        <ele>1630.2</ele>
        <time>2020-02-23T09:32:21Z</time>
      </trkpt>
      <trkpt lat="42.93106" lon="0.75665">
        <ele>1630.2</ele>
        <time>2020-02-23T09:32:22Z</time>
      </trkpt>
      <trkpt lat="42.93106" lon="0.75665">
        <ele>1630.2</ele>
        <time>2020-02-23T09:32:23Z</time>
      </trkpt>
      <trkpt lat="42.93106" lon="0.75665">
        <ele>1630.2</ele>
        <time>2020-02-23T09:32:24Z</time>
      </trkpt>
      <trkpt lat="42.93106" lon="0.75665">
        <ele>1630.2</ele>
        <time>2020-02-23T09:32:25Z</time>
      </trkpt>
      <trkpt lat="42.93106" lon="0.75664">
        <ele>1630.2</ele>
        <time>2020-02-23T09:32:26Z</time>
      </trkpt>
      <trkpt lat="42.93106" lon="0.75664">
        <ele>1630.2</ele>
        <time>2020-02-23T09:32:27Z</time>
      </trkpt>
      <trkpt lat="42.93106" lon="0.75664">
        <ele>1631.3</ele>
        <time>2020-02-23T09:32:28Z</time>
      </trkpt>
      <trkpt lat="42.93106" lon="0.75664">
        <ele>1631.3</ele>
        <time>2020-02-23T09:32:29Z</time>
      </trkpt>
      <trkpt lat="42.93106" lon="0.75664">
        <ele>1631.3</ele>
        <time>2020-02-23T09:32:30Z</time>
      </trkpt>
      <trkpt lat="42.93106" lon="0.75664">
        <ele>1631.3</ele>
        <time>2020-02-23T09:32:31Z</time>
      </trkpt>
      <trkpt lat="42.93106" lon="0.75664">
        <ele>1631.3</ele>
        <time>2020-02-23T09:32:32Z</time>
      </trkpt>
      <trkpt lat="42.93106" lon="0.75664">
        <ele>1630.2</ele>
        <time>2020-02-23T09:32:33Z</time>
      </trkpt>
      <trkpt lat="42.93106" lon="0.75664">
        <ele>1630.2</ele>
        <time>2020-02-23T09:32:34Z</time>
      </trkpt>
      <trkpt lat="42.93106" lon="0.75665">
        <ele>1630.2</ele>
        <time>2020-02-23T09:32:35Z</time>
      </trkpt>
      <trkpt lat="42.93106" lon="0.75665">
        <ele>1630.2</ele>
        <time>2020-02-23T09:32:36Z</time>
      </trkpt>
      <trkpt lat="42.93107" lon="0.75665">
        <ele>1630.2</ele>
        <time>2020-02-23T09:32:37Z</time>
      </trkpt>
      <trkpt lat="42.93107" lon="0.75665">
        <ele>1630.2</ele>
        <time>2020-02-23T09:32:38Z</time>
      </trkpt>
      <trkpt lat="42.93107" lon="0.75665">
        <ele>1630.2</ele>
        <time>2020-02-23T09:32:39Z</time>
      </trkpt>
      <trkpt lat="42.93107" lon="0.75665">
        <ele>1630.2</ele>
        <time>2020-02-23T09:32:40Z</time>
      </trkpt>
      <trkpt lat="42.93107" lon="0.75666">
        <ele>1630.2</ele>
        <time>2020-02-23T09:32:41Z</time>
      </trkpt>
      <trkpt lat="42.93107" lon="0.75666">
        <ele>1630.2</ele>
        <time>2020-02-23T09:32:42Z</time>
      </trkpt>
      <trkpt lat="42.93107" lon="0.75666">
        <ele>1630.2</ele>
        <time>2020-02-23T09:32:43Z</time>
      </trkpt>
      <trkpt lat="42.93107" lon="0.75666">
        <ele>1630.8</ele>
        <time>2020-02-23T09:32:44Z</time>
      </trkpt>
      <trkpt lat="42.93107" lon="0.75666">
        <ele>1630.8</ele>
        <time>2020-02-23T09:32:45Z</time>
      </trkpt>
      <trkpt lat="42.93107" lon="0.75666">
        <ele>1630.8</ele>
        <time>2020-02-23T09:32:46Z</time>
      </trkpt>
      <trkpt lat="42.93107" lon="0.75667">
        <ele>1630.8</ele>
        <time>2020-02-23T09:32:47Z</time>
      </trkpt>
      <trkpt lat="42.93108" lon="0.75667">
        <ele>1630.8</ele>
        <time>2020-02-23T09:32:48Z</time>
      </trkpt>
      <trkpt lat="42.93108" lon="0.75667">
        <ele>1630.8</ele>
        <time>2020-02-23T09:32:49Z</time>
      </trkpt>
      <trkpt lat="42.93108" lon="0.75667">
        <ele>1630.8</ele>
        <time>2020-02-23T09:32:50Z</time>
      </trkpt>
      <trkpt lat="42.93108" lon="0.75667">
        <ele>1630.8</ele>
        <time>2020-02-23T09:32:51Z</time>
      </trkpt>
      <trkpt lat="42.93108" lon="0.75667">
        <ele>1630.8</ele>
        <time>2020-02-23T09:32:52Z</time>
      </trkpt>
      <trkpt lat="42.93108" lon="0.75668">
        <ele>1630.8</ele>
        <time>2020-02-23T09:32:53Z</time>
      </trkpt>
      <trkpt lat="42.93108" lon="0.75668">
        <ele>1630.8</ele>
        <time>2020-02-23T09:32:54Z</time>
      </trkpt>
      <trkpt lat="42.93108" lon="0.75668">
        <ele>1630.8</ele>
        <time>2020-02-23T09:32:55Z</time>
      </trkpt>
      <trkpt lat="42.93108" lon="0.75668">
        <ele>1630.8</ele>
        <time>2020-02-23T09:32:56Z</time>
      </trkpt>
      <trkpt lat="42.93108" lon="0.75668">
        <ele>1630.8</ele>
        <time>2020-02-23T09:32:57Z</time>
      </trkpt>
      <trkpt lat="42.93109" lon="0.75668">
        <ele>1629.6</ele>
        <time>2020-02-23T09:32:58Z</time>
      </trkpt>
      <trkpt lat="42.93109" lon="0.75669">
        <ele>1629.6</ele>
        <time>2020-02-23T09:32:59Z</time>
      </trkpt>
      <trkpt lat="42.93109" lon="0.75669">
        <ele>1629.6</ele>
        <time>2020-02-23T09:33:00Z</time>
      </trkpt>
      <trkpt lat="42.93109" lon="0.75669">
        <ele>1629.6</ele>
        <time>2020-02-23T09:33:01Z</time>
      </trkpt>
      <trkpt lat="42.93109" lon="0.75669">
        <ele>1629.6</ele>
        <time>2020-02-23T09:33:02Z</time>
      </trkpt>
      <trkpt lat="42.93109" lon="0.75669">
        <ele>1629.6</ele>
        <time>2020-02-23T09:33:03Z</time>
      </trkpt>
      <trkpt lat="42.93109" lon="0.75669">
        <ele>1629.6</ele>
        <time>2020-02-23T09:33:04Z</time>
      </trkpt>
      <trkpt lat="42.93109" lon="0.7567">
        <ele>1629.6</ele>
        <time>2020-02-23T09:33:05Z</time>
      </trkpt>
      <trkpt lat="42.93109" lon="0.7567">
        <ele>1629.6</ele>
        <time>2020-02-23T09:33:06Z</time>
      </trkpt>
      <trkpt lat="42.93109" lon="0.7567">
        <ele>1629.6</ele>
        <time>2020-02-23T09:33:07Z</time>
      </trkpt>
      <trkpt lat="42.93109" lon="0.7567">
        <ele>1629.6</ele>
        <time>2020-02-23T09:33:08Z</time>
      </trkpt>
      <trkpt lat="42.9311" lon="0.7567">
        <ele>1629.6</ele>
        <time>2020-02-23T09:33:09Z</time>
      </trkpt>
      <trkpt lat="42.9311" lon="0.7567">
        <ele>1629.6</ele>
        <time>2020-02-23T09:33:10Z</time>
      </trkpt>
      <trkpt lat="42.9311" lon="0.75671">
        <ele>1629.6</ele>
        <time>2020-02-23T09:33:11Z</time>
      </trkpt>
      <trkpt lat="42.9311" lon="0.75671">
        <ele>1629.6</ele>
        <time>2020-02-23T09:33:12Z</time>
      </trkpt>
      <trkpt lat="42.9311" lon="0.75671">
        <ele>1629.6</ele>
        <time>2020-02-23T09:33:13Z</time>
      </trkpt>
      <trkpt lat="42.9311" lon="0.75671">
        <ele>1629.6</ele>
        <time>2020-02-23T09:33:14Z</time>
      </trkpt>
      <trkpt lat="42.9311" lon="0.75671">
        <ele>1629.6</ele>
        <time>2020-02-23T09:33:15Z</time>
      </trkpt>
      <trkpt lat="42.9311" lon="0.75671">
        <ele>1629.6</ele>
        <time>2020-02-23T09:33:16Z</time>
      </trkpt>
      <trkpt lat="42.9311" lon="0.75672">
        <ele>1630.2</ele>
        <time>2020-02-23T09:33:17Z</time>
      </trkpt>
      <trkpt lat="42.9311" lon="0.75672">
        <ele>1630.2</ele>
        <time>2020-02-23T09:33:18Z</time>
      </trkpt>
      <trkpt lat="42.93111" lon="0.75672">
        <ele>1630.2</ele>
        <time>2020-02-23T09:33:19Z</time>
      </trkpt>
      <trkpt lat="42.93111" lon="0.75672">
        <ele>1630.2</ele>
        <time>2020-02-23T09:33:20Z</time>
      </trkpt>
      <trkpt lat="42.93111" lon="0.75672">
        <ele>1630.2</ele>
        <time>2020-02-23T09:33:21Z</time>
      </trkpt>
      <trkpt lat="42.93111" lon="0.75672">
        <ele>1630.2</ele>
        <time>2020-02-23T09:33:22Z</time>
      </trkpt>
      <trkpt lat="42.93111" lon="0.75673">
        <ele>1630.2</ele>
        <time>2020-02-23T09:33:23Z</time>
      </trkpt>
      <trkpt lat="42.93111" lon="0.75673">
        <ele>1629</ele>
        <time>2020-02-23T09:33:24Z</time>
      </trkpt>
      <trkpt lat="42.93111" lon="0.75673">
        <ele>1629</ele>
        <time>2020-02-23T09:33:25Z</time>
      </trkpt>
      <trkpt lat="42.93111" lon="0.75673">
        <ele>1629</ele>
        <time>2020-02-23T09:33:26Z</time>
      </trkpt>
      <trkpt lat="42.93111" lon="0.75673">
        <ele>1629</ele>
        <time>2020-02-23T09:33:27Z</time>
      </trkpt>
      <trkpt lat="42.93111" lon="0.75673">
        <ele>1629</ele>
        <time>2020-02-23T09:33:28Z</time>
      </trkpt>
      <trkpt lat="42.93111" lon="0.75674">
        <ele>1629</ele>
        <time>2020-02-23T09:33:29Z</time>
      </trkpt>
      <trkpt lat="42.93111" lon="0.75673">
        <ele>1629</ele>
        <time>2020-02-23T09:33:30Z</time>
      </trkpt>
      <trkpt lat="42.93111" lon="0.75673">
        <ele>1629</ele>
        <time>2020-02-23T09:33:31Z</time>
      </trkpt>
      <trkpt lat="42.93111" lon="0.75673">
        <ele>1629</ele>
        <time>2020-02-23T09:33:32Z</time>
      </trkpt>
      <trkpt lat="42.93111" lon="0.75673">
        <ele>1630.2</ele>
        <time>2020-02-23T09:33:33Z</time>
      </trkpt>
      <trkpt lat="42.93111" lon="0.75672">
        <ele>1630.2</ele>
        <time>2020-02-23T09:33:34Z</time>
      </trkpt>
      <trkpt lat="42.93111" lon="0.75672">
        <ele>1630.2</ele>
        <time>2020-02-23T09:33:35Z</time>
      </trkpt>
      <trkpt lat="42.93111" lon="0.75672">
        <ele>1630.2</ele>
        <time>2020-02-23T09:33:36Z</time>
      </trkpt>
      <trkpt lat="42.93111" lon="0.75672">
        <ele>1630.2</ele>
        <time>2020-02-23T09:33:37Z</time>
      </trkpt>
      <trkpt lat="42.93111" lon="0.75671">
        <ele>1630.2</ele>
        <time>2020-02-23T09:33:38Z</time>
      </trkpt>
      <trkpt lat="42.9311" lon="0.75671">
        <ele>1630.2</ele>
        <time>2020-02-23T09:33:39Z</time>
      </trkpt>
      <trkpt lat="42.9311" lon="0.75671">
        <ele>1630.2</ele>
        <time>2020-02-23T09:33:40Z</time>
      </trkpt>
      <trkpt lat="42.9311" lon="0.7567">
        <ele>1629.6</ele>
        <time>2020-02-23T09:33:41Z</time>
      </trkpt>
      <trkpt lat="42.9311" lon="0.7567">
        <ele>1629.6</ele>
        <time>2020-02-23T09:33:42Z</time>
      </trkpt>
      <trkpt lat="42.9311" lon="0.7567">
        <ele>1629.6</ele>
        <time>2020-02-23T09:33:43Z</time>
      </trkpt>
      <trkpt lat="42.9311" lon="0.7567">
        <ele>1629.6</ele>
        <time>2020-02-23T09:33:44Z</time>
      </trkpt>
      <trkpt lat="42.9311" lon="0.75669">
        <ele>1629.6</ele>
        <time>2020-02-23T09:33:45Z</time>
      </trkpt>
      <trkpt lat="42.9311" lon="0.75669">
        <ele>1629.6</ele>
        <time>2020-02-23T09:33:46Z</time>
      </trkpt>
      <trkpt lat="42.9311" lon="0.75669">
        <ele>1629.6</ele>
        <time>2020-02-23T09:33:47Z</time>
      </trkpt>
      <trkpt lat="42.93109" lon="0.75669">
        <ele>1629.6</ele>
        <time>2020-02-23T09:33:48Z</time>
      </trkpt>
      <trkpt lat="42.93109" lon="0.75668">
        <ele>1629.6</ele>
        <time>2020-02-23T09:33:49Z</time>
      </trkpt>
      <trkpt lat="42.93109" lon="0.75668">
        <ele>1630.8</ele>
        <time>2020-02-23T09:33:50Z</time>
      </trkpt>
      <trkpt lat="42.93109" lon="0.75668">
        <ele>1630.8</ele>
        <time>2020-02-23T09:33:51Z</time>
      </trkpt>
      <trkpt lat="42.93109" lon="0.75668">
        <ele>1630.8</ele>
        <time>2020-02-23T09:33:52Z</time>
      </trkpt>
      <trkpt lat="42.93109" lon="0.75667">
        <ele>1630.8</ele>
        <time>2020-02-23T09:33:53Z</time>
      </trkpt>
      <trkpt lat="42.93109" lon="0.75667">
        <ele>1630.8</ele>
        <time>2020-02-23T09:33:54Z</time>
      </trkpt>
      <trkpt lat="42.93109" lon="0.75667">
        <ele>1630.8</ele>
        <time>2020-02-23T09:33:55Z</time>
      </trkpt>
      <trkpt lat="42.93109" lon="0.75667">
        <ele>1630.8</ele>
        <time>2020-02-23T09:33:56Z</time>
      </trkpt>
      <trkpt lat="42.93109" lon="0.75666">
        <ele>1630.8</ele>
        <time>2020-02-23T09:33:57Z</time>
      </trkpt>
      <trkpt lat="42.93108" lon="0.75666">
        <ele>1630.8</ele>
        <time>2020-02-23T09:33:58Z</time>
      </trkpt>
      <trkpt lat="42.93108" lon="0.75666">
        <ele>1630.8</ele>
        <time>2020-02-23T09:33:59Z</time>
      </trkpt>
      <trkpt lat="42.93108" lon="0.75666">
        <ele>1630.8</ele>
        <time>2020-02-23T09:34:00Z</time>
      </trkpt>
      <trkpt lat="42.93108" lon="0.75665">
        <ele>1630.8</ele>
        <time>2020-02-23T09:34:01Z</time>
      </trkpt>
      <trkpt lat="42.93108" lon="0.75665">
        <ele>1630.8</ele>
        <time>2020-02-23T09:34:02Z</time>
      </trkpt>
      <trkpt lat="42.93108" lon="0.75665">
        <ele>1630.8</ele>
        <time>2020-02-23T09:34:03Z</time>
      </trkpt>
      <trkpt lat="42.93108" lon="0.75665">
        <ele>1630.8</ele>
        <time>2020-02-23T09:34:04Z</time>
      </trkpt>
      <trkpt lat="42.93108" lon="0.75664">
        <ele>1630.8</ele>
        <time>2020-02-23T09:34:05Z</time>
      </trkpt>
      <trkpt lat="42.93108" lon="0.75664">
        <ele>1630.8</ele>
        <time>2020-02-23T09:34:06Z</time>
      </trkpt>
      <trkpt lat="42.93107" lon="0.75664">
        <ele>1631.9</ele>
        <time>2020-02-23T09:34:07Z</time>
      </trkpt>
      <trkpt lat="42.93107" lon="0.75664">
        <ele>1631.9</ele>
        <time>2020-02-23T09:34:08Z</time>
      </trkpt>
      <trkpt lat="42.93107" lon="0.75663">
        <ele>1631.9</ele>
        <time>2020-02-23T09:34:09Z</time>
      </trkpt>
      <trkpt lat="42.93107" lon="0.75663">
        <ele>1631.9</ele>
        <time>2020-02-23T09:34:10Z</time>
      </trkpt>
      <trkpt lat="42.93107" lon="0.75663">
        <ele>1631.3</ele>
        <time>2020-02-23T09:34:11Z</time>
      </trkpt>
      <trkpt lat="42.93107" lon="0.75663">
        <ele>1631.3</ele>
        <time>2020-02-23T09:34:12Z</time>
      </trkpt>
      <trkpt lat="42.93107" lon="0.75662">
        <ele>1631.3</ele>
        <time>2020-02-23T09:34:13Z</time>
      </trkpt>
      <trkpt lat="42.93107" lon="0.75661">
        <ele>1631.9</ele>
        <time>2020-02-23T09:34:14Z</time>
      </trkpt>
      <trkpt lat="42.93108" lon="0.7566">
        <ele>1631.9</ele>
        <time>2020-02-23T09:34:15Z</time>
      </trkpt>
      <trkpt lat="42.93109" lon="0.75659">
        <ele>1632.9</ele>
        <time>2020-02-23T09:34:16Z</time>
      </trkpt>
      <trkpt lat="42.93109" lon="0.75658">
        <ele>1632.9</ele>
        <time>2020-02-23T09:34:17Z</time>
      </trkpt>
      <trkpt lat="42.9311" lon="0.75657">
        <ele>1632.9</ele>
        <time>2020-02-23T09:34:18Z</time>
      </trkpt>
      <trkpt lat="42.9311" lon="0.75656">
        <ele>1632.9</ele>
        <time>2020-02-23T09:34:19Z</time>
      </trkpt>
      <trkpt lat="42.93111" lon="0.75655">
        <ele>1634.3</ele>
        <time>2020-02-23T09:34:20Z</time>
      </trkpt>
      <trkpt lat="42.93111" lon="0.75654">
        <ele>1634.3</ele>
        <time>2020-02-23T09:34:21Z</time>
      </trkpt>
      <trkpt lat="42.93112" lon="0.75653">
        <ele>1634.3</ele>
        <time>2020-02-23T09:34:22Z</time>
      </trkpt>
      <trkpt lat="42.93113" lon="0.75652">
        <ele>1634.3</ele>
        <time>2020-02-23T09:34:23Z</time>
      </trkpt>
      <trkpt lat="42.93113" lon="0.75651">
        <ele>1635.1</ele>
        <time>2020-02-23T09:34:24Z</time>
      </trkpt>
      <trkpt lat="42.93113" lon="0.7565">
        <ele>1635.1</ele>
        <time>2020-02-23T09:34:25Z</time>
      </trkpt>
      <trkpt lat="42.93114" lon="0.7565">
        <ele>1635.5</ele>
        <time>2020-02-23T09:34:26Z</time>
      </trkpt>
      <trkpt lat="42.93114" lon="0.75649">
        <ele>1635.5</ele>
        <time>2020-02-23T09:34:27Z</time>
      </trkpt>
      <trkpt lat="42.93115" lon="0.75648">
        <ele>1635.5</ele>
        <time>2020-02-23T09:34:28Z</time>
      </trkpt>
      <trkpt lat="42.93115" lon="0.75647">
        <ele>1635.5</ele>
        <time>2020-02-23T09:34:29Z</time>
      </trkpt>
      <trkpt lat="42.93115" lon="0.75646">
        <ele>1636.3</ele>
        <time>2020-02-23T09:34:30Z</time>
      </trkpt>
      <trkpt lat="42.93116" lon="0.75646">
        <ele>1636.3</ele>
        <time>2020-02-23T09:34:31Z</time>
      </trkpt>
      <trkpt lat="42.93116" lon="0.75645">
        <ele>1636.3</ele>
        <time>2020-02-23T09:34:32Z</time>
      </trkpt>
      <trkpt lat="42.93117" lon="0.75644">
        <ele>1636.7</ele>
        <time>2020-02-23T09:34:33Z</time>
      </trkpt>
      <trkpt lat="42.93117" lon="0.75643">
        <ele>1636.7</ele>
        <time>2020-02-23T09:34:34Z</time>
      </trkpt>
      <trkpt lat="42.93117" lon="0.75643">
        <ele>1637.4</ele>
        <time>2020-02-23T09:34:35Z</time>
      </trkpt>
      <trkpt lat="42.93118" lon="0.75642">
        <ele>1637.4</ele>
        <time>2020-02-23T09:34:36Z</time>
      </trkpt>
      <trkpt lat="42.93118" lon="0.75641">
        <ele>1637.4</ele>
        <time>2020-02-23T09:34:37Z</time>
      </trkpt>
      <trkpt lat="42.93119" lon="0.75641">
        <ele>1637.4</ele>
        <time>2020-02-23T09:34:38Z</time>
      </trkpt>
      <trkpt lat="42.93119" lon="0.7564">
        <ele>1637.4</ele>
        <time>2020-02-23T09:34:39Z</time>
      </trkpt>
      <trkpt lat="42.9312" lon="0.7564">
        <ele>1637.6</ele>
        <time>2020-02-23T09:34:40Z</time>
      </trkpt>
      <trkpt lat="42.93121" lon="0.75639">
        <ele>1637.6</ele>
        <time>2020-02-23T09:34:41Z</time>
      </trkpt>
      <trkpt lat="42.93121" lon="0.75639">
        <ele>1637.6</ele>
        <time>2020-02-23T09:34:42Z</time>
      </trkpt>
      <trkpt lat="42.93122" lon="0.75638">
        <ele>1637.6</ele>
        <time>2020-02-23T09:34:43Z</time>
      </trkpt>
      <trkpt lat="42.93123" lon="0.75638">
        <ele>1638.3</ele>
        <time>2020-02-23T09:34:44Z</time>
      </trkpt>
      <trkpt lat="42.93123" lon="0.75637">
        <ele>1638.5</ele>
        <time>2020-02-23T09:34:45Z</time>
      </trkpt>
      <trkpt lat="42.93124" lon="0.75637">
        <ele>1638.5</ele>
        <time>2020-02-23T09:34:46Z</time>
      </trkpt>
      <trkpt lat="42.93125" lon="0.75637">
        <ele>1638.5</ele>
        <time>2020-02-23T09:34:47Z</time>
      </trkpt>
      <trkpt lat="42.93125" lon="0.75636">
        <ele>1638.5</ele>
        <time>2020-02-23T09:34:48Z</time>
      </trkpt>
      <trkpt lat="42.93126" lon="0.75636">
        <ele>1638.7</ele>
        <time>2020-02-23T09:34:49Z</time>
      </trkpt>
      <trkpt lat="42.93127" lon="0.75635">
        <ele>1638.7</ele>
        <time>2020-02-23T09:34:50Z</time>
      </trkpt>
      <trkpt lat="42.93127" lon="0.75635">
        <ele>1638.7</ele>
        <time>2020-02-23T09:34:51Z</time>
      </trkpt>
      <trkpt lat="42.93126" lon="0.75635">
        <ele>1638.7</ele>
        <time>2020-02-23T09:34:52Z</time>
      </trkpt>
      <trkpt lat="42.93126" lon="0.75634">
        <ele>1638.7</ele>
        <time>2020-02-23T09:34:53Z</time>
      </trkpt>
      <trkpt lat="42.93126" lon="0.75634">
        <ele>1639.3</ele>
        <time>2020-02-23T09:34:54Z</time>
      </trkpt>
      <trkpt lat="42.93126" lon="0.75634">
        <ele>1639.3</ele>
        <time>2020-02-23T09:34:55Z</time>
      </trkpt>
      <trkpt lat="42.93126" lon="0.75633">
        <ele>1639.1</ele>
        <time>2020-02-23T09:34:56Z</time>
      </trkpt>
      <trkpt lat="42.93126" lon="0.75633">
        <ele>1639.1</ele>
        <time>2020-02-23T09:34:57Z</time>
      </trkpt>
      <trkpt lat="42.93126" lon="0.75632">
        <ele>1639.1</ele>
        <time>2020-02-23T09:34:58Z</time>
      </trkpt>
      <trkpt lat="42.93126" lon="0.75632">
        <ele>1639.1</ele>
        <time>2020-02-23T09:34:59Z</time>
      </trkpt>
      <trkpt lat="42.93125" lon="0.75632">
        <ele>1639.1</ele>
        <time>2020-02-23T09:35:00Z</time>
      </trkpt>
      <trkpt lat="42.93125" lon="0.75631">
        <ele>1639.1</ele>
        <time>2020-02-23T09:35:01Z</time>
      </trkpt>
      <trkpt lat="42.93125" lon="0.75631">
        <ele>1639.1</ele>
        <time>2020-02-23T09:35:02Z</time>
      </trkpt>
      <trkpt lat="42.93125" lon="0.75631">
        <ele>1639.1</ele>
        <time>2020-02-23T09:35:03Z</time>
      </trkpt>
      <trkpt lat="42.93125" lon="0.7563">
        <ele>1639.1</ele>
        <time>2020-02-23T09:35:04Z</time>
      </trkpt>
      <trkpt lat="42.93125" lon="0.7563">
        <ele>1639.1</ele>
        <time>2020-02-23T09:35:05Z</time>
      </trkpt>
      <trkpt lat="42.93125" lon="0.7563">
        <ele>1639.7</ele>
        <time>2020-02-23T09:35:06Z</time>
      </trkpt>
      <trkpt lat="42.93124" lon="0.75629">
        <ele>1639.7</ele>
        <time>2020-02-23T09:35:07Z</time>
      </trkpt>
      <trkpt lat="42.93124" lon="0.75629">
        <ele>1639.7</ele>
        <time>2020-02-23T09:35:08Z</time>
      </trkpt>
      <trkpt lat="42.93124" lon="0.75629">
        <ele>1639.7</ele>
        <time>2020-02-23T09:35:09Z</time>
      </trkpt>
      <trkpt lat="42.93124" lon="0.75628">
        <ele>1639.7</ele>
        <time>2020-02-23T09:35:10Z</time>
      </trkpt>
      <trkpt lat="42.93124" lon="0.75628">
        <ele>1639.7</ele>
        <time>2020-02-23T09:35:11Z</time>
      </trkpt>
      <trkpt lat="42.93124" lon="0.75628">
        <ele>1639.7</ele>
        <time>2020-02-23T09:35:12Z</time>
      </trkpt>
      <trkpt lat="42.93124" lon="0.75627">
        <ele>1639.7</ele>
        <time>2020-02-23T09:35:13Z</time>
      </trkpt>
      <trkpt lat="42.93123" lon="0.75627">
        <ele>1639.7</ele>
        <time>2020-02-23T09:35:14Z</time>
      </trkpt>
      <trkpt lat="42.93123" lon="0.75627">
        <ele>1639.7</ele>
        <time>2020-02-23T09:35:15Z</time>
      </trkpt>
      <trkpt lat="42.93123" lon="0.75626">
        <ele>1639.7</ele>
        <time>2020-02-23T09:35:16Z</time>
      </trkpt>
      <trkpt lat="42.93123" lon="0.75626">
        <ele>1639.7</ele>
        <time>2020-02-23T09:35:17Z</time>
      </trkpt>
      <trkpt lat="42.93123" lon="0.75626">
        <ele>1639.7</ele>
        <time>2020-02-23T09:35:18Z</time>
      </trkpt>
      <trkpt lat="42.93123" lon="0.75625">
        <ele>1640.1</ele>
        <time>2020-02-23T09:35:19Z</time>
      </trkpt>
      <trkpt lat="42.93123" lon="0.75625">
        <ele>1640.1</ele>
        <time>2020-02-23T09:35:20Z</time>
      </trkpt>
      <trkpt lat="42.93122" lon="0.75624">
        <ele>1640.1</ele>
        <time>2020-02-23T09:35:21Z</time>
      </trkpt>
      <trkpt lat="42.93122" lon="0.75624">
        <ele>1640.1</ele>
        <time>2020-02-23T09:35:22Z</time>
      </trkpt>
      <trkpt lat="42.93122" lon="0.75624">
        <ele>1640.1</ele>
        <time>2020-02-23T09:35:23Z</time>
      </trkpt>
      <trkpt lat="42.93122" lon="0.75624">
        <ele>1640.1</ele>
        <time>2020-02-23T09:35:24Z</time>
      </trkpt>
      <trkpt lat="42.93121" lon="0.75624">
        <ele>1640.1</ele>
        <time>2020-02-23T09:35:25Z</time>
      </trkpt>
      <trkpt lat="42.93121" lon="0.75624">
        <ele>1640.1</ele>
        <time>2020-02-23T09:35:26Z</time>
      </trkpt>
      <trkpt lat="42.9312" lon="0.75624">
        <ele>1640.1</ele>
        <time>2020-02-23T09:35:27Z</time>
      </trkpt>
      <trkpt lat="42.9312" lon="0.75624">
        <ele>1640.1</ele>
        <time>2020-02-23T09:35:28Z</time>
      </trkpt>
      <trkpt lat="42.9312" lon="0.75624">
        <ele>1639.9</ele>
        <time>2020-02-23T09:35:29Z</time>
      </trkpt>
      <trkpt lat="42.93119" lon="0.75624">
        <ele>1639.9</ele>
        <time>2020-02-23T09:35:30Z</time>
      </trkpt>
      <trkpt lat="42.93119" lon="0.75624">
        <ele>1639.9</ele>
        <time>2020-02-23T09:35:31Z</time>
      </trkpt>
      <trkpt lat="42.93118" lon="0.75624">
        <ele>1639.9</ele>
        <time>2020-02-23T09:35:32Z</time>
      </trkpt>
      <trkpt lat="42.93118" lon="0.75624">
        <ele>1639.9</ele>
        <time>2020-02-23T09:35:33Z</time>
      </trkpt>
      <trkpt lat="42.93118" lon="0.75623">
        <ele>1639.9</ele>
        <time>2020-02-23T09:35:34Z</time>
      </trkpt>
      <trkpt lat="42.93117" lon="0.75623">
        <ele>1639.9</ele>
        <time>2020-02-23T09:35:35Z</time>
      </trkpt>
      <trkpt lat="42.93117" lon="0.75623">
        <ele>1639.9</ele>
        <time>2020-02-23T09:35:36Z</time>
      </trkpt>
      <trkpt lat="42.93116" lon="0.75623">
        <ele>1639.7</ele>
        <time>2020-02-23T09:35:37Z</time>
      </trkpt>
      <trkpt lat="42.93116" lon="0.75623">
        <ele>1639.7</ele>
        <time>2020-02-23T09:35:38Z</time>
      </trkpt>
      <trkpt lat="42.93116" lon="0.75623">
        <ele>1639.7</ele>
        <time>2020-02-23T09:35:39Z</time>
      </trkpt>
      <trkpt lat="42.93115" lon="0.75623">
        <ele>1639.7</ele>
        <time>2020-02-23T09:35:40Z</time>
      </trkpt>
      <trkpt lat="42.93115" lon="0.75623">
        <ele>1639.7</ele>
        <time>2020-02-23T09:35:41Z</time>
      </trkpt>
      <trkpt lat="42.93114" lon="0.75623">
        <ele>1639.7</ele>
        <time>2020-02-23T09:35:42Z</time>
      </trkpt>
      <trkpt lat="42.93114" lon="0.75623">
        <ele>1639.7</ele>
        <time>2020-02-23T09:35:43Z</time>
      </trkpt>
      <trkpt lat="42.93114" lon="0.75623">
        <ele>1639.7</ele>
        <time>2020-02-23T09:35:44Z</time>
      </trkpt>
      <trkpt lat="42.93113" lon="0.75623">
        <ele>1639.4</ele>
        <time>2020-02-23T09:35:45Z</time>
      </trkpt>
      <trkpt lat="42.93113" lon="0.75623">
        <ele>1639.4</ele>
        <time>2020-02-23T09:35:46Z</time>
      </trkpt>
      <trkpt lat="42.93113" lon="0.75622">
        <ele>1639.4</ele>
        <time>2020-02-23T09:35:47Z</time>
      </trkpt>
      <trkpt lat="42.93113" lon="0.75621">
        <ele>1640.1</ele>
        <time>2020-02-23T09:35:48Z</time>
      </trkpt>
      <trkpt lat="42.93113" lon="0.7562">
        <ele>1640.1</ele>
        <time>2020-02-23T09:35:49Z</time>
      </trkpt>
      <trkpt lat="42.93113" lon="0.75619">
        <ele>1640.1</ele>
        <time>2020-02-23T09:35:50Z</time>
      </trkpt>
      <trkpt lat="42.93113" lon="0.75617">
        <ele>1640.1</ele>
        <time>2020-02-23T09:35:51Z</time>
      </trkpt>
      <trkpt lat="42.93113" lon="0.75616">
        <ele>1640.7</ele>
        <time>2020-02-23T09:35:52Z</time>
      </trkpt>
      <trkpt lat="42.93113" lon="0.75615">
        <ele>1640.7</ele>
        <time>2020-02-23T09:35:53Z</time>
      </trkpt>
      <trkpt lat="42.93113" lon="0.75614">
        <ele>1640.7</ele>
        <time>2020-02-23T09:35:54Z</time>
      </trkpt>
      <trkpt lat="42.93113" lon="0.75613">
        <ele>1640.7</ele>
        <time>2020-02-23T09:35:55Z</time>
      </trkpt>
      <trkpt lat="42.93113" lon="0.75612">
        <ele>1641.2</ele>
        <time>2020-02-23T09:35:56Z</time>
      </trkpt>
      <trkpt lat="42.93113" lon="0.75611">
        <ele>1641.2</ele>
        <time>2020-02-23T09:35:57Z</time>
      </trkpt>
      <trkpt lat="42.93113" lon="0.7561">
        <ele>1641.2</ele>
        <time>2020-02-23T09:35:58Z</time>
      </trkpt>
      <trkpt lat="42.93113" lon="0.75609">
        <ele>1641.2</ele>
        <time>2020-02-23T09:35:59Z</time>
      </trkpt>
      <trkpt lat="42.93113" lon="0.75608">
        <ele>1641.8</ele>
        <time>2020-02-23T09:36:00Z</time>
      </trkpt>
      <trkpt lat="42.93113" lon="0.75607">
        <ele>1641.8</ele>
        <time>2020-02-23T09:36:01Z</time>
      </trkpt>
      <trkpt lat="42.93114" lon="0.75606">
        <ele>1641.9</ele>
        <time>2020-02-23T09:36:02Z</time>
      </trkpt>
      <trkpt lat="42.93114" lon="0.75605">
        <ele>1641.9</ele>
        <time>2020-02-23T09:36:03Z</time>
      </trkpt>
      <trkpt lat="42.93114" lon="0.75605">
        <ele>1641.9</ele>
        <time>2020-02-23T09:36:04Z</time>
      </trkpt>
      <trkpt lat="42.93114" lon="0.75604">
        <ele>1642.3</ele>
        <time>2020-02-23T09:36:05Z</time>
      </trkpt>
      <trkpt lat="42.93114" lon="0.75603">
        <ele>1642.3</ele>
        <time>2020-02-23T09:36:06Z</time>
      </trkpt>
      <trkpt lat="42.93115" lon="0.75602">
        <ele>1642.3</ele>
        <time>2020-02-23T09:36:07Z</time>
      </trkpt>
      <trkpt lat="42.93115" lon="0.75601">
        <ele>1642.3</ele>
        <time>2020-02-23T09:36:08Z</time>
      </trkpt>
      <trkpt lat="42.93115" lon="0.75601">
        <ele>1642.3</ele>
        <time>2020-02-23T09:36:09Z</time>
      </trkpt>
      <trkpt lat="42.93115" lon="0.756">
        <ele>1642.3</ele>
        <time>2020-02-23T09:36:10Z</time>
      </trkpt>
      <trkpt lat="42.93115" lon="0.75599">
        <ele>1642.8</ele>
        <time>2020-02-23T09:36:11Z</time>
      </trkpt>
      <trkpt lat="42.93116" lon="0.75598">
        <ele>1642.8</ele>
        <time>2020-02-23T09:36:12Z</time>
      </trkpt>
      <trkpt lat="42.93116" lon="0.75597">
        <ele>1642.8</ele>
        <time>2020-02-23T09:36:13Z</time>
      </trkpt>
      <trkpt lat="42.93116" lon="0.75597">
        <ele>1642.8</ele>
        <time>2020-02-23T09:36:14Z</time>
      </trkpt>
      <trkpt lat="42.93116" lon="0.75596">
        <ele>1642.8</ele>
        <time>2020-02-23T09:36:15Z</time>
      </trkpt>
      <trkpt lat="42.93116" lon="0.75595">
        <ele>1643.2</ele>
        <time>2020-02-23T09:36:16Z</time>
      </trkpt>
      <trkpt lat="42.93117" lon="0.75595">
        <ele>1643.2</ele>
        <time>2020-02-23T09:36:17Z</time>
      </trkpt>
      <trkpt lat="42.93117" lon="0.75594">
        <ele>1643.2</ele>
        <time>2020-02-23T09:36:18Z</time>
      </trkpt>
      <trkpt lat="42.93117" lon="0.75593">
        <ele>1643.2</ele>
        <time>2020-02-23T09:36:19Z</time>
      </trkpt>
      <trkpt lat="42.93117" lon="0.75593">
        <ele>1643.2</ele>
        <time>2020-02-23T09:36:20Z</time>
      </trkpt>
      <trkpt lat="42.93117" lon="0.75592">
        <ele>1643.2</ele>
        <time>2020-02-23T09:36:21Z</time>
      </trkpt>
      <trkpt lat="42.93118" lon="0.75592">
        <ele>1643.2</ele>
        <time>2020-02-23T09:36:22Z</time>
      </trkpt>
      <trkpt lat="42.93118" lon="0.75591">
        <ele>1643.2</ele>
        <time>2020-02-23T09:36:23Z</time>
      </trkpt>
      <trkpt lat="42.93118" lon="0.75591">
        <ele>1643.7</ele>
        <time>2020-02-23T09:36:24Z</time>
      </trkpt>
      <trkpt lat="42.93118" lon="0.7559">
        <ele>1643.7</ele>
        <time>2020-02-23T09:36:25Z</time>
      </trkpt>
      <trkpt lat="42.93118" lon="0.75589">
        <ele>1643.7</ele>
        <time>2020-02-23T09:36:26Z</time>
      </trkpt>
      <trkpt lat="42.93118" lon="0.75589">
        <ele>1643.7</ele>
        <time>2020-02-23T09:36:27Z</time>
      </trkpt>
      <trkpt lat="42.93119" lon="0.75588">
        <ele>1643.7</ele>
        <time>2020-02-23T09:36:28Z</time>
      </trkpt>
      <trkpt lat="42.93119" lon="0.75588">
        <ele>1643.7</ele>
        <time>2020-02-23T09:36:29Z</time>
      </trkpt>
      <trkpt lat="42.93119" lon="0.75587">
        <ele>1643.7</ele>
        <time>2020-02-23T09:36:30Z</time>
      </trkpt>
      <trkpt lat="42.93119" lon="0.75587">
        <ele>1644.2</ele>
        <time>2020-02-23T09:36:31Z</time>
      </trkpt>
      <trkpt lat="42.93119" lon="0.75586">
        <ele>1644.2</ele>
        <time>2020-02-23T09:36:32Z</time>
      </trkpt>
      <trkpt lat="42.9312" lon="0.75585">
        <ele>1644.2</ele>
        <time>2020-02-23T09:36:33Z</time>
      </trkpt>
      <trkpt lat="42.9312" lon="0.75585">
        <ele>1644.1</ele>
        <time>2020-02-23T09:36:34Z</time>
      </trkpt>
      <trkpt lat="42.9312" lon="0.75584">
        <ele>1644.1</ele>
        <time>2020-02-23T09:36:35Z</time>
      </trkpt>
      <trkpt lat="42.9312" lon="0.75584">
        <ele>1644.1</ele>
        <time>2020-02-23T09:36:36Z</time>
      </trkpt>
      <trkpt lat="42.9312" lon="0.75583">
        <ele>1644.1</ele>
        <time>2020-02-23T09:36:37Z</time>
      </trkpt>
      <trkpt lat="42.9312" lon="0.75583">
        <ele>1644.1</ele>
        <time>2020-02-23T09:36:38Z</time>
      </trkpt>
      <trkpt lat="42.93121" lon="0.75583">
        <ele>1644.1</ele>
        <time>2020-02-23T09:36:39Z</time>
      </trkpt>
      <trkpt lat="42.93121" lon="0.75583">
        <ele>1644.1</ele>
        <time>2020-02-23T09:36:40Z</time>
      </trkpt>
      <trkpt lat="42.93121" lon="0.75583">
        <ele>1644.1</ele>
        <time>2020-02-23T09:36:41Z</time>
      </trkpt>
      <trkpt lat="42.93121" lon="0.75583">
        <ele>1644.1</ele>
        <time>2020-02-23T09:36:42Z</time>
      </trkpt>
      <trkpt lat="42.93121" lon="0.75583">
        <ele>1644.1</ele>
        <time>2020-02-23T09:36:43Z</time>
      </trkpt>
      <trkpt lat="42.93122" lon="0.75584">
        <ele>1644.1</ele>
        <time>2020-02-23T09:36:44Z</time>
      </trkpt>
      <trkpt lat="42.93122" lon="0.75584">
        <ele>1644.1</ele>
        <time>2020-02-23T09:36:45Z</time>
      </trkpt>
      <trkpt lat="42.93122" lon="0.75584">
        <ele>1644.1</ele>
        <time>2020-02-23T09:36:46Z</time>
      </trkpt>
      <trkpt lat="42.93122" lon="0.75584">
        <ele>1644.1</ele>
        <time>2020-02-23T09:36:47Z</time>
      </trkpt>
      <trkpt lat="42.93122" lon="0.75584">
        <ele>1644.1</ele>
        <time>2020-02-23T09:36:48Z</time>
      </trkpt>
      <trkpt lat="42.93123" lon="0.75584">
        <ele>1644.1</ele>
        <time>2020-02-23T09:36:49Z</time>
      </trkpt>
      <trkpt lat="42.93123" lon="0.75584">
        <ele>1644</ele>
        <time>2020-02-23T09:36:50Z</time>
      </trkpt>
      <trkpt lat="42.93123" lon="0.75584">
        <ele>1644</ele>
        <time>2020-02-23T09:36:51Z</time>
      </trkpt>
      <trkpt lat="42.93123" lon="0.75584">
        <ele>1644</ele>
        <time>2020-02-23T09:36:52Z</time>
      </trkpt>
      <trkpt lat="42.93123" lon="0.75584">
        <ele>1644</ele>
        <time>2020-02-23T09:36:53Z</time>
      </trkpt>
      <trkpt lat="42.93124" lon="0.75584">
        <ele>1644</ele>
        <time>2020-02-23T09:36:54Z</time>
      </trkpt>
      <trkpt lat="42.93124" lon="0.75584">
        <ele>1644</ele>
        <time>2020-02-23T09:36:55Z</time>
      </trkpt>
      <trkpt lat="42.93124" lon="0.75584">
        <ele>1644</ele>
        <time>2020-02-23T09:36:56Z</time>
      </trkpt>
      <trkpt lat="42.93124" lon="0.75585">
        <ele>1644</ele>
        <time>2020-02-23T09:36:57Z</time>
      </trkpt>
      <trkpt lat="42.93124" lon="0.75585">
        <ele>1644</ele>
        <time>2020-02-23T09:36:58Z</time>
      </trkpt>
      <trkpt lat="42.93125" lon="0.75585">
        <ele>1644</ele>
        <time>2020-02-23T09:36:59Z</time>
      </trkpt>
      <trkpt lat="42.93125" lon="0.75585">
        <ele>1644</ele>
        <time>2020-02-23T09:37:00Z</time>
      </trkpt>
      <trkpt lat="42.93125" lon="0.75585">
        <ele>1644</ele>
        <time>2020-02-23T09:37:01Z</time>
      </trkpt>
      <trkpt lat="42.93125" lon="0.75585">
        <ele>1644</ele>
        <time>2020-02-23T09:37:02Z</time>
      </trkpt>
      <trkpt lat="42.93125" lon="0.75585">
        <ele>1644</ele>
        <time>2020-02-23T09:37:03Z</time>
      </trkpt>
      <trkpt lat="42.93126" lon="0.75585">
        <ele>1644</ele>
        <time>2020-02-23T09:37:04Z</time>
      </trkpt>
      <trkpt lat="42.93126" lon="0.75585">
        <ele>1644</ele>
        <time>2020-02-23T09:37:05Z</time>
      </trkpt>
      <trkpt lat="42.93126" lon="0.75585">
        <ele>1643.9</ele>
        <time>2020-02-23T09:37:06Z</time>
      </trkpt>
      <trkpt lat="42.93126" lon="0.75585">
        <ele>1643.9</ele>
        <time>2020-02-23T09:37:07Z</time>
      </trkpt>
      <trkpt lat="42.93126" lon="0.75585">
        <ele>1643.9</ele>
        <time>2020-02-23T09:37:08Z</time>
      </trkpt>
      <trkpt lat="42.93127" lon="0.75585">
        <ele>1643.9</ele>
        <time>2020-02-23T09:37:09Z</time>
      </trkpt>
      <trkpt lat="42.93127" lon="0.75586">
        <ele>1643.9</ele>
        <time>2020-02-23T09:37:10Z</time>
      </trkpt>
      <trkpt lat="42.93127" lon="0.75586">
        <ele>1643.9</ele>
        <time>2020-02-23T09:37:11Z</time>
      </trkpt>
      <trkpt lat="42.93127" lon="0.75586">
        <ele>1643.9</ele>
        <time>2020-02-23T09:37:12Z</time>
      </trkpt>
      <trkpt lat="42.93127" lon="0.75586">
        <ele>1643.9</ele>
        <time>2020-02-23T09:37:13Z</time>
      </trkpt>
      <trkpt lat="42.93128" lon="0.75586">
        <ele>1643.9</ele>
        <time>2020-02-23T09:37:14Z</time>
      </trkpt>
      <trkpt lat="42.93128" lon="0.75586">
        <ele>1643.9</ele>
        <time>2020-02-23T09:37:15Z</time>
      </trkpt>
      <trkpt lat="42.93128" lon="0.75586">
        <ele>1643.9</ele>
        <time>2020-02-23T09:37:16Z</time>
      </trkpt>
      <trkpt lat="42.93128" lon="0.75586">
        <ele>1643.9</ele>
        <time>2020-02-23T09:37:17Z</time>
      </trkpt>
      <trkpt lat="42.93128" lon="0.75586">
        <ele>1643.9</ele>
        <time>2020-02-23T09:37:18Z</time>
      </trkpt>
      <trkpt lat="42.93129" lon="0.75586">
        <ele>1643.9</ele>
        <time>2020-02-23T09:37:19Z</time>
      </trkpt>
      <trkpt lat="42.93129" lon="0.75586">
        <ele>1643.9</ele>
        <time>2020-02-23T09:37:20Z</time>
      </trkpt>
      <trkpt lat="42.93129" lon="0.75586">
        <ele>1643.9</ele>
        <time>2020-02-23T09:37:21Z</time>
      </trkpt>
      <trkpt lat="42.93128" lon="0.75586">
        <ele>1643.9</ele>
        <time>2020-02-23T09:37:22Z</time>
      </trkpt>
      <trkpt lat="42.93128" lon="0.75585">
        <ele>1643.9</ele>
        <time>2020-02-23T09:37:23Z</time>
      </trkpt>
      <trkpt lat="42.93127" lon="0.75585">
        <ele>1643.9</ele>
        <time>2020-02-23T09:37:24Z</time>
      </trkpt>
      <trkpt lat="42.93127" lon="0.75584">
        <ele>1643.9</ele>
        <time>2020-02-23T09:37:25Z</time>
      </trkpt>
      <trkpt lat="42.93126" lon="0.75584">
        <ele>1643.9</ele>
        <time>2020-02-23T09:37:26Z</time>
      </trkpt>
      <trkpt lat="42.93126" lon="0.75583">
        <ele>1644</ele>
        <time>2020-02-23T09:37:27Z</time>
      </trkpt>
      <trkpt lat="42.93125" lon="0.75583">
        <ele>1644</ele>
        <time>2020-02-23T09:37:28Z</time>
      </trkpt>
      <trkpt lat="42.93125" lon="0.75582">
        <ele>1644.5</ele>
        <time>2020-02-23T09:37:29Z</time>
      </trkpt>
      <trkpt lat="42.93124" lon="0.75582">
        <ele>1644.5</ele>
        <time>2020-02-23T09:37:30Z</time>
      </trkpt>
      <trkpt lat="42.93123" lon="0.75581">
        <ele>1644.5</ele>
        <time>2020-02-23T09:37:31Z</time>
      </trkpt>
      <trkpt lat="42.93123" lon="0.75581">
        <ele>1644.5</ele>
        <time>2020-02-23T09:37:32Z</time>
      </trkpt>
      <trkpt lat="42.93122" lon="0.7558">
        <ele>1644.6</ele>
        <time>2020-02-23T09:37:33Z</time>
      </trkpt>
      <trkpt lat="42.93122" lon="0.75579">
        <ele>1644.6</ele>
        <time>2020-02-23T09:37:34Z</time>
      </trkpt>
      <trkpt lat="42.93121" lon="0.75579">
        <ele>1644.6</ele>
        <time>2020-02-23T09:37:35Z</time>
      </trkpt>
      <trkpt lat="42.93121" lon="0.75579">
        <ele>1644.6</ele>
        <time>2020-02-23T09:37:36Z</time>
      </trkpt>
      <trkpt lat="42.93121" lon="0.75578">
        <ele>1645.1</ele>
        <time>2020-02-23T09:37:37Z</time>
      </trkpt>
      <trkpt lat="42.93121" lon="0.75578">
        <ele>1645.1</ele>
        <time>2020-02-23T09:37:38Z</time>
      </trkpt>
      <trkpt lat="42.93121" lon="0.75577">
        <ele>1645.1</ele>
        <time>2020-02-23T09:37:39Z</time>
      </trkpt>
      <trkpt lat="42.93121" lon="0.75577">
        <ele>1645.1</ele>
        <time>2020-02-23T09:37:40Z</time>
      </trkpt>
      <trkpt lat="42.93121" lon="0.75576">
        <ele>1645.1</ele>
        <time>2020-02-23T09:37:41Z</time>
      </trkpt>
      <trkpt lat="42.93121" lon="0.75576">
        <ele>1645.1</ele>
        <time>2020-02-23T09:37:42Z</time>
      </trkpt>
      <trkpt lat="42.93121" lon="0.75576">
        <ele>1645.1</ele>
        <time>2020-02-23T09:37:43Z</time>
      </trkpt>
      <trkpt lat="42.9312" lon="0.75575">
        <ele>1645.1</ele>
        <time>2020-02-23T09:37:44Z</time>
      </trkpt>
      <trkpt lat="42.9312" lon="0.75575">
        <ele>1645.1</ele>
        <time>2020-02-23T09:37:45Z</time>
      </trkpt>
      <trkpt lat="42.9312" lon="0.75574">
        <ele>1645.1</ele>
        <time>2020-02-23T09:37:46Z</time>
      </trkpt>
      <trkpt lat="42.9312" lon="0.75574">
        <ele>1645.6</ele>
        <time>2020-02-23T09:37:47Z</time>
      </trkpt>
      <trkpt lat="42.9312" lon="0.75573">
        <ele>1645.6</ele>
        <time>2020-02-23T09:37:48Z</time>
      </trkpt>
      <trkpt lat="42.9312" lon="0.75573">
        <ele>1645.6</ele>
        <time>2020-02-23T09:37:49Z</time>
      </trkpt>
      <trkpt lat="42.9312" lon="0.75573">
        <ele>1645.6</ele>
        <time>2020-02-23T09:37:50Z</time>
      </trkpt>
      <trkpt lat="42.9312" lon="0.75572">
        <ele>1645.6</ele>
        <time>2020-02-23T09:37:51Z</time>
      </trkpt>
      <trkpt lat="42.9312" lon="0.75572">
        <ele>1645.7</ele>
        <time>2020-02-23T09:37:52Z</time>
      </trkpt>
      <trkpt lat="42.9312" lon="0.75571">
        <ele>1645.7</ele>
        <time>2020-02-23T09:37:53Z</time>
      </trkpt>
      <trkpt lat="42.93119" lon="0.75571">
        <ele>1645.7</ele>
        <time>2020-02-23T09:37:54Z</time>
      </trkpt>
      <trkpt lat="42.93119" lon="0.7557">
        <ele>1645.7</ele>
        <time>2020-02-23T09:37:55Z</time>
      </trkpt>
      <trkpt lat="42.93119" lon="0.7557">
        <ele>1645.7</ele>
        <time>2020-02-23T09:37:56Z</time>
      </trkpt>
      <trkpt lat="42.93119" lon="0.7557">
        <ele>1646.2</ele>
        <time>2020-02-23T09:37:57Z</time>
      </trkpt>
      <trkpt lat="42.93119" lon="0.75569">
        <ele>1646.2</ele>
        <time>2020-02-23T09:37:58Z</time>
      </trkpt>
      <trkpt lat="42.93119" lon="0.75569">
        <ele>1646.2</ele>
        <time>2020-02-23T09:37:59Z</time>
      </trkpt>
      <trkpt lat="42.93119" lon="0.75568">
        <ele>1646.2</ele>
        <time>2020-02-23T09:38:00Z</time>
      </trkpt>
      <trkpt lat="42.93119" lon="0.75568">
        <ele>1646.2</ele>
        <time>2020-02-23T09:38:01Z</time>
      </trkpt>
      <trkpt lat="42.93119" lon="0.75567">
        <ele>1646.2</ele>
        <time>2020-02-23T09:38:02Z</time>
      </trkpt>
      <trkpt lat="42.93119" lon="0.75567">
        <ele>1646.2</ele>
        <time>2020-02-23T09:38:03Z</time>
      </trkpt>
      <trkpt lat="42.93119" lon="0.75567">
        <ele>1646.2</ele>
        <time>2020-02-23T09:38:04Z</time>
      </trkpt>
      <trkpt lat="42.93118" lon="0.75566">
        <ele>1646.2</ele>
        <time>2020-02-23T09:38:05Z</time>
      </trkpt>
      <trkpt lat="42.93118" lon="0.75565">
        <ele>1646.2</ele>
        <time>2020-02-23T09:38:06Z</time>
      </trkpt>
      <trkpt lat="42.93118" lon="0.75565">
        <ele>1646.6</ele>
        <time>2020-02-23T09:38:07Z</time>
      </trkpt>
      <trkpt lat="42.93118" lon="0.75564">
        <ele>1646.6</ele>
        <time>2020-02-23T09:38:08Z</time>
      </trkpt>
      <trkpt lat="42.93118" lon="0.75564">
        <ele>1646.6</ele>
        <time>2020-02-23T09:38:09Z</time>
      </trkpt>
      <trkpt lat="42.93117" lon="0.75563">
        <ele>1646.6</ele>
        <time>2020-02-23T09:38:10Z</time>
      </trkpt>
      <trkpt lat="42.93117" lon="0.75563">
        <ele>1646.6</ele>
        <time>2020-02-23T09:38:11Z</time>
      </trkpt>
      <trkpt lat="42.93117" lon="0.75562">
        <ele>1646.6</ele>
        <time>2020-02-23T09:38:12Z</time>
      </trkpt>
      <trkpt lat="42.93117" lon="0.75561">
        <ele>1646.6</ele>
        <time>2020-02-23T09:38:13Z</time>
      </trkpt>
      <trkpt lat="42.93117" lon="0.75561">
        <ele>1647</ele>
        <time>2020-02-23T09:38:14Z</time>
      </trkpt>
      <trkpt lat="42.93116" lon="0.7556">
        <ele>1647.2</ele>
        <time>2020-02-23T09:38:15Z</time>
      </trkpt>
      <trkpt lat="42.93116" lon="0.7556">
        <ele>1647.2</ele>
        <time>2020-02-23T09:38:16Z</time>
      </trkpt>
      <trkpt lat="42.93116" lon="0.75559">
        <ele>1647.2</ele>
        <time>2020-02-23T09:38:17Z</time>
      </trkpt>
      <trkpt lat="42.93116" lon="0.75559">
        <ele>1647.2</ele>
        <time>2020-02-23T09:38:18Z</time>
      </trkpt>
      <trkpt lat="42.93116" lon="0.75558">
        <ele>1647.2</ele>
        <time>2020-02-23T09:38:19Z</time>
      </trkpt>
      <trkpt lat="42.93115" lon="0.75557">
        <ele>1647.2</ele>
        <time>2020-02-23T09:38:20Z</time>
      </trkpt>
      <trkpt lat="42.93115" lon="0.75557">
        <ele>1647.2</ele>
        <time>2020-02-23T09:38:21Z</time>
      </trkpt>
      <trkpt lat="42.93115" lon="0.75556">
        <ele>1647.6</ele>
        <time>2020-02-23T09:38:22Z</time>
      </trkpt>
      <trkpt lat="42.93115" lon="0.75556">
        <ele>1647.6</ele>
        <time>2020-02-23T09:38:23Z</time>
      </trkpt>
      <trkpt lat="42.93115" lon="0.75555">
        <ele>1647.6</ele>
        <time>2020-02-23T09:38:24Z</time>
      </trkpt>
      <trkpt lat="42.93114" lon="0.75554">
        <ele>1647.6</ele>
        <time>2020-02-23T09:38:25Z</time>
      </trkpt>
      <trkpt lat="42.93114" lon="0.75553">
        <ele>1647.6</ele>
        <time>2020-02-23T09:38:26Z</time>
      </trkpt>
      <trkpt lat="42.93114" lon="0.75552">
        <ele>1648</ele>
        <time>2020-02-23T09:38:27Z</time>
      </trkpt>
      <trkpt lat="42.93113" lon="0.75551">
        <ele>1648.1</ele>
        <time>2020-02-23T09:38:28Z</time>
      </trkpt>
      <trkpt lat="42.93113" lon="0.75551">
        <ele>1648.1</ele>
        <time>2020-02-23T09:38:29Z</time>
      </trkpt>
      <trkpt lat="42.93112" lon="0.7555">
        <ele>1648.1</ele>
        <time>2020-02-23T09:38:30Z</time>
      </trkpt>
      <trkpt lat="42.93112" lon="0.75549">
        <ele>1648.1</ele>
        <time>2020-02-23T09:38:31Z</time>
      </trkpt>
      <trkpt lat="42.93112" lon="0.75548">
        <ele>1648.6</ele>
        <time>2020-02-23T09:38:32Z</time>
      </trkpt>
      <trkpt lat="42.93111" lon="0.75547">
        <ele>1648.6</ele>
        <time>2020-02-23T09:38:33Z</time>
      </trkpt>
      <trkpt lat="42.93111" lon="0.75546">
        <ele>1648.6</ele>
        <time>2020-02-23T09:38:34Z</time>
      </trkpt>
      <trkpt lat="42.9311" lon="0.75545">
        <ele>1648.6</ele>
        <time>2020-02-23T09:38:35Z</time>
      </trkpt>
      <trkpt lat="42.9311" lon="0.75544">
        <ele>1648.7</ele>
        <time>2020-02-23T09:38:36Z</time>
      </trkpt>
      <trkpt lat="42.9311" lon="0.75543">
        <ele>1649.1</ele>
        <time>2020-02-23T09:38:37Z</time>
      </trkpt>
      <trkpt lat="42.93109" lon="0.75542">
        <ele>1649.1</ele>
        <time>2020-02-23T09:38:38Z</time>
      </trkpt>
      <trkpt lat="42.93109" lon="0.75541">
        <ele>1649.1</ele>
        <time>2020-02-23T09:38:39Z</time>
      </trkpt>
      <trkpt lat="42.93108" lon="0.7554">
        <ele>1649.1</ele>
        <time>2020-02-23T09:38:40Z</time>
      </trkpt>
      <trkpt lat="42.93108" lon="0.75539">
        <ele>1649.6</ele>
        <time>2020-02-23T09:38:41Z</time>
      </trkpt>
      <trkpt lat="42.93108" lon="0.75538">
        <ele>1649.6</ele>
        <time>2020-02-23T09:38:42Z</time>
      </trkpt>
      <trkpt lat="42.93107" lon="0.75537">
        <ele>1649.6</ele>
        <time>2020-02-23T09:38:43Z</time>
      </trkpt>
      <trkpt lat="42.93107" lon="0.75536">
        <ele>1649.7</ele>
        <time>2020-02-23T09:38:44Z</time>
      </trkpt>
      <trkpt lat="42.93106" lon="0.75535">
        <ele>1649.7</ele>
        <time>2020-02-23T09:38:45Z</time>
      </trkpt>
      <trkpt lat="42.93106" lon="0.75534">
        <ele>1650.1</ele>
        <time>2020-02-23T09:38:46Z</time>
      </trkpt>
      <trkpt lat="42.93106" lon="0.75534">
        <ele>1650.1</ele>
        <time>2020-02-23T09:38:47Z</time>
      </trkpt>
      <trkpt lat="42.93105" lon="0.75533">
        <ele>1650.1</ele>
        <time>2020-02-23T09:38:48Z</time>
      </trkpt>
      <trkpt lat="42.93105" lon="0.75532">
        <ele>1650.1</ele>
        <time>2020-02-23T09:38:49Z</time>
      </trkpt>
      <trkpt lat="42.93104" lon="0.75532">
        <ele>1650.2</ele>
        <time>2020-02-23T09:38:50Z</time>
      </trkpt>
      <trkpt lat="42.93103" lon="0.75532">
        <ele>1650.2</ele>
        <time>2020-02-23T09:38:51Z</time>
      </trkpt>
      <trkpt lat="42.93103" lon="0.75531">
        <ele>1650.2</ele>
        <time>2020-02-23T09:38:52Z</time>
      </trkpt>
      <trkpt lat="42.93102" lon="0.75531">
        <ele>1650.2</ele>
        <time>2020-02-23T09:38:53Z</time>
      </trkpt>
      <trkpt lat="42.93101" lon="0.75531">
        <ele>1650.7</ele>
        <time>2020-02-23T09:38:54Z</time>
      </trkpt>
      <trkpt lat="42.93101" lon="0.75531">
        <ele>1650.7</ele>
        <time>2020-02-23T09:38:55Z</time>
      </trkpt>
      <trkpt lat="42.931" lon="0.7553">
        <ele>1650.8</ele>
        <time>2020-02-23T09:38:56Z</time>
      </trkpt>
      <trkpt lat="42.931" lon="0.7553">
        <ele>1650.8</ele>
        <time>2020-02-23T09:38:57Z</time>
      </trkpt>
      <trkpt lat="42.93099" lon="0.7553">
        <ele>1650.8</ele>
        <time>2020-02-23T09:38:58Z</time>
      </trkpt>
      <trkpt lat="42.93098" lon="0.75529">
        <ele>1650.8</ele>
        <time>2020-02-23T09:38:59Z</time>
      </trkpt>
      <trkpt lat="42.93098" lon="0.75529">
        <ele>1650.8</ele>
        <time>2020-02-23T09:39:00Z</time>
      </trkpt>
      <trkpt lat="42.93097" lon="0.75529">
        <ele>1650.8</ele>
        <time>2020-02-23T09:39:01Z</time>
      </trkpt>
      <trkpt lat="42.93097" lon="0.75529">
        <ele>1650.8</ele>
        <time>2020-02-23T09:39:02Z</time>
      </trkpt>
      <trkpt lat="42.93096" lon="0.75528">
        <ele>1650.8</ele>
        <time>2020-02-23T09:39:03Z</time>
      </trkpt>
      <trkpt lat="42.93096" lon="0.75527">
        <ele>1650.8</ele>
        <time>2020-02-23T09:39:04Z</time>
      </trkpt>
      <trkpt lat="42.93096" lon="0.75527">
        <ele>1651.3</ele>
        <time>2020-02-23T09:39:05Z</time>
      </trkpt>
      <trkpt lat="42.93096" lon="0.75526">
        <ele>1651.3</ele>
        <time>2020-02-23T09:39:06Z</time>
      </trkpt>
      <trkpt lat="42.93096" lon="0.75525">
        <ele>1651.3</ele>
        <time>2020-02-23T09:39:07Z</time>
      </trkpt>
      <trkpt lat="42.93096" lon="0.75524">
        <ele>1651.3</ele>
        <time>2020-02-23T09:39:08Z</time>
      </trkpt>
      <trkpt lat="42.93096" lon="0.75523">
        <ele>1651.3</ele>
        <time>2020-02-23T09:39:09Z</time>
      </trkpt>
      <trkpt lat="42.93096" lon="0.75522">
        <ele>1651.8</ele>
        <time>2020-02-23T09:39:10Z</time>
      </trkpt>
      <trkpt lat="42.93096" lon="0.75521">
        <ele>1651.8</ele>
        <time>2020-02-23T09:39:11Z</time>
      </trkpt>
      <trkpt lat="42.93096" lon="0.7552">
        <ele>1651.8</ele>
        <time>2020-02-23T09:39:12Z</time>
      </trkpt>
      <trkpt lat="42.93096" lon="0.7552">
        <ele>1651.8</ele>
        <time>2020-02-23T09:39:13Z</time>
      </trkpt>
      <trkpt lat="42.93096" lon="0.75519">
        <ele>1651.8</ele>
        <time>2020-02-23T09:39:14Z</time>
      </trkpt>
      <trkpt lat="42.93096" lon="0.75518">
        <ele>1652.2</ele>
        <time>2020-02-23T09:39:15Z</time>
      </trkpt>
      <trkpt lat="42.93096" lon="0.75517">
        <ele>1652.2</ele>
        <time>2020-02-23T09:39:16Z</time>
      </trkpt>
      <trkpt lat="42.93096" lon="0.75516">
        <ele>1652.2</ele>
        <time>2020-02-23T09:39:17Z</time>
      </trkpt>
      <trkpt lat="42.93096" lon="0.75515">
        <ele>1652.2</ele>
        <time>2020-02-23T09:39:18Z</time>
      </trkpt>
      <trkpt lat="42.93095" lon="0.75514">
        <ele>1652.2</ele>
        <time>2020-02-23T09:39:19Z</time>
      </trkpt>
      <trkpt lat="42.93095" lon="0.75513">
        <ele>1652.6</ele>
        <time>2020-02-23T09:39:20Z</time>
      </trkpt>
      <trkpt lat="42.93094" lon="0.75513">
        <ele>1652.7</ele>
        <time>2020-02-23T09:39:21Z</time>
      </trkpt>
      <trkpt lat="42.93093" lon="0.75512">
        <ele>1652.7</ele>
        <time>2020-02-23T09:39:22Z</time>
      </trkpt>
      <trkpt lat="42.93092" lon="0.75511">
        <ele>1652.7</ele>
        <time>2020-02-23T09:39:23Z</time>
      </trkpt>
      <trkpt lat="42.93092" lon="0.7551">
        <ele>1652.7</ele>
        <time>2020-02-23T09:39:24Z</time>
      </trkpt>
      <trkpt lat="42.93091" lon="0.75509">
        <ele>1653.3</ele>
        <time>2020-02-23T09:39:25Z</time>
      </trkpt>
      <trkpt lat="42.9309" lon="0.75508">
        <ele>1653.3</ele>
        <time>2020-02-23T09:39:26Z</time>
      </trkpt>
      <trkpt lat="42.9309" lon="0.75507">
        <ele>1653.3</ele>
        <time>2020-02-23T09:39:27Z</time>
      </trkpt>
      <trkpt lat="42.93089" lon="0.75506">
        <ele>1653.3</ele>
        <time>2020-02-23T09:39:28Z</time>
      </trkpt>
      <trkpt lat="42.93088" lon="0.75505">
        <ele>1653.9</ele>
        <time>2020-02-23T09:39:29Z</time>
      </trkpt>
      <trkpt lat="42.93088" lon="0.75504">
        <ele>1654.1</ele>
        <time>2020-02-23T09:39:30Z</time>
      </trkpt>
      <trkpt lat="42.93088" lon="0.75502">
        <ele>1654.1</ele>
        <time>2020-02-23T09:39:31Z</time>
      </trkpt>
      <trkpt lat="42.93088" lon="0.75501">
        <ele>1654.8</ele>
        <time>2020-02-23T09:39:32Z</time>
      </trkpt>
      <trkpt lat="42.93087" lon="0.75499">
        <ele>1654.8</ele>
        <time>2020-02-23T09:39:33Z</time>
      </trkpt>
      <trkpt lat="42.93087" lon="0.75497">
        <ele>1654.8</ele>
        <time>2020-02-23T09:39:34Z</time>
      </trkpt>
      <trkpt lat="42.93087" lon="0.75496">
        <ele>1655.5</ele>
        <time>2020-02-23T09:39:35Z</time>
      </trkpt>
      <trkpt lat="42.93087" lon="0.75494">
        <ele>1655.5</ele>
        <time>2020-02-23T09:39:36Z</time>
      </trkpt>
      <trkpt lat="42.93086" lon="0.75493">
        <ele>1655.5</ele>
        <time>2020-02-23T09:39:37Z</time>
      </trkpt>
      <trkpt lat="42.93086" lon="0.75493">
        <ele>1655.5</ele>
        <time>2020-02-23T09:39:38Z</time>
      </trkpt>
      <trkpt lat="42.93087" lon="0.75493">
        <ele>1655.5</ele>
        <time>2020-02-23T09:39:39Z</time>
      </trkpt>
      <trkpt lat="42.93087" lon="0.75493">
        <ele>1655.5</ele>
        <time>2020-02-23T09:39:40Z</time>
      </trkpt>
      <trkpt lat="42.93087" lon="0.75492">
        <ele>1655.5</ele>
        <time>2020-02-23T09:39:41Z</time>
      </trkpt>
      <trkpt lat="42.93087" lon="0.75492">
        <ele>1656.3</ele>
        <time>2020-02-23T09:39:42Z</time>
      </trkpt>
      <trkpt lat="42.93087" lon="0.75492">
        <ele>1656.3</ele>
        <time>2020-02-23T09:39:43Z</time>
      </trkpt>
      <trkpt lat="42.93087" lon="0.75492">
        <ele>1656.3</ele>
        <time>2020-02-23T09:39:44Z</time>
      </trkpt>
      <trkpt lat="42.93087" lon="0.75492">
        <ele>1656.3</ele>
        <time>2020-02-23T09:39:45Z</time>
      </trkpt>
      <trkpt lat="42.93087" lon="0.75492">
        <ele>1656.3</ele>
        <time>2020-02-23T09:39:46Z</time>
      </trkpt>
      <trkpt lat="42.93087" lon="0.75492">
        <ele>1656.3</ele>
        <time>2020-02-23T09:39:47Z</time>
      </trkpt>
      <trkpt lat="42.93087" lon="0.75492">
        <ele>1656.3</ele>
        <time>2020-02-23T09:39:48Z</time>
      </trkpt>
      <trkpt lat="42.93087" lon="0.75492">
        <ele>1656.3</ele>
        <time>2020-02-23T09:39:49Z</time>
      </trkpt>
      <trkpt lat="42.93088" lon="0.75492">
        <ele>1656.3</ele>
        <time>2020-02-23T09:39:50Z</time>
      </trkpt>
      <trkpt lat="42.93088" lon="0.75492">
        <ele>1656.3</ele>
        <time>2020-02-23T09:39:51Z</time>
      </trkpt>
      <trkpt lat="42.93088" lon="0.75491">
        <ele>1656.3</ele>
        <time>2020-02-23T09:39:52Z</time>
      </trkpt>
      <trkpt lat="42.93088" lon="0.75491">
        <ele>1656.3</ele>
        <time>2020-02-23T09:39:53Z</time>
      </trkpt>
      <trkpt lat="42.93088" lon="0.75491">
        <ele>1656.3</ele>
        <time>2020-02-23T09:39:54Z</time>
      </trkpt>
      <trkpt lat="42.93088" lon="0.75491">
        <ele>1656.3</ele>
        <time>2020-02-23T09:39:55Z</time>
      </trkpt>
      <trkpt lat="42.93088" lon="0.75491">
        <ele>1656.3</ele>
        <time>2020-02-23T09:39:56Z</time>
      </trkpt>
      <trkpt lat="42.93088" lon="0.75491">
        <ele>1656.3</ele>
        <time>2020-02-23T09:39:57Z</time>
      </trkpt>
      <trkpt lat="42.93088" lon="0.75491">
        <ele>1656.3</ele>
        <time>2020-02-23T09:39:58Z</time>
      </trkpt>
      <trkpt lat="42.93088" lon="0.75491">
        <ele>1655.9</ele>
        <time>2020-02-23T09:39:59Z</time>
      </trkpt>
      <trkpt lat="42.93088" lon="0.75491">
        <ele>1655.9</ele>
        <time>2020-02-23T09:40:00Z</time>
      </trkpt>
      <trkpt lat="42.93089" lon="0.75491">
        <ele>1655.9</ele>
        <time>2020-02-23T09:40:01Z</time>
      </trkpt>
      <trkpt lat="42.93089" lon="0.75491">
        <ele>1655.9</ele>
        <time>2020-02-23T09:40:02Z</time>
      </trkpt>
      <trkpt lat="42.93089" lon="0.7549">
        <ele>1655.9</ele>
        <time>2020-02-23T09:40:03Z</time>
      </trkpt>
      <trkpt lat="42.93089" lon="0.7549">
        <ele>1655.9</ele>
        <time>2020-02-23T09:40:04Z</time>
      </trkpt>
      <trkpt lat="42.93089" lon="0.7549">
        <ele>1655.9</ele>
        <time>2020-02-23T09:40:05Z</time>
      </trkpt>
      <trkpt lat="42.93089" lon="0.7549">
        <ele>1655.9</ele>
        <time>2020-02-23T09:40:06Z</time>
      </trkpt>
      <trkpt lat="42.93089" lon="0.7549">
        <ele>1655.9</ele>
        <time>2020-02-23T09:40:07Z</time>
      </trkpt>
      <trkpt lat="42.93089" lon="0.7549">
        <ele>1655.9</ele>
        <time>2020-02-23T09:40:08Z</time>
      </trkpt>
      <trkpt lat="42.93089" lon="0.7549">
        <ele>1655.9</ele>
        <time>2020-02-23T09:40:09Z</time>
      </trkpt>
      <trkpt lat="42.93089" lon="0.7549">
        <ele>1655.9</ele>
        <time>2020-02-23T09:40:10Z</time>
      </trkpt>
      <trkpt lat="42.93089" lon="0.7549">
        <ele>1655.9</ele>
        <time>2020-02-23T09:40:11Z</time>
      </trkpt>
      <trkpt lat="42.9309" lon="0.7549">
        <ele>1655.9</ele>
        <time>2020-02-23T09:40:12Z</time>
      </trkpt>
      <trkpt lat="42.9309" lon="0.7549">
        <ele>1655.9</ele>
        <time>2020-02-23T09:40:13Z</time>
      </trkpt>
      <trkpt lat="42.9309" lon="0.75489">
        <ele>1655.9</ele>
        <time>2020-02-23T09:40:14Z</time>
      </trkpt>
      <trkpt lat="42.9309" lon="0.75489">
        <ele>1655.9</ele>
        <time>2020-02-23T09:40:15Z</time>
      </trkpt>
      <trkpt lat="42.9309" lon="0.75489">
        <ele>1655.9</ele>
        <time>2020-02-23T09:40:16Z</time>
      </trkpt>
      <trkpt lat="42.9309" lon="0.75489">
        <ele>1655.9</ele>
        <time>2020-02-23T09:40:17Z</time>
      </trkpt>
      <trkpt lat="42.9309" lon="0.75489">
        <ele>1655.9</ele>
        <time>2020-02-23T09:40:18Z</time>
      </trkpt>
      <trkpt lat="42.9309" lon="0.75489">
        <ele>1655.9</ele>
        <time>2020-02-23T09:40:19Z</time>
      </trkpt>
      <trkpt lat="42.9309" lon="0.75489">
        <ele>1655.9</ele>
        <time>2020-02-23T09:40:20Z</time>
      </trkpt>
      <trkpt lat="42.9309" lon="0.75489">
        <ele>1655.9</ele>
        <time>2020-02-23T09:40:21Z</time>
      </trkpt>
      <trkpt lat="42.9309" lon="0.75489">
        <ele>1655.9</ele>
        <time>2020-02-23T09:40:22Z</time>
      </trkpt>
      <trkpt lat="42.9309" lon="0.75489">
        <ele>1655.9</ele>
        <time>2020-02-23T09:40:23Z</time>
      </trkpt>
      <trkpt lat="42.93091" lon="0.75488">
        <ele>1655.9</ele>
        <time>2020-02-23T09:40:24Z</time>
      </trkpt>
      <trkpt lat="42.93091" lon="0.75488">
        <ele>1655.9</ele>
        <time>2020-02-23T09:40:25Z</time>
      </trkpt>
      <trkpt lat="42.93091" lon="0.75488">
        <ele>1655.9</ele>
        <time>2020-02-23T09:40:26Z</time>
      </trkpt>
      <trkpt lat="42.93091" lon="0.75488">
        <ele>1655.9</ele>
        <time>2020-02-23T09:40:27Z</time>
      </trkpt>
      <trkpt lat="42.93091" lon="0.75488">
        <ele>1655.9</ele>
        <time>2020-02-23T09:40:28Z</time>
      </trkpt>
      <trkpt lat="42.93091" lon="0.75488">
        <ele>1656.7</ele>
        <time>2020-02-23T09:40:29Z</time>
      </trkpt>
      <trkpt lat="42.93091" lon="0.75488">
        <ele>1656.7</ele>
        <time>2020-02-23T09:40:30Z</time>
      </trkpt>
      <trkpt lat="42.93091" lon="0.75488">
        <ele>1656.7</ele>
        <time>2020-02-23T09:40:31Z</time>
      </trkpt>
      <trkpt lat="42.93091" lon="0.75488">
        <ele>1656.7</ele>
        <time>2020-02-23T09:40:32Z</time>
      </trkpt>
      <trkpt lat="42.93091" lon="0.75488">
        <ele>1656.7</ele>
        <time>2020-02-23T09:40:33Z</time>
      </trkpt>
      <trkpt lat="42.93091" lon="0.75488">
        <ele>1656.4</ele>
        <time>2020-02-23T09:40:34Z</time>
      </trkpt>
      <trkpt lat="42.93092" lon="0.75487">
        <ele>1656.4</ele>
        <time>2020-02-23T09:40:35Z</time>
      </trkpt>
      <trkpt lat="42.93092" lon="0.75487">
        <ele>1656.4</ele>
        <time>2020-02-23T09:40:36Z</time>
      </trkpt>
      <trkpt lat="42.93092" lon="0.75487">
        <ele>1656.4</ele>
        <time>2020-02-23T09:40:37Z</time>
      </trkpt>
      <trkpt lat="42.93092" lon="0.75487">
        <ele>1656.4</ele>
        <time>2020-02-23T09:40:38Z</time>
      </trkpt>
      <trkpt lat="42.93092" lon="0.75487">
        <ele>1656.4</ele>
        <time>2020-02-23T09:40:39Z</time>
      </trkpt>
      <trkpt lat="42.93092" lon="0.75487">
        <ele>1656.4</ele>
        <time>2020-02-23T09:40:40Z</time>
      </trkpt>
      <trkpt lat="42.93092" lon="0.75487">
        <ele>1656.4</ele>
        <time>2020-02-23T09:40:41Z</time>
      </trkpt>
      <trkpt lat="42.93092" lon="0.75487">
        <ele>1656.4</ele>
        <time>2020-02-23T09:40:42Z</time>
      </trkpt>
      <trkpt lat="42.93092" lon="0.75487">
        <ele>1656.4</ele>
        <time>2020-02-23T09:40:43Z</time>
      </trkpt>
      <trkpt lat="42.93092" lon="0.75487">
        <ele>1656.4</ele>
        <time>2020-02-23T09:40:44Z</time>
      </trkpt>
      <trkpt lat="42.93092" lon="0.75487">
        <ele>1656.4</ele>
        <time>2020-02-23T09:40:45Z</time>
      </trkpt>
      <trkpt lat="42.93093" lon="0.75486">
        <ele>1656.4</ele>
        <time>2020-02-23T09:40:46Z</time>
      </trkpt>
      <trkpt lat="42.93093" lon="0.75486">
        <ele>1656.4</ele>
        <time>2020-02-23T09:40:47Z</time>
      </trkpt>
      <trkpt lat="42.93093" lon="0.75486">
        <ele>1656.4</ele>
        <time>2020-02-23T09:40:48Z</time>
      </trkpt>
      <trkpt lat="42.93093" lon="0.75486">
        <ele>1656.4</ele>
        <time>2020-02-23T09:40:49Z</time>
      </trkpt>
      <trkpt lat="42.93093" lon="0.75486">
        <ele>1656.4</ele>
        <time>2020-02-23T09:40:50Z</time>
      </trkpt>
      <trkpt lat="42.93093" lon="0.75486">
        <ele>1656.4</ele>
        <time>2020-02-23T09:40:51Z</time>
      </trkpt>
      <trkpt lat="42.93093" lon="0.75486">
        <ele>1656.4</ele>
        <time>2020-02-23T09:40:52Z</time>
      </trkpt>
      <trkpt lat="42.93093" lon="0.75486">
        <ele>1656.4</ele>
        <time>2020-02-23T09:40:53Z</time>
      </trkpt>
      <trkpt lat="42.93093" lon="0.75486">
        <ele>1656.4</ele>
        <time>2020-02-23T09:40:54Z</time>
      </trkpt>
      <trkpt lat="42.93093" lon="0.75486">
        <ele>1656.4</ele>
        <time>2020-02-23T09:40:55Z</time>
      </trkpt>
      <trkpt lat="42.93093" lon="0.75486">
        <ele>1656.4</ele>
        <time>2020-02-23T09:40:56Z</time>
      </trkpt>
      <trkpt lat="42.93094" lon="0.75485">
        <ele>1656.4</ele>
        <time>2020-02-23T09:40:57Z</time>
      </trkpt>
      <trkpt lat="42.93094" lon="0.75485">
        <ele>1656.4</ele>
        <time>2020-02-23T09:40:58Z</time>
      </trkpt>
      <trkpt lat="42.93094" lon="0.75485">
        <ele>1656.4</ele>
        <time>2020-02-23T09:40:59Z</time>
      </trkpt>
      <trkpt lat="42.93094" lon="0.75486">
        <ele>1656.4</ele>
        <time>2020-02-23T09:41:00Z</time>
      </trkpt>
      <trkpt lat="42.93094" lon="0.75486">
        <ele>1656.4</ele>
        <time>2020-02-23T09:41:01Z</time>
      </trkpt>
      <trkpt lat="42.93094" lon="0.75486">
        <ele>1656.4</ele>
        <time>2020-02-23T09:41:02Z</time>
      </trkpt>
      <trkpt lat="42.93094" lon="0.75486">
        <ele>1656.4</ele>
        <time>2020-02-23T09:41:03Z</time>
      </trkpt>
      <trkpt lat="42.93094" lon="0.75486">
        <ele>1656.4</ele>
        <time>2020-02-23T09:41:04Z</time>
      </trkpt>
      <trkpt lat="42.93094" lon="0.75486">
        <ele>1656.4</ele>
        <time>2020-02-23T09:41:05Z</time>
      </trkpt>
      <trkpt lat="42.93094" lon="0.75486">
        <ele>1656.4</ele>
        <time>2020-02-23T09:41:06Z</time>
      </trkpt>
      <trkpt lat="42.93094" lon="0.75487">
        <ele>1656.4</ele>
        <time>2020-02-23T09:41:07Z</time>
      </trkpt>
      <trkpt lat="42.93095" lon="0.75487">
        <ele>1656.2</ele>
        <time>2020-02-23T09:41:08Z</time>
      </trkpt>
      <trkpt lat="42.93095" lon="0.75487">
        <ele>1656.2</ele>
        <time>2020-02-23T09:41:09Z</time>
      </trkpt>
      <trkpt lat="42.93095" lon="0.75487">
        <ele>1656.2</ele>
        <time>2020-02-23T09:41:10Z</time>
      </trkpt>
      <trkpt lat="42.93095" lon="0.75487">
        <ele>1656.2</ele>
        <time>2020-02-23T09:41:11Z</time>
      </trkpt>
      <trkpt lat="42.93095" lon="0.75487">
        <ele>1656.2</ele>
        <time>2020-02-23T09:41:12Z</time>
      </trkpt>
      <trkpt lat="42.93095" lon="0.75487">
        <ele>1656.2</ele>
        <time>2020-02-23T09:41:13Z</time>
      </trkpt>
      <trkpt lat="42.93095" lon="0.75488">
        <ele>1656.2</ele>
        <time>2020-02-23T09:41:14Z</time>
      </trkpt>
      <trkpt lat="42.93095" lon="0.75488">
        <ele>1656.2</ele>
        <time>2020-02-23T09:41:15Z</time>
      </trkpt>
      <trkpt lat="42.93095" lon="0.75488">
        <ele>1656.2</ele>
        <time>2020-02-23T09:41:16Z</time>
      </trkpt>
      <trkpt lat="42.93095" lon="0.75488">
        <ele>1656.2</ele>
        <time>2020-02-23T09:41:17Z</time>
      </trkpt>
      <trkpt lat="42.93095" lon="0.75488">
        <ele>1655.4</ele>
        <time>2020-02-23T09:41:18Z</time>
      </trkpt>
      <trkpt lat="42.93095" lon="0.75488">
        <ele>1655.4</ele>
        <time>2020-02-23T09:41:19Z</time>
      </trkpt>
      <trkpt lat="42.93096" lon="0.75488">
        <ele>1655.4</ele>
        <time>2020-02-23T09:41:20Z</time>
      </trkpt>
      <trkpt lat="42.93096" lon="0.75489">
        <ele>1655.4</ele>
        <time>2020-02-23T09:41:21Z</time>
      </trkpt>
      <trkpt lat="42.93096" lon="0.75489">
        <ele>1655.4</ele>
        <time>2020-02-23T09:41:22Z</time>
      </trkpt>
      <trkpt lat="42.93096" lon="0.75489">
        <ele>1655.4</ele>
        <time>2020-02-23T09:41:23Z</time>
      </trkpt>
      <trkpt lat="42.93096" lon="0.75489">
        <ele>1655.4</ele>
        <time>2020-02-23T09:41:24Z</time>
      </trkpt>
      <trkpt lat="42.93096" lon="0.75489">
        <ele>1655.4</ele>
        <time>2020-02-23T09:41:25Z</time>
      </trkpt>
      <trkpt lat="42.93096" lon="0.75489">
        <ele>1655.4</ele>
        <time>2020-02-23T09:41:26Z</time>
      </trkpt>
      <trkpt lat="42.93096" lon="0.75489">
        <ele>1655.4</ele>
        <time>2020-02-23T09:41:27Z</time>
      </trkpt>
      <trkpt lat="42.93096" lon="0.7549">
        <ele>1655.4</ele>
        <time>2020-02-23T09:41:28Z</time>
      </trkpt>
      <trkpt lat="42.93096" lon="0.7549">
        <ele>1655.4</ele>
        <time>2020-02-23T09:41:29Z</time>
      </trkpt>
      <trkpt lat="42.93096" lon="0.7549">
        <ele>1655.4</ele>
        <time>2020-02-23T09:41:30Z</time>
      </trkpt>
      <trkpt lat="42.93096" lon="0.7549">
        <ele>1655.4</ele>
        <time>2020-02-23T09:41:31Z</time>
      </trkpt>
      <trkpt lat="42.93097" lon="0.7549">
        <ele>1655.4</ele>
        <time>2020-02-23T09:41:32Z</time>
      </trkpt>
      <trkpt lat="42.93097" lon="0.7549">
        <ele>1655.4</ele>
        <time>2020-02-23T09:41:33Z</time>
      </trkpt>
      <trkpt lat="42.93097" lon="0.7549">
        <ele>1655.4</ele>
        <time>2020-02-23T09:41:34Z</time>
      </trkpt>
      <trkpt lat="42.93097" lon="0.75491">
        <ele>1655.4</ele>
        <time>2020-02-23T09:41:35Z</time>
      </trkpt>
      <trkpt lat="42.93097" lon="0.75491">
        <ele>1655.4</ele>
        <time>2020-02-23T09:41:36Z</time>
      </trkpt>
      <trkpt lat="42.93097" lon="0.75491">
        <ele>1655.4</ele>
        <time>2020-02-23T09:41:37Z</time>
      </trkpt>
      <trkpt lat="42.93097" lon="0.75491">
        <ele>1655.4</ele>
        <time>2020-02-23T09:41:38Z</time>
      </trkpt>
      <trkpt lat="42.93097" lon="0.75491">
        <ele>1655.4</ele>
        <time>2020-02-23T09:41:39Z</time>
      </trkpt>
      <trkpt lat="42.93097" lon="0.75491">
        <ele>1655.4</ele>
        <time>2020-02-23T09:41:40Z</time>
      </trkpt>
      <trkpt lat="42.93097" lon="0.75491">
        <ele>1655.4</ele>
        <time>2020-02-23T09:41:41Z</time>
      </trkpt>
      <trkpt lat="42.93097" lon="0.75492">
        <ele>1655.4</ele>
        <time>2020-02-23T09:41:42Z</time>
      </trkpt>
      <trkpt lat="42.93098" lon="0.75492">
        <ele>1655.4</ele>
        <time>2020-02-23T09:41:43Z</time>
      </trkpt>
      <trkpt lat="42.93098" lon="0.75492">
        <ele>1655.4</ele>
        <time>2020-02-23T09:41:44Z</time>
      </trkpt>
      <trkpt lat="42.93098" lon="0.75492">
        <ele>1655.4</ele>
        <time>2020-02-23T09:41:45Z</time>
      </trkpt>
      <trkpt lat="42.93098" lon="0.75492">
        <ele>1655.2</ele>
        <time>2020-02-23T09:41:46Z</time>
      </trkpt>
      <trkpt lat="42.93098" lon="0.75492">
        <ele>1655.2</ele>
        <time>2020-02-23T09:41:47Z</time>
      </trkpt>
      <trkpt lat="42.93098" lon="0.75492">
        <ele>1655.2</ele>
        <time>2020-02-23T09:41:48Z</time>
      </trkpt>
      <trkpt lat="42.93098" lon="0.75492">
        <ele>1655.2</ele>
        <time>2020-02-23T09:41:49Z</time>
      </trkpt>
      <trkpt lat="42.93098" lon="0.75492">
        <ele>1655.2</ele>
        <time>2020-02-23T09:41:50Z</time>
      </trkpt>
      <trkpt lat="42.93098" lon="0.75492">
        <ele>1655.2</ele>
        <time>2020-02-23T09:41:51Z</time>
      </trkpt>
      <trkpt lat="42.93098" lon="0.75492">
        <ele>1655.2</ele>
        <time>2020-02-23T09:41:52Z</time>
      </trkpt>
      <trkpt lat="42.93098" lon="0.75492">
        <ele>1655.2</ele>
        <time>2020-02-23T09:41:53Z</time>
      </trkpt>
      <trkpt lat="42.93098" lon="0.75492">
        <ele>1655.2</ele>
        <time>2020-02-23T09:41:54Z</time>
      </trkpt>
      <trkpt lat="42.93098" lon="0.75492">
        <ele>1655.2</ele>
        <time>2020-02-23T09:41:55Z</time>
      </trkpt>
      <trkpt lat="42.93098" lon="0.75492">
        <ele>1655.2</ele>
        <time>2020-02-23T09:41:56Z</time>
      </trkpt>
      <trkpt lat="42.93098" lon="0.75492">
        <ele>1655.2</ele>
        <time>2020-02-23T09:41:57Z</time>
      </trkpt>
      <trkpt lat="42.93101" lon="0.75491">
        <ele>1654.9</ele>
        <time>2020-02-23T09:41:58Z</time>
      </trkpt>
      <trkpt lat="42.93101" lon="0.75491">
        <ele>1654.9</ele>
        <time>2020-02-23T09:41:59Z</time>
      </trkpt>
      <trkpt lat="42.93101" lon="0.75491">
        <ele>1654.9</ele>
        <time>2020-02-23T09:42:00Z</time>
      </trkpt>
      <trkpt lat="42.93101" lon="0.75491">
        <ele>1654.9</ele>
        <time>2020-02-23T09:42:01Z</time>
      </trkpt>
      <trkpt lat="42.93101" lon="0.75491">
        <ele>1654.9</ele>
        <time>2020-02-23T09:42:02Z</time>
      </trkpt>
      <trkpt lat="42.93101" lon="0.75491">
        <ele>1654.9</ele>
        <time>2020-02-23T09:42:03Z</time>
      </trkpt>
      <trkpt lat="42.93103" lon="0.7549">
        <ele>1654.9</ele>
        <time>2020-02-23T09:42:04Z</time>
      </trkpt>
      <trkpt lat="42.93103" lon="0.7549">
        <ele>1654.9</ele>
        <time>2020-02-23T09:42:05Z</time>
      </trkpt>
      <trkpt lat="42.93103" lon="0.7549">
        <ele>1654.9</ele>
        <time>2020-02-23T09:42:06Z</time>
      </trkpt>
      <trkpt lat="42.93103" lon="0.7549">
        <ele>1654.9</ele>
        <time>2020-02-23T09:42:07Z</time>
      </trkpt>
      <trkpt lat="42.93103" lon="0.7549">
        <ele>1654.9</ele>
        <time>2020-02-23T09:42:08Z</time>
      </trkpt>
      <trkpt lat="42.93103" lon="0.7549">
        <ele>1654.9</ele>
        <time>2020-02-23T09:42:09Z</time>
      </trkpt>
      <trkpt lat="42.93103" lon="0.7549">
        <ele>1654.9</ele>
        <time>2020-02-23T09:42:10Z</time>
      </trkpt>
      <trkpt lat="42.93103" lon="0.7549">
        <ele>1654.9</ele>
        <time>2020-02-23T09:42:11Z</time>
      </trkpt>
      <trkpt lat="42.93103" lon="0.7549">
        <ele>1654.9</ele>
        <time>2020-02-23T09:42:12Z</time>
      </trkpt>
      <trkpt lat="42.93103" lon="0.7549">
        <ele>1654.9</ele>
        <time>2020-02-23T09:42:13Z</time>
      </trkpt>
      <trkpt lat="42.93103" lon="0.7549">
        <ele>1654.9</ele>
        <time>2020-02-23T09:42:14Z</time>
      </trkpt>
      <trkpt lat="42.93103" lon="0.7549">
        <ele>1654.9</ele>
        <time>2020-02-23T09:42:15Z</time>
      </trkpt>
      <trkpt lat="42.93103" lon="0.7549">
        <ele>1654.9</ele>
        <time>2020-02-23T09:42:16Z</time>
      </trkpt>
      <trkpt lat="42.93103" lon="0.7549">
        <ele>1654.9</ele>
        <time>2020-02-23T09:42:17Z</time>
      </trkpt>
      <trkpt lat="42.93103" lon="0.7549">
        <ele>1655</ele>
        <time>2020-02-23T09:42:18Z</time>
      </trkpt>
      <trkpt lat="42.93104" lon="0.75488">
        <ele>1655.6</ele>
        <time>2020-02-23T09:42:19Z</time>
      </trkpt>
      <trkpt lat="42.93104" lon="0.75488">
        <ele>1655.6</ele>
        <time>2020-02-23T09:42:20Z</time>
      </trkpt>
      <trkpt lat="42.93104" lon="0.75488">
        <ele>1655.6</ele>
        <time>2020-02-23T09:42:21Z</time>
      </trkpt>
      <trkpt lat="42.93104" lon="0.75488">
        <ele>1654.8</ele>
        <time>2020-02-23T09:42:22Z</time>
      </trkpt>
      <trkpt lat="42.93105" lon="0.75489">
        <ele>1654.9</ele>
        <time>2020-02-23T09:42:23Z</time>
      </trkpt>
      <trkpt lat="42.93105" lon="0.75489">
        <ele>1654.9</ele>
        <time>2020-02-23T09:42:24Z</time>
      </trkpt>
      <trkpt lat="42.93105" lon="0.75489">
        <ele>1654.9</ele>
        <time>2020-02-23T09:42:25Z</time>
      </trkpt>
      <trkpt lat="42.93105" lon="0.7549">
        <ele>1654.9</ele>
        <time>2020-02-23T09:42:26Z</time>
      </trkpt>
      <trkpt lat="42.93105" lon="0.7549">
        <ele>1655</ele>
        <time>2020-02-23T09:42:27Z</time>
      </trkpt>
      <trkpt lat="42.93106" lon="0.7549">
        <ele>1655</ele>
        <time>2020-02-23T09:42:28Z</time>
      </trkpt>
      <trkpt lat="42.93106" lon="0.7549">
        <ele>1655</ele>
        <time>2020-02-23T09:42:29Z</time>
      </trkpt>
      <trkpt lat="42.93106" lon="0.75491">
        <ele>1655</ele>
        <time>2020-02-23T09:42:30Z</time>
      </trkpt>
      <trkpt lat="42.93106" lon="0.75491">
        <ele>1655</ele>
        <time>2020-02-23T09:42:31Z</time>
      </trkpt>
      <trkpt lat="42.93106" lon="0.75491">
        <ele>1655.1</ele>
        <time>2020-02-23T09:42:32Z</time>
      </trkpt>
      <trkpt lat="42.93107" lon="0.75492">
        <ele>1655.1</ele>
        <time>2020-02-23T09:42:33Z</time>
      </trkpt>
      <trkpt lat="42.93107" lon="0.75492">
        <ele>1655.1</ele>
        <time>2020-02-23T09:42:34Z</time>
      </trkpt>
      <trkpt lat="42.93107" lon="0.75492">
        <ele>1655.1</ele>
        <time>2020-02-23T09:42:35Z</time>
      </trkpt>
      <trkpt lat="42.93107" lon="0.75492">
        <ele>1654.3</ele>
        <time>2020-02-23T09:42:36Z</time>
      </trkpt>
      <trkpt lat="42.93107" lon="0.75493">
        <ele>1654.3</ele>
        <time>2020-02-23T09:42:37Z</time>
      </trkpt>
      <trkpt lat="42.93108" lon="0.75493">
        <ele>1654.4</ele>
        <time>2020-02-23T09:42:38Z</time>
      </trkpt>
      <trkpt lat="42.93108" lon="0.75493">
        <ele>1654.4</ele>
        <time>2020-02-23T09:42:39Z</time>
      </trkpt>
      <trkpt lat="42.93108" lon="0.75494">
        <ele>1654.4</ele>
        <time>2020-02-23T09:42:40Z</time>
      </trkpt>
      <trkpt lat="42.93108" lon="0.75494">
        <ele>1654.4</ele>
        <time>2020-02-23T09:42:41Z</time>
      </trkpt>
      <trkpt lat="42.93108" lon="0.75494">
        <ele>1654.4</ele>
        <time>2020-02-23T09:42:42Z</time>
      </trkpt>
      <trkpt lat="42.93109" lon="0.75494">
        <ele>1654.5</ele>
        <time>2020-02-23T09:42:43Z</time>
      </trkpt>
      <trkpt lat="42.93109" lon="0.75495">
        <ele>1654.5</ele>
        <time>2020-02-23T09:42:44Z</time>
      </trkpt>
      <trkpt lat="42.93109" lon="0.75495">
        <ele>1654.5</ele>
        <time>2020-02-23T09:42:45Z</time>
      </trkpt>
      <trkpt lat="42.93109" lon="0.75495">
        <ele>1654.5</ele>
        <time>2020-02-23T09:42:46Z</time>
      </trkpt>
      <trkpt lat="42.93109" lon="0.75496">
        <ele>1654.5</ele>
        <time>2020-02-23T09:42:47Z</time>
      </trkpt>
      <trkpt lat="42.9311" lon="0.75496">
        <ele>1654.6</ele>
        <time>2020-02-23T09:42:48Z</time>
      </trkpt>
      <trkpt lat="42.9311" lon="0.75496">
        <ele>1654.6</ele>
        <time>2020-02-23T09:42:49Z</time>
      </trkpt>
      <trkpt lat="42.9311" lon="0.75496">
        <ele>1654.6</ele>
        <time>2020-02-23T09:42:50Z</time>
      </trkpt>
      <trkpt lat="42.9311" lon="0.75497">
        <ele>1654</ele>
        <time>2020-02-23T09:42:51Z</time>
      </trkpt>
      <trkpt lat="42.9311" lon="0.75497">
        <ele>1653.9</ele>
        <time>2020-02-23T09:42:52Z</time>
      </trkpt>
      <trkpt lat="42.93111" lon="0.75497">
        <ele>1653.9</ele>
        <time>2020-02-23T09:42:53Z</time>
      </trkpt>
      <trkpt lat="42.93111" lon="0.75497">
        <ele>1653.9</ele>
        <time>2020-02-23T09:42:54Z</time>
      </trkpt>
      <trkpt lat="42.93111" lon="0.75497">
        <ele>1653.9</ele>
        <time>2020-02-23T09:42:55Z</time>
      </trkpt>
      <trkpt lat="42.93111" lon="0.75497">
        <ele>1654</ele>
        <time>2020-02-23T09:42:56Z</time>
      </trkpt>
      <trkpt lat="42.93111" lon="0.75497">
        <ele>1654</ele>
        <time>2020-02-23T09:42:57Z</time>
      </trkpt>
      <trkpt lat="42.93112" lon="0.75497">
        <ele>1654</ele>
        <time>2020-02-23T09:42:58Z</time>
      </trkpt>
      <trkpt lat="42.93112" lon="0.75497">
        <ele>1654</ele>
        <time>2020-02-23T09:42:59Z</time>
      </trkpt>
      <trkpt lat="42.93112" lon="0.75497">
        <ele>1654</ele>
        <time>2020-02-23T09:43:00Z</time>
      </trkpt>
      <trkpt lat="42.93112" lon="0.75497">
        <ele>1654.1</ele>
        <time>2020-02-23T09:43:01Z</time>
      </trkpt>
      <trkpt lat="42.93112" lon="0.75497">
        <ele>1654.1</ele>
        <time>2020-02-23T09:43:02Z</time>
      </trkpt>
      <trkpt lat="42.93113" lon="0.75497">
        <ele>1654.1</ele>
        <time>2020-02-23T09:43:03Z</time>
      </trkpt>
      <trkpt lat="42.93113" lon="0.75497">
        <ele>1654.1</ele>
        <time>2020-02-23T09:43:04Z</time>
      </trkpt>
      <trkpt lat="42.93113" lon="0.75497">
        <ele>1654.2</ele>
        <time>2020-02-23T09:43:05Z</time>
      </trkpt>
      <trkpt lat="42.93113" lon="0.75497">
        <ele>1654.2</ele>
        <time>2020-02-23T09:43:06Z</time>
      </trkpt>
      <trkpt lat="42.93113" lon="0.75497">
        <ele>1654.2</ele>
        <time>2020-02-23T09:43:07Z</time>
      </trkpt>
      <trkpt lat="42.93113" lon="0.75497">
        <ele>1654</ele>
        <time>2020-02-23T09:43:08Z</time>
      </trkpt>
      <trkpt lat="42.93114" lon="0.75497">
        <ele>1654</ele>
        <time>2020-02-23T09:43:09Z</time>
      </trkpt>
      <trkpt lat="42.93114" lon="0.75497">
        <ele>1654.1</ele>
        <time>2020-02-23T09:43:10Z</time>
      </trkpt>
      <trkpt lat="42.93114" lon="0.75497">
        <ele>1654.1</ele>
        <time>2020-02-23T09:43:11Z</time>
      </trkpt>
      <trkpt lat="42.93114" lon="0.75497">
        <ele>1654.1</ele>
        <time>2020-02-23T09:43:12Z</time>
      </trkpt>
      <trkpt lat="42.93114" lon="0.75497">
        <ele>1654.1</ele>
        <time>2020-02-23T09:43:13Z</time>
      </trkpt>
      <trkpt lat="42.93115" lon="0.75497">
        <ele>1654.1</ele>
        <time>2020-02-23T09:43:14Z</time>
      </trkpt>
      <trkpt lat="42.93115" lon="0.75497">
        <ele>1654.2</ele>
        <time>2020-02-23T09:43:15Z</time>
      </trkpt>
      <trkpt lat="42.93115" lon="0.75497">
        <ele>1654.2</ele>
        <time>2020-02-23T09:43:16Z</time>
      </trkpt>
      <trkpt lat="42.93115" lon="0.75497">
        <ele>1654.2</ele>
        <time>2020-02-23T09:43:17Z</time>
      </trkpt>
      <trkpt lat="42.93115" lon="0.75497">
        <ele>1654.2</ele>
        <time>2020-02-23T09:43:18Z</time>
      </trkpt>
      <trkpt lat="42.93115" lon="0.75497">
        <ele>1654.2</ele>
        <time>2020-02-23T09:43:19Z</time>
      </trkpt>
      <trkpt lat="42.93116" lon="0.75497">
        <ele>1654.3</ele>
        <time>2020-02-23T09:43:20Z</time>
      </trkpt>
      <trkpt lat="42.93116" lon="0.75497">
        <ele>1654.3</ele>
        <time>2020-02-23T09:43:21Z</time>
      </trkpt>
      <trkpt lat="42.93116" lon="0.75497">
        <ele>1654.3</ele>
        <time>2020-02-23T09:43:22Z</time>
      </trkpt>
      <trkpt lat="42.93116" lon="0.75497">
        <ele>1654.9</ele>
        <time>2020-02-23T09:43:23Z</time>
      </trkpt>
      <trkpt lat="42.93116" lon="0.75497">
        <ele>1654.9</ele>
        <time>2020-02-23T09:43:24Z</time>
      </trkpt>
      <trkpt lat="42.93117" lon="0.75497">
        <ele>1654.8</ele>
        <time>2020-02-23T09:43:25Z</time>
      </trkpt>
      <trkpt lat="42.93117" lon="0.75497">
        <ele>1654.8</ele>
        <time>2020-02-23T09:43:26Z</time>
      </trkpt>
      <trkpt lat="42.93117" lon="0.75497">
        <ele>1654.8</ele>
        <time>2020-02-23T09:43:27Z</time>
      </trkpt>
      <trkpt lat="42.93117" lon="0.75497">
        <ele>1654.8</ele>
        <time>2020-02-23T09:43:28Z</time>
      </trkpt>
      <trkpt lat="42.93117" lon="0.75497">
        <ele>1654.9</ele>
        <time>2020-02-23T09:43:29Z</time>
      </trkpt>
      <trkpt lat="42.93118" lon="0.75497">
        <ele>1654.9</ele>
        <time>2020-02-23T09:43:30Z</time>
      </trkpt>
      <trkpt lat="42.93118" lon="0.75497">
        <ele>1654.9</ele>
        <time>2020-02-23T09:43:31Z</time>
      </trkpt>
      <trkpt lat="42.93118" lon="0.75496">
        <ele>1654.9</ele>
        <time>2020-02-23T09:43:32Z</time>
      </trkpt>
      <trkpt lat="42.93118" lon="0.75496">
        <ele>1654.9</ele>
        <time>2020-02-23T09:43:33Z</time>
      </trkpt>
      <trkpt lat="42.93118" lon="0.75496">
        <ele>1655</ele>
        <time>2020-02-23T09:43:34Z</time>
      </trkpt>
      <trkpt lat="42.93118" lon="0.75496">
        <ele>1655</ele>
        <time>2020-02-23T09:43:35Z</time>
      </trkpt>
      <trkpt lat="42.93119" lon="0.75496">
        <ele>1655</ele>
        <time>2020-02-23T09:43:36Z</time>
      </trkpt>
      <trkpt lat="42.93119" lon="0.75496">
        <ele>1655</ele>
        <time>2020-02-23T09:43:37Z</time>
      </trkpt>
      <trkpt lat="42.93119" lon="0.75496">
        <ele>1655</ele>
        <time>2020-02-23T09:43:38Z</time>
      </trkpt>
      <trkpt lat="42.93119" lon="0.75496">
        <ele>1655.1</ele>
        <time>2020-02-23T09:43:39Z</time>
      </trkpt>
      <trkpt lat="42.93119" lon="0.75496">
        <ele>1655.1</ele>
        <time>2020-02-23T09:43:40Z</time>
      </trkpt>
      <trkpt lat="42.9312" lon="0.75496">
        <ele>1655.1</ele>
        <time>2020-02-23T09:43:41Z</time>
      </trkpt>
      <trkpt lat="42.9312" lon="0.75496">
        <ele>1654.9</ele>
        <time>2020-02-23T09:43:42Z</time>
      </trkpt>
      <trkpt lat="42.9312" lon="0.75496">
        <ele>1655</ele>
        <time>2020-02-23T09:43:43Z</time>
      </trkpt>
      <trkpt lat="42.9312" lon="0.75496">
        <ele>1655</ele>
        <time>2020-02-23T09:43:44Z</time>
      </trkpt>
      <trkpt lat="42.9312" lon="0.75496">
        <ele>1655</ele>
        <time>2020-02-23T09:43:45Z</time>
      </trkpt>
      <trkpt lat="42.9312" lon="0.75496">
        <ele>1655</ele>
        <time>2020-02-23T09:43:46Z</time>
      </trkpt>
      <trkpt lat="42.9312" lon="0.75496">
        <ele>1655</ele>
        <time>2020-02-23T09:43:47Z</time>
      </trkpt>
      <trkpt lat="42.93121" lon="0.75496">
        <ele>1655.1</ele>
        <time>2020-02-23T09:43:48Z</time>
      </trkpt>
      <trkpt lat="42.93121" lon="0.75495">
        <ele>1655.1</ele>
        <time>2020-02-23T09:43:49Z</time>
      </trkpt>
      <trkpt lat="42.93121" lon="0.75495">
        <ele>1655.1</ele>
        <time>2020-02-23T09:43:50Z</time>
      </trkpt>
      <trkpt lat="42.93121" lon="0.75495">
        <ele>1655.1</ele>
        <time>2020-02-23T09:43:51Z</time>
      </trkpt>
      <trkpt lat="42.93121" lon="0.75495">
        <ele>1655.1</ele>
        <time>2020-02-23T09:43:52Z</time>
      </trkpt>
      <trkpt lat="42.93121" lon="0.75495">
        <ele>1655.2</ele>
        <time>2020-02-23T09:43:53Z</time>
      </trkpt>
      <trkpt lat="42.93121" lon="0.75495">
        <ele>1655.2</ele>
        <time>2020-02-23T09:43:54Z</time>
      </trkpt>
      <trkpt lat="42.93121" lon="0.75495">
        <ele>1655.2</ele>
        <time>2020-02-23T09:43:55Z</time>
      </trkpt>
      <trkpt lat="42.93122" lon="0.75494">
        <ele>1655.2</ele>
        <time>2020-02-23T09:43:56Z</time>
      </trkpt>
      <trkpt lat="42.93122" lon="0.75494">
        <ele>1655.2</ele>
        <time>2020-02-23T09:43:57Z</time>
      </trkpt>
      <trkpt lat="42.93122" lon="0.75494">
        <ele>1655.2</ele>
        <time>2020-02-23T09:43:58Z</time>
      </trkpt>
      <trkpt lat="42.93122" lon="0.75494">
        <ele>1655.2</ele>
        <time>2020-02-23T09:43:59Z</time>
      </trkpt>
      <trkpt lat="42.93122" lon="0.75494">
        <ele>1655.2</ele>
        <time>2020-02-23T09:44:00Z</time>
      </trkpt>
      <trkpt lat="42.93122" lon="0.75494">
        <ele>1655.2</ele>
        <time>2020-02-23T09:44:01Z</time>
      </trkpt>
      <trkpt lat="42.93122" lon="0.75494">
        <ele>1655.2</ele>
        <time>2020-02-23T09:44:02Z</time>
      </trkpt>
      <trkpt lat="42.93122" lon="0.75493">
        <ele>1655.2</ele>
        <time>2020-02-23T09:44:03Z</time>
      </trkpt>
      <trkpt lat="42.93122" lon="0.75493">
        <ele>1655.2</ele>
        <time>2020-02-23T09:44:04Z</time>
      </trkpt>
      <trkpt lat="42.93123" lon="0.75493">
        <ele>1655.2</ele>
        <time>2020-02-23T09:44:05Z</time>
      </trkpt>
      <trkpt lat="42.93123" lon="0.75493">
        <ele>1655.2</ele>
        <time>2020-02-23T09:44:06Z</time>
      </trkpt>
      <trkpt lat="42.93123" lon="0.75493">
        <ele>1655.1</ele>
        <time>2020-02-23T09:44:07Z</time>
      </trkpt>
      <trkpt lat="42.93123" lon="0.75493">
        <ele>1655.1</ele>
        <time>2020-02-23T09:44:08Z</time>
      </trkpt>
      <trkpt lat="42.93123" lon="0.75493">
        <ele>1655.1</ele>
        <time>2020-02-23T09:44:09Z</time>
      </trkpt>
      <trkpt lat="42.93123" lon="0.75492">
        <ele>1655.1</ele>
        <time>2020-02-23T09:44:10Z</time>
      </trkpt>
      <trkpt lat="42.93123" lon="0.75492">
        <ele>1655.7</ele>
        <time>2020-02-23T09:44:11Z</time>
      </trkpt>
      <trkpt lat="42.93123" lon="0.75492">
        <ele>1655.7</ele>
        <time>2020-02-23T09:44:12Z</time>
      </trkpt>
      <trkpt lat="42.93124" lon="0.75492">
        <ele>1655.7</ele>
        <time>2020-02-23T09:44:13Z</time>
      </trkpt>
      <trkpt lat="42.93124" lon="0.75492">
        <ele>1655.7</ele>
        <time>2020-02-23T09:44:14Z</time>
      </trkpt>
      <trkpt lat="42.93124" lon="0.75491">
        <ele>1655.7</ele>
        <time>2020-02-23T09:44:15Z</time>
      </trkpt>
      <trkpt lat="42.93124" lon="0.75491">
        <ele>1655.7</ele>
        <time>2020-02-23T09:44:16Z</time>
      </trkpt>
      <trkpt lat="42.93124" lon="0.75491">
        <ele>1655.7</ele>
        <time>2020-02-23T09:44:17Z</time>
      </trkpt>
      <trkpt lat="42.93124" lon="0.75491">
        <ele>1655.7</ele>
        <time>2020-02-23T09:44:18Z</time>
      </trkpt>
      <trkpt lat="42.93124" lon="0.7549">
        <ele>1655.7</ele>
        <time>2020-02-23T09:44:19Z</time>
      </trkpt>
      <trkpt lat="42.93124" lon="0.7549">
        <ele>1655.7</ele>
        <time>2020-02-23T09:44:20Z</time>
      </trkpt>
      <trkpt lat="42.93124" lon="0.7549">
        <ele>1655.7</ele>
        <time>2020-02-23T09:44:21Z</time>
      </trkpt>
      <trkpt lat="42.93124" lon="0.7549">
        <ele>1655.7</ele>
        <time>2020-02-23T09:44:22Z</time>
      </trkpt>
      <trkpt lat="42.93124" lon="0.75489">
        <ele>1655.7</ele>
        <time>2020-02-23T09:44:23Z</time>
      </trkpt>
      <trkpt lat="42.93124" lon="0.75489">
        <ele>1655.7</ele>
        <time>2020-02-23T09:44:24Z</time>
      </trkpt>
      <trkpt lat="42.93124" lon="0.75489">
        <ele>1655.7</ele>
        <time>2020-02-23T09:44:25Z</time>
      </trkpt>
      <trkpt lat="42.93124" lon="0.75488">
        <ele>1655.7</ele>
        <time>2020-02-23T09:44:26Z</time>
      </trkpt>
      <trkpt lat="42.93124" lon="0.75488">
        <ele>1655.7</ele>
        <time>2020-02-23T09:44:27Z</time>
      </trkpt>
      <trkpt lat="42.93124" lon="0.75488">
        <ele>1656.4</ele>
        <time>2020-02-23T09:44:28Z</time>
      </trkpt>
      <trkpt lat="42.93124" lon="0.75488">
        <ele>1656.4</ele>
        <time>2020-02-23T09:44:29Z</time>
      </trkpt>
      <trkpt lat="42.93124" lon="0.75487">
        <ele>1656.4</ele>
        <time>2020-02-23T09:44:30Z</time>
      </trkpt>
      <trkpt lat="42.93124" lon="0.75487">
        <ele>1656.4</ele>
        <time>2020-02-23T09:44:31Z</time>
      </trkpt>
      <trkpt lat="42.93124" lon="0.75487">
        <ele>1656.4</ele>
        <time>2020-02-23T09:44:32Z</time>
      </trkpt>
      <trkpt lat="42.93124" lon="0.75487">
        <ele>1656.4</ele>
        <time>2020-02-23T09:44:33Z</time>
      </trkpt>
      <trkpt lat="42.93124" lon="0.75487">
        <ele>1656.4</ele>
        <time>2020-02-23T09:44:34Z</time>
      </trkpt>
      <trkpt lat="42.93124" lon="0.75487">
        <ele>1656.4</ele>
        <time>2020-02-23T09:44:35Z</time>
      </trkpt>
      <trkpt lat="42.93124" lon="0.75487">
        <ele>1656.4</ele>
        <time>2020-02-23T09:44:36Z</time>
      </trkpt>
      <trkpt lat="42.93124" lon="0.75487">
        <ele>1656.4</ele>
        <time>2020-02-23T09:44:37Z</time>
      </trkpt>
      <trkpt lat="42.93124" lon="0.75487">
        <ele>1656.4</ele>
        <time>2020-02-23T09:44:38Z</time>
      </trkpt>
      <trkpt lat="42.93124" lon="0.75487">
        <ele>1656.4</ele>
        <time>2020-02-23T09:44:39Z</time>
      </trkpt>
      <trkpt lat="42.93124" lon="0.75487">
        <ele>1656.4</ele>
        <time>2020-02-23T09:44:40Z</time>
      </trkpt>
      <trkpt lat="42.93124" lon="0.75487">
        <ele>1656.4</ele>
        <time>2020-02-23T09:44:41Z</time>
      </trkpt>
      <trkpt lat="42.93124" lon="0.75487">
        <ele>1656.4</ele>
        <time>2020-02-23T09:44:42Z</time>
      </trkpt>
      <trkpt lat="42.93124" lon="0.75487">
        <ele>1656.4</ele>
        <time>2020-02-23T09:44:43Z</time>
      </trkpt>
      <trkpt lat="42.93124" lon="0.75487">
        <ele>1656.4</ele>
        <time>2020-02-23T09:44:44Z</time>
      </trkpt>
      <trkpt lat="42.93124" lon="0.75487">
        <ele>1656.4</ele>
        <time>2020-02-23T09:44:45Z</time>
      </trkpt>
      <trkpt lat="42.93124" lon="0.75487">
        <ele>1656.4</ele>
        <time>2020-02-23T09:44:46Z</time>
      </trkpt>
      <trkpt lat="42.93124" lon="0.75487">
        <ele>1656.4</ele>
        <time>2020-02-23T09:44:47Z</time>
      </trkpt>
      <trkpt lat="42.93124" lon="0.75487">
        <ele>1656.4</ele>
        <time>2020-02-23T09:44:48Z</time>
      </trkpt>
      <trkpt lat="42.93124" lon="0.75487">
        <ele>1656.4</ele>
        <time>2020-02-23T09:44:49Z</time>
      </trkpt>
      <trkpt lat="42.93124" lon="0.75487">
        <ele>1656.4</ele>
        <time>2020-02-23T09:44:50Z</time>
      </trkpt>
      <trkpt lat="42.93124" lon="0.75487">
        <ele>1656.4</ele>
        <time>2020-02-23T09:44:51Z</time>
      </trkpt>
      <trkpt lat="42.93124" lon="0.75487">
        <ele>1656.4</ele>
        <time>2020-02-23T09:44:52Z</time>
      </trkpt>
      <trkpt lat="42.93127" lon="0.75484">
        <ele>1656.3</ele>
        <time>2020-02-23T09:44:53Z</time>
      </trkpt>
      <trkpt lat="42.93127" lon="0.75484">
        <ele>1656.3</ele>
        <time>2020-02-23T09:44:54Z</time>
      </trkpt>
      <trkpt lat="42.93127" lon="0.75484">
        <ele>1656.3</ele>
        <time>2020-02-23T09:44:55Z</time>
      </trkpt>
      <trkpt lat="42.93127" lon="0.75484">
        <ele>1656.3</ele>
        <time>2020-02-23T09:44:56Z</time>
      </trkpt>
      <trkpt lat="42.93127" lon="0.75484">
        <ele>1656.3</ele>
        <time>2020-02-23T09:44:57Z</time>
      </trkpt>
      <trkpt lat="42.93127" lon="0.75484">
        <ele>1656.3</ele>
        <time>2020-02-23T09:44:58Z</time>
      </trkpt>
      <trkpt lat="42.93127" lon="0.75484">
        <ele>1656.3</ele>
        <time>2020-02-23T09:44:59Z</time>
      </trkpt>
      <trkpt lat="42.93128" lon="0.75481">
        <ele>1656.9</ele>
        <time>2020-02-23T09:45:00Z</time>
      </trkpt>
      <trkpt lat="42.93128" lon="0.75481">
        <ele>1656.9</ele>
        <time>2020-02-23T09:45:01Z</time>
      </trkpt>
      <trkpt lat="42.93128" lon="0.75481">
        <ele>1656.9</ele>
        <time>2020-02-23T09:45:02Z</time>
      </trkpt>
      <trkpt lat="42.93128" lon="0.75481">
        <ele>1656.9</ele>
        <time>2020-02-23T09:45:03Z</time>
      </trkpt>
      <trkpt lat="42.93128" lon="0.75481">
        <ele>1656.9</ele>
        <time>2020-02-23T09:45:04Z</time>
      </trkpt>
      <trkpt lat="42.93129" lon="0.75479">
        <ele>1657.5</ele>
        <time>2020-02-23T09:45:05Z</time>
      </trkpt>
      <trkpt lat="42.93129" lon="0.75479">
        <ele>1657.5</ele>
        <time>2020-02-23T09:45:06Z</time>
      </trkpt>
      <trkpt lat="42.93129" lon="0.75479">
        <ele>1657.5</ele>
        <time>2020-02-23T09:45:07Z</time>
      </trkpt>
      <trkpt lat="42.93129" lon="0.75479">
        <ele>1657.5</ele>
        <time>2020-02-23T09:45:08Z</time>
      </trkpt>
      <trkpt lat="42.93129" lon="0.75479">
        <ele>1657.5</ele>
        <time>2020-02-23T09:45:09Z</time>
      </trkpt>
      <trkpt lat="42.93129" lon="0.75479">
        <ele>1657.5</ele>
        <time>2020-02-23T09:45:10Z</time>
      </trkpt>
      <trkpt lat="42.93129" lon="0.75479">
        <ele>1657.5</ele>
        <time>2020-02-23T09:45:11Z</time>
      </trkpt>
      <trkpt lat="42.93129" lon="0.75479">
        <ele>1657.5</ele>
        <time>2020-02-23T09:45:12Z</time>
      </trkpt>
      <trkpt lat="42.93129" lon="0.75479">
        <ele>1657.5</ele>
        <time>2020-02-23T09:45:13Z</time>
      </trkpt>
      <trkpt lat="42.93129" lon="0.75479">
        <ele>1657.5</ele>
        <time>2020-02-23T09:45:14Z</time>
      </trkpt>
      <trkpt lat="42.93129" lon="0.75479">
        <ele>1657.5</ele>
        <time>2020-02-23T09:45:15Z</time>
      </trkpt>
      <trkpt lat="42.93129" lon="0.75479">
        <ele>1657.5</ele>
        <time>2020-02-23T09:45:16Z</time>
      </trkpt>
      <trkpt lat="42.93129" lon="0.75474">
        <ele>1658.4</ele>
        <time>2020-02-23T09:45:17Z</time>
      </trkpt>
      <trkpt lat="42.93129" lon="0.75474">
        <ele>1658.4</ele>
        <time>2020-02-23T09:45:18Z</time>
      </trkpt>
      <trkpt lat="42.93129" lon="0.75473">
        <ele>1658.4</ele>
        <time>2020-02-23T09:45:19Z</time>
      </trkpt>
      <trkpt lat="42.93129" lon="0.75472">
        <ele>1658.4</ele>
        <time>2020-02-23T09:45:20Z</time>
      </trkpt>
      <trkpt lat="42.93129" lon="0.75471">
        <ele>1658.4</ele>
        <time>2020-02-23T09:45:21Z</time>
      </trkpt>
      <trkpt lat="42.93128" lon="0.7547">
        <ele>1659.1</ele>
        <time>2020-02-23T09:45:22Z</time>
      </trkpt>
      <trkpt lat="42.93128" lon="0.75469">
        <ele>1659.1</ele>
        <time>2020-02-23T09:45:23Z</time>
      </trkpt>
      <trkpt lat="42.93128" lon="0.75468">
        <ele>1659.1</ele>
        <time>2020-02-23T09:45:24Z</time>
      </trkpt>
      <trkpt lat="42.93128" lon="0.75467">
        <ele>1659.1</ele>
        <time>2020-02-23T09:45:25Z</time>
      </trkpt>
      <trkpt lat="42.93128" lon="0.75466">
        <ele>1659.9</ele>
        <time>2020-02-23T09:45:26Z</time>
      </trkpt>
      <trkpt lat="42.93128" lon="0.75465">
        <ele>1659.9</ele>
        <time>2020-02-23T09:45:27Z</time>
      </trkpt>
      <trkpt lat="42.93127" lon="0.75464">
        <ele>1659.9</ele>
        <time>2020-02-23T09:45:28Z</time>
      </trkpt>
      <trkpt lat="42.93127" lon="0.75463">
        <ele>1659.9</ele>
        <time>2020-02-23T09:45:29Z</time>
      </trkpt>
      <trkpt lat="42.93127" lon="0.75462">
        <ele>1659.9</ele>
        <time>2020-02-23T09:45:30Z</time>
      </trkpt>
      <trkpt lat="42.93127" lon="0.75462">
        <ele>1660.7</ele>
        <time>2020-02-23T09:45:31Z</time>
      </trkpt>
      <trkpt lat="42.93127" lon="0.75461">
        <ele>1660.7</ele>
        <time>2020-02-23T09:45:32Z</time>
      </trkpt>
      <trkpt lat="42.93127" lon="0.7546">
        <ele>1660.7</ele>
        <time>2020-02-23T09:45:33Z</time>
      </trkpt>
      <trkpt lat="42.93127" lon="0.7546">
        <ele>1660.7</ele>
        <time>2020-02-23T09:45:34Z</time>
      </trkpt>
      <trkpt lat="42.93127" lon="0.75459">
        <ele>1660.7</ele>
        <time>2020-02-23T09:45:35Z</time>
      </trkpt>
      <trkpt lat="42.93127" lon="0.75458">
        <ele>1660.7</ele>
        <time>2020-02-23T09:45:36Z</time>
      </trkpt>
      <trkpt lat="42.93127" lon="0.75458">
        <ele>1661.6</ele>
        <time>2020-02-23T09:45:37Z</time>
      </trkpt>
      <trkpt lat="42.93127" lon="0.75457">
        <ele>1661.6</ele>
        <time>2020-02-23T09:45:38Z</time>
      </trkpt>
      <trkpt lat="42.93127" lon="0.75457">
        <ele>1661.6</ele>
        <time>2020-02-23T09:45:39Z</time>
      </trkpt>
      <trkpt lat="42.93127" lon="0.75456">
        <ele>1661.6</ele>
        <time>2020-02-23T09:45:40Z</time>
      </trkpt>
      <trkpt lat="42.93127" lon="0.75456">
        <ele>1661.6</ele>
        <time>2020-02-23T09:45:41Z</time>
      </trkpt>
      <trkpt lat="42.93127" lon="0.75455">
        <ele>1661.6</ele>
        <time>2020-02-23T09:45:42Z</time>
      </trkpt>
      <trkpt lat="42.93127" lon="0.75455">
        <ele>1661.6</ele>
        <time>2020-02-23T09:45:43Z</time>
      </trkpt>
      <trkpt lat="42.93127" lon="0.75454">
        <ele>1661.6</ele>
        <time>2020-02-23T09:45:44Z</time>
      </trkpt>
      <trkpt lat="42.93127" lon="0.75454">
        <ele>1662.5</ele>
        <time>2020-02-23T09:45:45Z</time>
      </trkpt>
      <trkpt lat="42.93127" lon="0.75453">
        <ele>1662.5</ele>
        <time>2020-02-23T09:45:46Z</time>
      </trkpt>
      <trkpt lat="42.93127" lon="0.75453">
        <ele>1662.5</ele>
        <time>2020-02-23T09:45:47Z</time>
      </trkpt>
      <trkpt lat="42.93127" lon="0.75452">
        <ele>1662.5</ele>
        <time>2020-02-23T09:45:48Z</time>
      </trkpt>
      <trkpt lat="42.93127" lon="0.75452">
        <ele>1662.5</ele>
        <time>2020-02-23T09:45:49Z</time>
      </trkpt>
      <trkpt lat="42.93127" lon="0.75451">
        <ele>1662.5</ele>
        <time>2020-02-23T09:45:50Z</time>
      </trkpt>
      <trkpt lat="42.93127" lon="0.75451">
        <ele>1662.5</ele>
        <time>2020-02-23T09:45:51Z</time>
      </trkpt>
      <trkpt lat="42.93127" lon="0.7545">
        <ele>1662.5</ele>
        <time>2020-02-23T09:45:52Z</time>
      </trkpt>
      <trkpt lat="42.93127" lon="0.7545">
        <ele>1662.5</ele>
        <time>2020-02-23T09:45:53Z</time>
      </trkpt>
      <trkpt lat="42.93127" lon="0.75449">
        <ele>1663.5</ele>
        <time>2020-02-23T09:45:54Z</time>
      </trkpt>
      <trkpt lat="42.93127" lon="0.75448">
        <ele>1663.5</ele>
        <time>2020-02-23T09:45:55Z</time>
      </trkpt>
      <trkpt lat="42.93128" lon="0.75448">
        <ele>1663.5</ele>
        <time>2020-02-23T09:45:56Z</time>
      </trkpt>
      <trkpt lat="42.93128" lon="0.75447">
        <ele>1663.5</ele>
        <time>2020-02-23T09:45:57Z</time>
      </trkpt>
      <trkpt lat="42.93127" lon="0.75446">
        <ele>1663.5</ele>
        <time>2020-02-23T09:45:58Z</time>
      </trkpt>
      <trkpt lat="42.93127" lon="0.75445">
        <ele>1663.5</ele>
        <time>2020-02-23T09:45:59Z</time>
      </trkpt>
      <trkpt lat="42.93127" lon="0.75444">
        <ele>1664.6</ele>
        <time>2020-02-23T09:46:00Z</time>
      </trkpt>
      <trkpt lat="42.93126" lon="0.75443">
        <ele>1664.6</ele>
        <time>2020-02-23T09:46:01Z</time>
      </trkpt>
      <trkpt lat="42.93126" lon="0.75442">
        <ele>1664.6</ele>
        <time>2020-02-23T09:46:02Z</time>
      </trkpt>
      <trkpt lat="42.93126" lon="0.75441">
        <ele>1664.9</ele>
        <time>2020-02-23T09:46:03Z</time>
      </trkpt>
      <trkpt lat="42.93126" lon="0.7544">
        <ele>1666</ele>
        <time>2020-02-23T09:46:04Z</time>
      </trkpt>
      <trkpt lat="42.93125" lon="0.75439">
        <ele>1666</ele>
        <time>2020-02-23T09:46:05Z</time>
      </trkpt>
      <trkpt lat="42.93125" lon="0.75438">
        <ele>1666</ele>
        <time>2020-02-23T09:46:06Z</time>
      </trkpt>
      <trkpt lat="42.93125" lon="0.75437">
        <ele>1666</ele>
        <time>2020-02-23T09:46:07Z</time>
      </trkpt>
      <trkpt lat="42.93125" lon="0.75436">
        <ele>1667</ele>
        <time>2020-02-23T09:46:08Z</time>
      </trkpt>
      <trkpt lat="42.93124" lon="0.75435">
        <ele>1667</ele>
        <time>2020-02-23T09:46:09Z</time>
      </trkpt>
      <trkpt lat="42.93124" lon="0.75435">
        <ele>1667</ele>
        <time>2020-02-23T09:46:10Z</time>
      </trkpt>
      <trkpt lat="42.93124" lon="0.75435">
        <ele>1667</ele>
        <time>2020-02-23T09:46:11Z</time>
      </trkpt>
      <trkpt lat="42.93123" lon="0.75434">
        <ele>1667</ele>
        <time>2020-02-23T09:46:12Z</time>
      </trkpt>
      <trkpt lat="42.93123" lon="0.75434">
        <ele>1667</ele>
        <time>2020-02-23T09:46:13Z</time>
      </trkpt>
      <trkpt lat="42.93122" lon="0.75434">
        <ele>1667.4</ele>
        <time>2020-02-23T09:46:14Z</time>
      </trkpt>
      <trkpt lat="42.93122" lon="0.75433">
        <ele>1667.4</ele>
        <time>2020-02-23T09:46:15Z</time>
      </trkpt>
      <trkpt lat="42.93122" lon="0.75433">
        <ele>1667.4</ele>
        <time>2020-02-23T09:46:16Z</time>
      </trkpt>
      <trkpt lat="42.93121" lon="0.75433">
        <ele>1667.4</ele>
        <time>2020-02-23T09:46:17Z</time>
      </trkpt>
      <trkpt lat="42.93121" lon="0.75432">
        <ele>1668.3</ele>
        <time>2020-02-23T09:46:18Z</time>
      </trkpt>
      <trkpt lat="42.93121" lon="0.75432">
        <ele>1668.3</ele>
        <time>2020-02-23T09:46:19Z</time>
      </trkpt>
      <trkpt lat="42.9312" lon="0.75432">
        <ele>1668.3</ele>
        <time>2020-02-23T09:46:20Z</time>
      </trkpt>
      <trkpt lat="42.9312" lon="0.75431">
        <ele>1668.3</ele>
        <time>2020-02-23T09:46:21Z</time>
      </trkpt>
      <trkpt lat="42.9312" lon="0.75431">
        <ele>1668.8</ele>
        <time>2020-02-23T09:46:22Z</time>
      </trkpt>
      <trkpt lat="42.93119" lon="0.75431">
        <ele>1668.8</ele>
        <time>2020-02-23T09:46:23Z</time>
      </trkpt>
      <trkpt lat="42.93119" lon="0.75431">
        <ele>1668.8</ele>
        <time>2020-02-23T09:46:24Z</time>
      </trkpt>
      <trkpt lat="42.93119" lon="0.7543">
        <ele>1668.8</ele>
        <time>2020-02-23T09:46:25Z</time>
      </trkpt>
      <trkpt lat="42.93118" lon="0.7543">
        <ele>1668.8</ele>
        <time>2020-02-23T09:46:26Z</time>
      </trkpt>
      <trkpt lat="42.93118" lon="0.7543">
        <ele>1668.8</ele>
        <time>2020-02-23T09:46:27Z</time>
      </trkpt>
      <trkpt lat="42.93118" lon="0.75429">
        <ele>1668.8</ele>
        <time>2020-02-23T09:46:28Z</time>
      </trkpt>
      <trkpt lat="42.93117" lon="0.75429">
        <ele>1668.8</ele>
        <time>2020-02-23T09:46:29Z</time>
      </trkpt>
      <trkpt lat="42.93117" lon="0.75429">
        <ele>1668.8</ele>
        <time>2020-02-23T09:46:30Z</time>
      </trkpt>
      <trkpt lat="42.93116" lon="0.75428">
        <ele>1669.3</ele>
        <time>2020-02-23T09:46:31Z</time>
      </trkpt>
      <trkpt lat="42.93116" lon="0.75428">
        <ele>1669.3</ele>
        <time>2020-02-23T09:46:32Z</time>
      </trkpt>
      <trkpt lat="42.93116" lon="0.75428">
        <ele>1669.3</ele>
        <time>2020-02-23T09:46:33Z</time>
      </trkpt>
      <trkpt lat="42.93116" lon="0.75428">
        <ele>1669.3</ele>
        <time>2020-02-23T09:46:34Z</time>
      </trkpt>
      <trkpt lat="42.93116" lon="0.75428">
        <ele>1669.3</ele>
        <time>2020-02-23T09:46:35Z</time>
      </trkpt>
      <trkpt lat="42.93116" lon="0.75428">
        <ele>1669.3</ele>
        <time>2020-02-23T09:46:36Z</time>
      </trkpt>
      <trkpt lat="42.93116" lon="0.75428">
        <ele>1669.3</ele>
        <time>2020-02-23T09:46:37Z</time>
      </trkpt>
      <trkpt lat="42.93116" lon="0.75428">
        <ele>1669.3</ele>
        <time>2020-02-23T09:46:38Z</time>
      </trkpt>
      <trkpt lat="42.93116" lon="0.75425">
        <ele>1670.2</ele>
        <time>2020-02-23T09:46:39Z</time>
      </trkpt>
      <trkpt lat="42.93116" lon="0.75425">
        <ele>1670.2</ele>
        <time>2020-02-23T09:46:40Z</time>
      </trkpt>
      <trkpt lat="42.93116" lon="0.75425">
        <ele>1670.2</ele>
        <time>2020-02-23T09:46:41Z</time>
      </trkpt>
      <trkpt lat="42.93115" lon="0.75424">
        <ele>1670.2</ele>
        <time>2020-02-23T09:46:42Z</time>
      </trkpt>
      <trkpt lat="42.93115" lon="0.75424">
        <ele>1670.2</ele>
        <time>2020-02-23T09:46:43Z</time>
      </trkpt>
      <trkpt lat="42.93115" lon="0.75424">
        <ele>1671.1</ele>
        <time>2020-02-23T09:46:44Z</time>
      </trkpt>
      <trkpt lat="42.93115" lon="0.75423">
        <ele>1671.1</ele>
        <time>2020-02-23T09:46:45Z</time>
      </trkpt>
      <trkpt lat="42.93115" lon="0.75423">
        <ele>1671.1</ele>
        <time>2020-02-23T09:46:46Z</time>
      </trkpt>
      <trkpt lat="42.93115" lon="0.75422">
        <ele>1671.1</ele>
        <time>2020-02-23T09:46:47Z</time>
      </trkpt>
      <trkpt lat="42.93115" lon="0.75422">
        <ele>1671.1</ele>
        <time>2020-02-23T09:46:48Z</time>
      </trkpt>
      <trkpt lat="42.93115" lon="0.75422">
        <ele>1671.1</ele>
        <time>2020-02-23T09:46:49Z</time>
      </trkpt>
      <trkpt lat="42.93114" lon="0.75421">
        <ele>1671.1</ele>
        <time>2020-02-23T09:46:50Z</time>
      </trkpt>
      <trkpt lat="42.93114" lon="0.75421">
        <ele>1671.1</ele>
        <time>2020-02-23T09:46:51Z</time>
      </trkpt>
      <trkpt lat="42.93114" lon="0.7542">
        <ele>1671.1</ele>
        <time>2020-02-23T09:46:52Z</time>
      </trkpt>
      <trkpt lat="42.93114" lon="0.7542">
        <ele>1671.1</ele>
        <time>2020-02-23T09:46:53Z</time>
      </trkpt>
      <trkpt lat="42.93114" lon="0.7542">
        <ele>1671.1</ele>
        <time>2020-02-23T09:46:54Z</time>
      </trkpt>
      <trkpt lat="42.93114" lon="0.75419">
        <ele>1672.1</ele>
        <time>2020-02-23T09:46:55Z</time>
      </trkpt>
      <trkpt lat="42.93114" lon="0.75419">
        <ele>1672.1</ele>
        <time>2020-02-23T09:46:56Z</time>
      </trkpt>
      <trkpt lat="42.93113" lon="0.75418">
        <ele>1672.1</ele>
        <time>2020-02-23T09:46:57Z</time>
      </trkpt>
      <trkpt lat="42.93113" lon="0.75418">
        <ele>1672.5</ele>
        <time>2020-02-23T09:46:58Z</time>
      </trkpt>
      <trkpt lat="42.93113" lon="0.75418">
        <ele>1672.5</ele>
        <time>2020-02-23T09:46:59Z</time>
      </trkpt>
      <trkpt lat="42.93113" lon="0.75417">
        <ele>1672.5</ele>
        <time>2020-02-23T09:47:00Z</time>
      </trkpt>
      <trkpt lat="42.93113" lon="0.75417">
        <ele>1672.5</ele>
        <time>2020-02-23T09:47:01Z</time>
      </trkpt>
      <trkpt lat="42.93113" lon="0.75417">
        <ele>1672.5</ele>
        <time>2020-02-23T09:47:02Z</time>
      </trkpt>
      <trkpt lat="42.93113" lon="0.75417">
        <ele>1672.5</ele>
        <time>2020-02-23T09:47:03Z</time>
      </trkpt>
      <trkpt lat="42.93113" lon="0.75417">
        <ele>1672.5</ele>
        <time>2020-02-23T09:47:04Z</time>
      </trkpt>
      <trkpt lat="42.93113" lon="0.75417">
        <ele>1672.5</ele>
        <time>2020-02-23T09:47:05Z</time>
      </trkpt>
      <trkpt lat="42.93111" lon="0.75418">
        <ele>1672.5</ele>
        <time>2020-02-23T09:47:06Z</time>
      </trkpt>
      <trkpt lat="42.93111" lon="0.75418">
        <ele>1672.5</ele>
        <time>2020-02-23T09:47:07Z</time>
      </trkpt>
      <trkpt lat="42.93111" lon="0.75418">
        <ele>1672.5</ele>
        <time>2020-02-23T09:47:08Z</time>
      </trkpt>
      <trkpt lat="42.93111" lon="0.75417">
        <ele>1672.5</ele>
        <time>2020-02-23T09:47:09Z</time>
      </trkpt>
      <trkpt lat="42.9311" lon="0.75416">
        <ele>1673</ele>
        <time>2020-02-23T09:47:10Z</time>
      </trkpt>
      <trkpt lat="42.9311" lon="0.75416">
        <ele>1673</ele>
        <time>2020-02-23T09:47:11Z</time>
      </trkpt>
      <trkpt lat="42.93109" lon="0.75415">
        <ele>1673.9</ele>
        <time>2020-02-23T09:47:12Z</time>
      </trkpt>
      <trkpt lat="42.93109" lon="0.75414">
        <ele>1673.9</ele>
        <time>2020-02-23T09:47:13Z</time>
      </trkpt>
      <trkpt lat="42.93108" lon="0.75414">
        <ele>1673.9</ele>
        <time>2020-02-23T09:47:14Z</time>
      </trkpt>
      <trkpt lat="42.93108" lon="0.75413">
        <ele>1673.9</ele>
        <time>2020-02-23T09:47:15Z</time>
      </trkpt>
      <trkpt lat="42.93108" lon="0.75413">
        <ele>1673.9</ele>
        <time>2020-02-23T09:47:16Z</time>
      </trkpt>
      <trkpt lat="42.93108" lon="0.75413">
        <ele>1673.9</ele>
        <time>2020-02-23T09:47:17Z</time>
      </trkpt>
      <trkpt lat="42.93105" lon="0.7541">
        <ele>1675.3</ele>
        <time>2020-02-23T09:47:18Z</time>
      </trkpt>
      <trkpt lat="42.93105" lon="0.7541">
        <ele>1675.3</ele>
        <time>2020-02-23T09:47:19Z</time>
      </trkpt>
      <trkpt lat="42.93105" lon="0.7541">
        <ele>1675.3</ele>
        <time>2020-02-23T09:47:20Z</time>
      </trkpt>
      <trkpt lat="42.93105" lon="0.7541">
        <ele>1675.3</ele>
        <time>2020-02-23T09:47:21Z</time>
      </trkpt>
      <trkpt lat="42.93103" lon="0.75406">
        <ele>1676.8</ele>
        <time>2020-02-23T09:47:22Z</time>
      </trkpt>
      <trkpt lat="42.93103" lon="0.75406">
        <ele>1676.8</ele>
        <time>2020-02-23T09:47:23Z</time>
      </trkpt>
      <trkpt lat="42.93103" lon="0.75405">
        <ele>1676.8</ele>
        <time>2020-02-23T09:47:24Z</time>
      </trkpt>
      <trkpt lat="42.93102" lon="0.75404">
        <ele>1676.8</ele>
        <time>2020-02-23T09:47:25Z</time>
      </trkpt>
      <trkpt lat="42.93102" lon="0.75404">
        <ele>1676.8</ele>
        <time>2020-02-23T09:47:26Z</time>
      </trkpt>
      <trkpt lat="42.93102" lon="0.75403">
        <ele>1676.8</ele>
        <time>2020-02-23T09:47:27Z</time>
      </trkpt>
      <trkpt lat="42.93101" lon="0.75402">
        <ele>1677.8</ele>
        <time>2020-02-23T09:47:28Z</time>
      </trkpt>
      <trkpt lat="42.93101" lon="0.75401">
        <ele>1677.8</ele>
        <time>2020-02-23T09:47:29Z</time>
      </trkpt>
      <trkpt lat="42.93101" lon="0.754">
        <ele>1678.3</ele>
        <time>2020-02-23T09:47:30Z</time>
      </trkpt>
      <trkpt lat="42.931" lon="0.75399">
        <ele>1678.3</ele>
        <time>2020-02-23T09:47:31Z</time>
      </trkpt>
      <trkpt lat="42.931" lon="0.75398">
        <ele>1678.3</ele>
        <time>2020-02-23T09:47:32Z</time>
      </trkpt>
      <trkpt lat="42.931" lon="0.75397">
        <ele>1679.3</ele>
        <time>2020-02-23T09:47:33Z</time>
      </trkpt>
      <trkpt lat="42.93099" lon="0.75397">
        <ele>1679.3</ele>
        <time>2020-02-23T09:47:34Z</time>
      </trkpt>
      <trkpt lat="42.93099" lon="0.75396">
        <ele>1679.3</ele>
        <time>2020-02-23T09:47:35Z</time>
      </trkpt>
      <trkpt lat="42.93099" lon="0.75395">
        <ele>1679.3</ele>
        <time>2020-02-23T09:47:36Z</time>
      </trkpt>
      <trkpt lat="42.93098" lon="0.75395">
        <ele>1679.3</ele>
        <time>2020-02-23T09:47:37Z</time>
      </trkpt>
      <trkpt lat="42.93098" lon="0.75395">
        <ele>1679.3</ele>
        <time>2020-02-23T09:47:38Z</time>
      </trkpt>
      <trkpt lat="42.93098" lon="0.75395">
        <ele>1679.8</ele>
        <time>2020-02-23T09:47:39Z</time>
      </trkpt>
      <trkpt lat="42.93097" lon="0.75394">
        <ele>1679.8</ele>
        <time>2020-02-23T09:47:40Z</time>
      </trkpt>
      <trkpt lat="42.93097" lon="0.75394">
        <ele>1679.8</ele>
        <time>2020-02-23T09:47:41Z</time>
      </trkpt>
      <trkpt lat="42.93096" lon="0.75394">
        <ele>1679.8</ele>
        <time>2020-02-23T09:47:42Z</time>
      </trkpt>
      <trkpt lat="42.93096" lon="0.75394">
        <ele>1679.8</ele>
        <time>2020-02-23T09:47:43Z</time>
      </trkpt>
      <trkpt lat="42.93095" lon="0.75394">
        <ele>1679.8</ele>
        <time>2020-02-23T09:47:44Z</time>
      </trkpt>
      <trkpt lat="42.93095" lon="0.75394">
        <ele>1679.8</ele>
        <time>2020-02-23T09:47:45Z</time>
      </trkpt>
      <trkpt lat="42.93095" lon="0.75394">
        <ele>1679.8</ele>
        <time>2020-02-23T09:47:46Z</time>
      </trkpt>
      <trkpt lat="42.93094" lon="0.75394">
        <ele>1681.3</ele>
        <time>2020-02-23T09:47:47Z</time>
      </trkpt>
      <trkpt lat="42.93094" lon="0.75393">
        <ele>1681.3</ele>
        <time>2020-02-23T09:47:48Z</time>
      </trkpt>
      <trkpt lat="42.93093" lon="0.75393">
        <ele>1681.3</ele>
        <time>2020-02-23T09:47:49Z</time>
      </trkpt>
      <trkpt lat="42.93093" lon="0.75393">
        <ele>1681.3</ele>
        <time>2020-02-23T09:47:50Z</time>
      </trkpt>
      <trkpt lat="42.93093" lon="0.75393">
        <ele>1681.3</ele>
        <time>2020-02-23T09:47:51Z</time>
      </trkpt>
      <trkpt lat="42.93092" lon="0.75393">
        <ele>1681.3</ele>
        <time>2020-02-23T09:47:52Z</time>
      </trkpt>
      <trkpt lat="42.93092" lon="0.75393">
        <ele>1681.3</ele>
        <time>2020-02-23T09:47:53Z</time>
      </trkpt>
      <trkpt lat="42.93091" lon="0.75393">
        <ele>1681.9</ele>
        <time>2020-02-23T09:47:54Z</time>
      </trkpt>
      <trkpt lat="42.93091" lon="0.75393">
        <ele>1681.9</ele>
        <time>2020-02-23T09:47:55Z</time>
      </trkpt>
      <trkpt lat="42.93091" lon="0.75393">
        <ele>1681.9</ele>
        <time>2020-02-23T09:47:56Z</time>
      </trkpt>
      <trkpt lat="42.9309" lon="0.75392">
        <ele>1681.9</ele>
        <time>2020-02-23T09:47:57Z</time>
      </trkpt>
      <trkpt lat="42.9309" lon="0.75392">
        <ele>1681.9</ele>
        <time>2020-02-23T09:47:58Z</time>
      </trkpt>
      <trkpt lat="42.93089" lon="0.75392">
        <ele>1681.9</ele>
        <time>2020-02-23T09:47:59Z</time>
      </trkpt>
      <trkpt lat="42.9309" lon="0.75392">
        <ele>1681.9</ele>
        <time>2020-02-23T09:48:00Z</time>
      </trkpt>
      <trkpt lat="42.9309" lon="0.75391">
        <ele>1681.9</ele>
        <time>2020-02-23T09:48:01Z</time>
      </trkpt>
      <trkpt lat="42.9309" lon="0.7539">
        <ele>1681.9</ele>
        <time>2020-02-23T09:48:02Z</time>
      </trkpt>
      <trkpt lat="42.9309" lon="0.7539">
        <ele>1681.9</ele>
        <time>2020-02-23T09:48:03Z</time>
      </trkpt>
      <trkpt lat="42.93091" lon="0.75389">
        <ele>1682.9</ele>
        <time>2020-02-23T09:48:04Z</time>
      </trkpt>
      <trkpt lat="42.93091" lon="0.75389">
        <ele>1682.9</ele>
        <time>2020-02-23T09:48:05Z</time>
      </trkpt>
      <trkpt lat="42.93091" lon="0.75388">
        <ele>1682.9</ele>
        <time>2020-02-23T09:48:06Z</time>
      </trkpt>
      <trkpt lat="42.93092" lon="0.75387">
        <ele>1682.4</ele>
        <time>2020-02-23T09:48:07Z</time>
      </trkpt>
      <trkpt lat="42.93092" lon="0.75387">
        <ele>1682.4</ele>
        <time>2020-02-23T09:48:08Z</time>
      </trkpt>
      <trkpt lat="42.93092" lon="0.75386">
        <ele>1682.4</ele>
        <time>2020-02-23T09:48:09Z</time>
      </trkpt>
      <trkpt lat="42.93092" lon="0.75385">
        <ele>1682.4</ele>
        <time>2020-02-23T09:48:10Z</time>
      </trkpt>
      <trkpt lat="42.93093" lon="0.75385">
        <ele>1683.3</ele>
        <time>2020-02-23T09:48:11Z</time>
      </trkpt>
      <trkpt lat="42.93093" lon="0.75384">
        <ele>1683.3</ele>
        <time>2020-02-23T09:48:12Z</time>
      </trkpt>
      <trkpt lat="42.93093" lon="0.75384">
        <ele>1683.3</ele>
        <time>2020-02-23T09:48:13Z</time>
      </trkpt>
      <trkpt lat="42.93094" lon="0.75383">
        <ele>1683.3</ele>
        <time>2020-02-23T09:48:14Z</time>
      </trkpt>
      <trkpt lat="42.93094" lon="0.75382">
        <ele>1683.3</ele>
        <time>2020-02-23T09:48:15Z</time>
      </trkpt>
      <trkpt lat="42.93094" lon="0.75382">
        <ele>1683.3</ele>
        <time>2020-02-23T09:48:16Z</time>
      </trkpt>
      <trkpt lat="42.93094" lon="0.75381">
        <ele>1683.3</ele>
        <time>2020-02-23T09:48:17Z</time>
      </trkpt>
      <trkpt lat="42.93094" lon="0.7538">
        <ele>1684.3</ele>
        <time>2020-02-23T09:48:18Z</time>
      </trkpt>
      <trkpt lat="42.93094" lon="0.7538">
        <ele>1684.3</ele>
        <time>2020-02-23T09:48:19Z</time>
      </trkpt>
      <trkpt lat="42.93094" lon="0.75379">
        <ele>1684.3</ele>
        <time>2020-02-23T09:48:20Z</time>
      </trkpt>
      <trkpt lat="42.93094" lon="0.75378">
        <ele>1684.3</ele>
        <time>2020-02-23T09:48:21Z</time>
      </trkpt>
      <trkpt lat="42.93093" lon="0.75378">
        <ele>1684.3</ele>
        <time>2020-02-23T09:48:22Z</time>
      </trkpt>
      <trkpt lat="42.93093" lon="0.75377">
        <ele>1684.3</ele>
        <time>2020-02-23T09:48:23Z</time>
      </trkpt>
      <trkpt lat="42.93093" lon="0.75377">
        <ele>1685.2</ele>
        <time>2020-02-23T09:48:24Z</time>
      </trkpt>
      <trkpt lat="42.93093" lon="0.75376">
        <ele>1685.2</ele>
        <time>2020-02-23T09:48:25Z</time>
      </trkpt>
      <trkpt lat="42.93093" lon="0.75375">
        <ele>1685.2</ele>
        <time>2020-02-23T09:48:26Z</time>
      </trkpt>
      <trkpt lat="42.93093" lon="0.75375">
        <ele>1685.2</ele>
        <time>2020-02-23T09:48:27Z</time>
      </trkpt>
      <trkpt lat="42.93093" lon="0.75374">
        <ele>1685.2</ele>
        <time>2020-02-23T09:48:28Z</time>
      </trkpt>
      <trkpt lat="42.93093" lon="0.75373">
        <ele>1685.2</ele>
        <time>2020-02-23T09:48:29Z</time>
      </trkpt>
      <trkpt lat="42.93092" lon="0.75373">
        <ele>1685.2</ele>
        <time>2020-02-23T09:48:30Z</time>
      </trkpt>
      <trkpt lat="42.93092" lon="0.75372">
        <ele>1686.2</ele>
        <time>2020-02-23T09:48:31Z</time>
      </trkpt>
      <trkpt lat="42.93092" lon="0.75371">
        <ele>1686.2</ele>
        <time>2020-02-23T09:48:32Z</time>
      </trkpt>
      <trkpt lat="42.93092" lon="0.75371">
        <ele>1686.2</ele>
        <time>2020-02-23T09:48:33Z</time>
      </trkpt>
      <trkpt lat="42.93092" lon="0.7537">
        <ele>1686.2</ele>
        <time>2020-02-23T09:48:34Z</time>
      </trkpt>
      <trkpt lat="42.93092" lon="0.7537">
        <ele>1686.2</ele>
        <time>2020-02-23T09:48:35Z</time>
      </trkpt>
      <trkpt lat="42.93092" lon="0.75369">
        <ele>1686.2</ele>
        <time>2020-02-23T09:48:36Z</time>
      </trkpt>
      <trkpt lat="42.93092" lon="0.75368">
        <ele>1686.2</ele>
        <time>2020-02-23T09:48:37Z</time>
      </trkpt>
      <trkpt lat="42.93092" lon="0.75366">
        <ele>1687.3</ele>
        <time>2020-02-23T09:48:38Z</time>
      </trkpt>
      <trkpt lat="42.93093" lon="0.75364">
        <ele>1687.3</ele>
        <time>2020-02-23T09:48:39Z</time>
      </trkpt>
      <trkpt lat="42.93093" lon="0.75362">
        <ele>1688.4</ele>
        <time>2020-02-23T09:48:40Z</time>
      </trkpt>
      <trkpt lat="42.93094" lon="0.75359">
        <ele>1689.6</ele>
        <time>2020-02-23T09:48:41Z</time>
      </trkpt>
      <trkpt lat="42.93095" lon="0.75357">
        <ele>1689.2</ele>
        <time>2020-02-23T09:48:42Z</time>
      </trkpt>
      <trkpt lat="42.93095" lon="0.75355">
        <ele>1690.3</ele>
        <time>2020-02-23T09:48:43Z</time>
      </trkpt>
      <trkpt lat="42.93095" lon="0.75354">
        <ele>1690.3</ele>
        <time>2020-02-23T09:48:44Z</time>
      </trkpt>
      <trkpt lat="42.93096" lon="0.75353">
        <ele>1690.3</ele>
        <time>2020-02-23T09:48:45Z</time>
      </trkpt>
      <trkpt lat="42.93096" lon="0.75352">
        <ele>1690.3</ele>
        <time>2020-02-23T09:48:46Z</time>
      </trkpt>
      <trkpt lat="42.93096" lon="0.75351">
        <ele>1690.3</ele>
        <time>2020-02-23T09:48:47Z</time>
      </trkpt>
      <trkpt lat="42.93096" lon="0.7535">
        <ele>1691.5</ele>
        <time>2020-02-23T09:48:48Z</time>
      </trkpt>
      <trkpt lat="42.93096" lon="0.75349">
        <ele>1691.5</ele>
        <time>2020-02-23T09:48:49Z</time>
      </trkpt>
      <trkpt lat="42.93096" lon="0.75348">
        <ele>1691.5</ele>
        <time>2020-02-23T09:48:50Z</time>
      </trkpt>
      <trkpt lat="42.93097" lon="0.75347">
        <ele>1691.5</ele>
        <time>2020-02-23T09:48:51Z</time>
      </trkpt>
      <trkpt lat="42.93097" lon="0.75346">
        <ele>1692.6</ele>
        <time>2020-02-23T09:48:52Z</time>
      </trkpt>
      <trkpt lat="42.93097" lon="0.75346">
        <ele>1692.6</ele>
        <time>2020-02-23T09:48:53Z</time>
      </trkpt>
      <trkpt lat="42.93097" lon="0.75345">
        <ele>1692.6</ele>
        <time>2020-02-23T09:48:54Z</time>
      </trkpt>
      <trkpt lat="42.93097" lon="0.75344">
        <ele>1692.6</ele>
        <time>2020-02-23T09:48:55Z</time>
      </trkpt>
      <trkpt lat="42.93098" lon="0.75343">
        <ele>1692.6</ele>
        <time>2020-02-23T09:48:56Z</time>
      </trkpt>
      <trkpt lat="42.93098" lon="0.75343">
        <ele>1692.2</ele>
        <time>2020-02-23T09:48:57Z</time>
      </trkpt>
      <trkpt lat="42.93098" lon="0.75343">
        <ele>1692.2</ele>
        <time>2020-02-23T09:48:58Z</time>
      </trkpt>
      <trkpt lat="42.93098" lon="0.75343">
        <ele>1692.2</ele>
        <time>2020-02-23T09:48:59Z</time>
      </trkpt>
      <trkpt lat="42.93098" lon="0.75343">
        <ele>1692.2</ele>
        <time>2020-02-23T09:49:00Z</time>
      </trkpt>
      <trkpt lat="42.93098" lon="0.75343">
        <ele>1692.2</ele>
        <time>2020-02-23T09:49:01Z</time>
      </trkpt>
      <trkpt lat="42.93098" lon="0.75343">
        <ele>1692.2</ele>
        <time>2020-02-23T09:49:02Z</time>
      </trkpt>
      <trkpt lat="42.93098" lon="0.75342">
        <ele>1692.2</ele>
        <time>2020-02-23T09:49:03Z</time>
      </trkpt>
      <trkpt lat="42.93098" lon="0.75342">
        <ele>1692.2</ele>
        <time>2020-02-23T09:49:04Z</time>
      </trkpt>
      <trkpt lat="42.93098" lon="0.75342">
        <ele>1692.2</ele>
        <time>2020-02-23T09:49:05Z</time>
      </trkpt>
      <trkpt lat="42.93099" lon="0.75342">
        <ele>1692.2</ele>
        <time>2020-02-23T09:49:06Z</time>
      </trkpt>
      <trkpt lat="42.93099" lon="0.75342">
        <ele>1692.2</ele>
        <time>2020-02-23T09:49:07Z</time>
      </trkpt>
      <trkpt lat="42.93099" lon="0.75342">
        <ele>1692.2</ele>
        <time>2020-02-23T09:49:08Z</time>
      </trkpt>
      <trkpt lat="42.93099" lon="0.75342">
        <ele>1692.2</ele>
        <time>2020-02-23T09:49:09Z</time>
      </trkpt>
      <trkpt lat="42.93099" lon="0.75342">
        <ele>1692.2</ele>
        <time>2020-02-23T09:49:10Z</time>
      </trkpt>
      <trkpt lat="42.93099" lon="0.75342">
        <ele>1693.3</ele>
        <time>2020-02-23T09:49:11Z</time>
      </trkpt>
      <trkpt lat="42.93099" lon="0.75342">
        <ele>1693.3</ele>
        <time>2020-02-23T09:49:12Z</time>
      </trkpt>
      <trkpt lat="42.93099" lon="0.75342">
        <ele>1693.3</ele>
        <time>2020-02-23T09:49:13Z</time>
      </trkpt>
      <trkpt lat="42.93099" lon="0.75342">
        <ele>1693.3</ele>
        <time>2020-02-23T09:49:14Z</time>
      </trkpt>
      <trkpt lat="42.93099" lon="0.75342">
        <ele>1693.3</ele>
        <time>2020-02-23T09:49:15Z</time>
      </trkpt>
      <trkpt lat="42.93099" lon="0.75342">
        <ele>1693.3</ele>
        <time>2020-02-23T09:49:16Z</time>
      </trkpt>
      <trkpt lat="42.93099" lon="0.75342">
        <ele>1693.3</ele>
        <time>2020-02-23T09:49:17Z</time>
      </trkpt>
      <trkpt lat="42.931" lon="0.75342">
        <ele>1693.3</ele>
        <time>2020-02-23T09:49:18Z</time>
      </trkpt>
      <trkpt lat="42.931" lon="0.75342">
        <ele>1693.3</ele>
        <time>2020-02-23T09:49:19Z</time>
      </trkpt>
      <trkpt lat="42.931" lon="0.75342">
        <ele>1693.3</ele>
        <time>2020-02-23T09:49:20Z</time>
      </trkpt>
      <trkpt lat="42.931" lon="0.75342">
        <ele>1693.3</ele>
        <time>2020-02-23T09:49:21Z</time>
      </trkpt>
      <trkpt lat="42.931" lon="0.75342">
        <ele>1693.3</ele>
        <time>2020-02-23T09:49:22Z</time>
      </trkpt>
      <trkpt lat="42.931" lon="0.75342">
        <ele>1693.3</ele>
        <time>2020-02-23T09:49:23Z</time>
      </trkpt>
      <trkpt lat="42.931" lon="0.75342">
        <ele>1693.3</ele>
        <time>2020-02-23T09:49:24Z</time>
      </trkpt>
      <trkpt lat="42.931" lon="0.75342">
        <ele>1693.3</ele>
        <time>2020-02-23T09:49:25Z</time>
      </trkpt>
      <trkpt lat="42.931" lon="0.75342">
        <ele>1693.3</ele>
        <time>2020-02-23T09:49:26Z</time>
      </trkpt>
      <trkpt lat="42.931" lon="0.75342">
        <ele>1693.3</ele>
        <time>2020-02-23T09:49:27Z</time>
      </trkpt>
      <trkpt lat="42.931" lon="0.75342">
        <ele>1693.3</ele>
        <time>2020-02-23T09:49:28Z</time>
      </trkpt>
      <trkpt lat="42.931" lon="0.75341">
        <ele>1693.3</ele>
        <time>2020-02-23T09:49:29Z</time>
      </trkpt>
      <trkpt lat="42.93101" lon="0.75341">
        <ele>1693.3</ele>
        <time>2020-02-23T09:49:30Z</time>
      </trkpt>
      <trkpt lat="42.93101" lon="0.75341">
        <ele>1693.3</ele>
        <time>2020-02-23T09:49:31Z</time>
      </trkpt>
      <trkpt lat="42.93101" lon="0.75341">
        <ele>1693.3</ele>
        <time>2020-02-23T09:49:32Z</time>
      </trkpt>
      <trkpt lat="42.93101" lon="0.75341">
        <ele>1692.9</ele>
        <time>2020-02-23T09:49:33Z</time>
      </trkpt>
      <trkpt lat="42.93101" lon="0.75341">
        <ele>1692.9</ele>
        <time>2020-02-23T09:49:34Z</time>
      </trkpt>
      <trkpt lat="42.93101" lon="0.75341">
        <ele>1692.9</ele>
        <time>2020-02-23T09:49:35Z</time>
      </trkpt>
      <trkpt lat="42.93101" lon="0.75341">
        <ele>1692.9</ele>
        <time>2020-02-23T09:49:36Z</time>
      </trkpt>
      <trkpt lat="42.93101" lon="0.75341">
        <ele>1692.9</ele>
        <time>2020-02-23T09:49:37Z</time>
      </trkpt>
      <trkpt lat="42.93101" lon="0.75341">
        <ele>1692.9</ele>
        <time>2020-02-23T09:49:38Z</time>
      </trkpt>
      <trkpt lat="42.93101" lon="0.75341">
        <ele>1692.9</ele>
        <time>2020-02-23T09:49:39Z</time>
      </trkpt>
      <trkpt lat="42.93101" lon="0.75341">
        <ele>1692.9</ele>
        <time>2020-02-23T09:49:40Z</time>
      </trkpt>
      <trkpt lat="42.93102" lon="0.75341">
        <ele>1692.9</ele>
        <time>2020-02-23T09:49:41Z</time>
      </trkpt>
      <trkpt lat="42.93102" lon="0.75341">
        <ele>1692.9</ele>
        <time>2020-02-23T09:49:42Z</time>
      </trkpt>
      <trkpt lat="42.93102" lon="0.75341">
        <ele>1692.9</ele>
        <time>2020-02-23T09:49:43Z</time>
      </trkpt>
      <trkpt lat="42.93102" lon="0.75341">
        <ele>1692.9</ele>
        <time>2020-02-23T09:49:44Z</time>
      </trkpt>
      <trkpt lat="42.93102" lon="0.75341">
        <ele>1692.9</ele>
        <time>2020-02-23T09:49:45Z</time>
      </trkpt>
      <trkpt lat="42.93102" lon="0.75341">
        <ele>1692.9</ele>
        <time>2020-02-23T09:49:46Z</time>
      </trkpt>
      <trkpt lat="42.93102" lon="0.75341">
        <ele>1692.9</ele>
        <time>2020-02-23T09:49:47Z</time>
      </trkpt>
      <trkpt lat="42.93102" lon="0.75341">
        <ele>1692.9</ele>
        <time>2020-02-23T09:49:48Z</time>
      </trkpt>
      <trkpt lat="42.93102" lon="0.75341">
        <ele>1692.9</ele>
        <time>2020-02-23T09:49:49Z</time>
      </trkpt>
      <trkpt lat="42.93102" lon="0.75341">
        <ele>1692.9</ele>
        <time>2020-02-23T09:49:50Z</time>
      </trkpt>
      <trkpt lat="42.93102" lon="0.75341">
        <ele>1692.9</ele>
        <time>2020-02-23T09:49:51Z</time>
      </trkpt>
      <trkpt lat="42.93102" lon="0.75341">
        <ele>1692.9</ele>
        <time>2020-02-23T09:49:52Z</time>
      </trkpt>
      <trkpt lat="42.93103" lon="0.75341">
        <ele>1692.9</ele>
        <time>2020-02-23T09:49:53Z</time>
      </trkpt>
      <trkpt lat="42.93103" lon="0.75341">
        <ele>1692.9</ele>
        <time>2020-02-23T09:49:54Z</time>
      </trkpt>
      <trkpt lat="42.93103" lon="0.75341">
        <ele>1692.9</ele>
        <time>2020-02-23T09:49:55Z</time>
      </trkpt>
      <trkpt lat="42.93103" lon="0.75341">
        <ele>1692.9</ele>
        <time>2020-02-23T09:49:56Z</time>
      </trkpt>
      <trkpt lat="42.93103" lon="0.75341">
        <ele>1692.9</ele>
        <time>2020-02-23T09:49:57Z</time>
      </trkpt>
      <trkpt lat="42.93103" lon="0.75341">
        <ele>1692.9</ele>
        <time>2020-02-23T09:49:58Z</time>
      </trkpt>
      <trkpt lat="42.93103" lon="0.75341">
        <ele>1692.9</ele>
        <time>2020-02-23T09:49:59Z</time>
      </trkpt>
      <trkpt lat="42.93103" lon="0.75341">
        <ele>1692.9</ele>
        <time>2020-02-23T09:50:00Z</time>
      </trkpt>
      <trkpt lat="42.93103" lon="0.75341">
        <ele>1692.9</ele>
        <time>2020-02-23T09:50:01Z</time>
      </trkpt>
      <trkpt lat="42.93103" lon="0.75341">
        <ele>1692.9</ele>
        <time>2020-02-23T09:50:02Z</time>
      </trkpt>
      <trkpt lat="42.93103" lon="0.75341">
        <ele>1692.9</ele>
        <time>2020-02-23T09:50:03Z</time>
      </trkpt>
      <trkpt lat="42.93103" lon="0.75341">
        <ele>1692.9</ele>
        <time>2020-02-23T09:50:04Z</time>
      </trkpt>
      <trkpt lat="42.93103" lon="0.75341">
        <ele>1692.9</ele>
        <time>2020-02-23T09:50:05Z</time>
      </trkpt>
      <trkpt lat="42.93103" lon="0.75341">
        <ele>1692.9</ele>
        <time>2020-02-23T09:50:06Z</time>
      </trkpt>
      <trkpt lat="42.93103" lon="0.75341">
        <ele>1692.9</ele>
        <time>2020-02-23T09:50:07Z</time>
      </trkpt>
      <trkpt lat="42.93103" lon="0.75341">
        <ele>1692.9</ele>
        <time>2020-02-23T09:50:08Z</time>
      </trkpt>
      <trkpt lat="42.93103" lon="0.75341">
        <ele>1692.9</ele>
        <time>2020-02-23T09:50:09Z</time>
      </trkpt>
      <trkpt lat="42.93103" lon="0.75341">
        <ele>1692.9</ele>
        <time>2020-02-23T09:50:10Z</time>
      </trkpt>
      <trkpt lat="42.93102" lon="0.75337">
        <ele>1694</ele>
        <time>2020-02-23T09:50:11Z</time>
      </trkpt>
      <trkpt lat="42.93102" lon="0.75337">
        <ele>1694</ele>
        <time>2020-02-23T09:50:12Z</time>
      </trkpt>
      <trkpt lat="42.93102" lon="0.75337">
        <ele>1694</ele>
        <time>2020-02-23T09:50:13Z</time>
      </trkpt>
      <trkpt lat="42.93102" lon="0.75337">
        <ele>1694</ele>
        <time>2020-02-23T09:50:14Z</time>
      </trkpt>
      <trkpt lat="42.93102" lon="0.75337">
        <ele>1694</ele>
        <time>2020-02-23T09:50:15Z</time>
      </trkpt>
      <trkpt lat="42.93102" lon="0.75337">
        <ele>1694</ele>
        <time>2020-02-23T09:50:16Z</time>
      </trkpt>
      <trkpt lat="42.93102" lon="0.75337">
        <ele>1694</ele>
        <time>2020-02-23T09:50:17Z</time>
      </trkpt>
      <trkpt lat="42.93101" lon="0.75334">
        <ele>1694</ele>
        <time>2020-02-23T09:50:18Z</time>
      </trkpt>
      <trkpt lat="42.93101" lon="0.75334">
        <ele>1694</ele>
        <time>2020-02-23T09:50:19Z</time>
      </trkpt>
      <trkpt lat="42.93101" lon="0.75334">
        <ele>1694</ele>
        <time>2020-02-23T09:50:20Z</time>
      </trkpt>
      <trkpt lat="42.93101" lon="0.75334">
        <ele>1694</ele>
        <time>2020-02-23T09:50:21Z</time>
      </trkpt>
      <trkpt lat="42.93101" lon="0.75334">
        <ele>1694</ele>
        <time>2020-02-23T09:50:22Z</time>
      </trkpt>
      <trkpt lat="42.93101" lon="0.75334">
        <ele>1694</ele>
        <time>2020-02-23T09:50:23Z</time>
      </trkpt>
      <trkpt lat="42.93101" lon="0.75334">
        <ele>1694</ele>
        <time>2020-02-23T09:50:24Z</time>
      </trkpt>
      <trkpt lat="42.93101" lon="0.75334">
        <ele>1694</ele>
        <time>2020-02-23T09:50:25Z</time>
      </trkpt>
      <trkpt lat="42.93101" lon="0.75334">
        <ele>1694</ele>
        <time>2020-02-23T09:50:26Z</time>
      </trkpt>
      <trkpt lat="42.93101" lon="0.75334">
        <ele>1694</ele>
        <time>2020-02-23T09:50:27Z</time>
      </trkpt>
      <trkpt lat="42.93101" lon="0.75334">
        <ele>1694</ele>
        <time>2020-02-23T09:50:28Z</time>
      </trkpt>
      <trkpt lat="42.93101" lon="0.75334">
        <ele>1694</ele>
        <time>2020-02-23T09:50:29Z</time>
      </trkpt>
      <trkpt lat="42.93101" lon="0.75334">
        <ele>1694</ele>
        <time>2020-02-23T09:50:30Z</time>
      </trkpt>
      <trkpt lat="42.93101" lon="0.75334">
        <ele>1694</ele>
        <time>2020-02-23T09:50:31Z</time>
      </trkpt>
      <trkpt lat="42.93101" lon="0.75334">
        <ele>1694</ele>
        <time>2020-02-23T09:50:32Z</time>
      </trkpt>
      <trkpt lat="42.93101" lon="0.75334">
        <ele>1694</ele>
        <time>2020-02-23T09:50:33Z</time>
      </trkpt>
      <trkpt lat="42.93101" lon="0.75334">
        <ele>1694</ele>
        <time>2020-02-23T09:50:34Z</time>
      </trkpt>
      <trkpt lat="42.93101" lon="0.75334">
        <ele>1694</ele>
        <time>2020-02-23T09:50:35Z</time>
      </trkpt>
      <trkpt lat="42.93105" lon="0.75332">
        <ele>1694.7</ele>
        <time>2020-02-23T09:50:36Z</time>
      </trkpt>
      <trkpt lat="42.93105" lon="0.75332">
        <ele>1694.7</ele>
        <time>2020-02-23T09:50:37Z</time>
      </trkpt>
      <trkpt lat="42.93105" lon="0.75332">
        <ele>1694.7</ele>
        <time>2020-02-23T09:50:38Z</time>
      </trkpt>
      <trkpt lat="42.93105" lon="0.75332">
        <ele>1694.7</ele>
        <time>2020-02-23T09:50:39Z</time>
      </trkpt>
      <trkpt lat="42.93105" lon="0.75332">
        <ele>1694.7</ele>
        <time>2020-02-23T09:50:40Z</time>
      </trkpt>
      <trkpt lat="42.93105" lon="0.75332">
        <ele>1694.7</ele>
        <time>2020-02-23T09:50:41Z</time>
      </trkpt>
      <trkpt lat="42.93105" lon="0.75332">
        <ele>1694.7</ele>
        <time>2020-02-23T09:50:42Z</time>
      </trkpt>
      <trkpt lat="42.93105" lon="0.75332">
        <ele>1694.7</ele>
        <time>2020-02-23T09:50:43Z</time>
      </trkpt>
      <trkpt lat="42.93105" lon="0.75332">
        <ele>1694.7</ele>
        <time>2020-02-23T09:50:44Z</time>
      </trkpt>
      <trkpt lat="42.93105" lon="0.75332">
        <ele>1694.7</ele>
        <time>2020-02-23T09:50:45Z</time>
      </trkpt>
      <trkpt lat="42.93105" lon="0.75332">
        <ele>1694.7</ele>
        <time>2020-02-23T09:50:46Z</time>
      </trkpt>
      <trkpt lat="42.93105" lon="0.75332">
        <ele>1694.7</ele>
        <time>2020-02-23T09:50:47Z</time>
      </trkpt>
      <trkpt lat="42.93105" lon="0.75332">
        <ele>1694.7</ele>
        <time>2020-02-23T09:50:48Z</time>
      </trkpt>
      <trkpt lat="42.93105" lon="0.75332">
        <ele>1694.7</ele>
        <time>2020-02-23T09:50:49Z</time>
      </trkpt>
      <trkpt lat="42.93105" lon="0.75332">
        <ele>1694.7</ele>
        <time>2020-02-23T09:50:50Z</time>
      </trkpt>
      <trkpt lat="42.93105" lon="0.75332">
        <ele>1694.7</ele>
        <time>2020-02-23T09:50:51Z</time>
      </trkpt>
      <trkpt lat="42.93105" lon="0.75332">
        <ele>1694.7</ele>
        <time>2020-02-23T09:50:52Z</time>
      </trkpt>
      <trkpt lat="42.93105" lon="0.75332">
        <ele>1694.7</ele>
        <time>2020-02-23T09:50:53Z</time>
      </trkpt>
      <trkpt lat="42.93105" lon="0.75332">
        <ele>1694.7</ele>
        <time>2020-02-23T09:50:54Z</time>
      </trkpt>
      <trkpt lat="42.93105" lon="0.75332">
        <ele>1694.7</ele>
        <time>2020-02-23T09:50:55Z</time>
      </trkpt>
      <trkpt lat="42.93105" lon="0.75332">
        <ele>1694.7</ele>
        <time>2020-02-23T09:50:56Z</time>
      </trkpt>
      <trkpt lat="42.93105" lon="0.75332">
        <ele>1694.7</ele>
        <time>2020-02-23T09:50:57Z</time>
      </trkpt>
      <trkpt lat="42.93105" lon="0.75332">
        <ele>1694.7</ele>
        <time>2020-02-23T09:50:58Z</time>
      </trkpt>
      <trkpt lat="42.93105" lon="0.75332">
        <ele>1694.7</ele>
        <time>2020-02-23T09:50:59Z</time>
      </trkpt>
      <trkpt lat="42.93105" lon="0.75332">
        <ele>1694.7</ele>
        <time>2020-02-23T09:51:00Z</time>
      </trkpt>
      <trkpt lat="42.93105" lon="0.75332">
        <ele>1694.7</ele>
        <time>2020-02-23T09:51:01Z</time>
      </trkpt>
      <trkpt lat="42.93105" lon="0.75332">
        <ele>1694.7</ele>
        <time>2020-02-23T09:51:02Z</time>
      </trkpt>
      <trkpt lat="42.93102" lon="0.75331">
        <ele>1695.1</ele>
        <time>2020-02-23T09:51:03Z</time>
      </trkpt>
      <trkpt lat="42.93102" lon="0.75331">
        <ele>1695.1</ele>
        <time>2020-02-23T09:51:04Z</time>
      </trkpt>
      <trkpt lat="42.93102" lon="0.75331">
        <ele>1695.1</ele>
        <time>2020-02-23T09:51:05Z</time>
      </trkpt>
      <trkpt lat="42.93102" lon="0.7533">
        <ele>1695.1</ele>
        <time>2020-02-23T09:51:06Z</time>
      </trkpt>
      <trkpt lat="42.93103" lon="0.7533">
        <ele>1695.1</ele>
        <time>2020-02-23T09:51:07Z</time>
      </trkpt>
      <trkpt lat="42.93103" lon="0.75329">
        <ele>1696.2</ele>
        <time>2020-02-23T09:51:08Z</time>
      </trkpt>
      <trkpt lat="42.93103" lon="0.75329">
        <ele>1696.2</ele>
        <time>2020-02-23T09:51:09Z</time>
      </trkpt>
      <trkpt lat="42.93103" lon="0.75328">
        <ele>1696.2</ele>
        <time>2020-02-23T09:51:10Z</time>
      </trkpt>
      <trkpt lat="42.93104" lon="0.75328">
        <ele>1696.2</ele>
        <time>2020-02-23T09:51:11Z</time>
      </trkpt>
      <trkpt lat="42.93104" lon="0.75327">
        <ele>1696.2</ele>
        <time>2020-02-23T09:51:12Z</time>
      </trkpt>
      <trkpt lat="42.93104" lon="0.75327">
        <ele>1696.2</ele>
        <time>2020-02-23T09:51:13Z</time>
      </trkpt>
      <trkpt lat="42.93104" lon="0.75326">
        <ele>1695.9</ele>
        <time>2020-02-23T09:51:14Z</time>
      </trkpt>
      <trkpt lat="42.93104" lon="0.75326">
        <ele>1695.9</ele>
        <time>2020-02-23T09:51:15Z</time>
      </trkpt>
      <trkpt lat="42.93105" lon="0.75325">
        <ele>1695.9</ele>
        <time>2020-02-23T09:51:16Z</time>
      </trkpt>
      <trkpt lat="42.93105" lon="0.75325">
        <ele>1697.1</ele>
        <time>2020-02-23T09:51:17Z</time>
      </trkpt>
      <trkpt lat="42.93105" lon="0.75324">
        <ele>1697.1</ele>
        <time>2020-02-23T09:51:18Z</time>
      </trkpt>
      <trkpt lat="42.93105" lon="0.75324">
        <ele>1697.1</ele>
        <time>2020-02-23T09:51:19Z</time>
      </trkpt>
      <trkpt lat="42.93105" lon="0.75323">
        <ele>1697.1</ele>
        <time>2020-02-23T09:51:20Z</time>
      </trkpt>
      <trkpt lat="42.93106" lon="0.75323">
        <ele>1697.1</ele>
        <time>2020-02-23T09:51:21Z</time>
      </trkpt>
      <trkpt lat="42.93106" lon="0.75322">
        <ele>1697.1</ele>
        <time>2020-02-23T09:51:22Z</time>
      </trkpt>
      <trkpt lat="42.93106" lon="0.75322">
        <ele>1697.1</ele>
        <time>2020-02-23T09:51:23Z</time>
      </trkpt>
      <trkpt lat="42.93106" lon="0.75321">
        <ele>1697.1</ele>
        <time>2020-02-23T09:51:24Z</time>
      </trkpt>
      <trkpt lat="42.93107" lon="0.75321">
        <ele>1697.1</ele>
        <time>2020-02-23T09:51:25Z</time>
      </trkpt>
      <trkpt lat="42.93107" lon="0.75321">
        <ele>1698.3</ele>
        <time>2020-02-23T09:51:26Z</time>
      </trkpt>
      <trkpt lat="42.93107" lon="0.7532">
        <ele>1698.3</ele>
        <time>2020-02-23T09:51:27Z</time>
      </trkpt>
      <trkpt lat="42.93107" lon="0.75319">
        <ele>1698.3</ele>
        <time>2020-02-23T09:51:28Z</time>
      </trkpt>
      <trkpt lat="42.93106" lon="0.75319">
        <ele>1698.3</ele>
        <time>2020-02-23T09:51:29Z</time>
      </trkpt>
      <trkpt lat="42.93106" lon="0.75318">
        <ele>1698.3</ele>
        <time>2020-02-23T09:51:30Z</time>
      </trkpt>
      <trkpt lat="42.93105" lon="0.75318">
        <ele>1698.3</ele>
        <time>2020-02-23T09:51:31Z</time>
      </trkpt>
      <trkpt lat="42.93105" lon="0.75317">
        <ele>1698.3</ele>
        <time>2020-02-23T09:51:32Z</time>
      </trkpt>
      <trkpt lat="42.93104" lon="0.75316">
        <ele>1699.6</ele>
        <time>2020-02-23T09:51:33Z</time>
      </trkpt>
      <trkpt lat="42.93104" lon="0.75316">
        <ele>1699.6</ele>
        <time>2020-02-23T09:51:34Z</time>
      </trkpt>
      <trkpt lat="42.93104" lon="0.75315">
        <ele>1700</ele>
        <time>2020-02-23T09:51:35Z</time>
      </trkpt>
      <trkpt lat="42.93103" lon="0.75315">
        <ele>1700</ele>
        <time>2020-02-23T09:51:36Z</time>
      </trkpt>
      <trkpt lat="42.93103" lon="0.75314">
        <ele>1700</ele>
        <time>2020-02-23T09:51:37Z</time>
      </trkpt>
      <trkpt lat="42.93102" lon="0.75313">
        <ele>1700</ele>
        <time>2020-02-23T09:51:38Z</time>
      </trkpt>
      <trkpt lat="42.93102" lon="0.75313">
        <ele>1700</ele>
        <time>2020-02-23T09:51:39Z</time>
      </trkpt>
      <trkpt lat="42.93102" lon="0.75312">
        <ele>1700</ele>
        <time>2020-02-23T09:51:40Z</time>
      </trkpt>
      <trkpt lat="42.93101" lon="0.75312">
        <ele>1701.3</ele>
        <time>2020-02-23T09:51:41Z</time>
      </trkpt>
      <trkpt lat="42.93101" lon="0.75311">
        <ele>1701.6</ele>
        <time>2020-02-23T09:51:42Z</time>
      </trkpt>
      <trkpt lat="42.931" lon="0.7531">
        <ele>1701.6</ele>
        <time>2020-02-23T09:51:43Z</time>
      </trkpt>
      <trkpt lat="42.931" lon="0.75309">
        <ele>1701.6</ele>
        <time>2020-02-23T09:51:44Z</time>
      </trkpt>
      <trkpt lat="42.931" lon="0.75308">
        <ele>1703</ele>
        <time>2020-02-23T09:51:45Z</time>
      </trkpt>
      <trkpt lat="42.931" lon="0.75306">
        <ele>1703</ele>
        <time>2020-02-23T09:51:46Z</time>
      </trkpt>
      <trkpt lat="42.931" lon="0.75305">
        <ele>1703</ele>
        <time>2020-02-23T09:51:47Z</time>
      </trkpt>
      <trkpt lat="42.93099" lon="0.75303">
        <ele>1704.3</ele>
        <time>2020-02-23T09:51:48Z</time>
      </trkpt>
      <trkpt lat="42.93099" lon="0.75302">
        <ele>1704.3</ele>
        <time>2020-02-23T09:51:49Z</time>
      </trkpt>
      <trkpt lat="42.93099" lon="0.753">
        <ele>1704.3</ele>
        <time>2020-02-23T09:51:50Z</time>
      </trkpt>
      <trkpt lat="42.93099" lon="0.75299">
        <ele>1705.5</ele>
        <time>2020-02-23T09:51:51Z</time>
      </trkpt>
      <trkpt lat="42.93098" lon="0.75297">
        <ele>1705.5</ele>
        <time>2020-02-23T09:51:52Z</time>
      </trkpt>
      <trkpt lat="42.93098" lon="0.75297">
        <ele>1705.5</ele>
        <time>2020-02-23T09:51:53Z</time>
      </trkpt>
      <trkpt lat="42.93098" lon="0.75296">
        <ele>1705.5</ele>
        <time>2020-02-23T09:51:54Z</time>
      </trkpt>
      <trkpt lat="42.93098" lon="0.75296">
        <ele>1705.5</ele>
        <time>2020-02-23T09:51:55Z</time>
      </trkpt>
      <trkpt lat="42.93098" lon="0.75295">
        <ele>1705.5</ele>
        <time>2020-02-23T09:51:56Z</time>
      </trkpt>
      <trkpt lat="42.93098" lon="0.75294">
        <ele>1706.7</ele>
        <time>2020-02-23T09:51:57Z</time>
      </trkpt>
      <trkpt lat="42.93098" lon="0.75294">
        <ele>1706.7</ele>
        <time>2020-02-23T09:51:58Z</time>
      </trkpt>
      <trkpt lat="42.93098" lon="0.75293">
        <ele>1706.7</ele>
        <time>2020-02-23T09:51:59Z</time>
      </trkpt>
      <trkpt lat="42.93098" lon="0.75293">
        <ele>1706.7</ele>
        <time>2020-02-23T09:52:00Z</time>
      </trkpt>
      <trkpt lat="42.93098" lon="0.75292">
        <ele>1706.7</ele>
        <time>2020-02-23T09:52:01Z</time>
      </trkpt>
      <trkpt lat="42.93098" lon="0.75291">
        <ele>1707</ele>
        <time>2020-02-23T09:52:02Z</time>
      </trkpt>
      <trkpt lat="42.93098" lon="0.75291">
        <ele>1707</ele>
        <time>2020-02-23T09:52:03Z</time>
      </trkpt>
      <trkpt lat="42.93098" lon="0.7529">
        <ele>1708.1</ele>
        <time>2020-02-23T09:52:04Z</time>
      </trkpt>
      <trkpt lat="42.93097" lon="0.7529">
        <ele>1708.1</ele>
        <time>2020-02-23T09:52:05Z</time>
      </trkpt>
      <trkpt lat="42.93097" lon="0.75289">
        <ele>1708.1</ele>
        <time>2020-02-23T09:52:06Z</time>
      </trkpt>
      <trkpt lat="42.93097" lon="0.75288">
        <ele>1708.1</ele>
        <time>2020-02-23T09:52:07Z</time>
      </trkpt>
      <trkpt lat="42.93097" lon="0.75288">
        <ele>1708.1</ele>
        <time>2020-02-23T09:52:08Z</time>
      </trkpt>
      <trkpt lat="42.93097" lon="0.75287">
        <ele>1708.1</ele>
        <time>2020-02-23T09:52:09Z</time>
      </trkpt>
      <trkpt lat="42.93097" lon="0.75287">
        <ele>1708.1</ele>
        <time>2020-02-23T09:52:10Z</time>
      </trkpt>
      <trkpt lat="42.93097" lon="0.75286">
        <ele>1709.3</ele>
        <time>2020-02-23T09:52:11Z</time>
      </trkpt>
      <trkpt lat="42.93097" lon="0.75285">
        <ele>1709.3</ele>
        <time>2020-02-23T09:52:12Z</time>
      </trkpt>
      <trkpt lat="42.93097" lon="0.75285">
        <ele>1709.3</ele>
        <time>2020-02-23T09:52:13Z</time>
      </trkpt>
      <trkpt lat="42.93097" lon="0.75284">
        <ele>1709.3</ele>
        <time>2020-02-23T09:52:14Z</time>
      </trkpt>
      <trkpt lat="42.93097" lon="0.75284">
        <ele>1709.3</ele>
        <time>2020-02-23T09:52:15Z</time>
      </trkpt>
      <trkpt lat="42.93097" lon="0.75283">
        <ele>1709.3</ele>
        <time>2020-02-23T09:52:16Z</time>
      </trkpt>
      <trkpt lat="42.93097" lon="0.75282">
        <ele>1709.3</ele>
        <time>2020-02-23T09:52:17Z</time>
      </trkpt>
      <trkpt lat="42.93097" lon="0.75282">
        <ele>1710.5</ele>
        <time>2020-02-23T09:52:18Z</time>
      </trkpt>
      <trkpt lat="42.93097" lon="0.75281">
        <ele>1710.5</ele>
        <time>2020-02-23T09:52:19Z</time>
      </trkpt>
      <trkpt lat="42.93097" lon="0.75281">
        <ele>1710.5</ele>
        <time>2020-02-23T09:52:20Z</time>
      </trkpt>
      <trkpt lat="42.93097" lon="0.7528">
        <ele>1710.5</ele>
        <time>2020-02-23T09:52:21Z</time>
      </trkpt>
      <trkpt lat="42.93097" lon="0.75279">
        <ele>1710.5</ele>
        <time>2020-02-23T09:52:22Z</time>
      </trkpt>
      <trkpt lat="42.93097" lon="0.75279">
        <ele>1710.5</ele>
        <time>2020-02-23T09:52:23Z</time>
      </trkpt>
      <trkpt lat="42.93097" lon="0.75278">
        <ele>1710.5</ele>
        <time>2020-02-23T09:52:24Z</time>
      </trkpt>
      <trkpt lat="42.93097" lon="0.75278">
        <ele>1711.7</ele>
        <time>2020-02-23T09:52:25Z</time>
      </trkpt>
      <trkpt lat="42.93097" lon="0.75277">
        <ele>1711.7</ele>
        <time>2020-02-23T09:52:26Z</time>
      </trkpt>
      <trkpt lat="42.93097" lon="0.75276">
        <ele>1711.7</ele>
        <time>2020-02-23T09:52:27Z</time>
      </trkpt>
      <trkpt lat="42.93097" lon="0.75276">
        <ele>1711.7</ele>
        <time>2020-02-23T09:52:28Z</time>
      </trkpt>
      <trkpt lat="42.93097" lon="0.75275">
        <ele>1711.7</ele>
        <time>2020-02-23T09:52:29Z</time>
      </trkpt>
      <trkpt lat="42.93097" lon="0.75274">
        <ele>1711.7</ele>
        <time>2020-02-23T09:52:30Z</time>
      </trkpt>
      <trkpt lat="42.93097" lon="0.75274">
        <ele>1711.7</ele>
        <time>2020-02-23T09:52:31Z</time>
      </trkpt>
      <trkpt lat="42.93097" lon="0.75273">
        <ele>1713</ele>
        <time>2020-02-23T09:52:32Z</time>
      </trkpt>
      <trkpt lat="42.93097" lon="0.75273">
        <ele>1713</ele>
        <time>2020-02-23T09:52:33Z</time>
      </trkpt>
      <trkpt lat="42.93097" lon="0.75272">
        <ele>1713</ele>
        <time>2020-02-23T09:52:34Z</time>
      </trkpt>
      <trkpt lat="42.93097" lon="0.75272">
        <ele>1713</ele>
        <time>2020-02-23T09:52:35Z</time>
      </trkpt>
      <trkpt lat="42.93097" lon="0.75272">
        <ele>1713</ele>
        <time>2020-02-23T09:52:36Z</time>
      </trkpt>
      <trkpt lat="42.93097" lon="0.75272">
        <ele>1713</ele>
        <time>2020-02-23T09:52:37Z</time>
      </trkpt>
      <trkpt lat="42.93097" lon="0.75272">
        <ele>1713</ele>
        <time>2020-02-23T09:52:38Z</time>
      </trkpt>
      <trkpt lat="42.93097" lon="0.75272">
        <ele>1713</ele>
        <time>2020-02-23T09:52:39Z</time>
      </trkpt>
      <trkpt lat="42.93097" lon="0.75272">
        <ele>1713</ele>
        <time>2020-02-23T09:52:40Z</time>
      </trkpt>
      <trkpt lat="42.93097" lon="0.75272">
        <ele>1713</ele>
        <time>2020-02-23T09:52:41Z</time>
      </trkpt>
      <trkpt lat="42.93097" lon="0.75272">
        <ele>1713</ele>
        <time>2020-02-23T09:52:42Z</time>
      </trkpt>
      <trkpt lat="42.93097" lon="0.75272">
        <ele>1713</ele>
        <time>2020-02-23T09:52:43Z</time>
      </trkpt>
      <trkpt lat="42.93097" lon="0.75272">
        <ele>1713</ele>
        <time>2020-02-23T09:52:44Z</time>
      </trkpt>
      <trkpt lat="42.93097" lon="0.75272">
        <ele>1713</ele>
        <time>2020-02-23T09:52:45Z</time>
      </trkpt>
      <trkpt lat="42.93097" lon="0.75272">
        <ele>1713</ele>
        <time>2020-02-23T09:52:46Z</time>
      </trkpt>
      <trkpt lat="42.93097" lon="0.75272">
        <ele>1713</ele>
        <time>2020-02-23T09:52:47Z</time>
      </trkpt>
      <trkpt lat="42.93097" lon="0.75272">
        <ele>1713</ele>
        <time>2020-02-23T09:52:48Z</time>
      </trkpt>
      <trkpt lat="42.93097" lon="0.75272">
        <ele>1713</ele>
        <time>2020-02-23T09:52:49Z</time>
      </trkpt>
      <trkpt lat="42.93097" lon="0.75272">
        <ele>1713</ele>
        <time>2020-02-23T09:52:50Z</time>
      </trkpt>
      <trkpt lat="42.93099" lon="0.75271">
        <ele>1712.8</ele>
        <time>2020-02-23T09:52:51Z</time>
      </trkpt>
      <trkpt lat="42.93099" lon="0.75271">
        <ele>1712.8</ele>
        <time>2020-02-23T09:52:52Z</time>
      </trkpt>
      <trkpt lat="42.93099" lon="0.75271">
        <ele>1712.8</ele>
        <time>2020-02-23T09:52:53Z</time>
      </trkpt>
      <trkpt lat="42.93099" lon="0.7527">
        <ele>1712.8</ele>
        <time>2020-02-23T09:52:54Z</time>
      </trkpt>
      <trkpt lat="42.93099" lon="0.7527">
        <ele>1712.8</ele>
        <time>2020-02-23T09:52:55Z</time>
      </trkpt>
      <trkpt lat="42.93099" lon="0.75269">
        <ele>1714.1</ele>
        <time>2020-02-23T09:52:56Z</time>
      </trkpt>
      <trkpt lat="42.931" lon="0.75269">
        <ele>1714.1</ele>
        <time>2020-02-23T09:52:57Z</time>
      </trkpt>
      <trkpt lat="42.931" lon="0.75268">
        <ele>1714.1</ele>
        <time>2020-02-23T09:52:58Z</time>
      </trkpt>
      <trkpt lat="42.931" lon="0.75268">
        <ele>1714.1</ele>
        <time>2020-02-23T09:52:59Z</time>
      </trkpt>
      <trkpt lat="42.931" lon="0.75267">
        <ele>1714.1</ele>
        <time>2020-02-23T09:53:00Z</time>
      </trkpt>
      <trkpt lat="42.931" lon="0.75267">
        <ele>1714.1</ele>
        <time>2020-02-23T09:53:01Z</time>
      </trkpt>
      <trkpt lat="42.931" lon="0.75266">
        <ele>1714.1</ele>
        <time>2020-02-23T09:53:02Z</time>
      </trkpt>
      <trkpt lat="42.931" lon="0.75266">
        <ele>1714.1</ele>
        <time>2020-02-23T09:53:03Z</time>
      </trkpt>
      <trkpt lat="42.931" lon="0.75265">
        <ele>1714.1</ele>
        <time>2020-02-23T09:53:04Z</time>
      </trkpt>
      <trkpt lat="42.93101" lon="0.75265">
        <ele>1715.4</ele>
        <time>2020-02-23T09:53:05Z</time>
      </trkpt>
      <trkpt lat="42.93101" lon="0.75264">
        <ele>1715.4</ele>
        <time>2020-02-23T09:53:06Z</time>
      </trkpt>
      <trkpt lat="42.93101" lon="0.75264">
        <ele>1715.3</ele>
        <time>2020-02-23T09:53:07Z</time>
      </trkpt>
      <trkpt lat="42.93101" lon="0.75263">
        <ele>1715.3</ele>
        <time>2020-02-23T09:53:08Z</time>
      </trkpt>
      <trkpt lat="42.93101" lon="0.75263">
        <ele>1715.3</ele>
        <time>2020-02-23T09:53:09Z</time>
      </trkpt>
      <trkpt lat="42.93101" lon="0.75262">
        <ele>1715.3</ele>
        <time>2020-02-23T09:53:10Z</time>
      </trkpt>
      <trkpt lat="42.93101" lon="0.75262">
        <ele>1715.3</ele>
        <time>2020-02-23T09:53:11Z</time>
      </trkpt>
      <trkpt lat="42.93101" lon="0.75261">
        <ele>1715.3</ele>
        <time>2020-02-23T09:53:12Z</time>
      </trkpt>
      <trkpt lat="42.93102" lon="0.75261">
        <ele>1715.3</ele>
        <time>2020-02-23T09:53:13Z</time>
      </trkpt>
      <trkpt lat="42.93102" lon="0.7526">
        <ele>1716.6</ele>
        <time>2020-02-23T09:53:14Z</time>
      </trkpt>
      <trkpt lat="42.93102" lon="0.7526">
        <ele>1716.6</ele>
        <time>2020-02-23T09:53:15Z</time>
      </trkpt>
      <trkpt lat="42.93102" lon="0.75259">
        <ele>1716.6</ele>
        <time>2020-02-23T09:53:16Z</time>
      </trkpt>
      <trkpt lat="42.93103" lon="0.75258">
        <ele>1716.6</ele>
        <time>2020-02-23T09:53:17Z</time>
      </trkpt>
      <trkpt lat="42.93105" lon="0.75256">
        <ele>1716.6</ele>
        <time>2020-02-23T09:53:18Z</time>
      </trkpt>
      <trkpt lat="42.93106" lon="0.75255">
        <ele>1717.8</ele>
        <time>2020-02-23T09:53:19Z</time>
      </trkpt>
      <trkpt lat="42.93107" lon="0.75254">
        <ele>1717.8</ele>
        <time>2020-02-23T09:53:20Z</time>
      </trkpt>
      <trkpt lat="42.93109" lon="0.75252">
        <ele>1717.8</ele>
        <time>2020-02-23T09:53:21Z</time>
      </trkpt>
      <trkpt lat="42.9311" lon="0.75251">
        <ele>1719</ele>
        <time>2020-02-23T09:53:22Z</time>
      </trkpt>
      <trkpt lat="42.93111" lon="0.75248">
        <ele>1720.3</ele>
        <time>2020-02-23T09:53:23Z</time>
      </trkpt>
      <trkpt lat="42.93112" lon="0.75244">
        <ele>1720.3</ele>
        <time>2020-02-23T09:53:24Z</time>
      </trkpt>
      <trkpt lat="42.93113" lon="0.75241">
        <ele>1721.4</ele>
        <time>2020-02-23T09:53:25Z</time>
      </trkpt>
      <trkpt lat="42.93114" lon="0.75238">
        <ele>1722.6</ele>
        <time>2020-02-23T09:53:26Z</time>
      </trkpt>
      <trkpt lat="42.93113" lon="0.75238">
        <ele>1722.6</ele>
        <time>2020-02-23T09:53:27Z</time>
      </trkpt>
      <trkpt lat="42.93113" lon="0.75238">
        <ele>1722.6</ele>
        <time>2020-02-23T09:53:28Z</time>
      </trkpt>
      <trkpt lat="42.93113" lon="0.75237">
        <ele>1722.5</ele>
        <time>2020-02-23T09:53:29Z</time>
      </trkpt>
      <trkpt lat="42.93113" lon="0.75237">
        <ele>1722.5</ele>
        <time>2020-02-23T09:53:30Z</time>
      </trkpt>
      <trkpt lat="42.93113" lon="0.75237">
        <ele>1722.5</ele>
        <time>2020-02-23T09:53:31Z</time>
      </trkpt>
      <trkpt lat="42.93113" lon="0.75237">
        <ele>1722.5</ele>
        <time>2020-02-23T09:53:32Z</time>
      </trkpt>
      <trkpt lat="42.93113" lon="0.75237">
        <ele>1722.5</ele>
        <time>2020-02-23T09:53:33Z</time>
      </trkpt>
      <trkpt lat="42.93113" lon="0.75237">
        <ele>1722.5</ele>
        <time>2020-02-23T09:53:34Z</time>
      </trkpt>
      <trkpt lat="42.93113" lon="0.75237">
        <ele>1722.5</ele>
        <time>2020-02-23T09:53:35Z</time>
      </trkpt>
      <trkpt lat="42.93113" lon="0.75236">
        <ele>1722.5</ele>
        <time>2020-02-23T09:53:36Z</time>
      </trkpt>
      <trkpt lat="42.93113" lon="0.75236">
        <ele>1722.5</ele>
        <time>2020-02-23T09:53:37Z</time>
      </trkpt>
      <trkpt lat="42.93113" lon="0.75236">
        <ele>1722.5</ele>
        <time>2020-02-23T09:53:38Z</time>
      </trkpt>
      <trkpt lat="42.93113" lon="0.75236">
        <ele>1722.5</ele>
        <time>2020-02-23T09:53:39Z</time>
      </trkpt>
      <trkpt lat="42.93113" lon="0.75236">
        <ele>1722.5</ele>
        <time>2020-02-23T09:53:40Z</time>
      </trkpt>
      <trkpt lat="42.93112" lon="0.75236">
        <ele>1722.5</ele>
        <time>2020-02-23T09:53:41Z</time>
      </trkpt>
      <trkpt lat="42.93112" lon="0.75235">
        <ele>1722.5</ele>
        <time>2020-02-23T09:53:42Z</time>
      </trkpt>
      <trkpt lat="42.93112" lon="0.75235">
        <ele>1722.5</ele>
        <time>2020-02-23T09:53:43Z</time>
      </trkpt>
      <trkpt lat="42.93112" lon="0.75235">
        <ele>1722.5</ele>
        <time>2020-02-23T09:53:44Z</time>
      </trkpt>
      <trkpt lat="42.93112" lon="0.75235">
        <ele>1722.5</ele>
        <time>2020-02-23T09:53:45Z</time>
      </trkpt>
      <trkpt lat="42.93112" lon="0.75235">
        <ele>1723.7</ele>
        <time>2020-02-23T09:53:46Z</time>
      </trkpt>
      <trkpt lat="42.93112" lon="0.75235">
        <ele>1723.7</ele>
        <time>2020-02-23T09:53:47Z</time>
      </trkpt>
      <trkpt lat="42.93112" lon="0.75235">
        <ele>1723.7</ele>
        <time>2020-02-23T09:53:48Z</time>
      </trkpt>
      <trkpt lat="42.93112" lon="0.75234">
        <ele>1723.7</ele>
        <time>2020-02-23T09:53:49Z</time>
      </trkpt>
      <trkpt lat="42.93112" lon="0.75234">
        <ele>1723.7</ele>
        <time>2020-02-23T09:53:50Z</time>
      </trkpt>
      <trkpt lat="42.93112" lon="0.75234">
        <ele>1723.7</ele>
        <time>2020-02-23T09:53:51Z</time>
      </trkpt>
      <trkpt lat="42.93112" lon="0.75234">
        <ele>1723.7</ele>
        <time>2020-02-23T09:53:52Z</time>
      </trkpt>
      <trkpt lat="42.93112" lon="0.75234">
        <ele>1723.7</ele>
        <time>2020-02-23T09:53:53Z</time>
      </trkpt>
      <trkpt lat="42.93112" lon="0.75234">
        <ele>1723.7</ele>
        <time>2020-02-23T09:53:54Z</time>
      </trkpt>
      <trkpt lat="42.93112" lon="0.75233">
        <ele>1723.7</ele>
        <time>2020-02-23T09:53:55Z</time>
      </trkpt>
      <trkpt lat="42.93111" lon="0.75233">
        <ele>1723.7</ele>
        <time>2020-02-23T09:53:56Z</time>
      </trkpt>
      <trkpt lat="42.93111" lon="0.75233">
        <ele>1723.7</ele>
        <time>2020-02-23T09:53:57Z</time>
      </trkpt>
      <trkpt lat="42.93111" lon="0.75233">
        <ele>1723.7</ele>
        <time>2020-02-23T09:53:58Z</time>
      </trkpt>
      <trkpt lat="42.93111" lon="0.75233">
        <ele>1723.7</ele>
        <time>2020-02-23T09:53:59Z</time>
      </trkpt>
      <trkpt lat="42.93111" lon="0.75233">
        <ele>1723.7</ele>
        <time>2020-02-23T09:54:00Z</time>
      </trkpt>
      <trkpt lat="42.93111" lon="0.75233">
        <ele>1723.7</ele>
        <time>2020-02-23T09:54:01Z</time>
      </trkpt>
      <trkpt lat="42.93111" lon="0.75232">
        <ele>1723.7</ele>
        <time>2020-02-23T09:54:02Z</time>
      </trkpt>
      <trkpt lat="42.93111" lon="0.75232">
        <ele>1723.7</ele>
        <time>2020-02-23T09:54:03Z</time>
      </trkpt>
      <trkpt lat="42.93111" lon="0.75232">
        <ele>1723.7</ele>
        <time>2020-02-23T09:54:04Z</time>
      </trkpt>
      <trkpt lat="42.93111" lon="0.75232">
        <ele>1723.7</ele>
        <time>2020-02-23T09:54:05Z</time>
      </trkpt>
      <trkpt lat="42.93111" lon="0.75232">
        <ele>1723.7</ele>
        <time>2020-02-23T09:54:06Z</time>
      </trkpt>
      <trkpt lat="42.93111" lon="0.75232">
        <ele>1723.7</ele>
        <time>2020-02-23T09:54:07Z</time>
      </trkpt>
      <trkpt lat="42.93111" lon="0.75231">
        <ele>1723.7</ele>
        <time>2020-02-23T09:54:08Z</time>
      </trkpt>
      <trkpt lat="42.93111" lon="0.75231">
        <ele>1723.7</ele>
        <time>2020-02-23T09:54:09Z</time>
      </trkpt>
      <trkpt lat="42.9311" lon="0.75231">
        <ele>1723.7</ele>
        <time>2020-02-23T09:54:10Z</time>
      </trkpt>
      <trkpt lat="42.9311" lon="0.75231">
        <ele>1723.7</ele>
        <time>2020-02-23T09:54:11Z</time>
      </trkpt>
      <trkpt lat="42.9311" lon="0.75231">
        <ele>1723.7</ele>
        <time>2020-02-23T09:54:12Z</time>
      </trkpt>
      <trkpt lat="42.9311" lon="0.75231">
        <ele>1723.6</ele>
        <time>2020-02-23T09:54:13Z</time>
      </trkpt>
      <trkpt lat="42.9311" lon="0.75231">
        <ele>1724.9</ele>
        <time>2020-02-23T09:54:14Z</time>
      </trkpt>
      <trkpt lat="42.9311" lon="0.7523">
        <ele>1724.9</ele>
        <time>2020-02-23T09:54:15Z</time>
      </trkpt>
      <trkpt lat="42.9311" lon="0.7523">
        <ele>1724.9</ele>
        <time>2020-02-23T09:54:16Z</time>
      </trkpt>
      <trkpt lat="42.9311" lon="0.7523">
        <ele>1724.9</ele>
        <time>2020-02-23T09:54:17Z</time>
      </trkpt>
      <trkpt lat="42.9311" lon="0.7523">
        <ele>1724.9</ele>
        <time>2020-02-23T09:54:18Z</time>
      </trkpt>
      <trkpt lat="42.9311" lon="0.7523">
        <ele>1724.9</ele>
        <time>2020-02-23T09:54:19Z</time>
      </trkpt>
      <trkpt lat="42.9311" lon="0.7523">
        <ele>1724.9</ele>
        <time>2020-02-23T09:54:20Z</time>
      </trkpt>
      <trkpt lat="42.9311" lon="0.75229">
        <ele>1724.9</ele>
        <time>2020-02-23T09:54:21Z</time>
      </trkpt>
      <trkpt lat="42.9311" lon="0.75229">
        <ele>1724.9</ele>
        <time>2020-02-23T09:54:22Z</time>
      </trkpt>
      <trkpt lat="42.9311" lon="0.75229">
        <ele>1724.9</ele>
        <time>2020-02-23T09:54:23Z</time>
      </trkpt>
      <trkpt lat="42.93109" lon="0.75229">
        <ele>1724.9</ele>
        <time>2020-02-23T09:54:24Z</time>
      </trkpt>
      <trkpt lat="42.93109" lon="0.75229">
        <ele>1724.9</ele>
        <time>2020-02-23T09:54:25Z</time>
      </trkpt>
      <trkpt lat="42.93109" lon="0.75229">
        <ele>1724.9</ele>
        <time>2020-02-23T09:54:26Z</time>
      </trkpt>
      <trkpt lat="42.93109" lon="0.75229">
        <ele>1724.9</ele>
        <time>2020-02-23T09:54:27Z</time>
      </trkpt>
      <trkpt lat="42.93109" lon="0.75228">
        <ele>1724.9</ele>
        <time>2020-02-23T09:54:28Z</time>
      </trkpt>
      <trkpt lat="42.93109" lon="0.75228">
        <ele>1724.9</ele>
        <time>2020-02-23T09:54:29Z</time>
      </trkpt>
      <trkpt lat="42.93109" lon="0.75228">
        <ele>1724.9</ele>
        <time>2020-02-23T09:54:30Z</time>
      </trkpt>
      <trkpt lat="42.93109" lon="0.75228">
        <ele>1724.9</ele>
        <time>2020-02-23T09:54:31Z</time>
      </trkpt>
      <trkpt lat="42.93109" lon="0.75228">
        <ele>1724.9</ele>
        <time>2020-02-23T09:54:32Z</time>
      </trkpt>
      <trkpt lat="42.93109" lon="0.75228">
        <ele>1724.9</ele>
        <time>2020-02-23T09:54:33Z</time>
      </trkpt>
      <trkpt lat="42.93109" lon="0.75227">
        <ele>1724.9</ele>
        <time>2020-02-23T09:54:34Z</time>
      </trkpt>
      <trkpt lat="42.93109" lon="0.75225">
        <ele>1726.3</ele>
        <time>2020-02-23T09:54:35Z</time>
      </trkpt>
      <trkpt lat="42.93109" lon="0.75223">
        <ele>1726.3</ele>
        <time>2020-02-23T09:54:36Z</time>
      </trkpt>
      <trkpt lat="42.9311" lon="0.75221">
        <ele>1727.7</ele>
        <time>2020-02-23T09:54:37Z</time>
      </trkpt>
      <trkpt lat="42.9311" lon="0.75219">
        <ele>1727.7</ele>
        <time>2020-02-23T09:54:38Z</time>
      </trkpt>
      <trkpt lat="42.9311" lon="0.75217">
        <ele>1729.2</ele>
        <time>2020-02-23T09:54:39Z</time>
      </trkpt>
      <trkpt lat="42.9311" lon="0.75215">
        <ele>1729.2</ele>
        <time>2020-02-23T09:54:40Z</time>
      </trkpt>
      <trkpt lat="42.9311" lon="0.75215">
        <ele>1729.2</ele>
        <time>2020-02-23T09:54:41Z</time>
      </trkpt>
      <trkpt lat="42.9311" lon="0.75215">
        <ele>1729.2</ele>
        <time>2020-02-23T09:54:42Z</time>
      </trkpt>
      <trkpt lat="42.9311" lon="0.75214">
        <ele>1729.2</ele>
        <time>2020-02-23T09:54:43Z</time>
      </trkpt>
      <trkpt lat="42.93109" lon="0.75214">
        <ele>1729.2</ele>
        <time>2020-02-23T09:54:44Z</time>
      </trkpt>
      <trkpt lat="42.93109" lon="0.75214">
        <ele>1729.2</ele>
        <time>2020-02-23T09:54:45Z</time>
      </trkpt>
      <trkpt lat="42.93109" lon="0.75214">
        <ele>1729.2</ele>
        <time>2020-02-23T09:54:46Z</time>
      </trkpt>
      <trkpt lat="42.93109" lon="0.75213">
        <ele>1730.6</ele>
        <time>2020-02-23T09:54:47Z</time>
      </trkpt>
      <trkpt lat="42.93109" lon="0.75213">
        <ele>1730.6</ele>
        <time>2020-02-23T09:54:48Z</time>
      </trkpt>
      <trkpt lat="42.93108" lon="0.75213">
        <ele>1730.6</ele>
        <time>2020-02-23T09:54:49Z</time>
      </trkpt>
      <trkpt lat="42.93108" lon="0.75212">
        <ele>1730.6</ele>
        <time>2020-02-23T09:54:50Z</time>
      </trkpt>
      <trkpt lat="42.93108" lon="0.75212">
        <ele>1730.6</ele>
        <time>2020-02-23T09:54:51Z</time>
      </trkpt>
      <trkpt lat="42.93108" lon="0.75212">
        <ele>1730.6</ele>
        <time>2020-02-23T09:54:52Z</time>
      </trkpt>
      <trkpt lat="42.93108" lon="0.75211">
        <ele>1730.6</ele>
        <time>2020-02-23T09:54:53Z</time>
      </trkpt>
      <trkpt lat="42.93107" lon="0.75211">
        <ele>1730.6</ele>
        <time>2020-02-23T09:54:54Z</time>
      </trkpt>
      <trkpt lat="42.93107" lon="0.75211">
        <ele>1730.6</ele>
        <time>2020-02-23T09:54:55Z</time>
      </trkpt>
      <trkpt lat="42.93107" lon="0.7521">
        <ele>1730.6</ele>
        <time>2020-02-23T09:54:56Z</time>
      </trkpt>
      <trkpt lat="42.93107" lon="0.7521">
        <ele>1730.6</ele>
        <time>2020-02-23T09:54:57Z</time>
      </trkpt>
      <trkpt lat="42.93107" lon="0.7521">
        <ele>1730.6</ele>
        <time>2020-02-23T09:54:58Z</time>
      </trkpt>
      <trkpt lat="42.93106" lon="0.7521">
        <ele>1730.6</ele>
        <time>2020-02-23T09:54:59Z</time>
      </trkpt>
      <trkpt lat="42.93106" lon="0.75209">
        <ele>1730.6</ele>
        <time>2020-02-23T09:55:00Z</time>
      </trkpt>
      <trkpt lat="42.93106" lon="0.75209">
        <ele>1732</ele>
        <time>2020-02-23T09:55:01Z</time>
      </trkpt>
      <trkpt lat="42.93106" lon="0.75209">
        <ele>1732</ele>
        <time>2020-02-23T09:55:02Z</time>
      </trkpt>
      <trkpt lat="42.93106" lon="0.75208">
        <ele>1732</ele>
        <time>2020-02-23T09:55:03Z</time>
      </trkpt>
      <trkpt lat="42.93105" lon="0.75208">
        <ele>1732</ele>
        <time>2020-02-23T09:55:04Z</time>
      </trkpt>
      <trkpt lat="42.93105" lon="0.75208">
        <ele>1732</ele>
        <time>2020-02-23T09:55:05Z</time>
      </trkpt>
      <trkpt lat="42.93105" lon="0.75207">
        <ele>1732</ele>
        <time>2020-02-23T09:55:06Z</time>
      </trkpt>
      <trkpt lat="42.93105" lon="0.75207">
        <ele>1732</ele>
        <time>2020-02-23T09:55:07Z</time>
      </trkpt>
      <trkpt lat="42.93105" lon="0.75207">
        <ele>1732</ele>
        <time>2020-02-23T09:55:08Z</time>
      </trkpt>
      <trkpt lat="42.93104" lon="0.75206">
        <ele>1732</ele>
        <time>2020-02-23T09:55:09Z</time>
      </trkpt>
      <trkpt lat="42.93104" lon="0.75206">
        <ele>1732</ele>
        <time>2020-02-23T09:55:10Z</time>
      </trkpt>
      <trkpt lat="42.93104" lon="0.75206">
        <ele>1732</ele>
        <time>2020-02-23T09:55:11Z</time>
      </trkpt>
      <trkpt lat="42.93104" lon="0.75205">
        <ele>1732</ele>
        <time>2020-02-23T09:55:12Z</time>
      </trkpt>
      <trkpt lat="42.93104" lon="0.75205">
        <ele>1732</ele>
        <time>2020-02-23T09:55:13Z</time>
      </trkpt>
      <trkpt lat="42.93104" lon="0.75205">
        <ele>1733.4</ele>
        <time>2020-02-23T09:55:14Z</time>
      </trkpt>
      <trkpt lat="42.93104" lon="0.75204">
        <ele>1733.4</ele>
        <time>2020-02-23T09:55:15Z</time>
      </trkpt>
      <trkpt lat="42.93104" lon="0.75204">
        <ele>1733.3</ele>
        <time>2020-02-23T09:55:16Z</time>
      </trkpt>
      <trkpt lat="42.93104" lon="0.75203">
        <ele>1733.3</ele>
        <time>2020-02-23T09:55:17Z</time>
      </trkpt>
      <trkpt lat="42.93104" lon="0.75203">
        <ele>1733.3</ele>
        <time>2020-02-23T09:55:18Z</time>
      </trkpt>
      <trkpt lat="42.93104" lon="0.75203">
        <ele>1733.3</ele>
        <time>2020-02-23T09:55:19Z</time>
      </trkpt>
      <trkpt lat="42.93104" lon="0.75202">
        <ele>1733.3</ele>
        <time>2020-02-23T09:55:20Z</time>
      </trkpt>
      <trkpt lat="42.93104" lon="0.75202">
        <ele>1733.3</ele>
        <time>2020-02-23T09:55:21Z</time>
      </trkpt>
      <trkpt lat="42.93104" lon="0.75202">
        <ele>1733.3</ele>
        <time>2020-02-23T09:55:22Z</time>
      </trkpt>
      <trkpt lat="42.93104" lon="0.75201">
        <ele>1733.3</ele>
        <time>2020-02-23T09:55:23Z</time>
      </trkpt>
      <trkpt lat="42.93104" lon="0.75201">
        <ele>1733.3</ele>
        <time>2020-02-23T09:55:24Z</time>
      </trkpt>
      <trkpt lat="42.93104" lon="0.75201">
        <ele>1734.8</ele>
        <time>2020-02-23T09:55:25Z</time>
      </trkpt>
      <trkpt lat="42.93103" lon="0.752">
        <ele>1734.8</ele>
        <time>2020-02-23T09:55:26Z</time>
      </trkpt>
      <trkpt lat="42.93103" lon="0.752">
        <ele>1734.8</ele>
        <time>2020-02-23T09:55:27Z</time>
      </trkpt>
      <trkpt lat="42.93103" lon="0.752">
        <ele>1734.8</ele>
        <time>2020-02-23T09:55:28Z</time>
      </trkpt>
      <trkpt lat="42.93103" lon="0.752">
        <ele>1734.8</ele>
        <time>2020-02-23T09:55:29Z</time>
      </trkpt>
      <trkpt lat="42.93103" lon="0.752">
        <ele>1734.8</ele>
        <time>2020-02-23T09:55:30Z</time>
      </trkpt>
      <trkpt lat="42.93103" lon="0.752">
        <ele>1734.8</ele>
        <time>2020-02-23T09:55:31Z</time>
      </trkpt>
      <trkpt lat="42.93103" lon="0.752">
        <ele>1734.8</ele>
        <time>2020-02-23T09:55:32Z</time>
      </trkpt>
      <trkpt lat="42.93103" lon="0.752">
        <ele>1734.8</ele>
        <time>2020-02-23T09:55:33Z</time>
      </trkpt>
      <trkpt lat="42.93102" lon="0.75202">
        <ele>1733.3</ele>
        <time>2020-02-23T09:55:34Z</time>
      </trkpt>
      <trkpt lat="42.93102" lon="0.75202">
        <ele>1733.3</ele>
        <time>2020-02-23T09:55:35Z</time>
      </trkpt>
      <trkpt lat="42.93102" lon="0.75202">
        <ele>1733.3</ele>
        <time>2020-02-23T09:55:36Z</time>
      </trkpt>
      <trkpt lat="42.93102" lon="0.75202">
        <ele>1733.3</ele>
        <time>2020-02-23T09:55:37Z</time>
      </trkpt>
      <trkpt lat="42.93102" lon="0.75202">
        <ele>1733.3</ele>
        <time>2020-02-23T09:55:38Z</time>
      </trkpt>
      <trkpt lat="42.93102" lon="0.75202">
        <ele>1733.3</ele>
        <time>2020-02-23T09:55:39Z</time>
      </trkpt>
      <trkpt lat="42.93102" lon="0.75202">
        <ele>1733.3</ele>
        <time>2020-02-23T09:55:40Z</time>
      </trkpt>
      <trkpt lat="42.93102" lon="0.75202">
        <ele>1733.3</ele>
        <time>2020-02-23T09:55:41Z</time>
      </trkpt>
      <trkpt lat="42.93099" lon="0.75199">
        <ele>1734.7</ele>
        <time>2020-02-23T09:55:42Z</time>
      </trkpt>
      <trkpt lat="42.93099" lon="0.75199">
        <ele>1734.7</ele>
        <time>2020-02-23T09:55:43Z</time>
      </trkpt>
      <trkpt lat="42.93099" lon="0.75199">
        <ele>1734.7</ele>
        <time>2020-02-23T09:55:44Z</time>
      </trkpt>
      <trkpt lat="42.93099" lon="0.75199">
        <ele>1734.7</ele>
        <time>2020-02-23T09:55:45Z</time>
      </trkpt>
      <trkpt lat="42.93099" lon="0.75199">
        <ele>1734.7</ele>
        <time>2020-02-23T09:55:46Z</time>
      </trkpt>
      <trkpt lat="42.93099" lon="0.75199">
        <ele>1734.7</ele>
        <time>2020-02-23T09:55:47Z</time>
      </trkpt>
      <trkpt lat="42.93099" lon="0.75199">
        <ele>1734.7</ele>
        <time>2020-02-23T09:55:48Z</time>
      </trkpt>
      <trkpt lat="42.93097" lon="0.75195">
        <ele>1736.1</ele>
        <time>2020-02-23T09:55:49Z</time>
      </trkpt>
      <trkpt lat="42.93097" lon="0.75195">
        <ele>1736.1</ele>
        <time>2020-02-23T09:55:50Z</time>
      </trkpt>
      <trkpt lat="42.93097" lon="0.75195">
        <ele>1736.1</ele>
        <time>2020-02-23T09:55:51Z</time>
      </trkpt>
      <trkpt lat="42.93097" lon="0.75195">
        <ele>1736.1</ele>
        <time>2020-02-23T09:55:52Z</time>
      </trkpt>
      <trkpt lat="42.93097" lon="0.75195">
        <ele>1736.1</ele>
        <time>2020-02-23T09:55:53Z</time>
      </trkpt>
      <trkpt lat="42.93097" lon="0.75195">
        <ele>1736.1</ele>
        <time>2020-02-23T09:55:54Z</time>
      </trkpt>
      <trkpt lat="42.93097" lon="0.75195">
        <ele>1736.1</ele>
        <time>2020-02-23T09:55:55Z</time>
      </trkpt>
      <trkpt lat="42.93096" lon="0.75192">
        <ele>1736.1</ele>
        <time>2020-02-23T09:55:56Z</time>
      </trkpt>
      <trkpt lat="42.93096" lon="0.75192">
        <ele>1736.1</ele>
        <time>2020-02-23T09:55:57Z</time>
      </trkpt>
      <trkpt lat="42.93095" lon="0.75191">
        <ele>1737.6</ele>
        <time>2020-02-23T09:55:58Z</time>
      </trkpt>
      <trkpt lat="42.93095" lon="0.75191">
        <ele>1737.6</ele>
        <time>2020-02-23T09:55:59Z</time>
      </trkpt>
      <trkpt lat="42.93095" lon="0.7519">
        <ele>1737.6</ele>
        <time>2020-02-23T09:56:00Z</time>
      </trkpt>
      <trkpt lat="42.93094" lon="0.75189">
        <ele>1737.5</ele>
        <time>2020-02-23T09:56:01Z</time>
      </trkpt>
      <trkpt lat="42.93094" lon="0.75189">
        <ele>1737.5</ele>
        <time>2020-02-23T09:56:02Z</time>
      </trkpt>
      <trkpt lat="42.93094" lon="0.75188">
        <ele>1737.5</ele>
        <time>2020-02-23T09:56:03Z</time>
      </trkpt>
      <trkpt lat="42.93093" lon="0.75187">
        <ele>1739</ele>
        <time>2020-02-23T09:56:04Z</time>
      </trkpt>
      <trkpt lat="42.93093" lon="0.75187">
        <ele>1739</ele>
        <time>2020-02-23T09:56:05Z</time>
      </trkpt>
      <trkpt lat="42.93092" lon="0.75186">
        <ele>1739</ele>
        <time>2020-02-23T09:56:06Z</time>
      </trkpt>
      <trkpt lat="42.93092" lon="0.75185">
        <ele>1739</ele>
        <time>2020-02-23T09:56:07Z</time>
      </trkpt>
      <trkpt lat="42.93092" lon="0.75185">
        <ele>1739</ele>
        <time>2020-02-23T09:56:08Z</time>
      </trkpt>
      <trkpt lat="42.93092" lon="0.75185">
        <ele>1739</ele>
        <time>2020-02-23T09:56:09Z</time>
      </trkpt>
      <trkpt lat="42.93091" lon="0.75184">
        <ele>1738.9</ele>
        <time>2020-02-23T09:56:10Z</time>
      </trkpt>
      <trkpt lat="42.93091" lon="0.75184">
        <ele>1738.9</ele>
        <time>2020-02-23T09:56:11Z</time>
      </trkpt>
      <trkpt lat="42.93091" lon="0.75184">
        <ele>1738.9</ele>
        <time>2020-02-23T09:56:12Z</time>
      </trkpt>
      <trkpt lat="42.93091" lon="0.75184">
        <ele>1738.9</ele>
        <time>2020-02-23T09:56:13Z</time>
      </trkpt>
      <trkpt lat="42.93091" lon="0.75184">
        <ele>1738.9</ele>
        <time>2020-02-23T09:56:14Z</time>
      </trkpt>
      <trkpt lat="42.93091" lon="0.75184">
        <ele>1738.9</ele>
        <time>2020-02-23T09:56:15Z</time>
      </trkpt>
      <trkpt lat="42.9309" lon="0.75184">
        <ele>1738.9</ele>
        <time>2020-02-23T09:56:16Z</time>
      </trkpt>
      <trkpt lat="42.9309" lon="0.75184">
        <ele>1738.9</ele>
        <time>2020-02-23T09:56:17Z</time>
      </trkpt>
      <trkpt lat="42.9309" lon="0.75184">
        <ele>1738.9</ele>
        <time>2020-02-23T09:56:18Z</time>
      </trkpt>
      <trkpt lat="42.9309" lon="0.75184">
        <ele>1738.9</ele>
        <time>2020-02-23T09:56:19Z</time>
      </trkpt>
      <trkpt lat="42.9309" lon="0.75184">
        <ele>1738.9</ele>
        <time>2020-02-23T09:56:20Z</time>
      </trkpt>
      <trkpt lat="42.93089" lon="0.75184">
        <ele>1738.9</ele>
        <time>2020-02-23T09:56:21Z</time>
      </trkpt>
      <trkpt lat="42.93089" lon="0.75184">
        <ele>1738.9</ele>
        <time>2020-02-23T09:56:22Z</time>
      </trkpt>
      <trkpt lat="42.93089" lon="0.75184">
        <ele>1738.9</ele>
        <time>2020-02-23T09:56:23Z</time>
      </trkpt>
      <trkpt lat="42.93089" lon="0.75184">
        <ele>1738.9</ele>
        <time>2020-02-23T09:56:24Z</time>
      </trkpt>
      <trkpt lat="42.93089" lon="0.75184">
        <ele>1738.9</ele>
        <time>2020-02-23T09:56:25Z</time>
      </trkpt>
      <trkpt lat="42.93089" lon="0.75184">
        <ele>1738.9</ele>
        <time>2020-02-23T09:56:26Z</time>
      </trkpt>
      <trkpt lat="42.93088" lon="0.75184">
        <ele>1738.9</ele>
        <time>2020-02-23T09:56:27Z</time>
      </trkpt>
      <trkpt lat="42.93088" lon="0.75184">
        <ele>1738.9</ele>
        <time>2020-02-23T09:56:28Z</time>
      </trkpt>
      <trkpt lat="42.93088" lon="0.75184">
        <ele>1738.9</ele>
        <time>2020-02-23T09:56:29Z</time>
      </trkpt>
      <trkpt lat="42.93088" lon="0.75184">
        <ele>1738.9</ele>
        <time>2020-02-23T09:56:30Z</time>
      </trkpt>
      <trkpt lat="42.93088" lon="0.75184">
        <ele>1738.9</ele>
        <time>2020-02-23T09:56:31Z</time>
      </trkpt>
      <trkpt lat="42.93088" lon="0.75184">
        <ele>1738.9</ele>
        <time>2020-02-23T09:56:32Z</time>
      </trkpt>
      <trkpt lat="42.93087" lon="0.75184">
        <ele>1738.9</ele>
        <time>2020-02-23T09:56:33Z</time>
      </trkpt>
      <trkpt lat="42.93087" lon="0.75184">
        <ele>1738.9</ele>
        <time>2020-02-23T09:56:34Z</time>
      </trkpt>
      <trkpt lat="42.93087" lon="0.75183">
        <ele>1738.9</ele>
        <time>2020-02-23T09:56:35Z</time>
      </trkpt>
      <trkpt lat="42.93087" lon="0.75183">
        <ele>1738.9</ele>
        <time>2020-02-23T09:56:36Z</time>
      </trkpt>
      <trkpt lat="42.93087" lon="0.75183">
        <ele>1740.3</ele>
        <time>2020-02-23T09:56:37Z</time>
      </trkpt>
      <trkpt lat="42.93086" lon="0.75183">
        <ele>1740.3</ele>
        <time>2020-02-23T09:56:38Z</time>
      </trkpt>
      <trkpt lat="42.93086" lon="0.75183">
        <ele>1740.3</ele>
        <time>2020-02-23T09:56:39Z</time>
      </trkpt>
      <trkpt lat="42.93086" lon="0.75183">
        <ele>1740.3</ele>
        <time>2020-02-23T09:56:40Z</time>
      </trkpt>
      <trkpt lat="42.93086" lon="0.75183">
        <ele>1740.3</ele>
        <time>2020-02-23T09:56:41Z</time>
      </trkpt>
      <trkpt lat="42.93086" lon="0.75183">
        <ele>1740.3</ele>
        <time>2020-02-23T09:56:42Z</time>
      </trkpt>
      <trkpt lat="42.93086" lon="0.75183">
        <ele>1740.3</ele>
        <time>2020-02-23T09:56:43Z</time>
      </trkpt>
      <trkpt lat="42.93085" lon="0.75183">
        <ele>1740.3</ele>
        <time>2020-02-23T09:56:44Z</time>
      </trkpt>
      <trkpt lat="42.93085" lon="0.75183">
        <ele>1740.3</ele>
        <time>2020-02-23T09:56:45Z</time>
      </trkpt>
      <trkpt lat="42.93085" lon="0.75183">
        <ele>1740.4</ele>
        <time>2020-02-23T09:56:46Z</time>
      </trkpt>
      <trkpt lat="42.93085" lon="0.75183">
        <ele>1740.4</ele>
        <time>2020-02-23T09:56:47Z</time>
      </trkpt>
      <trkpt lat="42.93085" lon="0.75183">
        <ele>1740.4</ele>
        <time>2020-02-23T09:56:48Z</time>
      </trkpt>
      <trkpt lat="42.93085" lon="0.75183">
        <ele>1740.4</ele>
        <time>2020-02-23T09:56:49Z</time>
      </trkpt>
      <trkpt lat="42.93084" lon="0.75183">
        <ele>1740.4</ele>
        <time>2020-02-23T09:56:50Z</time>
      </trkpt>
      <trkpt lat="42.93084" lon="0.75183">
        <ele>1740.4</ele>
        <time>2020-02-23T09:56:51Z</time>
      </trkpt>
      <trkpt lat="42.93084" lon="0.75183">
        <ele>1740.4</ele>
        <time>2020-02-23T09:56:52Z</time>
      </trkpt>
      <trkpt lat="42.93084" lon="0.75183">
        <ele>1740.4</ele>
        <time>2020-02-23T09:56:53Z</time>
      </trkpt>
      <trkpt lat="42.93084" lon="0.75183">
        <ele>1740.4</ele>
        <time>2020-02-23T09:56:54Z</time>
      </trkpt>
      <trkpt lat="42.93084" lon="0.75183">
        <ele>1740.4</ele>
        <time>2020-02-23T09:56:55Z</time>
      </trkpt>
      <trkpt lat="42.93084" lon="0.75183">
        <ele>1740.4</ele>
        <time>2020-02-23T09:56:56Z</time>
      </trkpt>
      <trkpt lat="42.93084" lon="0.75183">
        <ele>1740.4</ele>
        <time>2020-02-23T09:56:57Z</time>
      </trkpt>
      <trkpt lat="42.93084" lon="0.75183">
        <ele>1740.4</ele>
        <time>2020-02-23T09:56:58Z</time>
      </trkpt>
      <trkpt lat="42.93084" lon="0.75183">
        <ele>1740.4</ele>
        <time>2020-02-23T09:56:59Z</time>
      </trkpt>
      <trkpt lat="42.93084" lon="0.75183">
        <ele>1740.4</ele>
        <time>2020-02-23T09:57:00Z</time>
      </trkpt>
      <trkpt lat="42.93084" lon="0.75183">
        <ele>1740.4</ele>
        <time>2020-02-23T09:57:01Z</time>
      </trkpt>
      <trkpt lat="42.93084" lon="0.75183">
        <ele>1740.4</ele>
        <time>2020-02-23T09:57:02Z</time>
      </trkpt>
      <trkpt lat="42.93084" lon="0.75183">
        <ele>1740.4</ele>
        <time>2020-02-23T09:57:03Z</time>
      </trkpt>
      <trkpt lat="42.93084" lon="0.75183">
        <ele>1740.4</ele>
        <time>2020-02-23T09:57:04Z</time>
      </trkpt>
      <trkpt lat="42.93081" lon="0.7518">
        <ele>1740.4</ele>
        <time>2020-02-23T09:57:05Z</time>
      </trkpt>
      <trkpt lat="42.93081" lon="0.7518">
        <ele>1740.4</ele>
        <time>2020-02-23T09:57:06Z</time>
      </trkpt>
      <trkpt lat="42.93081" lon="0.7518">
        <ele>1740.4</ele>
        <time>2020-02-23T09:57:07Z</time>
      </trkpt>
      <trkpt lat="42.93081" lon="0.7518">
        <ele>1740.4</ele>
        <time>2020-02-23T09:57:08Z</time>
      </trkpt>
      <trkpt lat="42.93081" lon="0.7518">
        <ele>1740.4</ele>
        <time>2020-02-23T09:57:09Z</time>
      </trkpt>
      <trkpt lat="42.93081" lon="0.7518">
        <ele>1740.4</ele>
        <time>2020-02-23T09:57:10Z</time>
      </trkpt>
      <trkpt lat="42.93081" lon="0.7518">
        <ele>1740.4</ele>
        <time>2020-02-23T09:57:11Z</time>
      </trkpt>
      <trkpt lat="42.93081" lon="0.7518">
        <ele>1740.4</ele>
        <time>2020-02-23T09:57:12Z</time>
      </trkpt>
      <trkpt lat="42.93081" lon="0.7518">
        <ele>1740.4</ele>
        <time>2020-02-23T09:57:13Z</time>
      </trkpt>
      <trkpt lat="42.93077" lon="0.75182">
        <ele>1740.6</ele>
        <time>2020-02-23T09:57:14Z</time>
      </trkpt>
      <trkpt lat="42.93077" lon="0.75182">
        <ele>1740.6</ele>
        <time>2020-02-23T09:57:15Z</time>
      </trkpt>
      <trkpt lat="42.93077" lon="0.75182">
        <ele>1740.6</ele>
        <time>2020-02-23T09:57:16Z</time>
      </trkpt>
      <trkpt lat="42.93075" lon="0.75181">
        <ele>1740.7</ele>
        <time>2020-02-23T09:57:17Z</time>
      </trkpt>
      <trkpt lat="42.93075" lon="0.75181">
        <ele>1740.7</ele>
        <time>2020-02-23T09:57:18Z</time>
      </trkpt>
      <trkpt lat="42.93075" lon="0.75181">
        <ele>1740.7</ele>
        <time>2020-02-23T09:57:19Z</time>
      </trkpt>
      <trkpt lat="42.93075" lon="0.75181">
        <ele>1740.7</ele>
        <time>2020-02-23T09:57:20Z</time>
      </trkpt>
      <trkpt lat="42.93075" lon="0.75178">
        <ele>1742.1</ele>
        <time>2020-02-23T09:57:21Z</time>
      </trkpt>
      <trkpt lat="42.93075" lon="0.75178">
        <ele>1742.1</ele>
        <time>2020-02-23T09:57:22Z</time>
      </trkpt>
      <trkpt lat="42.93075" lon="0.75178">
        <ele>1742.1</ele>
        <time>2020-02-23T09:57:23Z</time>
      </trkpt>
      <trkpt lat="42.93075" lon="0.75178">
        <ele>1742.1</ele>
        <time>2020-02-23T09:57:24Z</time>
      </trkpt>
      <trkpt lat="42.93075" lon="0.75178">
        <ele>1742.1</ele>
        <time>2020-02-23T09:57:25Z</time>
      </trkpt>
      <trkpt lat="42.93075" lon="0.75178">
        <ele>1742.1</ele>
        <time>2020-02-23T09:57:26Z</time>
      </trkpt>
      <trkpt lat="42.93075" lon="0.75178">
        <ele>1742.1</ele>
        <time>2020-02-23T09:57:27Z</time>
      </trkpt>
      <trkpt lat="42.93074" lon="0.75174">
        <ele>1743.6</ele>
        <time>2020-02-23T09:57:28Z</time>
      </trkpt>
      <trkpt lat="42.93074" lon="0.75174">
        <ele>1743.6</ele>
        <time>2020-02-23T09:57:29Z</time>
      </trkpt>
      <trkpt lat="42.93074" lon="0.75174">
        <ele>1743.6</ele>
        <time>2020-02-23T09:57:30Z</time>
      </trkpt>
      <trkpt lat="42.93074" lon="0.75174">
        <ele>1743.6</ele>
        <time>2020-02-23T09:57:31Z</time>
      </trkpt>
      <trkpt lat="42.93074" lon="0.75174">
        <ele>1743.6</ele>
        <time>2020-02-23T09:57:32Z</time>
      </trkpt>
      <trkpt lat="42.93074" lon="0.75172">
        <ele>1743.6</ele>
        <time>2020-02-23T09:57:33Z</time>
      </trkpt>
      <trkpt lat="42.93074" lon="0.75172">
        <ele>1743.6</ele>
        <time>2020-02-23T09:57:34Z</time>
      </trkpt>
      <trkpt lat="42.93074" lon="0.75171">
        <ele>1743.6</ele>
        <time>2020-02-23T09:57:35Z</time>
      </trkpt>
      <trkpt lat="42.93075" lon="0.7517">
        <ele>1745</ele>
        <time>2020-02-23T09:57:36Z</time>
      </trkpt>
      <trkpt lat="42.93075" lon="0.75169">
        <ele>1745</ele>
        <time>2020-02-23T09:57:37Z</time>
      </trkpt>
      <trkpt lat="42.93075" lon="0.75168">
        <ele>1745</ele>
        <time>2020-02-23T09:57:38Z</time>
      </trkpt>
      <trkpt lat="42.93075" lon="0.75167">
        <ele>1745</ele>
        <time>2020-02-23T09:57:39Z</time>
      </trkpt>
      <trkpt lat="42.93075" lon="0.75166">
        <ele>1746.4</ele>
        <time>2020-02-23T09:57:40Z</time>
      </trkpt>
      <trkpt lat="42.93076" lon="0.75165">
        <ele>1746.4</ele>
        <time>2020-02-23T09:57:41Z</time>
      </trkpt>
      <trkpt lat="42.93076" lon="0.75164">
        <ele>1746.4</ele>
        <time>2020-02-23T09:57:42Z</time>
      </trkpt>
      <trkpt lat="42.93076" lon="0.75164">
        <ele>1746.4</ele>
        <time>2020-02-23T09:57:43Z</time>
      </trkpt>
      <trkpt lat="42.93076" lon="0.75163">
        <ele>1746.4</ele>
        <time>2020-02-23T09:57:44Z</time>
      </trkpt>
      <trkpt lat="42.93076" lon="0.75162">
        <ele>1747.8</ele>
        <time>2020-02-23T09:57:45Z</time>
      </trkpt>
      <trkpt lat="42.93076" lon="0.75161">
        <ele>1747.8</ele>
        <time>2020-02-23T09:57:46Z</time>
      </trkpt>
      <trkpt lat="42.93077" lon="0.7516">
        <ele>1747.8</ele>
        <time>2020-02-23T09:57:47Z</time>
      </trkpt>
      <trkpt lat="42.93077" lon="0.75159">
        <ele>1747.8</ele>
        <time>2020-02-23T09:57:48Z</time>
      </trkpt>
      <trkpt lat="42.93077" lon="0.75158">
        <ele>1747.8</ele>
        <time>2020-02-23T09:57:49Z</time>
      </trkpt>
      <trkpt lat="42.93077" lon="0.75157">
        <ele>1749.1</ele>
        <time>2020-02-23T09:57:50Z</time>
      </trkpt>
      <trkpt lat="42.93077" lon="0.75157">
        <ele>1749.1</ele>
        <time>2020-02-23T09:57:51Z</time>
      </trkpt>
      <trkpt lat="42.93077" lon="0.75156">
        <ele>1749.1</ele>
        <time>2020-02-23T09:57:52Z</time>
      </trkpt>
      <trkpt lat="42.93077" lon="0.75156">
        <ele>1749.1</ele>
        <time>2020-02-23T09:57:53Z</time>
      </trkpt>
      <trkpt lat="42.93077" lon="0.75156">
        <ele>1749.1</ele>
        <time>2020-02-23T09:57:54Z</time>
      </trkpt>
      <trkpt lat="42.93077" lon="0.75156">
        <ele>1749.1</ele>
        <time>2020-02-23T09:57:55Z</time>
      </trkpt>
      <trkpt lat="42.93077" lon="0.75155">
        <ele>1749.1</ele>
        <time>2020-02-23T09:57:56Z</time>
      </trkpt>
      <trkpt lat="42.93078" lon="0.75155">
        <ele>1749.1</ele>
        <time>2020-02-23T09:57:57Z</time>
      </trkpt>
      <trkpt lat="42.93078" lon="0.75155">
        <ele>1749.1</ele>
        <time>2020-02-23T09:57:58Z</time>
      </trkpt>
      <trkpt lat="42.93078" lon="0.75155">
        <ele>1749.1</ele>
        <time>2020-02-23T09:57:59Z</time>
      </trkpt>
      <trkpt lat="42.93078" lon="0.75154">
        <ele>1749.1</ele>
        <time>2020-02-23T09:58:00Z</time>
      </trkpt>
      <trkpt lat="42.93078" lon="0.75154">
        <ele>1749.1</ele>
        <time>2020-02-23T09:58:01Z</time>
      </trkpt>
      <trkpt lat="42.93078" lon="0.75154">
        <ele>1749.1</ele>
        <time>2020-02-23T09:58:02Z</time>
      </trkpt>
      <trkpt lat="42.93078" lon="0.75154">
        <ele>1749.1</ele>
        <time>2020-02-23T09:58:03Z</time>
      </trkpt>
      <trkpt lat="42.93078" lon="0.75153">
        <ele>1749.1</ele>
        <time>2020-02-23T09:58:04Z</time>
      </trkpt>
      <trkpt lat="42.93078" lon="0.75153">
        <ele>1750.4</ele>
        <time>2020-02-23T09:58:05Z</time>
      </trkpt>
      <trkpt lat="42.93078" lon="0.75153">
        <ele>1750.4</ele>
        <time>2020-02-23T09:58:06Z</time>
      </trkpt>
      <trkpt lat="42.93078" lon="0.75153">
        <ele>1750.4</ele>
        <time>2020-02-23T09:58:07Z</time>
      </trkpt>
      <trkpt lat="42.93078" lon="0.75152">
        <ele>1750.4</ele>
        <time>2020-02-23T09:58:08Z</time>
      </trkpt>
      <trkpt lat="42.93078" lon="0.75152">
        <ele>1750.4</ele>
        <time>2020-02-23T09:58:09Z</time>
      </trkpt>
      <trkpt lat="42.93078" lon="0.75152">
        <ele>1750.4</ele>
        <time>2020-02-23T09:58:10Z</time>
      </trkpt>
      <trkpt lat="42.93078" lon="0.75152">
        <ele>1750.4</ele>
        <time>2020-02-23T09:58:11Z</time>
      </trkpt>
      <trkpt lat="42.93078" lon="0.75152">
        <ele>1750.4</ele>
        <time>2020-02-23T09:58:12Z</time>
      </trkpt>
      <trkpt lat="42.93078" lon="0.75151">
        <ele>1750.4</ele>
        <time>2020-02-23T09:58:13Z</time>
      </trkpt>
      <trkpt lat="42.93078" lon="0.75151">
        <ele>1750.4</ele>
        <time>2020-02-23T09:58:14Z</time>
      </trkpt>
      <trkpt lat="42.93078" lon="0.75151">
        <ele>1750.4</ele>
        <time>2020-02-23T09:58:15Z</time>
      </trkpt>
      <trkpt lat="42.93078" lon="0.75151">
        <ele>1750.4</ele>
        <time>2020-02-23T09:58:16Z</time>
      </trkpt>
      <trkpt lat="42.93078" lon="0.7515">
        <ele>1750.4</ele>
        <time>2020-02-23T09:58:17Z</time>
      </trkpt>
      <trkpt lat="42.93078" lon="0.7515">
        <ele>1750.4</ele>
        <time>2020-02-23T09:58:18Z</time>
      </trkpt>
      <trkpt lat="42.93078" lon="0.7515">
        <ele>1750.4</ele>
        <time>2020-02-23T09:58:19Z</time>
      </trkpt>
      <trkpt lat="42.93078" lon="0.7515">
        <ele>1750.4</ele>
        <time>2020-02-23T09:58:20Z</time>
      </trkpt>
      <trkpt lat="42.93078" lon="0.75149">
        <ele>1750.4</ele>
        <time>2020-02-23T09:58:21Z</time>
      </trkpt>
      <trkpt lat="42.93078" lon="0.75149">
        <ele>1750.4</ele>
        <time>2020-02-23T09:58:22Z</time>
      </trkpt>
      <trkpt lat="42.93078" lon="0.75149">
        <ele>1751.8</ele>
        <time>2020-02-23T09:58:23Z</time>
      </trkpt>
      <trkpt lat="42.93078" lon="0.75149">
        <ele>1751.8</ele>
        <time>2020-02-23T09:58:24Z</time>
      </trkpt>
      <trkpt lat="42.93078" lon="0.75148">
        <ele>1751.8</ele>
        <time>2020-02-23T09:58:25Z</time>
      </trkpt>
      <trkpt lat="42.93078" lon="0.75148">
        <ele>1751.8</ele>
        <time>2020-02-23T09:58:26Z</time>
      </trkpt>
      <trkpt lat="42.93078" lon="0.75148">
        <ele>1751.8</ele>
        <time>2020-02-23T09:58:27Z</time>
      </trkpt>
      <trkpt lat="42.93078" lon="0.75148">
        <ele>1751.8</ele>
        <time>2020-02-23T09:58:28Z</time>
      </trkpt>
      <trkpt lat="42.93078" lon="0.75147">
        <ele>1751.8</ele>
        <time>2020-02-23T09:58:29Z</time>
      </trkpt>
      <trkpt lat="42.93078" lon="0.75147">
        <ele>1751.8</ele>
        <time>2020-02-23T09:58:30Z</time>
      </trkpt>
      <trkpt lat="42.93078" lon="0.75147">
        <ele>1751.8</ele>
        <time>2020-02-23T09:58:31Z</time>
      </trkpt>
      <trkpt lat="42.93078" lon="0.75147">
        <ele>1751.8</ele>
        <time>2020-02-23T09:58:32Z</time>
      </trkpt>
      <trkpt lat="42.93078" lon="0.75147">
        <ele>1751.8</ele>
        <time>2020-02-23T09:58:33Z</time>
      </trkpt>
      <trkpt lat="42.93079" lon="0.75146">
        <ele>1751.8</ele>
        <time>2020-02-23T09:58:34Z</time>
      </trkpt>
      <trkpt lat="42.93079" lon="0.75146">
        <ele>1751.8</ele>
        <time>2020-02-23T09:58:35Z</time>
      </trkpt>
      <trkpt lat="42.93079" lon="0.75146">
        <ele>1751.8</ele>
        <time>2020-02-23T09:58:36Z</time>
      </trkpt>
      <trkpt lat="42.93079" lon="0.75146">
        <ele>1751.8</ele>
        <time>2020-02-23T09:58:37Z</time>
      </trkpt>
      <trkpt lat="42.93079" lon="0.75145">
        <ele>1751.8</ele>
        <time>2020-02-23T09:58:38Z</time>
      </trkpt>
      <trkpt lat="42.93079" lon="0.75145">
        <ele>1751.8</ele>
        <time>2020-02-23T09:58:39Z</time>
      </trkpt>
      <trkpt lat="42.93079" lon="0.75145">
        <ele>1751.8</ele>
        <time>2020-02-23T09:58:40Z</time>
      </trkpt>
      <trkpt lat="42.93079" lon="0.75145">
        <ele>1753.1</ele>
        <time>2020-02-23T09:58:41Z</time>
      </trkpt>
      <trkpt lat="42.93079" lon="0.75144">
        <ele>1753.1</ele>
        <time>2020-02-23T09:58:42Z</time>
      </trkpt>
      <trkpt lat="42.93079" lon="0.75144">
        <ele>1753.1</ele>
        <time>2020-02-23T09:58:43Z</time>
      </trkpt>
      <trkpt lat="42.93079" lon="0.75144">
        <ele>1753.1</ele>
        <time>2020-02-23T09:58:44Z</time>
      </trkpt>
      <trkpt lat="42.93079" lon="0.75143">
        <ele>1753.3</ele>
        <time>2020-02-23T09:58:45Z</time>
      </trkpt>
      <trkpt lat="42.93079" lon="0.75143">
        <ele>1753.3</ele>
        <time>2020-02-23T09:58:46Z</time>
      </trkpt>
      <trkpt lat="42.93079" lon="0.75142">
        <ele>1753.3</ele>
        <time>2020-02-23T09:58:47Z</time>
      </trkpt>
      <trkpt lat="42.93079" lon="0.75142">
        <ele>1753.3</ele>
        <time>2020-02-23T09:58:48Z</time>
      </trkpt>
      <trkpt lat="42.93079" lon="0.75141">
        <ele>1753.3</ele>
        <time>2020-02-23T09:58:49Z</time>
      </trkpt>
      <trkpt lat="42.93079" lon="0.75141">
        <ele>1753.3</ele>
        <time>2020-02-23T09:58:50Z</time>
      </trkpt>
      <trkpt lat="42.93079" lon="0.7514">
        <ele>1754.8</ele>
        <time>2020-02-23T09:58:51Z</time>
      </trkpt>
      <trkpt lat="42.93079" lon="0.7514">
        <ele>1754.8</ele>
        <time>2020-02-23T09:58:52Z</time>
      </trkpt>
      <trkpt lat="42.93079" lon="0.75139">
        <ele>1754.8</ele>
        <time>2020-02-23T09:58:53Z</time>
      </trkpt>
      <trkpt lat="42.93079" lon="0.75139">
        <ele>1754.8</ele>
        <time>2020-02-23T09:58:54Z</time>
      </trkpt>
      <trkpt lat="42.93079" lon="0.75138">
        <ele>1754.8</ele>
        <time>2020-02-23T09:58:55Z</time>
      </trkpt>
      <trkpt lat="42.93079" lon="0.75138">
        <ele>1754.8</ele>
        <time>2020-02-23T09:58:56Z</time>
      </trkpt>
      <trkpt lat="42.93079" lon="0.75137">
        <ele>1754.8</ele>
        <time>2020-02-23T09:58:57Z</time>
      </trkpt>
      <trkpt lat="42.93079" lon="0.75137">
        <ele>1754.8</ele>
        <time>2020-02-23T09:58:58Z</time>
      </trkpt>
      <trkpt lat="42.93079" lon="0.75136">
        <ele>1754.8</ele>
        <time>2020-02-23T09:58:59Z</time>
      </trkpt>
      <trkpt lat="42.93079" lon="0.75136">
        <ele>1756.3</ele>
        <time>2020-02-23T09:59:00Z</time>
      </trkpt>
      <trkpt lat="42.93079" lon="0.75135">
        <ele>1756.3</ele>
        <time>2020-02-23T09:59:01Z</time>
      </trkpt>
      <trkpt lat="42.93079" lon="0.75135">
        <ele>1756.3</ele>
        <time>2020-02-23T09:59:02Z</time>
      </trkpt>
      <trkpt lat="42.93079" lon="0.75134">
        <ele>1756.3</ele>
        <time>2020-02-23T09:59:03Z</time>
      </trkpt>
      <trkpt lat="42.93079" lon="0.75134">
        <ele>1756.3</ele>
        <time>2020-02-23T09:59:04Z</time>
      </trkpt>
      <trkpt lat="42.93079" lon="0.75133">
        <ele>1756.3</ele>
        <time>2020-02-23T09:59:05Z</time>
      </trkpt>
      <trkpt lat="42.93079" lon="0.75133">
        <ele>1756.3</ele>
        <time>2020-02-23T09:59:06Z</time>
      </trkpt>
      <trkpt lat="42.93079" lon="0.75133">
        <ele>1756.3</ele>
        <time>2020-02-23T09:59:07Z</time>
      </trkpt>
      <trkpt lat="42.93079" lon="0.75132">
        <ele>1756.3</ele>
        <time>2020-02-23T09:59:08Z</time>
      </trkpt>
      <trkpt lat="42.9308" lon="0.75132">
        <ele>1757.7</ele>
        <time>2020-02-23T09:59:09Z</time>
      </trkpt>
      <trkpt lat="42.9308" lon="0.75131">
        <ele>1757.7</ele>
        <time>2020-02-23T09:59:10Z</time>
      </trkpt>
      <trkpt lat="42.9308" lon="0.7513">
        <ele>1757.7</ele>
        <time>2020-02-23T09:59:11Z</time>
      </trkpt>
      <trkpt lat="42.9308" lon="0.7513">
        <ele>1757.7</ele>
        <time>2020-02-23T09:59:12Z</time>
      </trkpt>
      <trkpt lat="42.9308" lon="0.75129">
        <ele>1757.7</ele>
        <time>2020-02-23T09:59:13Z</time>
      </trkpt>
      <trkpt lat="42.93081" lon="0.75129">
        <ele>1757.7</ele>
        <time>2020-02-23T09:59:14Z</time>
      </trkpt>
      <trkpt lat="42.93081" lon="0.75128">
        <ele>1757.7</ele>
        <time>2020-02-23T09:59:15Z</time>
      </trkpt>
      <trkpt lat="42.93081" lon="0.75127">
        <ele>1759.1</ele>
        <time>2020-02-23T09:59:16Z</time>
      </trkpt>
      <trkpt lat="42.93081" lon="0.75127">
        <ele>1759.1</ele>
        <time>2020-02-23T09:59:17Z</time>
      </trkpt>
      <trkpt lat="42.93082" lon="0.75126">
        <ele>1759.1</ele>
        <time>2020-02-23T09:59:18Z</time>
      </trkpt>
      <trkpt lat="42.93082" lon="0.75126">
        <ele>1759.1</ele>
        <time>2020-02-23T09:59:19Z</time>
      </trkpt>
      <trkpt lat="42.93082" lon="0.75125">
        <ele>1759.4</ele>
        <time>2020-02-23T09:59:20Z</time>
      </trkpt>
      <trkpt lat="42.93082" lon="0.75124">
        <ele>1759.4</ele>
        <time>2020-02-23T09:59:21Z</time>
      </trkpt>
      <trkpt lat="42.93083" lon="0.75124">
        <ele>1759.4</ele>
        <time>2020-02-23T09:59:22Z</time>
      </trkpt>
      <trkpt lat="42.93083" lon="0.75123">
        <ele>1760.8</ele>
        <time>2020-02-23T09:59:23Z</time>
      </trkpt>
      <trkpt lat="42.93083" lon="0.75122">
        <ele>1760.8</ele>
        <time>2020-02-23T09:59:24Z</time>
      </trkpt>
      <trkpt lat="42.93084" lon="0.75122">
        <ele>1760.8</ele>
        <time>2020-02-23T09:59:25Z</time>
      </trkpt>
      <trkpt lat="42.93084" lon="0.75121">
        <ele>1760.8</ele>
        <time>2020-02-23T09:59:26Z</time>
      </trkpt>
      <trkpt lat="42.93084" lon="0.75121">
        <ele>1760.8</ele>
        <time>2020-02-23T09:59:27Z</time>
      </trkpt>
      <trkpt lat="42.93084" lon="0.7512">
        <ele>1760.8</ele>
        <time>2020-02-23T09:59:28Z</time>
      </trkpt>
      <trkpt lat="42.93084" lon="0.75119">
        <ele>1760.8</ele>
        <time>2020-02-23T09:59:29Z</time>
      </trkpt>
      <trkpt lat="42.93084" lon="0.75119">
        <ele>1762.1</ele>
        <time>2020-02-23T09:59:30Z</time>
      </trkpt>
      <trkpt lat="42.93084" lon="0.75118">
        <ele>1762.1</ele>
        <time>2020-02-23T09:59:31Z</time>
      </trkpt>
      <trkpt lat="42.93085" lon="0.75117">
        <ele>1762.1</ele>
        <time>2020-02-23T09:59:32Z</time>
      </trkpt>
      <trkpt lat="42.93085" lon="0.75117">
        <ele>1762.1</ele>
        <time>2020-02-23T09:59:33Z</time>
      </trkpt>
      <trkpt lat="42.93085" lon="0.75116">
        <ele>1762.1</ele>
        <time>2020-02-23T09:59:34Z</time>
      </trkpt>
      <trkpt lat="42.93085" lon="0.75115">
        <ele>1762.1</ele>
        <time>2020-02-23T09:59:35Z</time>
      </trkpt>
      <trkpt lat="42.93085" lon="0.75115">
        <ele>1763.3</ele>
        <time>2020-02-23T09:59:36Z</time>
      </trkpt>
      <trkpt lat="42.93085" lon="0.75114">
        <ele>1763.3</ele>
        <time>2020-02-23T09:59:37Z</time>
      </trkpt>
      <trkpt lat="42.93085" lon="0.75113">
        <ele>1763.3</ele>
        <time>2020-02-23T09:59:38Z</time>
      </trkpt>
      <trkpt lat="42.93085" lon="0.75113">
        <ele>1763.3</ele>
        <time>2020-02-23T09:59:39Z</time>
      </trkpt>
      <trkpt lat="42.93085" lon="0.75112">
        <ele>1763.3</ele>
        <time>2020-02-23T09:59:40Z</time>
      </trkpt>
      <trkpt lat="42.93085" lon="0.75111">
        <ele>1763.3</ele>
        <time>2020-02-23T09:59:41Z</time>
      </trkpt>
      <trkpt lat="42.93085" lon="0.75111">
        <ele>1763.3</ele>
        <time>2020-02-23T09:59:42Z</time>
      </trkpt>
      <trkpt lat="42.93085" lon="0.7511">
        <ele>1764.5</ele>
        <time>2020-02-23T09:59:43Z</time>
      </trkpt>
      <trkpt lat="42.93085" lon="0.75109">
        <ele>1764.5</ele>
        <time>2020-02-23T09:59:44Z</time>
      </trkpt>
      <trkpt lat="42.93085" lon="0.75109">
        <ele>1764.5</ele>
        <time>2020-02-23T09:59:45Z</time>
      </trkpt>
      <trkpt lat="42.93085" lon="0.75108">
        <ele>1764.5</ele>
        <time>2020-02-23T09:59:46Z</time>
      </trkpt>
      <trkpt lat="42.93085" lon="0.75107">
        <ele>1764.9</ele>
        <time>2020-02-23T09:59:47Z</time>
      </trkpt>
      <trkpt lat="42.93085" lon="0.75107">
        <ele>1764.9</ele>
        <time>2020-02-23T09:59:48Z</time>
      </trkpt>
      <trkpt lat="42.93085" lon="0.75106">
        <ele>1766</ele>
        <time>2020-02-23T09:59:49Z</time>
      </trkpt>
      <trkpt lat="42.93086" lon="0.75105">
        <ele>1766</ele>
        <time>2020-02-23T09:59:50Z</time>
      </trkpt>
      <trkpt lat="42.93086" lon="0.75104">
        <ele>1766</ele>
        <time>2020-02-23T09:59:51Z</time>
      </trkpt>
      <trkpt lat="42.93086" lon="0.75103">
        <ele>1766</ele>
        <time>2020-02-23T09:59:52Z</time>
      </trkpt>
      <trkpt lat="42.93086" lon="0.75102">
        <ele>1766</ele>
        <time>2020-02-23T09:59:53Z</time>
      </trkpt>
      <trkpt lat="42.93087" lon="0.75101">
        <ele>1767.1</ele>
        <time>2020-02-23T09:59:54Z</time>
      </trkpt>
      <trkpt lat="42.93087" lon="0.75101">
        <ele>1767.1</ele>
        <time>2020-02-23T09:59:55Z</time>
      </trkpt>
      <trkpt lat="42.93087" lon="0.751">
        <ele>1767.1</ele>
        <time>2020-02-23T09:59:56Z</time>
      </trkpt>
      <trkpt lat="42.93088" lon="0.75099">
        <ele>1767.1</ele>
        <time>2020-02-23T09:59:57Z</time>
      </trkpt>
      <trkpt lat="42.93088" lon="0.75098">
        <ele>1767.1</ele>
        <time>2020-02-23T09:59:58Z</time>
      </trkpt>
      <trkpt lat="42.93088" lon="0.75097">
        <ele>1768.3</ele>
        <time>2020-02-23T09:59:59Z</time>
      </trkpt>
      <trkpt lat="42.93088" lon="0.75096">
        <ele>1768.7</ele>
        <time>2020-02-23T10:00:00Z</time>
      </trkpt>
      <trkpt lat="42.93089" lon="0.75095">
        <ele>1768.7</ele>
        <time>2020-02-23T10:00:01Z</time>
      </trkpt>
      <trkpt lat="42.93089" lon="0.75094">
        <ele>1768.7</ele>
        <time>2020-02-23T10:00:02Z</time>
      </trkpt>
      <trkpt lat="42.93089" lon="0.75093">
        <ele>1768.7</ele>
        <time>2020-02-23T10:00:03Z</time>
      </trkpt>
      <trkpt lat="42.93089" lon="0.75093">
        <ele>1769.8</ele>
        <time>2020-02-23T10:00:04Z</time>
      </trkpt>
      <trkpt lat="42.9309" lon="0.75092">
        <ele>1769.8</ele>
        <time>2020-02-23T10:00:05Z</time>
      </trkpt>
      <trkpt lat="42.9309" lon="0.75091">
        <ele>1769.8</ele>
        <time>2020-02-23T10:00:06Z</time>
      </trkpt>
      <trkpt lat="42.9309" lon="0.7509">
        <ele>1769.8</ele>
        <time>2020-02-23T10:00:07Z</time>
      </trkpt>
      <trkpt lat="42.9309" lon="0.75089">
        <ele>1769.8</ele>
        <time>2020-02-23T10:00:08Z</time>
      </trkpt>
      <trkpt lat="42.93091" lon="0.75088">
        <ele>1771.1</ele>
        <time>2020-02-23T10:00:09Z</time>
      </trkpt>
      <trkpt lat="42.93091" lon="0.75087">
        <ele>1771.1</ele>
        <time>2020-02-23T10:00:10Z</time>
      </trkpt>
      <trkpt lat="42.93091" lon="0.75086">
        <ele>1771.1</ele>
        <time>2020-02-23T10:00:11Z</time>
      </trkpt>
      <trkpt lat="42.93091" lon="0.75087">
        <ele>1771.1</ele>
        <time>2020-02-23T10:00:12Z</time>
      </trkpt>
      <trkpt lat="42.93091" lon="0.75087">
        <ele>1771.1</ele>
        <time>2020-02-23T10:00:13Z</time>
      </trkpt>
      <trkpt lat="42.9309" lon="0.75087">
        <ele>1771.1</ele>
        <time>2020-02-23T10:00:14Z</time>
      </trkpt>
      <trkpt lat="42.9309" lon="0.75087">
        <ele>1771.1</ele>
        <time>2020-02-23T10:00:15Z</time>
      </trkpt>
      <trkpt lat="42.9309" lon="0.75087">
        <ele>1771.1</ele>
        <time>2020-02-23T10:00:16Z</time>
      </trkpt>
      <trkpt lat="42.93089" lon="0.75087">
        <ele>1771.1</ele>
        <time>2020-02-23T10:00:17Z</time>
      </trkpt>
      <trkpt lat="42.93089" lon="0.75087">
        <ele>1771.1</ele>
        <time>2020-02-23T10:00:18Z</time>
      </trkpt>
      <trkpt lat="42.93089" lon="0.75087">
        <ele>1771.1</ele>
        <time>2020-02-23T10:00:19Z</time>
      </trkpt>
      <trkpt lat="42.93088" lon="0.75087">
        <ele>1771.1</ele>
        <time>2020-02-23T10:00:20Z</time>
      </trkpt>
      <trkpt lat="42.93088" lon="0.75087">
        <ele>1770.7</ele>
        <time>2020-02-23T10:00:21Z</time>
      </trkpt>
      <trkpt lat="42.93088" lon="0.75087">
        <ele>1770.7</ele>
        <time>2020-02-23T10:00:22Z</time>
      </trkpt>
      <trkpt lat="42.93088" lon="0.75088">
        <ele>1770.7</ele>
        <time>2020-02-23T10:00:23Z</time>
      </trkpt>
      <trkpt lat="42.93087" lon="0.75088">
        <ele>1770.7</ele>
        <time>2020-02-23T10:00:24Z</time>
      </trkpt>
      <trkpt lat="42.93087" lon="0.75088">
        <ele>1770.7</ele>
        <time>2020-02-23T10:00:25Z</time>
      </trkpt>
      <trkpt lat="42.93087" lon="0.75088">
        <ele>1770.7</ele>
        <time>2020-02-23T10:00:26Z</time>
      </trkpt>
      <trkpt lat="42.93086" lon="0.75088">
        <ele>1770.7</ele>
        <time>2020-02-23T10:00:27Z</time>
      </trkpt>
      <trkpt lat="42.93086" lon="0.75088">
        <ele>1770.7</ele>
        <time>2020-02-23T10:00:28Z</time>
      </trkpt>
      <trkpt lat="42.93086" lon="0.75088">
        <ele>1770.7</ele>
        <time>2020-02-23T10:00:29Z</time>
      </trkpt>
      <trkpt lat="42.93085" lon="0.75088">
        <ele>1770.7</ele>
        <time>2020-02-23T10:00:30Z</time>
      </trkpt>
      <trkpt lat="42.93085" lon="0.75088">
        <ele>1770.7</ele>
        <time>2020-02-23T10:00:31Z</time>
      </trkpt>
      <trkpt lat="42.93085" lon="0.75088">
        <ele>1770.4</ele>
        <time>2020-02-23T10:00:32Z</time>
      </trkpt>
      <trkpt lat="42.93084" lon="0.75088">
        <ele>1770.4</ele>
        <time>2020-02-23T10:00:33Z</time>
      </trkpt>
      <trkpt lat="42.93084" lon="0.75089">
        <ele>1770.4</ele>
        <time>2020-02-23T10:00:34Z</time>
      </trkpt>
      <trkpt lat="42.93084" lon="0.75089">
        <ele>1770.4</ele>
        <time>2020-02-23T10:00:35Z</time>
      </trkpt>
      <trkpt lat="42.93084" lon="0.75089">
        <ele>1770.4</ele>
        <time>2020-02-23T10:00:36Z</time>
      </trkpt>
      <trkpt lat="42.93083" lon="0.75089">
        <ele>1770.4</ele>
        <time>2020-02-23T10:00:37Z</time>
      </trkpt>
      <trkpt lat="42.93083" lon="0.75089">
        <ele>1770.4</ele>
        <time>2020-02-23T10:00:38Z</time>
      </trkpt>
      <trkpt lat="42.93083" lon="0.75089">
        <ele>1770.4</ele>
        <time>2020-02-23T10:00:39Z</time>
      </trkpt>
      <trkpt lat="42.93082" lon="0.75089">
        <ele>1769.1</ele>
        <time>2020-02-23T10:00:40Z</time>
      </trkpt>
      <trkpt lat="42.93082" lon="0.75089">
        <ele>1770.4</ele>
        <time>2020-02-23T10:00:41Z</time>
      </trkpt>
      <trkpt lat="42.93082" lon="0.75088">
        <ele>1770.4</ele>
        <time>2020-02-23T10:00:42Z</time>
      </trkpt>
      <trkpt lat="42.93082" lon="0.75088">
        <ele>1770.4</ele>
        <time>2020-02-23T10:00:43Z</time>
      </trkpt>
      <trkpt lat="42.93082" lon="0.75088">
        <ele>1770.4</ele>
        <time>2020-02-23T10:00:44Z</time>
      </trkpt>
      <trkpt lat="42.93082" lon="0.75087">
        <ele>1770.2</ele>
        <time>2020-02-23T10:00:45Z</time>
      </trkpt>
      <trkpt lat="42.93082" lon="0.75087">
        <ele>1770.2</ele>
        <time>2020-02-23T10:00:46Z</time>
      </trkpt>
      <trkpt lat="42.93082" lon="0.75087">
        <ele>1770.2</ele>
        <time>2020-02-23T10:00:47Z</time>
      </trkpt>
      <trkpt lat="42.93082" lon="0.75086">
        <ele>1770.2</ele>
        <time>2020-02-23T10:00:48Z</time>
      </trkpt>
      <trkpt lat="42.93082" lon="0.75086">
        <ele>1770.2</ele>
        <time>2020-02-23T10:00:49Z</time>
      </trkpt>
      <trkpt lat="42.93081" lon="0.75086">
        <ele>1770.2</ele>
        <time>2020-02-23T10:00:50Z</time>
      </trkpt>
      <trkpt lat="42.93081" lon="0.75085">
        <ele>1770.2</ele>
        <time>2020-02-23T10:00:51Z</time>
      </trkpt>
      <trkpt lat="42.93081" lon="0.75085">
        <ele>1770.2</ele>
        <time>2020-02-23T10:00:52Z</time>
      </trkpt>
      <trkpt lat="42.93081" lon="0.75085">
        <ele>1770.2</ele>
        <time>2020-02-23T10:00:53Z</time>
      </trkpt>
      <trkpt lat="42.93081" lon="0.75084">
        <ele>1771.6</ele>
        <time>2020-02-23T10:00:54Z</time>
      </trkpt>
      <trkpt lat="42.93081" lon="0.75084">
        <ele>1771.6</ele>
        <time>2020-02-23T10:00:55Z</time>
      </trkpt>
      <trkpt lat="42.93081" lon="0.75084">
        <ele>1771.6</ele>
        <time>2020-02-23T10:00:56Z</time>
      </trkpt>
      <trkpt lat="42.93081" lon="0.75084">
        <ele>1771.6</ele>
        <time>2020-02-23T10:00:57Z</time>
      </trkpt>
      <trkpt lat="42.93081" lon="0.75083">
        <ele>1771.6</ele>
        <time>2020-02-23T10:00:58Z</time>
      </trkpt>
      <trkpt lat="42.93081" lon="0.75083">
        <ele>1771.6</ele>
        <time>2020-02-23T10:00:59Z</time>
      </trkpt>
      <trkpt lat="42.93081" lon="0.75083">
        <ele>1771.6</ele>
        <time>2020-02-23T10:01:00Z</time>
      </trkpt>
      <trkpt lat="42.93081" lon="0.75082">
        <ele>1771.6</ele>
        <time>2020-02-23T10:01:01Z</time>
      </trkpt>
      <trkpt lat="42.9308" lon="0.75082">
        <ele>1771.6</ele>
        <time>2020-02-23T10:01:02Z</time>
      </trkpt>
      <trkpt lat="42.9308" lon="0.75082">
        <ele>1771.6</ele>
        <time>2020-02-23T10:01:03Z</time>
      </trkpt>
      <trkpt lat="42.9308" lon="0.75081">
        <ele>1771.6</ele>
        <time>2020-02-23T10:01:04Z</time>
      </trkpt>
      <trkpt lat="42.9308" lon="0.75081">
        <ele>1771.6</ele>
        <time>2020-02-23T10:01:05Z</time>
      </trkpt>
      <trkpt lat="42.9308" lon="0.75081">
        <ele>1771.6</ele>
        <time>2020-02-23T10:01:06Z</time>
      </trkpt>
      <trkpt lat="42.9308" lon="0.7508">
        <ele>1772.9</ele>
        <time>2020-02-23T10:01:07Z</time>
      </trkpt>
      <trkpt lat="42.9308" lon="0.7508">
        <ele>1772.9</ele>
        <time>2020-02-23T10:01:08Z</time>
      </trkpt>
      <trkpt lat="42.9308" lon="0.7508">
        <ele>1772.9</ele>
        <time>2020-02-23T10:01:09Z</time>
      </trkpt>
      <trkpt lat="42.9308" lon="0.75079">
        <ele>1772.9</ele>
        <time>2020-02-23T10:01:10Z</time>
      </trkpt>
      <trkpt lat="42.9308" lon="0.75079">
        <ele>1772.9</ele>
        <time>2020-02-23T10:01:11Z</time>
      </trkpt>
      <trkpt lat="42.9308" lon="0.75079">
        <ele>1772.9</ele>
        <time>2020-02-23T10:01:12Z</time>
      </trkpt>
      <trkpt lat="42.9308" lon="0.75078">
        <ele>1772.9</ele>
        <time>2020-02-23T10:01:13Z</time>
      </trkpt>
      <trkpt lat="42.93079" lon="0.75078">
        <ele>1772.9</ele>
        <time>2020-02-23T10:01:14Z</time>
      </trkpt>
      <trkpt lat="42.93079" lon="0.75078">
        <ele>1772.9</ele>
        <time>2020-02-23T10:01:15Z</time>
      </trkpt>
      <trkpt lat="42.93079" lon="0.75077">
        <ele>1772.9</ele>
        <time>2020-02-23T10:01:16Z</time>
      </trkpt>
      <trkpt lat="42.93079" lon="0.75077">
        <ele>1772.9</ele>
        <time>2020-02-23T10:01:17Z</time>
      </trkpt>
      <trkpt lat="42.93079" lon="0.75077">
        <ele>1772.8</ele>
        <time>2020-02-23T10:01:18Z</time>
      </trkpt>
      <trkpt lat="42.93078" lon="0.75076">
        <ele>1774.2</ele>
        <time>2020-02-23T10:01:19Z</time>
      </trkpt>
      <trkpt lat="42.93078" lon="0.75076">
        <ele>1774.2</ele>
        <time>2020-02-23T10:01:20Z</time>
      </trkpt>
      <trkpt lat="42.93078" lon="0.75075">
        <ele>1774.2</ele>
        <time>2020-02-23T10:01:21Z</time>
      </trkpt>
      <trkpt lat="42.93077" lon="0.75075">
        <ele>1774.2</ele>
        <time>2020-02-23T10:01:22Z</time>
      </trkpt>
      <trkpt lat="42.93077" lon="0.75075">
        <ele>1774.2</ele>
        <time>2020-02-23T10:01:23Z</time>
      </trkpt>
      <trkpt lat="42.93077" lon="0.75074">
        <ele>1774.2</ele>
        <time>2020-02-23T10:01:24Z</time>
      </trkpt>
      <trkpt lat="42.93076" lon="0.75074">
        <ele>1774.2</ele>
        <time>2020-02-23T10:01:25Z</time>
      </trkpt>
      <trkpt lat="42.93076" lon="0.75073">
        <ele>1774.2</ele>
        <time>2020-02-23T10:01:26Z</time>
      </trkpt>
      <trkpt lat="42.93076" lon="0.75073">
        <ele>1774.2</ele>
        <time>2020-02-23T10:01:27Z</time>
      </trkpt>
      <trkpt lat="42.93075" lon="0.75073">
        <ele>1774.2</ele>
        <time>2020-02-23T10:01:28Z</time>
      </trkpt>
      <trkpt lat="42.93075" lon="0.75072">
        <ele>1774.2</ele>
        <time>2020-02-23T10:01:29Z</time>
      </trkpt>
      <trkpt lat="42.93075" lon="0.75072">
        <ele>1774.2</ele>
        <time>2020-02-23T10:01:30Z</time>
      </trkpt>
      <trkpt lat="42.93074" lon="0.75072">
        <ele>1775.5</ele>
        <time>2020-02-23T10:01:31Z</time>
      </trkpt>
      <trkpt lat="42.93074" lon="0.75071">
        <ele>1775.5</ele>
        <time>2020-02-23T10:01:32Z</time>
      </trkpt>
      <trkpt lat="42.93074" lon="0.75071">
        <ele>1775.5</ele>
        <time>2020-02-23T10:01:33Z</time>
      </trkpt>
      <trkpt lat="42.93073" lon="0.7507">
        <ele>1775.5</ele>
        <time>2020-02-23T10:01:34Z</time>
      </trkpt>
      <trkpt lat="42.93073" lon="0.7507">
        <ele>1775.5</ele>
        <time>2020-02-23T10:01:35Z</time>
      </trkpt>
      <trkpt lat="42.93073" lon="0.7507">
        <ele>1775.5</ele>
        <time>2020-02-23T10:01:36Z</time>
      </trkpt>
      <trkpt lat="42.93072" lon="0.75069">
        <ele>1775.6</ele>
        <time>2020-02-23T10:01:37Z</time>
      </trkpt>
      <trkpt lat="42.93072" lon="0.75069">
        <ele>1775.6</ele>
        <time>2020-02-23T10:01:38Z</time>
      </trkpt>
      <trkpt lat="42.93072" lon="0.75068">
        <ele>1775.6</ele>
        <time>2020-02-23T10:01:39Z</time>
      </trkpt>
      <trkpt lat="42.93071" lon="0.75068">
        <ele>1775.6</ele>
        <time>2020-02-23T10:01:40Z</time>
      </trkpt>
      <trkpt lat="42.93071" lon="0.75068">
        <ele>1775.6</ele>
        <time>2020-02-23T10:01:41Z</time>
      </trkpt>
      <trkpt lat="42.93071" lon="0.75067">
        <ele>1776.9</ele>
        <time>2020-02-23T10:01:42Z</time>
      </trkpt>
      <trkpt lat="42.93071" lon="0.75067">
        <ele>1776.9</ele>
        <time>2020-02-23T10:01:43Z</time>
      </trkpt>
      <trkpt lat="42.9307" lon="0.75067">
        <ele>1776.9</ele>
        <time>2020-02-23T10:01:44Z</time>
      </trkpt>
      <trkpt lat="42.9307" lon="0.75066">
        <ele>1776.9</ele>
        <time>2020-02-23T10:01:45Z</time>
      </trkpt>
      <trkpt lat="42.9307" lon="0.75066">
        <ele>1776.9</ele>
        <time>2020-02-23T10:01:46Z</time>
      </trkpt>
      <trkpt lat="42.93069" lon="0.75066">
        <ele>1777</ele>
        <time>2020-02-23T10:01:47Z</time>
      </trkpt>
      <trkpt lat="42.93069" lon="0.75065">
        <ele>1777</ele>
        <time>2020-02-23T10:01:48Z</time>
      </trkpt>
      <trkpt lat="42.93069" lon="0.75065">
        <ele>1777</ele>
        <time>2020-02-23T10:01:49Z</time>
      </trkpt>
      <trkpt lat="42.93069" lon="0.75065">
        <ele>1777</ele>
        <time>2020-02-23T10:01:50Z</time>
      </trkpt>
      <trkpt lat="42.93069" lon="0.75065">
        <ele>1777</ele>
        <time>2020-02-23T10:01:51Z</time>
      </trkpt>
      <trkpt lat="42.93069" lon="0.75065">
        <ele>1777</ele>
        <time>2020-02-23T10:01:52Z</time>
      </trkpt>
      <trkpt lat="42.93067" lon="0.75066">
        <ele>1777</ele>
        <time>2020-02-23T10:01:53Z</time>
      </trkpt>
      <trkpt lat="42.93067" lon="0.75066">
        <ele>1777</ele>
        <time>2020-02-23T10:01:54Z</time>
      </trkpt>
      <trkpt lat="42.93067" lon="0.75066">
        <ele>1777</ele>
        <time>2020-02-23T10:01:55Z</time>
      </trkpt>
      <trkpt lat="42.93067" lon="0.75066">
        <ele>1777</ele>
        <time>2020-02-23T10:01:56Z</time>
      </trkpt>
      <trkpt lat="42.93067" lon="0.75066">
        <ele>1777</ele>
        <time>2020-02-23T10:01:57Z</time>
      </trkpt>
      <trkpt lat="42.93065" lon="0.75066">
        <ele>1777.3</ele>
        <time>2020-02-23T10:01:58Z</time>
      </trkpt>
      <trkpt lat="42.93065" lon="0.75066">
        <ele>1777.3</ele>
        <time>2020-02-23T10:01:59Z</time>
      </trkpt>
      <trkpt lat="42.93065" lon="0.75066">
        <ele>1777.3</ele>
        <time>2020-02-23T10:02:00Z</time>
      </trkpt>
      <trkpt lat="42.93065" lon="0.75066">
        <ele>1777.2</ele>
        <time>2020-02-23T10:02:01Z</time>
      </trkpt>
      <trkpt lat="42.93065" lon="0.75066">
        <ele>1777.2</ele>
        <time>2020-02-23T10:02:02Z</time>
      </trkpt>
      <trkpt lat="42.93063" lon="0.75063">
        <ele>1777.2</ele>
        <time>2020-02-23T10:02:03Z</time>
      </trkpt>
      <trkpt lat="42.93063" lon="0.75063">
        <ele>1777.2</ele>
        <time>2020-02-23T10:02:04Z</time>
      </trkpt>
      <trkpt lat="42.93063" lon="0.75063">
        <ele>1777.2</ele>
        <time>2020-02-23T10:02:05Z</time>
      </trkpt>
      <trkpt lat="42.93063" lon="0.75063">
        <ele>1777.2</ele>
        <time>2020-02-23T10:02:06Z</time>
      </trkpt>
      <trkpt lat="42.93062" lon="0.75062">
        <ele>1778.8</ele>
        <time>2020-02-23T10:02:07Z</time>
      </trkpt>
      <trkpt lat="42.93062" lon="0.75062">
        <ele>1778.8</ele>
        <time>2020-02-23T10:02:08Z</time>
      </trkpt>
      <trkpt lat="42.93062" lon="0.75062">
        <ele>1778.8</ele>
        <time>2020-02-23T10:02:09Z</time>
      </trkpt>
      <trkpt lat="42.93062" lon="0.75062">
        <ele>1778.8</ele>
        <time>2020-02-23T10:02:10Z</time>
      </trkpt>
      <trkpt lat="42.93062" lon="0.75062">
        <ele>1778.8</ele>
        <time>2020-02-23T10:02:11Z</time>
      </trkpt>
      <trkpt lat="42.93062" lon="0.75062">
        <ele>1778.8</ele>
        <time>2020-02-23T10:02:12Z</time>
      </trkpt>
      <trkpt lat="42.93062" lon="0.75062">
        <ele>1778.8</ele>
        <time>2020-02-23T10:02:13Z</time>
      </trkpt>
      <trkpt lat="42.93062" lon="0.75062">
        <ele>1778.8</ele>
        <time>2020-02-23T10:02:14Z</time>
      </trkpt>
      <trkpt lat="42.93062" lon="0.75062">
        <ele>1778.8</ele>
        <time>2020-02-23T10:02:15Z</time>
      </trkpt>
      <trkpt lat="42.93062" lon="0.75062">
        <ele>1778.8</ele>
        <time>2020-02-23T10:02:16Z</time>
      </trkpt>
      <trkpt lat="42.93062" lon="0.75062">
        <ele>1778.8</ele>
        <time>2020-02-23T10:02:17Z</time>
      </trkpt>
      <trkpt lat="42.9306" lon="0.75063">
        <ele>1779.3</ele>
        <time>2020-02-23T10:02:18Z</time>
      </trkpt>
      <trkpt lat="42.9306" lon="0.75063">
        <ele>1779.3</ele>
        <time>2020-02-23T10:02:19Z</time>
      </trkpt>
      <trkpt lat="42.9306" lon="0.75063">
        <ele>1779.3</ele>
        <time>2020-02-23T10:02:20Z</time>
      </trkpt>
      <trkpt lat="42.9306" lon="0.75063">
        <ele>1779.3</ele>
        <time>2020-02-23T10:02:21Z</time>
      </trkpt>
      <trkpt lat="42.9306" lon="0.75063">
        <ele>1779.3</ele>
        <time>2020-02-23T10:02:22Z</time>
      </trkpt>
      <trkpt lat="42.93058" lon="0.75064">
        <ele>1778</ele>
        <time>2020-02-23T10:02:23Z</time>
      </trkpt>
      <trkpt lat="42.93058" lon="0.75064">
        <ele>1778</ele>
        <time>2020-02-23T10:02:24Z</time>
      </trkpt>
      <trkpt lat="42.93058" lon="0.75064">
        <ele>1778</ele>
        <time>2020-02-23T10:02:25Z</time>
      </trkpt>
      <trkpt lat="42.93058" lon="0.75064">
        <ele>1778</ele>
        <time>2020-02-23T10:02:26Z</time>
      </trkpt>
      <trkpt lat="42.93058" lon="0.75064">
        <ele>1778</ele>
        <time>2020-02-23T10:02:27Z</time>
      </trkpt>
      <trkpt lat="42.93058" lon="0.75064">
        <ele>1778</ele>
        <time>2020-02-23T10:02:28Z</time>
      </trkpt>
      <trkpt lat="42.93058" lon="0.75064">
        <ele>1778</ele>
        <time>2020-02-23T10:02:29Z</time>
      </trkpt>
      <trkpt lat="42.93058" lon="0.75064">
        <ele>1778</ele>
        <time>2020-02-23T10:02:30Z</time>
      </trkpt>
      <trkpt lat="42.93057" lon="0.75062">
        <ele>1779.8</ele>
        <time>2020-02-23T10:02:31Z</time>
      </trkpt>
      <trkpt lat="42.93057" lon="0.75062">
        <ele>1779.8</ele>
        <time>2020-02-23T10:02:32Z</time>
      </trkpt>
      <trkpt lat="42.93057" lon="0.75062">
        <ele>1779.8</ele>
        <time>2020-02-23T10:02:33Z</time>
      </trkpt>
      <trkpt lat="42.93057" lon="0.75062">
        <ele>1779.8</ele>
        <time>2020-02-23T10:02:34Z</time>
      </trkpt>
      <trkpt lat="42.93057" lon="0.75062">
        <ele>1779.8</ele>
        <time>2020-02-23T10:02:35Z</time>
      </trkpt>
      <trkpt lat="42.93057" lon="0.75062">
        <ele>1779.8</ele>
        <time>2020-02-23T10:02:36Z</time>
      </trkpt>
      <trkpt lat="42.93057" lon="0.75062">
        <ele>1779.8</ele>
        <time>2020-02-23T10:02:37Z</time>
      </trkpt>
      <trkpt lat="42.93057" lon="0.75062">
        <ele>1779.8</ele>
        <time>2020-02-23T10:02:38Z</time>
      </trkpt>
      <trkpt lat="42.93057" lon="0.75062">
        <ele>1779.8</ele>
        <time>2020-02-23T10:02:39Z</time>
      </trkpt>
      <trkpt lat="42.93057" lon="0.75062">
        <ele>1779.8</ele>
        <time>2020-02-23T10:02:40Z</time>
      </trkpt>
      <trkpt lat="42.93055" lon="0.75062">
        <ele>1779.8</ele>
        <time>2020-02-23T10:02:41Z</time>
      </trkpt>
      <trkpt lat="42.93055" lon="0.75062">
        <ele>1779.8</ele>
        <time>2020-02-23T10:02:42Z</time>
      </trkpt>
      <trkpt lat="42.93055" lon="0.75062">
        <ele>1779.8</ele>
        <time>2020-02-23T10:02:43Z</time>
      </trkpt>
      <trkpt lat="42.93055" lon="0.75062">
        <ele>1779.8</ele>
        <time>2020-02-23T10:02:44Z</time>
      </trkpt>
      <trkpt lat="42.93055" lon="0.75062">
        <ele>1779.8</ele>
        <time>2020-02-23T10:02:45Z</time>
      </trkpt>
      <trkpt lat="42.93055" lon="0.75062">
        <ele>1779.8</ele>
        <time>2020-02-23T10:02:46Z</time>
      </trkpt>
      <trkpt lat="42.93055" lon="0.75062">
        <ele>1779.8</ele>
        <time>2020-02-23T10:02:47Z</time>
      </trkpt>
      <trkpt lat="42.93052" lon="0.75063">
        <ele>1780.4</ele>
        <time>2020-02-23T10:02:48Z</time>
      </trkpt>
      <trkpt lat="42.93052" lon="0.75063">
        <ele>1780.4</ele>
        <time>2020-02-23T10:02:49Z</time>
      </trkpt>
      <trkpt lat="42.93052" lon="0.75063">
        <ele>1780.4</ele>
        <time>2020-02-23T10:02:50Z</time>
      </trkpt>
      <trkpt lat="42.93052" lon="0.75063">
        <ele>1780.4</ele>
        <time>2020-02-23T10:02:51Z</time>
      </trkpt>
      <trkpt lat="42.93052" lon="0.75063">
        <ele>1780.4</ele>
        <time>2020-02-23T10:02:52Z</time>
      </trkpt>
      <trkpt lat="42.9305" lon="0.75064">
        <ele>1779.9</ele>
        <time>2020-02-23T10:02:53Z</time>
      </trkpt>
      <trkpt lat="42.9305" lon="0.75064">
        <ele>1779.9</ele>
        <time>2020-02-23T10:02:54Z</time>
      </trkpt>
      <trkpt lat="42.9305" lon="0.75064">
        <ele>1779.9</ele>
        <time>2020-02-23T10:02:55Z</time>
      </trkpt>
      <trkpt lat="42.9305" lon="0.75064">
        <ele>1779.9</ele>
        <time>2020-02-23T10:02:56Z</time>
      </trkpt>
      <trkpt lat="42.9305" lon="0.75064">
        <ele>1779.9</ele>
        <time>2020-02-23T10:02:57Z</time>
      </trkpt>
      <trkpt lat="42.9305" lon="0.75064">
        <ele>1779.9</ele>
        <time>2020-02-23T10:02:58Z</time>
      </trkpt>
      <trkpt lat="42.9305" lon="0.75064">
        <ele>1779.9</ele>
        <time>2020-02-23T10:02:59Z</time>
      </trkpt>
      <trkpt lat="42.93049" lon="0.7506">
        <ele>1781.1</ele>
        <time>2020-02-23T10:03:00Z</time>
      </trkpt>
      <trkpt lat="42.93049" lon="0.7506">
        <ele>1781.1</ele>
        <time>2020-02-23T10:03:01Z</time>
      </trkpt>
      <trkpt lat="42.93049" lon="0.7506">
        <ele>1781.1</ele>
        <time>2020-02-23T10:03:02Z</time>
      </trkpt>
      <trkpt lat="42.93049" lon="0.7506">
        <ele>1781.1</ele>
        <time>2020-02-23T10:03:03Z</time>
      </trkpt>
      <trkpt lat="42.9305" lon="0.75057">
        <ele>1782.3</ele>
        <time>2020-02-23T10:03:04Z</time>
      </trkpt>
      <trkpt lat="42.9305" lon="0.75057">
        <ele>1782.3</ele>
        <time>2020-02-23T10:03:05Z</time>
      </trkpt>
      <trkpt lat="42.9305" lon="0.75057">
        <ele>1782.3</ele>
        <time>2020-02-23T10:03:06Z</time>
      </trkpt>
      <trkpt lat="42.9305" lon="0.75057">
        <ele>1782.3</ele>
        <time>2020-02-23T10:03:07Z</time>
      </trkpt>
      <trkpt lat="42.9305" lon="0.75057">
        <ele>1782.3</ele>
        <time>2020-02-23T10:03:08Z</time>
      </trkpt>
      <trkpt lat="42.9305" lon="0.75057">
        <ele>1782.3</ele>
        <time>2020-02-23T10:03:09Z</time>
      </trkpt>
      <trkpt lat="42.9305" lon="0.75057">
        <ele>1782.3</ele>
        <time>2020-02-23T10:03:10Z</time>
      </trkpt>
      <trkpt lat="42.9305" lon="0.75057">
        <ele>1782.3</ele>
        <time>2020-02-23T10:03:11Z</time>
      </trkpt>
      <trkpt lat="42.9305" lon="0.75053">
        <ele>1783.6</ele>
        <time>2020-02-23T10:03:12Z</time>
      </trkpt>
      <trkpt lat="42.9305" lon="0.75053">
        <ele>1783.6</ele>
        <time>2020-02-23T10:03:13Z</time>
      </trkpt>
      <trkpt lat="42.9305" lon="0.75053">
        <ele>1783.6</ele>
        <time>2020-02-23T10:03:14Z</time>
      </trkpt>
      <trkpt lat="42.93048" lon="0.75054">
        <ele>1783.6</ele>
        <time>2020-02-23T10:03:15Z</time>
      </trkpt>
      <trkpt lat="42.93048" lon="0.75054">
        <ele>1783.6</ele>
        <time>2020-02-23T10:03:16Z</time>
      </trkpt>
      <trkpt lat="42.93048" lon="0.75055">
        <ele>1782.3</ele>
        <time>2020-02-23T10:03:17Z</time>
      </trkpt>
      <trkpt lat="42.93047" lon="0.75056">
        <ele>1783</ele>
        <time>2020-02-23T10:03:18Z</time>
      </trkpt>
      <trkpt lat="42.93046" lon="0.75057">
        <ele>1783</ele>
        <time>2020-02-23T10:03:19Z</time>
      </trkpt>
      <trkpt lat="42.93046" lon="0.75058">
        <ele>1783</ele>
        <time>2020-02-23T10:03:20Z</time>
      </trkpt>
      <trkpt lat="42.93045" lon="0.75059">
        <ele>1783</ele>
        <time>2020-02-23T10:03:21Z</time>
      </trkpt>
      <trkpt lat="42.93044" lon="0.7506">
        <ele>1782.5</ele>
        <time>2020-02-23T10:03:22Z</time>
      </trkpt>
      <trkpt lat="42.93044" lon="0.75061">
        <ele>1782.5</ele>
        <time>2020-02-23T10:03:23Z</time>
      </trkpt>
      <trkpt lat="42.93043" lon="0.75062">
        <ele>1782.5</ele>
        <time>2020-02-23T10:03:24Z</time>
      </trkpt>
      <trkpt lat="42.93042" lon="0.75063">
        <ele>1782.5</ele>
        <time>2020-02-23T10:03:25Z</time>
      </trkpt>
      <trkpt lat="42.93042" lon="0.75064">
        <ele>1781.3</ele>
        <time>2020-02-23T10:03:26Z</time>
      </trkpt>
      <trkpt lat="42.93042" lon="0.75063">
        <ele>1782.5</ele>
        <time>2020-02-23T10:03:27Z</time>
      </trkpt>
      <trkpt lat="42.93042" lon="0.75062">
        <ele>1782.5</ele>
        <time>2020-02-23T10:03:28Z</time>
      </trkpt>
      <trkpt lat="42.93042" lon="0.75062">
        <ele>1782.5</ele>
        <time>2020-02-23T10:03:29Z</time>
      </trkpt>
      <trkpt lat="42.93042" lon="0.75061">
        <ele>1782.5</ele>
        <time>2020-02-23T10:03:30Z</time>
      </trkpt>
      <trkpt lat="42.93042" lon="0.7506">
        <ele>1782.5</ele>
        <time>2020-02-23T10:03:31Z</time>
      </trkpt>
      <trkpt lat="42.93042" lon="0.7506">
        <ele>1782.5</ele>
        <time>2020-02-23T10:03:32Z</time>
      </trkpt>
      <trkpt lat="42.93042" lon="0.75059">
        <ele>1783.7</ele>
        <time>2020-02-23T10:03:33Z</time>
      </trkpt>
      <trkpt lat="42.93042" lon="0.75058">
        <ele>1783.7</ele>
        <time>2020-02-23T10:03:34Z</time>
      </trkpt>
      <trkpt lat="42.93042" lon="0.75058">
        <ele>1783.7</ele>
        <time>2020-02-23T10:03:35Z</time>
      </trkpt>
      <trkpt lat="42.93042" lon="0.75057">
        <ele>1783.7</ele>
        <time>2020-02-23T10:03:36Z</time>
      </trkpt>
      <trkpt lat="42.93042" lon="0.75056">
        <ele>1783.7</ele>
        <time>2020-02-23T10:03:37Z</time>
      </trkpt>
      <trkpt lat="42.93042" lon="0.75056">
        <ele>1783.7</ele>
        <time>2020-02-23T10:03:38Z</time>
      </trkpt>
      <trkpt lat="42.93042" lon="0.75055">
        <ele>1783.7</ele>
        <time>2020-02-23T10:03:39Z</time>
      </trkpt>
      <trkpt lat="42.93042" lon="0.75054">
        <ele>1785</ele>
        <time>2020-02-23T10:03:40Z</time>
      </trkpt>
      <trkpt lat="42.93042" lon="0.75054">
        <ele>1785</ele>
        <time>2020-02-23T10:03:41Z</time>
      </trkpt>
      <trkpt lat="42.93042" lon="0.75053">
        <ele>1785</ele>
        <time>2020-02-23T10:03:42Z</time>
      </trkpt>
      <trkpt lat="42.93042" lon="0.75052">
        <ele>1785</ele>
        <time>2020-02-23T10:03:43Z</time>
      </trkpt>
      <trkpt lat="42.93042" lon="0.75052">
        <ele>1785</ele>
        <time>2020-02-23T10:03:44Z</time>
      </trkpt>
      <trkpt lat="42.93043" lon="0.75051">
        <ele>1785</ele>
        <time>2020-02-23T10:03:45Z</time>
      </trkpt>
      <trkpt lat="42.93043" lon="0.7505">
        <ele>1786.4</ele>
        <time>2020-02-23T10:03:46Z</time>
      </trkpt>
      <trkpt lat="42.93042" lon="0.7505">
        <ele>1786.4</ele>
        <time>2020-02-23T10:03:47Z</time>
      </trkpt>
      <trkpt lat="42.93042" lon="0.7505">
        <ele>1786.4</ele>
        <time>2020-02-23T10:03:48Z</time>
      </trkpt>
      <trkpt lat="42.93042" lon="0.7505">
        <ele>1786.4</ele>
        <time>2020-02-23T10:03:49Z</time>
      </trkpt>
      <trkpt lat="42.93042" lon="0.7505">
        <ele>1786.4</ele>
        <time>2020-02-23T10:03:50Z</time>
      </trkpt>
      <trkpt lat="42.93042" lon="0.7505">
        <ele>1786.4</ele>
        <time>2020-02-23T10:03:51Z</time>
      </trkpt>
      <trkpt lat="42.93042" lon="0.75049">
        <ele>1786.4</ele>
        <time>2020-02-23T10:03:52Z</time>
      </trkpt>
      <trkpt lat="42.93042" lon="0.75049">
        <ele>1786.4</ele>
        <time>2020-02-23T10:03:53Z</time>
      </trkpt>
      <trkpt lat="42.93042" lon="0.75049">
        <ele>1786.4</ele>
        <time>2020-02-23T10:03:54Z</time>
      </trkpt>
      <trkpt lat="42.93042" lon="0.75049">
        <ele>1786.4</ele>
        <time>2020-02-23T10:03:55Z</time>
      </trkpt>
      <trkpt lat="42.93041" lon="0.75049">
        <ele>1786.4</ele>
        <time>2020-02-23T10:03:56Z</time>
      </trkpt>
      <trkpt lat="42.93041" lon="0.75049">
        <ele>1786.4</ele>
        <time>2020-02-23T10:03:57Z</time>
      </trkpt>
      <trkpt lat="42.93041" lon="0.75048">
        <ele>1786.4</ele>
        <time>2020-02-23T10:03:58Z</time>
      </trkpt>
      <trkpt lat="42.93041" lon="0.75048">
        <ele>1786.4</ele>
        <time>2020-02-23T10:03:59Z</time>
      </trkpt>
      <trkpt lat="42.93041" lon="0.75048">
        <ele>1787.2</ele>
        <time>2020-02-23T10:04:00Z</time>
      </trkpt>
      <trkpt lat="42.93041" lon="0.75048">
        <ele>1787.2</ele>
        <time>2020-02-23T10:04:01Z</time>
      </trkpt>
      <trkpt lat="42.93041" lon="0.75048">
        <ele>1787.2</ele>
        <time>2020-02-23T10:04:02Z</time>
      </trkpt>
      <trkpt lat="42.93041" lon="0.75048">
        <ele>1787.2</ele>
        <time>2020-02-23T10:04:03Z</time>
      </trkpt>
      <trkpt lat="42.93041" lon="0.75048">
        <ele>1787.2</ele>
        <time>2020-02-23T10:04:04Z</time>
      </trkpt>
      <trkpt lat="42.93041" lon="0.75047">
        <ele>1787.2</ele>
        <time>2020-02-23T10:04:05Z</time>
      </trkpt>
      <trkpt lat="42.9304" lon="0.75047">
        <ele>1787.2</ele>
        <time>2020-02-23T10:04:06Z</time>
      </trkpt>
      <trkpt lat="42.9304" lon="0.75047">
        <ele>1787.2</ele>
        <time>2020-02-23T10:04:07Z</time>
      </trkpt>
      <trkpt lat="42.9304" lon="0.75047">
        <ele>1787.2</ele>
        <time>2020-02-23T10:04:08Z</time>
      </trkpt>
      <trkpt lat="42.9304" lon="0.75047">
        <ele>1787.2</ele>
        <time>2020-02-23T10:04:09Z</time>
      </trkpt>
      <trkpt lat="42.9304" lon="0.75047">
        <ele>1787.2</ele>
        <time>2020-02-23T10:04:10Z</time>
      </trkpt>
      <trkpt lat="42.9304" lon="0.75046">
        <ele>1787.2</ele>
        <time>2020-02-23T10:04:11Z</time>
      </trkpt>
      <trkpt lat="42.9304" lon="0.75046">
        <ele>1787.2</ele>
        <time>2020-02-23T10:04:12Z</time>
      </trkpt>
      <trkpt lat="42.9304" lon="0.75046">
        <ele>1788.6</ele>
        <time>2020-02-23T10:04:13Z</time>
      </trkpt>
      <trkpt lat="42.9304" lon="0.75046">
        <ele>1788.6</ele>
        <time>2020-02-23T10:04:14Z</time>
      </trkpt>
      <trkpt lat="42.93039" lon="0.75046">
        <ele>1788.6</ele>
        <time>2020-02-23T10:04:15Z</time>
      </trkpt>
      <trkpt lat="42.93039" lon="0.75046">
        <ele>1788.6</ele>
        <time>2020-02-23T10:04:16Z</time>
      </trkpt>
      <trkpt lat="42.93039" lon="0.75045">
        <ele>1788.6</ele>
        <time>2020-02-23T10:04:17Z</time>
      </trkpt>
      <trkpt lat="42.93039" lon="0.75045">
        <ele>1788.6</ele>
        <time>2020-02-23T10:04:18Z</time>
      </trkpt>
      <trkpt lat="42.93039" lon="0.75045">
        <ele>1788.6</ele>
        <time>2020-02-23T10:04:19Z</time>
      </trkpt>
      <trkpt lat="42.93039" lon="0.75045">
        <ele>1788.6</ele>
        <time>2020-02-23T10:04:20Z</time>
      </trkpt>
      <trkpt lat="42.93039" lon="0.75045">
        <ele>1788.6</ele>
        <time>2020-02-23T10:04:21Z</time>
      </trkpt>
      <trkpt lat="42.93039" lon="0.75045">
        <ele>1788.6</ele>
        <time>2020-02-23T10:04:22Z</time>
      </trkpt>
      <trkpt lat="42.93039" lon="0.75045">
        <ele>1788.6</ele>
        <time>2020-02-23T10:04:23Z</time>
      </trkpt>
      <trkpt lat="42.93039" lon="0.75044">
        <ele>1788.6</ele>
        <time>2020-02-23T10:04:24Z</time>
      </trkpt>
      <trkpt lat="42.93039" lon="0.75044">
        <ele>1788.6</ele>
        <time>2020-02-23T10:04:25Z</time>
      </trkpt>
      <trkpt lat="42.93039" lon="0.75044">
        <ele>1788.6</ele>
        <time>2020-02-23T10:04:26Z</time>
      </trkpt>
      <trkpt lat="42.93039" lon="0.75044">
        <ele>1788.6</ele>
        <time>2020-02-23T10:04:27Z</time>
      </trkpt>
      <trkpt lat="42.93039" lon="0.75043">
        <ele>1788.6</ele>
        <time>2020-02-23T10:04:28Z</time>
      </trkpt>
      <trkpt lat="42.93039" lon="0.75043">
        <ele>1788.6</ele>
        <time>2020-02-23T10:04:29Z</time>
      </trkpt>
      <trkpt lat="42.93039" lon="0.75043">
        <ele>1788.6</ele>
        <time>2020-02-23T10:04:30Z</time>
      </trkpt>
      <trkpt lat="42.93039" lon="0.75042">
        <ele>1788.6</ele>
        <time>2020-02-23T10:04:31Z</time>
      </trkpt>
      <trkpt lat="42.93039" lon="0.75042">
        <ele>1788.6</ele>
        <time>2020-02-23T10:04:32Z</time>
      </trkpt>
      <trkpt lat="42.93039" lon="0.75042">
        <ele>1788.6</ele>
        <time>2020-02-23T10:04:33Z</time>
      </trkpt>
      <trkpt lat="42.93039" lon="0.75042">
        <ele>1790</ele>
        <time>2020-02-23T10:04:34Z</time>
      </trkpt>
      <trkpt lat="42.93039" lon="0.75041">
        <ele>1790</ele>
        <time>2020-02-23T10:04:35Z</time>
      </trkpt>
      <trkpt lat="42.93039" lon="0.75041">
        <ele>1790</ele>
        <time>2020-02-23T10:04:36Z</time>
      </trkpt>
      <trkpt lat="42.93039" lon="0.75041">
        <ele>1790</ele>
        <time>2020-02-23T10:04:37Z</time>
      </trkpt>
      <trkpt lat="42.93039" lon="0.75041">
        <ele>1790</ele>
        <time>2020-02-23T10:04:38Z</time>
      </trkpt>
      <trkpt lat="42.93039" lon="0.7504">
        <ele>1790</ele>
        <time>2020-02-23T10:04:39Z</time>
      </trkpt>
      <trkpt lat="42.93039" lon="0.7504">
        <ele>1790</ele>
        <time>2020-02-23T10:04:40Z</time>
      </trkpt>
      <trkpt lat="42.93039" lon="0.7504">
        <ele>1790</ele>
        <time>2020-02-23T10:04:41Z</time>
      </trkpt>
      <trkpt lat="42.93039" lon="0.7504">
        <ele>1790</ele>
        <time>2020-02-23T10:04:42Z</time>
      </trkpt>
      <trkpt lat="42.93039" lon="0.75039">
        <ele>1790</ele>
        <time>2020-02-23T10:04:43Z</time>
      </trkpt>
      <trkpt lat="42.93039" lon="0.75039">
        <ele>1790</ele>
        <time>2020-02-23T10:04:44Z</time>
      </trkpt>
      <trkpt lat="42.93039" lon="0.75039">
        <ele>1790</ele>
        <time>2020-02-23T10:04:45Z</time>
      </trkpt>
      <trkpt lat="42.93039" lon="0.75038">
        <ele>1790</ele>
        <time>2020-02-23T10:04:46Z</time>
      </trkpt>
      <trkpt lat="42.93039" lon="0.75038">
        <ele>1790</ele>
        <time>2020-02-23T10:04:47Z</time>
      </trkpt>
      <trkpt lat="42.93039" lon="0.75038">
        <ele>1790</ele>
        <time>2020-02-23T10:04:48Z</time>
      </trkpt>
      <trkpt lat="42.93039" lon="0.75038">
        <ele>1790</ele>
        <time>2020-02-23T10:04:49Z</time>
      </trkpt>
      <trkpt lat="42.93039" lon="0.75037">
        <ele>1791.5</ele>
        <time>2020-02-23T10:04:50Z</time>
      </trkpt>
      <trkpt lat="42.93039" lon="0.75037">
        <ele>1791.5</ele>
        <time>2020-02-23T10:04:51Z</time>
      </trkpt>
      <trkpt lat="42.93039" lon="0.75037">
        <ele>1791.5</ele>
        <time>2020-02-23T10:04:52Z</time>
      </trkpt>
      <trkpt lat="42.93039" lon="0.75037">
        <ele>1791.5</ele>
        <time>2020-02-23T10:04:53Z</time>
      </trkpt>
      <trkpt lat="42.93039" lon="0.75036">
        <ele>1791.5</ele>
        <time>2020-02-23T10:04:54Z</time>
      </trkpt>
      <trkpt lat="42.93039" lon="0.75036">
        <ele>1791.5</ele>
        <time>2020-02-23T10:04:55Z</time>
      </trkpt>
      <trkpt lat="42.93039" lon="0.75036">
        <ele>1791.5</ele>
        <time>2020-02-23T10:04:56Z</time>
      </trkpt>
      <trkpt lat="42.93039" lon="0.75036">
        <ele>1791.5</ele>
        <time>2020-02-23T10:04:57Z</time>
      </trkpt>
      <trkpt lat="42.93039" lon="0.75035">
        <ele>1791.5</ele>
        <time>2020-02-23T10:04:58Z</time>
      </trkpt>
      <trkpt lat="42.93039" lon="0.75035">
        <ele>1791.5</ele>
        <time>2020-02-23T10:04:59Z</time>
      </trkpt>
      <trkpt lat="42.93039" lon="0.75035">
        <ele>1791.5</ele>
        <time>2020-02-23T10:05:00Z</time>
      </trkpt>
      <trkpt lat="42.93039" lon="0.75034">
        <ele>1791.5</ele>
        <time>2020-02-23T10:05:01Z</time>
      </trkpt>
      <trkpt lat="42.93039" lon="0.75034">
        <ele>1791.5</ele>
        <time>2020-02-23T10:05:02Z</time>
      </trkpt>
      <trkpt lat="42.93039" lon="0.75034">
        <ele>1791.5</ele>
        <time>2020-02-23T10:05:03Z</time>
      </trkpt>
      <trkpt lat="42.93039" lon="0.75034">
        <ele>1791.5</ele>
        <time>2020-02-23T10:05:04Z</time>
      </trkpt>
      <trkpt lat="42.93039" lon="0.75033">
        <ele>1791.5</ele>
        <time>2020-02-23T10:05:05Z</time>
      </trkpt>
      <trkpt lat="42.9304" lon="0.75033">
        <ele>1793</ele>
        <time>2020-02-23T10:05:06Z</time>
      </trkpt>
      <trkpt lat="42.9304" lon="0.75033">
        <ele>1793</ele>
        <time>2020-02-23T10:05:07Z</time>
      </trkpt>
      <trkpt lat="42.9304" lon="0.75033">
        <ele>1793</ele>
        <time>2020-02-23T10:05:08Z</time>
      </trkpt>
      <trkpt lat="42.9304" lon="0.75032">
        <ele>1793</ele>
        <time>2020-02-23T10:05:09Z</time>
      </trkpt>
      <trkpt lat="42.9304" lon="0.75032">
        <ele>1793</ele>
        <time>2020-02-23T10:05:10Z</time>
      </trkpt>
      <trkpt lat="42.9304" lon="0.75032">
        <ele>1793</ele>
        <time>2020-02-23T10:05:11Z</time>
      </trkpt>
      <trkpt lat="42.9304" lon="0.75032">
        <ele>1793</ele>
        <time>2020-02-23T10:05:12Z</time>
      </trkpt>
      <trkpt lat="42.9304" lon="0.75032">
        <ele>1793</ele>
        <time>2020-02-23T10:05:13Z</time>
      </trkpt>
      <trkpt lat="42.9304" lon="0.75032">
        <ele>1793</ele>
        <time>2020-02-23T10:05:14Z</time>
      </trkpt>
      <trkpt lat="42.9304" lon="0.75032">
        <ele>1793</ele>
        <time>2020-02-23T10:05:15Z</time>
      </trkpt>
      <trkpt lat="42.9304" lon="0.75032">
        <ele>1793</ele>
        <time>2020-02-23T10:05:16Z</time>
      </trkpt>
      <trkpt lat="42.9304" lon="0.75032">
        <ele>1793</ele>
        <time>2020-02-23T10:05:17Z</time>
      </trkpt>
      <trkpt lat="42.9304" lon="0.75032">
        <ele>1793</ele>
        <time>2020-02-23T10:05:18Z</time>
      </trkpt>
      <trkpt lat="42.9304" lon="0.75032">
        <ele>1793</ele>
        <time>2020-02-23T10:05:19Z</time>
      </trkpt>
      <trkpt lat="42.9304" lon="0.75032">
        <ele>1793</ele>
        <time>2020-02-23T10:05:20Z</time>
      </trkpt>
      <trkpt lat="42.9304" lon="0.75032">
        <ele>1793</ele>
        <time>2020-02-23T10:05:21Z</time>
      </trkpt>
      <trkpt lat="42.9304" lon="0.75032">
        <ele>1793</ele>
        <time>2020-02-23T10:05:22Z</time>
      </trkpt>
      <trkpt lat="42.9304" lon="0.75032">
        <ele>1793</ele>
        <time>2020-02-23T10:05:23Z</time>
      </trkpt>
      <trkpt lat="42.9304" lon="0.75032">
        <ele>1793</ele>
        <time>2020-02-23T10:05:24Z</time>
      </trkpt>
      <trkpt lat="42.9304" lon="0.75032">
        <ele>1793</ele>
        <time>2020-02-23T10:05:25Z</time>
      </trkpt>
      <trkpt lat="42.9304" lon="0.75032">
        <ele>1793</ele>
        <time>2020-02-23T10:05:26Z</time>
      </trkpt>
      <trkpt lat="42.9304" lon="0.75032">
        <ele>1793</ele>
        <time>2020-02-23T10:05:27Z</time>
      </trkpt>
      <trkpt lat="42.9304" lon="0.75032">
        <ele>1793</ele>
        <time>2020-02-23T10:05:28Z</time>
      </trkpt>
      <trkpt lat="42.9304" lon="0.75032">
        <ele>1793</ele>
        <time>2020-02-23T10:05:29Z</time>
      </trkpt>
      <trkpt lat="42.9304" lon="0.75032">
        <ele>1793</ele>
        <time>2020-02-23T10:05:30Z</time>
      </trkpt>
      <trkpt lat="42.9304" lon="0.75032">
        <ele>1793</ele>
        <time>2020-02-23T10:05:31Z</time>
      </trkpt>
      <trkpt lat="42.9304" lon="0.75032">
        <ele>1793</ele>
        <time>2020-02-23T10:05:32Z</time>
      </trkpt>
      <trkpt lat="42.9304" lon="0.75032">
        <ele>1793</ele>
        <time>2020-02-23T10:05:33Z</time>
      </trkpt>
      <trkpt lat="42.9304" lon="0.75032">
        <ele>1793</ele>
        <time>2020-02-23T10:05:34Z</time>
      </trkpt>
      <trkpt lat="42.9304" lon="0.75032">
        <ele>1793</ele>
        <time>2020-02-23T10:05:35Z</time>
      </trkpt>
      <trkpt lat="42.9304" lon="0.75032">
        <ele>1793</ele>
        <time>2020-02-23T10:05:36Z</time>
      </trkpt>
      <trkpt lat="42.93039" lon="0.75035">
        <ele>1791.5</ele>
        <time>2020-02-23T10:05:37Z</time>
      </trkpt>
      <trkpt lat="42.93039" lon="0.75035">
        <ele>1791.5</ele>
        <time>2020-02-23T10:05:38Z</time>
      </trkpt>
      <trkpt lat="42.93039" lon="0.75035">
        <ele>1791.5</ele>
        <time>2020-02-23T10:05:39Z</time>
      </trkpt>
      <trkpt lat="42.93039" lon="0.75035">
        <ele>1791.5</ele>
        <time>2020-02-23T10:05:40Z</time>
      </trkpt>
      <trkpt lat="42.93039" lon="0.75035">
        <ele>1791.5</ele>
        <time>2020-02-23T10:05:41Z</time>
      </trkpt>
      <trkpt lat="42.93039" lon="0.75035">
        <ele>1791.5</ele>
        <time>2020-02-23T10:05:42Z</time>
      </trkpt>
      <trkpt lat="42.93039" lon="0.75035">
        <ele>1791.5</ele>
        <time>2020-02-23T10:05:43Z</time>
      </trkpt>
      <trkpt lat="42.93039" lon="0.75035">
        <ele>1791.5</ele>
        <time>2020-02-23T10:05:44Z</time>
      </trkpt>
      <trkpt lat="42.93039" lon="0.75035">
        <ele>1791.5</ele>
        <time>2020-02-23T10:05:45Z</time>
      </trkpt>
      <trkpt lat="42.93037" lon="0.75035">
        <ele>1792.2</ele>
        <time>2020-02-23T10:05:46Z</time>
      </trkpt>
      <trkpt lat="42.93037" lon="0.75035">
        <ele>1792.2</ele>
        <time>2020-02-23T10:05:47Z</time>
      </trkpt>
      <trkpt lat="42.93037" lon="0.75035">
        <ele>1792.2</ele>
        <time>2020-02-23T10:05:48Z</time>
      </trkpt>
      <trkpt lat="42.93037" lon="0.75035">
        <ele>1792.2</ele>
        <time>2020-02-23T10:05:49Z</time>
      </trkpt>
      <trkpt lat="42.93037" lon="0.75035">
        <ele>1792.2</ele>
        <time>2020-02-23T10:05:50Z</time>
      </trkpt>
      <trkpt lat="42.93035" lon="0.75037">
        <ele>1792.2</ele>
        <time>2020-02-23T10:05:51Z</time>
      </trkpt>
      <trkpt lat="42.93035" lon="0.75037">
        <ele>1792.2</ele>
        <time>2020-02-23T10:05:52Z</time>
      </trkpt>
      <trkpt lat="42.93035" lon="0.75037">
        <ele>1792.2</ele>
        <time>2020-02-23T10:05:53Z</time>
      </trkpt>
      <trkpt lat="42.93035" lon="0.75037">
        <ele>1792.2</ele>
        <time>2020-02-23T10:05:54Z</time>
      </trkpt>
      <trkpt lat="42.93035" lon="0.75037">
        <ele>1792.2</ele>
        <time>2020-02-23T10:05:55Z</time>
      </trkpt>
      <trkpt lat="42.93035" lon="0.75036">
        <ele>1792.2</ele>
        <time>2020-02-23T10:05:56Z</time>
      </trkpt>
      <trkpt lat="42.93035" lon="0.75036">
        <ele>1793.1</ele>
        <time>2020-02-23T10:05:57Z</time>
      </trkpt>
      <trkpt lat="42.93035" lon="0.75036">
        <ele>1793.1</ele>
        <time>2020-02-23T10:05:58Z</time>
      </trkpt>
      <trkpt lat="42.93035" lon="0.75035">
        <ele>1793.1</ele>
        <time>2020-02-23T10:05:59Z</time>
      </trkpt>
      <trkpt lat="42.93035" lon="0.75035">
        <ele>1793.1</ele>
        <time>2020-02-23T10:06:00Z</time>
      </trkpt>
      <trkpt lat="42.93035" lon="0.75035">
        <ele>1793.1</ele>
        <time>2020-02-23T10:06:01Z</time>
      </trkpt>
      <trkpt lat="42.93035" lon="0.75035">
        <ele>1793.1</ele>
        <time>2020-02-23T10:06:02Z</time>
      </trkpt>
      <trkpt lat="42.93035" lon="0.75034">
        <ele>1793.1</ele>
        <time>2020-02-23T10:06:03Z</time>
      </trkpt>
      <trkpt lat="42.93034" lon="0.75034">
        <ele>1793.1</ele>
        <time>2020-02-23T10:06:04Z</time>
      </trkpt>
      <trkpt lat="42.93034" lon="0.75034">
        <ele>1793.1</ele>
        <time>2020-02-23T10:06:05Z</time>
      </trkpt>
      <trkpt lat="42.93034" lon="0.75033">
        <ele>1793.1</ele>
        <time>2020-02-23T10:06:06Z</time>
      </trkpt>
      <trkpt lat="42.93034" lon="0.75033">
        <ele>1794.5</ele>
        <time>2020-02-23T10:06:07Z</time>
      </trkpt>
      <trkpt lat="42.93034" lon="0.75033">
        <ele>1794.5</ele>
        <time>2020-02-23T10:06:08Z</time>
      </trkpt>
      <trkpt lat="42.93034" lon="0.75033">
        <ele>1794.5</ele>
        <time>2020-02-23T10:06:09Z</time>
      </trkpt>
      <trkpt lat="42.93034" lon="0.75032">
        <ele>1794.5</ele>
        <time>2020-02-23T10:06:10Z</time>
      </trkpt>
      <trkpt lat="42.93034" lon="0.75032">
        <ele>1794.5</ele>
        <time>2020-02-23T10:06:11Z</time>
      </trkpt>
      <trkpt lat="42.93034" lon="0.75032">
        <ele>1794.5</ele>
        <time>2020-02-23T10:06:12Z</time>
      </trkpt>
      <trkpt lat="42.93034" lon="0.75031">
        <ele>1794.5</ele>
        <time>2020-02-23T10:06:13Z</time>
      </trkpt>
      <trkpt lat="42.93034" lon="0.75031">
        <ele>1794.5</ele>
        <time>2020-02-23T10:06:14Z</time>
      </trkpt>
      <trkpt lat="42.93034" lon="0.75031">
        <ele>1794.5</ele>
        <time>2020-02-23T10:06:15Z</time>
      </trkpt>
      <trkpt lat="42.93034" lon="0.7503">
        <ele>1794.5</ele>
        <time>2020-02-23T10:06:16Z</time>
      </trkpt>
      <trkpt lat="42.93034" lon="0.7503">
        <ele>1794.5</ele>
        <time>2020-02-23T10:06:17Z</time>
      </trkpt>
      <trkpt lat="42.93034" lon="0.7503">
        <ele>1794.5</ele>
        <time>2020-02-23T10:06:18Z</time>
      </trkpt>
      <trkpt lat="42.93034" lon="0.7503">
        <ele>1794.5</ele>
        <time>2020-02-23T10:06:19Z</time>
      </trkpt>
      <trkpt lat="42.93034" lon="0.75029">
        <ele>1794.5</ele>
        <time>2020-02-23T10:06:20Z</time>
      </trkpt>
      <trkpt lat="42.93034" lon="0.75029">
        <ele>1794.5</ele>
        <time>2020-02-23T10:06:21Z</time>
      </trkpt>
      <trkpt lat="42.93034" lon="0.75029">
        <ele>1795.9</ele>
        <time>2020-02-23T10:06:22Z</time>
      </trkpt>
      <trkpt lat="42.93034" lon="0.75028">
        <ele>1795.9</ele>
        <time>2020-02-23T10:06:23Z</time>
      </trkpt>
      <trkpt lat="42.93034" lon="0.75028">
        <ele>1795.9</ele>
        <time>2020-02-23T10:06:24Z</time>
      </trkpt>
      <trkpt lat="42.93034" lon="0.75028">
        <ele>1795.9</ele>
        <time>2020-02-23T10:06:25Z</time>
      </trkpt>
      <trkpt lat="42.93034" lon="0.75028">
        <ele>1795.9</ele>
        <time>2020-02-23T10:06:26Z</time>
      </trkpt>
      <trkpt lat="42.93033" lon="0.75027">
        <ele>1795.9</ele>
        <time>2020-02-23T10:06:27Z</time>
      </trkpt>
      <trkpt lat="42.93033" lon="0.75027">
        <ele>1795.9</ele>
        <time>2020-02-23T10:06:28Z</time>
      </trkpt>
      <trkpt lat="42.93033" lon="0.75027">
        <ele>1795.9</ele>
        <time>2020-02-23T10:06:29Z</time>
      </trkpt>
      <trkpt lat="42.93033" lon="0.75026">
        <ele>1795.9</ele>
        <time>2020-02-23T10:06:30Z</time>
      </trkpt>
      <trkpt lat="42.93033" lon="0.75026">
        <ele>1795.9</ele>
        <time>2020-02-23T10:06:31Z</time>
      </trkpt>
      <trkpt lat="42.93033" lon="0.75026">
        <ele>1795.9</ele>
        <time>2020-02-23T10:06:32Z</time>
      </trkpt>
      <trkpt lat="42.93033" lon="0.75025">
        <ele>1795.9</ele>
        <time>2020-02-23T10:06:33Z</time>
      </trkpt>
      <trkpt lat="42.93033" lon="0.75025">
        <ele>1795.9</ele>
        <time>2020-02-23T10:06:34Z</time>
      </trkpt>
      <trkpt lat="42.93033" lon="0.75025">
        <ele>1795.9</ele>
        <time>2020-02-23T10:06:35Z</time>
      </trkpt>
      <trkpt lat="42.93033" lon="0.75025">
        <ele>1795.9</ele>
        <time>2020-02-23T10:06:36Z</time>
      </trkpt>
      <trkpt lat="42.93033" lon="0.75025">
        <ele>1795.9</ele>
        <time>2020-02-23T10:06:37Z</time>
      </trkpt>
      <trkpt lat="42.93033" lon="0.75025">
        <ele>1795.9</ele>
        <time>2020-02-23T10:06:38Z</time>
      </trkpt>
      <trkpt lat="42.93033" lon="0.75025">
        <ele>1795.9</ele>
        <time>2020-02-23T10:06:39Z</time>
      </trkpt>
      <trkpt lat="42.93033" lon="0.75025">
        <ele>1795.9</ele>
        <time>2020-02-23T10:06:40Z</time>
      </trkpt>
      <trkpt lat="42.93033" lon="0.75025">
        <ele>1795.9</ele>
        <time>2020-02-23T10:06:41Z</time>
      </trkpt>
      <trkpt lat="42.93033" lon="0.75025">
        <ele>1795.9</ele>
        <time>2020-02-23T10:06:42Z</time>
      </trkpt>
      <trkpt lat="42.93033" lon="0.75025">
        <ele>1795.9</ele>
        <time>2020-02-23T10:06:43Z</time>
      </trkpt>
      <trkpt lat="42.93033" lon="0.75025">
        <ele>1795.9</ele>
        <time>2020-02-23T10:06:44Z</time>
      </trkpt>
      <trkpt lat="42.93033" lon="0.75025">
        <ele>1795.9</ele>
        <time>2020-02-23T10:06:45Z</time>
      </trkpt>
      <trkpt lat="42.93033" lon="0.75025">
        <ele>1795.9</ele>
        <time>2020-02-23T10:06:46Z</time>
      </trkpt>
      <trkpt lat="42.93033" lon="0.75025">
        <ele>1795.9</ele>
        <time>2020-02-23T10:06:47Z</time>
      </trkpt>
      <trkpt lat="42.93032" lon="0.75023">
        <ele>1797.3</ele>
        <time>2020-02-23T10:06:48Z</time>
      </trkpt>
      <trkpt lat="42.93032" lon="0.75023">
        <ele>1797.3</ele>
        <time>2020-02-23T10:06:49Z</time>
      </trkpt>
      <trkpt lat="42.93032" lon="0.75023">
        <ele>1797.3</ele>
        <time>2020-02-23T10:06:50Z</time>
      </trkpt>
      <trkpt lat="42.93032" lon="0.75023">
        <ele>1797.3</ele>
        <time>2020-02-23T10:06:51Z</time>
      </trkpt>
      <trkpt lat="42.93032" lon="0.75023">
        <ele>1797.3</ele>
        <time>2020-02-23T10:06:52Z</time>
      </trkpt>
      <trkpt lat="42.93032" lon="0.75023">
        <ele>1797.3</ele>
        <time>2020-02-23T10:06:53Z</time>
      </trkpt>
      <trkpt lat="42.93032" lon="0.75023">
        <ele>1797.3</ele>
        <time>2020-02-23T10:06:54Z</time>
      </trkpt>
      <trkpt lat="42.93032" lon="0.75023">
        <ele>1797.3</ele>
        <time>2020-02-23T10:06:55Z</time>
      </trkpt>
      <trkpt lat="42.93032" lon="0.75023">
        <ele>1797.3</ele>
        <time>2020-02-23T10:06:56Z</time>
      </trkpt>
      <trkpt lat="42.93032" lon="0.75023">
        <ele>1797.3</ele>
        <time>2020-02-23T10:06:57Z</time>
      </trkpt>
      <trkpt lat="42.93032" lon="0.7502">
        <ele>1798.7</ele>
        <time>2020-02-23T10:06:58Z</time>
      </trkpt>
      <trkpt lat="42.93032" lon="0.7502">
        <ele>1798.7</ele>
        <time>2020-02-23T10:06:59Z</time>
      </trkpt>
      <trkpt lat="42.93032" lon="0.7502">
        <ele>1798.7</ele>
        <time>2020-02-23T10:07:00Z</time>
      </trkpt>
      <trkpt lat="42.93032" lon="0.7502">
        <ele>1798.7</ele>
        <time>2020-02-23T10:07:01Z</time>
      </trkpt>
      <trkpt lat="42.93032" lon="0.7502">
        <ele>1798.7</ele>
        <time>2020-02-23T10:07:02Z</time>
      </trkpt>
      <trkpt lat="42.93032" lon="0.7502">
        <ele>1798.7</ele>
        <time>2020-02-23T10:07:03Z</time>
      </trkpt>
      <trkpt lat="42.93033" lon="0.75017">
        <ele>1798.7</ele>
        <time>2020-02-23T10:07:04Z</time>
      </trkpt>
      <trkpt lat="42.93033" lon="0.75017">
        <ele>1798.7</ele>
        <time>2020-02-23T10:07:05Z</time>
      </trkpt>
      <trkpt lat="42.93033" lon="0.75017">
        <ele>1798.7</ele>
        <time>2020-02-23T10:07:06Z</time>
      </trkpt>
      <trkpt lat="42.93033" lon="0.75017">
        <ele>1798.7</ele>
        <time>2020-02-23T10:07:07Z</time>
      </trkpt>
      <trkpt lat="42.93033" lon="0.75017">
        <ele>1798.7</ele>
        <time>2020-02-23T10:07:08Z</time>
      </trkpt>
      <trkpt lat="42.93033" lon="0.75017">
        <ele>1798.7</ele>
        <time>2020-02-23T10:07:09Z</time>
      </trkpt>
      <trkpt lat="42.93033" lon="0.75017">
        <ele>1798.7</ele>
        <time>2020-02-23T10:07:10Z</time>
      </trkpt>
      <trkpt lat="42.93033" lon="0.75017">
        <ele>1798.7</ele>
        <time>2020-02-23T10:07:11Z</time>
      </trkpt>
      <trkpt lat="42.93033" lon="0.75017">
        <ele>1798.7</ele>
        <time>2020-02-23T10:07:12Z</time>
      </trkpt>
      <trkpt lat="42.93033" lon="0.75017">
        <ele>1798.7</ele>
        <time>2020-02-23T10:07:13Z</time>
      </trkpt>
      <trkpt lat="42.93033" lon="0.75017">
        <ele>1798.7</ele>
        <time>2020-02-23T10:07:14Z</time>
      </trkpt>
      <trkpt lat="42.93033" lon="0.75017">
        <ele>1798.7</ele>
        <time>2020-02-23T10:07:15Z</time>
      </trkpt>
      <trkpt lat="42.93033" lon="0.75015">
        <ele>1800</ele>
        <time>2020-02-23T10:07:16Z</time>
      </trkpt>
      <trkpt lat="42.93033" lon="0.75015">
        <ele>1800</ele>
        <time>2020-02-23T10:07:17Z</time>
      </trkpt>
      <trkpt lat="42.93033" lon="0.75015">
        <ele>1800</ele>
        <time>2020-02-23T10:07:18Z</time>
      </trkpt>
      <trkpt lat="42.93033" lon="0.75015">
        <ele>1800</ele>
        <time>2020-02-23T10:07:19Z</time>
      </trkpt>
      <trkpt lat="42.93033" lon="0.75015">
        <ele>1800</ele>
        <time>2020-02-23T10:07:20Z</time>
      </trkpt>
      <trkpt lat="42.93033" lon="0.75015">
        <ele>1800</ele>
        <time>2020-02-23T10:07:21Z</time>
      </trkpt>
      <trkpt lat="42.93033" lon="0.75015">
        <ele>1800</ele>
        <time>2020-02-23T10:07:22Z</time>
      </trkpt>
      <trkpt lat="42.93033" lon="0.75015">
        <ele>1800</ele>
        <time>2020-02-23T10:07:23Z</time>
      </trkpt>
      <trkpt lat="42.93033" lon="0.75015">
        <ele>1800</ele>
        <time>2020-02-23T10:07:24Z</time>
      </trkpt>
      <trkpt lat="42.93033" lon="0.75015">
        <ele>1800</ele>
        <time>2020-02-23T10:07:25Z</time>
      </trkpt>
      <trkpt lat="42.93033" lon="0.75015">
        <ele>1800</ele>
        <time>2020-02-23T10:07:26Z</time>
      </trkpt>
      <trkpt lat="42.93033" lon="0.75015">
        <ele>1800</ele>
        <time>2020-02-23T10:07:27Z</time>
      </trkpt>
      <trkpt lat="42.93033" lon="0.75015">
        <ele>1800</ele>
        <time>2020-02-23T10:07:28Z</time>
      </trkpt>
      <trkpt lat="42.93033" lon="0.75012">
        <ele>1800</ele>
        <time>2020-02-23T10:07:29Z</time>
      </trkpt>
      <trkpt lat="42.93033" lon="0.75012">
        <ele>1800</ele>
        <time>2020-02-23T10:07:30Z</time>
      </trkpt>
      <trkpt lat="42.93033" lon="0.75012">
        <ele>1800</ele>
        <time>2020-02-23T10:07:31Z</time>
      </trkpt>
      <trkpt lat="42.93033" lon="0.75012">
        <ele>1800</ele>
        <time>2020-02-23T10:07:32Z</time>
      </trkpt>
      <trkpt lat="42.93033" lon="0.75012">
        <ele>1800</ele>
        <time>2020-02-23T10:07:33Z</time>
      </trkpt>
      <trkpt lat="42.93033" lon="0.75012">
        <ele>1800</ele>
        <time>2020-02-23T10:07:34Z</time>
      </trkpt>
      <trkpt lat="42.93033" lon="0.75012">
        <ele>1800</ele>
        <time>2020-02-23T10:07:35Z</time>
      </trkpt>
      <trkpt lat="42.93033" lon="0.75012">
        <ele>1800</ele>
        <time>2020-02-23T10:07:36Z</time>
      </trkpt>
      <trkpt lat="42.93031" lon="0.75011">
        <ele>1802</ele>
        <time>2020-02-23T10:07:37Z</time>
      </trkpt>
      <trkpt lat="42.93031" lon="0.75011">
        <ele>1802</ele>
        <time>2020-02-23T10:07:38Z</time>
      </trkpt>
      <trkpt lat="42.93031" lon="0.75011">
        <ele>1802</ele>
        <time>2020-02-23T10:07:39Z</time>
      </trkpt>
      <trkpt lat="42.93031" lon="0.75011">
        <ele>1802</ele>
        <time>2020-02-23T10:07:40Z</time>
      </trkpt>
      <trkpt lat="42.93031" lon="0.75011">
        <ele>1802</ele>
        <time>2020-02-23T10:07:41Z</time>
      </trkpt>
      <trkpt lat="42.93031" lon="0.75011">
        <ele>1802</ele>
        <time>2020-02-23T10:07:42Z</time>
      </trkpt>
      <trkpt lat="42.93031" lon="0.75011">
        <ele>1802</ele>
        <time>2020-02-23T10:07:43Z</time>
      </trkpt>
      <trkpt lat="42.9303" lon="0.75009">
        <ele>1802</ele>
        <time>2020-02-23T10:07:44Z</time>
      </trkpt>
      <trkpt lat="42.9303" lon="0.75009">
        <ele>1802</ele>
        <time>2020-02-23T10:07:45Z</time>
      </trkpt>
      <trkpt lat="42.9303" lon="0.75009">
        <ele>1802</ele>
        <time>2020-02-23T10:07:46Z</time>
      </trkpt>
      <trkpt lat="42.9303" lon="0.75009">
        <ele>1802</ele>
        <time>2020-02-23T10:07:47Z</time>
      </trkpt>
      <trkpt lat="42.9303" lon="0.75009">
        <ele>1802</ele>
        <time>2020-02-23T10:07:48Z</time>
      </trkpt>
      <trkpt lat="42.9303" lon="0.75009">
        <ele>1802</ele>
        <time>2020-02-23T10:07:49Z</time>
      </trkpt>
      <trkpt lat="42.9303" lon="0.75009">
        <ele>1802</ele>
        <time>2020-02-23T10:07:50Z</time>
      </trkpt>
      <trkpt lat="42.93029" lon="0.75006">
        <ele>1803.4</ele>
        <time>2020-02-23T10:07:51Z</time>
      </trkpt>
      <trkpt lat="42.93029" lon="0.75006">
        <ele>1803.4</ele>
        <time>2020-02-23T10:07:52Z</time>
      </trkpt>
      <trkpt lat="42.93029" lon="0.75006">
        <ele>1803.4</ele>
        <time>2020-02-23T10:07:53Z</time>
      </trkpt>
      <trkpt lat="42.93029" lon="0.75006">
        <ele>1803.4</ele>
        <time>2020-02-23T10:07:54Z</time>
      </trkpt>
      <trkpt lat="42.93029" lon="0.75006">
        <ele>1803.4</ele>
        <time>2020-02-23T10:07:55Z</time>
      </trkpt>
      <trkpt lat="42.93029" lon="0.75006">
        <ele>1803.4</ele>
        <time>2020-02-23T10:07:56Z</time>
      </trkpt>
      <trkpt lat="42.93029" lon="0.75006">
        <ele>1803.4</ele>
        <time>2020-02-23T10:07:57Z</time>
      </trkpt>
      <trkpt lat="42.93029" lon="0.75006">
        <ele>1803.4</ele>
        <time>2020-02-23T10:07:58Z</time>
      </trkpt>
      <trkpt lat="42.93029" lon="0.75006">
        <ele>1803.4</ele>
        <time>2020-02-23T10:07:59Z</time>
      </trkpt>
      <trkpt lat="42.93029" lon="0.75006">
        <ele>1803.4</ele>
        <time>2020-02-23T10:08:00Z</time>
      </trkpt>
      <trkpt lat="42.93029" lon="0.75006">
        <ele>1803.4</ele>
        <time>2020-02-23T10:08:01Z</time>
      </trkpt>
      <trkpt lat="42.93027" lon="0.75006">
        <ele>1803.9</ele>
        <time>2020-02-23T10:08:02Z</time>
      </trkpt>
      <trkpt lat="42.93027" lon="0.75006">
        <ele>1803.9</ele>
        <time>2020-02-23T10:08:03Z</time>
      </trkpt>
      <trkpt lat="42.93027" lon="0.75005">
        <ele>1803.9</ele>
        <time>2020-02-23T10:08:04Z</time>
      </trkpt>
      <trkpt lat="42.93027" lon="0.75005">
        <ele>1803.9</ele>
        <time>2020-02-23T10:08:05Z</time>
      </trkpt>
      <trkpt lat="42.93027" lon="0.75004">
        <ele>1803.9</ele>
        <time>2020-02-23T10:08:06Z</time>
      </trkpt>
      <trkpt lat="42.93027" lon="0.75004">
        <ele>1803.9</ele>
        <time>2020-02-23T10:08:07Z</time>
      </trkpt>
      <trkpt lat="42.93027" lon="0.75004">
        <ele>1803.9</ele>
        <time>2020-02-23T10:08:08Z</time>
      </trkpt>
      <trkpt lat="42.93027" lon="0.75003">
        <ele>1805.3</ele>
        <time>2020-02-23T10:08:09Z</time>
      </trkpt>
      <trkpt lat="42.93027" lon="0.75003">
        <ele>1805.3</ele>
        <time>2020-02-23T10:08:10Z</time>
      </trkpt>
      <trkpt lat="42.93027" lon="0.75002">
        <ele>1805.3</ele>
        <time>2020-02-23T10:08:11Z</time>
      </trkpt>
      <trkpt lat="42.93027" lon="0.75002">
        <ele>1805.3</ele>
        <time>2020-02-23T10:08:12Z</time>
      </trkpt>
      <trkpt lat="42.93027" lon="0.75001">
        <ele>1805.3</ele>
        <time>2020-02-23T10:08:13Z</time>
      </trkpt>
      <trkpt lat="42.93027" lon="0.75001">
        <ele>1805.3</ele>
        <time>2020-02-23T10:08:14Z</time>
      </trkpt>
      <trkpt lat="42.93027" lon="0.75">
        <ele>1805.3</ele>
        <time>2020-02-23T10:08:15Z</time>
      </trkpt>
      <trkpt lat="42.93027" lon="0.75">
        <ele>1805.3</ele>
        <time>2020-02-23T10:08:16Z</time>
      </trkpt>
      <trkpt lat="42.93027" lon="0.75">
        <ele>1805.3</ele>
        <time>2020-02-23T10:08:17Z</time>
      </trkpt>
      <trkpt lat="42.93027" lon="0.75">
        <ele>1805.3</ele>
        <time>2020-02-23T10:08:18Z</time>
      </trkpt>
      <trkpt lat="42.93027" lon="0.75">
        <ele>1805.3</ele>
        <time>2020-02-23T10:08:19Z</time>
      </trkpt>
      <trkpt lat="42.93027" lon="0.75">
        <ele>1805.3</ele>
        <time>2020-02-23T10:08:20Z</time>
      </trkpt>
      <trkpt lat="42.93027" lon="0.75">
        <ele>1805.3</ele>
        <time>2020-02-23T10:08:21Z</time>
      </trkpt>
      <trkpt lat="42.93027" lon="0.75">
        <ele>1805.3</ele>
        <time>2020-02-23T10:08:22Z</time>
      </trkpt>
      <trkpt lat="42.93027" lon="0.75">
        <ele>1805.3</ele>
        <time>2020-02-23T10:08:23Z</time>
      </trkpt>
      <trkpt lat="42.93027" lon="0.75">
        <ele>1805.3</ele>
        <time>2020-02-23T10:08:24Z</time>
      </trkpt>
      <trkpt lat="42.93027" lon="0.75">
        <ele>1805.3</ele>
        <time>2020-02-23T10:08:25Z</time>
      </trkpt>
      <trkpt lat="42.93027" lon="0.75">
        <ele>1805.3</ele>
        <time>2020-02-23T10:08:26Z</time>
      </trkpt>
      <trkpt lat="42.93027" lon="0.75">
        <ele>1805.3</ele>
        <time>2020-02-23T10:08:27Z</time>
      </trkpt>
      <trkpt lat="42.93027" lon="0.75">
        <ele>1805.3</ele>
        <time>2020-02-23T10:08:28Z</time>
      </trkpt>
      <trkpt lat="42.93027" lon="0.75">
        <ele>1805.3</ele>
        <time>2020-02-23T10:08:29Z</time>
      </trkpt>
      <trkpt lat="42.93027" lon="0.75">
        <ele>1805.3</ele>
        <time>2020-02-23T10:08:30Z</time>
      </trkpt>
      <trkpt lat="42.93027" lon="0.75">
        <ele>1805.3</ele>
        <time>2020-02-23T10:08:31Z</time>
      </trkpt>
      <trkpt lat="42.93027" lon="0.75">
        <ele>1805.3</ele>
        <time>2020-02-23T10:08:32Z</time>
      </trkpt>
      <trkpt lat="42.93027" lon="0.75">
        <ele>1805.3</ele>
        <time>2020-02-23T10:08:33Z</time>
      </trkpt>
      <trkpt lat="42.93027" lon="0.75">
        <ele>1805.3</ele>
        <time>2020-02-23T10:08:34Z</time>
      </trkpt>
      <trkpt lat="42.93027" lon="0.75">
        <ele>1805.3</ele>
        <time>2020-02-23T10:08:35Z</time>
      </trkpt>
      <trkpt lat="42.93027" lon="0.75">
        <ele>1805.3</ele>
        <time>2020-02-23T10:08:36Z</time>
      </trkpt>
      <trkpt lat="42.93026" lon="0.74996">
        <ele>1806.7</ele>
        <time>2020-02-23T10:08:37Z</time>
      </trkpt>
      <trkpt lat="42.93026" lon="0.74996">
        <ele>1806.7</ele>
        <time>2020-02-23T10:08:38Z</time>
      </trkpt>
      <trkpt lat="42.93025" lon="0.74998">
        <ele>1807</ele>
        <time>2020-02-23T10:08:39Z</time>
      </trkpt>
      <trkpt lat="42.93025" lon="0.74998">
        <ele>1807</ele>
        <time>2020-02-23T10:08:40Z</time>
      </trkpt>
      <trkpt lat="42.93023" lon="0.75">
        <ele>1805.7</ele>
        <time>2020-02-23T10:08:41Z</time>
      </trkpt>
      <trkpt lat="42.93023" lon="0.75">
        <ele>1805.7</ele>
        <time>2020-02-23T10:08:42Z</time>
      </trkpt>
      <trkpt lat="42.93023" lon="0.75">
        <ele>1805.7</ele>
        <time>2020-02-23T10:08:43Z</time>
      </trkpt>
      <trkpt lat="42.93023" lon="0.75">
        <ele>1805.7</ele>
        <time>2020-02-23T10:08:44Z</time>
      </trkpt>
      <trkpt lat="42.93021" lon="0.75001">
        <ele>1806.1</ele>
        <time>2020-02-23T10:08:45Z</time>
      </trkpt>
      <trkpt lat="42.93021" lon="0.75001">
        <ele>1806.1</ele>
        <time>2020-02-23T10:08:46Z</time>
      </trkpt>
      <trkpt lat="42.93021" lon="0.75001">
        <ele>1806.1</ele>
        <time>2020-02-23T10:08:47Z</time>
      </trkpt>
      <trkpt lat="42.93021" lon="0.75001">
        <ele>1806.1</ele>
        <time>2020-02-23T10:08:48Z</time>
      </trkpt>
      <trkpt lat="42.93021" lon="0.75001">
        <ele>1806.1</ele>
        <time>2020-02-23T10:08:49Z</time>
      </trkpt>
      <trkpt lat="42.93021" lon="0.75001">
        <ele>1806.1</ele>
        <time>2020-02-23T10:08:50Z</time>
      </trkpt>
      <trkpt lat="42.93021" lon="0.75001">
        <ele>1806.1</ele>
        <time>2020-02-23T10:08:51Z</time>
      </trkpt>
      <trkpt lat="42.93021" lon="0.75001">
        <ele>1806.1</ele>
        <time>2020-02-23T10:08:52Z</time>
      </trkpt>
      <trkpt lat="42.93021" lon="0.75001">
        <ele>1806.1</ele>
        <time>2020-02-23T10:08:53Z</time>
      </trkpt>
      <trkpt lat="42.93021" lon="0.75001">
        <ele>1806.1</ele>
        <time>2020-02-23T10:08:54Z</time>
      </trkpt>
      <trkpt lat="42.93021" lon="0.75001">
        <ele>1806.1</ele>
        <time>2020-02-23T10:08:55Z</time>
      </trkpt>
      <trkpt lat="42.93021" lon="0.75001">
        <ele>1806.1</ele>
        <time>2020-02-23T10:08:56Z</time>
      </trkpt>
      <trkpt lat="42.93021" lon="0.75001">
        <ele>1806.1</ele>
        <time>2020-02-23T10:08:57Z</time>
      </trkpt>
      <trkpt lat="42.93021" lon="0.75001">
        <ele>1806.1</ele>
        <time>2020-02-23T10:08:58Z</time>
      </trkpt>
      <trkpt lat="42.93021" lon="0.75001">
        <ele>1806.1</ele>
        <time>2020-02-23T10:08:59Z</time>
      </trkpt>
      <trkpt lat="42.93019" lon="0.75002">
        <ele>1806.1</ele>
        <time>2020-02-23T10:09:00Z</time>
      </trkpt>
      <trkpt lat="42.93019" lon="0.75002">
        <ele>1806.1</ele>
        <time>2020-02-23T10:09:01Z</time>
      </trkpt>
      <trkpt lat="42.93019" lon="0.75002">
        <ele>1806.1</ele>
        <time>2020-02-23T10:09:02Z</time>
      </trkpt>
      <trkpt lat="42.93019" lon="0.75002">
        <ele>1806.1</ele>
        <time>2020-02-23T10:09:03Z</time>
      </trkpt>
      <trkpt lat="42.93018" lon="0.74999">
        <ele>1806.5</ele>
        <time>2020-02-23T10:09:04Z</time>
      </trkpt>
      <trkpt lat="42.93018" lon="0.74999">
        <ele>1806.5</ele>
        <time>2020-02-23T10:09:05Z</time>
      </trkpt>
      <trkpt lat="42.93018" lon="0.74999">
        <ele>1806.5</ele>
        <time>2020-02-23T10:09:06Z</time>
      </trkpt>
      <trkpt lat="42.93018" lon="0.74999">
        <ele>1806.5</ele>
        <time>2020-02-23T10:09:07Z</time>
      </trkpt>
      <trkpt lat="42.93018" lon="0.74999">
        <ele>1806.5</ele>
        <time>2020-02-23T10:09:08Z</time>
      </trkpt>
      <trkpt lat="42.93018" lon="0.74999">
        <ele>1806.5</ele>
        <time>2020-02-23T10:09:09Z</time>
      </trkpt>
      <trkpt lat="42.93018" lon="0.74999">
        <ele>1806.5</ele>
        <time>2020-02-23T10:09:10Z</time>
      </trkpt>
      <trkpt lat="42.93018" lon="0.74999">
        <ele>1806.5</ele>
        <time>2020-02-23T10:09:11Z</time>
      </trkpt>
      <trkpt lat="42.93018" lon="0.74999">
        <ele>1806.5</ele>
        <time>2020-02-23T10:09:12Z</time>
      </trkpt>
      <trkpt lat="42.93018" lon="0.74999">
        <ele>1806.5</ele>
        <time>2020-02-23T10:09:13Z</time>
      </trkpt>
      <trkpt lat="42.93018" lon="0.74999">
        <ele>1806.5</ele>
        <time>2020-02-23T10:09:14Z</time>
      </trkpt>
      <trkpt lat="42.93018" lon="0.74999">
        <ele>1806.5</ele>
        <time>2020-02-23T10:09:15Z</time>
      </trkpt>
      <trkpt lat="42.93018" lon="0.74999">
        <ele>1806.5</ele>
        <time>2020-02-23T10:09:16Z</time>
      </trkpt>
      <trkpt lat="42.93018" lon="0.74999">
        <ele>1806.5</ele>
        <time>2020-02-23T10:09:17Z</time>
      </trkpt>
      <trkpt lat="42.93018" lon="0.74999">
        <ele>1806.5</ele>
        <time>2020-02-23T10:09:18Z</time>
      </trkpt>
      <trkpt lat="42.93018" lon="0.74999">
        <ele>1806.5</ele>
        <time>2020-02-23T10:09:19Z</time>
      </trkpt>
      <trkpt lat="42.93018" lon="0.74999">
        <ele>1806.5</ele>
        <time>2020-02-23T10:09:20Z</time>
      </trkpt>
      <trkpt lat="42.93016" lon="0.74996">
        <ele>1807.7</ele>
        <time>2020-02-23T10:09:21Z</time>
      </trkpt>
      <trkpt lat="42.93016" lon="0.74996">
        <ele>1807.7</ele>
        <time>2020-02-23T10:09:22Z</time>
      </trkpt>
      <trkpt lat="42.93016" lon="0.74996">
        <ele>1807.7</ele>
        <time>2020-02-23T10:09:23Z</time>
      </trkpt>
      <trkpt lat="42.93016" lon="0.74996">
        <ele>1807.7</ele>
        <time>2020-02-23T10:09:24Z</time>
      </trkpt>
      <trkpt lat="42.93016" lon="0.74996">
        <ele>1807.7</ele>
        <time>2020-02-23T10:09:25Z</time>
      </trkpt>
      <trkpt lat="42.93016" lon="0.74996">
        <ele>1807.7</ele>
        <time>2020-02-23T10:09:26Z</time>
      </trkpt>
      <trkpt lat="42.93015" lon="0.74994">
        <ele>1809</ele>
        <time>2020-02-23T10:09:27Z</time>
      </trkpt>
      <trkpt lat="42.93015" lon="0.74994">
        <ele>1809</ele>
        <time>2020-02-23T10:09:28Z</time>
      </trkpt>
      <trkpt lat="42.93015" lon="0.74994">
        <ele>1809</ele>
        <time>2020-02-23T10:09:29Z</time>
      </trkpt>
      <trkpt lat="42.93015" lon="0.74994">
        <ele>1809</ele>
        <time>2020-02-23T10:09:30Z</time>
      </trkpt>
      <trkpt lat="42.93015" lon="0.74994">
        <ele>1809</ele>
        <time>2020-02-23T10:09:31Z</time>
      </trkpt>
      <trkpt lat="42.93015" lon="0.74994">
        <ele>1809</ele>
        <time>2020-02-23T10:09:32Z</time>
      </trkpt>
      <trkpt lat="42.93015" lon="0.74994">
        <ele>1809</ele>
        <time>2020-02-23T10:09:33Z</time>
      </trkpt>
      <trkpt lat="42.93016" lon="0.74992">
        <ele>1808.8</ele>
        <time>2020-02-23T10:09:34Z</time>
      </trkpt>
      <trkpt lat="42.93016" lon="0.74992">
        <ele>1808.8</ele>
        <time>2020-02-23T10:09:35Z</time>
      </trkpt>
      <trkpt lat="42.93016" lon="0.74992">
        <ele>1808.8</ele>
        <time>2020-02-23T10:09:36Z</time>
      </trkpt>
      <trkpt lat="42.93016" lon="0.74992">
        <ele>1808.8</ele>
        <time>2020-02-23T10:09:37Z</time>
      </trkpt>
      <trkpt lat="42.93016" lon="0.74992">
        <ele>1808.8</ele>
        <time>2020-02-23T10:09:38Z</time>
      </trkpt>
      <trkpt lat="42.93016" lon="0.74992">
        <ele>1808.8</ele>
        <time>2020-02-23T10:09:39Z</time>
      </trkpt>
      <trkpt lat="42.93016" lon="0.74992">
        <ele>1808.8</ele>
        <time>2020-02-23T10:09:40Z</time>
      </trkpt>
      <trkpt lat="42.93016" lon="0.74992">
        <ele>1808.8</ele>
        <time>2020-02-23T10:09:41Z</time>
      </trkpt>
      <trkpt lat="42.93016" lon="0.74992">
        <ele>1808.8</ele>
        <time>2020-02-23T10:09:42Z</time>
      </trkpt>
      <trkpt lat="42.93016" lon="0.74992">
        <ele>1808.8</ele>
        <time>2020-02-23T10:09:43Z</time>
      </trkpt>
      <trkpt lat="42.93014" lon="0.74992">
        <ele>1809</ele>
        <time>2020-02-23T10:09:44Z</time>
      </trkpt>
      <trkpt lat="42.93014" lon="0.74992">
        <ele>1809</ele>
        <time>2020-02-23T10:09:45Z</time>
      </trkpt>
      <trkpt lat="42.93014" lon="0.74992">
        <ele>1809</ele>
        <time>2020-02-23T10:09:46Z</time>
      </trkpt>
      <trkpt lat="42.93014" lon="0.74992">
        <ele>1809</ele>
        <time>2020-02-23T10:09:47Z</time>
      </trkpt>
      <trkpt lat="42.93012" lon="0.74994">
        <ele>1809.2</ele>
        <time>2020-02-23T10:09:48Z</time>
      </trkpt>
      <trkpt lat="42.93012" lon="0.74994">
        <ele>1809.2</ele>
        <time>2020-02-23T10:09:49Z</time>
      </trkpt>
      <trkpt lat="42.93012" lon="0.74994">
        <ele>1809.2</ele>
        <time>2020-02-23T10:09:50Z</time>
      </trkpt>
      <trkpt lat="42.93012" lon="0.74994">
        <ele>1809.2</ele>
        <time>2020-02-23T10:09:51Z</time>
      </trkpt>
      <trkpt lat="42.93012" lon="0.74994">
        <ele>1809.2</ele>
        <time>2020-02-23T10:09:52Z</time>
      </trkpt>
      <trkpt lat="42.93012" lon="0.74994">
        <ele>1809.2</ele>
        <time>2020-02-23T10:09:53Z</time>
      </trkpt>
      <trkpt lat="42.93011" lon="0.74991">
        <ele>1809.2</ele>
        <time>2020-02-23T10:09:54Z</time>
      </trkpt>
      <trkpt lat="42.93011" lon="0.74991">
        <ele>1809.2</ele>
        <time>2020-02-23T10:09:55Z</time>
      </trkpt>
      <trkpt lat="42.93011" lon="0.7499">
        <ele>1809.2</ele>
        <time>2020-02-23T10:09:56Z</time>
      </trkpt>
      <trkpt lat="42.93012" lon="0.7499">
        <ele>1810.2</ele>
        <time>2020-02-23T10:09:57Z</time>
      </trkpt>
      <trkpt lat="42.93012" lon="0.74989">
        <ele>1810.2</ele>
        <time>2020-02-23T10:09:58Z</time>
      </trkpt>
      <trkpt lat="42.93013" lon="0.74988">
        <ele>1810.2</ele>
        <time>2020-02-23T10:09:59Z</time>
      </trkpt>
      <trkpt lat="42.93013" lon="0.74987">
        <ele>1810</ele>
        <time>2020-02-23T10:10:00Z</time>
      </trkpt>
      <trkpt lat="42.93013" lon="0.74986">
        <ele>1810</ele>
        <time>2020-02-23T10:10:01Z</time>
      </trkpt>
      <trkpt lat="42.93014" lon="0.74985">
        <ele>1811</ele>
        <time>2020-02-23T10:10:02Z</time>
      </trkpt>
      <trkpt lat="42.93014" lon="0.74985">
        <ele>1811</ele>
        <time>2020-02-23T10:10:03Z</time>
      </trkpt>
      <trkpt lat="42.93015" lon="0.74984">
        <ele>1811</ele>
        <time>2020-02-23T10:10:04Z</time>
      </trkpt>
      <trkpt lat="42.93015" lon="0.74983">
        <ele>1811</ele>
        <time>2020-02-23T10:10:05Z</time>
      </trkpt>
      <trkpt lat="42.93015" lon="0.74983">
        <ele>1811</ele>
        <time>2020-02-23T10:10:06Z</time>
      </trkpt>
      <trkpt lat="42.93016" lon="0.7498">
        <ele>1811.8</ele>
        <time>2020-02-23T10:10:07Z</time>
      </trkpt>
      <trkpt lat="42.93016" lon="0.7498">
        <ele>1811.8</ele>
        <time>2020-02-23T10:10:08Z</time>
      </trkpt>
      <trkpt lat="42.93016" lon="0.74978">
        <ele>1811.8</ele>
        <time>2020-02-23T10:10:09Z</time>
      </trkpt>
      <trkpt lat="42.93016" lon="0.74978">
        <ele>1811.8</ele>
        <time>2020-02-23T10:10:10Z</time>
      </trkpt>
      <trkpt lat="42.93016" lon="0.74975">
        <ele>1812.6</ele>
        <time>2020-02-23T10:10:11Z</time>
      </trkpt>
      <trkpt lat="42.93016" lon="0.74975">
        <ele>1812.6</ele>
        <time>2020-02-23T10:10:12Z</time>
      </trkpt>
      <trkpt lat="42.93016" lon="0.74975">
        <ele>1812.6</ele>
        <time>2020-02-23T10:10:13Z</time>
      </trkpt>
      <trkpt lat="42.93016" lon="0.74975">
        <ele>1812.6</ele>
        <time>2020-02-23T10:10:14Z</time>
      </trkpt>
      <trkpt lat="42.93016" lon="0.74975">
        <ele>1812.6</ele>
        <time>2020-02-23T10:10:15Z</time>
      </trkpt>
      <trkpt lat="42.93016" lon="0.74975">
        <ele>1812.6</ele>
        <time>2020-02-23T10:10:16Z</time>
      </trkpt>
      <trkpt lat="42.93016" lon="0.74975">
        <ele>1812.6</ele>
        <time>2020-02-23T10:10:17Z</time>
      </trkpt>
      <trkpt lat="42.93016" lon="0.74975">
        <ele>1812.6</ele>
        <time>2020-02-23T10:10:18Z</time>
      </trkpt>
      <trkpt lat="42.93016" lon="0.74975">
        <ele>1812.6</ele>
        <time>2020-02-23T10:10:19Z</time>
      </trkpt>
      <trkpt lat="42.93016" lon="0.74975">
        <ele>1812.6</ele>
        <time>2020-02-23T10:10:20Z</time>
      </trkpt>
      <trkpt lat="42.93015" lon="0.74972">
        <ele>1813.3</ele>
        <time>2020-02-23T10:10:21Z</time>
      </trkpt>
      <trkpt lat="42.93015" lon="0.74972">
        <ele>1813.3</ele>
        <time>2020-02-23T10:10:22Z</time>
      </trkpt>
      <trkpt lat="42.93015" lon="0.74972">
        <ele>1813.3</ele>
        <time>2020-02-23T10:10:23Z</time>
      </trkpt>
      <trkpt lat="42.93015" lon="0.74972">
        <ele>1813.3</ele>
        <time>2020-02-23T10:10:24Z</time>
      </trkpt>
      <trkpt lat="42.93015" lon="0.74972">
        <ele>1813.3</ele>
        <time>2020-02-23T10:10:25Z</time>
      </trkpt>
      <trkpt lat="42.93017" lon="0.74969">
        <ele>1813.5</ele>
        <time>2020-02-23T10:10:26Z</time>
      </trkpt>
      <trkpt lat="42.93017" lon="0.74969">
        <ele>1813.5</ele>
        <time>2020-02-23T10:10:27Z</time>
      </trkpt>
      <trkpt lat="42.93017" lon="0.74969">
        <ele>1813.5</ele>
        <time>2020-02-23T10:10:28Z</time>
      </trkpt>
      <trkpt lat="42.93017" lon="0.74969">
        <ele>1813.5</ele>
        <time>2020-02-23T10:10:29Z</time>
      </trkpt>
      <trkpt lat="42.93017" lon="0.74969">
        <ele>1813.5</ele>
        <time>2020-02-23T10:10:30Z</time>
      </trkpt>
      <trkpt lat="42.93017" lon="0.74969">
        <ele>1813.5</ele>
        <time>2020-02-23T10:10:31Z</time>
      </trkpt>
      <trkpt lat="42.93016" lon="0.74967">
        <ele>1814.2</ele>
        <time>2020-02-23T10:10:32Z</time>
      </trkpt>
      <trkpt lat="42.93016" lon="0.74967">
        <ele>1814.2</ele>
        <time>2020-02-23T10:10:33Z</time>
      </trkpt>
      <trkpt lat="42.93016" lon="0.74967">
        <ele>1814.2</ele>
        <time>2020-02-23T10:10:34Z</time>
      </trkpt>
      <trkpt lat="42.93016" lon="0.74967">
        <ele>1814.2</ele>
        <time>2020-02-23T10:10:35Z</time>
      </trkpt>
      <trkpt lat="42.93016" lon="0.74967">
        <ele>1814.2</ele>
        <time>2020-02-23T10:10:36Z</time>
      </trkpt>
      <trkpt lat="42.93016" lon="0.74967">
        <ele>1814.2</ele>
        <time>2020-02-23T10:10:37Z</time>
      </trkpt>
      <trkpt lat="42.93016" lon="0.74967">
        <ele>1814.2</ele>
        <time>2020-02-23T10:10:38Z</time>
      </trkpt>
      <trkpt lat="42.93016" lon="0.74967">
        <ele>1814.2</ele>
        <time>2020-02-23T10:10:39Z</time>
      </trkpt>
      <trkpt lat="42.93016" lon="0.74967">
        <ele>1814.2</ele>
        <time>2020-02-23T10:10:40Z</time>
      </trkpt>
      <trkpt lat="42.93016" lon="0.74964">
        <ele>1814.7</ele>
        <time>2020-02-23T10:10:41Z</time>
      </trkpt>
      <trkpt lat="42.93016" lon="0.74964">
        <ele>1814.7</ele>
        <time>2020-02-23T10:10:42Z</time>
      </trkpt>
      <trkpt lat="42.93016" lon="0.74964">
        <ele>1814.7</ele>
        <time>2020-02-23T10:10:43Z</time>
      </trkpt>
      <trkpt lat="42.93016" lon="0.74964">
        <ele>1814.7</ele>
        <time>2020-02-23T10:10:44Z</time>
      </trkpt>
      <trkpt lat="42.93016" lon="0.74964">
        <ele>1814.7</ele>
        <time>2020-02-23T10:10:45Z</time>
      </trkpt>
      <trkpt lat="42.93015" lon="0.74961">
        <ele>1814.7</ele>
        <time>2020-02-23T10:10:46Z</time>
      </trkpt>
      <trkpt lat="42.93015" lon="0.74961">
        <ele>1814.7</ele>
        <time>2020-02-23T10:10:47Z</time>
      </trkpt>
      <trkpt lat="42.93015" lon="0.74961">
        <ele>1814.7</ele>
        <time>2020-02-23T10:10:48Z</time>
      </trkpt>
      <trkpt lat="42.93015" lon="0.74961">
        <ele>1814.7</ele>
        <time>2020-02-23T10:10:49Z</time>
      </trkpt>
      <trkpt lat="42.93015" lon="0.74961">
        <ele>1814.7</ele>
        <time>2020-02-23T10:10:50Z</time>
      </trkpt>
      <trkpt lat="42.93015" lon="0.74961">
        <ele>1814.7</ele>
        <time>2020-02-23T10:10:51Z</time>
      </trkpt>
      <trkpt lat="42.93015" lon="0.74959">
        <ele>1815.3</ele>
        <time>2020-02-23T10:10:52Z</time>
      </trkpt>
      <trkpt lat="42.93015" lon="0.74959">
        <ele>1815.3</ele>
        <time>2020-02-23T10:10:53Z</time>
      </trkpt>
      <trkpt lat="42.93015" lon="0.74959">
        <ele>1815.3</ele>
        <time>2020-02-23T10:10:54Z</time>
      </trkpt>
      <trkpt lat="42.93015" lon="0.74959">
        <ele>1815.3</ele>
        <time>2020-02-23T10:10:55Z</time>
      </trkpt>
      <trkpt lat="42.93015" lon="0.74959">
        <ele>1815.3</ele>
        <time>2020-02-23T10:10:56Z</time>
      </trkpt>
      <trkpt lat="42.93015" lon="0.74959">
        <ele>1815.3</ele>
        <time>2020-02-23T10:10:57Z</time>
      </trkpt>
      <trkpt lat="42.93015" lon="0.74959">
        <ele>1815.3</ele>
        <time>2020-02-23T10:10:58Z</time>
      </trkpt>
      <trkpt lat="42.93015" lon="0.74959">
        <ele>1815.3</ele>
        <time>2020-02-23T10:10:59Z</time>
      </trkpt>
      <trkpt lat="42.93015" lon="0.74956">
        <ele>1815.3</ele>
        <time>2020-02-23T10:11:00Z</time>
      </trkpt>
      <trkpt lat="42.93015" lon="0.74956">
        <ele>1815.3</ele>
        <time>2020-02-23T10:11:01Z</time>
      </trkpt>
      <trkpt lat="42.93015" lon="0.74956">
        <ele>1815.3</ele>
        <time>2020-02-23T10:11:02Z</time>
      </trkpt>
      <trkpt lat="42.93015" lon="0.74956">
        <ele>1815.3</ele>
        <time>2020-02-23T10:11:03Z</time>
      </trkpt>
      <trkpt lat="42.93015" lon="0.74956">
        <ele>1815.3</ele>
        <time>2020-02-23T10:11:04Z</time>
      </trkpt>
      <trkpt lat="42.93015" lon="0.74956">
        <ele>1815.3</ele>
        <time>2020-02-23T10:11:05Z</time>
      </trkpt>
      <trkpt lat="42.93015" lon="0.74956">
        <ele>1815.3</ele>
        <time>2020-02-23T10:11:06Z</time>
      </trkpt>
      <trkpt lat="42.93015" lon="0.74956">
        <ele>1815.3</ele>
        <time>2020-02-23T10:11:07Z</time>
      </trkpt>
      <trkpt lat="42.93016" lon="0.74953">
        <ele>1815.9</ele>
        <time>2020-02-23T10:11:08Z</time>
      </trkpt>
      <trkpt lat="42.93016" lon="0.74953">
        <ele>1815.9</ele>
        <time>2020-02-23T10:11:09Z</time>
      </trkpt>
      <trkpt lat="42.93016" lon="0.74953">
        <ele>1815.9</ele>
        <time>2020-02-23T10:11:10Z</time>
      </trkpt>
      <trkpt lat="42.93016" lon="0.74953">
        <ele>1815.9</ele>
        <time>2020-02-23T10:11:11Z</time>
      </trkpt>
      <trkpt lat="42.93016" lon="0.74953">
        <ele>1815.9</ele>
        <time>2020-02-23T10:11:12Z</time>
      </trkpt>
      <trkpt lat="42.93015" lon="0.74951">
        <ele>1816.4</ele>
        <time>2020-02-23T10:11:13Z</time>
      </trkpt>
      <trkpt lat="42.93015" lon="0.74951">
        <ele>1816.4</ele>
        <time>2020-02-23T10:11:14Z</time>
      </trkpt>
      <trkpt lat="42.93015" lon="0.74951">
        <ele>1816.4</ele>
        <time>2020-02-23T10:11:15Z</time>
      </trkpt>
      <trkpt lat="42.93015" lon="0.74951">
        <ele>1816.4</ele>
        <time>2020-02-23T10:11:16Z</time>
      </trkpt>
      <trkpt lat="42.93015" lon="0.74951">
        <ele>1816.4</ele>
        <time>2020-02-23T10:11:17Z</time>
      </trkpt>
      <trkpt lat="42.93015" lon="0.74951">
        <ele>1816.4</ele>
        <time>2020-02-23T10:11:18Z</time>
      </trkpt>
      <trkpt lat="42.93015" lon="0.74951">
        <ele>1816.4</ele>
        <time>2020-02-23T10:11:19Z</time>
      </trkpt>
      <trkpt lat="42.93015" lon="0.74948">
        <ele>1816.4</ele>
        <time>2020-02-23T10:11:20Z</time>
      </trkpt>
      <trkpt lat="42.93015" lon="0.74948">
        <ele>1816.4</ele>
        <time>2020-02-23T10:11:21Z</time>
      </trkpt>
      <trkpt lat="42.93015" lon="0.74948">
        <ele>1816.4</ele>
        <time>2020-02-23T10:11:22Z</time>
      </trkpt>
      <trkpt lat="42.93013" lon="0.74946">
        <ele>1816.8</ele>
        <time>2020-02-23T10:11:23Z</time>
      </trkpt>
      <trkpt lat="42.93013" lon="0.74946">
        <ele>1816.8</ele>
        <time>2020-02-23T10:11:24Z</time>
      </trkpt>
      <trkpt lat="42.93013" lon="0.74946">
        <ele>1816.8</ele>
        <time>2020-02-23T10:11:25Z</time>
      </trkpt>
      <trkpt lat="42.93013" lon="0.74946">
        <ele>1816.8</ele>
        <time>2020-02-23T10:11:26Z</time>
      </trkpt>
      <trkpt lat="42.93012" lon="0.74944">
        <ele>1816.4</ele>
        <time>2020-02-23T10:11:27Z</time>
      </trkpt>
      <trkpt lat="42.93012" lon="0.74944">
        <ele>1816.4</ele>
        <time>2020-02-23T10:11:28Z</time>
      </trkpt>
      <trkpt lat="42.93012" lon="0.74944">
        <ele>1816.4</ele>
        <time>2020-02-23T10:11:29Z</time>
      </trkpt>
      <trkpt lat="42.93012" lon="0.74941">
        <ele>1816.7</ele>
        <time>2020-02-23T10:11:30Z</time>
      </trkpt>
      <trkpt lat="42.93012" lon="0.74941">
        <ele>1816.7</ele>
        <time>2020-02-23T10:11:31Z</time>
      </trkpt>
      <trkpt lat="42.93012" lon="0.74941">
        <ele>1816.7</ele>
        <time>2020-02-23T10:11:32Z</time>
      </trkpt>
      <trkpt lat="42.93012" lon="0.74941">
        <ele>1816.7</ele>
        <time>2020-02-23T10:11:33Z</time>
      </trkpt>
      <trkpt lat="42.93012" lon="0.74941">
        <ele>1816.7</ele>
        <time>2020-02-23T10:11:34Z</time>
      </trkpt>
      <trkpt lat="42.93012" lon="0.74938">
        <ele>1817</ele>
        <time>2020-02-23T10:11:35Z</time>
      </trkpt>
      <trkpt lat="42.93012" lon="0.74938">
        <ele>1817</ele>
        <time>2020-02-23T10:11:36Z</time>
      </trkpt>
      <trkpt lat="42.93012" lon="0.74938">
        <ele>1817</ele>
        <time>2020-02-23T10:11:37Z</time>
      </trkpt>
      <trkpt lat="42.93012" lon="0.74938">
        <ele>1817</ele>
        <time>2020-02-23T10:11:38Z</time>
      </trkpt>
      <trkpt lat="42.93012" lon="0.74938">
        <ele>1817</ele>
        <time>2020-02-23T10:11:39Z</time>
      </trkpt>
      <trkpt lat="42.9301" lon="0.74938">
        <ele>1816.4</ele>
        <time>2020-02-23T10:11:40Z</time>
      </trkpt>
      <trkpt lat="42.9301" lon="0.74938">
        <ele>1816.4</ele>
        <time>2020-02-23T10:11:41Z</time>
      </trkpt>
      <trkpt lat="42.9301" lon="0.74938">
        <ele>1816.4</ele>
        <time>2020-02-23T10:11:42Z</time>
      </trkpt>
      <trkpt lat="42.93007" lon="0.74937">
        <ele>1816.4</ele>
        <time>2020-02-23T10:11:43Z</time>
      </trkpt>
      <trkpt lat="42.93007" lon="0.74937">
        <ele>1816.4</ele>
        <time>2020-02-23T10:11:44Z</time>
      </trkpt>
      <trkpt lat="42.93007" lon="0.74937">
        <ele>1816.4</ele>
        <time>2020-02-23T10:11:45Z</time>
      </trkpt>
      <trkpt lat="42.93006" lon="0.74936">
        <ele>1815.8</ele>
        <time>2020-02-23T10:11:46Z</time>
      </trkpt>
      <trkpt lat="42.93006" lon="0.74936">
        <ele>1815.8</ele>
        <time>2020-02-23T10:11:47Z</time>
      </trkpt>
      <trkpt lat="42.93006" lon="0.74936">
        <ele>1815.8</ele>
        <time>2020-02-23T10:11:48Z</time>
      </trkpt>
      <trkpt lat="42.93006" lon="0.74936">
        <ele>1815.8</ele>
        <time>2020-02-23T10:11:49Z</time>
      </trkpt>
      <trkpt lat="42.93004" lon="0.74934">
        <ele>1815.9</ele>
        <time>2020-02-23T10:11:50Z</time>
      </trkpt>
      <trkpt lat="42.93004" lon="0.74934">
        <ele>1815.9</ele>
        <time>2020-02-23T10:11:51Z</time>
      </trkpt>
      <trkpt lat="42.93004" lon="0.74934">
        <ele>1815.9</ele>
        <time>2020-02-23T10:11:52Z</time>
      </trkpt>
      <trkpt lat="42.93002" lon="0.74933">
        <ele>1815.2</ele>
        <time>2020-02-23T10:11:53Z</time>
      </trkpt>
      <trkpt lat="42.93002" lon="0.74933">
        <ele>1815.2</ele>
        <time>2020-02-23T10:11:54Z</time>
      </trkpt>
      <trkpt lat="42.93002" lon="0.74933">
        <ele>1815.2</ele>
        <time>2020-02-23T10:11:55Z</time>
      </trkpt>
      <trkpt lat="42.93" lon="0.74932">
        <ele>1814.6</ele>
        <time>2020-02-23T10:11:56Z</time>
      </trkpt>
      <trkpt lat="42.93" lon="0.74932">
        <ele>1814.6</ele>
        <time>2020-02-23T10:11:57Z</time>
      </trkpt>
      <trkpt lat="42.93" lon="0.74932">
        <ele>1814.6</ele>
        <time>2020-02-23T10:11:58Z</time>
      </trkpt>
      <trkpt lat="42.93" lon="0.74932">
        <ele>1814.6</ele>
        <time>2020-02-23T10:11:59Z</time>
      </trkpt>
      <trkpt lat="42.92998" lon="0.74931">
        <ele>1814.6</ele>
        <time>2020-02-23T10:12:00Z</time>
      </trkpt>
      <trkpt lat="42.92998" lon="0.74931">
        <ele>1814.6</ele>
        <time>2020-02-23T10:12:01Z</time>
      </trkpt>
      <trkpt lat="42.92998" lon="0.74931">
        <ele>1814.6</ele>
        <time>2020-02-23T10:12:02Z</time>
      </trkpt>
      <trkpt lat="42.92996" lon="0.74931">
        <ele>1814.6</ele>
        <time>2020-02-23T10:12:03Z</time>
      </trkpt>
      <trkpt lat="42.92996" lon="0.74931">
        <ele>1814.6</ele>
        <time>2020-02-23T10:12:04Z</time>
      </trkpt>
      <trkpt lat="42.92996" lon="0.74931">
        <ele>1814.6</ele>
        <time>2020-02-23T10:12:05Z</time>
      </trkpt>
      <trkpt lat="42.92994" lon="0.7493">
        <ele>1814.5</ele>
        <time>2020-02-23T10:12:06Z</time>
      </trkpt>
      <trkpt lat="42.92994" lon="0.7493">
        <ele>1814.5</ele>
        <time>2020-02-23T10:12:07Z</time>
      </trkpt>
      <trkpt lat="42.92994" lon="0.7493">
        <ele>1814.5</ele>
        <time>2020-02-23T10:12:08Z</time>
      </trkpt>
      <trkpt lat="42.92994" lon="0.7493">
        <ele>1814.5</ele>
        <time>2020-02-23T10:12:09Z</time>
      </trkpt>
      <trkpt lat="42.92994" lon="0.7493">
        <ele>1814.5</ele>
        <time>2020-02-23T10:12:10Z</time>
      </trkpt>
      <trkpt lat="42.92994" lon="0.7493">
        <ele>1814.5</ele>
        <time>2020-02-23T10:12:11Z</time>
      </trkpt>
      <trkpt lat="42.92994" lon="0.74928">
        <ele>1814.5</ele>
        <time>2020-02-23T10:12:12Z</time>
      </trkpt>
      <trkpt lat="42.92994" lon="0.74928">
        <ele>1814.5</ele>
        <time>2020-02-23T10:12:13Z</time>
      </trkpt>
      <trkpt lat="42.92994" lon="0.74928">
        <ele>1814.5</ele>
        <time>2020-02-23T10:12:14Z</time>
      </trkpt>
      <trkpt lat="42.92994" lon="0.74928">
        <ele>1814.5</ele>
        <time>2020-02-23T10:12:15Z</time>
      </trkpt>
      <trkpt lat="42.92994" lon="0.74928">
        <ele>1814.5</ele>
        <time>2020-02-23T10:12:16Z</time>
      </trkpt>
      <trkpt lat="42.92994" lon="0.74928">
        <ele>1814.5</ele>
        <time>2020-02-23T10:12:17Z</time>
      </trkpt>
      <trkpt lat="42.92994" lon="0.74928">
        <ele>1814.5</ele>
        <time>2020-02-23T10:12:18Z</time>
      </trkpt>
      <trkpt lat="42.92994" lon="0.74928">
        <ele>1814.5</ele>
        <time>2020-02-23T10:12:19Z</time>
      </trkpt>
      <trkpt lat="42.92994" lon="0.74925">
        <ele>1814.5</ele>
        <time>2020-02-23T10:12:20Z</time>
      </trkpt>
      <trkpt lat="42.92994" lon="0.74925">
        <ele>1814.5</ele>
        <time>2020-02-23T10:12:21Z</time>
      </trkpt>
      <trkpt lat="42.92993" lon="0.74927">
        <ele>1814.5</ele>
        <time>2020-02-23T10:12:22Z</time>
      </trkpt>
      <trkpt lat="42.92993" lon="0.74927">
        <ele>1814.5</ele>
        <time>2020-02-23T10:12:23Z</time>
      </trkpt>
      <trkpt lat="42.92993" lon="0.74927">
        <ele>1814.5</ele>
        <time>2020-02-23T10:12:24Z</time>
      </trkpt>
      <trkpt lat="42.92992" lon="0.7493">
        <ele>1814.5</ele>
        <time>2020-02-23T10:12:25Z</time>
      </trkpt>
      <trkpt lat="42.92992" lon="0.7493">
        <ele>1814.5</ele>
        <time>2020-02-23T10:12:26Z</time>
      </trkpt>
      <trkpt lat="42.92992" lon="0.7493">
        <ele>1814.5</ele>
        <time>2020-02-23T10:12:27Z</time>
      </trkpt>
      <trkpt lat="42.92992" lon="0.7493">
        <ele>1814.5</ele>
        <time>2020-02-23T10:12:28Z</time>
      </trkpt>
      <trkpt lat="42.92992" lon="0.7493">
        <ele>1814.5</ele>
        <time>2020-02-23T10:12:29Z</time>
      </trkpt>
      <trkpt lat="42.92992" lon="0.7493">
        <ele>1814.5</ele>
        <time>2020-02-23T10:12:30Z</time>
      </trkpt>
      <trkpt lat="42.92992" lon="0.7493">
        <ele>1814.5</ele>
        <time>2020-02-23T10:12:31Z</time>
      </trkpt>
      <trkpt lat="42.92992" lon="0.7493">
        <ele>1814.5</ele>
        <time>2020-02-23T10:12:32Z</time>
      </trkpt>
      <trkpt lat="42.92992" lon="0.7493">
        <ele>1814.5</ele>
        <time>2020-02-23T10:12:33Z</time>
      </trkpt>
      <trkpt lat="42.92992" lon="0.7493">
        <ele>1814.5</ele>
        <time>2020-02-23T10:12:34Z</time>
      </trkpt>
      <trkpt lat="42.92992" lon="0.7493">
        <ele>1814.5</ele>
        <time>2020-02-23T10:12:35Z</time>
      </trkpt>
      <trkpt lat="42.92994" lon="0.74929">
        <ele>1814.5</ele>
        <time>2020-02-23T10:12:36Z</time>
      </trkpt>
      <trkpt lat="42.92994" lon="0.74929">
        <ele>1814.5</ele>
        <time>2020-02-23T10:12:37Z</time>
      </trkpt>
      <trkpt lat="42.92994" lon="0.74929">
        <ele>1814.5</ele>
        <time>2020-02-23T10:12:38Z</time>
      </trkpt>
      <trkpt lat="42.92994" lon="0.74929">
        <ele>1814.5</ele>
        <time>2020-02-23T10:12:39Z</time>
      </trkpt>
      <trkpt lat="42.92994" lon="0.74929">
        <ele>1814.5</ele>
        <time>2020-02-23T10:12:40Z</time>
      </trkpt>
      <trkpt lat="42.92994" lon="0.74929">
        <ele>1814.5</ele>
        <time>2020-02-23T10:12:41Z</time>
      </trkpt>
      <trkpt lat="42.92994" lon="0.74929">
        <ele>1814.5</ele>
        <time>2020-02-23T10:12:42Z</time>
      </trkpt>
      <trkpt lat="42.92994" lon="0.74929">
        <ele>1814.5</ele>
        <time>2020-02-23T10:12:43Z</time>
      </trkpt>
      <trkpt lat="42.92994" lon="0.74929">
        <ele>1814.5</ele>
        <time>2020-02-23T10:12:44Z</time>
      </trkpt>
      <trkpt lat="42.92994" lon="0.74929">
        <ele>1814.5</ele>
        <time>2020-02-23T10:12:45Z</time>
      </trkpt>
      <trkpt lat="42.92994" lon="0.74929">
        <ele>1814.5</ele>
        <time>2020-02-23T10:12:46Z</time>
      </trkpt>
      <trkpt lat="42.92994" lon="0.74929">
        <ele>1814.5</ele>
        <time>2020-02-23T10:12:47Z</time>
      </trkpt>
      <trkpt lat="42.92994" lon="0.74929">
        <ele>1814.5</ele>
        <time>2020-02-23T10:16:55Z</time>
      </trkpt>
      <trkpt lat="42.92994" lon="0.74929">
        <ele>1814.5</ele>
        <time>2020-02-23T10:16:56Z</time>
      </trkpt>
      <trkpt lat="42.92994" lon="0.74929">
        <ele>1814.5</ele>
        <time>2020-02-23T10:16:57Z</time>
      </trkpt>
      <trkpt lat="42.92994" lon="0.74929">
        <ele>1814.5</ele>
        <time>2020-02-23T10:31:46Z</time>
      </trkpt>
      <trkpt lat="42.92994" lon="0.74929">
        <ele>1814.5</ele>
        <time>2020-02-23T10:31:47Z</time>
      </trkpt>
      <trkpt lat="42.92848" lon="0.75142">
        <ele>1798.4</ele>
        <time>2020-02-23T10:31:48Z</time>
      </trkpt>
      <trkpt lat="42.92848" lon="0.75142">
        <ele>1798.4</ele>
        <time>2020-02-23T10:31:49Z</time>
      </trkpt>
      <trkpt lat="42.92848" lon="0.75142">
        <ele>1798.4</ele>
        <time>2020-02-23T10:31:50Z</time>
      </trkpt>
      <trkpt lat="42.92845" lon="0.75142">
        <ele>1798.7</ele>
        <time>2020-02-23T10:31:51Z</time>
      </trkpt>
      <trkpt lat="42.92845" lon="0.75142">
        <ele>1798.7</ele>
        <time>2020-02-23T10:31:52Z</time>
      </trkpt>
      <trkpt lat="42.92845" lon="0.75142">
        <ele>1798.7</ele>
        <time>2020-02-23T10:31:53Z</time>
      </trkpt>
      <trkpt lat="42.92845" lon="0.75142">
        <ele>1798.7</ele>
        <time>2020-02-23T10:31:54Z</time>
      </trkpt>
      <trkpt lat="42.92845" lon="0.75142">
        <ele>1798.7</ele>
        <time>2020-02-23T10:31:55Z</time>
      </trkpt>
      <trkpt lat="42.92845" lon="0.75142">
        <ele>1798.7</ele>
        <time>2020-02-23T10:31:56Z</time>
      </trkpt>
      <trkpt lat="42.92845" lon="0.75142">
        <ele>1798.7</ele>
        <time>2020-02-23T10:31:57Z</time>
      </trkpt>
      <trkpt lat="42.92842" lon="0.75142">
        <ele>1799.1</ele>
        <time>2020-02-23T10:31:58Z</time>
      </trkpt>
      <trkpt lat="42.92842" lon="0.75142">
        <ele>1799.1</ele>
        <time>2020-02-23T10:31:59Z</time>
      </trkpt>
      <trkpt lat="42.92842" lon="0.75143">
        <ele>1799.2</ele>
        <time>2020-02-23T10:32:00Z</time>
      </trkpt>
      <trkpt lat="42.92841" lon="0.75143">
        <ele>1799.3</ele>
        <time>2020-02-23T10:32:01Z</time>
      </trkpt>
      <trkpt lat="42.92841" lon="0.75143">
        <ele>1799.3</ele>
        <time>2020-02-23T10:32:02Z</time>
      </trkpt>
      <trkpt lat="42.9284" lon="0.75144">
        <ele>1799.4</ele>
        <time>2020-02-23T10:32:03Z</time>
      </trkpt>
      <trkpt lat="42.9284" lon="0.75144">
        <ele>1799.5</ele>
        <time>2020-02-23T10:32:04Z</time>
      </trkpt>
      <trkpt lat="42.92839" lon="0.75144">
        <ele>1799.5</ele>
        <time>2020-02-23T10:32:05Z</time>
      </trkpt>
      <trkpt lat="42.92839" lon="0.75145">
        <ele>1799.6</ele>
        <time>2020-02-23T10:32:06Z</time>
      </trkpt>
      <trkpt lat="42.92838" lon="0.75145">
        <ele>1799.7</ele>
        <time>2020-02-23T10:32:07Z</time>
      </trkpt>
      <trkpt lat="42.92838" lon="0.75145">
        <ele>1799.7</ele>
        <time>2020-02-23T10:32:08Z</time>
      </trkpt>
      <trkpt lat="42.92838" lon="0.75146">
        <ele>1799.8</ele>
        <time>2020-02-23T10:32:09Z</time>
      </trkpt>
      <trkpt lat="42.92837" lon="0.75146">
        <ele>1799.9</ele>
        <time>2020-02-23T10:32:10Z</time>
      </trkpt>
      <trkpt lat="42.92837" lon="0.75146">
        <ele>1799.9</ele>
        <time>2020-02-23T10:32:11Z</time>
      </trkpt>
      <trkpt lat="42.92837" lon="0.75147">
        <ele>1800</ele>
        <time>2020-02-23T10:32:12Z</time>
      </trkpt>
      <trkpt lat="42.92836" lon="0.75147">
        <ele>1800.1</ele>
        <time>2020-02-23T10:32:13Z</time>
      </trkpt>
      <trkpt lat="42.92836" lon="0.75148">
        <ele>1800.1</ele>
        <time>2020-02-23T10:32:14Z</time>
      </trkpt>
      <trkpt lat="42.92836" lon="0.75148">
        <ele>1800.2</ele>
        <time>2020-02-23T10:32:15Z</time>
      </trkpt>
      <trkpt lat="42.92836" lon="0.75148">
        <ele>1800.2</ele>
        <time>2020-02-23T10:32:16Z</time>
      </trkpt>
      <trkpt lat="42.92835" lon="0.75149">
        <ele>1800.3</ele>
        <time>2020-02-23T10:32:17Z</time>
      </trkpt>
      <trkpt lat="42.92835" lon="0.75149">
        <ele>1800.4</ele>
        <time>2020-02-23T10:32:18Z</time>
      </trkpt>
      <trkpt lat="42.92835" lon="0.7515">
        <ele>1800.4</ele>
        <time>2020-02-23T10:32:19Z</time>
      </trkpt>
      <trkpt lat="42.92834" lon="0.7515">
        <ele>1800.5</ele>
        <time>2020-02-23T10:32:20Z</time>
      </trkpt>
      <trkpt lat="42.92834" lon="0.7515">
        <ele>1800.6</ele>
        <time>2020-02-23T10:32:21Z</time>
      </trkpt>
      <trkpt lat="42.92833" lon="0.75151">
        <ele>1800.6</ele>
        <time>2020-02-23T10:32:22Z</time>
      </trkpt>
      <trkpt lat="42.92833" lon="0.75151">
        <ele>1800.7</ele>
        <time>2020-02-23T10:32:23Z</time>
      </trkpt>
      <trkpt lat="42.92832" lon="0.75151">
        <ele>1800.7</ele>
        <time>2020-02-23T10:32:24Z</time>
      </trkpt>
      <trkpt lat="42.92832" lon="0.75151">
        <ele>1800.8</ele>
        <time>2020-02-23T10:32:25Z</time>
      </trkpt>
      <trkpt lat="42.92832" lon="0.75152">
        <ele>1800.9</ele>
        <time>2020-02-23T10:32:26Z</time>
      </trkpt>
      <trkpt lat="42.92831" lon="0.75152">
        <ele>1801</ele>
        <time>2020-02-23T10:32:27Z</time>
      </trkpt>
      <trkpt lat="42.92831" lon="0.75152">
        <ele>1801</ele>
        <time>2020-02-23T10:32:28Z</time>
      </trkpt>
      <trkpt lat="42.9283" lon="0.75153">
        <ele>1801.1</ele>
        <time>2020-02-23T10:32:29Z</time>
      </trkpt>
      <trkpt lat="42.9283" lon="0.75153">
        <ele>1801.2</ele>
        <time>2020-02-23T10:32:30Z</time>
      </trkpt>
      <trkpt lat="42.92829" lon="0.75153">
        <ele>1801.3</ele>
        <time>2020-02-23T10:32:31Z</time>
      </trkpt>
      <trkpt lat="42.92829" lon="0.75154">
        <ele>1801.4</ele>
        <time>2020-02-23T10:32:32Z</time>
      </trkpt>
      <trkpt lat="42.92829" lon="0.75154">
        <ele>1801.5</ele>
        <time>2020-02-23T10:32:33Z</time>
      </trkpt>
      <trkpt lat="42.92828" lon="0.75154">
        <ele>1801.6</ele>
        <time>2020-02-23T10:32:34Z</time>
      </trkpt>
      <trkpt lat="42.92828" lon="0.75154">
        <ele>1801.7</ele>
        <time>2020-02-23T10:32:35Z</time>
      </trkpt>
      <trkpt lat="42.92827" lon="0.75155">
        <ele>1801.8</ele>
        <time>2020-02-23T10:32:36Z</time>
      </trkpt>
      <trkpt lat="42.92827" lon="0.75155">
        <ele>1801.9</ele>
        <time>2020-02-23T10:32:37Z</time>
      </trkpt>
      <trkpt lat="42.92826" lon="0.75155">
        <ele>1802</ele>
        <time>2020-02-23T10:32:38Z</time>
      </trkpt>
      <trkpt lat="42.92826" lon="0.75156">
        <ele>1802.1</ele>
        <time>2020-02-23T10:32:39Z</time>
      </trkpt>
      <trkpt lat="42.92826" lon="0.75156">
        <ele>1802.1</ele>
        <time>2020-02-23T10:32:40Z</time>
      </trkpt>
      <trkpt lat="42.92826" lon="0.75156">
        <ele>1802.2</ele>
        <time>2020-02-23T10:32:41Z</time>
      </trkpt>
      <trkpt lat="42.92826" lon="0.75157">
        <ele>1802.2</ele>
        <time>2020-02-23T10:32:42Z</time>
      </trkpt>
      <trkpt lat="42.92827" lon="0.75157">
        <ele>1802.3</ele>
        <time>2020-02-23T10:32:43Z</time>
      </trkpt>
      <trkpt lat="42.92827" lon="0.75158">
        <ele>1802.4</ele>
        <time>2020-02-23T10:32:44Z</time>
      </trkpt>
      <trkpt lat="42.92827" lon="0.75158">
        <ele>1802.4</ele>
        <time>2020-02-23T10:32:45Z</time>
      </trkpt>
      <trkpt lat="42.92827" lon="0.75158">
        <ele>1802.5</ele>
        <time>2020-02-23T10:32:46Z</time>
      </trkpt>
      <trkpt lat="42.92827" lon="0.75159">
        <ele>1802.6</ele>
        <time>2020-02-23T10:32:47Z</time>
      </trkpt>
      <trkpt lat="42.92827" lon="0.75159">
        <ele>1802.6</ele>
        <time>2020-02-23T10:32:48Z</time>
      </trkpt>
      <trkpt lat="42.92827" lon="0.75159">
        <ele>1802.7</ele>
        <time>2020-02-23T10:32:49Z</time>
      </trkpt>
      <trkpt lat="42.92828" lon="0.7516">
        <ele>1802.8</ele>
        <time>2020-02-23T10:32:50Z</time>
      </trkpt>
      <trkpt lat="42.92828" lon="0.7516">
        <ele>1802.8</ele>
        <time>2020-02-23T10:32:51Z</time>
      </trkpt>
      <trkpt lat="42.92828" lon="0.75161">
        <ele>1802.9</ele>
        <time>2020-02-23T10:32:52Z</time>
      </trkpt>
      <trkpt lat="42.92828" lon="0.75161">
        <ele>1803</ele>
        <time>2020-02-23T10:32:53Z</time>
      </trkpt>
      <trkpt lat="42.92828" lon="0.75161">
        <ele>1803</ele>
        <time>2020-02-23T10:32:54Z</time>
      </trkpt>
      <trkpt lat="42.92828" lon="0.75162">
        <ele>1803.1</ele>
        <time>2020-02-23T10:32:55Z</time>
      </trkpt>
      <trkpt lat="42.92829" lon="0.75162">
        <ele>1803.2</ele>
        <time>2020-02-23T10:32:56Z</time>
      </trkpt>
      <trkpt lat="42.92829" lon="0.75163">
        <ele>1803.3</ele>
        <time>2020-02-23T10:32:57Z</time>
      </trkpt>
      <trkpt lat="42.92829" lon="0.75163">
        <ele>1803.3</ele>
        <time>2020-02-23T10:32:58Z</time>
      </trkpt>
      <trkpt lat="42.92829" lon="0.75163">
        <ele>1803.4</ele>
        <time>2020-02-23T10:32:59Z</time>
      </trkpt>
      <trkpt lat="42.92829" lon="0.75164">
        <ele>1803.5</ele>
        <time>2020-02-23T10:33:00Z</time>
      </trkpt>
      <trkpt lat="42.92829" lon="0.75164">
        <ele>1803.5</ele>
        <time>2020-02-23T10:33:01Z</time>
      </trkpt>
      <trkpt lat="42.92829" lon="0.75164">
        <ele>1803.6</ele>
        <time>2020-02-23T10:33:02Z</time>
      </trkpt>
      <trkpt lat="42.9283" lon="0.75165">
        <ele>1803.7</ele>
        <time>2020-02-23T10:33:03Z</time>
      </trkpt>
      <trkpt lat="42.9283" lon="0.75165">
        <ele>1803.7</ele>
        <time>2020-02-23T10:33:04Z</time>
      </trkpt>
      <trkpt lat="42.9283" lon="0.75166">
        <ele>1803.8</ele>
        <time>2020-02-23T10:33:05Z</time>
      </trkpt>
      <trkpt lat="42.9283" lon="0.75166">
        <ele>1803.9</ele>
        <time>2020-02-23T10:33:06Z</time>
      </trkpt>
      <trkpt lat="42.9283" lon="0.75166">
        <ele>1803.9</ele>
        <time>2020-02-23T10:33:07Z</time>
      </trkpt>
      <trkpt lat="42.9283" lon="0.75167">
        <ele>1804</ele>
        <time>2020-02-23T10:33:08Z</time>
      </trkpt>
      <trkpt lat="42.92831" lon="0.75167">
        <ele>1804.1</ele>
        <time>2020-02-23T10:33:09Z</time>
      </trkpt>
      <trkpt lat="42.92831" lon="0.75167">
        <ele>1804.1</ele>
        <time>2020-02-23T10:33:10Z</time>
      </trkpt>
      <trkpt lat="42.92831" lon="0.75168">
        <ele>1804.2</ele>
        <time>2020-02-23T10:33:11Z</time>
      </trkpt>
      <trkpt lat="42.9283" lon="0.75168">
        <ele>1804.3</ele>
        <time>2020-02-23T10:33:12Z</time>
      </trkpt>
      <trkpt lat="42.9283" lon="0.75169">
        <ele>1804.4</ele>
        <time>2020-02-23T10:33:13Z</time>
      </trkpt>
      <trkpt lat="42.9283" lon="0.75169">
        <ele>1804.5</ele>
        <time>2020-02-23T10:33:14Z</time>
      </trkpt>
      <trkpt lat="42.92829" lon="0.7517">
        <ele>1804.6</ele>
        <time>2020-02-23T10:33:15Z</time>
      </trkpt>
      <trkpt lat="42.92829" lon="0.7517">
        <ele>1804.7</ele>
        <time>2020-02-23T10:33:16Z</time>
      </trkpt>
      <trkpt lat="42.92829" lon="0.75171">
        <ele>1804.8</ele>
        <time>2020-02-23T10:33:17Z</time>
      </trkpt>
      <trkpt lat="42.92828" lon="0.75171">
        <ele>1804.9</ele>
        <time>2020-02-23T10:33:18Z</time>
      </trkpt>
      <trkpt lat="42.92828" lon="0.75172">
        <ele>1805</ele>
        <time>2020-02-23T10:33:19Z</time>
      </trkpt>
      <trkpt lat="42.92828" lon="0.75172">
        <ele>1805.1</ele>
        <time>2020-02-23T10:33:20Z</time>
      </trkpt>
      <trkpt lat="42.92827" lon="0.75173">
        <ele>1805.2</ele>
        <time>2020-02-23T10:33:21Z</time>
      </trkpt>
      <trkpt lat="42.92827" lon="0.75173">
        <ele>1805.2</ele>
        <time>2020-02-23T10:33:22Z</time>
      </trkpt>
      <trkpt lat="42.92827" lon="0.75174">
        <ele>1805.3</ele>
        <time>2020-02-23T10:33:23Z</time>
      </trkpt>
      <trkpt lat="42.92826" lon="0.75174">
        <ele>1805.4</ele>
        <time>2020-02-23T10:33:24Z</time>
      </trkpt>
      <trkpt lat="42.92826" lon="0.75175">
        <ele>1805.4</ele>
        <time>2020-02-23T10:33:25Z</time>
      </trkpt>
      <trkpt lat="42.92825" lon="0.75175">
        <ele>1805.5</ele>
        <time>2020-02-23T10:33:26Z</time>
      </trkpt>
      <trkpt lat="42.92825" lon="0.75176">
        <ele>1805.6</ele>
        <time>2020-02-23T10:33:27Z</time>
      </trkpt>
      <trkpt lat="42.92825" lon="0.75176">
        <ele>1805.6</ele>
        <time>2020-02-23T10:33:28Z</time>
      </trkpt>
      <trkpt lat="42.92824" lon="0.75177">
        <ele>1805.7</ele>
        <time>2020-02-23T10:33:29Z</time>
      </trkpt>
      <trkpt lat="42.92824" lon="0.75177">
        <ele>1805.8</ele>
        <time>2020-02-23T10:33:30Z</time>
      </trkpt>
      <trkpt lat="42.92823" lon="0.75178">
        <ele>1805.9</ele>
        <time>2020-02-23T10:33:31Z</time>
      </trkpt>
      <trkpt lat="42.92823" lon="0.75178">
        <ele>1806</ele>
        <time>2020-02-23T10:33:32Z</time>
      </trkpt>
      <trkpt lat="42.92822" lon="0.75179">
        <ele>1806.1</ele>
        <time>2020-02-23T10:33:33Z</time>
      </trkpt>
      <trkpt lat="42.92821" lon="0.75179">
        <ele>1806.2</ele>
        <time>2020-02-23T10:33:34Z</time>
      </trkpt>
      <trkpt lat="42.92821" lon="0.75179">
        <ele>1806.3</ele>
        <time>2020-02-23T10:33:35Z</time>
      </trkpt>
      <trkpt lat="42.9282" lon="0.7518">
        <ele>1806.4</ele>
        <time>2020-02-23T10:33:36Z</time>
      </trkpt>
      <trkpt lat="42.92819" lon="0.7518">
        <ele>1806.5</ele>
        <time>2020-02-23T10:33:37Z</time>
      </trkpt>
      <trkpt lat="42.92819" lon="0.75181">
        <ele>1806.6</ele>
        <time>2020-02-23T10:33:38Z</time>
      </trkpt>
      <trkpt lat="42.92818" lon="0.75181">
        <ele>1806.7</ele>
        <time>2020-02-23T10:33:39Z</time>
      </trkpt>
      <trkpt lat="42.92817" lon="0.75182">
        <ele>1806.8</ele>
        <time>2020-02-23T10:33:40Z</time>
      </trkpt>
      <trkpt lat="42.92817" lon="0.75182">
        <ele>1806.9</ele>
        <time>2020-02-23T10:33:41Z</time>
      </trkpt>
      <trkpt lat="42.92816" lon="0.75183">
        <ele>1807</ele>
        <time>2020-02-23T10:33:42Z</time>
      </trkpt>
      <trkpt lat="42.92816" lon="0.75183">
        <ele>1807.1</ele>
        <time>2020-02-23T10:33:43Z</time>
      </trkpt>
      <trkpt lat="42.92815" lon="0.75183">
        <ele>1807.2</ele>
        <time>2020-02-23T10:33:44Z</time>
      </trkpt>
      <trkpt lat="42.92814" lon="0.75184">
        <ele>1807.3</ele>
        <time>2020-02-23T10:33:45Z</time>
      </trkpt>
      <trkpt lat="42.92814" lon="0.75185">
        <ele>1807.3</ele>
        <time>2020-02-23T10:33:46Z</time>
      </trkpt>
      <trkpt lat="42.92814" lon="0.75185">
        <ele>1807.4</ele>
        <time>2020-02-23T10:33:47Z</time>
      </trkpt>
      <trkpt lat="42.92813" lon="0.75186">
        <ele>1807.5</ele>
        <time>2020-02-23T10:33:48Z</time>
      </trkpt>
      <trkpt lat="42.92813" lon="0.75187">
        <ele>1807.6</ele>
        <time>2020-02-23T10:33:49Z</time>
      </trkpt>
      <trkpt lat="42.92812" lon="0.75187">
        <ele>1807.7</ele>
        <time>2020-02-23T10:33:50Z</time>
      </trkpt>
      <trkpt lat="42.92812" lon="0.75188">
        <ele>1807.8</ele>
        <time>2020-02-23T10:33:51Z</time>
      </trkpt>
      <trkpt lat="42.92811" lon="0.75188">
        <ele>1807.9</ele>
        <time>2020-02-23T10:33:52Z</time>
      </trkpt>
      <trkpt lat="42.92811" lon="0.75189">
        <ele>1808</ele>
        <time>2020-02-23T10:33:53Z</time>
      </trkpt>
      <trkpt lat="42.9281" lon="0.7519">
        <ele>1808</ele>
        <time>2020-02-23T10:33:54Z</time>
      </trkpt>
      <trkpt lat="42.9281" lon="0.7519">
        <ele>1808.1</ele>
        <time>2020-02-23T10:33:55Z</time>
      </trkpt>
      <trkpt lat="42.92809" lon="0.75191">
        <ele>1808.2</ele>
        <time>2020-02-23T10:33:56Z</time>
      </trkpt>
      <trkpt lat="42.92809" lon="0.75191">
        <ele>1808.3</ele>
        <time>2020-02-23T10:33:57Z</time>
      </trkpt>
      <trkpt lat="42.92809" lon="0.75192">
        <ele>1808.4</ele>
        <time>2020-02-23T10:33:58Z</time>
      </trkpt>
      <trkpt lat="42.92808" lon="0.75193">
        <ele>1808.5</ele>
        <time>2020-02-23T10:33:59Z</time>
      </trkpt>
      <trkpt lat="42.92808" lon="0.75193">
        <ele>1808.6</ele>
        <time>2020-02-23T10:34:00Z</time>
      </trkpt>
      <trkpt lat="42.92807" lon="0.75194">
        <ele>1808.6</ele>
        <time>2020-02-23T10:34:01Z</time>
      </trkpt>
      <trkpt lat="42.92807" lon="0.75194">
        <ele>1808.7</ele>
        <time>2020-02-23T10:34:02Z</time>
      </trkpt>
      <trkpt lat="42.92806" lon="0.75194">
        <ele>1808.7</ele>
        <time>2020-02-23T10:34:03Z</time>
      </trkpt>
      <trkpt lat="42.92806" lon="0.75194">
        <ele>1808.8</ele>
        <time>2020-02-23T10:34:04Z</time>
      </trkpt>
      <trkpt lat="42.92806" lon="0.75194">
        <ele>1808.9</ele>
        <time>2020-02-23T10:34:05Z</time>
      </trkpt>
      <trkpt lat="42.92805" lon="0.75194">
        <ele>1808.9</ele>
        <time>2020-02-23T10:34:06Z</time>
      </trkpt>
      <trkpt lat="42.92805" lon="0.75195">
        <ele>1809</ele>
        <time>2020-02-23T10:34:07Z</time>
      </trkpt>
      <trkpt lat="42.92804" lon="0.75195">
        <ele>1809</ele>
        <time>2020-02-23T10:34:08Z</time>
      </trkpt>
      <trkpt lat="42.92804" lon="0.75195">
        <ele>1809.1</ele>
        <time>2020-02-23T10:34:09Z</time>
      </trkpt>
      <trkpt lat="42.92804" lon="0.75195">
        <ele>1809.1</ele>
        <time>2020-02-23T10:34:10Z</time>
      </trkpt>
      <trkpt lat="42.92803" lon="0.75195">
        <ele>1809.2</ele>
        <time>2020-02-23T10:34:11Z</time>
      </trkpt>
      <trkpt lat="42.92803" lon="0.75195">
        <ele>1809.3</ele>
        <time>2020-02-23T10:34:12Z</time>
      </trkpt>
      <trkpt lat="42.92802" lon="0.75196">
        <ele>1809.3</ele>
        <time>2020-02-23T10:34:13Z</time>
      </trkpt>
      <trkpt lat="42.92802" lon="0.75196">
        <ele>1809.4</ele>
        <time>2020-02-23T10:34:14Z</time>
      </trkpt>
      <trkpt lat="42.92802" lon="0.75196">
        <ele>1809.4</ele>
        <time>2020-02-23T10:34:15Z</time>
      </trkpt>
      <trkpt lat="42.92802" lon="0.75196">
        <ele>1809.4</ele>
        <time>2020-02-23T10:34:16Z</time>
      </trkpt>
      <trkpt lat="42.92802" lon="0.75196">
        <ele>1809.4</ele>
        <time>2020-02-23T10:34:17Z</time>
      </trkpt>
      <trkpt lat="42.92799" lon="0.75193">
        <ele>1809.9</ele>
        <time>2020-02-23T10:34:18Z</time>
      </trkpt>
      <trkpt lat="42.92799" lon="0.75193">
        <ele>1809.9</ele>
        <time>2020-02-23T10:34:19Z</time>
      </trkpt>
      <trkpt lat="42.92799" lon="0.75193">
        <ele>1809.9</ele>
        <time>2020-02-23T10:34:20Z</time>
      </trkpt>
      <trkpt lat="42.92799" lon="0.75193">
        <ele>1809.9</ele>
        <time>2020-02-23T10:34:21Z</time>
      </trkpt>
      <trkpt lat="42.92796" lon="0.75192">
        <ele>1810.2</ele>
        <time>2020-02-23T10:34:22Z</time>
      </trkpt>
      <trkpt lat="42.92796" lon="0.75192">
        <ele>1810.2</ele>
        <time>2020-02-23T10:34:23Z</time>
      </trkpt>
      <trkpt lat="42.92796" lon="0.75192">
        <ele>1810.2</ele>
        <time>2020-02-23T10:34:24Z</time>
      </trkpt>
      <trkpt lat="42.92796" lon="0.75192">
        <ele>1810.2</ele>
        <time>2020-02-23T10:34:25Z</time>
      </trkpt>
      <trkpt lat="42.92796" lon="0.75192">
        <ele>1810.2</ele>
        <time>2020-02-23T10:34:26Z</time>
      </trkpt>
      <trkpt lat="42.92795" lon="0.7519">
        <ele>1810.5</ele>
        <time>2020-02-23T10:34:27Z</time>
      </trkpt>
      <trkpt lat="42.92795" lon="0.7519">
        <ele>1810.5</ele>
        <time>2020-02-23T10:34:28Z</time>
      </trkpt>
      <trkpt lat="42.92795" lon="0.7519">
        <ele>1810.5</ele>
        <time>2020-02-23T10:34:29Z</time>
      </trkpt>
      <trkpt lat="42.92792" lon="0.7519">
        <ele>1810.9</ele>
        <time>2020-02-23T10:34:30Z</time>
      </trkpt>
      <trkpt lat="42.92792" lon="0.7519">
        <ele>1810.9</ele>
        <time>2020-02-23T10:34:31Z</time>
      </trkpt>
      <trkpt lat="42.92792" lon="0.7519">
        <ele>1810.9</ele>
        <time>2020-02-23T10:34:32Z</time>
      </trkpt>
      <trkpt lat="42.92792" lon="0.7519">
        <ele>1810.9</ele>
        <time>2020-02-23T10:34:33Z</time>
      </trkpt>
      <trkpt lat="42.92792" lon="0.7519">
        <ele>1810.9</ele>
        <time>2020-02-23T10:34:34Z</time>
      </trkpt>
      <trkpt lat="42.92792" lon="0.7519">
        <ele>1810.9</ele>
        <time>2020-02-23T10:34:35Z</time>
      </trkpt>
      <trkpt lat="42.92792" lon="0.7519">
        <ele>1810.9</ele>
        <time>2020-02-23T10:34:36Z</time>
      </trkpt>
      <trkpt lat="42.92792" lon="0.7519">
        <ele>1810.9</ele>
        <time>2020-02-23T10:34:37Z</time>
      </trkpt>
      <trkpt lat="42.92792" lon="0.7519">
        <ele>1810.9</ele>
        <time>2020-02-23T10:34:38Z</time>
      </trkpt>
      <trkpt lat="42.92792" lon="0.7519">
        <ele>1810.9</ele>
        <time>2020-02-23T10:34:39Z</time>
      </trkpt>
      <trkpt lat="42.92792" lon="0.7519">
        <ele>1810.9</ele>
        <time>2020-02-23T10:34:40Z</time>
      </trkpt>
      <trkpt lat="42.92792" lon="0.7519">
        <ele>1810.9</ele>
        <time>2020-02-23T10:34:41Z</time>
      </trkpt>
      <trkpt lat="42.92792" lon="0.7519">
        <ele>1810.9</ele>
        <time>2020-02-23T10:34:42Z</time>
      </trkpt>
      <trkpt lat="42.92792" lon="0.7519">
        <ele>1810.9</ele>
        <time>2020-02-23T10:34:43Z</time>
      </trkpt>
      <trkpt lat="42.9279" lon="0.7519">
        <ele>1811.1</ele>
        <time>2020-02-23T10:34:44Z</time>
      </trkpt>
      <trkpt lat="42.9279" lon="0.7519">
        <ele>1811.1</ele>
        <time>2020-02-23T10:34:45Z</time>
      </trkpt>
      <trkpt lat="42.9279" lon="0.7519">
        <ele>1811.1</ele>
        <time>2020-02-23T10:34:46Z</time>
      </trkpt>
      <trkpt lat="42.9279" lon="0.7519">
        <ele>1811.1</ele>
        <time>2020-02-23T10:34:47Z</time>
      </trkpt>
      <trkpt lat="42.9279" lon="0.7519">
        <ele>1811.1</ele>
        <time>2020-02-23T10:34:48Z</time>
      </trkpt>
      <trkpt lat="42.9279" lon="0.7519">
        <ele>1811.1</ele>
        <time>2020-02-23T10:34:49Z</time>
      </trkpt>
      <trkpt lat="42.92788" lon="0.75192">
        <ele>1811.4</ele>
        <time>2020-02-23T10:34:50Z</time>
      </trkpt>
      <trkpt lat="42.92788" lon="0.75192">
        <ele>1811.4</ele>
        <time>2020-02-23T10:34:51Z</time>
      </trkpt>
      <trkpt lat="42.92788" lon="0.75192">
        <ele>1811.4</ele>
        <time>2020-02-23T10:34:52Z</time>
      </trkpt>
      <trkpt lat="42.92788" lon="0.75192">
        <ele>1811.4</ele>
        <time>2020-02-23T10:34:53Z</time>
      </trkpt>
      <trkpt lat="42.92786" lon="0.75192">
        <ele>1811.7</ele>
        <time>2020-02-23T10:34:54Z</time>
      </trkpt>
      <trkpt lat="42.92786" lon="0.75192">
        <ele>1811.7</ele>
        <time>2020-02-23T10:34:55Z</time>
      </trkpt>
      <trkpt lat="42.92786" lon="0.75192">
        <ele>1811.7</ele>
        <time>2020-02-23T10:34:56Z</time>
      </trkpt>
      <trkpt lat="42.92786" lon="0.75192">
        <ele>1811.7</ele>
        <time>2020-02-23T10:34:57Z</time>
      </trkpt>
      <trkpt lat="42.92786" lon="0.75192">
        <ele>1811.7</ele>
        <time>2020-02-23T10:34:58Z</time>
      </trkpt>
      <trkpt lat="42.92786" lon="0.75192">
        <ele>1811.7</ele>
        <time>2020-02-23T10:34:59Z</time>
      </trkpt>
      <trkpt lat="42.92786" lon="0.75192">
        <ele>1811.7</ele>
        <time>2020-02-23T10:35:00Z</time>
      </trkpt>
      <trkpt lat="42.92786" lon="0.75192">
        <ele>1811.7</ele>
        <time>2020-02-23T10:35:01Z</time>
      </trkpt>
      <trkpt lat="42.92786" lon="0.75192">
        <ele>1811.7</ele>
        <time>2020-02-23T10:35:02Z</time>
      </trkpt>
      <trkpt lat="42.92786" lon="0.75192">
        <ele>1811.7</ele>
        <time>2020-02-23T10:35:03Z</time>
      </trkpt>
      <trkpt lat="42.92786" lon="0.75192">
        <ele>1811.7</ele>
        <time>2020-02-23T10:35:04Z</time>
      </trkpt>
      <trkpt lat="42.92786" lon="0.75192">
        <ele>1811.7</ele>
        <time>2020-02-23T10:35:05Z</time>
      </trkpt>
      <trkpt lat="42.92786" lon="0.75192">
        <ele>1811.7</ele>
        <time>2020-02-23T10:35:06Z</time>
      </trkpt>
      <trkpt lat="42.92786" lon="0.75192">
        <ele>1811.7</ele>
        <time>2020-02-23T10:35:07Z</time>
      </trkpt>
      <trkpt lat="42.92786" lon="0.75192">
        <ele>1811.7</ele>
        <time>2020-02-23T10:35:08Z</time>
      </trkpt>
      <trkpt lat="42.92786" lon="0.75192">
        <ele>1811.7</ele>
        <time>2020-02-23T10:35:09Z</time>
      </trkpt>
      <trkpt lat="42.92786" lon="0.75192">
        <ele>1811.7</ele>
        <time>2020-02-23T10:35:10Z</time>
      </trkpt>
      <trkpt lat="42.92786" lon="0.75192">
        <ele>1811.7</ele>
        <time>2020-02-23T10:35:11Z</time>
      </trkpt>
      <trkpt lat="42.92786" lon="0.75192">
        <ele>1811.7</ele>
        <time>2020-02-23T10:35:12Z</time>
      </trkpt>
      <trkpt lat="42.92786" lon="0.75192">
        <ele>1811.7</ele>
        <time>2020-02-23T10:35:13Z</time>
      </trkpt>
      <trkpt lat="42.92786" lon="0.75192">
        <ele>1811.7</ele>
        <time>2020-02-23T10:35:14Z</time>
      </trkpt>
      <trkpt lat="42.92786" lon="0.75192">
        <ele>1811.7</ele>
        <time>2020-02-23T10:35:15Z</time>
      </trkpt>
      <trkpt lat="42.92786" lon="0.75192">
        <ele>1811.7</ele>
        <time>2020-02-23T10:35:16Z</time>
      </trkpt>
      <trkpt lat="42.92786" lon="0.75192">
        <ele>1811.7</ele>
        <time>2020-02-23T10:35:17Z</time>
      </trkpt>
      <trkpt lat="42.92786" lon="0.75192">
        <ele>1811.7</ele>
        <time>2020-02-23T10:35:18Z</time>
      </trkpt>
      <trkpt lat="42.92786" lon="0.75192">
        <ele>1811.7</ele>
        <time>2020-02-23T10:35:19Z</time>
      </trkpt>
      <trkpt lat="42.92786" lon="0.75192">
        <ele>1811.7</ele>
        <time>2020-02-23T10:35:20Z</time>
      </trkpt>
      <trkpt lat="42.92786" lon="0.75192">
        <ele>1811.7</ele>
        <time>2020-02-23T10:35:21Z</time>
      </trkpt>
      <trkpt lat="42.92786" lon="0.75192">
        <ele>1811.7</ele>
        <time>2020-02-23T10:35:22Z</time>
      </trkpt>
      <trkpt lat="42.92786" lon="0.75192">
        <ele>1811.7</ele>
        <time>2020-02-23T10:35:23Z</time>
      </trkpt>
      <trkpt lat="42.92786" lon="0.75192">
        <ele>1811.7</ele>
        <time>2020-02-23T10:35:24Z</time>
      </trkpt>
      <trkpt lat="42.92786" lon="0.75192">
        <ele>1811.7</ele>
        <time>2020-02-23T10:35:25Z</time>
      </trkpt>
      <trkpt lat="42.92783" lon="0.75189">
        <ele>1812.2</ele>
        <time>2020-02-23T10:35:26Z</time>
      </trkpt>
      <trkpt lat="42.92783" lon="0.75189">
        <ele>1812.2</ele>
        <time>2020-02-23T10:35:27Z</time>
      </trkpt>
      <trkpt lat="42.92783" lon="0.75189">
        <ele>1812.2</ele>
        <time>2020-02-23T10:35:28Z</time>
      </trkpt>
      <trkpt lat="42.92783" lon="0.75189">
        <ele>1812.2</ele>
        <time>2020-02-23T10:35:29Z</time>
      </trkpt>
      <trkpt lat="42.92783" lon="0.75189">
        <ele>1812.2</ele>
        <time>2020-02-23T10:35:30Z</time>
      </trkpt>
      <trkpt lat="42.92783" lon="0.75189">
        <ele>1812.2</ele>
        <time>2020-02-23T10:35:31Z</time>
      </trkpt>
      <trkpt lat="42.92783" lon="0.75189">
        <ele>1812.2</ele>
        <time>2020-02-23T10:35:32Z</time>
      </trkpt>
      <trkpt lat="42.92784" lon="0.75187">
        <ele>1812.4</ele>
        <time>2020-02-23T10:35:33Z</time>
      </trkpt>
      <trkpt lat="42.92784" lon="0.75187">
        <ele>1812.4</ele>
        <time>2020-02-23T10:35:34Z</time>
      </trkpt>
      <trkpt lat="42.92784" lon="0.75187">
        <ele>1812.4</ele>
        <time>2020-02-23T10:35:35Z</time>
      </trkpt>
      <trkpt lat="42.92784" lon="0.75187">
        <ele>1812.4</ele>
        <time>2020-02-23T10:35:36Z</time>
      </trkpt>
      <trkpt lat="42.92784" lon="0.75187">
        <ele>1812.4</ele>
        <time>2020-02-23T10:35:37Z</time>
      </trkpt>
      <trkpt lat="42.92784" lon="0.75187">
        <ele>1812.4</ele>
        <time>2020-02-23T10:35:38Z</time>
      </trkpt>
      <trkpt lat="42.92784" lon="0.75187">
        <ele>1812.4</ele>
        <time>2020-02-23T10:35:39Z</time>
      </trkpt>
      <trkpt lat="42.92784" lon="0.75187">
        <ele>1812.4</ele>
        <time>2020-02-23T10:35:40Z</time>
      </trkpt>
      <trkpt lat="42.92784" lon="0.75187">
        <ele>1812.4</ele>
        <time>2020-02-23T10:35:41Z</time>
      </trkpt>
      <trkpt lat="42.92784" lon="0.75187">
        <ele>1812.4</ele>
        <time>2020-02-23T10:35:42Z</time>
      </trkpt>
      <trkpt lat="42.92784" lon="0.75187">
        <ele>1812.4</ele>
        <time>2020-02-23T10:35:43Z</time>
      </trkpt>
      <trkpt lat="42.92784" lon="0.75187">
        <ele>1812.4</ele>
        <time>2020-02-23T10:35:44Z</time>
      </trkpt>
      <trkpt lat="42.92784" lon="0.75187">
        <ele>1812.4</ele>
        <time>2020-02-23T10:35:45Z</time>
      </trkpt>
      <trkpt lat="42.92784" lon="0.75187">
        <ele>1812.4</ele>
        <time>2020-02-23T10:35:46Z</time>
      </trkpt>
      <trkpt lat="42.92784" lon="0.75187">
        <ele>1812.4</ele>
        <time>2020-02-23T10:35:47Z</time>
      </trkpt>
      <trkpt lat="42.92784" lon="0.75187">
        <ele>1812.4</ele>
        <time>2020-02-23T10:35:48Z</time>
      </trkpt>
      <trkpt lat="42.92784" lon="0.75187">
        <ele>1812.4</ele>
        <time>2020-02-23T10:35:49Z</time>
      </trkpt>
      <trkpt lat="42.92784" lon="0.75187">
        <ele>1812.4</ele>
        <time>2020-02-23T10:35:50Z</time>
      </trkpt>
      <trkpt lat="42.92784" lon="0.75187">
        <ele>1812.4</ele>
        <time>2020-02-23T10:35:51Z</time>
      </trkpt>
      <trkpt lat="42.92784" lon="0.75187">
        <ele>1812.4</ele>
        <time>2020-02-23T10:35:52Z</time>
      </trkpt>
      <trkpt lat="42.92784" lon="0.75187">
        <ele>1812.4</ele>
        <time>2020-02-23T10:35:53Z</time>
      </trkpt>
      <trkpt lat="42.92784" lon="0.75187">
        <ele>1812.4</ele>
        <time>2020-02-23T10:35:54Z</time>
      </trkpt>
      <trkpt lat="42.92784" lon="0.75187">
        <ele>1812.4</ele>
        <time>2020-02-23T10:35:55Z</time>
      </trkpt>
      <trkpt lat="42.92784" lon="0.75187">
        <ele>1812.4</ele>
        <time>2020-02-23T10:35:56Z</time>
      </trkpt>
      <trkpt lat="42.92784" lon="0.75187">
        <ele>1812.4</ele>
        <time>2020-02-23T10:35:57Z</time>
      </trkpt>
      <trkpt lat="42.92784" lon="0.75187">
        <ele>1812.4</ele>
        <time>2020-02-23T10:35:58Z</time>
      </trkpt>
      <trkpt lat="42.92786" lon="0.75187">
        <ele>1812.8</ele>
        <time>2020-02-23T10:35:59Z</time>
      </trkpt>
      <trkpt lat="42.92786" lon="0.75187">
        <ele>1812.8</ele>
        <time>2020-02-23T10:36:00Z</time>
      </trkpt>
      <trkpt lat="42.92786" lon="0.75187">
        <ele>1812.8</ele>
        <time>2020-02-23T10:36:01Z</time>
      </trkpt>
      <trkpt lat="42.92786" lon="0.75188">
        <ele>1812.8</ele>
        <time>2020-02-23T10:36:02Z</time>
      </trkpt>
      <trkpt lat="42.92786" lon="0.75188">
        <ele>1812.8</ele>
        <time>2020-02-23T10:36:03Z</time>
      </trkpt>
      <trkpt lat="42.92786" lon="0.75188">
        <ele>1812.8</ele>
        <time>2020-02-23T10:36:04Z</time>
      </trkpt>
      <trkpt lat="42.92786" lon="0.75188">
        <ele>1812.9</ele>
        <time>2020-02-23T10:36:05Z</time>
      </trkpt>
      <trkpt lat="42.92786" lon="0.75188">
        <ele>1812.9</ele>
        <time>2020-02-23T10:36:06Z</time>
      </trkpt>
      <trkpt lat="42.92786" lon="0.75189">
        <ele>1812.9</ele>
        <time>2020-02-23T10:36:07Z</time>
      </trkpt>
      <trkpt lat="42.92786" lon="0.75189">
        <ele>1812.9</ele>
        <time>2020-02-23T10:36:08Z</time>
      </trkpt>
      <trkpt lat="42.92786" lon="0.75189">
        <ele>1812.9</ele>
        <time>2020-02-23T10:36:09Z</time>
      </trkpt>
      <trkpt lat="42.92786" lon="0.75189">
        <ele>1813</ele>
        <time>2020-02-23T10:36:10Z</time>
      </trkpt>
      <trkpt lat="42.92786" lon="0.75189">
        <ele>1813</ele>
        <time>2020-02-23T10:36:11Z</time>
      </trkpt>
      <trkpt lat="42.92785" lon="0.7519">
        <ele>1813</ele>
        <time>2020-02-23T10:36:12Z</time>
      </trkpt>
      <trkpt lat="42.92785" lon="0.7519">
        <ele>1813</ele>
        <time>2020-02-23T10:36:13Z</time>
      </trkpt>
      <trkpt lat="42.92785" lon="0.7519">
        <ele>1813.1</ele>
        <time>2020-02-23T10:36:14Z</time>
      </trkpt>
      <trkpt lat="42.92785" lon="0.7519">
        <ele>1813.1</ele>
        <time>2020-02-23T10:36:15Z</time>
      </trkpt>
      <trkpt lat="42.92785" lon="0.7519">
        <ele>1813.1</ele>
        <time>2020-02-23T10:36:16Z</time>
      </trkpt>
      <trkpt lat="42.92785" lon="0.75191">
        <ele>1813.1</ele>
        <time>2020-02-23T10:36:17Z</time>
      </trkpt>
      <trkpt lat="42.92785" lon="0.75191">
        <ele>1813.2</ele>
        <time>2020-02-23T10:36:18Z</time>
      </trkpt>
      <trkpt lat="42.92785" lon="0.75191">
        <ele>1813.2</ele>
        <time>2020-02-23T10:36:19Z</time>
      </trkpt>
      <trkpt lat="42.92785" lon="0.75191">
        <ele>1813.2</ele>
        <time>2020-02-23T10:36:20Z</time>
      </trkpt>
      <trkpt lat="42.92785" lon="0.75191">
        <ele>1813.2</ele>
        <time>2020-02-23T10:36:21Z</time>
      </trkpt>
      <trkpt lat="42.92785" lon="0.75192">
        <ele>1813.2</ele>
        <time>2020-02-23T10:36:22Z</time>
      </trkpt>
      <trkpt lat="42.92785" lon="0.75192">
        <ele>1813.3</ele>
        <time>2020-02-23T10:36:23Z</time>
      </trkpt>
      <trkpt lat="42.92785" lon="0.75192">
        <ele>1813.3</ele>
        <time>2020-02-23T10:36:24Z</time>
      </trkpt>
      <trkpt lat="42.92784" lon="0.75192">
        <ele>1813.3</ele>
        <time>2020-02-23T10:36:25Z</time>
      </trkpt>
      <trkpt lat="42.92784" lon="0.75192">
        <ele>1813.3</ele>
        <time>2020-02-23T10:36:26Z</time>
      </trkpt>
      <trkpt lat="42.92784" lon="0.75193">
        <ele>1813.4</ele>
        <time>2020-02-23T10:36:27Z</time>
      </trkpt>
      <trkpt lat="42.92784" lon="0.75193">
        <ele>1813.4</ele>
        <time>2020-02-23T10:36:28Z</time>
      </trkpt>
      <trkpt lat="42.92784" lon="0.75193">
        <ele>1813.4</ele>
        <time>2020-02-23T10:36:29Z</time>
      </trkpt>
      <trkpt lat="42.92784" lon="0.75193">
        <ele>1813.4</ele>
        <time>2020-02-23T10:36:30Z</time>
      </trkpt>
      <trkpt lat="42.92784" lon="0.75194">
        <ele>1813.5</ele>
        <time>2020-02-23T10:36:31Z</time>
      </trkpt>
      <trkpt lat="42.92784" lon="0.75194">
        <ele>1813.5</ele>
        <time>2020-02-23T10:36:32Z</time>
      </trkpt>
      <trkpt lat="42.92784" lon="0.75194">
        <ele>1813.5</ele>
        <time>2020-02-23T10:36:33Z</time>
      </trkpt>
      <trkpt lat="42.92784" lon="0.75194">
        <ele>1813.5</ele>
        <time>2020-02-23T10:36:34Z</time>
      </trkpt>
      <trkpt lat="42.92784" lon="0.75194">
        <ele>1813.6</ele>
        <time>2020-02-23T10:36:35Z</time>
      </trkpt>
      <trkpt lat="42.92784" lon="0.75195">
        <ele>1813.6</ele>
        <time>2020-02-23T10:36:36Z</time>
      </trkpt>
      <trkpt lat="42.92784" lon="0.75195">
        <ele>1813.6</ele>
        <time>2020-02-23T10:36:37Z</time>
      </trkpt>
      <trkpt lat="42.92783" lon="0.75195">
        <ele>1813.6</ele>
        <time>2020-02-23T10:36:38Z</time>
      </trkpt>
      <trkpt lat="42.92783" lon="0.75195">
        <ele>1813.6</ele>
        <time>2020-02-23T10:36:39Z</time>
      </trkpt>
      <trkpt lat="42.92783" lon="0.75195">
        <ele>1813.7</ele>
        <time>2020-02-23T10:36:40Z</time>
      </trkpt>
      <trkpt lat="42.92783" lon="0.75196">
        <ele>1813.7</ele>
        <time>2020-02-23T10:36:41Z</time>
      </trkpt>
      <trkpt lat="42.92783" lon="0.75196">
        <ele>1813.7</ele>
        <time>2020-02-23T10:36:42Z</time>
      </trkpt>
      <trkpt lat="42.92783" lon="0.75196">
        <ele>1813.7</ele>
        <time>2020-02-23T10:36:43Z</time>
      </trkpt>
      <trkpt lat="42.92783" lon="0.75196">
        <ele>1813.8</ele>
        <time>2020-02-23T10:36:44Z</time>
      </trkpt>
      <trkpt lat="42.92783" lon="0.75196">
        <ele>1813.8</ele>
        <time>2020-02-23T10:36:45Z</time>
      </trkpt>
      <trkpt lat="42.92783" lon="0.75197">
        <ele>1813.8</ele>
        <time>2020-02-23T10:36:46Z</time>
      </trkpt>
      <trkpt lat="42.92783" lon="0.75197">
        <ele>1813.8</ele>
        <time>2020-02-23T10:36:47Z</time>
      </trkpt>
      <trkpt lat="42.92783" lon="0.75197">
        <ele>1813.9</ele>
        <time>2020-02-23T10:36:48Z</time>
      </trkpt>
      <trkpt lat="42.92783" lon="0.75197">
        <ele>1813.9</ele>
        <time>2020-02-23T10:36:49Z</time>
      </trkpt>
      <trkpt lat="42.92783" lon="0.75197">
        <ele>1813.9</ele>
        <time>2020-02-23T10:36:50Z</time>
      </trkpt>
      <trkpt lat="42.92782" lon="0.75198">
        <ele>1813.9</ele>
        <time>2020-02-23T10:36:51Z</time>
      </trkpt>
      <trkpt lat="42.92782" lon="0.75198">
        <ele>1813.9</ele>
        <time>2020-02-23T10:36:52Z</time>
      </trkpt>
      <trkpt lat="42.92782" lon="0.75198">
        <ele>1814</ele>
        <time>2020-02-23T10:36:53Z</time>
      </trkpt>
      <trkpt lat="42.92782" lon="0.75198">
        <ele>1814</ele>
        <time>2020-02-23T10:36:54Z</time>
      </trkpt>
      <trkpt lat="42.92782" lon="0.75198">
        <ele>1814</ele>
        <time>2020-02-23T10:36:55Z</time>
      </trkpt>
      <trkpt lat="42.92782" lon="0.75198">
        <ele>1814.1</ele>
        <time>2020-02-23T10:36:56Z</time>
      </trkpt>
      <trkpt lat="42.92783" lon="0.75198">
        <ele>1814.1</ele>
        <time>2020-02-23T10:36:57Z</time>
      </trkpt>
      <trkpt lat="42.92783" lon="0.75197">
        <ele>1814.2</ele>
        <time>2020-02-23T10:36:58Z</time>
      </trkpt>
      <trkpt lat="42.92783" lon="0.75197">
        <ele>1814.2</ele>
        <time>2020-02-23T10:36:59Z</time>
      </trkpt>
      <trkpt lat="42.92783" lon="0.75197">
        <ele>1814.2</ele>
        <time>2020-02-23T10:37:00Z</time>
      </trkpt>
      <trkpt lat="42.92784" lon="0.75196">
        <ele>1814.3</ele>
        <time>2020-02-23T10:37:01Z</time>
      </trkpt>
      <trkpt lat="42.92784" lon="0.75196">
        <ele>1814.3</ele>
        <time>2020-02-23T10:37:02Z</time>
      </trkpt>
      <trkpt lat="42.92784" lon="0.75196">
        <ele>1814.4</ele>
        <time>2020-02-23T10:37:03Z</time>
      </trkpt>
      <trkpt lat="42.92784" lon="0.75195">
        <ele>1814.4</ele>
        <time>2020-02-23T10:37:04Z</time>
      </trkpt>
      <trkpt lat="42.92784" lon="0.75195">
        <ele>1814.5</ele>
        <time>2020-02-23T10:37:05Z</time>
      </trkpt>
      <trkpt lat="42.92785" lon="0.75195">
        <ele>1814.5</ele>
        <time>2020-02-23T10:37:06Z</time>
      </trkpt>
      <trkpt lat="42.92785" lon="0.75195">
        <ele>1814.6</ele>
        <time>2020-02-23T10:37:07Z</time>
      </trkpt>
      <trkpt lat="42.92785" lon="0.75194">
        <ele>1814.6</ele>
        <time>2020-02-23T10:37:08Z</time>
      </trkpt>
      <trkpt lat="42.92785" lon="0.75194">
        <ele>1814.6</ele>
        <time>2020-02-23T10:37:09Z</time>
      </trkpt>
      <trkpt lat="42.92786" lon="0.75194">
        <ele>1814.7</ele>
        <time>2020-02-23T10:37:10Z</time>
      </trkpt>
      <trkpt lat="42.92786" lon="0.75193">
        <ele>1814.7</ele>
        <time>2020-02-23T10:37:11Z</time>
      </trkpt>
      <trkpt lat="42.92786" lon="0.75193">
        <ele>1814.8</ele>
        <time>2020-02-23T10:37:12Z</time>
      </trkpt>
      <trkpt lat="42.92786" lon="0.75193">
        <ele>1814.8</ele>
        <time>2020-02-23T10:37:13Z</time>
      </trkpt>
      <trkpt lat="42.92787" lon="0.75192">
        <ele>1814.9</ele>
        <time>2020-02-23T10:37:14Z</time>
      </trkpt>
      <trkpt lat="42.92787" lon="0.75192">
        <ele>1814.9</ele>
        <time>2020-02-23T10:37:15Z</time>
      </trkpt>
      <trkpt lat="42.92787" lon="0.75192">
        <ele>1815</ele>
        <time>2020-02-23T10:37:16Z</time>
      </trkpt>
      <trkpt lat="42.92787" lon="0.75191">
        <ele>1815</ele>
        <time>2020-02-23T10:37:17Z</time>
      </trkpt>
      <trkpt lat="42.92787" lon="0.75191">
        <ele>1815</ele>
        <time>2020-02-23T10:37:18Z</time>
      </trkpt>
      <trkpt lat="42.92788" lon="0.75191">
        <ele>1815.1</ele>
        <time>2020-02-23T10:37:19Z</time>
      </trkpt>
      <trkpt lat="42.92788" lon="0.7519">
        <ele>1815.1</ele>
        <time>2020-02-23T10:37:20Z</time>
      </trkpt>
      <trkpt lat="42.92788" lon="0.7519">
        <ele>1815.2</ele>
        <time>2020-02-23T10:37:21Z</time>
      </trkpt>
      <trkpt lat="42.92788" lon="0.7519">
        <ele>1815.2</ele>
        <time>2020-02-23T10:37:22Z</time>
      </trkpt>
      <trkpt lat="42.92789" lon="0.75189">
        <ele>1815.3</ele>
        <time>2020-02-23T10:37:23Z</time>
      </trkpt>
      <trkpt lat="42.92789" lon="0.75189">
        <ele>1815.3</ele>
        <time>2020-02-23T10:37:24Z</time>
      </trkpt>
      <trkpt lat="42.92789" lon="0.75189">
        <ele>1815.3</ele>
        <time>2020-02-23T10:37:25Z</time>
      </trkpt>
      <trkpt lat="42.92789" lon="0.75189">
        <ele>1815.3</ele>
        <time>2020-02-23T10:37:26Z</time>
      </trkpt>
      <trkpt lat="42.92789" lon="0.75189">
        <ele>1815.3</ele>
        <time>2020-02-23T10:37:27Z</time>
      </trkpt>
      <trkpt lat="42.92789" lon="0.75189">
        <ele>1815.3</ele>
        <time>2020-02-23T10:37:28Z</time>
      </trkpt>
      <trkpt lat="42.92789" lon="0.75189">
        <ele>1815.3</ele>
        <time>2020-02-23T10:37:29Z</time>
      </trkpt>
      <trkpt lat="42.92789" lon="0.75189">
        <ele>1815.3</ele>
        <time>2020-02-23T10:37:30Z</time>
      </trkpt>
      <trkpt lat="42.92789" lon="0.75189">
        <ele>1815.3</ele>
        <time>2020-02-23T10:37:31Z</time>
      </trkpt>
      <trkpt lat="42.92789" lon="0.75189">
        <ele>1815.3</ele>
        <time>2020-02-23T10:37:32Z</time>
      </trkpt>
      <trkpt lat="42.92789" lon="0.75189">
        <ele>1815.3</ele>
        <time>2020-02-23T10:37:33Z</time>
      </trkpt>
      <trkpt lat="42.92789" lon="0.75189">
        <ele>1815.3</ele>
        <time>2020-02-23T10:37:34Z</time>
      </trkpt>
      <trkpt lat="42.92789" lon="0.75189">
        <ele>1815.3</ele>
        <time>2020-02-23T10:37:35Z</time>
      </trkpt>
      <trkpt lat="42.92789" lon="0.75189">
        <ele>1815.3</ele>
        <time>2020-02-23T10:37:36Z</time>
      </trkpt>
      <trkpt lat="42.92789" lon="0.75189">
        <ele>1815.3</ele>
        <time>2020-02-23T10:37:37Z</time>
      </trkpt>
      <trkpt lat="42.92789" lon="0.75189">
        <ele>1815.3</ele>
        <time>2020-02-23T10:37:38Z</time>
      </trkpt>
      <trkpt lat="42.92789" lon="0.75189">
        <ele>1815.3</ele>
        <time>2020-02-23T10:37:39Z</time>
      </trkpt>
      <trkpt lat="42.92789" lon="0.75189">
        <ele>1815.3</ele>
        <time>2020-02-23T10:37:40Z</time>
      </trkpt>
      <trkpt lat="42.92789" lon="0.75189">
        <ele>1815.3</ele>
        <time>2020-02-23T10:37:41Z</time>
      </trkpt>
      <trkpt lat="42.92789" lon="0.75189">
        <ele>1815.3</ele>
        <time>2020-02-23T10:37:42Z</time>
      </trkpt>
      <trkpt lat="42.92789" lon="0.75189">
        <ele>1815.3</ele>
        <time>2020-02-23T10:37:43Z</time>
      </trkpt>
      <trkpt lat="42.92789" lon="0.75189">
        <ele>1815.3</ele>
        <time>2020-02-23T10:37:44Z</time>
      </trkpt>
      <trkpt lat="42.92789" lon="0.75189">
        <ele>1815.3</ele>
        <time>2020-02-23T10:37:45Z</time>
      </trkpt>
      <trkpt lat="42.92789" lon="0.75189">
        <ele>1815.3</ele>
        <time>2020-02-23T10:37:46Z</time>
      </trkpt>
      <trkpt lat="42.92789" lon="0.75189">
        <ele>1815.3</ele>
        <time>2020-02-23T10:37:47Z</time>
      </trkpt>
      <trkpt lat="42.92789" lon="0.75189">
        <ele>1815.3</ele>
        <time>2020-02-23T10:37:48Z</time>
      </trkpt>
      <trkpt lat="42.92789" lon="0.75189">
        <ele>1815.3</ele>
        <time>2020-02-23T10:37:49Z</time>
      </trkpt>
      <trkpt lat="42.92789" lon="0.75189">
        <ele>1815.3</ele>
        <time>2020-02-23T10:37:50Z</time>
      </trkpt>
      <trkpt lat="42.92789" lon="0.75189">
        <ele>1815.3</ele>
        <time>2020-02-23T10:37:51Z</time>
      </trkpt>
      <trkpt lat="42.92789" lon="0.75189">
        <ele>1815.3</ele>
        <time>2020-02-23T10:37:52Z</time>
      </trkpt>
      <trkpt lat="42.92789" lon="0.75189">
        <ele>1815.3</ele>
        <time>2020-02-23T10:37:53Z</time>
      </trkpt>
      <trkpt lat="42.92789" lon="0.75189">
        <ele>1815.3</ele>
        <time>2020-02-23T10:37:54Z</time>
      </trkpt>
      <trkpt lat="42.92789" lon="0.75189">
        <ele>1815.3</ele>
        <time>2020-02-23T10:37:55Z</time>
      </trkpt>
      <trkpt lat="42.92789" lon="0.75189">
        <ele>1815.3</ele>
        <time>2020-02-23T10:43:46Z</time>
      </trkpt>
      <trkpt lat="42.92789" lon="0.75189">
        <ele>1815.3</ele>
        <time>2020-02-23T10:43:47Z</time>
      </trkpt>
      <trkpt lat="42.9289" lon="0.75078">
        <ele>1799.3</ele>
        <time>2020-02-23T10:43:48Z</time>
      </trkpt>
      <trkpt lat="42.9289" lon="0.75078">
        <ele>1799.3</ele>
        <time>2020-02-23T10:43:49Z</time>
      </trkpt>
      <trkpt lat="42.92891" lon="0.75076">
        <ele>1799.7</ele>
        <time>2020-02-23T10:43:50Z</time>
      </trkpt>
      <trkpt lat="42.92892" lon="0.75073">
        <ele>1800.1</ele>
        <time>2020-02-23T10:43:51Z</time>
      </trkpt>
      <trkpt lat="42.92892" lon="0.75073">
        <ele>1800.1</ele>
        <time>2020-02-23T10:43:52Z</time>
      </trkpt>
      <trkpt lat="42.92892" lon="0.75073">
        <ele>1800.1</ele>
        <time>2020-02-23T10:43:53Z</time>
      </trkpt>
      <trkpt lat="42.92892" lon="0.75071">
        <ele>1800.5</ele>
        <time>2020-02-23T10:43:54Z</time>
      </trkpt>
      <trkpt lat="42.92892" lon="0.75071">
        <ele>1800.5</ele>
        <time>2020-02-23T10:43:55Z</time>
      </trkpt>
      <trkpt lat="42.92894" lon="0.75069">
        <ele>1801</ele>
        <time>2020-02-23T10:43:56Z</time>
      </trkpt>
      <trkpt lat="42.92894" lon="0.75069">
        <ele>1801</ele>
        <time>2020-02-23T10:43:57Z</time>
      </trkpt>
      <trkpt lat="42.92894" lon="0.75069">
        <ele>1801</ele>
        <time>2020-02-23T10:43:58Z</time>
      </trkpt>
      <trkpt lat="42.92895" lon="0.75066">
        <ele>1801.6</ele>
        <time>2020-02-23T10:43:59Z</time>
      </trkpt>
      <trkpt lat="42.92896" lon="0.75064">
        <ele>1802.1</ele>
        <time>2020-02-23T10:44:00Z</time>
      </trkpt>
      <trkpt lat="42.92896" lon="0.75064">
        <ele>1802.1</ele>
        <time>2020-02-23T10:44:01Z</time>
      </trkpt>
      <trkpt lat="42.92898" lon="0.75062">
        <ele>1802.5</ele>
        <time>2020-02-23T10:44:02Z</time>
      </trkpt>
      <trkpt lat="42.92898" lon="0.75062">
        <ele>1802.5</ele>
        <time>2020-02-23T10:44:03Z</time>
      </trkpt>
      <trkpt lat="42.929" lon="0.75061">
        <ele>1803</ele>
        <time>2020-02-23T10:44:04Z</time>
      </trkpt>
      <trkpt lat="42.929" lon="0.75061">
        <ele>1803</ele>
        <time>2020-02-23T10:44:05Z</time>
      </trkpt>
      <trkpt lat="42.92901" lon="0.7506">
        <ele>1803.5</ele>
        <time>2020-02-23T10:44:06Z</time>
      </trkpt>
      <trkpt lat="42.92901" lon="0.7506">
        <ele>1803.5</ele>
        <time>2020-02-23T10:44:07Z</time>
      </trkpt>
      <trkpt lat="42.92903" lon="0.75058">
        <ele>1804.2</ele>
        <time>2020-02-23T10:44:08Z</time>
      </trkpt>
      <trkpt lat="42.92903" lon="0.75058">
        <ele>1804.2</ele>
        <time>2020-02-23T10:44:09Z</time>
      </trkpt>
      <trkpt lat="42.92905" lon="0.75056">
        <ele>1804.9</ele>
        <time>2020-02-23T10:44:10Z</time>
      </trkpt>
      <trkpt lat="42.92907" lon="0.75055">
        <ele>1805.6</ele>
        <time>2020-02-23T10:44:11Z</time>
      </trkpt>
      <trkpt lat="42.92907" lon="0.75055">
        <ele>1805.6</ele>
        <time>2020-02-23T10:44:12Z</time>
      </trkpt>
      <trkpt lat="42.92907" lon="0.75055">
        <ele>1805.6</ele>
        <time>2020-02-23T10:44:13Z</time>
      </trkpt>
      <trkpt lat="42.92909" lon="0.75053">
        <ele>1806.4</ele>
        <time>2020-02-23T10:44:14Z</time>
      </trkpt>
      <trkpt lat="42.92909" lon="0.75053">
        <ele>1806.4</ele>
        <time>2020-02-23T10:44:15Z</time>
      </trkpt>
      <trkpt lat="42.92911" lon="0.75052">
        <ele>1807.1</ele>
        <time>2020-02-23T10:44:16Z</time>
      </trkpt>
      <trkpt lat="42.92913" lon="0.75051">
        <ele>1808</ele>
        <time>2020-02-23T10:44:17Z</time>
      </trkpt>
      <trkpt lat="42.92913" lon="0.75051">
        <ele>1808</ele>
        <time>2020-02-23T10:44:18Z</time>
      </trkpt>
      <trkpt lat="42.92916" lon="0.75051">
        <ele>1808.9</ele>
        <time>2020-02-23T10:44:19Z</time>
      </trkpt>
      <trkpt lat="42.92916" lon="0.75051">
        <ele>1808.9</ele>
        <time>2020-02-23T10:44:20Z</time>
      </trkpt>
      <trkpt lat="42.92916" lon="0.75051">
        <ele>1808.9</ele>
        <time>2020-02-23T10:44:21Z</time>
      </trkpt>
      <trkpt lat="42.92918" lon="0.7505">
        <ele>1809.7</ele>
        <time>2020-02-23T10:44:22Z</time>
      </trkpt>
      <trkpt lat="42.9292" lon="0.75049">
        <ele>1810.4</ele>
        <time>2020-02-23T10:44:23Z</time>
      </trkpt>
      <trkpt lat="42.9292" lon="0.75049">
        <ele>1810.4</ele>
        <time>2020-02-23T10:44:24Z</time>
      </trkpt>
      <trkpt lat="42.9292" lon="0.75049">
        <ele>1810.4</ele>
        <time>2020-02-23T10:44:25Z</time>
      </trkpt>
      <trkpt lat="42.9292" lon="0.75049">
        <ele>1810.4</ele>
        <time>2020-02-23T10:44:26Z</time>
      </trkpt>
      <trkpt lat="42.92922" lon="0.75048">
        <ele>1811.2</ele>
        <time>2020-02-23T10:44:27Z</time>
      </trkpt>
      <trkpt lat="42.92923" lon="0.75046">
        <ele>1811.6</ele>
        <time>2020-02-23T10:44:28Z</time>
      </trkpt>
      <trkpt lat="42.92923" lon="0.75046">
        <ele>1811.6</ele>
        <time>2020-02-23T10:44:29Z</time>
      </trkpt>
      <trkpt lat="42.92923" lon="0.75046">
        <ele>1811.6</ele>
        <time>2020-02-23T10:44:30Z</time>
      </trkpt>
      <trkpt lat="42.92925" lon="0.75043">
        <ele>1812.2</ele>
        <time>2020-02-23T10:44:31Z</time>
      </trkpt>
      <trkpt lat="42.92925" lon="0.75043">
        <ele>1812.2</ele>
        <time>2020-02-23T10:44:32Z</time>
      </trkpt>
      <trkpt lat="42.92925" lon="0.75043">
        <ele>1812.2</ele>
        <time>2020-02-23T10:44:33Z</time>
      </trkpt>
      <trkpt lat="42.92926" lon="0.7504">
        <ele>1812.8</ele>
        <time>2020-02-23T10:44:34Z</time>
      </trkpt>
      <trkpt lat="42.92926" lon="0.7504">
        <ele>1812.8</ele>
        <time>2020-02-23T10:44:35Z</time>
      </trkpt>
      <trkpt lat="42.92926" lon="0.7504">
        <ele>1812.8</ele>
        <time>2020-02-23T10:44:36Z</time>
      </trkpt>
      <trkpt lat="42.92926" lon="0.7504">
        <ele>1812.8</ele>
        <time>2020-02-23T10:44:37Z</time>
      </trkpt>
      <trkpt lat="42.92926" lon="0.75036">
        <ele>1813.4</ele>
        <time>2020-02-23T10:44:38Z</time>
      </trkpt>
      <trkpt lat="42.92926" lon="0.75036">
        <ele>1813.4</ele>
        <time>2020-02-23T10:44:39Z</time>
      </trkpt>
      <trkpt lat="42.92926" lon="0.75034">
        <ele>1813.9</ele>
        <time>2020-02-23T10:44:40Z</time>
      </trkpt>
      <trkpt lat="42.92926" lon="0.75034">
        <ele>1813.9</ele>
        <time>2020-02-23T10:44:41Z</time>
      </trkpt>
      <trkpt lat="42.92927" lon="0.7503">
        <ele>1814.5</ele>
        <time>2020-02-23T10:44:42Z</time>
      </trkpt>
      <trkpt lat="42.92927" lon="0.7503">
        <ele>1814.5</ele>
        <time>2020-02-23T10:44:43Z</time>
      </trkpt>
      <trkpt lat="42.92927" lon="0.7503">
        <ele>1814.5</ele>
        <time>2020-02-23T10:44:44Z</time>
      </trkpt>
      <trkpt lat="42.92927" lon="0.75027">
        <ele>1815.2</ele>
        <time>2020-02-23T10:44:45Z</time>
      </trkpt>
      <trkpt lat="42.92927" lon="0.75027">
        <ele>1815.2</ele>
        <time>2020-02-23T10:44:46Z</time>
      </trkpt>
      <trkpt lat="42.92927" lon="0.75027">
        <ele>1815.2</ele>
        <time>2020-02-23T10:44:47Z</time>
      </trkpt>
      <trkpt lat="42.92926" lon="0.75024">
        <ele>1815.9</ele>
        <time>2020-02-23T10:44:48Z</time>
      </trkpt>
      <trkpt lat="42.92927" lon="0.75021">
        <ele>1816.5</ele>
        <time>2020-02-23T10:44:49Z</time>
      </trkpt>
      <trkpt lat="42.92927" lon="0.75021">
        <ele>1816.5</ele>
        <time>2020-02-23T10:44:50Z</time>
      </trkpt>
      <trkpt lat="42.92927" lon="0.75021">
        <ele>1816.5</ele>
        <time>2020-02-23T10:44:51Z</time>
      </trkpt>
      <trkpt lat="42.92929" lon="0.75018">
        <ele>1817.3</ele>
        <time>2020-02-23T10:44:52Z</time>
      </trkpt>
      <trkpt lat="42.92929" lon="0.75018">
        <ele>1817.3</ele>
        <time>2020-02-23T10:44:53Z</time>
      </trkpt>
      <trkpt lat="42.92929" lon="0.75018">
        <ele>1817.3</ele>
        <time>2020-02-23T10:44:54Z</time>
      </trkpt>
      <trkpt lat="42.92929" lon="0.75018">
        <ele>1817.3</ele>
        <time>2020-02-23T10:44:55Z</time>
      </trkpt>
      <trkpt lat="42.92931" lon="0.75015">
        <ele>1817.9</ele>
        <time>2020-02-23T10:44:56Z</time>
      </trkpt>
      <trkpt lat="42.92931" lon="0.75015">
        <ele>1817.9</ele>
        <time>2020-02-23T10:44:57Z</time>
      </trkpt>
      <trkpt lat="42.92932" lon="0.75012">
        <ele>1818.3</ele>
        <time>2020-02-23T10:44:58Z</time>
      </trkpt>
      <trkpt lat="42.92932" lon="0.75012">
        <ele>1818.3</ele>
        <time>2020-02-23T10:44:59Z</time>
      </trkpt>
      <trkpt lat="42.92932" lon="0.75012">
        <ele>1818.3</ele>
        <time>2020-02-23T10:45:00Z</time>
      </trkpt>
      <trkpt lat="42.92932" lon="0.75012">
        <ele>1818.3</ele>
        <time>2020-02-23T10:45:01Z</time>
      </trkpt>
      <trkpt lat="42.92933" lon="0.75011">
        <ele>1818.7</ele>
        <time>2020-02-23T10:45:02Z</time>
      </trkpt>
      <trkpt lat="42.92933" lon="0.75011">
        <ele>1818.7</ele>
        <time>2020-02-23T10:45:03Z</time>
      </trkpt>
      <trkpt lat="42.92933" lon="0.75011">
        <ele>1818.7</ele>
        <time>2020-02-23T10:45:04Z</time>
      </trkpt>
      <trkpt lat="42.92933" lon="0.75011">
        <ele>1818.7</ele>
        <time>2020-02-23T10:45:05Z</time>
      </trkpt>
      <trkpt lat="42.92935" lon="0.75009">
        <ele>1819.2</ele>
        <time>2020-02-23T10:45:06Z</time>
      </trkpt>
      <trkpt lat="42.92935" lon="0.75009">
        <ele>1819.2</ele>
        <time>2020-02-23T10:45:07Z</time>
      </trkpt>
      <trkpt lat="42.92935" lon="0.75006">
        <ele>1819.6</ele>
        <time>2020-02-23T10:45:08Z</time>
      </trkpt>
      <trkpt lat="42.92935" lon="0.75006">
        <ele>1819.6</ele>
        <time>2020-02-23T10:45:09Z</time>
      </trkpt>
      <trkpt lat="42.92935" lon="0.75006">
        <ele>1819.6</ele>
        <time>2020-02-23T10:45:10Z</time>
      </trkpt>
      <trkpt lat="42.92936" lon="0.75003">
        <ele>1820.2</ele>
        <time>2020-02-23T10:45:11Z</time>
      </trkpt>
      <trkpt lat="42.92936" lon="0.75003">
        <ele>1820.2</ele>
        <time>2020-02-23T10:45:12Z</time>
      </trkpt>
      <trkpt lat="42.92936" lon="0.75003">
        <ele>1820.2</ele>
        <time>2020-02-23T10:45:13Z</time>
      </trkpt>
      <trkpt lat="42.92936" lon="0.75003">
        <ele>1820.2</ele>
        <time>2020-02-23T10:45:14Z</time>
      </trkpt>
      <trkpt lat="42.92937" lon="0.75">
        <ele>1821</ele>
        <time>2020-02-23T10:45:15Z</time>
      </trkpt>
      <trkpt lat="42.92937" lon="0.75">
        <ele>1821</ele>
        <time>2020-02-23T10:45:16Z</time>
      </trkpt>
      <trkpt lat="42.92937" lon="0.75">
        <ele>1821</ele>
        <time>2020-02-23T10:45:17Z</time>
      </trkpt>
      <trkpt lat="42.92939" lon="0.74998">
        <ele>1821.8</ele>
        <time>2020-02-23T10:45:18Z</time>
      </trkpt>
      <trkpt lat="42.92939" lon="0.74998">
        <ele>1821.8</ele>
        <time>2020-02-23T10:45:19Z</time>
      </trkpt>
      <trkpt lat="42.92939" lon="0.74998">
        <ele>1821.8</ele>
        <time>2020-02-23T10:45:20Z</time>
      </trkpt>
      <trkpt lat="42.92939" lon="0.74998">
        <ele>1821.8</ele>
        <time>2020-02-23T10:45:21Z</time>
      </trkpt>
      <trkpt lat="42.9294" lon="0.74996">
        <ele>1822.3</ele>
        <time>2020-02-23T10:45:22Z</time>
      </trkpt>
      <trkpt lat="42.9294" lon="0.74996">
        <ele>1822.3</ele>
        <time>2020-02-23T10:45:23Z</time>
      </trkpt>
      <trkpt lat="42.9294" lon="0.74996">
        <ele>1822.3</ele>
        <time>2020-02-23T10:45:24Z</time>
      </trkpt>
      <trkpt lat="42.9294" lon="0.74996">
        <ele>1822.3</ele>
        <time>2020-02-23T10:45:25Z</time>
      </trkpt>
      <trkpt lat="42.9294" lon="0.74996">
        <ele>1822.3</ele>
        <time>2020-02-23T10:45:26Z</time>
      </trkpt>
      <trkpt lat="42.9294" lon="0.74996">
        <ele>1822.3</ele>
        <time>2020-02-23T10:45:27Z</time>
      </trkpt>
      <trkpt lat="42.92941" lon="0.74993">
        <ele>1822.9</ele>
        <time>2020-02-23T10:45:28Z</time>
      </trkpt>
      <trkpt lat="42.92941" lon="0.74993">
        <ele>1822.9</ele>
        <time>2020-02-23T10:45:29Z</time>
      </trkpt>
      <trkpt lat="42.92941" lon="0.74993">
        <ele>1822.9</ele>
        <time>2020-02-23T10:45:30Z</time>
      </trkpt>
      <trkpt lat="42.92941" lon="0.74993">
        <ele>1822.9</ele>
        <time>2020-02-23T10:45:31Z</time>
      </trkpt>
      <trkpt lat="42.92941" lon="0.74993">
        <ele>1822.9</ele>
        <time>2020-02-23T10:45:32Z</time>
      </trkpt>
      <trkpt lat="42.92943" lon="0.74993">
        <ele>1823.5</ele>
        <time>2020-02-23T10:45:33Z</time>
      </trkpt>
      <trkpt lat="42.92943" lon="0.74993">
        <ele>1823.5</ele>
        <time>2020-02-23T10:45:34Z</time>
      </trkpt>
      <trkpt lat="42.92943" lon="0.74993">
        <ele>1823.5</ele>
        <time>2020-02-23T10:45:35Z</time>
      </trkpt>
      <trkpt lat="42.92945" lon="0.7499">
        <ele>1824</ele>
        <time>2020-02-23T10:45:36Z</time>
      </trkpt>
      <trkpt lat="42.92947" lon="0.74987">
        <ele>1824.8</ele>
        <time>2020-02-23T10:45:37Z</time>
      </trkpt>
      <trkpt lat="42.92947" lon="0.74987">
        <ele>1824.8</ele>
        <time>2020-02-23T10:45:38Z</time>
      </trkpt>
      <trkpt lat="42.92948" lon="0.74983">
        <ele>1825.2</ele>
        <time>2020-02-23T10:45:39Z</time>
      </trkpt>
      <trkpt lat="42.92948" lon="0.74983">
        <ele>1825.2</ele>
        <time>2020-02-23T10:45:40Z</time>
      </trkpt>
      <trkpt lat="42.92948" lon="0.74983">
        <ele>1825.2</ele>
        <time>2020-02-23T10:45:41Z</time>
      </trkpt>
      <trkpt lat="42.92948" lon="0.74983">
        <ele>1825.2</ele>
        <time>2020-02-23T10:45:42Z</time>
      </trkpt>
      <trkpt lat="42.92949" lon="0.74981">
        <ele>1825.6</ele>
        <time>2020-02-23T10:45:43Z</time>
      </trkpt>
      <trkpt lat="42.92949" lon="0.74981">
        <ele>1825.6</ele>
        <time>2020-02-23T10:45:44Z</time>
      </trkpt>
      <trkpt lat="42.92951" lon="0.74979">
        <ele>1825.8</ele>
        <time>2020-02-23T10:45:45Z</time>
      </trkpt>
      <trkpt lat="42.92951" lon="0.74979">
        <ele>1825.8</ele>
        <time>2020-02-23T10:45:46Z</time>
      </trkpt>
      <trkpt lat="42.92951" lon="0.74979">
        <ele>1825.8</ele>
        <time>2020-02-23T10:45:47Z</time>
      </trkpt>
      <trkpt lat="42.92951" lon="0.74979">
        <ele>1825.8</ele>
        <time>2020-02-23T10:45:48Z</time>
      </trkpt>
      <trkpt lat="42.92951" lon="0.74979">
        <ele>1825.8</ele>
        <time>2020-02-23T10:45:49Z</time>
      </trkpt>
      <trkpt lat="42.92951" lon="0.74979">
        <ele>1825.8</ele>
        <time>2020-02-23T10:45:50Z</time>
      </trkpt>
      <trkpt lat="42.92951" lon="0.74979">
        <ele>1825.8</ele>
        <time>2020-02-23T10:45:51Z</time>
      </trkpt>
      <trkpt lat="42.92951" lon="0.74979">
        <ele>1825.8</ele>
        <time>2020-02-23T10:45:52Z</time>
      </trkpt>
      <trkpt lat="42.92952" lon="0.74977">
        <ele>1825.9</ele>
        <time>2020-02-23T10:45:53Z</time>
      </trkpt>
      <trkpt lat="42.92952" lon="0.74977">
        <ele>1825.9</ele>
        <time>2020-02-23T10:45:54Z</time>
      </trkpt>
      <trkpt lat="42.92953" lon="0.74977">
        <ele>1826</ele>
        <time>2020-02-23T10:45:55Z</time>
      </trkpt>
      <trkpt lat="42.92954" lon="0.74977">
        <ele>1826</ele>
        <time>2020-02-23T10:45:56Z</time>
      </trkpt>
      <trkpt lat="42.92955" lon="0.74976">
        <ele>1826.1</ele>
        <time>2020-02-23T10:45:57Z</time>
      </trkpt>
      <trkpt lat="42.92956" lon="0.74976">
        <ele>1826.1</ele>
        <time>2020-02-23T10:45:58Z</time>
      </trkpt>
      <trkpt lat="42.92957" lon="0.74976">
        <ele>1826</ele>
        <time>2020-02-23T10:45:59Z</time>
      </trkpt>
      <trkpt lat="42.92958" lon="0.74975">
        <ele>1826</ele>
        <time>2020-02-23T10:46:00Z</time>
      </trkpt>
      <trkpt lat="42.92959" lon="0.74975">
        <ele>1826</ele>
        <time>2020-02-23T10:46:01Z</time>
      </trkpt>
      <trkpt lat="42.92959" lon="0.74975">
        <ele>1826</ele>
        <time>2020-02-23T10:46:02Z</time>
      </trkpt>
      <trkpt lat="42.92961" lon="0.74974">
        <ele>1825.9</ele>
        <time>2020-02-23T10:46:03Z</time>
      </trkpt>
      <trkpt lat="42.92961" lon="0.74974">
        <ele>1825.9</ele>
        <time>2020-02-23T10:46:04Z</time>
      </trkpt>
      <trkpt lat="42.92961" lon="0.74974">
        <ele>1825.9</ele>
        <time>2020-02-23T10:46:05Z</time>
      </trkpt>
      <trkpt lat="42.92961" lon="0.74974">
        <ele>1825.9</ele>
        <time>2020-02-23T10:46:06Z</time>
      </trkpt>
      <trkpt lat="42.92961" lon="0.74971">
        <ele>1825.9</ele>
        <time>2020-02-23T10:46:07Z</time>
      </trkpt>
      <trkpt lat="42.92961" lon="0.74971">
        <ele>1825.9</ele>
        <time>2020-02-23T10:46:08Z</time>
      </trkpt>
      <trkpt lat="42.92961" lon="0.74971">
        <ele>1825.9</ele>
        <time>2020-02-23T10:46:09Z</time>
      </trkpt>
      <trkpt lat="42.92964" lon="0.7497">
        <ele>1825.7</ele>
        <time>2020-02-23T10:46:10Z</time>
      </trkpt>
      <trkpt lat="42.92964" lon="0.7497">
        <ele>1825.7</ele>
        <time>2020-02-23T10:46:11Z</time>
      </trkpt>
      <trkpt lat="42.92964" lon="0.7497">
        <ele>1825.7</ele>
        <time>2020-02-23T10:46:12Z</time>
      </trkpt>
      <trkpt lat="42.92964" lon="0.74968">
        <ele>1825.6</ele>
        <time>2020-02-23T10:46:13Z</time>
      </trkpt>
      <trkpt lat="42.92964" lon="0.74968">
        <ele>1825.6</ele>
        <time>2020-02-23T10:46:14Z</time>
      </trkpt>
      <trkpt lat="42.92964" lon="0.74968">
        <ele>1825.6</ele>
        <time>2020-02-23T10:46:15Z</time>
      </trkpt>
      <trkpt lat="42.92964" lon="0.74965">
        <ele>1825.3</ele>
        <time>2020-02-23T10:46:16Z</time>
      </trkpt>
      <trkpt lat="42.92964" lon="0.74965">
        <ele>1825.3</ele>
        <time>2020-02-23T10:46:17Z</time>
      </trkpt>
      <trkpt lat="42.92964" lon="0.74965">
        <ele>1825.3</ele>
        <time>2020-02-23T10:46:18Z</time>
      </trkpt>
      <trkpt lat="42.92964" lon="0.74962">
        <ele>1824.8</ele>
        <time>2020-02-23T10:46:19Z</time>
      </trkpt>
      <trkpt lat="42.92964" lon="0.74962">
        <ele>1824.9</ele>
        <time>2020-02-23T10:46:20Z</time>
      </trkpt>
      <trkpt lat="42.92964" lon="0.74959">
        <ele>1824.4</ele>
        <time>2020-02-23T10:46:21Z</time>
      </trkpt>
      <trkpt lat="42.92964" lon="0.74959">
        <ele>1824.4</ele>
        <time>2020-02-23T10:46:22Z</time>
      </trkpt>
      <trkpt lat="42.92964" lon="0.74959">
        <ele>1824.4</ele>
        <time>2020-02-23T10:46:23Z</time>
      </trkpt>
      <trkpt lat="42.92964" lon="0.74959">
        <ele>1824.4</ele>
        <time>2020-02-23T10:46:24Z</time>
      </trkpt>
      <trkpt lat="42.92964" lon="0.74959">
        <ele>1824.4</ele>
        <time>2020-02-23T10:46:25Z</time>
      </trkpt>
      <trkpt lat="42.92964" lon="0.74959">
        <ele>1824.5</ele>
        <time>2020-02-23T10:46:26Z</time>
      </trkpt>
      <trkpt lat="42.92964" lon="0.74959">
        <ele>1824.5</ele>
        <time>2020-02-23T10:46:27Z</time>
      </trkpt>
      <trkpt lat="42.92964" lon="0.74959">
        <ele>1824.5</ele>
        <time>2020-02-23T10:46:28Z</time>
      </trkpt>
      <trkpt lat="42.92963" lon="0.74958">
        <ele>1824</ele>
        <time>2020-02-23T10:46:29Z</time>
      </trkpt>
      <trkpt lat="42.92963" lon="0.74958">
        <ele>1824</ele>
        <time>2020-02-23T10:46:30Z</time>
      </trkpt>
      <trkpt lat="42.92963" lon="0.74958">
        <ele>1824</ele>
        <time>2020-02-23T10:46:31Z</time>
      </trkpt>
      <trkpt lat="42.92963" lon="0.74958">
        <ele>1824</ele>
        <time>2020-02-23T10:46:32Z</time>
      </trkpt>
      <trkpt lat="42.92961" lon="0.74957">
        <ele>1823.6</ele>
        <time>2020-02-23T10:46:33Z</time>
      </trkpt>
      <trkpt lat="42.92961" lon="0.74957">
        <ele>1823.6</ele>
        <time>2020-02-23T10:46:34Z</time>
      </trkpt>
      <trkpt lat="42.92961" lon="0.74957">
        <ele>1823.6</ele>
        <time>2020-02-23T10:46:35Z</time>
      </trkpt>
      <trkpt lat="42.92961" lon="0.74957">
        <ele>1823.6</ele>
        <time>2020-02-23T10:46:36Z</time>
      </trkpt>
      <trkpt lat="42.92961" lon="0.74957">
        <ele>1823.6</ele>
        <time>2020-02-23T10:46:37Z</time>
      </trkpt>
      <trkpt lat="42.92961" lon="0.74957">
        <ele>1823.6</ele>
        <time>2020-02-23T10:46:38Z</time>
      </trkpt>
      <trkpt lat="42.92961" lon="0.74957">
        <ele>1823.6</ele>
        <time>2020-02-23T10:46:39Z</time>
      </trkpt>
      <trkpt lat="42.92959" lon="0.74956">
        <ele>1823.1</ele>
        <time>2020-02-23T10:46:40Z</time>
      </trkpt>
      <trkpt lat="42.92959" lon="0.74956">
        <ele>1823.1</ele>
        <time>2020-02-23T10:46:41Z</time>
      </trkpt>
      <trkpt lat="42.92959" lon="0.74956">
        <ele>1823.1</ele>
        <time>2020-02-23T10:46:42Z</time>
      </trkpt>
      <trkpt lat="42.92959" lon="0.74956">
        <ele>1823.1</ele>
        <time>2020-02-23T10:46:43Z</time>
      </trkpt>
      <trkpt lat="42.92959" lon="0.74956">
        <ele>1823.1</ele>
        <time>2020-02-23T10:46:44Z</time>
      </trkpt>
      <trkpt lat="42.92959" lon="0.74956">
        <ele>1823.1</ele>
        <time>2020-02-23T10:46:45Z</time>
      </trkpt>
      <trkpt lat="42.92959" lon="0.74953">
        <ele>1822.7</ele>
        <time>2020-02-23T10:46:46Z</time>
      </trkpt>
      <trkpt lat="42.92959" lon="0.74953">
        <ele>1822.7</ele>
        <time>2020-02-23T10:46:47Z</time>
      </trkpt>
      <trkpt lat="42.9296" lon="0.74951">
        <ele>1822.2</ele>
        <time>2020-02-23T10:46:48Z</time>
      </trkpt>
      <trkpt lat="42.9296" lon="0.74951">
        <ele>1822.2</ele>
        <time>2020-02-23T10:46:49Z</time>
      </trkpt>
      <trkpt lat="42.9296" lon="0.74951">
        <ele>1822.2</ele>
        <time>2020-02-23T10:46:50Z</time>
      </trkpt>
      <trkpt lat="42.9296" lon="0.74951">
        <ele>1822.2</ele>
        <time>2020-02-23T10:46:51Z</time>
      </trkpt>
      <trkpt lat="42.9296" lon="0.74951">
        <ele>1822.2</ele>
        <time>2020-02-23T10:46:52Z</time>
      </trkpt>
      <trkpt lat="42.92962" lon="0.7495">
        <ele>1821.7</ele>
        <time>2020-02-23T10:46:53Z</time>
      </trkpt>
      <trkpt lat="42.92962" lon="0.7495">
        <ele>1821.7</ele>
        <time>2020-02-23T10:46:54Z</time>
      </trkpt>
      <trkpt lat="42.92965" lon="0.74948">
        <ele>1820.9</ele>
        <time>2020-02-23T10:46:55Z</time>
      </trkpt>
      <trkpt lat="42.92965" lon="0.74948">
        <ele>1820.9</ele>
        <time>2020-02-23T10:46:56Z</time>
      </trkpt>
      <trkpt lat="42.92966" lon="0.74946">
        <ele>1820.3</ele>
        <time>2020-02-23T10:46:57Z</time>
      </trkpt>
      <trkpt lat="42.92968" lon="0.74944">
        <ele>1819.7</ele>
        <time>2020-02-23T10:46:58Z</time>
      </trkpt>
      <trkpt lat="42.92968" lon="0.74944">
        <ele>1819.7</ele>
        <time>2020-02-23T10:46:59Z</time>
      </trkpt>
      <trkpt lat="42.92968" lon="0.74944">
        <ele>1819.7</ele>
        <time>2020-02-23T10:47:00Z</time>
      </trkpt>
      <trkpt lat="42.92968" lon="0.74941">
        <ele>1819</ele>
        <time>2020-02-23T10:47:01Z</time>
      </trkpt>
      <trkpt lat="42.92968" lon="0.74941">
        <ele>1819</ele>
        <time>2020-02-23T10:47:02Z</time>
      </trkpt>
      <trkpt lat="42.9297" lon="0.74938">
        <ele>1818.3</ele>
        <time>2020-02-23T10:47:03Z</time>
      </trkpt>
      <trkpt lat="42.9297" lon="0.74938">
        <ele>1818.3</ele>
        <time>2020-02-23T10:47:04Z</time>
      </trkpt>
      <trkpt lat="42.92973" lon="0.74935">
        <ele>1817.3</ele>
        <time>2020-02-23T10:47:05Z</time>
      </trkpt>
      <trkpt lat="42.92973" lon="0.74935">
        <ele>1817.3</ele>
        <time>2020-02-23T10:47:06Z</time>
      </trkpt>
      <trkpt lat="42.92973" lon="0.74935">
        <ele>1817.4</ele>
        <time>2020-02-23T10:47:07Z</time>
      </trkpt>
      <trkpt lat="42.92974" lon="0.74934">
        <ele>1817</ele>
        <time>2020-02-23T10:47:08Z</time>
      </trkpt>
      <trkpt lat="42.92975" lon="0.74934">
        <ele>1816.7</ele>
        <time>2020-02-23T10:47:09Z</time>
      </trkpt>
      <trkpt lat="42.92976" lon="0.74933">
        <ele>1816.5</ele>
        <time>2020-02-23T10:47:10Z</time>
      </trkpt>
      <trkpt lat="42.92978" lon="0.74932">
        <ele>1816.3</ele>
        <time>2020-02-23T10:47:11Z</time>
      </trkpt>
      <trkpt lat="42.92979" lon="0.74932">
        <ele>1816.1</ele>
        <time>2020-02-23T10:47:12Z</time>
      </trkpt>
      <trkpt lat="42.9298" lon="0.74931">
        <ele>1815.8</ele>
        <time>2020-02-23T10:47:13Z</time>
      </trkpt>
      <trkpt lat="42.92981" lon="0.7493">
        <ele>1815.7</ele>
        <time>2020-02-23T10:47:14Z</time>
      </trkpt>
      <trkpt lat="42.92982" lon="0.7493">
        <ele>1815.5</ele>
        <time>2020-02-23T10:47:15Z</time>
      </trkpt>
      <trkpt lat="42.92982" lon="0.7493">
        <ele>1815.5</ele>
        <time>2020-02-23T10:47:16Z</time>
      </trkpt>
      <trkpt lat="42.92985" lon="0.7493">
        <ele>1815.1</ele>
        <time>2020-02-23T10:47:17Z</time>
      </trkpt>
      <trkpt lat="42.92985" lon="0.7493">
        <ele>1815.1</ele>
        <time>2020-02-23T10:47:18Z</time>
      </trkpt>
      <trkpt lat="42.92985" lon="0.7493">
        <ele>1815.1</ele>
        <time>2020-02-23T10:47:19Z</time>
      </trkpt>
      <trkpt lat="42.92985" lon="0.7493">
        <ele>1815.1</ele>
        <time>2020-02-23T10:47:20Z</time>
      </trkpt>
      <trkpt lat="42.92985" lon="0.7493">
        <ele>1815.1</ele>
        <time>2020-02-23T10:47:21Z</time>
      </trkpt>
      <trkpt lat="42.92985" lon="0.7493">
        <ele>1815.1</ele>
        <time>2020-02-23T10:47:22Z</time>
      </trkpt>
      <trkpt lat="42.92985" lon="0.7493">
        <ele>1815.1</ele>
        <time>2020-02-23T10:47:23Z</time>
      </trkpt>
      <trkpt lat="42.92985" lon="0.7493">
        <ele>1815.1</ele>
        <time>2020-02-23T10:47:24Z</time>
      </trkpt>
      <trkpt lat="42.92985" lon="0.7493">
        <ele>1815.1</ele>
        <time>2020-02-23T10:47:25Z</time>
      </trkpt>
      <trkpt lat="42.92985" lon="0.7493">
        <ele>1815.2</ele>
        <time>2020-02-23T10:47:26Z</time>
      </trkpt>
      <trkpt lat="42.92989" lon="0.74931">
        <ele>1814.9</ele>
        <time>2020-02-23T10:47:27Z</time>
      </trkpt>
      <trkpt lat="42.92989" lon="0.74931">
        <ele>1814.9</ele>
        <time>2020-02-23T10:47:28Z</time>
      </trkpt>
      <trkpt lat="42.92989" lon="0.74931">
        <ele>1814.9</ele>
        <time>2020-02-23T10:47:29Z</time>
      </trkpt>
      <trkpt lat="42.92989" lon="0.74931">
        <ele>1814.9</ele>
        <time>2020-02-23T10:47:30Z</time>
      </trkpt>
      <trkpt lat="42.92989" lon="0.74931">
        <ele>1814.9</ele>
        <time>2020-02-23T10:47:31Z</time>
      </trkpt>
      <trkpt lat="42.92989" lon="0.74931">
        <ele>1814.9</ele>
        <time>2020-02-23T10:47:32Z</time>
      </trkpt>
      <trkpt lat="42.92989" lon="0.74931">
        <ele>1814.9</ele>
        <time>2020-02-23T10:47:33Z</time>
      </trkpt>
      <trkpt lat="42.92989" lon="0.74931">
        <ele>1814.9</ele>
        <time>2020-02-23T10:47:34Z</time>
      </trkpt>
      <trkpt lat="42.92989" lon="0.74931">
        <ele>1814.9</ele>
        <time>2020-02-23T10:47:35Z</time>
      </trkpt>
      <trkpt lat="42.92989" lon="0.74931">
        <ele>1814.9</ele>
        <time>2020-02-23T10:47:36Z</time>
      </trkpt>
      <trkpt lat="42.92989" lon="0.74931">
        <ele>1814.9</ele>
        <time>2020-02-23T10:47:37Z</time>
      </trkpt>
      <trkpt lat="42.92989" lon="0.74931">
        <ele>1814.9</ele>
        <time>2020-02-23T10:47:38Z</time>
      </trkpt>
      <trkpt lat="42.92989" lon="0.74931">
        <ele>1814.9</ele>
        <time>2020-02-23T10:47:39Z</time>
      </trkpt>
      <trkpt lat="42.92989" lon="0.74928">
        <ele>1814.7</ele>
        <time>2020-02-23T10:47:40Z</time>
      </trkpt>
      <trkpt lat="42.92989" lon="0.74928">
        <ele>1814.7</ele>
        <time>2020-02-23T10:47:41Z</time>
      </trkpt>
      <trkpt lat="42.92989" lon="0.74928">
        <ele>1814.7</ele>
        <time>2020-02-23T10:47:42Z</time>
      </trkpt>
      <trkpt lat="42.92989" lon="0.74928">
        <ele>1814.7</ele>
        <time>2020-02-23T10:47:43Z</time>
      </trkpt>
      <trkpt lat="42.92989" lon="0.74928">
        <ele>1814.7</ele>
        <time>2020-02-23T10:47:44Z</time>
      </trkpt>
      <trkpt lat="42.92991" lon="0.74926">
        <ele>1814.6</ele>
        <time>2020-02-23T10:47:45Z</time>
      </trkpt>
      <trkpt lat="42.92991" lon="0.74926">
        <ele>1814.6</ele>
        <time>2020-02-23T10:47:46Z</time>
      </trkpt>
      <trkpt lat="42.92991" lon="0.74926">
        <ele>1814.6</ele>
        <time>2020-02-23T10:47:47Z</time>
      </trkpt>
      <trkpt lat="42.92991" lon="0.74926">
        <ele>1814.6</ele>
        <time>2020-02-23T10:47:48Z</time>
      </trkpt>
      <trkpt lat="42.92991" lon="0.74925">
        <ele>1814.6</ele>
        <time>2020-02-23T10:47:49Z</time>
      </trkpt>
      <trkpt lat="42.92991" lon="0.74925">
        <ele>1814.6</ele>
        <time>2020-02-23T10:47:50Z</time>
      </trkpt>
      <trkpt lat="42.92992" lon="0.74925">
        <ele>1814.5</ele>
        <time>2020-02-23T10:47:51Z</time>
      </trkpt>
      <trkpt lat="42.92992" lon="0.74925">
        <ele>1814.5</ele>
        <time>2020-02-23T10:47:52Z</time>
      </trkpt>
      <trkpt lat="42.92992" lon="0.74925">
        <ele>1814.5</ele>
        <time>2020-02-23T10:47:53Z</time>
      </trkpt>
      <trkpt lat="42.92992" lon="0.74925">
        <ele>1814.5</ele>
        <time>2020-02-23T10:47:54Z</time>
      </trkpt>
      <trkpt lat="42.92992" lon="0.74925">
        <ele>1814.5</ele>
        <time>2020-02-23T10:47:55Z</time>
      </trkpt>
      <trkpt lat="42.92992" lon="0.74925">
        <ele>1814.5</ele>
        <time>2020-02-23T10:47:56Z</time>
      </trkpt>
      <trkpt lat="42.92992" lon="0.74925">
        <ele>1814.5</ele>
        <time>2020-02-23T10:47:57Z</time>
      </trkpt>
      <trkpt lat="42.92993" lon="0.74925">
        <ele>1814.5</ele>
        <time>2020-02-23T10:47:58Z</time>
      </trkpt>
      <trkpt lat="42.92993" lon="0.74924">
        <ele>1814.5</ele>
        <time>2020-02-23T10:47:59Z</time>
      </trkpt>
      <trkpt lat="42.92993" lon="0.74924">
        <ele>1814.5</ele>
        <time>2020-02-23T10:48:00Z</time>
      </trkpt>
      <trkpt lat="42.92993" lon="0.74924">
        <ele>1814.5</ele>
        <time>2020-02-23T10:48:01Z</time>
      </trkpt>
      <trkpt lat="42.92993" lon="0.74924">
        <ele>1814.5</ele>
        <time>2020-02-23T10:48:02Z</time>
      </trkpt>
      <trkpt lat="42.92993" lon="0.74924">
        <ele>1814.4</ele>
        <time>2020-02-23T10:48:03Z</time>
      </trkpt>
      <trkpt lat="42.92993" lon="0.74924">
        <ele>1814.4</ele>
        <time>2020-02-23T10:48:04Z</time>
      </trkpt>
      <trkpt lat="42.92994" lon="0.74924">
        <ele>1814.4</ele>
        <time>2020-02-23T10:48:05Z</time>
      </trkpt>
      <trkpt lat="42.92994" lon="0.74924">
        <ele>1814.4</ele>
        <time>2020-02-23T10:48:06Z</time>
      </trkpt>
      <trkpt lat="42.92994" lon="0.74924">
        <ele>1814.4</ele>
        <time>2020-02-23T10:48:07Z</time>
      </trkpt>
      <trkpt lat="42.92994" lon="0.74924">
        <ele>1814.4</ele>
        <time>2020-02-23T10:48:08Z</time>
      </trkpt>
      <trkpt lat="42.92994" lon="0.74923">
        <ele>1814.4</ele>
        <time>2020-02-23T10:48:09Z</time>
      </trkpt>
      <trkpt lat="42.92994" lon="0.74923">
        <ele>1814.4</ele>
        <time>2020-02-23T10:48:10Z</time>
      </trkpt>
      <trkpt lat="42.92995" lon="0.74923">
        <ele>1814.4</ele>
        <time>2020-02-23T10:48:11Z</time>
      </trkpt>
      <trkpt lat="42.92995" lon="0.74923">
        <ele>1814.4</ele>
        <time>2020-02-23T10:48:12Z</time>
      </trkpt>
      <trkpt lat="42.92995" lon="0.74923">
        <ele>1814.4</ele>
        <time>2020-02-23T10:48:13Z</time>
      </trkpt>
      <trkpt lat="42.92995" lon="0.74923">
        <ele>1814.4</ele>
        <time>2020-02-23T10:48:14Z</time>
      </trkpt>
      <trkpt lat="42.92995" lon="0.74923">
        <ele>1814.4</ele>
        <time>2020-02-23T10:48:15Z</time>
      </trkpt>
      <trkpt lat="42.92995" lon="0.74923">
        <ele>1814.4</ele>
        <time>2020-02-23T10:48:16Z</time>
      </trkpt>
      <trkpt lat="42.92995" lon="0.74923">
        <ele>1814.4</ele>
        <time>2020-02-23T10:48:17Z</time>
      </trkpt>
      <trkpt lat="42.92995" lon="0.74923">
        <ele>1814.4</ele>
        <time>2020-02-23T10:48:18Z</time>
      </trkpt>
      <trkpt lat="42.92995" lon="0.74923">
        <ele>1814.4</ele>
        <time>2020-02-23T10:48:19Z</time>
      </trkpt>
      <trkpt lat="42.92995" lon="0.74923">
        <ele>1814.4</ele>
        <time>2020-02-23T10:48:20Z</time>
      </trkpt>
      <trkpt lat="42.92995" lon="0.74923">
        <ele>1814.4</ele>
        <time>2020-02-23T10:48:21Z</time>
      </trkpt>
      <trkpt lat="42.92995" lon="0.74923">
        <ele>1814.4</ele>
        <time>2020-02-23T10:48:22Z</time>
      </trkpt>
      <trkpt lat="42.92995" lon="0.74923">
        <ele>1814.4</ele>
        <time>2020-02-23T10:48:23Z</time>
      </trkpt>
      <trkpt lat="42.92995" lon="0.74923">
        <ele>1814.4</ele>
        <time>2020-02-23T10:48:24Z</time>
      </trkpt>
      <trkpt lat="42.92995" lon="0.74923">
        <ele>1814.4</ele>
        <time>2020-02-23T10:48:25Z</time>
      </trkpt>
      <trkpt lat="42.92995" lon="0.74923">
        <ele>1814.4</ele>
        <time>2020-02-23T10:48:26Z</time>
      </trkpt>
      <trkpt lat="42.92995" lon="0.74923">
        <ele>1814.4</ele>
        <time>2020-02-23T10:48:27Z</time>
      </trkpt>
      <trkpt lat="42.92995" lon="0.74923">
        <ele>1814.4</ele>
        <time>2020-02-23T10:48:28Z</time>
      </trkpt>
      <trkpt lat="42.92995" lon="0.74923">
        <ele>1814.4</ele>
        <time>2020-02-23T10:48:29Z</time>
      </trkpt>
      <trkpt lat="42.92997" lon="0.74922">
        <ele>1814.4</ele>
        <time>2020-02-23T10:48:30Z</time>
      </trkpt>
      <trkpt lat="42.92997" lon="0.74922">
        <ele>1814.4</ele>
        <time>2020-02-23T10:48:31Z</time>
      </trkpt>
      <trkpt lat="42.92997" lon="0.74922">
        <ele>1814.4</ele>
        <time>2020-02-23T10:48:32Z</time>
      </trkpt>
      <trkpt lat="42.92997" lon="0.74922">
        <ele>1814.4</ele>
        <time>2020-02-23T10:48:33Z</time>
      </trkpt>
      <trkpt lat="42.92997" lon="0.74922">
        <ele>1814.4</ele>
        <time>2020-02-23T10:48:34Z</time>
      </trkpt>
      <trkpt lat="42.92997" lon="0.74922">
        <ele>1814.4</ele>
        <time>2020-02-23T10:48:35Z</time>
      </trkpt>
      <trkpt lat="42.92997" lon="0.74922">
        <ele>1814.4</ele>
        <time>2020-02-23T10:48:36Z</time>
      </trkpt>
      <trkpt lat="42.92997" lon="0.74922">
        <ele>1814.4</ele>
        <time>2020-02-23T10:48:37Z</time>
      </trkpt>
      <trkpt lat="42.92997" lon="0.74922">
        <ele>1814.4</ele>
        <time>2020-02-23T10:48:38Z</time>
      </trkpt>
      <trkpt lat="42.92997" lon="0.74922">
        <ele>1814.4</ele>
        <time>2020-02-23T10:48:39Z</time>
      </trkpt>
      <trkpt lat="42.92997" lon="0.74922">
        <ele>1814.4</ele>
        <time>2020-02-23T10:48:40Z</time>
      </trkpt>
      <trkpt lat="42.92997" lon="0.74922">
        <ele>1814.4</ele>
        <time>2020-02-23T10:48:41Z</time>
      </trkpt>
      <trkpt lat="42.92997" lon="0.74922">
        <ele>1814.4</ele>
        <time>2020-02-23T10:48:42Z</time>
      </trkpt>
      <trkpt lat="42.92997" lon="0.74922">
        <ele>1814.4</ele>
        <time>2020-02-23T10:48:43Z</time>
      </trkpt>
      <trkpt lat="42.92997" lon="0.74922">
        <ele>1814.4</ele>
        <time>2020-02-23T10:48:44Z</time>
      </trkpt>
      <trkpt lat="42.92997" lon="0.74922">
        <ele>1814.4</ele>
        <time>2020-02-23T10:48:45Z</time>
      </trkpt>
      <trkpt lat="42.92997" lon="0.74922">
        <ele>1814.4</ele>
        <time>2020-02-23T10:48:46Z</time>
      </trkpt>
      <trkpt lat="42.92997" lon="0.74922">
        <ele>1814.4</ele>
        <time>2020-02-23T10:48:47Z</time>
      </trkpt>
      <trkpt lat="42.92997" lon="0.74922">
        <ele>1814.4</ele>
        <time>2020-02-23T10:48:48Z</time>
      </trkpt>
      <trkpt lat="42.92997" lon="0.74922">
        <ele>1814.4</ele>
        <time>2020-02-23T10:48:49Z</time>
      </trkpt>
      <trkpt lat="42.92997" lon="0.74922">
        <ele>1814.4</ele>
        <time>2020-02-23T10:48:50Z</time>
      </trkpt>
      <trkpt lat="42.92997" lon="0.74922">
        <ele>1814.4</ele>
        <time>2020-02-23T10:48:51Z</time>
      </trkpt>
      <trkpt lat="42.92997" lon="0.74922">
        <ele>1814.4</ele>
        <time>2020-02-23T10:48:52Z</time>
      </trkpt>
      <trkpt lat="42.92997" lon="0.74922">
        <ele>1814.4</ele>
        <time>2020-02-23T10:48:53Z</time>
      </trkpt>
      <trkpt lat="42.92997" lon="0.74922">
        <ele>1814.4</ele>
        <time>2020-02-23T10:48:54Z</time>
      </trkpt>
      <trkpt lat="42.92996" lon="0.74924">
        <ele>1814.4</ele>
        <time>2020-02-23T10:48:55Z</time>
      </trkpt>
      <trkpt lat="42.92996" lon="0.74924">
        <ele>1814.4</ele>
        <time>2020-02-23T10:48:56Z</time>
      </trkpt>
      <trkpt lat="42.92996" lon="0.74924">
        <ele>1814.4</ele>
        <time>2020-02-23T10:48:57Z</time>
      </trkpt>
      <trkpt lat="42.92996" lon="0.74924">
        <ele>1814.4</ele>
        <time>2020-02-23T10:48:58Z</time>
      </trkpt>
      <trkpt lat="42.92996" lon="0.74924">
        <ele>1814.4</ele>
        <time>2020-02-23T10:48:59Z</time>
      </trkpt>
      <trkpt lat="42.92996" lon="0.74924">
        <ele>1814.4</ele>
        <time>2020-02-23T10:49:00Z</time>
      </trkpt>
      <trkpt lat="42.92996" lon="0.74924">
        <ele>1814.4</ele>
        <time>2020-02-23T10:49:01Z</time>
      </trkpt>
      <trkpt lat="42.92996" lon="0.74924">
        <ele>1814.4</ele>
        <time>2020-02-23T10:49:02Z</time>
      </trkpt>
      <trkpt lat="42.92996" lon="0.74924">
        <ele>1814.4</ele>
        <time>2020-02-23T10:49:03Z</time>
      </trkpt>
      <trkpt lat="42.92996" lon="0.74924">
        <ele>1814.4</ele>
        <time>2020-02-23T10:49:04Z</time>
      </trkpt>
      <trkpt lat="42.92996" lon="0.74924">
        <ele>1814.4</ele>
        <time>2020-02-23T10:49:05Z</time>
      </trkpt>
      <trkpt lat="42.92996" lon="0.74924">
        <ele>1814.4</ele>
        <time>2020-02-23T10:49:06Z</time>
      </trkpt>
      <trkpt lat="42.92996" lon="0.74924">
        <ele>1814.4</ele>
        <time>2020-02-23T10:49:07Z</time>
      </trkpt>
      <trkpt lat="42.92996" lon="0.74924">
        <ele>1814.4</ele>
        <time>2020-02-23T10:49:08Z</time>
      </trkpt>
      <trkpt lat="42.92996" lon="0.74924">
        <ele>1814.4</ele>
        <time>2020-02-23T10:49:09Z</time>
      </trkpt>
      <trkpt lat="42.92996" lon="0.74924">
        <ele>1814.4</ele>
        <time>2020-02-23T10:49:10Z</time>
      </trkpt>
      <trkpt lat="42.92996" lon="0.74924">
        <ele>1814.4</ele>
        <time>2020-02-23T10:49:11Z</time>
      </trkpt>
      <trkpt lat="42.92996" lon="0.74924">
        <ele>1814.4</ele>
        <time>2020-02-23T10:49:12Z</time>
      </trkpt>
      <trkpt lat="42.92998" lon="0.74925">
        <ele>1814.5</ele>
        <time>2020-02-23T10:49:13Z</time>
      </trkpt>
      <trkpt lat="42.92998" lon="0.74925">
        <ele>1814.5</ele>
        <time>2020-02-23T10:49:14Z</time>
      </trkpt>
      <trkpt lat="42.92998" lon="0.74925">
        <ele>1814.5</ele>
        <time>2020-02-23T10:49:15Z</time>
      </trkpt>
      <trkpt lat="42.92998" lon="0.74925">
        <ele>1814.5</ele>
        <time>2020-02-23T10:49:16Z</time>
      </trkpt>
      <trkpt lat="42.92998" lon="0.74925">
        <ele>1814.5</ele>
        <time>2020-02-23T10:49:17Z</time>
      </trkpt>
      <trkpt lat="42.92998" lon="0.74925">
        <ele>1814.5</ele>
        <time>2020-02-23T10:49:18Z</time>
      </trkpt>
      <trkpt lat="42.92998" lon="0.74925">
        <ele>1814.5</ele>
        <time>2020-02-23T10:49:19Z</time>
      </trkpt>
      <trkpt lat="42.92998" lon="0.74925">
        <ele>1814.5</ele>
        <time>2020-02-23T10:49:20Z</time>
      </trkpt>
      <trkpt lat="42.92998" lon="0.74925">
        <ele>1814.5</ele>
        <time>2020-02-23T10:49:21Z</time>
      </trkpt>
      <trkpt lat="42.92998" lon="0.74925">
        <ele>1814.5</ele>
        <time>2020-02-23T10:49:22Z</time>
      </trkpt>
      <trkpt lat="42.92998" lon="0.74925">
        <ele>1814.5</ele>
        <time>2020-02-23T10:49:23Z</time>
      </trkpt>
      <trkpt lat="42.92998" lon="0.74925">
        <ele>1814.5</ele>
        <time>2020-02-23T10:49:24Z</time>
      </trkpt>
      <trkpt lat="42.92998" lon="0.74925">
        <ele>1814.5</ele>
        <time>2020-02-23T10:49:25Z</time>
      </trkpt>
      <trkpt lat="42.92998" lon="0.74925">
        <ele>1814.5</ele>
        <time>2020-02-23T10:49:26Z</time>
      </trkpt>
      <trkpt lat="42.92998" lon="0.74925">
        <ele>1814.5</ele>
        <time>2020-02-23T10:49:27Z</time>
      </trkpt>
      <trkpt lat="42.92998" lon="0.74925">
        <ele>1814.5</ele>
        <time>2020-02-23T10:49:28Z</time>
      </trkpt>
      <trkpt lat="42.92998" lon="0.74925">
        <ele>1814.5</ele>
        <time>2020-02-23T10:49:29Z</time>
      </trkpt>
      <trkpt lat="42.92998" lon="0.74925">
        <ele>1814.5</ele>
        <time>2020-02-23T10:49:30Z</time>
      </trkpt>
      <trkpt lat="42.92998" lon="0.74925">
        <ele>1814.5</ele>
        <time>2020-02-23T10:49:31Z</time>
      </trkpt>
      <trkpt lat="42.92998" lon="0.74925">
        <ele>1814.5</ele>
        <time>2020-02-23T10:49:32Z</time>
      </trkpt>
      <trkpt lat="42.92998" lon="0.74925">
        <ele>1814.5</ele>
        <time>2020-02-23T10:49:33Z</time>
      </trkpt>
      <trkpt lat="42.92998" lon="0.74922">
        <ele>1814.5</ele>
        <time>2020-02-23T10:49:34Z</time>
      </trkpt>
      <trkpt lat="42.92998" lon="0.74922">
        <ele>1814.5</ele>
        <time>2020-02-23T10:49:35Z</time>
      </trkpt>
      <trkpt lat="42.92998" lon="0.74922">
        <ele>1814.5</ele>
        <time>2020-02-23T10:49:36Z</time>
      </trkpt>
      <trkpt lat="42.92998" lon="0.74922">
        <ele>1814.5</ele>
        <time>2020-02-23T10:49:37Z</time>
      </trkpt>
      <trkpt lat="42.92998" lon="0.74922">
        <ele>1814.5</ele>
        <time>2020-02-23T10:49:38Z</time>
      </trkpt>
      <trkpt lat="42.92998" lon="0.74922">
        <ele>1814.5</ele>
        <time>2020-02-23T10:49:39Z</time>
      </trkpt>
      <trkpt lat="42.92996" lon="0.74922">
        <ele>1814.6</ele>
        <time>2020-02-23T10:49:40Z</time>
      </trkpt>
      <trkpt lat="42.92996" lon="0.74922">
        <ele>1814.6</ele>
        <time>2020-02-23T10:49:41Z</time>
      </trkpt>
      <trkpt lat="42.92996" lon="0.74922">
        <ele>1814.6</ele>
        <time>2020-02-23T10:49:42Z</time>
      </trkpt>
      <trkpt lat="42.92996" lon="0.74922">
        <ele>1814.6</ele>
        <time>2020-02-23T10:49:43Z</time>
      </trkpt>
      <trkpt lat="42.92996" lon="0.74922">
        <ele>1814.6</ele>
        <time>2020-02-23T10:49:44Z</time>
      </trkpt>
      <trkpt lat="42.92996" lon="0.74922">
        <ele>1814.6</ele>
        <time>2020-02-23T10:49:45Z</time>
      </trkpt>
      <trkpt lat="42.92996" lon="0.74922">
        <ele>1814.6</ele>
        <time>2020-02-23T10:49:46Z</time>
      </trkpt>
      <trkpt lat="42.92996" lon="0.74922">
        <ele>1814.6</ele>
        <time>2020-02-23T10:49:47Z</time>
      </trkpt>
      <trkpt lat="42.92996" lon="0.74922">
        <ele>1814.6</ele>
        <time>2020-02-23T10:49:48Z</time>
      </trkpt>
      <trkpt lat="42.92996" lon="0.74922">
        <ele>1814.6</ele>
        <time>2020-02-23T10:49:49Z</time>
      </trkpt>
      <trkpt lat="42.92996" lon="0.74922">
        <ele>1814.6</ele>
        <time>2020-02-23T10:49:50Z</time>
      </trkpt>
      <trkpt lat="42.92996" lon="0.74922">
        <ele>1814.6</ele>
        <time>2020-02-23T10:49:51Z</time>
      </trkpt>
      <trkpt lat="42.92996" lon="0.74922">
        <ele>1814.6</ele>
        <time>2020-02-23T10:49:52Z</time>
      </trkpt>
      <trkpt lat="42.92996" lon="0.74922">
        <ele>1814.6</ele>
        <time>2020-02-23T10:49:53Z</time>
      </trkpt>
      <trkpt lat="42.92996" lon="0.74922">
        <ele>1814.6</ele>
        <time>2020-02-23T10:49:54Z</time>
      </trkpt>
      <trkpt lat="42.92996" lon="0.74922">
        <ele>1814.6</ele>
        <time>2020-02-23T10:49:55Z</time>
      </trkpt>
      <trkpt lat="42.92996" lon="0.74922">
        <ele>1814.6</ele>
        <time>2020-02-23T10:49:56Z</time>
      </trkpt>
      <trkpt lat="42.92996" lon="0.74922">
        <ele>1814.6</ele>
        <time>2020-02-23T10:49:57Z</time>
      </trkpt>
      <trkpt lat="42.92996" lon="0.74922">
        <ele>1814.6</ele>
        <time>2020-02-23T10:49:58Z</time>
      </trkpt>
      <trkpt lat="42.92996" lon="0.74922">
        <ele>1814.6</ele>
        <time>2020-02-23T10:49:59Z</time>
      </trkpt>
      <trkpt lat="42.92996" lon="0.74922">
        <ele>1814.6</ele>
        <time>2020-02-23T10:50:00Z</time>
      </trkpt>
      <trkpt lat="42.92996" lon="0.74922">
        <ele>1814.6</ele>
        <time>2020-02-23T10:50:01Z</time>
      </trkpt>
      <trkpt lat="42.92996" lon="0.74922">
        <ele>1814.6</ele>
        <time>2020-02-23T10:50:02Z</time>
      </trkpt>
      <trkpt lat="42.92996" lon="0.74922">
        <ele>1814.6</ele>
        <time>2020-02-23T10:50:03Z</time>
      </trkpt>
      <trkpt lat="42.92996" lon="0.74922">
        <ele>1814.6</ele>
        <time>2020-02-23T10:50:04Z</time>
      </trkpt>
      <trkpt lat="42.92996" lon="0.74922">
        <ele>1814.6</ele>
        <time>2020-02-23T10:50:05Z</time>
      </trkpt>
      <trkpt lat="42.92996" lon="0.74922">
        <ele>1814.6</ele>
        <time>2020-02-23T10:50:06Z</time>
      </trkpt>
      <trkpt lat="42.92996" lon="0.74922">
        <ele>1814.6</ele>
        <time>2020-02-23T10:50:07Z</time>
      </trkpt>
      <trkpt lat="42.92996" lon="0.74922">
        <ele>1814.6</ele>
        <time>2020-02-23T10:50:08Z</time>
      </trkpt>
      <trkpt lat="42.92996" lon="0.74922">
        <ele>1814.6</ele>
        <time>2020-02-23T10:50:09Z</time>
      </trkpt>
      <trkpt lat="42.92996" lon="0.74922">
        <ele>1814.6</ele>
        <time>2020-02-23T10:50:10Z</time>
      </trkpt>
      <trkpt lat="42.92996" lon="0.74922">
        <ele>1814.6</ele>
        <time>2020-02-23T10:50:11Z</time>
      </trkpt>
      <trkpt lat="42.92996" lon="0.74922">
        <ele>1814.6</ele>
        <time>2020-02-23T10:50:12Z</time>
      </trkpt>
      <trkpt lat="42.92996" lon="0.74922">
        <ele>1814.6</ele>
        <time>2020-02-23T10:50:13Z</time>
      </trkpt>
      <trkpt lat="42.92996" lon="0.74924">
        <ele>1814.7</ele>
        <time>2020-02-23T10:50:14Z</time>
      </trkpt>
      <trkpt lat="42.92996" lon="0.74924">
        <ele>1814.7</ele>
        <time>2020-02-23T10:50:15Z</time>
      </trkpt>
      <trkpt lat="42.92996" lon="0.74924">
        <ele>1814.7</ele>
        <time>2020-02-23T10:50:16Z</time>
      </trkpt>
      <trkpt lat="42.92996" lon="0.74924">
        <ele>1814.7</ele>
        <time>2020-02-23T10:50:17Z</time>
      </trkpt>
      <trkpt lat="42.92996" lon="0.74924">
        <ele>1814.7</ele>
        <time>2020-02-23T10:50:18Z</time>
      </trkpt>
      <trkpt lat="42.92996" lon="0.74924">
        <ele>1814.7</ele>
        <time>2020-02-23T10:50:19Z</time>
      </trkpt>
      <trkpt lat="42.92996" lon="0.74924">
        <ele>1814.7</ele>
        <time>2020-02-23T10:50:20Z</time>
      </trkpt>
      <trkpt lat="42.92996" lon="0.74924">
        <ele>1814.7</ele>
        <time>2020-02-23T10:50:21Z</time>
      </trkpt>
      <trkpt lat="42.92996" lon="0.74924">
        <ele>1814.7</ele>
        <time>2020-02-23T10:50:22Z</time>
      </trkpt>
      <trkpt lat="42.92996" lon="0.74924">
        <ele>1814.7</ele>
        <time>2020-02-23T10:50:23Z</time>
      </trkpt>
      <trkpt lat="42.92996" lon="0.74924">
        <ele>1814.7</ele>
        <time>2020-02-23T10:50:24Z</time>
      </trkpt>
      <trkpt lat="42.92996" lon="0.74924">
        <ele>1814.7</ele>
        <time>2020-02-23T10:50:25Z</time>
      </trkpt>
      <trkpt lat="42.92996" lon="0.74924">
        <ele>1814.7</ele>
        <time>2020-02-23T10:50:26Z</time>
      </trkpt>
      <trkpt lat="42.92996" lon="0.74924">
        <ele>1814.7</ele>
        <time>2020-02-23T10:50:27Z</time>
      </trkpt>
      <trkpt lat="42.92996" lon="0.74924">
        <ele>1814.7</ele>
        <time>2020-02-23T10:50:28Z</time>
      </trkpt>
      <trkpt lat="42.92996" lon="0.74924">
        <ele>1814.7</ele>
        <time>2020-02-23T10:50:29Z</time>
      </trkpt>
      <trkpt lat="42.92996" lon="0.74924">
        <ele>1814.7</ele>
        <time>2020-02-23T10:50:30Z</time>
      </trkpt>
      <trkpt lat="42.92996" lon="0.74924">
        <ele>1814.7</ele>
        <time>2020-02-23T10:50:31Z</time>
      </trkpt>
      <trkpt lat="42.92996" lon="0.74924">
        <ele>1814.7</ele>
        <time>2020-02-23T10:50:32Z</time>
      </trkpt>
      <trkpt lat="42.92996" lon="0.74924">
        <ele>1814.7</ele>
        <time>2020-02-23T10:50:33Z</time>
      </trkpt>
      <trkpt lat="42.92996" lon="0.74924">
        <ele>1814.7</ele>
        <time>2020-02-23T10:50:34Z</time>
      </trkpt>
      <trkpt lat="42.92994" lon="0.74926">
        <ele>1814.9</ele>
        <time>2020-02-23T10:50:35Z</time>
      </trkpt>
      <trkpt lat="42.92994" lon="0.74926">
        <ele>1814.9</ele>
        <time>2020-02-23T10:50:36Z</time>
      </trkpt>
      <trkpt lat="42.92994" lon="0.74926">
        <ele>1814.9</ele>
        <time>2020-02-23T10:50:37Z</time>
      </trkpt>
      <trkpt lat="42.92994" lon="0.74926">
        <ele>1814.9</ele>
        <time>2020-02-23T10:50:38Z</time>
      </trkpt>
      <trkpt lat="42.92994" lon="0.74926">
        <ele>1814.9</ele>
        <time>2020-02-23T10:50:39Z</time>
      </trkpt>
      <trkpt lat="42.92994" lon="0.74926">
        <ele>1814.9</ele>
        <time>2020-02-23T10:50:40Z</time>
      </trkpt>
      <trkpt lat="42.92994" lon="0.74926">
        <ele>1814.9</ele>
        <time>2020-02-23T10:50:41Z</time>
      </trkpt>
      <trkpt lat="42.92994" lon="0.74926">
        <ele>1814.9</ele>
        <time>2020-02-23T10:50:42Z</time>
      </trkpt>
      <trkpt lat="42.92994" lon="0.74926">
        <ele>1814.9</ele>
        <time>2020-02-23T10:50:43Z</time>
      </trkpt>
      <trkpt lat="42.92994" lon="0.74926">
        <ele>1814.9</ele>
        <time>2020-02-23T10:50:44Z</time>
      </trkpt>
      <trkpt lat="42.92994" lon="0.74926">
        <ele>1814.9</ele>
        <time>2020-02-23T10:50:45Z</time>
      </trkpt>
      <trkpt lat="42.92994" lon="0.74926">
        <ele>1814.9</ele>
        <time>2020-02-23T10:50:46Z</time>
      </trkpt>
      <trkpt lat="42.92994" lon="0.74926">
        <ele>1814.9</ele>
        <time>2020-02-23T10:50:47Z</time>
      </trkpt>
      <trkpt lat="42.92994" lon="0.74926">
        <ele>1814.9</ele>
        <time>2020-02-23T10:50:48Z</time>
      </trkpt>
      <trkpt lat="42.92994" lon="0.74926">
        <ele>1814.9</ele>
        <time>2020-02-23T10:50:49Z</time>
      </trkpt>
      <trkpt lat="42.92994" lon="0.74926">
        <ele>1814.9</ele>
        <time>2020-02-23T10:50:50Z</time>
      </trkpt>
      <trkpt lat="42.92994" lon="0.74926">
        <ele>1814.9</ele>
        <time>2020-02-23T10:50:51Z</time>
      </trkpt>
      <trkpt lat="42.92994" lon="0.74926">
        <ele>1814.9</ele>
        <time>2020-02-23T10:50:52Z</time>
      </trkpt>
      <trkpt lat="42.92994" lon="0.74926">
        <ele>1814.9</ele>
        <time>2020-02-23T10:50:53Z</time>
      </trkpt>
      <trkpt lat="42.92994" lon="0.74926">
        <ele>1814.9</ele>
        <time>2020-02-23T10:50:54Z</time>
      </trkpt>
      <trkpt lat="42.92994" lon="0.74926">
        <ele>1814.9</ele>
        <time>2020-02-23T10:50:55Z</time>
      </trkpt>
      <trkpt lat="42.92994" lon="0.74926">
        <ele>1814.9</ele>
        <time>2020-02-23T10:50:56Z</time>
      </trkpt>
      <trkpt lat="42.92994" lon="0.74926">
        <ele>1814.9</ele>
        <time>2020-02-23T10:50:57Z</time>
      </trkpt>
      <trkpt lat="42.92994" lon="0.74926">
        <ele>1814.9</ele>
        <time>2020-02-23T10:50:58Z</time>
      </trkpt>
      <trkpt lat="42.92994" lon="0.74926">
        <ele>1814.9</ele>
        <time>2020-02-23T10:50:59Z</time>
      </trkpt>
      <trkpt lat="42.92996" lon="0.74925">
        <ele>1815</ele>
        <time>2020-02-23T10:51:00Z</time>
      </trkpt>
      <trkpt lat="42.92996" lon="0.74925">
        <ele>1815</ele>
        <time>2020-02-23T10:51:01Z</time>
      </trkpt>
      <trkpt lat="42.92996" lon="0.74925">
        <ele>1815</ele>
        <time>2020-02-23T10:51:02Z</time>
      </trkpt>
      <trkpt lat="42.92996" lon="0.74925">
        <ele>1815</ele>
        <time>2020-02-23T10:51:03Z</time>
      </trkpt>
      <trkpt lat="42.92996" lon="0.74925">
        <ele>1815</ele>
        <time>2020-02-23T10:51:04Z</time>
      </trkpt>
      <trkpt lat="42.92996" lon="0.74925">
        <ele>1815</ele>
        <time>2020-02-23T10:51:05Z</time>
      </trkpt>
      <trkpt lat="42.92996" lon="0.74925">
        <ele>1815</ele>
        <time>2020-02-23T10:51:06Z</time>
      </trkpt>
      <trkpt lat="42.92996" lon="0.74925">
        <ele>1815</ele>
        <time>2020-02-23T10:51:07Z</time>
      </trkpt>
      <trkpt lat="42.92996" lon="0.74925">
        <ele>1815</ele>
        <time>2020-02-23T10:51:08Z</time>
      </trkpt>
      <trkpt lat="42.92996" lon="0.74925">
        <ele>1815</ele>
        <time>2020-02-23T10:51:09Z</time>
      </trkpt>
      <trkpt lat="42.92996" lon="0.74925">
        <ele>1815</ele>
        <time>2020-02-23T10:51:10Z</time>
      </trkpt>
      <trkpt lat="42.92996" lon="0.74925">
        <ele>1815</ele>
        <time>2020-02-23T10:51:11Z</time>
      </trkpt>
      <trkpt lat="42.92996" lon="0.74925">
        <ele>1815</ele>
        <time>2020-02-23T10:51:12Z</time>
      </trkpt>
      <trkpt lat="42.92996" lon="0.74925">
        <ele>1815</ele>
        <time>2020-02-23T10:51:13Z</time>
      </trkpt>
      <trkpt lat="42.92996" lon="0.74925">
        <ele>1815</ele>
        <time>2020-02-23T10:51:14Z</time>
      </trkpt>
      <trkpt lat="42.92996" lon="0.74925">
        <ele>1815</ele>
        <time>2020-02-23T10:51:15Z</time>
      </trkpt>
      <trkpt lat="42.92996" lon="0.74925">
        <ele>1815</ele>
        <time>2020-02-23T10:51:16Z</time>
      </trkpt>
      <trkpt lat="42.92996" lon="0.74925">
        <ele>1815</ele>
        <time>2020-02-23T10:51:17Z</time>
      </trkpt>
      <trkpt lat="42.92996" lon="0.74925">
        <ele>1815</ele>
        <time>2020-02-23T10:51:18Z</time>
      </trkpt>
      <trkpt lat="42.92996" lon="0.74925">
        <ele>1815</ele>
        <time>2020-02-23T10:51:19Z</time>
      </trkpt>
      <trkpt lat="42.92996" lon="0.74925">
        <ele>1815</ele>
        <time>2020-02-23T10:51:20Z</time>
      </trkpt>
      <trkpt lat="42.92996" lon="0.74925">
        <ele>1815</ele>
        <time>2020-02-23T10:51:21Z</time>
      </trkpt>
      <trkpt lat="42.92996" lon="0.74925">
        <ele>1815</ele>
        <time>2020-02-23T10:51:22Z</time>
      </trkpt>
      <trkpt lat="42.92996" lon="0.74925">
        <ele>1815</ele>
        <time>2020-02-23T10:51:23Z</time>
      </trkpt>
      <trkpt lat="42.92996" lon="0.74925">
        <ele>1815</ele>
        <time>2020-02-23T10:51:24Z</time>
      </trkpt>
      <trkpt lat="42.92996" lon="0.74925">
        <ele>1815</ele>
        <time>2020-02-23T10:51:25Z</time>
      </trkpt>
      <trkpt lat="42.92998" lon="0.74924">
        <ele>1815.2</ele>
        <time>2020-02-23T10:51:26Z</time>
      </trkpt>
      <trkpt lat="42.92998" lon="0.74924">
        <ele>1815.2</ele>
        <time>2020-02-23T10:51:27Z</time>
      </trkpt>
      <trkpt lat="42.92998" lon="0.74924">
        <ele>1815.2</ele>
        <time>2020-02-23T10:51:28Z</time>
      </trkpt>
      <trkpt lat="42.92998" lon="0.74924">
        <ele>1815.2</ele>
        <time>2020-02-23T10:51:29Z</time>
      </trkpt>
      <trkpt lat="42.92998" lon="0.74924">
        <ele>1815.2</ele>
        <time>2020-02-23T10:51:30Z</time>
      </trkpt>
      <trkpt lat="42.92998" lon="0.74924">
        <ele>1815.2</ele>
        <time>2020-02-23T10:51:31Z</time>
      </trkpt>
      <trkpt lat="42.92998" lon="0.74924">
        <ele>1815.2</ele>
        <time>2020-02-23T10:51:32Z</time>
      </trkpt>
      <trkpt lat="42.92998" lon="0.74924">
        <ele>1815.2</ele>
        <time>2020-02-23T10:51:33Z</time>
      </trkpt>
      <trkpt lat="42.92998" lon="0.74924">
        <ele>1815.2</ele>
        <time>2020-02-23T10:51:34Z</time>
      </trkpt>
      <trkpt lat="42.92998" lon="0.74924">
        <ele>1815.2</ele>
        <time>2020-02-23T10:51:35Z</time>
      </trkpt>
      <trkpt lat="42.92998" lon="0.74924">
        <ele>1815.2</ele>
        <time>2020-02-23T10:51:36Z</time>
      </trkpt>
      <trkpt lat="42.92998" lon="0.74924">
        <ele>1815.2</ele>
        <time>2020-02-23T10:51:37Z</time>
      </trkpt>
      <trkpt lat="42.92998" lon="0.74924">
        <ele>1815.2</ele>
        <time>2020-02-23T10:51:38Z</time>
      </trkpt>
      <trkpt lat="42.92998" lon="0.74924">
        <ele>1815.2</ele>
        <time>2020-02-23T10:51:39Z</time>
      </trkpt>
      <trkpt lat="42.92998" lon="0.74924">
        <ele>1815.2</ele>
        <time>2020-02-23T10:51:40Z</time>
      </trkpt>
      <trkpt lat="42.92998" lon="0.74924">
        <ele>1815.2</ele>
        <time>2020-02-23T10:51:41Z</time>
      </trkpt>
      <trkpt lat="42.92998" lon="0.74924">
        <ele>1815.2</ele>
        <time>2020-02-23T10:51:42Z</time>
      </trkpt>
      <trkpt lat="42.92998" lon="0.74924">
        <ele>1815.2</ele>
        <time>2020-02-23T10:51:43Z</time>
      </trkpt>
      <trkpt lat="42.92998" lon="0.74924">
        <ele>1815.2</ele>
        <time>2020-02-23T10:51:44Z</time>
      </trkpt>
      <trkpt lat="42.92998" lon="0.74927">
        <ele>1815.4</ele>
        <time>2020-02-23T10:51:45Z</time>
      </trkpt>
      <trkpt lat="42.92998" lon="0.74927">
        <ele>1815.4</ele>
        <time>2020-02-23T10:51:46Z</time>
      </trkpt>
      <trkpt lat="42.92998" lon="0.74927">
        <ele>1815.4</ele>
        <time>2020-02-23T10:51:47Z</time>
      </trkpt>
      <trkpt lat="42.92998" lon="0.74927">
        <ele>1815.4</ele>
        <time>2020-02-23T10:51:48Z</time>
      </trkpt>
      <trkpt lat="42.92998" lon="0.74927">
        <ele>1815.4</ele>
        <time>2020-02-23T10:51:49Z</time>
      </trkpt>
      <trkpt lat="42.92998" lon="0.74927">
        <ele>1815.4</ele>
        <time>2020-02-23T10:51:50Z</time>
      </trkpt>
      <trkpt lat="42.92998" lon="0.74927">
        <ele>1815.4</ele>
        <time>2020-02-23T10:51:51Z</time>
      </trkpt>
      <trkpt lat="42.92998" lon="0.74927">
        <ele>1815.4</ele>
        <time>2020-02-23T10:51:52Z</time>
      </trkpt>
      <trkpt lat="42.92998" lon="0.74927">
        <ele>1815.4</ele>
        <time>2020-02-23T10:51:53Z</time>
      </trkpt>
      <trkpt lat="42.92998" lon="0.74927">
        <ele>1815.4</ele>
        <time>2020-02-23T10:51:54Z</time>
      </trkpt>
      <trkpt lat="42.92998" lon="0.74927">
        <ele>1815.4</ele>
        <time>2020-02-23T10:51:55Z</time>
      </trkpt>
      <trkpt lat="42.92998" lon="0.74927">
        <ele>1815.4</ele>
        <time>2020-02-23T10:51:56Z</time>
      </trkpt>
      <trkpt lat="42.92998" lon="0.74927">
        <ele>1815.4</ele>
        <time>2020-02-23T10:51:57Z</time>
      </trkpt>
      <trkpt lat="42.93" lon="0.74928">
        <ele>1815.6</ele>
        <time>2020-02-23T10:51:58Z</time>
      </trkpt>
      <trkpt lat="42.93002" lon="0.74928">
        <ele>1815.8</ele>
        <time>2020-02-23T10:51:59Z</time>
      </trkpt>
      <trkpt lat="42.93002" lon="0.74928">
        <ele>1815.8</ele>
        <time>2020-02-23T10:52:00Z</time>
      </trkpt>
      <trkpt lat="42.93002" lon="0.74928">
        <ele>1815.8</ele>
        <time>2020-02-23T10:52:01Z</time>
      </trkpt>
      <trkpt lat="42.93002" lon="0.74928">
        <ele>1815.8</ele>
        <time>2020-02-23T10:52:02Z</time>
      </trkpt>
      <trkpt lat="42.93005" lon="0.74927">
        <ele>1816.1</ele>
        <time>2020-02-23T10:52:03Z</time>
      </trkpt>
      <trkpt lat="42.93007" lon="0.74926">
        <ele>1816.4</ele>
        <time>2020-02-23T10:52:04Z</time>
      </trkpt>
      <trkpt lat="42.93007" lon="0.74926">
        <ele>1816.4</ele>
        <time>2020-02-23T10:52:05Z</time>
      </trkpt>
      <trkpt lat="42.93009" lon="0.74925">
        <ele>1816.7</ele>
        <time>2020-02-23T10:52:06Z</time>
      </trkpt>
      <trkpt lat="42.93009" lon="0.74925">
        <ele>1816.7</ele>
        <time>2020-02-23T10:52:07Z</time>
      </trkpt>
      <trkpt lat="42.93009" lon="0.74925">
        <ele>1816.7</ele>
        <time>2020-02-23T10:52:08Z</time>
      </trkpt>
      <trkpt lat="42.93009" lon="0.74925">
        <ele>1816.7</ele>
        <time>2020-02-23T10:52:09Z</time>
      </trkpt>
      <trkpt lat="42.93011" lon="0.74924">
        <ele>1817.1</ele>
        <time>2020-02-23T10:52:10Z</time>
      </trkpt>
      <trkpt lat="42.93011" lon="0.74924">
        <ele>1817.1</ele>
        <time>2020-02-23T10:52:11Z</time>
      </trkpt>
      <trkpt lat="42.93011" lon="0.74924">
        <ele>1817.1</ele>
        <time>2020-02-23T10:52:12Z</time>
      </trkpt>
      <trkpt lat="42.93015" lon="0.74924">
        <ele>1817.8</ele>
        <time>2020-02-23T10:52:13Z</time>
      </trkpt>
      <trkpt lat="42.93015" lon="0.74924">
        <ele>1817.8</ele>
        <time>2020-02-23T10:52:14Z</time>
      </trkpt>
      <trkpt lat="42.93015" lon="0.74924">
        <ele>1817.8</ele>
        <time>2020-02-23T10:52:15Z</time>
      </trkpt>
      <trkpt lat="42.93015" lon="0.74924">
        <ele>1817.8</ele>
        <time>2020-02-23T10:52:16Z</time>
      </trkpt>
      <trkpt lat="42.93018" lon="0.74924">
        <ele>1818.4</ele>
        <time>2020-02-23T10:52:17Z</time>
      </trkpt>
      <trkpt lat="42.93018" lon="0.74924">
        <ele>1818.4</ele>
        <time>2020-02-23T10:52:18Z</time>
      </trkpt>
      <trkpt lat="42.93018" lon="0.74924">
        <ele>1818.4</ele>
        <time>2020-02-23T10:52:19Z</time>
      </trkpt>
      <trkpt lat="42.9302" lon="0.74923">
        <ele>1818.7</ele>
        <time>2020-02-23T10:52:20Z</time>
      </trkpt>
      <trkpt lat="42.9302" lon="0.74923">
        <ele>1818.7</ele>
        <time>2020-02-23T10:52:21Z</time>
      </trkpt>
      <trkpt lat="42.9302" lon="0.74923">
        <ele>1818.7</ele>
        <time>2020-02-23T10:52:22Z</time>
      </trkpt>
      <trkpt lat="42.9302" lon="0.74923">
        <ele>1818.7</ele>
        <time>2020-02-23T10:52:23Z</time>
      </trkpt>
      <trkpt lat="42.9302" lon="0.74923">
        <ele>1818.7</ele>
        <time>2020-02-23T10:52:24Z</time>
      </trkpt>
      <trkpt lat="42.93022" lon="0.74922">
        <ele>1819</ele>
        <time>2020-02-23T10:52:25Z</time>
      </trkpt>
      <trkpt lat="42.93022" lon="0.74922">
        <ele>1819</ele>
        <time>2020-02-23T10:52:26Z</time>
      </trkpt>
      <trkpt lat="42.93022" lon="0.74922">
        <ele>1819</ele>
        <time>2020-02-23T10:52:27Z</time>
      </trkpt>
      <trkpt lat="42.93024" lon="0.74922">
        <ele>1819.3</ele>
        <time>2020-02-23T10:52:28Z</time>
      </trkpt>
      <trkpt lat="42.93024" lon="0.74922">
        <ele>1819.3</ele>
        <time>2020-02-23T10:52:29Z</time>
      </trkpt>
      <trkpt lat="42.93024" lon="0.74922">
        <ele>1819.3</ele>
        <time>2020-02-23T10:52:30Z</time>
      </trkpt>
      <trkpt lat="42.93024" lon="0.74922">
        <ele>1819.3</ele>
        <time>2020-02-23T10:52:31Z</time>
      </trkpt>
      <trkpt lat="42.93024" lon="0.74922">
        <ele>1819.3</ele>
        <time>2020-02-23T10:52:32Z</time>
      </trkpt>
      <trkpt lat="42.93026" lon="0.74921">
        <ele>1819.5</ele>
        <time>2020-02-23T10:52:33Z</time>
      </trkpt>
      <trkpt lat="42.93026" lon="0.74921">
        <ele>1819.5</ele>
        <time>2020-02-23T10:52:34Z</time>
      </trkpt>
      <trkpt lat="42.93026" lon="0.74921">
        <ele>1819.5</ele>
        <time>2020-02-23T10:52:35Z</time>
      </trkpt>
      <trkpt lat="42.93026" lon="0.74921">
        <ele>1819.5</ele>
        <time>2020-02-23T10:52:36Z</time>
      </trkpt>
      <trkpt lat="42.93028" lon="0.74921">
        <ele>1819.8</ele>
        <time>2020-02-23T10:52:37Z</time>
      </trkpt>
      <trkpt lat="42.93028" lon="0.74921">
        <ele>1819.8</ele>
        <time>2020-02-23T10:52:38Z</time>
      </trkpt>
      <trkpt lat="42.93028" lon="0.74921">
        <ele>1819.8</ele>
        <time>2020-02-23T10:52:39Z</time>
      </trkpt>
      <trkpt lat="42.93028" lon="0.74921">
        <ele>1819.8</ele>
        <time>2020-02-23T10:52:40Z</time>
      </trkpt>
      <trkpt lat="42.93028" lon="0.74921">
        <ele>1819.8</ele>
        <time>2020-02-23T10:52:41Z</time>
      </trkpt>
      <trkpt lat="42.9303" lon="0.7492">
        <ele>1820.1</ele>
        <time>2020-02-23T10:52:42Z</time>
      </trkpt>
      <trkpt lat="42.9303" lon="0.7492">
        <ele>1820.1</ele>
        <time>2020-02-23T10:52:43Z</time>
      </trkpt>
      <trkpt lat="42.93032" lon="0.74918">
        <ele>1820.3</ele>
        <time>2020-02-23T10:52:44Z</time>
      </trkpt>
      <trkpt lat="42.93032" lon="0.74918">
        <ele>1820.3</ele>
        <time>2020-02-23T10:52:45Z</time>
      </trkpt>
      <trkpt lat="42.93032" lon="0.74918">
        <ele>1820.3</ele>
        <time>2020-02-23T10:52:46Z</time>
      </trkpt>
      <trkpt lat="42.93034" lon="0.74916">
        <ele>1820.7</ele>
        <time>2020-02-23T10:52:47Z</time>
      </trkpt>
      <trkpt lat="42.93034" lon="0.74916">
        <ele>1820.7</ele>
        <time>2020-02-23T10:52:48Z</time>
      </trkpt>
      <trkpt lat="42.93035" lon="0.74915">
        <ele>1821</ele>
        <time>2020-02-23T10:52:49Z</time>
      </trkpt>
      <trkpt lat="42.93037" lon="0.74914">
        <ele>1821.4</ele>
        <time>2020-02-23T10:52:50Z</time>
      </trkpt>
      <trkpt lat="42.93037" lon="0.74914">
        <ele>1821.4</ele>
        <time>2020-02-23T10:52:51Z</time>
      </trkpt>
      <trkpt lat="42.93039" lon="0.74913">
        <ele>1821.8</ele>
        <time>2020-02-23T10:52:52Z</time>
      </trkpt>
      <trkpt lat="42.93039" lon="0.74913">
        <ele>1821.8</ele>
        <time>2020-02-23T10:52:53Z</time>
      </trkpt>
      <trkpt lat="42.93039" lon="0.74913">
        <ele>1821.8</ele>
        <time>2020-02-23T10:52:54Z</time>
      </trkpt>
      <trkpt lat="42.93041" lon="0.74913">
        <ele>1822.2</ele>
        <time>2020-02-23T10:52:55Z</time>
      </trkpt>
      <trkpt lat="42.93041" lon="0.74913">
        <ele>1822.2</ele>
        <time>2020-02-23T10:52:56Z</time>
      </trkpt>
      <trkpt lat="42.93041" lon="0.74913">
        <ele>1822.2</ele>
        <time>2020-02-23T10:52:57Z</time>
      </trkpt>
      <trkpt lat="42.93041" lon="0.74913">
        <ele>1822.2</ele>
        <time>2020-02-23T10:52:58Z</time>
      </trkpt>
      <trkpt lat="42.93044" lon="0.74912">
        <ele>1822.8</ele>
        <time>2020-02-23T10:52:59Z</time>
      </trkpt>
      <trkpt lat="42.93044" lon="0.74912">
        <ele>1822.8</ele>
        <time>2020-02-23T10:53:00Z</time>
      </trkpt>
      <trkpt lat="42.93044" lon="0.74912">
        <ele>1822.8</ele>
        <time>2020-02-23T10:53:01Z</time>
      </trkpt>
      <trkpt lat="42.93044" lon="0.74912">
        <ele>1822.8</ele>
        <time>2020-02-23T10:53:02Z</time>
      </trkpt>
      <trkpt lat="42.93046" lon="0.74911">
        <ele>1823.2</ele>
        <time>2020-02-23T10:53:03Z</time>
      </trkpt>
      <trkpt lat="42.93046" lon="0.74911">
        <ele>1823.2</ele>
        <time>2020-02-23T10:53:04Z</time>
      </trkpt>
      <trkpt lat="42.93046" lon="0.74911">
        <ele>1823.2</ele>
        <time>2020-02-23T10:53:05Z</time>
      </trkpt>
      <trkpt lat="42.93046" lon="0.74911">
        <ele>1823.2</ele>
        <time>2020-02-23T10:53:06Z</time>
      </trkpt>
      <trkpt lat="42.93046" lon="0.74911">
        <ele>1823.2</ele>
        <time>2020-02-23T10:53:07Z</time>
      </trkpt>
      <trkpt lat="42.93047" lon="0.74909">
        <ele>1823.7</ele>
        <time>2020-02-23T10:53:08Z</time>
      </trkpt>
      <trkpt lat="42.93047" lon="0.74909">
        <ele>1823.7</ele>
        <time>2020-02-23T10:53:09Z</time>
      </trkpt>
      <trkpt lat="42.93047" lon="0.74909">
        <ele>1823.7</ele>
        <time>2020-02-23T10:53:10Z</time>
      </trkpt>
      <trkpt lat="42.93047" lon="0.74909">
        <ele>1823.7</ele>
        <time>2020-02-23T10:53:11Z</time>
      </trkpt>
      <trkpt lat="42.93047" lon="0.74909">
        <ele>1823.7</ele>
        <time>2020-02-23T10:53:12Z</time>
      </trkpt>
      <trkpt lat="42.93047" lon="0.74909">
        <ele>1823.7</ele>
        <time>2020-02-23T10:53:13Z</time>
      </trkpt>
      <trkpt lat="42.93049" lon="0.74906">
        <ele>1824.2</ele>
        <time>2020-02-23T10:53:14Z</time>
      </trkpt>
      <trkpt lat="42.93049" lon="0.74906">
        <ele>1824.2</ele>
        <time>2020-02-23T10:53:15Z</time>
      </trkpt>
      <trkpt lat="42.9305" lon="0.74904">
        <ele>1824.8</ele>
        <time>2020-02-23T10:53:16Z</time>
      </trkpt>
      <trkpt lat="42.9305" lon="0.74904">
        <ele>1824.8</ele>
        <time>2020-02-23T10:53:17Z</time>
      </trkpt>
      <trkpt lat="42.9305" lon="0.74904">
        <ele>1824.8</ele>
        <time>2020-02-23T10:53:18Z</time>
      </trkpt>
      <trkpt lat="42.93052" lon="0.74902">
        <ele>1825.3</ele>
        <time>2020-02-23T10:53:19Z</time>
      </trkpt>
      <trkpt lat="42.93052" lon="0.74902">
        <ele>1825.3</ele>
        <time>2020-02-23T10:53:20Z</time>
      </trkpt>
      <trkpt lat="42.93052" lon="0.74902">
        <ele>1825.3</ele>
        <time>2020-02-23T10:53:21Z</time>
      </trkpt>
      <trkpt lat="42.93052" lon="0.74902">
        <ele>1825.3</ele>
        <time>2020-02-23T10:53:22Z</time>
      </trkpt>
      <trkpt lat="42.93053" lon="0.749">
        <ele>1825.8</ele>
        <time>2020-02-23T10:53:23Z</time>
      </trkpt>
      <trkpt lat="42.93053" lon="0.749">
        <ele>1825.8</ele>
        <time>2020-02-23T10:53:24Z</time>
      </trkpt>
      <trkpt lat="42.93053" lon="0.749">
        <ele>1825.8</ele>
        <time>2020-02-23T10:53:25Z</time>
      </trkpt>
      <trkpt lat="42.93056" lon="0.74898">
        <ele>1826.4</ele>
        <time>2020-02-23T10:53:26Z</time>
      </trkpt>
      <trkpt lat="42.93056" lon="0.74898">
        <ele>1826.4</ele>
        <time>2020-02-23T10:53:27Z</time>
      </trkpt>
      <trkpt lat="42.93056" lon="0.74898">
        <ele>1826.4</ele>
        <time>2020-02-23T10:53:28Z</time>
      </trkpt>
      <trkpt lat="42.93057" lon="0.74897">
        <ele>1826.8</ele>
        <time>2020-02-23T10:53:29Z</time>
      </trkpt>
      <trkpt lat="42.93057" lon="0.74897">
        <ele>1826.8</ele>
        <time>2020-02-23T10:53:30Z</time>
      </trkpt>
      <trkpt lat="42.93057" lon="0.74897">
        <ele>1826.8</ele>
        <time>2020-02-23T10:53:31Z</time>
      </trkpt>
      <trkpt lat="42.93057" lon="0.74897">
        <ele>1826.8</ele>
        <time>2020-02-23T10:53:32Z</time>
      </trkpt>
      <trkpt lat="42.93057" lon="0.74897">
        <ele>1826.8</ele>
        <time>2020-02-23T10:53:33Z</time>
      </trkpt>
      <trkpt lat="42.93059" lon="0.74895">
        <ele>1827.2</ele>
        <time>2020-02-23T10:53:34Z</time>
      </trkpt>
      <trkpt lat="42.93059" lon="0.74895">
        <ele>1827.2</ele>
        <time>2020-02-23T10:53:35Z</time>
      </trkpt>
      <trkpt lat="42.93059" lon="0.74895">
        <ele>1827.2</ele>
        <time>2020-02-23T10:53:36Z</time>
      </trkpt>
      <trkpt lat="42.93059" lon="0.74895">
        <ele>1827.2</ele>
        <time>2020-02-23T10:53:37Z</time>
      </trkpt>
      <trkpt lat="42.93059" lon="0.74895">
        <ele>1827.2</ele>
        <time>2020-02-23T10:53:38Z</time>
      </trkpt>
      <trkpt lat="42.93059" lon="0.74895">
        <ele>1827.2</ele>
        <time>2020-02-23T10:53:39Z</time>
      </trkpt>
      <trkpt lat="42.93059" lon="0.74895">
        <ele>1827.2</ele>
        <time>2020-02-23T10:53:40Z</time>
      </trkpt>
      <trkpt lat="42.93059" lon="0.74895">
        <ele>1827.2</ele>
        <time>2020-02-23T10:53:41Z</time>
      </trkpt>
      <trkpt lat="42.93058" lon="0.74893">
        <ele>1827.6</ele>
        <time>2020-02-23T10:53:42Z</time>
      </trkpt>
      <trkpt lat="42.93058" lon="0.74893">
        <ele>1827.6</ele>
        <time>2020-02-23T10:53:43Z</time>
      </trkpt>
      <trkpt lat="42.93058" lon="0.74893">
        <ele>1827.6</ele>
        <time>2020-02-23T10:53:44Z</time>
      </trkpt>
      <trkpt lat="42.93058" lon="0.74893">
        <ele>1827.6</ele>
        <time>2020-02-23T10:53:45Z</time>
      </trkpt>
      <trkpt lat="42.93058" lon="0.74893">
        <ele>1827.6</ele>
        <time>2020-02-23T10:53:46Z</time>
      </trkpt>
      <trkpt lat="42.93058" lon="0.74893">
        <ele>1827.6</ele>
        <time>2020-02-23T10:53:47Z</time>
      </trkpt>
      <trkpt lat="42.93058" lon="0.74893">
        <ele>1827.6</ele>
        <time>2020-02-23T10:53:48Z</time>
      </trkpt>
      <trkpt lat="42.93058" lon="0.74893">
        <ele>1827.6</ele>
        <time>2020-02-23T10:53:49Z</time>
      </trkpt>
      <trkpt lat="42.93058" lon="0.74893">
        <ele>1827.6</ele>
        <time>2020-02-23T10:53:50Z</time>
      </trkpt>
      <trkpt lat="42.93058" lon="0.74893">
        <ele>1827.6</ele>
        <time>2020-02-23T10:53:51Z</time>
      </trkpt>
      <trkpt lat="42.93058" lon="0.74893">
        <ele>1827.6</ele>
        <time>2020-02-23T10:53:52Z</time>
      </trkpt>
      <trkpt lat="42.93058" lon="0.74893">
        <ele>1827.6</ele>
        <time>2020-02-23T10:53:53Z</time>
      </trkpt>
      <trkpt lat="42.93058" lon="0.74893">
        <ele>1827.6</ele>
        <time>2020-02-23T10:53:54Z</time>
      </trkpt>
      <trkpt lat="42.93058" lon="0.74893">
        <ele>1827.6</ele>
        <time>2020-02-23T10:53:55Z</time>
      </trkpt>
      <trkpt lat="42.93058" lon="0.74893">
        <ele>1827.6</ele>
        <time>2020-02-23T10:53:56Z</time>
      </trkpt>
      <trkpt lat="42.93058" lon="0.74893">
        <ele>1827.6</ele>
        <time>2020-02-23T10:53:57Z</time>
      </trkpt>
      <trkpt lat="42.93058" lon="0.74893">
        <ele>1827.6</ele>
        <time>2020-02-23T10:53:58Z</time>
      </trkpt>
      <trkpt lat="42.93058" lon="0.74893">
        <ele>1827.6</ele>
        <time>2020-02-23T10:53:59Z</time>
      </trkpt>
      <trkpt lat="42.93058" lon="0.74893">
        <ele>1827.6</ele>
        <time>2020-02-23T10:54:00Z</time>
      </trkpt>
      <trkpt lat="42.93058" lon="0.74893">
        <ele>1827.6</ele>
        <time>2020-02-23T10:54:01Z</time>
      </trkpt>
      <trkpt lat="42.93058" lon="0.74893">
        <ele>1827.6</ele>
        <time>2020-02-23T10:54:02Z</time>
      </trkpt>
      <trkpt lat="42.93058" lon="0.74893">
        <ele>1827.6</ele>
        <time>2020-02-23T10:54:03Z</time>
      </trkpt>
      <trkpt lat="42.93058" lon="0.74893">
        <ele>1827.6</ele>
        <time>2020-02-23T10:54:04Z</time>
      </trkpt>
      <trkpt lat="42.93058" lon="0.74893">
        <ele>1827.6</ele>
        <time>2020-02-23T10:54:05Z</time>
      </trkpt>
      <trkpt lat="42.93058" lon="0.74893">
        <ele>1827.6</ele>
        <time>2020-02-23T10:54:06Z</time>
      </trkpt>
      <trkpt lat="42.93058" lon="0.74893">
        <ele>1827.6</ele>
        <time>2020-02-23T10:54:07Z</time>
      </trkpt>
      <trkpt lat="42.93058" lon="0.74893">
        <ele>1827.6</ele>
        <time>2020-02-23T10:54:08Z</time>
      </trkpt>
      <trkpt lat="42.93058" lon="0.74893">
        <ele>1827.6</ele>
        <time>2020-02-23T10:54:09Z</time>
      </trkpt>
      <trkpt lat="42.93058" lon="0.74893">
        <ele>1827.6</ele>
        <time>2020-02-23T10:54:10Z</time>
      </trkpt>
      <trkpt lat="42.93058" lon="0.74893">
        <ele>1827.6</ele>
        <time>2020-02-23T10:54:11Z</time>
      </trkpt>
      <trkpt lat="42.93058" lon="0.74893">
        <ele>1827.6</ele>
        <time>2020-02-23T10:54:12Z</time>
      </trkpt>
      <trkpt lat="42.93058" lon="0.7489">
        <ele>1827.7</ele>
        <time>2020-02-23T10:54:13Z</time>
      </trkpt>
      <trkpt lat="42.93058" lon="0.7489">
        <ele>1827.7</ele>
        <time>2020-02-23T10:54:14Z</time>
      </trkpt>
      <trkpt lat="42.93058" lon="0.7489">
        <ele>1827.7</ele>
        <time>2020-02-23T10:54:15Z</time>
      </trkpt>
      <trkpt lat="42.93058" lon="0.7489">
        <ele>1827.7</ele>
        <time>2020-02-23T10:54:16Z</time>
      </trkpt>
      <trkpt lat="42.93058" lon="0.7489">
        <ele>1827.7</ele>
        <time>2020-02-23T10:54:17Z</time>
      </trkpt>
      <trkpt lat="42.93058" lon="0.7489">
        <ele>1827.7</ele>
        <time>2020-02-23T10:54:18Z</time>
      </trkpt>
      <trkpt lat="42.93058" lon="0.7489">
        <ele>1827.7</ele>
        <time>2020-02-23T10:54:19Z</time>
      </trkpt>
      <trkpt lat="42.93058" lon="0.7489">
        <ele>1827.7</ele>
        <time>2020-02-23T10:54:20Z</time>
      </trkpt>
      <trkpt lat="42.93058" lon="0.7489">
        <ele>1827.7</ele>
        <time>2020-02-23T10:54:21Z</time>
      </trkpt>
      <trkpt lat="42.93058" lon="0.7489">
        <ele>1827.7</ele>
        <time>2020-02-23T10:54:22Z</time>
      </trkpt>
      <trkpt lat="42.93058" lon="0.7489">
        <ele>1827.7</ele>
        <time>2020-02-23T10:54:23Z</time>
      </trkpt>
      <trkpt lat="42.93058" lon="0.7489">
        <ele>1827.7</ele>
        <time>2020-02-23T10:54:24Z</time>
      </trkpt>
      <trkpt lat="42.93058" lon="0.7489">
        <ele>1827.7</ele>
        <time>2020-02-23T10:54:25Z</time>
      </trkpt>
      <trkpt lat="42.93058" lon="0.7489">
        <ele>1827.7</ele>
        <time>2020-02-23T10:54:26Z</time>
      </trkpt>
      <trkpt lat="42.93058" lon="0.74888">
        <ele>1827.7</ele>
        <time>2020-02-23T10:54:27Z</time>
      </trkpt>
      <trkpt lat="42.93058" lon="0.74888">
        <ele>1827.7</ele>
        <time>2020-02-23T10:54:28Z</time>
      </trkpt>
      <trkpt lat="42.93058" lon="0.74888">
        <ele>1827.7</ele>
        <time>2020-02-23T10:54:29Z</time>
      </trkpt>
      <trkpt lat="42.93058" lon="0.74888">
        <ele>1827.7</ele>
        <time>2020-02-23T10:54:30Z</time>
      </trkpt>
      <trkpt lat="42.93058" lon="0.74888">
        <ele>1827.7</ele>
        <time>2020-02-23T10:54:31Z</time>
      </trkpt>
      <trkpt lat="42.93058" lon="0.74888">
        <ele>1827.7</ele>
        <time>2020-02-23T10:54:32Z</time>
      </trkpt>
      <trkpt lat="42.93058" lon="0.74888">
        <ele>1827.7</ele>
        <time>2020-02-23T10:54:33Z</time>
      </trkpt>
      <trkpt lat="42.93058" lon="0.74888">
        <ele>1827.7</ele>
        <time>2020-02-23T10:54:34Z</time>
      </trkpt>
      <trkpt lat="42.93058" lon="0.74888">
        <ele>1827.7</ele>
        <time>2020-02-23T10:54:35Z</time>
      </trkpt>
      <trkpt lat="42.93058" lon="0.74888">
        <ele>1827.7</ele>
        <time>2020-02-23T10:54:36Z</time>
      </trkpt>
      <trkpt lat="42.93058" lon="0.74888">
        <ele>1827.7</ele>
        <time>2020-02-23T10:54:37Z</time>
      </trkpt>
      <trkpt lat="42.93058" lon="0.74888">
        <ele>1827.7</ele>
        <time>2020-02-23T10:54:38Z</time>
      </trkpt>
      <trkpt lat="42.93058" lon="0.74888">
        <ele>1827.7</ele>
        <time>2020-02-23T10:54:39Z</time>
      </trkpt>
      <trkpt lat="42.93058" lon="0.74888">
        <ele>1827.7</ele>
        <time>2020-02-23T10:54:40Z</time>
      </trkpt>
      <trkpt lat="42.93058" lon="0.74888">
        <ele>1827.7</ele>
        <time>2020-02-23T10:54:41Z</time>
      </trkpt>
      <trkpt lat="42.93058" lon="0.74888">
        <ele>1827.7</ele>
        <time>2020-02-23T10:54:42Z</time>
      </trkpt>
      <trkpt lat="42.93058" lon="0.74888">
        <ele>1827.7</ele>
        <time>2020-02-23T10:54:43Z</time>
      </trkpt>
      <trkpt lat="42.93058" lon="0.74888">
        <ele>1827.7</ele>
        <time>2020-02-23T10:54:44Z</time>
      </trkpt>
      <trkpt lat="42.93058" lon="0.74888">
        <ele>1827.7</ele>
        <time>2020-02-23T10:54:45Z</time>
      </trkpt>
      <trkpt lat="42.93058" lon="0.74888">
        <ele>1827.7</ele>
        <time>2020-02-23T10:54:46Z</time>
      </trkpt>
      <trkpt lat="42.93058" lon="0.74888">
        <ele>1827.7</ele>
        <time>2020-02-23T10:54:47Z</time>
      </trkpt>
      <trkpt lat="42.93058" lon="0.74888">
        <ele>1827.7</ele>
        <time>2020-02-23T10:54:48Z</time>
      </trkpt>
      <trkpt lat="42.93058" lon="0.74888">
        <ele>1827.7</ele>
        <time>2020-02-23T10:54:49Z</time>
      </trkpt>
      <trkpt lat="42.93058" lon="0.74888">
        <ele>1827.7</ele>
        <time>2020-02-23T10:54:50Z</time>
      </trkpt>
      <trkpt lat="42.93058" lon="0.74888">
        <ele>1827.7</ele>
        <time>2020-02-23T10:54:51Z</time>
      </trkpt>
      <trkpt lat="42.93058" lon="0.74888">
        <ele>1827.7</ele>
        <time>2020-02-23T10:54:52Z</time>
      </trkpt>
      <trkpt lat="42.93058" lon="0.74888">
        <ele>1827.7</ele>
        <time>2020-02-23T10:54:53Z</time>
      </trkpt>
      <trkpt lat="42.93058" lon="0.74888">
        <ele>1827.7</ele>
        <time>2020-02-23T10:54:54Z</time>
      </trkpt>
      <trkpt lat="42.93058" lon="0.74888">
        <ele>1827.7</ele>
        <time>2020-02-23T10:54:55Z</time>
      </trkpt>
      <trkpt lat="42.93057" lon="0.74885">
        <ele>1827.8</ele>
        <time>2020-02-23T10:54:56Z</time>
      </trkpt>
      <trkpt lat="42.93057" lon="0.74885">
        <ele>1827.8</ele>
        <time>2020-02-23T10:54:57Z</time>
      </trkpt>
      <trkpt lat="42.93057" lon="0.74885">
        <ele>1827.8</ele>
        <time>2020-02-23T10:54:58Z</time>
      </trkpt>
      <trkpt lat="42.93057" lon="0.74885">
        <ele>1827.8</ele>
        <time>2020-02-23T10:54:59Z</time>
      </trkpt>
      <trkpt lat="42.93057" lon="0.74885">
        <ele>1827.8</ele>
        <time>2020-02-23T10:55:00Z</time>
      </trkpt>
      <trkpt lat="42.93057" lon="0.74885">
        <ele>1827.8</ele>
        <time>2020-02-23T10:55:01Z</time>
      </trkpt>
      <trkpt lat="42.93057" lon="0.74885">
        <ele>1827.8</ele>
        <time>2020-02-23T10:55:02Z</time>
      </trkpt>
      <trkpt lat="42.93057" lon="0.74885">
        <ele>1827.8</ele>
        <time>2020-02-23T10:55:03Z</time>
      </trkpt>
      <trkpt lat="42.93057" lon="0.74885">
        <ele>1827.8</ele>
        <time>2020-02-23T10:55:04Z</time>
      </trkpt>
      <trkpt lat="42.93057" lon="0.74885">
        <ele>1827.8</ele>
        <time>2020-02-23T10:55:05Z</time>
      </trkpt>
      <trkpt lat="42.93057" lon="0.74885">
        <ele>1827.8</ele>
        <time>2020-02-23T10:55:06Z</time>
      </trkpt>
      <trkpt lat="42.93057" lon="0.74885">
        <ele>1827.8</ele>
        <time>2020-02-23T10:55:07Z</time>
      </trkpt>
      <trkpt lat="42.93057" lon="0.74885">
        <ele>1827.8</ele>
        <time>2020-02-23T10:55:08Z</time>
      </trkpt>
      <trkpt lat="42.93057" lon="0.74885">
        <ele>1827.8</ele>
        <time>2020-02-23T10:55:09Z</time>
      </trkpt>
      <trkpt lat="42.93057" lon="0.74885">
        <ele>1827.8</ele>
        <time>2020-02-23T10:55:10Z</time>
      </trkpt>
      <trkpt lat="42.93057" lon="0.74885">
        <ele>1827.8</ele>
        <time>2020-02-23T10:55:11Z</time>
      </trkpt>
      <trkpt lat="42.93057" lon="0.74885">
        <ele>1827.8</ele>
        <time>2020-02-23T10:55:12Z</time>
      </trkpt>
      <trkpt lat="42.93056" lon="0.74884">
        <ele>1827</ele>
        <time>2020-02-23T10:55:13Z</time>
      </trkpt>
      <trkpt lat="42.93056" lon="0.74884">
        <ele>1827</ele>
        <time>2020-02-23T10:55:14Z</time>
      </trkpt>
      <trkpt lat="42.93056" lon="0.74884">
        <ele>1827</ele>
        <time>2020-02-23T10:55:15Z</time>
      </trkpt>
      <trkpt lat="42.93054" lon="0.74883">
        <ele>1826.9</ele>
        <time>2020-02-23T10:55:16Z</time>
      </trkpt>
      <trkpt lat="42.93054" lon="0.74883">
        <ele>1826.9</ele>
        <time>2020-02-23T10:55:17Z</time>
      </trkpt>
      <trkpt lat="42.93054" lon="0.74883">
        <ele>1826.9</ele>
        <time>2020-02-23T10:55:18Z</time>
      </trkpt>
      <trkpt lat="42.93052" lon="0.74882">
        <ele>1826.1</ele>
        <time>2020-02-23T10:55:19Z</time>
      </trkpt>
      <trkpt lat="42.93052" lon="0.74882">
        <ele>1826.1</ele>
        <time>2020-02-23T10:55:20Z</time>
      </trkpt>
      <trkpt lat="42.93052" lon="0.74882">
        <ele>1826.1</ele>
        <time>2020-02-23T10:55:21Z</time>
      </trkpt>
      <trkpt lat="42.9305" lon="0.74882">
        <ele>1825.3</ele>
        <time>2020-02-23T10:55:22Z</time>
      </trkpt>
      <trkpt lat="42.9305" lon="0.74882">
        <ele>1825.3</ele>
        <time>2020-02-23T10:55:23Z</time>
      </trkpt>
      <trkpt lat="42.9305" lon="0.74882">
        <ele>1825.3</ele>
        <time>2020-02-23T10:55:24Z</time>
      </trkpt>
      <trkpt lat="42.93048" lon="0.7488">
        <ele>1825.3</ele>
        <time>2020-02-23T10:55:25Z</time>
      </trkpt>
      <trkpt lat="42.93048" lon="0.7488">
        <ele>1825.3</ele>
        <time>2020-02-23T10:55:26Z</time>
      </trkpt>
      <trkpt lat="42.93047" lon="0.74878">
        <ele>1825.2</ele>
        <time>2020-02-23T10:55:27Z</time>
      </trkpt>
      <trkpt lat="42.93047" lon="0.74878">
        <ele>1825.2</ele>
        <time>2020-02-23T10:55:28Z</time>
      </trkpt>
      <trkpt lat="42.93047" lon="0.74878">
        <ele>1825.2</ele>
        <time>2020-02-23T10:55:29Z</time>
      </trkpt>
      <trkpt lat="42.93047" lon="0.74874">
        <ele>1824.2</ele>
        <time>2020-02-23T10:55:30Z</time>
      </trkpt>
      <trkpt lat="42.93047" lon="0.74874">
        <ele>1824.2</ele>
        <time>2020-02-23T10:55:31Z</time>
      </trkpt>
      <trkpt lat="42.93047" lon="0.74874">
        <ele>1824.2</ele>
        <time>2020-02-23T10:55:32Z</time>
      </trkpt>
      <trkpt lat="42.93046" lon="0.74871">
        <ele>1824.2</ele>
        <time>2020-02-23T10:55:33Z</time>
      </trkpt>
      <trkpt lat="42.93046" lon="0.74871">
        <ele>1824.2</ele>
        <time>2020-02-23T10:55:34Z</time>
      </trkpt>
      <trkpt lat="42.93046" lon="0.74871">
        <ele>1824.2</ele>
        <time>2020-02-23T10:55:35Z</time>
      </trkpt>
      <trkpt lat="42.93046" lon="0.74871">
        <ele>1824.2</ele>
        <time>2020-02-23T10:55:36Z</time>
      </trkpt>
      <trkpt lat="42.93045" lon="0.7487">
        <ele>1824.2</ele>
        <time>2020-02-23T10:55:37Z</time>
      </trkpt>
      <trkpt lat="42.93045" lon="0.7487">
        <ele>1824.2</ele>
        <time>2020-02-23T10:55:38Z</time>
      </trkpt>
      <trkpt lat="42.93043" lon="0.74869">
        <ele>1823.2</ele>
        <time>2020-02-23T10:55:39Z</time>
      </trkpt>
      <trkpt lat="42.93043" lon="0.74869">
        <ele>1823.2</ele>
        <time>2020-02-23T10:55:40Z</time>
      </trkpt>
      <trkpt lat="42.93042" lon="0.74867">
        <ele>1823.2</ele>
        <time>2020-02-23T10:55:41Z</time>
      </trkpt>
      <trkpt lat="42.93042" lon="0.74867">
        <ele>1823.2</ele>
        <time>2020-02-23T10:55:42Z</time>
      </trkpt>
      <trkpt lat="42.93042" lon="0.74867">
        <ele>1823.2</ele>
        <time>2020-02-23T10:55:43Z</time>
      </trkpt>
      <trkpt lat="42.93041" lon="0.74864">
        <ele>1822</ele>
        <time>2020-02-23T10:55:44Z</time>
      </trkpt>
      <trkpt lat="42.93041" lon="0.74864">
        <ele>1822</ele>
        <time>2020-02-23T10:55:45Z</time>
      </trkpt>
      <trkpt lat="42.93041" lon="0.74862">
        <ele>1822</ele>
        <time>2020-02-23T10:55:46Z</time>
      </trkpt>
      <trkpt lat="42.93041" lon="0.74862">
        <ele>1822</ele>
        <time>2020-02-23T10:55:47Z</time>
      </trkpt>
      <trkpt lat="42.93041" lon="0.74862">
        <ele>1822</ele>
        <time>2020-02-23T10:55:48Z</time>
      </trkpt>
      <trkpt lat="42.93041" lon="0.74862">
        <ele>1822</ele>
        <time>2020-02-23T10:55:49Z</time>
      </trkpt>
      <trkpt lat="42.93041" lon="0.74862">
        <ele>1822</ele>
        <time>2020-02-23T10:55:50Z</time>
      </trkpt>
      <trkpt lat="42.93039" lon="0.74859">
        <ele>1821.5</ele>
        <time>2020-02-23T10:55:51Z</time>
      </trkpt>
      <trkpt lat="42.93039" lon="0.74859">
        <ele>1821.5</ele>
        <time>2020-02-23T10:55:52Z</time>
      </trkpt>
      <trkpt lat="42.93039" lon="0.74859">
        <ele>1821.5</ele>
        <time>2020-02-23T10:55:53Z</time>
      </trkpt>
      <trkpt lat="42.93038" lon="0.74857">
        <ele>1821</ele>
        <time>2020-02-23T10:55:54Z</time>
      </trkpt>
      <trkpt lat="42.93038" lon="0.74857">
        <ele>1821</ele>
        <time>2020-02-23T10:55:55Z</time>
      </trkpt>
      <trkpt lat="42.93036" lon="0.74856">
        <ele>1820.1</ele>
        <time>2020-02-23T10:55:56Z</time>
      </trkpt>
      <trkpt lat="42.93036" lon="0.74856">
        <ele>1820.1</ele>
        <time>2020-02-23T10:55:57Z</time>
      </trkpt>
      <trkpt lat="42.93036" lon="0.74856">
        <ele>1820.1</ele>
        <time>2020-02-23T10:55:58Z</time>
      </trkpt>
      <trkpt lat="42.93036" lon="0.74856">
        <ele>1820.1</ele>
        <time>2020-02-23T10:55:59Z</time>
      </trkpt>
      <trkpt lat="42.93036" lon="0.74852">
        <ele>1819.6</ele>
        <time>2020-02-23T10:56:00Z</time>
      </trkpt>
      <trkpt lat="42.93036" lon="0.74852">
        <ele>1819.6</ele>
        <time>2020-02-23T10:56:01Z</time>
      </trkpt>
      <trkpt lat="42.93036" lon="0.74852">
        <ele>1819.6</ele>
        <time>2020-02-23T10:56:02Z</time>
      </trkpt>
      <trkpt lat="42.93036" lon="0.74852">
        <ele>1819.6</ele>
        <time>2020-02-23T10:56:03Z</time>
      </trkpt>
      <trkpt lat="42.93037" lon="0.74849">
        <ele>1819.6</ele>
        <time>2020-02-23T10:56:04Z</time>
      </trkpt>
      <trkpt lat="42.93037" lon="0.74849">
        <ele>1819.6</ele>
        <time>2020-02-23T10:56:05Z</time>
      </trkpt>
      <trkpt lat="42.93038" lon="0.74846">
        <ele>1819.9</ele>
        <time>2020-02-23T10:56:06Z</time>
      </trkpt>
      <trkpt lat="42.93039" lon="0.74843">
        <ele>1819.3</ele>
        <time>2020-02-23T10:56:07Z</time>
      </trkpt>
      <trkpt lat="42.93039" lon="0.74843">
        <ele>1819.3</ele>
        <time>2020-02-23T10:56:08Z</time>
      </trkpt>
      <trkpt lat="42.93039" lon="0.74843">
        <ele>1819.3</ele>
        <time>2020-02-23T10:56:09Z</time>
      </trkpt>
      <trkpt lat="42.93038" lon="0.7484">
        <ele>1818.4</ele>
        <time>2020-02-23T10:56:10Z</time>
      </trkpt>
      <trkpt lat="42.93038" lon="0.7484">
        <ele>1818.4</ele>
        <time>2020-02-23T10:56:11Z</time>
      </trkpt>
      <trkpt lat="42.93038" lon="0.7484">
        <ele>1818.4</ele>
        <time>2020-02-23T10:56:12Z</time>
      </trkpt>
      <trkpt lat="42.93037" lon="0.74838">
        <ele>1817.8</ele>
        <time>2020-02-23T10:56:13Z</time>
      </trkpt>
      <trkpt lat="42.93037" lon="0.74838">
        <ele>1817.8</ele>
        <time>2020-02-23T10:56:14Z</time>
      </trkpt>
      <trkpt lat="42.93035" lon="0.74836">
        <ele>1817.8</ele>
        <time>2020-02-23T10:56:15Z</time>
      </trkpt>
      <trkpt lat="42.93035" lon="0.74836">
        <ele>1817.8</ele>
        <time>2020-02-23T10:56:16Z</time>
      </trkpt>
      <trkpt lat="42.93035" lon="0.74836">
        <ele>1817.8</ele>
        <time>2020-02-23T10:56:17Z</time>
      </trkpt>
      <trkpt lat="42.93033" lon="0.74835">
        <ele>1816.1</ele>
        <time>2020-02-23T10:56:18Z</time>
      </trkpt>
      <trkpt lat="42.93031" lon="0.74832">
        <ele>1815</ele>
        <time>2020-02-23T10:56:19Z</time>
      </trkpt>
      <trkpt lat="42.93031" lon="0.74832">
        <ele>1815</ele>
        <time>2020-02-23T10:56:20Z</time>
      </trkpt>
      <trkpt lat="42.93031" lon="0.74832">
        <ele>1815</ele>
        <time>2020-02-23T10:56:21Z</time>
      </trkpt>
      <trkpt lat="42.9303" lon="0.7483">
        <ele>1814.3</ele>
        <time>2020-02-23T10:56:22Z</time>
      </trkpt>
      <trkpt lat="42.9303" lon="0.7483">
        <ele>1814.3</ele>
        <time>2020-02-23T10:56:23Z</time>
      </trkpt>
      <trkpt lat="42.93028" lon="0.7483">
        <ele>1813.1</ele>
        <time>2020-02-23T10:56:24Z</time>
      </trkpt>
      <trkpt lat="42.93026" lon="0.74829">
        <ele>1813.1</ele>
        <time>2020-02-23T10:56:25Z</time>
      </trkpt>
      <trkpt lat="42.93026" lon="0.74829">
        <ele>1813.1</ele>
        <time>2020-02-23T10:56:26Z</time>
      </trkpt>
      <trkpt lat="42.93024" lon="0.74828">
        <ele>1811.9</ele>
        <time>2020-02-23T10:56:27Z</time>
      </trkpt>
      <trkpt lat="42.93024" lon="0.74828">
        <ele>1811.9</ele>
        <time>2020-02-23T10:56:28Z</time>
      </trkpt>
      <trkpt lat="42.93024" lon="0.74828">
        <ele>1811.9</ele>
        <time>2020-02-23T10:56:29Z</time>
      </trkpt>
      <trkpt lat="42.93022" lon="0.74826">
        <ele>1809.9</ele>
        <time>2020-02-23T10:56:30Z</time>
      </trkpt>
      <trkpt lat="42.9302" lon="0.74824">
        <ele>1809.9</ele>
        <time>2020-02-23T10:56:31Z</time>
      </trkpt>
      <trkpt lat="42.9302" lon="0.74824">
        <ele>1809.9</ele>
        <time>2020-02-23T10:56:32Z</time>
      </trkpt>
      <trkpt lat="42.93018" lon="0.74822">
        <ele>1808</ele>
        <time>2020-02-23T10:56:33Z</time>
      </trkpt>
      <trkpt lat="42.93018" lon="0.74822">
        <ele>1808</ele>
        <time>2020-02-23T10:56:34Z</time>
      </trkpt>
      <trkpt lat="42.93018" lon="0.74822">
        <ele>1808</ele>
        <time>2020-02-23T10:56:35Z</time>
      </trkpt>
      <trkpt lat="42.93016" lon="0.74819">
        <ele>1808</ele>
        <time>2020-02-23T10:56:36Z</time>
      </trkpt>
      <trkpt lat="42.93016" lon="0.74819">
        <ele>1808</ele>
        <time>2020-02-23T10:56:37Z</time>
      </trkpt>
      <trkpt lat="42.93014" lon="0.74816">
        <ele>1806</ele>
        <time>2020-02-23T10:56:38Z</time>
      </trkpt>
      <trkpt lat="42.93014" lon="0.74816">
        <ele>1806</ele>
        <time>2020-02-23T10:56:39Z</time>
      </trkpt>
      <trkpt lat="42.93012" lon="0.74814">
        <ele>1804</ele>
        <time>2020-02-23T10:56:40Z</time>
      </trkpt>
      <trkpt lat="42.93012" lon="0.74814">
        <ele>1804</ele>
        <time>2020-02-23T10:56:41Z</time>
      </trkpt>
      <trkpt lat="42.93011" lon="0.74812">
        <ele>1804</ele>
        <time>2020-02-23T10:56:42Z</time>
      </trkpt>
      <trkpt lat="42.93011" lon="0.74812">
        <ele>1804</ele>
        <time>2020-02-23T10:56:43Z</time>
      </trkpt>
      <trkpt lat="42.93009" lon="0.7481">
        <ele>1802.8</ele>
        <time>2020-02-23T10:56:44Z</time>
      </trkpt>
      <trkpt lat="42.93009" lon="0.7481">
        <ele>1802.8</ele>
        <time>2020-02-23T10:56:45Z</time>
      </trkpt>
      <trkpt lat="42.93009" lon="0.7481">
        <ele>1802.8</ele>
        <time>2020-02-23T10:56:46Z</time>
      </trkpt>
      <trkpt lat="42.93006" lon="0.74808">
        <ele>1800.7</ele>
        <time>2020-02-23T10:56:47Z</time>
      </trkpt>
      <trkpt lat="42.93004" lon="0.74806">
        <ele>1800.7</ele>
        <time>2020-02-23T10:56:48Z</time>
      </trkpt>
      <trkpt lat="42.93004" lon="0.74806">
        <ele>1800.7</ele>
        <time>2020-02-23T10:56:49Z</time>
      </trkpt>
      <trkpt lat="42.93002" lon="0.74805">
        <ele>1798.6</ele>
        <time>2020-02-23T10:56:50Z</time>
      </trkpt>
      <trkpt lat="42.93002" lon="0.74805">
        <ele>1798.6</ele>
        <time>2020-02-23T10:56:51Z</time>
      </trkpt>
      <trkpt lat="42.93" lon="0.74804">
        <ele>1797.3</ele>
        <time>2020-02-23T10:56:52Z</time>
      </trkpt>
      <trkpt lat="42.93" lon="0.74804">
        <ele>1797.3</ele>
        <time>2020-02-23T10:56:53Z</time>
      </trkpt>
      <trkpt lat="42.92998" lon="0.74803">
        <ele>1797.3</ele>
        <time>2020-02-23T10:56:54Z</time>
      </trkpt>
      <trkpt lat="42.92998" lon="0.74803">
        <ele>1797.3</ele>
        <time>2020-02-23T10:56:55Z</time>
      </trkpt>
      <trkpt lat="42.92998" lon="0.74803">
        <ele>1797.3</ele>
        <time>2020-02-23T10:56:56Z</time>
      </trkpt>
      <trkpt lat="42.92997" lon="0.74801">
        <ele>1795.4</ele>
        <time>2020-02-23T10:56:57Z</time>
      </trkpt>
      <trkpt lat="42.92995" lon="0.74798">
        <ele>1795.4</ele>
        <time>2020-02-23T10:56:58Z</time>
      </trkpt>
      <trkpt lat="42.92995" lon="0.74798">
        <ele>1795.4</ele>
        <time>2020-02-23T10:56:59Z</time>
      </trkpt>
      <trkpt lat="42.92994" lon="0.74796">
        <ele>1793.7</ele>
        <time>2020-02-23T10:57:00Z</time>
      </trkpt>
      <trkpt lat="42.92994" lon="0.74796">
        <ele>1793.7</ele>
        <time>2020-02-23T10:57:01Z</time>
      </trkpt>
      <trkpt lat="42.92993" lon="0.74793">
        <ele>1793.7</ele>
        <time>2020-02-23T10:57:02Z</time>
      </trkpt>
      <trkpt lat="42.92993" lon="0.74793">
        <ele>1793.7</ele>
        <time>2020-02-23T10:57:03Z</time>
      </trkpt>
      <trkpt lat="42.92993" lon="0.74793">
        <ele>1793.7</ele>
        <time>2020-02-23T10:57:04Z</time>
      </trkpt>
      <trkpt lat="42.92993" lon="0.74793">
        <ele>1793.7</ele>
        <time>2020-02-23T10:57:05Z</time>
      </trkpt>
      <trkpt lat="42.92992" lon="0.74791">
        <ele>1793.2</ele>
        <time>2020-02-23T10:57:06Z</time>
      </trkpt>
      <trkpt lat="42.92992" lon="0.74791">
        <ele>1793.2</ele>
        <time>2020-02-23T10:57:07Z</time>
      </trkpt>
      <trkpt lat="42.92991" lon="0.74788">
        <ele>1792.7</ele>
        <time>2020-02-23T10:57:08Z</time>
      </trkpt>
      <trkpt lat="42.9299" lon="0.74784">
        <ele>1791.2</ele>
        <time>2020-02-23T10:57:09Z</time>
      </trkpt>
      <trkpt lat="42.9299" lon="0.74784">
        <ele>1791.2</ele>
        <time>2020-02-23T10:57:10Z</time>
      </trkpt>
      <trkpt lat="42.9299" lon="0.74781">
        <ele>1791.2</ele>
        <time>2020-02-23T10:57:11Z</time>
      </trkpt>
      <trkpt lat="42.9299" lon="0.74781">
        <ele>1791.2</ele>
        <time>2020-02-23T10:57:12Z</time>
      </trkpt>
      <trkpt lat="42.9299" lon="0.74781">
        <ele>1791.2</ele>
        <time>2020-02-23T10:57:13Z</time>
      </trkpt>
      <trkpt lat="42.9299" lon="0.74777">
        <ele>1790.7</ele>
        <time>2020-02-23T10:57:14Z</time>
      </trkpt>
      <trkpt lat="42.9299" lon="0.74777">
        <ele>1790.7</ele>
        <time>2020-02-23T10:57:15Z</time>
      </trkpt>
      <trkpt lat="42.92989" lon="0.74775">
        <ele>1790.3</ele>
        <time>2020-02-23T10:57:16Z</time>
      </trkpt>
      <trkpt lat="42.92989" lon="0.74775">
        <ele>1790.3</ele>
        <time>2020-02-23T10:57:17Z</time>
      </trkpt>
      <trkpt lat="42.92988" lon="0.74772">
        <ele>1790.3</ele>
        <time>2020-02-23T10:57:18Z</time>
      </trkpt>
      <trkpt lat="42.92988" lon="0.74772">
        <ele>1790.3</ele>
        <time>2020-02-23T10:57:19Z</time>
      </trkpt>
      <trkpt lat="42.92988" lon="0.74772">
        <ele>1790.3</ele>
        <time>2020-02-23T10:57:20Z</time>
      </trkpt>
      <trkpt lat="42.92987" lon="0.74769">
        <ele>1788.8</ele>
        <time>2020-02-23T10:57:21Z</time>
      </trkpt>
      <trkpt lat="42.92987" lon="0.74769">
        <ele>1788.8</ele>
        <time>2020-02-23T10:57:22Z</time>
      </trkpt>
      <trkpt lat="42.92986" lon="0.74766">
        <ele>1788.4</ele>
        <time>2020-02-23T10:57:23Z</time>
      </trkpt>
      <trkpt lat="42.92985" lon="0.74764">
        <ele>1788.4</ele>
        <time>2020-02-23T10:57:24Z</time>
      </trkpt>
      <trkpt lat="42.92985" lon="0.74764">
        <ele>1788.4</ele>
        <time>2020-02-23T10:57:25Z</time>
      </trkpt>
      <trkpt lat="42.92985" lon="0.74764">
        <ele>1788.4</ele>
        <time>2020-02-23T10:57:26Z</time>
      </trkpt>
      <trkpt lat="42.92984" lon="0.74762">
        <ele>1787</ele>
        <time>2020-02-23T10:57:27Z</time>
      </trkpt>
      <trkpt lat="42.92984" lon="0.74762">
        <ele>1787</ele>
        <time>2020-02-23T10:57:28Z</time>
      </trkpt>
      <trkpt lat="42.92984" lon="0.74762">
        <ele>1787</ele>
        <time>2020-02-23T10:57:29Z</time>
      </trkpt>
      <trkpt lat="42.92984" lon="0.74762">
        <ele>1787</ele>
        <time>2020-02-23T10:57:30Z</time>
      </trkpt>
      <trkpt lat="42.92984" lon="0.74759">
        <ele>1787</ele>
        <time>2020-02-23T10:57:31Z</time>
      </trkpt>
      <trkpt lat="42.92984" lon="0.74759">
        <ele>1787</ele>
        <time>2020-02-23T10:57:32Z</time>
      </trkpt>
      <trkpt lat="42.92984" lon="0.74759">
        <ele>1787</ele>
        <time>2020-02-23T10:57:33Z</time>
      </trkpt>
      <trkpt lat="42.92984" lon="0.74759">
        <ele>1787</ele>
        <time>2020-02-23T10:57:34Z</time>
      </trkpt>
      <trkpt lat="42.92984" lon="0.74759">
        <ele>1787</ele>
        <time>2020-02-23T10:57:35Z</time>
      </trkpt>
      <trkpt lat="42.92984" lon="0.74759">
        <ele>1787</ele>
        <time>2020-02-23T10:57:36Z</time>
      </trkpt>
      <trkpt lat="42.92984" lon="0.74759">
        <ele>1787</ele>
        <time>2020-02-23T10:57:37Z</time>
      </trkpt>
      <trkpt lat="42.92984" lon="0.74759">
        <ele>1787</ele>
        <time>2020-02-23T10:57:38Z</time>
      </trkpt>
      <trkpt lat="42.92984" lon="0.74759">
        <ele>1787</ele>
        <time>2020-02-23T10:57:39Z</time>
      </trkpt>
      <trkpt lat="42.92984" lon="0.74759">
        <ele>1787</ele>
        <time>2020-02-23T10:57:40Z</time>
      </trkpt>
      <trkpt lat="42.92984" lon="0.74759">
        <ele>1787</ele>
        <time>2020-02-23T10:57:41Z</time>
      </trkpt>
      <trkpt lat="42.92984" lon="0.74759">
        <ele>1787</ele>
        <time>2020-02-23T10:57:42Z</time>
      </trkpt>
      <trkpt lat="42.92984" lon="0.74759">
        <ele>1787</ele>
        <time>2020-02-23T10:57:43Z</time>
      </trkpt>
      <trkpt lat="42.92984" lon="0.74759">
        <ele>1787</ele>
        <time>2020-02-23T10:57:44Z</time>
      </trkpt>
      <trkpt lat="42.92984" lon="0.74759">
        <ele>1787</ele>
        <time>2020-02-23T10:57:45Z</time>
      </trkpt>
      <trkpt lat="42.92984" lon="0.74759">
        <ele>1787</ele>
        <time>2020-02-23T10:57:46Z</time>
      </trkpt>
      <trkpt lat="42.92984" lon="0.74759">
        <ele>1787</ele>
        <time>2020-02-23T10:57:47Z</time>
      </trkpt>
      <trkpt lat="42.92984" lon="0.74759">
        <ele>1787</ele>
        <time>2020-02-23T10:57:48Z</time>
      </trkpt>
      <trkpt lat="42.92984" lon="0.74759">
        <ele>1787</ele>
        <time>2020-02-23T10:57:49Z</time>
      </trkpt>
      <trkpt lat="42.92984" lon="0.74759">
        <ele>1787</ele>
        <time>2020-02-23T10:57:50Z</time>
      </trkpt>
      <trkpt lat="42.92984" lon="0.74759">
        <ele>1787</ele>
        <time>2020-02-23T10:57:51Z</time>
      </trkpt>
      <trkpt lat="42.92984" lon="0.74759">
        <ele>1787</ele>
        <time>2020-02-23T10:57:52Z</time>
      </trkpt>
      <trkpt lat="42.92984" lon="0.74759">
        <ele>1787</ele>
        <time>2020-02-23T10:57:53Z</time>
      </trkpt>
      <trkpt lat="42.92984" lon="0.74759">
        <ele>1787</ele>
        <time>2020-02-23T10:57:54Z</time>
      </trkpt>
      <trkpt lat="42.92984" lon="0.74759">
        <ele>1787</ele>
        <time>2020-02-23T10:57:55Z</time>
      </trkpt>
      <trkpt lat="42.92984" lon="0.74759">
        <ele>1787</ele>
        <time>2020-02-23T10:57:56Z</time>
      </trkpt>
      <trkpt lat="42.92984" lon="0.74759">
        <ele>1787</ele>
        <time>2020-02-23T10:57:57Z</time>
      </trkpt>
      <trkpt lat="42.92984" lon="0.74759">
        <ele>1787</ele>
        <time>2020-02-23T10:57:58Z</time>
      </trkpt>
      <trkpt lat="42.92984" lon="0.74759">
        <ele>1787</ele>
        <time>2020-02-23T10:57:59Z</time>
      </trkpt>
      <trkpt lat="42.92984" lon="0.74759">
        <ele>1787</ele>
        <time>2020-02-23T10:58:00Z</time>
      </trkpt>
      <trkpt lat="42.92984" lon="0.74759">
        <ele>1787</ele>
        <time>2020-02-23T10:58:01Z</time>
      </trkpt>
      <trkpt lat="42.92984" lon="0.74759">
        <ele>1787</ele>
        <time>2020-02-23T10:58:02Z</time>
      </trkpt>
      <trkpt lat="42.92984" lon="0.74759">
        <ele>1787</ele>
        <time>2020-02-23T10:58:03Z</time>
      </trkpt>
      <trkpt lat="42.92986" lon="0.74759">
        <ele>1787.6</ele>
        <time>2020-02-23T10:58:04Z</time>
      </trkpt>
      <trkpt lat="42.92986" lon="0.74759">
        <ele>1787.6</ele>
        <time>2020-02-23T10:58:05Z</time>
      </trkpt>
      <trkpt lat="42.92986" lon="0.74759">
        <ele>1787.6</ele>
        <time>2020-02-23T10:58:06Z</time>
      </trkpt>
      <trkpt lat="42.92986" lon="0.74759">
        <ele>1787.6</ele>
        <time>2020-02-23T10:58:07Z</time>
      </trkpt>
      <trkpt lat="42.92986" lon="0.74759">
        <ele>1787.6</ele>
        <time>2020-02-23T10:58:08Z</time>
      </trkpt>
      <trkpt lat="42.92986" lon="0.74759">
        <ele>1787.6</ele>
        <time>2020-02-23T10:58:09Z</time>
      </trkpt>
      <trkpt lat="42.92986" lon="0.74759">
        <ele>1787.6</ele>
        <time>2020-02-23T10:58:10Z</time>
      </trkpt>
      <trkpt lat="42.92986" lon="0.74759">
        <ele>1787.6</ele>
        <time>2020-02-23T10:58:11Z</time>
      </trkpt>
      <trkpt lat="42.92986" lon="0.74759">
        <ele>1787.6</ele>
        <time>2020-02-23T10:58:12Z</time>
      </trkpt>
      <trkpt lat="42.92986" lon="0.74759">
        <ele>1787.6</ele>
        <time>2020-02-23T10:58:13Z</time>
      </trkpt>
      <trkpt lat="42.92987" lon="0.74757">
        <ele>1787.6</ele>
        <time>2020-02-23T10:58:14Z</time>
      </trkpt>
      <trkpt lat="42.92987" lon="0.74757">
        <ele>1787.6</ele>
        <time>2020-02-23T10:58:15Z</time>
      </trkpt>
      <trkpt lat="42.92987" lon="0.74757">
        <ele>1787.6</ele>
        <time>2020-02-23T10:58:16Z</time>
      </trkpt>
      <trkpt lat="42.92988" lon="0.74754">
        <ele>1788.3</ele>
        <time>2020-02-23T10:58:17Z</time>
      </trkpt>
      <trkpt lat="42.92988" lon="0.74754">
        <ele>1788.3</ele>
        <time>2020-02-23T10:58:18Z</time>
      </trkpt>
      <trkpt lat="42.92988" lon="0.74754">
        <ele>1788.3</ele>
        <time>2020-02-23T10:58:19Z</time>
      </trkpt>
      <trkpt lat="42.92988" lon="0.74751">
        <ele>1788.3</ele>
        <time>2020-02-23T10:58:20Z</time>
      </trkpt>
      <trkpt lat="42.92988" lon="0.74751">
        <ele>1788.3</ele>
        <time>2020-02-23T10:58:21Z</time>
      </trkpt>
      <trkpt lat="42.92988" lon="0.74751">
        <ele>1788.3</ele>
        <time>2020-02-23T10:58:22Z</time>
      </trkpt>
      <trkpt lat="42.92988" lon="0.74751">
        <ele>1788.3</ele>
        <time>2020-02-23T10:58:23Z</time>
      </trkpt>
      <trkpt lat="42.92988" lon="0.74751">
        <ele>1788.3</ele>
        <time>2020-02-23T10:58:24Z</time>
      </trkpt>
      <trkpt lat="42.92988" lon="0.74751">
        <ele>1788.3</ele>
        <time>2020-02-23T10:58:25Z</time>
      </trkpt>
      <trkpt lat="42.92988" lon="0.74751">
        <ele>1788.3</ele>
        <time>2020-02-23T10:58:26Z</time>
      </trkpt>
      <trkpt lat="42.92988" lon="0.74751">
        <ele>1788.3</ele>
        <time>2020-02-23T10:58:27Z</time>
      </trkpt>
      <trkpt lat="42.92988" lon="0.74751">
        <ele>1788.3</ele>
        <time>2020-02-23T10:58:28Z</time>
      </trkpt>
      <trkpt lat="42.92988" lon="0.74751">
        <ele>1788.3</ele>
        <time>2020-02-23T10:58:29Z</time>
      </trkpt>
      <trkpt lat="42.92989" lon="0.74749">
        <ele>1787.9</ele>
        <time>2020-02-23T10:58:30Z</time>
      </trkpt>
      <trkpt lat="42.92989" lon="0.74749">
        <ele>1787.9</ele>
        <time>2020-02-23T10:58:31Z</time>
      </trkpt>
      <trkpt lat="42.92989" lon="0.74749">
        <ele>1787.9</ele>
        <time>2020-02-23T10:58:32Z</time>
      </trkpt>
      <trkpt lat="42.92989" lon="0.74749">
        <ele>1787.9</ele>
        <time>2020-02-23T10:58:33Z</time>
      </trkpt>
      <trkpt lat="42.9299" lon="0.74746">
        <ele>1787.9</ele>
        <time>2020-02-23T10:58:34Z</time>
      </trkpt>
      <trkpt lat="42.9299" lon="0.74746">
        <ele>1787.9</ele>
        <time>2020-02-23T10:58:35Z</time>
      </trkpt>
      <trkpt lat="42.9299" lon="0.74746">
        <ele>1787.9</ele>
        <time>2020-02-23T10:58:36Z</time>
      </trkpt>
      <trkpt lat="42.9299" lon="0.74746">
        <ele>1787.9</ele>
        <time>2020-02-23T10:58:37Z</time>
      </trkpt>
      <trkpt lat="42.92992" lon="0.74745">
        <ele>1788.5</ele>
        <time>2020-02-23T10:58:38Z</time>
      </trkpt>
      <trkpt lat="42.92992" lon="0.74745">
        <ele>1788.5</ele>
        <time>2020-02-23T10:58:39Z</time>
      </trkpt>
      <trkpt lat="42.92992" lon="0.74745">
        <ele>1788.5</ele>
        <time>2020-02-23T10:58:40Z</time>
      </trkpt>
      <trkpt lat="42.92994" lon="0.74743">
        <ele>1788.5</ele>
        <time>2020-02-23T10:58:41Z</time>
      </trkpt>
      <trkpt lat="42.92994" lon="0.74743">
        <ele>1788.5</ele>
        <time>2020-02-23T10:58:42Z</time>
      </trkpt>
      <trkpt lat="42.92994" lon="0.74743">
        <ele>1788.5</ele>
        <time>2020-02-23T10:58:43Z</time>
      </trkpt>
      <trkpt lat="42.92994" lon="0.74743">
        <ele>1788.5</ele>
        <time>2020-02-23T10:58:44Z</time>
      </trkpt>
      <trkpt lat="42.92994" lon="0.74743">
        <ele>1788.5</ele>
        <time>2020-02-23T10:58:45Z</time>
      </trkpt>
      <trkpt lat="42.92994" lon="0.74743">
        <ele>1788.5</ele>
        <time>2020-02-23T10:58:46Z</time>
      </trkpt>
      <trkpt lat="42.92994" lon="0.74743">
        <ele>1788.5</ele>
        <time>2020-02-23T10:58:47Z</time>
      </trkpt>
      <trkpt lat="42.92995" lon="0.74742">
        <ele>1789.3</ele>
        <time>2020-02-23T10:58:48Z</time>
      </trkpt>
      <trkpt lat="42.92995" lon="0.74742">
        <ele>1789.3</ele>
        <time>2020-02-23T10:58:49Z</time>
      </trkpt>
      <trkpt lat="42.92995" lon="0.74742">
        <ele>1789.3</ele>
        <time>2020-02-23T10:58:50Z</time>
      </trkpt>
      <trkpt lat="42.92995" lon="0.74742">
        <ele>1789.3</ele>
        <time>2020-02-23T10:58:51Z</time>
      </trkpt>
      <trkpt lat="42.92995" lon="0.74742">
        <ele>1789.3</ele>
        <time>2020-02-23T10:58:52Z</time>
      </trkpt>
      <trkpt lat="42.92997" lon="0.7474">
        <ele>1789.9</ele>
        <time>2020-02-23T10:58:53Z</time>
      </trkpt>
      <trkpt lat="42.92997" lon="0.7474">
        <ele>1789.9</ele>
        <time>2020-02-23T10:58:54Z</time>
      </trkpt>
      <trkpt lat="42.92998" lon="0.74738">
        <ele>1789.9</ele>
        <time>2020-02-23T10:58:55Z</time>
      </trkpt>
      <trkpt lat="42.92998" lon="0.74738">
        <ele>1789.9</ele>
        <time>2020-02-23T10:58:56Z</time>
      </trkpt>
      <trkpt lat="42.92998" lon="0.74738">
        <ele>1789.9</ele>
        <time>2020-02-23T10:58:57Z</time>
      </trkpt>
      <trkpt lat="42.92998" lon="0.74738">
        <ele>1789.9</ele>
        <time>2020-02-23T10:58:58Z</time>
      </trkpt>
      <trkpt lat="42.92998" lon="0.74738">
        <ele>1789.9</ele>
        <time>2020-02-23T10:58:59Z</time>
      </trkpt>
      <trkpt lat="42.92997" lon="0.74735">
        <ele>1789.5</ele>
        <time>2020-02-23T10:59:00Z</time>
      </trkpt>
      <trkpt lat="42.92997" lon="0.74735">
        <ele>1789.5</ele>
        <time>2020-02-23T10:59:01Z</time>
      </trkpt>
      <trkpt lat="42.92997" lon="0.74735">
        <ele>1789.5</ele>
        <time>2020-02-23T10:59:02Z</time>
      </trkpt>
      <trkpt lat="42.92997" lon="0.74735">
        <ele>1789.5</ele>
        <time>2020-02-23T10:59:03Z</time>
      </trkpt>
      <trkpt lat="42.92997" lon="0.74735">
        <ele>1789.5</ele>
        <time>2020-02-23T10:59:04Z</time>
      </trkpt>
      <trkpt lat="42.92996" lon="0.74733">
        <ele>1788.3</ele>
        <time>2020-02-23T10:59:05Z</time>
      </trkpt>
      <trkpt lat="42.92996" lon="0.74733">
        <ele>1788.3</ele>
        <time>2020-02-23T10:59:06Z</time>
      </trkpt>
      <trkpt lat="42.92996" lon="0.74733">
        <ele>1788.3</ele>
        <time>2020-02-23T10:59:07Z</time>
      </trkpt>
      <trkpt lat="42.92996" lon="0.74733">
        <ele>1788.3</ele>
        <time>2020-02-23T10:59:08Z</time>
      </trkpt>
      <trkpt lat="42.92996" lon="0.7473">
        <ele>1788.3</ele>
        <time>2020-02-23T10:59:09Z</time>
      </trkpt>
      <trkpt lat="42.92996" lon="0.7473">
        <ele>1788.3</ele>
        <time>2020-02-23T10:59:10Z</time>
      </trkpt>
      <trkpt lat="42.92996" lon="0.7473">
        <ele>1788.3</ele>
        <time>2020-02-23T10:59:11Z</time>
      </trkpt>
      <trkpt lat="42.92996" lon="0.7473">
        <ele>1788.3</ele>
        <time>2020-02-23T10:59:12Z</time>
      </trkpt>
      <trkpt lat="42.92996" lon="0.7473">
        <ele>1788.3</ele>
        <time>2020-02-23T10:59:13Z</time>
      </trkpt>
      <trkpt lat="42.92996" lon="0.7473">
        <ele>1788.3</ele>
        <time>2020-02-23T10:59:14Z</time>
      </trkpt>
      <trkpt lat="42.92996" lon="0.7473">
        <ele>1788.3</ele>
        <time>2020-02-23T10:59:15Z</time>
      </trkpt>
      <trkpt lat="42.92996" lon="0.7473">
        <ele>1788.3</ele>
        <time>2020-02-23T10:59:16Z</time>
      </trkpt>
      <trkpt lat="42.92995" lon="0.74728">
        <ele>1788</ele>
        <time>2020-02-23T10:59:17Z</time>
      </trkpt>
      <trkpt lat="42.92995" lon="0.74728">
        <ele>1788</ele>
        <time>2020-02-23T10:59:18Z</time>
      </trkpt>
      <trkpt lat="42.92995" lon="0.74728">
        <ele>1788</ele>
        <time>2020-02-23T10:59:19Z</time>
      </trkpt>
      <trkpt lat="42.92995" lon="0.74724">
        <ele>1788</ele>
        <time>2020-02-23T10:59:20Z</time>
      </trkpt>
      <trkpt lat="42.92995" lon="0.74724">
        <ele>1788</ele>
        <time>2020-02-23T10:59:21Z</time>
      </trkpt>
      <trkpt lat="42.92995" lon="0.74724">
        <ele>1788</ele>
        <time>2020-02-23T10:59:22Z</time>
      </trkpt>
      <trkpt lat="42.92995" lon="0.74724">
        <ele>1788</ele>
        <time>2020-02-23T10:59:23Z</time>
      </trkpt>
      <trkpt lat="42.92996" lon="0.74721">
        <ele>1787.7</ele>
        <time>2020-02-23T10:59:24Z</time>
      </trkpt>
      <trkpt lat="42.92996" lon="0.74721">
        <ele>1787.7</ele>
        <time>2020-02-23T10:59:25Z</time>
      </trkpt>
      <trkpt lat="42.92996" lon="0.74721">
        <ele>1787.7</ele>
        <time>2020-02-23T10:59:26Z</time>
      </trkpt>
      <trkpt lat="42.92996" lon="0.74721">
        <ele>1787.7</ele>
        <time>2020-02-23T10:59:27Z</time>
      </trkpt>
      <trkpt lat="42.92996" lon="0.74721">
        <ele>1787.7</ele>
        <time>2020-02-23T10:59:28Z</time>
      </trkpt>
      <trkpt lat="42.92996" lon="0.74718">
        <ele>1787.4</ele>
        <time>2020-02-23T10:59:29Z</time>
      </trkpt>
      <trkpt lat="42.92996" lon="0.74718">
        <ele>1787.4</ele>
        <time>2020-02-23T10:59:30Z</time>
      </trkpt>
      <trkpt lat="42.92996" lon="0.74718">
        <ele>1787.4</ele>
        <time>2020-02-23T10:59:31Z</time>
      </trkpt>
      <trkpt lat="42.92996" lon="0.74718">
        <ele>1787.4</ele>
        <time>2020-02-23T10:59:32Z</time>
      </trkpt>
      <trkpt lat="42.92996" lon="0.74718">
        <ele>1787.4</ele>
        <time>2020-02-23T10:59:33Z</time>
      </trkpt>
      <trkpt lat="42.92997" lon="0.74716">
        <ele>1788.1</ele>
        <time>2020-02-23T10:59:34Z</time>
      </trkpt>
      <trkpt lat="42.92997" lon="0.74716">
        <ele>1788.1</ele>
        <time>2020-02-23T10:59:35Z</time>
      </trkpt>
      <trkpt lat="42.92997" lon="0.74716">
        <ele>1788.1</ele>
        <time>2020-02-23T10:59:36Z</time>
      </trkpt>
      <trkpt lat="42.92997" lon="0.74716">
        <ele>1788.1</ele>
        <time>2020-02-23T10:59:37Z</time>
      </trkpt>
      <trkpt lat="42.92998" lon="0.74713">
        <ele>1787.8</ele>
        <time>2020-02-23T10:59:38Z</time>
      </trkpt>
      <trkpt lat="42.92998" lon="0.74713">
        <ele>1787.8</ele>
        <time>2020-02-23T10:59:39Z</time>
      </trkpt>
      <trkpt lat="42.92998" lon="0.7471">
        <ele>1787.6</ele>
        <time>2020-02-23T10:59:40Z</time>
      </trkpt>
      <trkpt lat="42.92998" lon="0.7471">
        <ele>1787.6</ele>
        <time>2020-02-23T10:59:41Z</time>
      </trkpt>
      <trkpt lat="42.92998" lon="0.7471">
        <ele>1787.6</ele>
        <time>2020-02-23T10:59:42Z</time>
      </trkpt>
      <trkpt lat="42.92998" lon="0.7471">
        <ele>1787.6</ele>
        <time>2020-02-23T10:59:43Z</time>
      </trkpt>
      <trkpt lat="42.93" lon="0.74708">
        <ele>1787.6</ele>
        <time>2020-02-23T10:59:44Z</time>
      </trkpt>
      <trkpt lat="42.93" lon="0.74708">
        <ele>1787.6</ele>
        <time>2020-02-23T10:59:45Z</time>
      </trkpt>
      <trkpt lat="42.93" lon="0.74708">
        <ele>1787.6</ele>
        <time>2020-02-23T10:59:46Z</time>
      </trkpt>
      <trkpt lat="42.93" lon="0.74708">
        <ele>1787.6</ele>
        <time>2020-02-23T10:59:47Z</time>
      </trkpt>
      <trkpt lat="42.93" lon="0.74705">
        <ele>1787.8</ele>
        <time>2020-02-23T10:59:48Z</time>
      </trkpt>
      <trkpt lat="42.93" lon="0.74705">
        <ele>1787.8</ele>
        <time>2020-02-23T10:59:49Z</time>
      </trkpt>
      <trkpt lat="42.93" lon="0.74705">
        <ele>1787.8</ele>
        <time>2020-02-23T10:59:50Z</time>
      </trkpt>
      <trkpt lat="42.93" lon="0.74702">
        <ele>1787</ele>
        <time>2020-02-23T10:59:51Z</time>
      </trkpt>
      <trkpt lat="42.93" lon="0.74702">
        <ele>1787</ele>
        <time>2020-02-23T10:59:52Z</time>
      </trkpt>
      <trkpt lat="42.93" lon="0.74702">
        <ele>1787</ele>
        <time>2020-02-23T10:59:53Z</time>
      </trkpt>
      <trkpt lat="42.93" lon="0.74702">
        <ele>1787</ele>
        <time>2020-02-23T10:59:54Z</time>
      </trkpt>
      <trkpt lat="42.93001" lon="0.74699">
        <ele>1787.6</ele>
        <time>2020-02-23T10:59:55Z</time>
      </trkpt>
      <trkpt lat="42.93001" lon="0.74699">
        <ele>1787.6</ele>
        <time>2020-02-23T10:59:56Z</time>
      </trkpt>
      <trkpt lat="42.93001" lon="0.74699">
        <ele>1787.6</ele>
        <time>2020-02-23T10:59:57Z</time>
      </trkpt>
      <trkpt lat="42.93001" lon="0.74699">
        <ele>1787.6</ele>
        <time>2020-02-23T10:59:58Z</time>
      </trkpt>
      <trkpt lat="42.93001" lon="0.74699">
        <ele>1787.6</ele>
        <time>2020-02-23T10:59:59Z</time>
      </trkpt>
      <trkpt lat="42.93002" lon="0.74697">
        <ele>1787.3</ele>
        <time>2020-02-23T11:00:00Z</time>
      </trkpt>
      <trkpt lat="42.93002" lon="0.74697">
        <ele>1787.3</ele>
        <time>2020-02-23T11:00:01Z</time>
      </trkpt>
      <trkpt lat="42.93002" lon="0.74697">
        <ele>1787.3</ele>
        <time>2020-02-23T11:00:02Z</time>
      </trkpt>
      <trkpt lat="42.93002" lon="0.74694">
        <ele>1787.1</ele>
        <time>2020-02-23T11:00:03Z</time>
      </trkpt>
      <trkpt lat="42.93002" lon="0.74694">
        <ele>1787.1</ele>
        <time>2020-02-23T11:00:04Z</time>
      </trkpt>
      <trkpt lat="42.93002" lon="0.74694">
        <ele>1787.1</ele>
        <time>2020-02-23T11:00:05Z</time>
      </trkpt>
      <trkpt lat="42.93001" lon="0.74692">
        <ele>1787.1</ele>
        <time>2020-02-23T11:00:06Z</time>
      </trkpt>
      <trkpt lat="42.93001" lon="0.74692">
        <ele>1787.1</ele>
        <time>2020-02-23T11:00:07Z</time>
      </trkpt>
      <trkpt lat="42.93001" lon="0.74692">
        <ele>1787.1</ele>
        <time>2020-02-23T11:00:08Z</time>
      </trkpt>
      <trkpt lat="42.93001" lon="0.74692">
        <ele>1787.1</ele>
        <time>2020-02-23T11:00:09Z</time>
      </trkpt>
      <trkpt lat="42.93001" lon="0.74692">
        <ele>1787.1</ele>
        <time>2020-02-23T11:00:10Z</time>
      </trkpt>
      <trkpt lat="42.93001" lon="0.74692">
        <ele>1787.1</ele>
        <time>2020-02-23T11:00:11Z</time>
      </trkpt>
      <trkpt lat="42.93001" lon="0.74692">
        <ele>1787.1</ele>
        <time>2020-02-23T11:00:12Z</time>
      </trkpt>
      <trkpt lat="42.93001" lon="0.74692">
        <ele>1787.1</ele>
        <time>2020-02-23T11:00:13Z</time>
      </trkpt>
      <trkpt lat="42.93001" lon="0.74692">
        <ele>1787.1</ele>
        <time>2020-02-23T11:00:14Z</time>
      </trkpt>
      <trkpt lat="42.93001" lon="0.74692">
        <ele>1787.1</ele>
        <time>2020-02-23T11:00:15Z</time>
      </trkpt>
      <trkpt lat="42.92999" lon="0.74692">
        <ele>1786.6</ele>
        <time>2020-02-23T11:00:16Z</time>
      </trkpt>
      <trkpt lat="42.92999" lon="0.74692">
        <ele>1786.6</ele>
        <time>2020-02-23T11:00:17Z</time>
      </trkpt>
      <trkpt lat="42.92999" lon="0.74692">
        <ele>1786.6</ele>
        <time>2020-02-23T11:00:18Z</time>
      </trkpt>
      <trkpt lat="42.92999" lon="0.74692">
        <ele>1786.6</ele>
        <time>2020-02-23T11:00:19Z</time>
      </trkpt>
      <trkpt lat="42.92999" lon="0.74692">
        <ele>1786.6</ele>
        <time>2020-02-23T11:00:20Z</time>
      </trkpt>
      <trkpt lat="42.92999" lon="0.74692">
        <ele>1786.6</ele>
        <time>2020-02-23T11:00:21Z</time>
      </trkpt>
      <trkpt lat="42.92999" lon="0.74692">
        <ele>1786.6</ele>
        <time>2020-02-23T11:00:22Z</time>
      </trkpt>
      <trkpt lat="42.92998" lon="0.74689">
        <ele>1786.3</ele>
        <time>2020-02-23T11:00:23Z</time>
      </trkpt>
      <trkpt lat="42.92998" lon="0.74689">
        <ele>1786.3</ele>
        <time>2020-02-23T11:00:24Z</time>
      </trkpt>
      <trkpt lat="42.92998" lon="0.74689">
        <ele>1786.3</ele>
        <time>2020-02-23T11:00:25Z</time>
      </trkpt>
      <trkpt lat="42.92998" lon="0.74687">
        <ele>1786.3</ele>
        <time>2020-02-23T11:00:26Z</time>
      </trkpt>
      <trkpt lat="42.92998" lon="0.74687">
        <ele>1786.3</ele>
        <time>2020-02-23T11:00:27Z</time>
      </trkpt>
      <trkpt lat="42.92998" lon="0.74687">
        <ele>1786.3</ele>
        <time>2020-02-23T11:00:28Z</time>
      </trkpt>
      <trkpt lat="42.92998" lon="0.74687">
        <ele>1786.3</ele>
        <time>2020-02-23T11:00:29Z</time>
      </trkpt>
      <trkpt lat="42.92997" lon="0.74685">
        <ele>1785.8</ele>
        <time>2020-02-23T11:00:30Z</time>
      </trkpt>
      <trkpt lat="42.92997" lon="0.74685">
        <ele>1785.8</ele>
        <time>2020-02-23T11:00:31Z</time>
      </trkpt>
      <trkpt lat="42.92997" lon="0.74685">
        <ele>1785.8</ele>
        <time>2020-02-23T11:00:32Z</time>
      </trkpt>
      <trkpt lat="42.92997" lon="0.74685">
        <ele>1785.8</ele>
        <time>2020-02-23T11:00:33Z</time>
      </trkpt>
      <trkpt lat="42.92998" lon="0.74682">
        <ele>1786.2</ele>
        <time>2020-02-23T11:00:34Z</time>
      </trkpt>
      <trkpt lat="42.92998" lon="0.74682">
        <ele>1786.2</ele>
        <time>2020-02-23T11:00:35Z</time>
      </trkpt>
      <trkpt lat="42.92998" lon="0.74682">
        <ele>1786.2</ele>
        <time>2020-02-23T11:00:36Z</time>
      </trkpt>
      <trkpt lat="42.92998" lon="0.74682">
        <ele>1786.2</ele>
        <time>2020-02-23T11:00:37Z</time>
      </trkpt>
      <trkpt lat="42.92997" lon="0.7468">
        <ele>1785.6</ele>
        <time>2020-02-23T11:00:38Z</time>
      </trkpt>
      <trkpt lat="42.92997" lon="0.7468">
        <ele>1785.6</ele>
        <time>2020-02-23T11:00:39Z</time>
      </trkpt>
      <trkpt lat="42.92997" lon="0.7468">
        <ele>1785.6</ele>
        <time>2020-02-23T11:00:40Z</time>
      </trkpt>
      <trkpt lat="42.92997" lon="0.74678">
        <ele>1785.6</ele>
        <time>2020-02-23T11:00:41Z</time>
      </trkpt>
      <trkpt lat="42.92997" lon="0.74678">
        <ele>1785.6</ele>
        <time>2020-02-23T11:00:42Z</time>
      </trkpt>
      <trkpt lat="42.92997" lon="0.74678">
        <ele>1785.6</ele>
        <time>2020-02-23T11:00:43Z</time>
      </trkpt>
      <trkpt lat="42.92997" lon="0.74678">
        <ele>1785.6</ele>
        <time>2020-02-23T11:00:44Z</time>
      </trkpt>
      <trkpt lat="42.92997" lon="0.74678">
        <ele>1785.6</ele>
        <time>2020-02-23T11:00:45Z</time>
      </trkpt>
      <trkpt lat="42.92997" lon="0.74678">
        <ele>1785.6</ele>
        <time>2020-02-23T11:00:46Z</time>
      </trkpt>
      <trkpt lat="42.92997" lon="0.74675">
        <ele>1785.5</ele>
        <time>2020-02-23T11:00:47Z</time>
      </trkpt>
      <trkpt lat="42.92997" lon="0.74675">
        <ele>1785.5</ele>
        <time>2020-02-23T11:00:48Z</time>
      </trkpt>
      <trkpt lat="42.92997" lon="0.74672">
        <ele>1785.7</ele>
        <time>2020-02-23T11:00:49Z</time>
      </trkpt>
      <trkpt lat="42.92997" lon="0.74672">
        <ele>1785.7</ele>
        <time>2020-02-23T11:00:50Z</time>
      </trkpt>
      <trkpt lat="42.92997" lon="0.74672">
        <ele>1785.7</ele>
        <time>2020-02-23T11:00:51Z</time>
      </trkpt>
      <trkpt lat="42.92997" lon="0.74672">
        <ele>1785.7</ele>
        <time>2020-02-23T11:00:52Z</time>
      </trkpt>
      <trkpt lat="42.92998" lon="0.74669">
        <ele>1785.7</ele>
        <time>2020-02-23T11:00:53Z</time>
      </trkpt>
      <trkpt lat="42.92998" lon="0.74669">
        <ele>1785.7</ele>
        <time>2020-02-23T11:00:54Z</time>
      </trkpt>
      <trkpt lat="42.92998" lon="0.74669">
        <ele>1785.7</ele>
        <time>2020-02-23T11:00:55Z</time>
      </trkpt>
      <trkpt lat="42.92998" lon="0.74669">
        <ele>1785.7</ele>
        <time>2020-02-23T11:00:56Z</time>
      </trkpt>
      <trkpt lat="42.92998" lon="0.74669">
        <ele>1785.7</ele>
        <time>2020-02-23T11:00:57Z</time>
      </trkpt>
      <trkpt lat="42.92998" lon="0.74669">
        <ele>1785.7</ele>
        <time>2020-02-23T11:00:58Z</time>
      </trkpt>
      <trkpt lat="42.92998" lon="0.74669">
        <ele>1785.7</ele>
        <time>2020-02-23T11:00:59Z</time>
      </trkpt>
      <trkpt lat="42.92998" lon="0.74669">
        <ele>1785.7</ele>
        <time>2020-02-23T11:01:00Z</time>
      </trkpt>
      <trkpt lat="42.92998" lon="0.74669">
        <ele>1785.7</ele>
        <time>2020-02-23T11:01:01Z</time>
      </trkpt>
      <trkpt lat="42.92998" lon="0.74669">
        <ele>1785.7</ele>
        <time>2020-02-23T11:01:02Z</time>
      </trkpt>
      <trkpt lat="42.92999" lon="0.74667">
        <ele>1785.6</ele>
        <time>2020-02-23T11:01:03Z</time>
      </trkpt>
      <trkpt lat="42.92999" lon="0.74667">
        <ele>1785.6</ele>
        <time>2020-02-23T11:01:04Z</time>
      </trkpt>
      <trkpt lat="42.92999" lon="0.74667">
        <ele>1785.6</ele>
        <time>2020-02-23T11:01:05Z</time>
      </trkpt>
      <trkpt lat="42.92999" lon="0.74667">
        <ele>1785.6</ele>
        <time>2020-02-23T11:01:06Z</time>
      </trkpt>
      <trkpt lat="42.92999" lon="0.74667">
        <ele>1785.6</ele>
        <time>2020-02-23T11:01:07Z</time>
      </trkpt>
      <trkpt lat="42.92999" lon="0.74667">
        <ele>1785.6</ele>
        <time>2020-02-23T11:01:08Z</time>
      </trkpt>
      <trkpt lat="42.92999" lon="0.74667">
        <ele>1785.6</ele>
        <time>2020-02-23T11:01:09Z</time>
      </trkpt>
      <trkpt lat="42.92999" lon="0.74667">
        <ele>1785.6</ele>
        <time>2020-02-23T11:01:10Z</time>
      </trkpt>
      <trkpt lat="42.92999" lon="0.74667">
        <ele>1785.6</ele>
        <time>2020-02-23T11:01:11Z</time>
      </trkpt>
      <trkpt lat="42.92999" lon="0.74667">
        <ele>1785.6</ele>
        <time>2020-02-23T11:01:12Z</time>
      </trkpt>
      <trkpt lat="42.92999" lon="0.74667">
        <ele>1785.6</ele>
        <time>2020-02-23T11:01:13Z</time>
      </trkpt>
      <trkpt lat="42.92999" lon="0.74667">
        <ele>1785.6</ele>
        <time>2020-02-23T11:01:14Z</time>
      </trkpt>
      <trkpt lat="42.92999" lon="0.74667">
        <ele>1785.6</ele>
        <time>2020-02-23T11:01:15Z</time>
      </trkpt>
      <trkpt lat="42.92999" lon="0.74667">
        <ele>1785.6</ele>
        <time>2020-02-23T11:01:16Z</time>
      </trkpt>
      <trkpt lat="42.92999" lon="0.74667">
        <ele>1785.6</ele>
        <time>2020-02-23T11:01:17Z</time>
      </trkpt>
      <trkpt lat="42.92999" lon="0.74667">
        <ele>1785.6</ele>
        <time>2020-02-23T11:01:18Z</time>
      </trkpt>
      <trkpt lat="42.92999" lon="0.74667">
        <ele>1785.6</ele>
        <time>2020-02-23T11:01:19Z</time>
      </trkpt>
      <trkpt lat="42.92997" lon="0.74668">
        <ele>1785.3</ele>
        <time>2020-02-23T11:01:20Z</time>
      </trkpt>
      <trkpt lat="42.92997" lon="0.74668">
        <ele>1785.3</ele>
        <time>2020-02-23T11:01:21Z</time>
      </trkpt>
      <trkpt lat="42.92997" lon="0.74668">
        <ele>1785.3</ele>
        <time>2020-02-23T11:01:22Z</time>
      </trkpt>
      <trkpt lat="42.92997" lon="0.74668">
        <ele>1785.3</ele>
        <time>2020-02-23T11:01:23Z</time>
      </trkpt>
      <trkpt lat="42.92997" lon="0.74668">
        <ele>1785.3</ele>
        <time>2020-02-23T11:01:24Z</time>
      </trkpt>
      <trkpt lat="42.92997" lon="0.74668">
        <ele>1785.3</ele>
        <time>2020-02-23T11:01:25Z</time>
      </trkpt>
      <trkpt lat="42.92997" lon="0.74668">
        <ele>1785.3</ele>
        <time>2020-02-23T11:01:26Z</time>
      </trkpt>
      <trkpt lat="42.92997" lon="0.74668">
        <ele>1785.3</ele>
        <time>2020-02-23T11:01:27Z</time>
      </trkpt>
      <trkpt lat="42.92997" lon="0.74668">
        <ele>1785.3</ele>
        <time>2020-02-23T11:01:28Z</time>
      </trkpt>
      <trkpt lat="42.92997" lon="0.74668">
        <ele>1785.3</ele>
        <time>2020-02-23T11:01:29Z</time>
      </trkpt>
      <trkpt lat="42.92997" lon="0.74668">
        <ele>1785.3</ele>
        <time>2020-02-23T11:01:30Z</time>
      </trkpt>
      <trkpt lat="42.92997" lon="0.74668">
        <ele>1785.3</ele>
        <time>2020-02-23T11:01:31Z</time>
      </trkpt>
      <trkpt lat="42.92997" lon="0.74668">
        <ele>1785.3</ele>
        <time>2020-02-23T11:01:32Z</time>
      </trkpt>
      <trkpt lat="42.92997" lon="0.74668">
        <ele>1785.3</ele>
        <time>2020-02-23T11:01:33Z</time>
      </trkpt>
      <trkpt lat="42.92997" lon="0.74668">
        <ele>1785.3</ele>
        <time>2020-02-23T11:01:34Z</time>
      </trkpt>
      <trkpt lat="42.92997" lon="0.74668">
        <ele>1785.3</ele>
        <time>2020-02-23T11:01:35Z</time>
      </trkpt>
      <trkpt lat="42.92997" lon="0.74668">
        <ele>1785.3</ele>
        <time>2020-02-23T11:01:36Z</time>
      </trkpt>
      <trkpt lat="42.92997" lon="0.74668">
        <ele>1785.3</ele>
        <time>2020-02-23T11:01:37Z</time>
      </trkpt>
      <trkpt lat="42.92997" lon="0.74668">
        <ele>1785.3</ele>
        <time>2020-02-23T11:01:38Z</time>
      </trkpt>
      <trkpt lat="42.92997" lon="0.74668">
        <ele>1785.3</ele>
        <time>2020-02-23T11:01:39Z</time>
      </trkpt>
      <trkpt lat="42.92997" lon="0.74668">
        <ele>1785.3</ele>
        <time>2020-02-23T11:01:40Z</time>
      </trkpt>
      <trkpt lat="42.92997" lon="0.74668">
        <ele>1785.3</ele>
        <time>2020-02-23T11:01:41Z</time>
      </trkpt>
      <trkpt lat="42.92997" lon="0.74668">
        <ele>1785.3</ele>
        <time>2020-02-23T11:01:42Z</time>
      </trkpt>
      <trkpt lat="42.92997" lon="0.74668">
        <ele>1785.3</ele>
        <time>2020-02-23T11:01:43Z</time>
      </trkpt>
      <trkpt lat="42.92997" lon="0.74668">
        <ele>1785.3</ele>
        <time>2020-02-23T11:01:44Z</time>
      </trkpt>
      <trkpt lat="42.92997" lon="0.74668">
        <ele>1785.3</ele>
        <time>2020-02-23T11:01:45Z</time>
      </trkpt>
      <trkpt lat="42.92997" lon="0.74668">
        <ele>1785.3</ele>
        <time>2020-02-23T11:01:46Z</time>
      </trkpt>
      <trkpt lat="42.92997" lon="0.74668">
        <ele>1785.3</ele>
        <time>2020-02-23T11:01:47Z</time>
      </trkpt>
      <trkpt lat="42.92997" lon="0.74668">
        <ele>1785.3</ele>
        <time>2020-02-23T11:01:48Z</time>
      </trkpt>
      <trkpt lat="42.92997" lon="0.74668">
        <ele>1785.3</ele>
        <time>2020-02-23T11:01:49Z</time>
      </trkpt>
      <trkpt lat="42.92997" lon="0.74668">
        <ele>1785.3</ele>
        <time>2020-02-23T11:01:50Z</time>
      </trkpt>
      <trkpt lat="42.92996" lon="0.74664">
        <ele>1785.3</ele>
        <time>2020-02-23T11:01:51Z</time>
      </trkpt>
      <trkpt lat="42.92996" lon="0.74664">
        <ele>1785.3</ele>
        <time>2020-02-23T11:01:52Z</time>
      </trkpt>
      <trkpt lat="42.92996" lon="0.74664">
        <ele>1785.3</ele>
        <time>2020-02-23T11:01:53Z</time>
      </trkpt>
      <trkpt lat="42.92996" lon="0.74664">
        <ele>1785.3</ele>
        <time>2020-02-23T11:01:54Z</time>
      </trkpt>
      <trkpt lat="42.92996" lon="0.74664">
        <ele>1785.3</ele>
        <time>2020-02-23T11:01:55Z</time>
      </trkpt>
      <trkpt lat="42.92997" lon="0.74662">
        <ele>1785.3</ele>
        <time>2020-02-23T11:01:56Z</time>
      </trkpt>
      <trkpt lat="42.92997" lon="0.74662">
        <ele>1785.3</ele>
        <time>2020-02-23T11:01:57Z</time>
      </trkpt>
      <trkpt lat="42.92997" lon="0.74662">
        <ele>1785.3</ele>
        <time>2020-02-23T11:01:58Z</time>
      </trkpt>
      <trkpt lat="42.92997" lon="0.74662">
        <ele>1785.3</ele>
        <time>2020-02-23T11:01:59Z</time>
      </trkpt>
      <trkpt lat="42.92997" lon="0.74662">
        <ele>1785.3</ele>
        <time>2020-02-23T11:02:00Z</time>
      </trkpt>
      <trkpt lat="42.92997" lon="0.74662">
        <ele>1785.3</ele>
        <time>2020-02-23T11:02:01Z</time>
      </trkpt>
      <trkpt lat="42.92997" lon="0.74662">
        <ele>1785.3</ele>
        <time>2020-02-23T11:02:02Z</time>
      </trkpt>
      <trkpt lat="42.92997" lon="0.74662">
        <ele>1785.3</ele>
        <time>2020-02-23T11:02:03Z</time>
      </trkpt>
      <trkpt lat="42.92997" lon="0.74662">
        <ele>1785.3</ele>
        <time>2020-02-23T11:02:04Z</time>
      </trkpt>
      <trkpt lat="42.92997" lon="0.74662">
        <ele>1785.3</ele>
        <time>2020-02-23T11:02:05Z</time>
      </trkpt>
      <trkpt lat="42.92997" lon="0.74662">
        <ele>1785.3</ele>
        <time>2020-02-23T11:02:06Z</time>
      </trkpt>
      <trkpt lat="42.92997" lon="0.74662">
        <ele>1785.3</ele>
        <time>2020-02-23T11:02:07Z</time>
      </trkpt>
      <trkpt lat="42.92997" lon="0.74662">
        <ele>1785.3</ele>
        <time>2020-02-23T11:02:08Z</time>
      </trkpt>
      <trkpt lat="42.92997" lon="0.74662">
        <ele>1785.3</ele>
        <time>2020-02-23T11:02:09Z</time>
      </trkpt>
      <trkpt lat="42.92997" lon="0.74662">
        <ele>1785.3</ele>
        <time>2020-02-23T11:02:10Z</time>
      </trkpt>
      <trkpt lat="42.92997" lon="0.74659">
        <ele>1785.2</ele>
        <time>2020-02-23T11:02:11Z</time>
      </trkpt>
      <trkpt lat="42.92997" lon="0.74659">
        <ele>1785.2</ele>
        <time>2020-02-23T11:02:12Z</time>
      </trkpt>
      <trkpt lat="42.92997" lon="0.74659">
        <ele>1785.2</ele>
        <time>2020-02-23T11:02:13Z</time>
      </trkpt>
      <trkpt lat="42.92997" lon="0.74659">
        <ele>1785.2</ele>
        <time>2020-02-23T11:02:14Z</time>
      </trkpt>
      <trkpt lat="42.92997" lon="0.74659">
        <ele>1785.2</ele>
        <time>2020-02-23T11:02:15Z</time>
      </trkpt>
      <trkpt lat="42.92997" lon="0.74659">
        <ele>1785.2</ele>
        <time>2020-02-23T11:02:16Z</time>
      </trkpt>
      <trkpt lat="42.92997" lon="0.74659">
        <ele>1785.2</ele>
        <time>2020-02-23T11:02:17Z</time>
      </trkpt>
      <trkpt lat="42.92997" lon="0.74659">
        <ele>1785.2</ele>
        <time>2020-02-23T11:02:18Z</time>
      </trkpt>
      <trkpt lat="42.92997" lon="0.74659">
        <ele>1785.2</ele>
        <time>2020-02-23T11:02:19Z</time>
      </trkpt>
      <trkpt lat="42.92997" lon="0.74659">
        <ele>1785.2</ele>
        <time>2020-02-23T11:02:20Z</time>
      </trkpt>
      <trkpt lat="42.92997" lon="0.74659">
        <ele>1785.2</ele>
        <time>2020-02-23T11:02:21Z</time>
      </trkpt>
      <trkpt lat="42.92997" lon="0.74659">
        <ele>1785.2</ele>
        <time>2020-02-23T11:02:22Z</time>
      </trkpt>
      <trkpt lat="42.92997" lon="0.74659">
        <ele>1785.2</ele>
        <time>2020-02-23T11:02:23Z</time>
      </trkpt>
      <trkpt lat="42.92997" lon="0.74659">
        <ele>1785.2</ele>
        <time>2020-02-23T11:02:24Z</time>
      </trkpt>
      <trkpt lat="42.92997" lon="0.74659">
        <ele>1785.2</ele>
        <time>2020-02-23T11:02:25Z</time>
      </trkpt>
      <trkpt lat="42.92997" lon="0.74657">
        <ele>1785.2</ele>
        <time>2020-02-23T11:02:26Z</time>
      </trkpt>
      <trkpt lat="42.92997" lon="0.74657">
        <ele>1785.2</ele>
        <time>2020-02-23T11:02:27Z</time>
      </trkpt>
      <trkpt lat="42.92997" lon="0.74657">
        <ele>1785.2</ele>
        <time>2020-02-23T11:02:28Z</time>
      </trkpt>
      <trkpt lat="42.92997" lon="0.74657">
        <ele>1785.2</ele>
        <time>2020-02-23T11:02:29Z</time>
      </trkpt>
      <trkpt lat="42.92997" lon="0.74657">
        <ele>1785.2</ele>
        <time>2020-02-23T11:02:30Z</time>
      </trkpt>
      <trkpt lat="42.92997" lon="0.74657">
        <ele>1785.2</ele>
        <time>2020-02-23T11:02:31Z</time>
      </trkpt>
      <trkpt lat="42.92997" lon="0.74657">
        <ele>1785.2</ele>
        <time>2020-02-23T11:02:32Z</time>
      </trkpt>
      <trkpt lat="42.92997" lon="0.74657">
        <ele>1785.2</ele>
        <time>2020-02-23T11:02:33Z</time>
      </trkpt>
      <trkpt lat="42.92997" lon="0.74657">
        <ele>1785.2</ele>
        <time>2020-02-23T11:02:34Z</time>
      </trkpt>
      <trkpt lat="42.92997" lon="0.74657">
        <ele>1785.2</ele>
        <time>2020-02-23T11:02:35Z</time>
      </trkpt>
      <trkpt lat="42.92997" lon="0.74657">
        <ele>1785.2</ele>
        <time>2020-02-23T11:02:36Z</time>
      </trkpt>
      <trkpt lat="42.92997" lon="0.74657">
        <ele>1785.2</ele>
        <time>2020-02-23T11:02:37Z</time>
      </trkpt>
      <trkpt lat="42.92997" lon="0.74657">
        <ele>1785.2</ele>
        <time>2020-02-23T11:02:38Z</time>
      </trkpt>
      <trkpt lat="42.92997" lon="0.74657">
        <ele>1785.2</ele>
        <time>2020-02-23T11:02:39Z</time>
      </trkpt>
      <trkpt lat="42.92997" lon="0.74657">
        <ele>1785.2</ele>
        <time>2020-02-23T11:02:40Z</time>
      </trkpt>
      <trkpt lat="42.92997" lon="0.74657">
        <ele>1785.2</ele>
        <time>2020-02-23T11:02:41Z</time>
      </trkpt>
      <trkpt lat="42.92997" lon="0.74657">
        <ele>1785.2</ele>
        <time>2020-02-23T11:02:42Z</time>
      </trkpt>
      <trkpt lat="42.92997" lon="0.74657">
        <ele>1785.2</ele>
        <time>2020-02-23T11:02:43Z</time>
      </trkpt>
      <trkpt lat="42.92997" lon="0.74657">
        <ele>1785.2</ele>
        <time>2020-02-23T11:02:44Z</time>
      </trkpt>
      <trkpt lat="42.92997" lon="0.74657">
        <ele>1785.2</ele>
        <time>2020-02-23T11:02:45Z</time>
      </trkpt>
      <trkpt lat="42.92997" lon="0.74657">
        <ele>1785.2</ele>
        <time>2020-02-23T11:02:46Z</time>
      </trkpt>
      <trkpt lat="42.92997" lon="0.74657">
        <ele>1785.2</ele>
        <time>2020-02-23T11:02:47Z</time>
      </trkpt>
      <trkpt lat="42.92997" lon="0.74657">
        <ele>1785.2</ele>
        <time>2020-02-23T11:02:48Z</time>
      </trkpt>
      <trkpt lat="42.92997" lon="0.74657">
        <ele>1785.2</ele>
        <time>2020-02-23T11:02:49Z</time>
      </trkpt>
      <trkpt lat="42.92997" lon="0.74657">
        <ele>1785.2</ele>
        <time>2020-02-23T11:02:50Z</time>
      </trkpt>
      <trkpt lat="42.92997" lon="0.74657">
        <ele>1785.2</ele>
        <time>2020-02-23T11:02:51Z</time>
      </trkpt>
      <trkpt lat="42.92997" lon="0.74657">
        <ele>1785.2</ele>
        <time>2020-02-23T11:02:52Z</time>
      </trkpt>
      <trkpt lat="42.92997" lon="0.74657">
        <ele>1785.2</ele>
        <time>2020-02-23T11:02:53Z</time>
      </trkpt>
      <trkpt lat="42.92997" lon="0.74657">
        <ele>1785.2</ele>
        <time>2020-02-23T11:02:54Z</time>
      </trkpt>
      <trkpt lat="42.92997" lon="0.74657">
        <ele>1785.2</ele>
        <time>2020-02-23T11:02:55Z</time>
      </trkpt>
      <trkpt lat="42.92997" lon="0.74657">
        <ele>1785.2</ele>
        <time>2020-02-23T11:02:56Z</time>
      </trkpt>
      <trkpt lat="42.92997" lon="0.74657">
        <ele>1785.2</ele>
        <time>2020-02-23T11:02:57Z</time>
      </trkpt>
      <trkpt lat="42.92997" lon="0.74657">
        <ele>1785.2</ele>
        <time>2020-02-23T11:02:58Z</time>
      </trkpt>
      <trkpt lat="42.92997" lon="0.74657">
        <ele>1785.2</ele>
        <time>2020-02-23T11:02:59Z</time>
      </trkpt>
      <trkpt lat="42.92997" lon="0.74657">
        <ele>1785.2</ele>
        <time>2020-02-23T11:03:00Z</time>
      </trkpt>
      <trkpt lat="42.92997" lon="0.74657">
        <ele>1785.2</ele>
        <time>2020-02-23T11:03:01Z</time>
      </trkpt>
      <trkpt lat="42.92997" lon="0.74657">
        <ele>1785.2</ele>
        <time>2020-02-23T11:03:02Z</time>
      </trkpt>
      <trkpt lat="42.92997" lon="0.74657">
        <ele>1785.2</ele>
        <time>2020-02-23T11:03:03Z</time>
      </trkpt>
      <trkpt lat="42.92997" lon="0.74657">
        <ele>1785.2</ele>
        <time>2020-02-23T11:03:04Z</time>
      </trkpt>
      <trkpt lat="42.92997" lon="0.74657">
        <ele>1785.2</ele>
        <time>2020-02-23T11:03:05Z</time>
      </trkpt>
      <trkpt lat="42.92997" lon="0.74657">
        <ele>1785.2</ele>
        <time>2020-02-23T11:03:06Z</time>
      </trkpt>
      <trkpt lat="42.92997" lon="0.74657">
        <ele>1785.2</ele>
        <time>2020-02-23T11:03:07Z</time>
      </trkpt>
      <trkpt lat="42.92997" lon="0.74657">
        <ele>1785.2</ele>
        <time>2020-02-23T11:03:08Z</time>
      </trkpt>
      <trkpt lat="42.92997" lon="0.74657">
        <ele>1785.2</ele>
        <time>2020-02-23T11:03:09Z</time>
      </trkpt>
      <trkpt lat="42.92997" lon="0.74657">
        <ele>1785.2</ele>
        <time>2020-02-23T11:03:10Z</time>
      </trkpt>
      <trkpt lat="42.92997" lon="0.74657">
        <ele>1785.2</ele>
        <time>2020-02-23T11:03:11Z</time>
      </trkpt>
      <trkpt lat="42.92997" lon="0.74657">
        <ele>1785.2</ele>
        <time>2020-02-23T11:03:12Z</time>
      </trkpt>
      <trkpt lat="42.92996" lon="0.74654">
        <ele>1785.1</ele>
        <time>2020-02-23T11:03:13Z</time>
      </trkpt>
      <trkpt lat="42.92996" lon="0.74654">
        <ele>1785.1</ele>
        <time>2020-02-23T11:03:14Z</time>
      </trkpt>
      <trkpt lat="42.92996" lon="0.74654">
        <ele>1785.1</ele>
        <time>2020-02-23T11:03:15Z</time>
      </trkpt>
      <trkpt lat="42.92996" lon="0.74654">
        <ele>1785.1</ele>
        <time>2020-02-23T11:03:16Z</time>
      </trkpt>
      <trkpt lat="42.92996" lon="0.74654">
        <ele>1785.1</ele>
        <time>2020-02-23T11:03:17Z</time>
      </trkpt>
      <trkpt lat="42.92996" lon="0.74654">
        <ele>1785.1</ele>
        <time>2020-02-23T11:03:18Z</time>
      </trkpt>
      <trkpt lat="42.92996" lon="0.74654">
        <ele>1785.1</ele>
        <time>2020-02-23T11:03:19Z</time>
      </trkpt>
      <trkpt lat="42.92996" lon="0.74654">
        <ele>1785.1</ele>
        <time>2020-02-23T11:03:20Z</time>
      </trkpt>
      <trkpt lat="42.92996" lon="0.74654">
        <ele>1785.1</ele>
        <time>2020-02-23T11:03:21Z</time>
      </trkpt>
      <trkpt lat="42.92996" lon="0.74654">
        <ele>1785.1</ele>
        <time>2020-02-23T11:03:22Z</time>
      </trkpt>
      <trkpt lat="42.92996" lon="0.74654">
        <ele>1785.1</ele>
        <time>2020-02-23T11:03:23Z</time>
      </trkpt>
      <trkpt lat="42.92996" lon="0.74654">
        <ele>1785.1</ele>
        <time>2020-02-23T11:03:24Z</time>
      </trkpt>
      <trkpt lat="42.92996" lon="0.74654">
        <ele>1785.1</ele>
        <time>2020-02-23T11:03:25Z</time>
      </trkpt>
      <trkpt lat="42.92996" lon="0.74654">
        <ele>1785.1</ele>
        <time>2020-02-23T11:03:26Z</time>
      </trkpt>
      <trkpt lat="42.92996" lon="0.74654">
        <ele>1785.1</ele>
        <time>2020-02-23T11:03:27Z</time>
      </trkpt>
      <trkpt lat="42.92996" lon="0.74654">
        <ele>1785.1</ele>
        <time>2020-02-23T11:03:28Z</time>
      </trkpt>
      <trkpt lat="42.92996" lon="0.74654">
        <ele>1785.1</ele>
        <time>2020-02-23T11:03:29Z</time>
      </trkpt>
      <trkpt lat="42.92996" lon="0.74654">
        <ele>1785.1</ele>
        <time>2020-02-23T11:03:30Z</time>
      </trkpt>
      <trkpt lat="42.92996" lon="0.74654">
        <ele>1785.1</ele>
        <time>2020-02-23T11:03:31Z</time>
      </trkpt>
      <trkpt lat="42.92996" lon="0.74654">
        <ele>1785.1</ele>
        <time>2020-02-23T11:03:32Z</time>
      </trkpt>
      <trkpt lat="42.92996" lon="0.74654">
        <ele>1785.1</ele>
        <time>2020-02-23T11:03:33Z</time>
      </trkpt>
      <trkpt lat="42.92996" lon="0.74654">
        <ele>1785.1</ele>
        <time>2020-02-23T11:03:34Z</time>
      </trkpt>
      <trkpt lat="42.92996" lon="0.74654">
        <ele>1785.1</ele>
        <time>2020-02-23T11:03:35Z</time>
      </trkpt>
      <trkpt lat="42.92996" lon="0.74654">
        <ele>1785.1</ele>
        <time>2020-02-23T11:03:36Z</time>
      </trkpt>
      <trkpt lat="42.92996" lon="0.74654">
        <ele>1785.1</ele>
        <time>2020-02-23T11:03:37Z</time>
      </trkpt>
      <trkpt lat="42.92996" lon="0.74654">
        <ele>1785.1</ele>
        <time>2020-02-23T11:03:38Z</time>
      </trkpt>
      <trkpt lat="42.92996" lon="0.74654">
        <ele>1785.1</ele>
        <time>2020-02-23T11:03:39Z</time>
      </trkpt>
      <trkpt lat="42.92996" lon="0.74654">
        <ele>1785.1</ele>
        <time>2020-02-23T11:03:40Z</time>
      </trkpt>
      <trkpt lat="42.92996" lon="0.74654">
        <ele>1785.1</ele>
        <time>2020-02-23T11:03:41Z</time>
      </trkpt>
      <trkpt lat="42.92996" lon="0.74654">
        <ele>1785.1</ele>
        <time>2020-02-23T11:03:42Z</time>
      </trkpt>
      <trkpt lat="42.92996" lon="0.74654">
        <ele>1785.1</ele>
        <time>2020-02-23T11:03:43Z</time>
      </trkpt>
      <trkpt lat="42.92996" lon="0.74654">
        <ele>1785.1</ele>
        <time>2020-02-23T11:03:44Z</time>
      </trkpt>
      <trkpt lat="42.92996" lon="0.74654">
        <ele>1785.1</ele>
        <time>2020-02-23T11:03:45Z</time>
      </trkpt>
      <trkpt lat="42.92996" lon="0.74654">
        <ele>1785.1</ele>
        <time>2020-02-23T11:03:46Z</time>
      </trkpt>
      <trkpt lat="42.92996" lon="0.74654">
        <ele>1785.1</ele>
        <time>2020-02-23T11:03:47Z</time>
      </trkpt>
      <trkpt lat="42.92996" lon="0.74654">
        <ele>1785.1</ele>
        <time>2020-02-23T11:03:48Z</time>
      </trkpt>
      <trkpt lat="42.92996" lon="0.74654">
        <ele>1785.1</ele>
        <time>2020-02-23T11:03:49Z</time>
      </trkpt>
      <trkpt lat="42.92996" lon="0.74654">
        <ele>1785.1</ele>
        <time>2020-02-23T11:03:50Z</time>
      </trkpt>
      <trkpt lat="42.92996" lon="0.74654">
        <ele>1785.1</ele>
        <time>2020-02-23T11:03:51Z</time>
      </trkpt>
      <trkpt lat="42.92996" lon="0.74654">
        <ele>1785.1</ele>
        <time>2020-02-23T11:03:52Z</time>
      </trkpt>
      <trkpt lat="42.92996" lon="0.74654">
        <ele>1785.1</ele>
        <time>2020-02-23T11:03:53Z</time>
      </trkpt>
      <trkpt lat="42.92996" lon="0.74654">
        <ele>1785.1</ele>
        <time>2020-02-23T11:03:54Z</time>
      </trkpt>
      <trkpt lat="42.92996" lon="0.74654">
        <ele>1785.1</ele>
        <time>2020-02-23T11:03:55Z</time>
      </trkpt>
      <trkpt lat="42.92996" lon="0.74654">
        <ele>1785.1</ele>
        <time>2020-02-23T11:03:56Z</time>
      </trkpt>
      <trkpt lat="42.92996" lon="0.74654">
        <ele>1785.1</ele>
        <time>2020-02-23T11:03:57Z</time>
      </trkpt>
      <trkpt lat="42.92996" lon="0.74654">
        <ele>1785.1</ele>
        <time>2020-02-23T11:03:58Z</time>
      </trkpt>
      <trkpt lat="42.92996" lon="0.74654">
        <ele>1785.1</ele>
        <time>2020-02-23T11:03:59Z</time>
      </trkpt>
      <trkpt lat="42.92996" lon="0.74654">
        <ele>1785.1</ele>
        <time>2020-02-23T11:04:00Z</time>
      </trkpt>
      <trkpt lat="42.92996" lon="0.74654">
        <ele>1785.1</ele>
        <time>2020-02-23T11:04:01Z</time>
      </trkpt>
      <trkpt lat="42.92996" lon="0.74654">
        <ele>1785.1</ele>
        <time>2020-02-23T11:04:02Z</time>
      </trkpt>
      <trkpt lat="42.92996" lon="0.74654">
        <ele>1785.1</ele>
        <time>2020-02-23T11:04:03Z</time>
      </trkpt>
      <trkpt lat="42.92996" lon="0.74654">
        <ele>1785.1</ele>
        <time>2020-02-23T11:04:04Z</time>
      </trkpt>
      <trkpt lat="42.92996" lon="0.74654">
        <ele>1785.1</ele>
        <time>2020-02-23T11:04:05Z</time>
      </trkpt>
      <trkpt lat="42.92996" lon="0.74654">
        <ele>1785.1</ele>
        <time>2020-02-23T11:04:06Z</time>
      </trkpt>
      <trkpt lat="42.92996" lon="0.74654">
        <ele>1785.1</ele>
        <time>2020-02-23T11:04:07Z</time>
      </trkpt>
      <trkpt lat="42.92996" lon="0.74654">
        <ele>1785.1</ele>
        <time>2020-02-23T11:04:08Z</time>
      </trkpt>
      <trkpt lat="42.92996" lon="0.74654">
        <ele>1785.1</ele>
        <time>2020-02-23T11:04:09Z</time>
      </trkpt>
      <trkpt lat="42.92996" lon="0.74654">
        <ele>1785.1</ele>
        <time>2020-02-23T11:04:10Z</time>
      </trkpt>
      <trkpt lat="42.92996" lon="0.74654">
        <ele>1785.1</ele>
        <time>2020-02-23T11:04:11Z</time>
      </trkpt>
      <trkpt lat="42.92996" lon="0.74654">
        <ele>1785.1</ele>
        <time>2020-02-23T11:04:12Z</time>
      </trkpt>
      <trkpt lat="42.92996" lon="0.74654">
        <ele>1785.1</ele>
        <time>2020-02-23T11:04:13Z</time>
      </trkpt>
      <trkpt lat="42.92996" lon="0.74654">
        <ele>1785.1</ele>
        <time>2020-02-23T11:04:14Z</time>
      </trkpt>
      <trkpt lat="42.92996" lon="0.74654">
        <ele>1785.1</ele>
        <time>2020-02-23T11:04:15Z</time>
      </trkpt>
      <trkpt lat="42.92996" lon="0.74654">
        <ele>1785.1</ele>
        <time>2020-02-23T11:04:16Z</time>
      </trkpt>
      <trkpt lat="42.92996" lon="0.74654">
        <ele>1785.1</ele>
        <time>2020-02-23T11:04:17Z</time>
      </trkpt>
      <trkpt lat="42.92996" lon="0.74654">
        <ele>1785.1</ele>
        <time>2020-02-23T11:04:18Z</time>
      </trkpt>
      <trkpt lat="42.92996" lon="0.74654">
        <ele>1785.1</ele>
        <time>2020-02-23T11:04:19Z</time>
      </trkpt>
      <trkpt lat="42.92997" lon="0.74657">
        <ele>1785.2</ele>
        <time>2020-02-23T11:04:20Z</time>
      </trkpt>
      <trkpt lat="42.92997" lon="0.74657">
        <ele>1785.2</ele>
        <time>2020-02-23T11:04:21Z</time>
      </trkpt>
      <trkpt lat="42.92997" lon="0.74657">
        <ele>1785.2</ele>
        <time>2020-02-23T11:04:22Z</time>
      </trkpt>
      <trkpt lat="42.92997" lon="0.74657">
        <ele>1785.2</ele>
        <time>2020-02-23T11:04:23Z</time>
      </trkpt>
      <trkpt lat="42.92997" lon="0.74657">
        <ele>1785.2</ele>
        <time>2020-02-23T11:04:24Z</time>
      </trkpt>
      <trkpt lat="42.92997" lon="0.74657">
        <ele>1785.2</ele>
        <time>2020-02-23T11:04:25Z</time>
      </trkpt>
      <trkpt lat="42.92997" lon="0.74657">
        <ele>1785.2</ele>
        <time>2020-02-23T11:04:26Z</time>
      </trkpt>
      <trkpt lat="42.92997" lon="0.74657">
        <ele>1785.2</ele>
        <time>2020-02-23T11:04:27Z</time>
      </trkpt>
      <trkpt lat="42.92997" lon="0.74657">
        <ele>1785.2</ele>
        <time>2020-02-23T11:04:28Z</time>
      </trkpt>
      <trkpt lat="42.92997" lon="0.74657">
        <ele>1785.2</ele>
        <time>2020-02-23T11:04:29Z</time>
      </trkpt>
      <trkpt lat="42.92997" lon="0.74657">
        <ele>1785.2</ele>
        <time>2020-02-23T11:04:30Z</time>
      </trkpt>
      <trkpt lat="42.92997" lon="0.74657">
        <ele>1785.2</ele>
        <time>2020-02-23T11:04:31Z</time>
      </trkpt>
      <trkpt lat="42.92997" lon="0.74657">
        <ele>1785.2</ele>
        <time>2020-02-23T11:04:32Z</time>
      </trkpt>
      <trkpt lat="42.92997" lon="0.74657">
        <ele>1785.2</ele>
        <time>2020-02-23T11:04:33Z</time>
      </trkpt>
      <trkpt lat="42.92997" lon="0.74657">
        <ele>1785.2</ele>
        <time>2020-02-23T11:04:34Z</time>
      </trkpt>
      <trkpt lat="42.92997" lon="0.74657">
        <ele>1785.2</ele>
        <time>2020-02-23T11:04:35Z</time>
      </trkpt>
      <trkpt lat="42.92997" lon="0.74657">
        <ele>1785.2</ele>
        <time>2020-02-23T11:04:36Z</time>
      </trkpt>
      <trkpt lat="42.92997" lon="0.74657">
        <ele>1785.2</ele>
        <time>2020-02-23T11:04:37Z</time>
      </trkpt>
      <trkpt lat="42.92997" lon="0.74657">
        <ele>1785.2</ele>
        <time>2020-02-23T11:04:38Z</time>
      </trkpt>
      <trkpt lat="42.92998" lon="0.74658">
        <ele>1785.4</ele>
        <time>2020-02-23T11:04:39Z</time>
      </trkpt>
      <trkpt lat="42.92998" lon="0.74658">
        <ele>1785.4</ele>
        <time>2020-02-23T11:04:40Z</time>
      </trkpt>
      <trkpt lat="42.92998" lon="0.74658">
        <ele>1785.4</ele>
        <time>2020-02-23T11:04:41Z</time>
      </trkpt>
      <trkpt lat="42.92998" lon="0.74658">
        <ele>1785.4</ele>
        <time>2020-02-23T11:04:42Z</time>
      </trkpt>
      <trkpt lat="42.92998" lon="0.74658">
        <ele>1785.4</ele>
        <time>2020-02-23T11:04:43Z</time>
      </trkpt>
      <trkpt lat="42.92998" lon="0.74658">
        <ele>1785.4</ele>
        <time>2020-02-23T11:04:44Z</time>
      </trkpt>
      <trkpt lat="42.92998" lon="0.74658">
        <ele>1785.4</ele>
        <time>2020-02-23T11:04:45Z</time>
      </trkpt>
      <trkpt lat="42.92998" lon="0.74658">
        <ele>1785.4</ele>
        <time>2020-02-23T11:04:46Z</time>
      </trkpt>
      <trkpt lat="42.92998" lon="0.74658">
        <ele>1785.4</ele>
        <time>2020-02-23T11:04:47Z</time>
      </trkpt>
      <trkpt lat="42.92998" lon="0.74658">
        <ele>1785.4</ele>
        <time>2020-02-23T11:04:48Z</time>
      </trkpt>
      <trkpt lat="42.92998" lon="0.74658">
        <ele>1785.4</ele>
        <time>2020-02-23T11:04:49Z</time>
      </trkpt>
      <trkpt lat="42.92998" lon="0.74658">
        <ele>1785.4</ele>
        <time>2020-02-23T11:04:50Z</time>
      </trkpt>
      <trkpt lat="42.92998" lon="0.74658">
        <ele>1785.4</ele>
        <time>2020-02-23T11:04:51Z</time>
      </trkpt>
      <trkpt lat="42.92998" lon="0.74658">
        <ele>1785.4</ele>
        <time>2020-02-23T11:04:52Z</time>
      </trkpt>
      <trkpt lat="42.92997" lon="0.74655">
        <ele>1785.1</ele>
        <time>2020-02-23T11:04:53Z</time>
      </trkpt>
      <trkpt lat="42.92997" lon="0.74655">
        <ele>1785.1</ele>
        <time>2020-02-23T11:04:54Z</time>
      </trkpt>
      <trkpt lat="42.92997" lon="0.74655">
        <ele>1785.1</ele>
        <time>2020-02-23T11:04:55Z</time>
      </trkpt>
      <trkpt lat="42.92997" lon="0.74655">
        <ele>1785.1</ele>
        <time>2020-02-23T11:04:56Z</time>
      </trkpt>
      <trkpt lat="42.92997" lon="0.74655">
        <ele>1785.1</ele>
        <time>2020-02-23T11:04:57Z</time>
      </trkpt>
      <trkpt lat="42.92997" lon="0.74655">
        <ele>1785.1</ele>
        <time>2020-02-23T11:04:58Z</time>
      </trkpt>
      <trkpt lat="42.92997" lon="0.74655">
        <ele>1785.1</ele>
        <time>2020-02-23T11:04:59Z</time>
      </trkpt>
      <trkpt lat="42.92995" lon="0.74654">
        <ele>1785.1</ele>
        <time>2020-02-23T11:05:00Z</time>
      </trkpt>
      <trkpt lat="42.92995" lon="0.74654">
        <ele>1785.1</ele>
        <time>2020-02-23T11:05:01Z</time>
      </trkpt>
      <trkpt lat="42.92995" lon="0.74654">
        <ele>1785.1</ele>
        <time>2020-02-23T11:05:02Z</time>
      </trkpt>
      <trkpt lat="42.92995" lon="0.74654">
        <ele>1785.1</ele>
        <time>2020-02-23T11:05:03Z</time>
      </trkpt>
      <trkpt lat="42.92995" lon="0.74654">
        <ele>1785.1</ele>
        <time>2020-02-23T11:05:04Z</time>
      </trkpt>
      <trkpt lat="42.92995" lon="0.74654">
        <ele>1785.1</ele>
        <time>2020-02-23T11:05:05Z</time>
      </trkpt>
      <trkpt lat="42.92995" lon="0.74654">
        <ele>1785.1</ele>
        <time>2020-02-23T11:05:06Z</time>
      </trkpt>
      <trkpt lat="42.92995" lon="0.74654">
        <ele>1785.1</ele>
        <time>2020-02-23T11:05:07Z</time>
      </trkpt>
      <trkpt lat="42.92995" lon="0.74654">
        <ele>1785.1</ele>
        <time>2020-02-23T11:05:08Z</time>
      </trkpt>
      <trkpt lat="42.92995" lon="0.74654">
        <ele>1785.1</ele>
        <time>2020-02-23T11:05:09Z</time>
      </trkpt>
      <trkpt lat="42.92993" lon="0.74654">
        <ele>1785</ele>
        <time>2020-02-23T11:05:10Z</time>
      </trkpt>
      <trkpt lat="42.92993" lon="0.74654">
        <ele>1785</ele>
        <time>2020-02-23T11:05:11Z</time>
      </trkpt>
      <trkpt lat="42.92993" lon="0.74654">
        <ele>1785</ele>
        <time>2020-02-23T11:05:12Z</time>
      </trkpt>
      <trkpt lat="42.92993" lon="0.74654">
        <ele>1785</ele>
        <time>2020-02-23T11:05:13Z</time>
      </trkpt>
      <trkpt lat="42.92993" lon="0.74654">
        <ele>1785</ele>
        <time>2020-02-23T11:05:14Z</time>
      </trkpt>
      <trkpt lat="42.92993" lon="0.74654">
        <ele>1785</ele>
        <time>2020-02-23T11:05:15Z</time>
      </trkpt>
      <trkpt lat="42.92993" lon="0.74654">
        <ele>1785</ele>
        <time>2020-02-23T11:05:16Z</time>
      </trkpt>
      <trkpt lat="42.92993" lon="0.74654">
        <ele>1785</ele>
        <time>2020-02-23T11:05:17Z</time>
      </trkpt>
      <trkpt lat="42.92992" lon="0.74653">
        <ele>1785</ele>
        <time>2020-02-23T11:05:18Z</time>
      </trkpt>
      <trkpt lat="42.92992" lon="0.74653">
        <ele>1785</ele>
        <time>2020-02-23T11:05:19Z</time>
      </trkpt>
      <trkpt lat="42.92992" lon="0.74653">
        <ele>1785</ele>
        <time>2020-02-23T11:05:20Z</time>
      </trkpt>
      <trkpt lat="42.92992" lon="0.74653">
        <ele>1785</ele>
        <time>2020-02-23T11:05:21Z</time>
      </trkpt>
      <trkpt lat="42.92992" lon="0.74653">
        <ele>1785</ele>
        <time>2020-02-23T11:05:22Z</time>
      </trkpt>
      <trkpt lat="42.9299" lon="0.74651">
        <ele>1785</ele>
        <time>2020-02-23T11:05:23Z</time>
      </trkpt>
      <trkpt lat="42.9299" lon="0.74651">
        <ele>1785</ele>
        <time>2020-02-23T11:05:24Z</time>
      </trkpt>
      <trkpt lat="42.9299" lon="0.74651">
        <ele>1785</ele>
        <time>2020-02-23T11:05:25Z</time>
      </trkpt>
      <trkpt lat="42.9299" lon="0.74651">
        <ele>1785</ele>
        <time>2020-02-23T11:05:26Z</time>
      </trkpt>
      <trkpt lat="42.92988" lon="0.7465">
        <ele>1785</ele>
        <time>2020-02-23T11:05:27Z</time>
      </trkpt>
      <trkpt lat="42.92988" lon="0.7465">
        <ele>1785</ele>
        <time>2020-02-23T11:05:28Z</time>
      </trkpt>
      <trkpt lat="42.92987" lon="0.74649">
        <ele>1785</ele>
        <time>2020-02-23T11:05:29Z</time>
      </trkpt>
      <trkpt lat="42.92987" lon="0.74649">
        <ele>1785</ele>
        <time>2020-02-23T11:05:30Z</time>
      </trkpt>
      <trkpt lat="42.92987" lon="0.74649">
        <ele>1785</ele>
        <time>2020-02-23T11:05:31Z</time>
      </trkpt>
      <trkpt lat="42.92987" lon="0.74649">
        <ele>1785</ele>
        <time>2020-02-23T11:05:32Z</time>
      </trkpt>
      <trkpt lat="42.92987" lon="0.74649">
        <ele>1785</ele>
        <time>2020-02-23T11:05:33Z</time>
      </trkpt>
      <trkpt lat="42.92987" lon="0.74649">
        <ele>1785</ele>
        <time>2020-02-23T11:05:34Z</time>
      </trkpt>
      <trkpt lat="42.92985" lon="0.74648">
        <ele>1785.1</ele>
        <time>2020-02-23T11:05:35Z</time>
      </trkpt>
      <trkpt lat="42.92985" lon="0.74648">
        <ele>1785.1</ele>
        <time>2020-02-23T11:05:36Z</time>
      </trkpt>
      <trkpt lat="42.92985" lon="0.74648">
        <ele>1785.1</ele>
        <time>2020-02-23T11:05:37Z</time>
      </trkpt>
      <trkpt lat="42.92985" lon="0.74648">
        <ele>1785.1</ele>
        <time>2020-02-23T11:05:38Z</time>
      </trkpt>
      <trkpt lat="42.92985" lon="0.74648">
        <ele>1785.1</ele>
        <time>2020-02-23T11:05:39Z</time>
      </trkpt>
      <trkpt lat="42.92984" lon="0.74645">
        <ele>1785.3</ele>
        <time>2020-02-23T11:05:40Z</time>
      </trkpt>
      <trkpt lat="42.92984" lon="0.74645">
        <ele>1785.3</ele>
        <time>2020-02-23T11:05:41Z</time>
      </trkpt>
      <trkpt lat="42.92984" lon="0.74645">
        <ele>1785.3</ele>
        <time>2020-02-23T11:05:42Z</time>
      </trkpt>
      <trkpt lat="42.92984" lon="0.74645">
        <ele>1785.3</ele>
        <time>2020-02-23T11:05:43Z</time>
      </trkpt>
      <trkpt lat="42.92984" lon="0.74645">
        <ele>1785.3</ele>
        <time>2020-02-23T11:05:44Z</time>
      </trkpt>
      <trkpt lat="42.92984" lon="0.74645">
        <ele>1785.3</ele>
        <time>2020-02-23T11:05:45Z</time>
      </trkpt>
      <trkpt lat="42.92984" lon="0.74645">
        <ele>1785.3</ele>
        <time>2020-02-23T11:05:46Z</time>
      </trkpt>
      <trkpt lat="42.92984" lon="0.74642">
        <ele>1785.5</ele>
        <time>2020-02-23T11:05:47Z</time>
      </trkpt>
      <trkpt lat="42.92984" lon="0.74642">
        <ele>1785.5</ele>
        <time>2020-02-23T11:05:48Z</time>
      </trkpt>
      <trkpt lat="42.92984" lon="0.74642">
        <ele>1785.5</ele>
        <time>2020-02-23T11:05:49Z</time>
      </trkpt>
      <trkpt lat="42.92983" lon="0.7464">
        <ele>1785.5</ele>
        <time>2020-02-23T11:05:50Z</time>
      </trkpt>
      <trkpt lat="42.92983" lon="0.7464">
        <ele>1785.5</ele>
        <time>2020-02-23T11:05:51Z</time>
      </trkpt>
      <trkpt lat="42.92983" lon="0.7464">
        <ele>1785.6</ele>
        <time>2020-02-23T11:05:52Z</time>
      </trkpt>
      <trkpt lat="42.92983" lon="0.7464">
        <ele>1785.6</ele>
        <time>2020-02-23T11:05:53Z</time>
      </trkpt>
      <trkpt lat="42.92983" lon="0.7464">
        <ele>1785.6</ele>
        <time>2020-02-23T11:05:54Z</time>
      </trkpt>
      <trkpt lat="42.92983" lon="0.7464">
        <ele>1785.6</ele>
        <time>2020-02-23T11:05:55Z</time>
      </trkpt>
      <trkpt lat="42.92983" lon="0.7464">
        <ele>1785.6</ele>
        <time>2020-02-23T11:05:56Z</time>
      </trkpt>
      <trkpt lat="42.92983" lon="0.7464">
        <ele>1785.6</ele>
        <time>2020-02-23T11:05:57Z</time>
      </trkpt>
      <trkpt lat="42.92985" lon="0.74639">
        <ele>1785.4</ele>
        <time>2020-02-23T11:05:58Z</time>
      </trkpt>
      <trkpt lat="42.92985" lon="0.74639">
        <ele>1785.4</ele>
        <time>2020-02-23T11:05:59Z</time>
      </trkpt>
      <trkpt lat="42.92985" lon="0.74639">
        <ele>1785.4</ele>
        <time>2020-02-23T11:06:00Z</time>
      </trkpt>
      <trkpt lat="42.92985" lon="0.74639">
        <ele>1785.4</ele>
        <time>2020-02-23T11:06:01Z</time>
      </trkpt>
      <trkpt lat="42.92985" lon="0.74639">
        <ele>1785.4</ele>
        <time>2020-02-23T11:06:02Z</time>
      </trkpt>
      <trkpt lat="42.92985" lon="0.74639">
        <ele>1785.5</ele>
        <time>2020-02-23T11:06:03Z</time>
      </trkpt>
      <trkpt lat="42.92985" lon="0.74639">
        <ele>1785.5</ele>
        <time>2020-02-23T11:06:04Z</time>
      </trkpt>
      <trkpt lat="42.92985" lon="0.74639">
        <ele>1785.5</ele>
        <time>2020-02-23T11:06:05Z</time>
      </trkpt>
      <trkpt lat="42.92987" lon="0.74637">
        <ele>1785.5</ele>
        <time>2020-02-23T11:06:06Z</time>
      </trkpt>
      <trkpt lat="42.92987" lon="0.74637">
        <ele>1785.5</ele>
        <time>2020-02-23T11:06:07Z</time>
      </trkpt>
      <trkpt lat="42.92987" lon="0.74637">
        <ele>1785.5</ele>
        <time>2020-02-23T11:06:08Z</time>
      </trkpt>
      <trkpt lat="42.92987" lon="0.74637">
        <ele>1785.6</ele>
        <time>2020-02-23T11:06:09Z</time>
      </trkpt>
      <trkpt lat="42.92987" lon="0.74637">
        <ele>1785.6</ele>
        <time>2020-02-23T11:06:10Z</time>
      </trkpt>
      <trkpt lat="42.92987" lon="0.74637">
        <ele>1785.6</ele>
        <time>2020-02-23T11:06:11Z</time>
      </trkpt>
      <trkpt lat="42.92987" lon="0.74637">
        <ele>1785.6</ele>
        <time>2020-02-23T11:06:12Z</time>
      </trkpt>
      <trkpt lat="42.92987" lon="0.74637">
        <ele>1785.6</ele>
        <time>2020-02-23T11:06:13Z</time>
      </trkpt>
      <trkpt lat="42.92987" lon="0.74635">
        <ele>1785.6</ele>
        <time>2020-02-23T11:06:14Z</time>
      </trkpt>
      <trkpt lat="42.92987" lon="0.74635">
        <ele>1785.6</ele>
        <time>2020-02-23T11:06:15Z</time>
      </trkpt>
      <trkpt lat="42.92987" lon="0.74635">
        <ele>1785.6</ele>
        <time>2020-02-23T11:06:16Z</time>
      </trkpt>
      <trkpt lat="42.92987" lon="0.74635">
        <ele>1785.6</ele>
        <time>2020-02-23T11:06:17Z</time>
      </trkpt>
      <trkpt lat="42.92987" lon="0.74635">
        <ele>1785.6</ele>
        <time>2020-02-23T11:06:18Z</time>
      </trkpt>
      <trkpt lat="42.92987" lon="0.74635">
        <ele>1785.6</ele>
        <time>2020-02-23T11:06:19Z</time>
      </trkpt>
      <trkpt lat="42.92987" lon="0.74635">
        <ele>1785.6</ele>
        <time>2020-02-23T11:06:20Z</time>
      </trkpt>
      <trkpt lat="42.92987" lon="0.74635">
        <ele>1785.6</ele>
        <time>2020-02-23T11:06:21Z</time>
      </trkpt>
      <trkpt lat="42.92987" lon="0.74635">
        <ele>1785.6</ele>
        <time>2020-02-23T11:06:22Z</time>
      </trkpt>
      <trkpt lat="42.92987" lon="0.74635">
        <ele>1785.6</ele>
        <time>2020-02-23T11:06:23Z</time>
      </trkpt>
      <trkpt lat="42.92987" lon="0.74635">
        <ele>1785.6</ele>
        <time>2020-02-23T11:06:24Z</time>
      </trkpt>
      <trkpt lat="42.92989" lon="0.74637">
        <ele>1785.5</ele>
        <time>2020-02-23T11:06:25Z</time>
      </trkpt>
      <trkpt lat="42.92989" lon="0.74637">
        <ele>1785.5</ele>
        <time>2020-02-23T11:06:26Z</time>
      </trkpt>
      <trkpt lat="42.92989" lon="0.74637">
        <ele>1785.5</ele>
        <time>2020-02-23T11:06:27Z</time>
      </trkpt>
      <trkpt lat="42.92989" lon="0.74637">
        <ele>1785.5</ele>
        <time>2020-02-23T11:06:28Z</time>
      </trkpt>
      <trkpt lat="42.92989" lon="0.74637">
        <ele>1785.5</ele>
        <time>2020-02-23T11:06:29Z</time>
      </trkpt>
      <trkpt lat="42.92989" lon="0.74637">
        <ele>1785.5</ele>
        <time>2020-02-23T11:06:30Z</time>
      </trkpt>
      <trkpt lat="42.92989" lon="0.74637">
        <ele>1785.5</ele>
        <time>2020-02-23T11:06:31Z</time>
      </trkpt>
      <trkpt lat="42.92989" lon="0.74637">
        <ele>1785.6</ele>
        <time>2020-02-23T11:06:32Z</time>
      </trkpt>
      <trkpt lat="42.92989" lon="0.74637">
        <ele>1785.6</ele>
        <time>2020-02-23T11:06:33Z</time>
      </trkpt>
      <trkpt lat="42.92989" lon="0.74637">
        <ele>1785.6</ele>
        <time>2020-02-23T11:06:34Z</time>
      </trkpt>
      <trkpt lat="42.92989" lon="0.74637">
        <ele>1785.6</ele>
        <time>2020-02-23T11:06:35Z</time>
      </trkpt>
      <trkpt lat="42.92989" lon="0.74637">
        <ele>1785.6</ele>
        <time>2020-02-23T11:06:36Z</time>
      </trkpt>
      <trkpt lat="42.92989" lon="0.74637">
        <ele>1785.6</ele>
        <time>2020-02-23T11:06:37Z</time>
      </trkpt>
      <trkpt lat="42.92989" lon="0.74637">
        <ele>1785.6</ele>
        <time>2020-02-23T11:06:38Z</time>
      </trkpt>
      <trkpt lat="42.92989" lon="0.74634">
        <ele>1785.6</ele>
        <time>2020-02-23T11:06:39Z</time>
      </trkpt>
      <trkpt lat="42.92989" lon="0.74634">
        <ele>1785.6</ele>
        <time>2020-02-23T11:06:40Z</time>
      </trkpt>
      <trkpt lat="42.92989" lon="0.74634">
        <ele>1785.6</ele>
        <time>2020-02-23T11:06:41Z</time>
      </trkpt>
      <trkpt lat="42.92989" lon="0.74634">
        <ele>1785.6</ele>
        <time>2020-02-23T11:06:42Z</time>
      </trkpt>
      <trkpt lat="42.9299" lon="0.74632">
        <ele>1785.7</ele>
        <time>2020-02-23T11:06:43Z</time>
      </trkpt>
      <trkpt lat="42.9299" lon="0.74632">
        <ele>1785.7</ele>
        <time>2020-02-23T11:06:44Z</time>
      </trkpt>
      <trkpt lat="42.92992" lon="0.7463">
        <ele>1785.5</ele>
        <time>2020-02-23T11:06:45Z</time>
      </trkpt>
      <trkpt lat="42.92992" lon="0.7463">
        <ele>1785.5</ele>
        <time>2020-02-23T11:06:46Z</time>
      </trkpt>
      <trkpt lat="42.92992" lon="0.7463">
        <ele>1785.5</ele>
        <time>2020-02-23T11:06:47Z</time>
      </trkpt>
      <trkpt lat="42.92992" lon="0.7463">
        <ele>1785.5</ele>
        <time>2020-02-23T11:06:48Z</time>
      </trkpt>
      <trkpt lat="42.92993" lon="0.74628">
        <ele>1785.5</ele>
        <time>2020-02-23T11:06:49Z</time>
      </trkpt>
      <trkpt lat="42.92993" lon="0.74628">
        <ele>1785.5</ele>
        <time>2020-02-23T11:06:50Z</time>
      </trkpt>
      <trkpt lat="42.92993" lon="0.74628">
        <ele>1785.5</ele>
        <time>2020-02-23T11:06:51Z</time>
      </trkpt>
      <trkpt lat="42.92993" lon="0.74628">
        <ele>1785.5</ele>
        <time>2020-02-23T11:06:52Z</time>
      </trkpt>
      <trkpt lat="42.92992" lon="0.74625">
        <ele>1785.5</ele>
        <time>2020-02-23T11:06:53Z</time>
      </trkpt>
      <trkpt lat="42.92992" lon="0.74625">
        <ele>1785.5</ele>
        <time>2020-02-23T11:06:54Z</time>
      </trkpt>
      <trkpt lat="42.92992" lon="0.74625">
        <ele>1785.5</ele>
        <time>2020-02-23T11:06:55Z</time>
      </trkpt>
      <trkpt lat="42.92992" lon="0.74625">
        <ele>1785.5</ele>
        <time>2020-02-23T11:06:56Z</time>
      </trkpt>
      <trkpt lat="42.92992" lon="0.74625">
        <ele>1785.5</ele>
        <time>2020-02-23T11:06:57Z</time>
      </trkpt>
      <trkpt lat="42.92992" lon="0.74625">
        <ele>1785.5</ele>
        <time>2020-02-23T11:06:58Z</time>
      </trkpt>
      <trkpt lat="42.92992" lon="0.74625">
        <ele>1785.6</ele>
        <time>2020-02-23T11:06:59Z</time>
      </trkpt>
      <trkpt lat="42.92992" lon="0.74625">
        <ele>1785.6</ele>
        <time>2020-02-23T11:07:00Z</time>
      </trkpt>
      <trkpt lat="42.92994" lon="0.74625">
        <ele>1785.3</ele>
        <time>2020-02-23T11:07:01Z</time>
      </trkpt>
      <trkpt lat="42.92994" lon="0.74625">
        <ele>1785.3</ele>
        <time>2020-02-23T11:07:02Z</time>
      </trkpt>
      <trkpt lat="42.92994" lon="0.74625">
        <ele>1785.3</ele>
        <time>2020-02-23T11:07:03Z</time>
      </trkpt>
      <trkpt lat="42.92996" lon="0.74625">
        <ele>1785.3</ele>
        <time>2020-02-23T11:07:04Z</time>
      </trkpt>
      <trkpt lat="42.92996" lon="0.74625">
        <ele>1785.3</ele>
        <time>2020-02-23T11:07:05Z</time>
      </trkpt>
      <trkpt lat="42.92996" lon="0.74625">
        <ele>1785.3</ele>
        <time>2020-02-23T11:07:06Z</time>
      </trkpt>
      <trkpt lat="42.92996" lon="0.74625">
        <ele>1785.3</ele>
        <time>2020-02-23T11:07:07Z</time>
      </trkpt>
      <trkpt lat="42.92996" lon="0.74625">
        <ele>1785.3</ele>
        <time>2020-02-23T11:07:08Z</time>
      </trkpt>
      <trkpt lat="42.92998" lon="0.74624">
        <ele>1785</ele>
        <time>2020-02-23T11:07:09Z</time>
      </trkpt>
      <trkpt lat="42.92998" lon="0.74624">
        <ele>1785</ele>
        <time>2020-02-23T11:07:10Z</time>
      </trkpt>
      <trkpt lat="42.92998" lon="0.74624">
        <ele>1785</ele>
        <time>2020-02-23T11:07:11Z</time>
      </trkpt>
      <trkpt lat="42.92998" lon="0.74624">
        <ele>1785</ele>
        <time>2020-02-23T11:07:12Z</time>
      </trkpt>
      <trkpt lat="42.92998" lon="0.74624">
        <ele>1785</ele>
        <time>2020-02-23T11:07:13Z</time>
      </trkpt>
      <trkpt lat="42.93001" lon="0.74624">
        <ele>1784.6</ele>
        <time>2020-02-23T11:07:14Z</time>
      </trkpt>
      <trkpt lat="42.93001" lon="0.74624">
        <ele>1784.6</ele>
        <time>2020-02-23T11:07:15Z</time>
      </trkpt>
      <trkpt lat="42.93001" lon="0.74624">
        <ele>1784.6</ele>
        <time>2020-02-23T11:07:16Z</time>
      </trkpt>
      <trkpt lat="42.93001" lon="0.74624">
        <ele>1784.6</ele>
        <time>2020-02-23T11:07:17Z</time>
      </trkpt>
      <trkpt lat="42.93002" lon="0.74623">
        <ele>1784.6</ele>
        <time>2020-02-23T11:07:18Z</time>
      </trkpt>
      <trkpt lat="42.93002" lon="0.74623">
        <ele>1784.6</ele>
        <time>2020-02-23T11:07:19Z</time>
      </trkpt>
      <trkpt lat="42.93002" lon="0.74623">
        <ele>1784.6</ele>
        <time>2020-02-23T11:07:20Z</time>
      </trkpt>
      <trkpt lat="42.93002" lon="0.74623">
        <ele>1784.6</ele>
        <time>2020-02-23T11:07:21Z</time>
      </trkpt>
      <trkpt lat="42.93004" lon="0.74622">
        <ele>1784.3</ele>
        <time>2020-02-23T11:07:22Z</time>
      </trkpt>
      <trkpt lat="42.93004" lon="0.74622">
        <ele>1784.3</ele>
        <time>2020-02-23T11:07:23Z</time>
      </trkpt>
      <trkpt lat="42.93004" lon="0.74622">
        <ele>1784.3</ele>
        <time>2020-02-23T11:07:24Z</time>
      </trkpt>
      <trkpt lat="42.93004" lon="0.74622">
        <ele>1784.3</ele>
        <time>2020-02-23T11:07:25Z</time>
      </trkpt>
      <trkpt lat="42.93005" lon="0.74619">
        <ele>1784.2</ele>
        <time>2020-02-23T11:07:26Z</time>
      </trkpt>
      <trkpt lat="42.93005" lon="0.74619">
        <ele>1784.2</ele>
        <time>2020-02-23T11:07:27Z</time>
      </trkpt>
      <trkpt lat="42.93005" lon="0.74619">
        <ele>1784.2</ele>
        <time>2020-02-23T11:07:28Z</time>
      </trkpt>
      <trkpt lat="42.93005" lon="0.74616">
        <ele>1784</ele>
        <time>2020-02-23T11:07:29Z</time>
      </trkpt>
      <trkpt lat="42.93005" lon="0.74616">
        <ele>1784</ele>
        <time>2020-02-23T11:07:30Z</time>
      </trkpt>
      <trkpt lat="42.93005" lon="0.74616">
        <ele>1784</ele>
        <time>2020-02-23T11:07:31Z</time>
      </trkpt>
      <trkpt lat="42.93007" lon="0.74614">
        <ele>1784</ele>
        <time>2020-02-23T11:07:32Z</time>
      </trkpt>
      <trkpt lat="42.93007" lon="0.74614">
        <ele>1784</ele>
        <time>2020-02-23T11:07:33Z</time>
      </trkpt>
      <trkpt lat="42.93007" lon="0.74614">
        <ele>1784</ele>
        <time>2020-02-23T11:07:34Z</time>
      </trkpt>
      <trkpt lat="42.93008" lon="0.74612">
        <ele>1783.5</ele>
        <time>2020-02-23T11:07:35Z</time>
      </trkpt>
      <trkpt lat="42.93008" lon="0.74612">
        <ele>1783.5</ele>
        <time>2020-02-23T11:07:36Z</time>
      </trkpt>
      <trkpt lat="42.93008" lon="0.74612">
        <ele>1783.5</ele>
        <time>2020-02-23T11:07:37Z</time>
      </trkpt>
      <trkpt lat="42.93009" lon="0.7461">
        <ele>1783.5</ele>
        <time>2020-02-23T11:07:38Z</time>
      </trkpt>
      <trkpt lat="42.93009" lon="0.7461">
        <ele>1783.5</ele>
        <time>2020-02-23T11:07:39Z</time>
      </trkpt>
      <trkpt lat="42.93009" lon="0.7461">
        <ele>1783.5</ele>
        <time>2020-02-23T11:07:40Z</time>
      </trkpt>
      <trkpt lat="42.93009" lon="0.7461">
        <ele>1783.5</ele>
        <time>2020-02-23T11:07:41Z</time>
      </trkpt>
      <trkpt lat="42.93009" lon="0.7461">
        <ele>1783.5</ele>
        <time>2020-02-23T11:07:42Z</time>
      </trkpt>
      <trkpt lat="42.93009" lon="0.7461">
        <ele>1783.5</ele>
        <time>2020-02-23T11:07:43Z</time>
      </trkpt>
      <trkpt lat="42.93009" lon="0.7461">
        <ele>1783.5</ele>
        <time>2020-02-23T11:07:44Z</time>
      </trkpt>
      <trkpt lat="42.93009" lon="0.7461">
        <ele>1783.5</ele>
        <time>2020-02-23T11:07:45Z</time>
      </trkpt>
      <trkpt lat="42.93009" lon="0.7461">
        <ele>1783.5</ele>
        <time>2020-02-23T11:07:46Z</time>
      </trkpt>
      <trkpt lat="42.93009" lon="0.7461">
        <ele>1783.5</ele>
        <time>2020-02-23T11:07:47Z</time>
      </trkpt>
      <trkpt lat="42.93011" lon="0.74608">
        <ele>1782.9</ele>
        <time>2020-02-23T11:07:48Z</time>
      </trkpt>
      <trkpt lat="42.93011" lon="0.74608">
        <ele>1782.9</ele>
        <time>2020-02-23T11:07:49Z</time>
      </trkpt>
      <trkpt lat="42.93011" lon="0.74608">
        <ele>1782.9</ele>
        <time>2020-02-23T11:07:50Z</time>
      </trkpt>
      <trkpt lat="42.93011" lon="0.74608">
        <ele>1782.9</ele>
        <time>2020-02-23T11:07:51Z</time>
      </trkpt>
      <trkpt lat="42.93011" lon="0.74608">
        <ele>1782.9</ele>
        <time>2020-02-23T11:07:52Z</time>
      </trkpt>
      <trkpt lat="42.93011" lon="0.74608">
        <ele>1782.9</ele>
        <time>2020-02-23T11:07:53Z</time>
      </trkpt>
      <trkpt lat="42.93012" lon="0.74607">
        <ele>1782.9</ele>
        <time>2020-02-23T11:07:54Z</time>
      </trkpt>
      <trkpt lat="42.93012" lon="0.74607">
        <ele>1782.9</ele>
        <time>2020-02-23T11:07:55Z</time>
      </trkpt>
      <trkpt lat="42.93014" lon="0.74605">
        <ele>1782.5</ele>
        <time>2020-02-23T11:07:56Z</time>
      </trkpt>
      <trkpt lat="42.93014" lon="0.74605">
        <ele>1782.5</ele>
        <time>2020-02-23T11:07:57Z</time>
      </trkpt>
      <trkpt lat="42.93014" lon="0.74605">
        <ele>1782.5</ele>
        <time>2020-02-23T11:07:58Z</time>
      </trkpt>
      <trkpt lat="42.93014" lon="0.74605">
        <ele>1782.5</ele>
        <time>2020-02-23T11:07:59Z</time>
      </trkpt>
      <trkpt lat="42.93015" lon="0.74602">
        <ele>1782.3</ele>
        <time>2020-02-23T11:08:00Z</time>
      </trkpt>
      <trkpt lat="42.93015" lon="0.74602">
        <ele>1782.3</ele>
        <time>2020-02-23T11:08:01Z</time>
      </trkpt>
      <trkpt lat="42.93015" lon="0.74602">
        <ele>1782.3</ele>
        <time>2020-02-23T11:08:02Z</time>
      </trkpt>
      <trkpt lat="42.93015" lon="0.74602">
        <ele>1782.3</ele>
        <time>2020-02-23T11:08:03Z</time>
      </trkpt>
      <trkpt lat="42.93016" lon="0.746">
        <ele>1781.9</ele>
        <time>2020-02-23T11:08:04Z</time>
      </trkpt>
      <trkpt lat="42.93016" lon="0.746">
        <ele>1781.9</ele>
        <time>2020-02-23T11:08:05Z</time>
      </trkpt>
      <trkpt lat="42.93016" lon="0.746">
        <ele>1781.9</ele>
        <time>2020-02-23T11:08:06Z</time>
      </trkpt>
      <trkpt lat="42.93016" lon="0.746">
        <ele>1781.9</ele>
        <time>2020-02-23T11:08:07Z</time>
      </trkpt>
      <trkpt lat="42.93016" lon="0.746">
        <ele>1781.9</ele>
        <time>2020-02-23T11:08:08Z</time>
      </trkpt>
      <trkpt lat="42.93018" lon="0.74599">
        <ele>1781.8</ele>
        <time>2020-02-23T11:08:09Z</time>
      </trkpt>
      <trkpt lat="42.93018" lon="0.74599">
        <ele>1781.8</ele>
        <time>2020-02-23T11:08:10Z</time>
      </trkpt>
      <trkpt lat="42.93018" lon="0.74599">
        <ele>1781.8</ele>
        <time>2020-02-23T11:08:11Z</time>
      </trkpt>
      <trkpt lat="42.93018" lon="0.74599">
        <ele>1781.8</ele>
        <time>2020-02-23T11:08:12Z</time>
      </trkpt>
      <trkpt lat="42.93018" lon="0.74595">
        <ele>1781.6</ele>
        <time>2020-02-23T11:08:13Z</time>
      </trkpt>
      <trkpt lat="42.93018" lon="0.74595">
        <ele>1781.6</ele>
        <time>2020-02-23T11:08:14Z</time>
      </trkpt>
      <trkpt lat="42.93018" lon="0.74595">
        <ele>1781.6</ele>
        <time>2020-02-23T11:08:15Z</time>
      </trkpt>
      <trkpt lat="42.93018" lon="0.74595">
        <ele>1781.6</ele>
        <time>2020-02-23T11:08:16Z</time>
      </trkpt>
      <trkpt lat="42.93019" lon="0.74593">
        <ele>1781.1</ele>
        <time>2020-02-23T11:08:17Z</time>
      </trkpt>
      <trkpt lat="42.93019" lon="0.74593">
        <ele>1781.1</ele>
        <time>2020-02-23T11:08:18Z</time>
      </trkpt>
      <trkpt lat="42.93019" lon="0.74593">
        <ele>1781.1</ele>
        <time>2020-02-23T11:08:19Z</time>
      </trkpt>
      <trkpt lat="42.93022" lon="0.74592">
        <ele>1781.1</ele>
        <time>2020-02-23T11:08:20Z</time>
      </trkpt>
      <trkpt lat="42.93022" lon="0.74592">
        <ele>1781.1</ele>
        <time>2020-02-23T11:08:21Z</time>
      </trkpt>
      <trkpt lat="42.93022" lon="0.74592">
        <ele>1781.1</ele>
        <time>2020-02-23T11:08:22Z</time>
      </trkpt>
      <trkpt lat="42.93024" lon="0.74591">
        <ele>1780.5</ele>
        <time>2020-02-23T11:08:23Z</time>
      </trkpt>
      <trkpt lat="42.93024" lon="0.74591">
        <ele>1780.5</ele>
        <time>2020-02-23T11:08:24Z</time>
      </trkpt>
      <trkpt lat="42.93024" lon="0.74591">
        <ele>1780.5</ele>
        <time>2020-02-23T11:08:25Z</time>
      </trkpt>
      <trkpt lat="42.93026" lon="0.74591">
        <ele>1780</ele>
        <time>2020-02-23T11:08:26Z</time>
      </trkpt>
      <trkpt lat="42.93026" lon="0.74591">
        <ele>1780</ele>
        <time>2020-02-23T11:08:27Z</time>
      </trkpt>
      <trkpt lat="42.93028" lon="0.74589">
        <ele>1780</ele>
        <time>2020-02-23T11:08:28Z</time>
      </trkpt>
      <trkpt lat="42.93028" lon="0.74589">
        <ele>1780</ele>
        <time>2020-02-23T11:08:29Z</time>
      </trkpt>
      <trkpt lat="42.93028" lon="0.74589">
        <ele>1780</ele>
        <time>2020-02-23T11:08:30Z</time>
      </trkpt>
      <trkpt lat="42.93028" lon="0.74589">
        <ele>1780</ele>
        <time>2020-02-23T11:08:31Z</time>
      </trkpt>
      <trkpt lat="42.9303" lon="0.74588">
        <ele>1779.6</ele>
        <time>2020-02-23T11:08:32Z</time>
      </trkpt>
      <trkpt lat="42.9303" lon="0.74588">
        <ele>1779.6</ele>
        <time>2020-02-23T11:08:33Z</time>
      </trkpt>
      <trkpt lat="42.9303" lon="0.74588">
        <ele>1779.6</ele>
        <time>2020-02-23T11:08:34Z</time>
      </trkpt>
      <trkpt lat="42.9303" lon="0.74587">
        <ele>1779.6</ele>
        <time>2020-02-23T11:08:35Z</time>
      </trkpt>
      <trkpt lat="42.93031" lon="0.74586">
        <ele>1779.2</ele>
        <time>2020-02-23T11:08:36Z</time>
      </trkpt>
      <trkpt lat="42.93031" lon="0.74585">
        <ele>1779.2</ele>
        <time>2020-02-23T11:08:37Z</time>
      </trkpt>
      <trkpt lat="42.93032" lon="0.74583">
        <ele>1779.2</ele>
        <time>2020-02-23T11:08:38Z</time>
      </trkpt>
      <trkpt lat="42.93032" lon="0.74582">
        <ele>1778.4</ele>
        <time>2020-02-23T11:08:39Z</time>
      </trkpt>
      <trkpt lat="42.93032" lon="0.74581">
        <ele>1778.4</ele>
        <time>2020-02-23T11:08:40Z</time>
      </trkpt>
      <trkpt lat="42.93033" lon="0.7458">
        <ele>1778.4</ele>
        <time>2020-02-23T11:08:41Z</time>
      </trkpt>
      <trkpt lat="42.93033" lon="0.74578">
        <ele>1778.4</ele>
        <time>2020-02-23T11:08:42Z</time>
      </trkpt>
      <trkpt lat="42.93034" lon="0.74577">
        <ele>1778</ele>
        <time>2020-02-23T11:08:43Z</time>
      </trkpt>
      <trkpt lat="42.93034" lon="0.74577">
        <ele>1778</ele>
        <time>2020-02-23T11:08:44Z</time>
      </trkpt>
      <trkpt lat="42.93035" lon="0.74575">
        <ele>1777.5</ele>
        <time>2020-02-23T11:08:45Z</time>
      </trkpt>
      <trkpt lat="42.93035" lon="0.74575">
        <ele>1777.5</ele>
        <time>2020-02-23T11:08:46Z</time>
      </trkpt>
      <trkpt lat="42.93035" lon="0.74575">
        <ele>1777.5</ele>
        <time>2020-02-23T11:08:47Z</time>
      </trkpt>
      <trkpt lat="42.93035" lon="0.74571">
        <ele>1777.1</ele>
        <time>2020-02-23T11:08:48Z</time>
      </trkpt>
      <trkpt lat="42.93035" lon="0.74571">
        <ele>1777.1</ele>
        <time>2020-02-23T11:08:49Z</time>
      </trkpt>
      <trkpt lat="42.93035" lon="0.74568">
        <ele>1776.6</ele>
        <time>2020-02-23T11:08:50Z</time>
      </trkpt>
      <trkpt lat="42.93036" lon="0.74565">
        <ele>1776.1</ele>
        <time>2020-02-23T11:08:51Z</time>
      </trkpt>
      <trkpt lat="42.93036" lon="0.74565">
        <ele>1776.1</ele>
        <time>2020-02-23T11:08:52Z</time>
      </trkpt>
      <trkpt lat="42.93036" lon="0.74565">
        <ele>1776.1</ele>
        <time>2020-02-23T11:08:53Z</time>
      </trkpt>
      <trkpt lat="42.93036" lon="0.74565">
        <ele>1776.1</ele>
        <time>2020-02-23T11:08:54Z</time>
      </trkpt>
      <trkpt lat="42.93038" lon="0.74563">
        <ele>1776.1</ele>
        <time>2020-02-23T11:08:55Z</time>
      </trkpt>
      <trkpt lat="42.93038" lon="0.74563">
        <ele>1776.1</ele>
        <time>2020-02-23T11:08:56Z</time>
      </trkpt>
      <trkpt lat="42.93038" lon="0.74563">
        <ele>1776.1</ele>
        <time>2020-02-23T11:08:57Z</time>
      </trkpt>
      <trkpt lat="42.9304" lon="0.74561">
        <ele>1775</ele>
        <time>2020-02-23T11:08:58Z</time>
      </trkpt>
      <trkpt lat="42.9304" lon="0.74561">
        <ele>1775</ele>
        <time>2020-02-23T11:08:59Z</time>
      </trkpt>
      <trkpt lat="42.93041" lon="0.7456">
        <ele>1774.4</ele>
        <time>2020-02-23T11:09:00Z</time>
      </trkpt>
      <trkpt lat="42.93041" lon="0.7456">
        <ele>1774.4</ele>
        <time>2020-02-23T11:09:01Z</time>
      </trkpt>
      <trkpt lat="42.93041" lon="0.7456">
        <ele>1774.4</ele>
        <time>2020-02-23T11:09:02Z</time>
      </trkpt>
      <trkpt lat="42.93043" lon="0.74557">
        <ele>1774.4</ele>
        <time>2020-02-23T11:09:03Z</time>
      </trkpt>
      <trkpt lat="42.93043" lon="0.74557">
        <ele>1774.4</ele>
        <time>2020-02-23T11:09:04Z</time>
      </trkpt>
      <trkpt lat="42.93043" lon="0.74557">
        <ele>1774.4</ele>
        <time>2020-02-23T11:09:05Z</time>
      </trkpt>
      <trkpt lat="42.93045" lon="0.74556">
        <ele>1773.2</ele>
        <time>2020-02-23T11:09:06Z</time>
      </trkpt>
      <trkpt lat="42.93045" lon="0.74556">
        <ele>1773.2</ele>
        <time>2020-02-23T11:09:07Z</time>
      </trkpt>
      <trkpt lat="42.93047" lon="0.74555">
        <ele>1773.2</ele>
        <time>2020-02-23T11:09:08Z</time>
      </trkpt>
      <trkpt lat="42.93047" lon="0.74555">
        <ele>1773.2</ele>
        <time>2020-02-23T11:09:09Z</time>
      </trkpt>
      <trkpt lat="42.93047" lon="0.74555">
        <ele>1773.2</ele>
        <time>2020-02-23T11:09:10Z</time>
      </trkpt>
      <trkpt lat="42.93047" lon="0.74555">
        <ele>1773.2</ele>
        <time>2020-02-23T11:09:11Z</time>
      </trkpt>
      <trkpt lat="42.93049" lon="0.74554">
        <ele>1772.7</ele>
        <time>2020-02-23T11:09:12Z</time>
      </trkpt>
      <trkpt lat="42.93049" lon="0.74554">
        <ele>1772.7</ele>
        <time>2020-02-23T11:09:13Z</time>
      </trkpt>
      <trkpt lat="42.93049" lon="0.74554">
        <ele>1772.7</ele>
        <time>2020-02-23T11:09:14Z</time>
      </trkpt>
      <trkpt lat="42.93049" lon="0.74554">
        <ele>1772.7</ele>
        <time>2020-02-23T11:09:15Z</time>
      </trkpt>
      <trkpt lat="42.9305" lon="0.74551">
        <ele>1772</ele>
        <time>2020-02-23T11:09:16Z</time>
      </trkpt>
      <trkpt lat="42.9305" lon="0.74551">
        <ele>1772</ele>
        <time>2020-02-23T11:09:17Z</time>
      </trkpt>
      <trkpt lat="42.93051" lon="0.74549">
        <ele>1771.4</ele>
        <time>2020-02-23T11:09:18Z</time>
      </trkpt>
      <trkpt lat="42.93051" lon="0.74549">
        <ele>1771.4</ele>
        <time>2020-02-23T11:09:19Z</time>
      </trkpt>
      <trkpt lat="42.93051" lon="0.74549">
        <ele>1771.4</ele>
        <time>2020-02-23T11:09:20Z</time>
      </trkpt>
      <trkpt lat="42.93053" lon="0.74547">
        <ele>1770.7</ele>
        <time>2020-02-23T11:09:21Z</time>
      </trkpt>
      <trkpt lat="42.93053" lon="0.74547">
        <ele>1770.7</ele>
        <time>2020-02-23T11:09:22Z</time>
      </trkpt>
      <trkpt lat="42.93053" lon="0.74547">
        <ele>1770.7</ele>
        <time>2020-02-23T11:09:23Z</time>
      </trkpt>
      <trkpt lat="42.93053" lon="0.74547">
        <ele>1770.7</ele>
        <time>2020-02-23T11:09:24Z</time>
      </trkpt>
      <trkpt lat="42.93054" lon="0.74544">
        <ele>1770.7</ele>
        <time>2020-02-23T11:09:25Z</time>
      </trkpt>
      <trkpt lat="42.93054" lon="0.74544">
        <ele>1770.7</ele>
        <time>2020-02-23T11:09:26Z</time>
      </trkpt>
      <trkpt lat="42.93054" lon="0.74544">
        <ele>1770.7</ele>
        <time>2020-02-23T11:09:27Z</time>
      </trkpt>
      <trkpt lat="42.93054" lon="0.74544">
        <ele>1770.7</ele>
        <time>2020-02-23T11:09:28Z</time>
      </trkpt>
      <trkpt lat="42.93053" lon="0.74541">
        <ele>1770.1</ele>
        <time>2020-02-23T11:09:29Z</time>
      </trkpt>
      <trkpt lat="42.93053" lon="0.74541">
        <ele>1770.1</ele>
        <time>2020-02-23T11:09:30Z</time>
      </trkpt>
      <trkpt lat="42.93053" lon="0.74541">
        <ele>1770.1</ele>
        <time>2020-02-23T11:09:31Z</time>
      </trkpt>
      <trkpt lat="42.93053" lon="0.74541">
        <ele>1770.1</ele>
        <time>2020-02-23T11:09:32Z</time>
      </trkpt>
      <trkpt lat="42.93053" lon="0.74539">
        <ele>1769.5</ele>
        <time>2020-02-23T11:09:33Z</time>
      </trkpt>
      <trkpt lat="42.93053" lon="0.74539">
        <ele>1769.5</ele>
        <time>2020-02-23T11:09:34Z</time>
      </trkpt>
      <trkpt lat="42.93053" lon="0.74539">
        <ele>1769.5</ele>
        <time>2020-02-23T11:09:35Z</time>
      </trkpt>
      <trkpt lat="42.93053" lon="0.74539">
        <ele>1769.5</ele>
        <time>2020-02-23T11:09:36Z</time>
      </trkpt>
      <trkpt lat="42.93053" lon="0.74539">
        <ele>1769.5</ele>
        <time>2020-02-23T11:09:37Z</time>
      </trkpt>
      <trkpt lat="42.93053" lon="0.74539">
        <ele>1769.5</ele>
        <time>2020-02-23T11:09:38Z</time>
      </trkpt>
      <trkpt lat="42.93053" lon="0.74536">
        <ele>1769.5</ele>
        <time>2020-02-23T11:09:39Z</time>
      </trkpt>
      <trkpt lat="42.93053" lon="0.74536">
        <ele>1769.5</ele>
        <time>2020-02-23T11:09:40Z</time>
      </trkpt>
      <trkpt lat="42.93053" lon="0.74536">
        <ele>1769.5</ele>
        <time>2020-02-23T11:09:41Z</time>
      </trkpt>
      <trkpt lat="42.93053" lon="0.74536">
        <ele>1769.5</ele>
        <time>2020-02-23T11:09:42Z</time>
      </trkpt>
      <trkpt lat="42.93053" lon="0.74536">
        <ele>1769.5</ele>
        <time>2020-02-23T11:09:43Z</time>
      </trkpt>
      <trkpt lat="42.93053" lon="0.74533">
        <ele>1768.9</ele>
        <time>2020-02-23T11:09:44Z</time>
      </trkpt>
      <trkpt lat="42.93053" lon="0.74533">
        <ele>1768.9</ele>
        <time>2020-02-23T11:09:45Z</time>
      </trkpt>
      <trkpt lat="42.93053" lon="0.74533">
        <ele>1768.9</ele>
        <time>2020-02-23T11:09:46Z</time>
      </trkpt>
      <trkpt lat="42.93053" lon="0.74533">
        <ele>1768.9</ele>
        <time>2020-02-23T11:09:47Z</time>
      </trkpt>
      <trkpt lat="42.93053" lon="0.74533">
        <ele>1768.9</ele>
        <time>2020-02-23T11:09:48Z</time>
      </trkpt>
      <trkpt lat="42.93053" lon="0.74533">
        <ele>1768.9</ele>
        <time>2020-02-23T11:09:49Z</time>
      </trkpt>
      <trkpt lat="42.93053" lon="0.74533">
        <ele>1768.9</ele>
        <time>2020-02-23T11:09:50Z</time>
      </trkpt>
      <trkpt lat="42.93053" lon="0.74533">
        <ele>1768.9</ele>
        <time>2020-02-23T11:09:51Z</time>
      </trkpt>
      <trkpt lat="42.93053" lon="0.74533">
        <ele>1768.9</ele>
        <time>2020-02-23T11:09:52Z</time>
      </trkpt>
      <trkpt lat="42.93053" lon="0.74533">
        <ele>1768.9</ele>
        <time>2020-02-23T11:09:53Z</time>
      </trkpt>
      <trkpt lat="42.93053" lon="0.74533">
        <ele>1768.9</ele>
        <time>2020-02-23T11:09:54Z</time>
      </trkpt>
      <trkpt lat="42.93053" lon="0.74533">
        <ele>1768.9</ele>
        <time>2020-02-23T11:09:55Z</time>
      </trkpt>
      <trkpt lat="42.93053" lon="0.74533">
        <ele>1768.9</ele>
        <time>2020-02-23T11:09:56Z</time>
      </trkpt>
      <trkpt lat="42.93053" lon="0.74533">
        <ele>1768.9</ele>
        <time>2020-02-23T11:09:57Z</time>
      </trkpt>
      <trkpt lat="42.93053" lon="0.74533">
        <ele>1768.9</ele>
        <time>2020-02-23T11:09:58Z</time>
      </trkpt>
      <trkpt lat="42.93053" lon="0.74533">
        <ele>1768.9</ele>
        <time>2020-02-23T11:09:59Z</time>
      </trkpt>
      <trkpt lat="42.93055" lon="0.74531">
        <ele>1768.3</ele>
        <time>2020-02-23T11:10:00Z</time>
      </trkpt>
      <trkpt lat="42.93055" lon="0.74531">
        <ele>1768.3</ele>
        <time>2020-02-23T11:10:01Z</time>
      </trkpt>
      <trkpt lat="42.93055" lon="0.74531">
        <ele>1768.3</ele>
        <time>2020-02-23T11:10:02Z</time>
      </trkpt>
      <trkpt lat="42.93056" lon="0.7453">
        <ele>1767.7</ele>
        <time>2020-02-23T11:10:03Z</time>
      </trkpt>
      <trkpt lat="42.93056" lon="0.7453">
        <ele>1767.7</ele>
        <time>2020-02-23T11:10:04Z</time>
      </trkpt>
      <trkpt lat="42.93056" lon="0.7453">
        <ele>1767.7</ele>
        <time>2020-02-23T11:10:05Z</time>
      </trkpt>
      <trkpt lat="42.93056" lon="0.7453">
        <ele>1767.7</ele>
        <time>2020-02-23T11:10:06Z</time>
      </trkpt>
      <trkpt lat="42.93056" lon="0.7453">
        <ele>1767.7</ele>
        <time>2020-02-23T11:10:07Z</time>
      </trkpt>
      <trkpt lat="42.93056" lon="0.7453">
        <ele>1767.7</ele>
        <time>2020-02-23T11:10:08Z</time>
      </trkpt>
      <trkpt lat="42.93058" lon="0.74529">
        <ele>1767.1</ele>
        <time>2020-02-23T11:10:09Z</time>
      </trkpt>
      <trkpt lat="42.93058" lon="0.74529">
        <ele>1767.1</ele>
        <time>2020-02-23T11:10:10Z</time>
      </trkpt>
      <trkpt lat="42.93058" lon="0.74529">
        <ele>1767.1</ele>
        <time>2020-02-23T11:10:11Z</time>
      </trkpt>
      <trkpt lat="42.93058" lon="0.74529">
        <ele>1767.1</ele>
        <time>2020-02-23T11:10:12Z</time>
      </trkpt>
      <trkpt lat="42.9306" lon="0.74526">
        <ele>1766.5</ele>
        <time>2020-02-23T11:10:13Z</time>
      </trkpt>
      <trkpt lat="42.9306" lon="0.74526">
        <ele>1766.5</ele>
        <time>2020-02-23T11:10:14Z</time>
      </trkpt>
      <trkpt lat="42.9306" lon="0.74526">
        <ele>1766.5</ele>
        <time>2020-02-23T11:10:15Z</time>
      </trkpt>
      <trkpt lat="42.9306" lon="0.74526">
        <ele>1766.5</ele>
        <time>2020-02-23T11:10:16Z</time>
      </trkpt>
      <trkpt lat="42.93062" lon="0.74526">
        <ele>1765.9</ele>
        <time>2020-02-23T11:10:17Z</time>
      </trkpt>
      <trkpt lat="42.93062" lon="0.74526">
        <ele>1765.9</ele>
        <time>2020-02-23T11:10:18Z</time>
      </trkpt>
      <trkpt lat="42.93064" lon="0.74527">
        <ele>1766</ele>
        <time>2020-02-23T11:10:19Z</time>
      </trkpt>
      <trkpt lat="42.93064" lon="0.74527">
        <ele>1766</ele>
        <time>2020-02-23T11:10:20Z</time>
      </trkpt>
      <trkpt lat="42.93064" lon="0.74527">
        <ele>1766</ele>
        <time>2020-02-23T11:10:21Z</time>
      </trkpt>
      <trkpt lat="42.93064" lon="0.74527">
        <ele>1766</ele>
        <time>2020-02-23T11:10:22Z</time>
      </trkpt>
      <trkpt lat="42.93066" lon="0.74528">
        <ele>1766</ele>
        <time>2020-02-23T11:10:23Z</time>
      </trkpt>
      <trkpt lat="42.93066" lon="0.74528">
        <ele>1766</ele>
        <time>2020-02-23T11:10:24Z</time>
      </trkpt>
      <trkpt lat="42.93066" lon="0.74528">
        <ele>1766</ele>
        <time>2020-02-23T11:10:25Z</time>
      </trkpt>
      <trkpt lat="42.93068" lon="0.74529">
        <ele>1765.8</ele>
        <time>2020-02-23T11:10:26Z</time>
      </trkpt>
      <trkpt lat="42.93068" lon="0.74529">
        <ele>1765.8</ele>
        <time>2020-02-23T11:10:27Z</time>
      </trkpt>
      <trkpt lat="42.93068" lon="0.74529">
        <ele>1765.8</ele>
        <time>2020-02-23T11:10:28Z</time>
      </trkpt>
      <trkpt lat="42.93068" lon="0.74529">
        <ele>1765.8</ele>
        <time>2020-02-23T11:10:29Z</time>
      </trkpt>
      <trkpt lat="42.9307" lon="0.74529">
        <ele>1765.5</ele>
        <time>2020-02-23T11:10:30Z</time>
      </trkpt>
      <trkpt lat="42.9307" lon="0.74529">
        <ele>1765.5</ele>
        <time>2020-02-23T11:10:31Z</time>
      </trkpt>
      <trkpt lat="42.9307" lon="0.74529">
        <ele>1765.5</ele>
        <time>2020-02-23T11:10:32Z</time>
      </trkpt>
      <trkpt lat="42.9307" lon="0.74529">
        <ele>1765.5</ele>
        <time>2020-02-23T11:10:33Z</time>
      </trkpt>
      <trkpt lat="42.93072" lon="0.74529">
        <ele>1765.2</ele>
        <time>2020-02-23T11:10:34Z</time>
      </trkpt>
      <trkpt lat="42.93072" lon="0.74529">
        <ele>1765.2</ele>
        <time>2020-02-23T11:10:35Z</time>
      </trkpt>
      <trkpt lat="42.93072" lon="0.74529">
        <ele>1765.2</ele>
        <time>2020-02-23T11:10:36Z</time>
      </trkpt>
      <trkpt lat="42.93072" lon="0.74529">
        <ele>1765.2</ele>
        <time>2020-02-23T11:10:37Z</time>
      </trkpt>
      <trkpt lat="42.93072" lon="0.74529">
        <ele>1765.2</ele>
        <time>2020-02-23T11:10:38Z</time>
      </trkpt>
      <trkpt lat="42.93072" lon="0.74529">
        <ele>1765.2</ele>
        <time>2020-02-23T11:10:39Z</time>
      </trkpt>
      <trkpt lat="42.93072" lon="0.74529">
        <ele>1765.2</ele>
        <time>2020-02-23T11:10:40Z</time>
      </trkpt>
      <trkpt lat="42.93072" lon="0.74529">
        <ele>1765.2</ele>
        <time>2020-02-23T11:10:41Z</time>
      </trkpt>
      <trkpt lat="42.93072" lon="0.74529">
        <ele>1765.2</ele>
        <time>2020-02-23T11:10:42Z</time>
      </trkpt>
      <trkpt lat="42.93072" lon="0.74529">
        <ele>1765.2</ele>
        <time>2020-02-23T11:10:43Z</time>
      </trkpt>
      <trkpt lat="42.93072" lon="0.74529">
        <ele>1765.2</ele>
        <time>2020-02-23T11:10:44Z</time>
      </trkpt>
      <trkpt lat="42.93072" lon="0.74529">
        <ele>1765.2</ele>
        <time>2020-02-23T11:10:45Z</time>
      </trkpt>
      <trkpt lat="42.93072" lon="0.74529">
        <ele>1765.2</ele>
        <time>2020-02-23T11:10:46Z</time>
      </trkpt>
      <trkpt lat="42.93074" lon="0.74529">
        <ele>1765</ele>
        <time>2020-02-23T11:10:47Z</time>
      </trkpt>
      <trkpt lat="42.93074" lon="0.74529">
        <ele>1765</ele>
        <time>2020-02-23T11:10:48Z</time>
      </trkpt>
      <trkpt lat="42.93074" lon="0.74529">
        <ele>1765</ele>
        <time>2020-02-23T11:10:49Z</time>
      </trkpt>
      <trkpt lat="42.93074" lon="0.74529">
        <ele>1765</ele>
        <time>2020-02-23T11:10:50Z</time>
      </trkpt>
      <trkpt lat="42.93076" lon="0.74529">
        <ele>1764.8</ele>
        <time>2020-02-23T11:10:51Z</time>
      </trkpt>
      <trkpt lat="42.93076" lon="0.74529">
        <ele>1764.8</ele>
        <time>2020-02-23T11:10:52Z</time>
      </trkpt>
      <trkpt lat="42.93076" lon="0.74529">
        <ele>1764.8</ele>
        <time>2020-02-23T11:10:53Z</time>
      </trkpt>
      <trkpt lat="42.93076" lon="0.74529">
        <ele>1764.8</ele>
        <time>2020-02-23T11:10:54Z</time>
      </trkpt>
      <trkpt lat="42.93076" lon="0.74529">
        <ele>1764.8</ele>
        <time>2020-02-23T11:10:55Z</time>
      </trkpt>
      <trkpt lat="42.93076" lon="0.74529">
        <ele>1764.8</ele>
        <time>2020-02-23T11:10:56Z</time>
      </trkpt>
      <trkpt lat="42.93076" lon="0.74529">
        <ele>1764.8</ele>
        <time>2020-02-23T11:10:57Z</time>
      </trkpt>
      <trkpt lat="42.93076" lon="0.74529">
        <ele>1764.8</ele>
        <time>2020-02-23T11:10:58Z</time>
      </trkpt>
      <trkpt lat="42.93076" lon="0.74529">
        <ele>1764.8</ele>
        <time>2020-02-23T11:10:59Z</time>
      </trkpt>
      <trkpt lat="42.93076" lon="0.74529">
        <ele>1764.8</ele>
        <time>2020-02-23T11:11:00Z</time>
      </trkpt>
      <trkpt lat="42.93076" lon="0.74529">
        <ele>1764.8</ele>
        <time>2020-02-23T11:11:01Z</time>
      </trkpt>
      <trkpt lat="42.93076" lon="0.74529">
        <ele>1764.8</ele>
        <time>2020-02-23T11:11:02Z</time>
      </trkpt>
      <trkpt lat="42.93076" lon="0.74529">
        <ele>1764.8</ele>
        <time>2020-02-23T11:11:03Z</time>
      </trkpt>
      <trkpt lat="42.93076" lon="0.74529">
        <ele>1764.8</ele>
        <time>2020-02-23T11:11:04Z</time>
      </trkpt>
      <trkpt lat="42.93076" lon="0.74529">
        <ele>1764.8</ele>
        <time>2020-02-23T11:11:05Z</time>
      </trkpt>
      <trkpt lat="42.93076" lon="0.74529">
        <ele>1764.8</ele>
        <time>2020-02-23T11:11:06Z</time>
      </trkpt>
      <trkpt lat="42.93076" lon="0.74529">
        <ele>1764.8</ele>
        <time>2020-02-23T11:11:07Z</time>
      </trkpt>
      <trkpt lat="42.93076" lon="0.74529">
        <ele>1764.8</ele>
        <time>2020-02-23T11:11:08Z</time>
      </trkpt>
      <trkpt lat="42.93076" lon="0.74529">
        <ele>1764.8</ele>
        <time>2020-02-23T11:11:09Z</time>
      </trkpt>
      <trkpt lat="42.93076" lon="0.74529">
        <ele>1764.8</ele>
        <time>2020-02-23T11:11:10Z</time>
      </trkpt>
      <trkpt lat="42.93076" lon="0.74529">
        <ele>1764.8</ele>
        <time>2020-02-23T11:11:11Z</time>
      </trkpt>
      <trkpt lat="42.93076" lon="0.74529">
        <ele>1764.8</ele>
        <time>2020-02-23T11:11:12Z</time>
      </trkpt>
      <trkpt lat="42.93076" lon="0.74529">
        <ele>1764.8</ele>
        <time>2020-02-23T11:11:13Z</time>
      </trkpt>
      <trkpt lat="42.93076" lon="0.74529">
        <ele>1764.8</ele>
        <time>2020-02-23T11:11:14Z</time>
      </trkpt>
      <trkpt lat="42.93076" lon="0.74529">
        <ele>1764.8</ele>
        <time>2020-02-23T11:11:15Z</time>
      </trkpt>
      <trkpt lat="42.93076" lon="0.74529">
        <ele>1764.8</ele>
        <time>2020-02-23T11:11:16Z</time>
      </trkpt>
      <trkpt lat="42.93076" lon="0.74529">
        <ele>1764.8</ele>
        <time>2020-02-23T11:11:17Z</time>
      </trkpt>
      <trkpt lat="42.93076" lon="0.74529">
        <ele>1764.8</ele>
        <time>2020-02-23T11:11:18Z</time>
      </trkpt>
      <trkpt lat="42.93074" lon="0.74531">
        <ele>1764.6</ele>
        <time>2020-02-23T11:11:19Z</time>
      </trkpt>
      <trkpt lat="42.93074" lon="0.74531">
        <ele>1764.6</ele>
        <time>2020-02-23T11:11:20Z</time>
      </trkpt>
      <trkpt lat="42.93074" lon="0.74531">
        <ele>1764.6</ele>
        <time>2020-02-23T11:11:21Z</time>
      </trkpt>
      <trkpt lat="42.93074" lon="0.74531">
        <ele>1764.6</ele>
        <time>2020-02-23T11:11:22Z</time>
      </trkpt>
      <trkpt lat="42.93074" lon="0.74531">
        <ele>1764.6</ele>
        <time>2020-02-23T11:11:23Z</time>
      </trkpt>
      <trkpt lat="42.93074" lon="0.74531">
        <ele>1764.6</ele>
        <time>2020-02-23T11:11:24Z</time>
      </trkpt>
      <trkpt lat="42.93074" lon="0.74531">
        <ele>1764.6</ele>
        <time>2020-02-23T11:11:25Z</time>
      </trkpt>
      <trkpt lat="42.93074" lon="0.74531">
        <ele>1764.6</ele>
        <time>2020-02-23T11:11:26Z</time>
      </trkpt>
      <trkpt lat="42.93074" lon="0.74531">
        <ele>1764.6</ele>
        <time>2020-02-23T11:11:27Z</time>
      </trkpt>
      <trkpt lat="42.93074" lon="0.74531">
        <ele>1764.6</ele>
        <time>2020-02-23T11:11:28Z</time>
      </trkpt>
      <trkpt lat="42.93074" lon="0.74531">
        <ele>1764.6</ele>
        <time>2020-02-23T11:11:29Z</time>
      </trkpt>
      <trkpt lat="42.93074" lon="0.74531">
        <ele>1764.6</ele>
        <time>2020-02-23T11:11:30Z</time>
      </trkpt>
      <trkpt lat="42.93074" lon="0.74531">
        <ele>1764.6</ele>
        <time>2020-02-23T11:11:31Z</time>
      </trkpt>
      <trkpt lat="42.93074" lon="0.74531">
        <ele>1764.6</ele>
        <time>2020-02-23T11:11:32Z</time>
      </trkpt>
      <trkpt lat="42.93074" lon="0.74531">
        <ele>1764.6</ele>
        <time>2020-02-23T11:11:33Z</time>
      </trkpt>
      <trkpt lat="42.93076" lon="0.7453">
        <ele>1764.3</ele>
        <time>2020-02-23T11:11:34Z</time>
      </trkpt>
      <trkpt lat="42.93076" lon="0.7453">
        <ele>1764.3</ele>
        <time>2020-02-23T11:11:35Z</time>
      </trkpt>
      <trkpt lat="42.93076" lon="0.7453">
        <ele>1764.3</ele>
        <time>2020-02-23T11:11:36Z</time>
      </trkpt>
      <trkpt lat="42.93076" lon="0.7453">
        <ele>1764.3</ele>
        <time>2020-02-23T11:11:37Z</time>
      </trkpt>
      <trkpt lat="42.93076" lon="0.7453">
        <ele>1764.3</ele>
        <time>2020-02-23T11:11:38Z</time>
      </trkpt>
      <trkpt lat="42.93076" lon="0.7453">
        <ele>1764.3</ele>
        <time>2020-02-23T11:11:39Z</time>
      </trkpt>
      <trkpt lat="42.93076" lon="0.7453">
        <ele>1764.3</ele>
        <time>2020-02-23T11:11:40Z</time>
      </trkpt>
      <trkpt lat="42.93076" lon="0.7453">
        <ele>1764.3</ele>
        <time>2020-02-23T11:11:41Z</time>
      </trkpt>
      <trkpt lat="42.93076" lon="0.7453">
        <ele>1764.3</ele>
        <time>2020-02-23T11:11:42Z</time>
      </trkpt>
      <trkpt lat="42.93076" lon="0.7453">
        <ele>1764.3</ele>
        <time>2020-02-23T11:11:43Z</time>
      </trkpt>
      <trkpt lat="42.93076" lon="0.7453">
        <ele>1764.3</ele>
        <time>2020-02-23T11:11:44Z</time>
      </trkpt>
      <trkpt lat="42.93076" lon="0.7453">
        <ele>1764.3</ele>
        <time>2020-02-23T11:11:45Z</time>
      </trkpt>
      <trkpt lat="42.93076" lon="0.7453">
        <ele>1764.3</ele>
        <time>2020-02-23T11:11:46Z</time>
      </trkpt>
      <trkpt lat="42.93076" lon="0.7453">
        <ele>1764.3</ele>
        <time>2020-02-23T11:11:47Z</time>
      </trkpt>
      <trkpt lat="42.93076" lon="0.7453">
        <ele>1764.3</ele>
        <time>2020-02-23T11:11:48Z</time>
      </trkpt>
      <trkpt lat="42.93076" lon="0.7453">
        <ele>1764.3</ele>
        <time>2020-02-23T11:11:49Z</time>
      </trkpt>
      <trkpt lat="42.93076" lon="0.7453">
        <ele>1764.3</ele>
        <time>2020-02-23T11:11:50Z</time>
      </trkpt>
      <trkpt lat="42.93076" lon="0.7453">
        <ele>1764.3</ele>
        <time>2020-02-23T11:11:51Z</time>
      </trkpt>
      <trkpt lat="42.93076" lon="0.7453">
        <ele>1764.3</ele>
        <time>2020-02-23T11:11:52Z</time>
      </trkpt>
      <trkpt lat="42.93076" lon="0.7453">
        <ele>1764.3</ele>
        <time>2020-02-23T11:11:53Z</time>
      </trkpt>
      <trkpt lat="42.93077" lon="0.74531">
        <ele>1764</ele>
        <time>2020-02-23T11:11:54Z</time>
      </trkpt>
      <trkpt lat="42.93077" lon="0.74531">
        <ele>1764</ele>
        <time>2020-02-23T11:11:55Z</time>
      </trkpt>
      <trkpt lat="42.93077" lon="0.74531">
        <ele>1764</ele>
        <time>2020-02-23T11:11:56Z</time>
      </trkpt>
      <trkpt lat="42.93077" lon="0.74531">
        <ele>1764</ele>
        <time>2020-02-23T11:11:57Z</time>
      </trkpt>
      <trkpt lat="42.93077" lon="0.74531">
        <ele>1764</ele>
        <time>2020-02-23T11:11:58Z</time>
      </trkpt>
      <trkpt lat="42.93077" lon="0.74531">
        <ele>1764</ele>
        <time>2020-02-23T11:11:59Z</time>
      </trkpt>
      <trkpt lat="42.93077" lon="0.74531">
        <ele>1764</ele>
        <time>2020-02-23T11:12:00Z</time>
      </trkpt>
      <trkpt lat="42.93077" lon="0.74531">
        <ele>1764</ele>
        <time>2020-02-23T11:12:01Z</time>
      </trkpt>
      <trkpt lat="42.93077" lon="0.74531">
        <ele>1764</ele>
        <time>2020-02-23T11:12:02Z</time>
      </trkpt>
      <trkpt lat="42.93077" lon="0.74531">
        <ele>1764</ele>
        <time>2020-02-23T11:12:03Z</time>
      </trkpt>
      <trkpt lat="42.93077" lon="0.74531">
        <ele>1764</ele>
        <time>2020-02-23T11:12:04Z</time>
      </trkpt>
      <trkpt lat="42.93077" lon="0.74531">
        <ele>1764</ele>
        <time>2020-02-23T11:12:05Z</time>
      </trkpt>
      <trkpt lat="42.93077" lon="0.74531">
        <ele>1764</ele>
        <time>2020-02-23T11:12:06Z</time>
      </trkpt>
      <trkpt lat="42.93077" lon="0.74531">
        <ele>1764</ele>
        <time>2020-02-23T11:12:07Z</time>
      </trkpt>
      <trkpt lat="42.93077" lon="0.74529">
        <ele>1763.7</ele>
        <time>2020-02-23T11:12:08Z</time>
      </trkpt>
      <trkpt lat="42.93077" lon="0.74529">
        <ele>1763.7</ele>
        <time>2020-02-23T11:12:09Z</time>
      </trkpt>
      <trkpt lat="42.93076" lon="0.74526">
        <ele>1763.3</ele>
        <time>2020-02-23T11:12:10Z</time>
      </trkpt>
      <trkpt lat="42.93076" lon="0.74526">
        <ele>1763.3</ele>
        <time>2020-02-23T11:12:11Z</time>
      </trkpt>
      <trkpt lat="42.93076" lon="0.74526">
        <ele>1763.3</ele>
        <time>2020-02-23T11:12:12Z</time>
      </trkpt>
      <trkpt lat="42.93076" lon="0.74524">
        <ele>1763</ele>
        <time>2020-02-23T11:12:13Z</time>
      </trkpt>
      <trkpt lat="42.93076" lon="0.74524">
        <ele>1763</ele>
        <time>2020-02-23T11:12:14Z</time>
      </trkpt>
      <trkpt lat="42.93076" lon="0.74521">
        <ele>1762.7</ele>
        <time>2020-02-23T11:12:15Z</time>
      </trkpt>
      <trkpt lat="42.93076" lon="0.74521">
        <ele>1762.7</ele>
        <time>2020-02-23T11:12:16Z</time>
      </trkpt>
      <trkpt lat="42.93076" lon="0.74521">
        <ele>1762.7</ele>
        <time>2020-02-23T11:12:17Z</time>
      </trkpt>
      <trkpt lat="42.93076" lon="0.74521">
        <ele>1762.7</ele>
        <time>2020-02-23T11:12:18Z</time>
      </trkpt>
      <trkpt lat="42.93076" lon="0.74517">
        <ele>1762.3</ele>
        <time>2020-02-23T11:12:19Z</time>
      </trkpt>
      <trkpt lat="42.93076" lon="0.74517">
        <ele>1762.3</ele>
        <time>2020-02-23T11:12:20Z</time>
      </trkpt>
      <trkpt lat="42.93076" lon="0.74514">
        <ele>1762</ele>
        <time>2020-02-23T11:12:21Z</time>
      </trkpt>
      <trkpt lat="42.93076" lon="0.74514">
        <ele>1762</ele>
        <time>2020-02-23T11:12:22Z</time>
      </trkpt>
      <trkpt lat="42.93076" lon="0.74514">
        <ele>1762</ele>
        <time>2020-02-23T11:12:23Z</time>
      </trkpt>
      <trkpt lat="42.93076" lon="0.74514">
        <ele>1762</ele>
        <time>2020-02-23T11:12:24Z</time>
      </trkpt>
      <trkpt lat="42.93078" lon="0.74512">
        <ele>1761.7</ele>
        <time>2020-02-23T11:12:25Z</time>
      </trkpt>
      <trkpt lat="42.93079" lon="0.7451">
        <ele>1761.4</ele>
        <time>2020-02-23T11:12:26Z</time>
      </trkpt>
      <trkpt lat="42.93079" lon="0.7451">
        <ele>1761.4</ele>
        <time>2020-02-23T11:12:27Z</time>
      </trkpt>
      <trkpt lat="42.93079" lon="0.7451">
        <ele>1761.4</ele>
        <time>2020-02-23T11:12:28Z</time>
      </trkpt>
      <trkpt lat="42.93079" lon="0.7451">
        <ele>1761.4</ele>
        <time>2020-02-23T11:12:29Z</time>
      </trkpt>
      <trkpt lat="42.9308" lon="0.74508">
        <ele>1761.2</ele>
        <time>2020-02-23T11:12:30Z</time>
      </trkpt>
      <trkpt lat="42.9308" lon="0.74508">
        <ele>1761.2</ele>
        <time>2020-02-23T11:12:31Z</time>
      </trkpt>
      <trkpt lat="42.93081" lon="0.74505">
        <ele>1761</ele>
        <time>2020-02-23T11:12:32Z</time>
      </trkpt>
      <trkpt lat="42.93081" lon="0.74505">
        <ele>1761</ele>
        <time>2020-02-23T11:12:33Z</time>
      </trkpt>
      <trkpt lat="42.93081" lon="0.74505">
        <ele>1761</ele>
        <time>2020-02-23T11:12:34Z</time>
      </trkpt>
      <trkpt lat="42.93082" lon="0.74502">
        <ele>1760.8</ele>
        <time>2020-02-23T11:12:35Z</time>
      </trkpt>
      <trkpt lat="42.93083" lon="0.74499">
        <ele>1760.6</ele>
        <time>2020-02-23T11:12:36Z</time>
      </trkpt>
      <trkpt lat="42.93083" lon="0.74499">
        <ele>1760.6</ele>
        <time>2020-02-23T11:12:37Z</time>
      </trkpt>
      <trkpt lat="42.93083" lon="0.74499">
        <ele>1760.6</ele>
        <time>2020-02-23T11:12:38Z</time>
      </trkpt>
      <trkpt lat="42.93084" lon="0.74497">
        <ele>1760.4</ele>
        <time>2020-02-23T11:12:39Z</time>
      </trkpt>
      <trkpt lat="42.93084" lon="0.74497">
        <ele>1760.4</ele>
        <time>2020-02-23T11:12:40Z</time>
      </trkpt>
      <trkpt lat="42.93084" lon="0.74497">
        <ele>1760.4</ele>
        <time>2020-02-23T11:12:41Z</time>
      </trkpt>
      <trkpt lat="42.93084" lon="0.74494">
        <ele>1760.1</ele>
        <time>2020-02-23T11:12:42Z</time>
      </trkpt>
      <trkpt lat="42.93084" lon="0.74494">
        <ele>1760.1</ele>
        <time>2020-02-23T11:12:43Z</time>
      </trkpt>
      <trkpt lat="42.93084" lon="0.74494">
        <ele>1760.1</ele>
        <time>2020-02-23T11:12:44Z</time>
      </trkpt>
      <trkpt lat="42.93084" lon="0.74494">
        <ele>1760.1</ele>
        <time>2020-02-23T11:12:45Z</time>
      </trkpt>
      <trkpt lat="42.93084" lon="0.74494">
        <ele>1760.1</ele>
        <time>2020-02-23T11:12:46Z</time>
      </trkpt>
      <trkpt lat="42.93084" lon="0.74494">
        <ele>1760.1</ele>
        <time>2020-02-23T11:12:47Z</time>
      </trkpt>
      <trkpt lat="42.93084" lon="0.74494">
        <ele>1760.1</ele>
        <time>2020-02-23T11:12:48Z</time>
      </trkpt>
      <trkpt lat="42.93084" lon="0.74494">
        <ele>1760.1</ele>
        <time>2020-02-23T11:12:49Z</time>
      </trkpt>
      <trkpt lat="42.93084" lon="0.74494">
        <ele>1760.1</ele>
        <time>2020-02-23T11:12:50Z</time>
      </trkpt>
      <trkpt lat="42.93083" lon="0.74492">
        <ele>1759.8</ele>
        <time>2020-02-23T11:12:51Z</time>
      </trkpt>
      <trkpt lat="42.93083" lon="0.74492">
        <ele>1759.8</ele>
        <time>2020-02-23T11:12:52Z</time>
      </trkpt>
      <trkpt lat="42.93083" lon="0.74492">
        <ele>1759.8</ele>
        <time>2020-02-23T11:12:53Z</time>
      </trkpt>
      <trkpt lat="42.93082" lon="0.74489">
        <ele>1759.5</ele>
        <time>2020-02-23T11:12:54Z</time>
      </trkpt>
      <trkpt lat="42.93082" lon="0.74489">
        <ele>1759.5</ele>
        <time>2020-02-23T11:12:55Z</time>
      </trkpt>
      <trkpt lat="42.93081" lon="0.74486">
        <ele>1759.1</ele>
        <time>2020-02-23T11:12:56Z</time>
      </trkpt>
      <trkpt lat="42.93081" lon="0.74486">
        <ele>1759.1</ele>
        <time>2020-02-23T11:12:57Z</time>
      </trkpt>
      <trkpt lat="42.93081" lon="0.74486">
        <ele>1759.1</ele>
        <time>2020-02-23T11:12:58Z</time>
      </trkpt>
      <trkpt lat="42.93079" lon="0.74484">
        <ele>1758.8</ele>
        <time>2020-02-23T11:12:59Z</time>
      </trkpt>
      <trkpt lat="42.93079" lon="0.74484">
        <ele>1758.8</ele>
        <time>2020-02-23T11:13:00Z</time>
      </trkpt>
      <trkpt lat="42.93078" lon="0.74481">
        <ele>1758.4</ele>
        <time>2020-02-23T11:13:01Z</time>
      </trkpt>
      <trkpt lat="42.93078" lon="0.74481">
        <ele>1758.4</ele>
        <time>2020-02-23T11:13:02Z</time>
      </trkpt>
      <trkpt lat="42.93077" lon="0.74478">
        <ele>1758</ele>
        <time>2020-02-23T11:13:03Z</time>
      </trkpt>
      <trkpt lat="42.93077" lon="0.74475">
        <ele>1757.6</ele>
        <time>2020-02-23T11:13:04Z</time>
      </trkpt>
      <trkpt lat="42.93077" lon="0.74475">
        <ele>1757.6</ele>
        <time>2020-02-23T11:13:05Z</time>
      </trkpt>
      <trkpt lat="42.93077" lon="0.74475">
        <ele>1757.6</ele>
        <time>2020-02-23T11:13:06Z</time>
      </trkpt>
      <trkpt lat="42.93076" lon="0.74473">
        <ele>1757.2</ele>
        <time>2020-02-23T11:13:07Z</time>
      </trkpt>
      <trkpt lat="42.93076" lon="0.7447">
        <ele>1756.7</ele>
        <time>2020-02-23T11:13:08Z</time>
      </trkpt>
      <trkpt lat="42.93076" lon="0.7447">
        <ele>1756.7</ele>
        <time>2020-02-23T11:13:09Z</time>
      </trkpt>
      <trkpt lat="42.93076" lon="0.7447">
        <ele>1756.7</ele>
        <time>2020-02-23T11:13:10Z</time>
      </trkpt>
      <trkpt lat="42.93075" lon="0.74467">
        <ele>1756.2</ele>
        <time>2020-02-23T11:13:11Z</time>
      </trkpt>
      <trkpt lat="42.93075" lon="0.74467">
        <ele>1756.2</ele>
        <time>2020-02-23T11:13:12Z</time>
      </trkpt>
      <trkpt lat="42.93075" lon="0.74467">
        <ele>1756.2</ele>
        <time>2020-02-23T11:13:13Z</time>
      </trkpt>
      <trkpt lat="42.93075" lon="0.74463">
        <ele>1755.7</ele>
        <time>2020-02-23T11:13:14Z</time>
      </trkpt>
      <trkpt lat="42.93075" lon="0.74463">
        <ele>1755.7</ele>
        <time>2020-02-23T11:13:15Z</time>
      </trkpt>
      <trkpt lat="42.93075" lon="0.74463">
        <ele>1755.7</ele>
        <time>2020-02-23T11:13:16Z</time>
      </trkpt>
      <trkpt lat="42.93074" lon="0.7446">
        <ele>1755.3</ele>
        <time>2020-02-23T11:13:17Z</time>
      </trkpt>
      <trkpt lat="42.93074" lon="0.7446">
        <ele>1755.3</ele>
        <time>2020-02-23T11:13:18Z</time>
      </trkpt>
      <trkpt lat="42.93074" lon="0.7446">
        <ele>1755.3</ele>
        <time>2020-02-23T11:13:19Z</time>
      </trkpt>
      <trkpt lat="42.93073" lon="0.74458">
        <ele>1755</ele>
        <time>2020-02-23T11:13:20Z</time>
      </trkpt>
      <trkpt lat="42.93073" lon="0.74458">
        <ele>1755</ele>
        <time>2020-02-23T11:13:21Z</time>
      </trkpt>
      <trkpt lat="42.93073" lon="0.74458">
        <ele>1755</ele>
        <time>2020-02-23T11:13:22Z</time>
      </trkpt>
      <trkpt lat="42.93073" lon="0.74458">
        <ele>1755</ele>
        <time>2020-02-23T11:13:23Z</time>
      </trkpt>
      <trkpt lat="42.93073" lon="0.74458">
        <ele>1755</ele>
        <time>2020-02-23T11:13:24Z</time>
      </trkpt>
      <trkpt lat="42.93073" lon="0.74458">
        <ele>1755</ele>
        <time>2020-02-23T11:13:25Z</time>
      </trkpt>
      <trkpt lat="42.93073" lon="0.74458">
        <ele>1755</ele>
        <time>2020-02-23T11:13:26Z</time>
      </trkpt>
      <trkpt lat="42.93073" lon="0.74458">
        <ele>1755</ele>
        <time>2020-02-23T11:13:27Z</time>
      </trkpt>
      <trkpt lat="42.93073" lon="0.74458">
        <ele>1755</ele>
        <time>2020-02-23T11:13:28Z</time>
      </trkpt>
      <trkpt lat="42.93073" lon="0.74458">
        <ele>1755</ele>
        <time>2020-02-23T11:13:29Z</time>
      </trkpt>
      <trkpt lat="42.93071" lon="0.74457">
        <ele>1754.7</ele>
        <time>2020-02-23T11:13:30Z</time>
      </trkpt>
      <trkpt lat="42.93071" lon="0.74457">
        <ele>1754.7</ele>
        <time>2020-02-23T11:13:31Z</time>
      </trkpt>
      <trkpt lat="42.93071" lon="0.74457">
        <ele>1754.7</ele>
        <time>2020-02-23T11:13:32Z</time>
      </trkpt>
      <trkpt lat="42.9307" lon="0.74455">
        <ele>1754.4</ele>
        <time>2020-02-23T11:13:33Z</time>
      </trkpt>
      <trkpt lat="42.9307" lon="0.74455">
        <ele>1754.4</ele>
        <time>2020-02-23T11:13:34Z</time>
      </trkpt>
      <trkpt lat="42.9307" lon="0.74455">
        <ele>1754.4</ele>
        <time>2020-02-23T11:13:35Z</time>
      </trkpt>
      <trkpt lat="42.93069" lon="0.74453">
        <ele>1754.3</ele>
        <time>2020-02-23T11:13:36Z</time>
      </trkpt>
      <trkpt lat="42.93069" lon="0.74453">
        <ele>1754.3</ele>
        <time>2020-02-23T11:13:37Z</time>
      </trkpt>
      <trkpt lat="42.93069" lon="0.74453">
        <ele>1754.3</ele>
        <time>2020-02-23T11:13:38Z</time>
      </trkpt>
      <trkpt lat="42.93069" lon="0.74453">
        <ele>1754.3</ele>
        <time>2020-02-23T11:13:39Z</time>
      </trkpt>
      <trkpt lat="42.93067" lon="0.7445">
        <ele>1754.3</ele>
        <time>2020-02-23T11:13:40Z</time>
      </trkpt>
      <trkpt lat="42.93067" lon="0.7445">
        <ele>1754.3</ele>
        <time>2020-02-23T11:13:41Z</time>
      </trkpt>
      <trkpt lat="42.93067" lon="0.7445">
        <ele>1754.3</ele>
        <time>2020-02-23T11:13:42Z</time>
      </trkpt>
      <trkpt lat="42.93066" lon="0.74447">
        <ele>1754.3</ele>
        <time>2020-02-23T11:13:43Z</time>
      </trkpt>
      <trkpt lat="42.93066" lon="0.74447">
        <ele>1754.3</ele>
        <time>2020-02-23T11:13:44Z</time>
      </trkpt>
      <trkpt lat="42.93066" lon="0.74447">
        <ele>1754.3</ele>
        <time>2020-02-23T11:13:45Z</time>
      </trkpt>
      <trkpt lat="42.93066" lon="0.74443">
        <ele>1754.3</ele>
        <time>2020-02-23T11:13:46Z</time>
      </trkpt>
      <trkpt lat="42.93066" lon="0.74443">
        <ele>1754.3</ele>
        <time>2020-02-23T11:13:47Z</time>
      </trkpt>
      <trkpt lat="42.93066" lon="0.74443">
        <ele>1754.3</ele>
        <time>2020-02-23T11:13:48Z</time>
      </trkpt>
      <trkpt lat="42.93066" lon="0.74441">
        <ele>1754.1</ele>
        <time>2020-02-23T11:13:49Z</time>
      </trkpt>
      <trkpt lat="42.93066" lon="0.74441">
        <ele>1754.1</ele>
        <time>2020-02-23T11:13:50Z</time>
      </trkpt>
      <trkpt lat="42.93065" lon="0.74438">
        <ele>1753.7</ele>
        <time>2020-02-23T11:13:51Z</time>
      </trkpt>
      <trkpt lat="42.93065" lon="0.74438">
        <ele>1753.7</ele>
        <time>2020-02-23T11:13:52Z</time>
      </trkpt>
      <trkpt lat="42.93064" lon="0.74435">
        <ele>1753.2</ele>
        <time>2020-02-23T11:13:53Z</time>
      </trkpt>
      <trkpt lat="42.93064" lon="0.74435">
        <ele>1753.2</ele>
        <time>2020-02-23T11:13:54Z</time>
      </trkpt>
      <trkpt lat="42.93064" lon="0.74435">
        <ele>1753.2</ele>
        <time>2020-02-23T11:13:55Z</time>
      </trkpt>
      <trkpt lat="42.93064" lon="0.74432">
        <ele>1752.8</ele>
        <time>2020-02-23T11:13:56Z</time>
      </trkpt>
      <trkpt lat="42.93064" lon="0.74432">
        <ele>1752.8</ele>
        <time>2020-02-23T11:13:57Z</time>
      </trkpt>
      <trkpt lat="42.93064" lon="0.74432">
        <ele>1752.8</ele>
        <time>2020-02-23T11:13:58Z</time>
      </trkpt>
      <trkpt lat="42.93063" lon="0.74429">
        <ele>1752.5</ele>
        <time>2020-02-23T11:13:59Z</time>
      </trkpt>
      <trkpt lat="42.93063" lon="0.74429">
        <ele>1752.5</ele>
        <time>2020-02-23T11:14:00Z</time>
      </trkpt>
      <trkpt lat="42.93063" lon="0.74429">
        <ele>1752.5</ele>
        <time>2020-02-23T11:14:01Z</time>
      </trkpt>
      <trkpt lat="42.93063" lon="0.74429">
        <ele>1752.5</ele>
        <time>2020-02-23T11:14:02Z</time>
      </trkpt>
      <trkpt lat="42.93064" lon="0.74426">
        <ele>1752.3</ele>
        <time>2020-02-23T11:14:03Z</time>
      </trkpt>
      <trkpt lat="42.93064" lon="0.74426">
        <ele>1752.3</ele>
        <time>2020-02-23T11:14:04Z</time>
      </trkpt>
      <trkpt lat="42.93064" lon="0.74426">
        <ele>1752.3</ele>
        <time>2020-02-23T11:14:05Z</time>
      </trkpt>
      <trkpt lat="42.93063" lon="0.74422">
        <ele>1752.2</ele>
        <time>2020-02-23T11:14:06Z</time>
      </trkpt>
      <trkpt lat="42.93063" lon="0.74422">
        <ele>1752.2</ele>
        <time>2020-02-23T11:14:07Z</time>
      </trkpt>
      <trkpt lat="42.93063" lon="0.74419">
        <ele>1752</ele>
        <time>2020-02-23T11:14:08Z</time>
      </trkpt>
      <trkpt lat="42.93063" lon="0.74419">
        <ele>1752</ele>
        <time>2020-02-23T11:14:09Z</time>
      </trkpt>
      <trkpt lat="42.93063" lon="0.74419">
        <ele>1752</ele>
        <time>2020-02-23T11:14:10Z</time>
      </trkpt>
      <trkpt lat="42.93063" lon="0.74419">
        <ele>1752</ele>
        <time>2020-02-23T11:14:11Z</time>
      </trkpt>
      <trkpt lat="42.93063" lon="0.74414">
        <ele>1751.7</ele>
        <time>2020-02-23T11:14:12Z</time>
      </trkpt>
      <trkpt lat="42.93063" lon="0.74414">
        <ele>1751.7</ele>
        <time>2020-02-23T11:14:13Z</time>
      </trkpt>
      <trkpt lat="42.93063" lon="0.74414">
        <ele>1751.7</ele>
        <time>2020-02-23T11:14:14Z</time>
      </trkpt>
      <trkpt lat="42.93062" lon="0.74411">
        <ele>1751.4</ele>
        <time>2020-02-23T11:14:15Z</time>
      </trkpt>
      <trkpt lat="42.93062" lon="0.74411">
        <ele>1751.4</ele>
        <time>2020-02-23T11:14:16Z</time>
      </trkpt>
      <trkpt lat="42.93062" lon="0.74411">
        <ele>1751.4</ele>
        <time>2020-02-23T11:14:17Z</time>
      </trkpt>
      <trkpt lat="42.93062" lon="0.74409">
        <ele>1751.2</ele>
        <time>2020-02-23T11:14:18Z</time>
      </trkpt>
      <trkpt lat="42.93062" lon="0.74409">
        <ele>1751.2</ele>
        <time>2020-02-23T11:14:19Z</time>
      </trkpt>
      <trkpt lat="42.93062" lon="0.74409">
        <ele>1751.2</ele>
        <time>2020-02-23T11:14:20Z</time>
      </trkpt>
      <trkpt lat="42.93062" lon="0.74409">
        <ele>1751.2</ele>
        <time>2020-02-23T11:14:21Z</time>
      </trkpt>
      <trkpt lat="42.93062" lon="0.74405">
        <ele>1750.9</ele>
        <time>2020-02-23T11:14:22Z</time>
      </trkpt>
      <trkpt lat="42.93062" lon="0.74405">
        <ele>1750.9</ele>
        <time>2020-02-23T11:14:23Z</time>
      </trkpt>
      <trkpt lat="42.93062" lon="0.74405">
        <ele>1750.9</ele>
        <time>2020-02-23T11:14:24Z</time>
      </trkpt>
      <trkpt lat="42.93061" lon="0.74403">
        <ele>1750.6</ele>
        <time>2020-02-23T11:14:25Z</time>
      </trkpt>
      <trkpt lat="42.93061" lon="0.74403">
        <ele>1750.6</ele>
        <time>2020-02-23T11:14:26Z</time>
      </trkpt>
      <trkpt lat="42.93061" lon="0.74403">
        <ele>1750.6</ele>
        <time>2020-02-23T11:14:27Z</time>
      </trkpt>
      <trkpt lat="42.93061" lon="0.744">
        <ele>1750.2</ele>
        <time>2020-02-23T11:14:28Z</time>
      </trkpt>
      <trkpt lat="42.93061" lon="0.744">
        <ele>1750.2</ele>
        <time>2020-02-23T11:14:29Z</time>
      </trkpt>
      <trkpt lat="42.93061" lon="0.744">
        <ele>1750.2</ele>
        <time>2020-02-23T11:14:30Z</time>
      </trkpt>
      <trkpt lat="42.93062" lon="0.74398">
        <ele>1749.9</ele>
        <time>2020-02-23T11:14:31Z</time>
      </trkpt>
      <trkpt lat="42.93062" lon="0.74398">
        <ele>1749.9</ele>
        <time>2020-02-23T11:14:32Z</time>
      </trkpt>
      <trkpt lat="42.93062" lon="0.74398">
        <ele>1749.9</ele>
        <time>2020-02-23T11:14:33Z</time>
      </trkpt>
      <trkpt lat="42.93062" lon="0.74394">
        <ele>1749.4</ele>
        <time>2020-02-23T11:14:34Z</time>
      </trkpt>
      <trkpt lat="42.93061" lon="0.74392">
        <ele>1749</ele>
        <time>2020-02-23T11:14:35Z</time>
      </trkpt>
      <trkpt lat="42.93061" lon="0.74392">
        <ele>1749</ele>
        <time>2020-02-23T11:14:36Z</time>
      </trkpt>
      <trkpt lat="42.93061" lon="0.74392">
        <ele>1749</ele>
        <time>2020-02-23T11:14:37Z</time>
      </trkpt>
      <trkpt lat="42.9306" lon="0.74389">
        <ele>1748.7</ele>
        <time>2020-02-23T11:14:38Z</time>
      </trkpt>
      <trkpt lat="42.9306" lon="0.74389">
        <ele>1748.7</ele>
        <time>2020-02-23T11:14:39Z</time>
      </trkpt>
      <trkpt lat="42.9306" lon="0.74389">
        <ele>1748.7</ele>
        <time>2020-02-23T11:14:40Z</time>
      </trkpt>
      <trkpt lat="42.93059" lon="0.74386">
        <ele>1748.4</ele>
        <time>2020-02-23T11:14:41Z</time>
      </trkpt>
      <trkpt lat="42.93059" lon="0.74386">
        <ele>1748.4</ele>
        <time>2020-02-23T11:14:42Z</time>
      </trkpt>
      <trkpt lat="42.93059" lon="0.74386">
        <ele>1748.4</ele>
        <time>2020-02-23T11:14:43Z</time>
      </trkpt>
      <trkpt lat="42.93058" lon="0.74383">
        <ele>1748.2</ele>
        <time>2020-02-23T11:14:44Z</time>
      </trkpt>
      <trkpt lat="42.93058" lon="0.74383">
        <ele>1748.2</ele>
        <time>2020-02-23T11:14:45Z</time>
      </trkpt>
      <trkpt lat="42.93058" lon="0.74383">
        <ele>1748.2</ele>
        <time>2020-02-23T11:14:46Z</time>
      </trkpt>
      <trkpt lat="42.93057" lon="0.7438">
        <ele>1747.9</ele>
        <time>2020-02-23T11:14:47Z</time>
      </trkpt>
      <trkpt lat="42.93057" lon="0.7438">
        <ele>1747.9</ele>
        <time>2020-02-23T11:14:48Z</time>
      </trkpt>
      <trkpt lat="42.93057" lon="0.7438">
        <ele>1747.9</ele>
        <time>2020-02-23T11:14:49Z</time>
      </trkpt>
      <trkpt lat="42.93056" lon="0.74377">
        <ele>1747.4</ele>
        <time>2020-02-23T11:14:50Z</time>
      </trkpt>
      <trkpt lat="42.93056" lon="0.74377">
        <ele>1747.4</ele>
        <time>2020-02-23T11:14:51Z</time>
      </trkpt>
      <trkpt lat="42.93056" lon="0.74374">
        <ele>1746.9</ele>
        <time>2020-02-23T11:14:52Z</time>
      </trkpt>
      <trkpt lat="42.93056" lon="0.74374">
        <ele>1746.9</ele>
        <time>2020-02-23T11:14:53Z</time>
      </trkpt>
      <trkpt lat="42.93055" lon="0.74371">
        <ele>1746.5</ele>
        <time>2020-02-23T11:14:54Z</time>
      </trkpt>
      <trkpt lat="42.93055" lon="0.74371">
        <ele>1746.5</ele>
        <time>2020-02-23T11:14:55Z</time>
      </trkpt>
      <trkpt lat="42.93055" lon="0.74371">
        <ele>1746.5</ele>
        <time>2020-02-23T11:14:56Z</time>
      </trkpt>
      <trkpt lat="42.93055" lon="0.74368">
        <ele>1746</ele>
        <time>2020-02-23T11:14:57Z</time>
      </trkpt>
      <trkpt lat="42.93055" lon="0.74368">
        <ele>1746</ele>
        <time>2020-02-23T11:14:58Z</time>
      </trkpt>
      <trkpt lat="42.93055" lon="0.74365">
        <ele>1745.9</ele>
        <time>2020-02-23T11:14:59Z</time>
      </trkpt>
      <trkpt lat="42.93055" lon="0.74365">
        <ele>1745.9</ele>
        <time>2020-02-23T11:15:00Z</time>
      </trkpt>
      <trkpt lat="42.93054" lon="0.74362">
        <ele>1745.9</ele>
        <time>2020-02-23T11:15:01Z</time>
      </trkpt>
      <trkpt lat="42.93054" lon="0.74362">
        <ele>1745.9</ele>
        <time>2020-02-23T11:15:02Z</time>
      </trkpt>
      <trkpt lat="42.93054" lon="0.74362">
        <ele>1745.9</ele>
        <time>2020-02-23T11:15:03Z</time>
      </trkpt>
      <trkpt lat="42.93053" lon="0.74359">
        <ele>1745.8</ele>
        <time>2020-02-23T11:15:04Z</time>
      </trkpt>
      <trkpt lat="42.93053" lon="0.74359">
        <ele>1745.8</ele>
        <time>2020-02-23T11:15:05Z</time>
      </trkpt>
      <trkpt lat="42.93052" lon="0.74356">
        <ele>1745.8</ele>
        <time>2020-02-23T11:15:06Z</time>
      </trkpt>
      <trkpt lat="42.93052" lon="0.74356">
        <ele>1745.8</ele>
        <time>2020-02-23T11:15:07Z</time>
      </trkpt>
      <trkpt lat="42.93052" lon="0.74353">
        <ele>1745.5</ele>
        <time>2020-02-23T11:15:08Z</time>
      </trkpt>
      <trkpt lat="42.93052" lon="0.74353">
        <ele>1745.5</ele>
        <time>2020-02-23T11:15:09Z</time>
      </trkpt>
      <trkpt lat="42.93052" lon="0.74353">
        <ele>1745.5</ele>
        <time>2020-02-23T11:15:10Z</time>
      </trkpt>
      <trkpt lat="42.93051" lon="0.74349">
        <ele>1745</ele>
        <time>2020-02-23T11:15:11Z</time>
      </trkpt>
      <trkpt lat="42.93051" lon="0.74349">
        <ele>1745</ele>
        <time>2020-02-23T11:15:12Z</time>
      </trkpt>
      <trkpt lat="42.93051" lon="0.74349">
        <ele>1745</ele>
        <time>2020-02-23T11:15:13Z</time>
      </trkpt>
      <trkpt lat="42.93051" lon="0.74347">
        <ele>1744.7</ele>
        <time>2020-02-23T11:15:14Z</time>
      </trkpt>
      <trkpt lat="42.93051" lon="0.74347">
        <ele>1744.7</ele>
        <time>2020-02-23T11:15:15Z</time>
      </trkpt>
      <trkpt lat="42.93051" lon="0.74347">
        <ele>1744.7</ele>
        <time>2020-02-23T11:15:16Z</time>
      </trkpt>
      <trkpt lat="42.93052" lon="0.74343">
        <ele>1744.1</ele>
        <time>2020-02-23T11:15:17Z</time>
      </trkpt>
      <trkpt lat="42.93052" lon="0.74343">
        <ele>1744.1</ele>
        <time>2020-02-23T11:15:18Z</time>
      </trkpt>
      <trkpt lat="42.93052" lon="0.74343">
        <ele>1744.1</ele>
        <time>2020-02-23T11:15:19Z</time>
      </trkpt>
      <trkpt lat="42.93052" lon="0.7434">
        <ele>1743.8</ele>
        <time>2020-02-23T11:15:20Z</time>
      </trkpt>
      <trkpt lat="42.93052" lon="0.7434">
        <ele>1743.8</ele>
        <time>2020-02-23T11:15:21Z</time>
      </trkpt>
      <trkpt lat="42.93052" lon="0.7434">
        <ele>1743.8</ele>
        <time>2020-02-23T11:15:22Z</time>
      </trkpt>
      <trkpt lat="42.93052" lon="0.7434">
        <ele>1743.8</ele>
        <time>2020-02-23T11:15:23Z</time>
      </trkpt>
      <trkpt lat="42.93052" lon="0.74338">
        <ele>1743.7</ele>
        <time>2020-02-23T11:15:24Z</time>
      </trkpt>
      <trkpt lat="42.93052" lon="0.74338">
        <ele>1743.7</ele>
        <time>2020-02-23T11:15:25Z</time>
      </trkpt>
      <trkpt lat="42.93052" lon="0.74338">
        <ele>1743.7</ele>
        <time>2020-02-23T11:15:26Z</time>
      </trkpt>
      <trkpt lat="42.93052" lon="0.74335">
        <ele>1743.5</ele>
        <time>2020-02-23T11:15:27Z</time>
      </trkpt>
      <trkpt lat="42.93052" lon="0.74335">
        <ele>1743.5</ele>
        <time>2020-02-23T11:15:28Z</time>
      </trkpt>
      <trkpt lat="42.93052" lon="0.74335">
        <ele>1743.5</ele>
        <time>2020-02-23T11:15:29Z</time>
      </trkpt>
      <trkpt lat="42.93051" lon="0.74332">
        <ele>1743.3</ele>
        <time>2020-02-23T11:15:30Z</time>
      </trkpt>
      <trkpt lat="42.93051" lon="0.74332">
        <ele>1743.3</ele>
        <time>2020-02-23T11:15:31Z</time>
      </trkpt>
      <trkpt lat="42.93051" lon="0.74332">
        <ele>1743.3</ele>
        <time>2020-02-23T11:15:32Z</time>
      </trkpt>
      <trkpt lat="42.93052" lon="0.74329">
        <ele>1743.1</ele>
        <time>2020-02-23T11:15:33Z</time>
      </trkpt>
      <trkpt lat="42.93052" lon="0.74329">
        <ele>1743.1</ele>
        <time>2020-02-23T11:15:34Z</time>
      </trkpt>
      <trkpt lat="42.93052" lon="0.74329">
        <ele>1743.1</ele>
        <time>2020-02-23T11:15:35Z</time>
      </trkpt>
      <trkpt lat="42.93051" lon="0.74326">
        <ele>1742.8</ele>
        <time>2020-02-23T11:15:36Z</time>
      </trkpt>
      <trkpt lat="42.93051" lon="0.74326">
        <ele>1742.8</ele>
        <time>2020-02-23T11:15:37Z</time>
      </trkpt>
      <trkpt lat="42.93051" lon="0.74323">
        <ele>1742.5</ele>
        <time>2020-02-23T11:15:38Z</time>
      </trkpt>
      <trkpt lat="42.93051" lon="0.7432">
        <ele>1742.2</ele>
        <time>2020-02-23T11:15:39Z</time>
      </trkpt>
      <trkpt lat="42.93051" lon="0.7432">
        <ele>1742.2</ele>
        <time>2020-02-23T11:15:40Z</time>
      </trkpt>
      <trkpt lat="42.93051" lon="0.7432">
        <ele>1742.2</ele>
        <time>2020-02-23T11:15:41Z</time>
      </trkpt>
      <trkpt lat="42.93051" lon="0.74316">
        <ele>1741.9</ele>
        <time>2020-02-23T11:15:42Z</time>
      </trkpt>
      <trkpt lat="42.93051" lon="0.74316">
        <ele>1741.9</ele>
        <time>2020-02-23T11:15:43Z</time>
      </trkpt>
      <trkpt lat="42.93052" lon="0.74313">
        <ele>1741.6</ele>
        <time>2020-02-23T11:15:44Z</time>
      </trkpt>
      <trkpt lat="42.93052" lon="0.74313">
        <ele>1741.6</ele>
        <time>2020-02-23T11:15:45Z</time>
      </trkpt>
      <trkpt lat="42.93052" lon="0.74311">
        <ele>1741.4</ele>
        <time>2020-02-23T11:15:46Z</time>
      </trkpt>
      <trkpt lat="42.93052" lon="0.74311">
        <ele>1741.4</ele>
        <time>2020-02-23T11:15:47Z</time>
      </trkpt>
      <trkpt lat="42.93052" lon="0.74311">
        <ele>1741.4</ele>
        <time>2020-02-23T11:15:48Z</time>
      </trkpt>
      <trkpt lat="42.93053" lon="0.74307">
        <ele>1741.2</ele>
        <time>2020-02-23T11:15:49Z</time>
      </trkpt>
      <trkpt lat="42.93052" lon="0.74304">
        <ele>1740.9</ele>
        <time>2020-02-23T11:15:50Z</time>
      </trkpt>
      <trkpt lat="42.93052" lon="0.74304">
        <ele>1740.9</ele>
        <time>2020-02-23T11:15:51Z</time>
      </trkpt>
      <trkpt lat="42.93052" lon="0.74304">
        <ele>1740.9</ele>
        <time>2020-02-23T11:15:52Z</time>
      </trkpt>
      <trkpt lat="42.93052" lon="0.74301">
        <ele>1740.5</ele>
        <time>2020-02-23T11:15:53Z</time>
      </trkpt>
      <trkpt lat="42.93052" lon="0.74301">
        <ele>1740.5</ele>
        <time>2020-02-23T11:15:54Z</time>
      </trkpt>
      <trkpt lat="42.93052" lon="0.74301">
        <ele>1740.5</ele>
        <time>2020-02-23T11:15:55Z</time>
      </trkpt>
      <trkpt lat="42.93051" lon="0.74298">
        <ele>1740</ele>
        <time>2020-02-23T11:15:56Z</time>
      </trkpt>
      <trkpt lat="42.93051" lon="0.74298">
        <ele>1740</ele>
        <time>2020-02-23T11:15:57Z</time>
      </trkpt>
      <trkpt lat="42.9305" lon="0.74296">
        <ele>1739.4</ele>
        <time>2020-02-23T11:15:58Z</time>
      </trkpt>
      <trkpt lat="42.9305" lon="0.74296">
        <ele>1739.4</ele>
        <time>2020-02-23T11:15:59Z</time>
      </trkpt>
      <trkpt lat="42.9305" lon="0.74293">
        <ele>1738.9</ele>
        <time>2020-02-23T11:16:00Z</time>
      </trkpt>
      <trkpt lat="42.9305" lon="0.74293">
        <ele>1738.9</ele>
        <time>2020-02-23T11:16:01Z</time>
      </trkpt>
      <trkpt lat="42.9305" lon="0.74293">
        <ele>1738.9</ele>
        <time>2020-02-23T11:16:02Z</time>
      </trkpt>
      <trkpt lat="42.9305" lon="0.74293">
        <ele>1738.9</ele>
        <time>2020-02-23T11:16:03Z</time>
      </trkpt>
      <trkpt lat="42.93048" lon="0.74288">
        <ele>1738.2</ele>
        <time>2020-02-23T11:16:04Z</time>
      </trkpt>
      <trkpt lat="42.93048" lon="0.74288">
        <ele>1738.2</ele>
        <time>2020-02-23T11:16:05Z</time>
      </trkpt>
      <trkpt lat="42.93048" lon="0.74288">
        <ele>1738.2</ele>
        <time>2020-02-23T11:16:06Z</time>
      </trkpt>
      <trkpt lat="42.93047" lon="0.74285">
        <ele>1738</ele>
        <time>2020-02-23T11:16:07Z</time>
      </trkpt>
      <trkpt lat="42.93047" lon="0.74285">
        <ele>1738</ele>
        <time>2020-02-23T11:16:08Z</time>
      </trkpt>
      <trkpt lat="42.93047" lon="0.74285">
        <ele>1738</ele>
        <time>2020-02-23T11:16:09Z</time>
      </trkpt>
      <trkpt lat="42.93047" lon="0.74281">
        <ele>1737.8</ele>
        <time>2020-02-23T11:16:10Z</time>
      </trkpt>
      <trkpt lat="42.93047" lon="0.74281">
        <ele>1737.8</ele>
        <time>2020-02-23T11:16:11Z</time>
      </trkpt>
      <trkpt lat="42.93047" lon="0.74281">
        <ele>1737.8</ele>
        <time>2020-02-23T11:16:12Z</time>
      </trkpt>
      <trkpt lat="42.93047" lon="0.74281">
        <ele>1737.8</ele>
        <time>2020-02-23T11:16:13Z</time>
      </trkpt>
      <trkpt lat="42.93047" lon="0.74281">
        <ele>1737.8</ele>
        <time>2020-02-23T11:16:14Z</time>
      </trkpt>
      <trkpt lat="42.93047" lon="0.74281">
        <ele>1737.8</ele>
        <time>2020-02-23T11:16:15Z</time>
      </trkpt>
      <trkpt lat="42.93047" lon="0.74281">
        <ele>1737.8</ele>
        <time>2020-02-23T11:16:16Z</time>
      </trkpt>
      <trkpt lat="42.9305" lon="0.74278">
        <ele>1737.5</ele>
        <time>2020-02-23T11:16:17Z</time>
      </trkpt>
      <trkpt lat="42.9305" lon="0.74278">
        <ele>1737.5</ele>
        <time>2020-02-23T11:16:18Z</time>
      </trkpt>
      <trkpt lat="42.9305" lon="0.74278">
        <ele>1737.5</ele>
        <time>2020-02-23T11:16:19Z</time>
      </trkpt>
      <trkpt lat="42.9305" lon="0.74278">
        <ele>1737.5</ele>
        <time>2020-02-23T11:16:20Z</time>
      </trkpt>
      <trkpt lat="42.9305" lon="0.74278">
        <ele>1737.5</ele>
        <time>2020-02-23T11:16:21Z</time>
      </trkpt>
      <trkpt lat="42.9305" lon="0.74278">
        <ele>1737.5</ele>
        <time>2020-02-23T11:16:22Z</time>
      </trkpt>
      <trkpt lat="42.9305" lon="0.74278">
        <ele>1737.5</ele>
        <time>2020-02-23T11:16:23Z</time>
      </trkpt>
      <trkpt lat="42.93052" lon="0.74276">
        <ele>1736.7</ele>
        <time>2020-02-23T11:16:24Z</time>
      </trkpt>
      <trkpt lat="42.93052" lon="0.74276">
        <ele>1736.7</ele>
        <time>2020-02-23T11:16:25Z</time>
      </trkpt>
      <trkpt lat="42.93052" lon="0.74276">
        <ele>1736.7</ele>
        <time>2020-02-23T11:16:26Z</time>
      </trkpt>
      <trkpt lat="42.93052" lon="0.74276">
        <ele>1736.7</ele>
        <time>2020-02-23T11:16:27Z</time>
      </trkpt>
      <trkpt lat="42.93053" lon="0.74273">
        <ele>1736.2</ele>
        <time>2020-02-23T11:16:28Z</time>
      </trkpt>
      <trkpt lat="42.93053" lon="0.74273">
        <ele>1736.2</ele>
        <time>2020-02-23T11:16:29Z</time>
      </trkpt>
      <trkpt lat="42.93053" lon="0.74272">
        <ele>1736</ele>
        <time>2020-02-23T11:16:30Z</time>
      </trkpt>
      <trkpt lat="42.93053" lon="0.74271">
        <ele>1735.9</ele>
        <time>2020-02-23T11:16:31Z</time>
      </trkpt>
      <trkpt lat="42.93053" lon="0.7427">
        <ele>1735.7</ele>
        <time>2020-02-23T11:16:32Z</time>
      </trkpt>
      <trkpt lat="42.93052" lon="0.74269">
        <ele>1735.5</ele>
        <time>2020-02-23T11:16:33Z</time>
      </trkpt>
      <trkpt lat="42.93052" lon="0.74268">
        <ele>1735.3</ele>
        <time>2020-02-23T11:16:34Z</time>
      </trkpt>
      <trkpt lat="42.93052" lon="0.74267">
        <ele>1735.2</ele>
        <time>2020-02-23T11:16:35Z</time>
      </trkpt>
      <trkpt lat="42.93052" lon="0.74265">
        <ele>1735.1</ele>
        <time>2020-02-23T11:16:36Z</time>
      </trkpt>
      <trkpt lat="42.93052" lon="0.74264">
        <ele>1735</ele>
        <time>2020-02-23T11:16:37Z</time>
      </trkpt>
      <trkpt lat="42.93051" lon="0.74263">
        <ele>1734.9</ele>
        <time>2020-02-23T11:16:38Z</time>
      </trkpt>
      <trkpt lat="42.93051" lon="0.74262">
        <ele>1734.8</ele>
        <time>2020-02-23T11:16:39Z</time>
      </trkpt>
      <trkpt lat="42.93051" lon="0.74261">
        <ele>1734.7</ele>
        <time>2020-02-23T11:16:40Z</time>
      </trkpt>
      <trkpt lat="42.93051" lon="0.7426">
        <ele>1734.6</ele>
        <time>2020-02-23T11:16:41Z</time>
      </trkpt>
      <trkpt lat="42.9305" lon="0.74259">
        <ele>1734.6</ele>
        <time>2020-02-23T11:16:42Z</time>
      </trkpt>
      <trkpt lat="42.9305" lon="0.74259">
        <ele>1734.5</ele>
        <time>2020-02-23T11:16:43Z</time>
      </trkpt>
      <trkpt lat="42.9305" lon="0.74258">
        <ele>1734.4</ele>
        <time>2020-02-23T11:16:44Z</time>
      </trkpt>
      <trkpt lat="42.93049" lon="0.74257">
        <ele>1734.3</ele>
        <time>2020-02-23T11:16:45Z</time>
      </trkpt>
      <trkpt lat="42.93049" lon="0.74256">
        <ele>1734.2</ele>
        <time>2020-02-23T11:16:46Z</time>
      </trkpt>
      <trkpt lat="42.93048" lon="0.74256">
        <ele>1734.1</ele>
        <time>2020-02-23T11:16:47Z</time>
      </trkpt>
      <trkpt lat="42.93048" lon="0.74255">
        <ele>1734.1</ele>
        <time>2020-02-23T11:16:48Z</time>
      </trkpt>
      <trkpt lat="42.93048" lon="0.74254">
        <ele>1734</ele>
        <time>2020-02-23T11:16:49Z</time>
      </trkpt>
      <trkpt lat="42.93047" lon="0.74254">
        <ele>1733.9</ele>
        <time>2020-02-23T11:16:50Z</time>
      </trkpt>
      <trkpt lat="42.93047" lon="0.74253">
        <ele>1733.8</ele>
        <time>2020-02-23T11:16:51Z</time>
      </trkpt>
      <trkpt lat="42.93046" lon="0.74252">
        <ele>1733.7</ele>
        <time>2020-02-23T11:16:52Z</time>
      </trkpt>
      <trkpt lat="42.93046" lon="0.74251">
        <ele>1733.6</ele>
        <time>2020-02-23T11:16:53Z</time>
      </trkpt>
      <trkpt lat="42.93045" lon="0.7425">
        <ele>1733.5</ele>
        <time>2020-02-23T11:16:54Z</time>
      </trkpt>
      <trkpt lat="42.93045" lon="0.74249">
        <ele>1733.4</ele>
        <time>2020-02-23T11:16:55Z</time>
      </trkpt>
      <trkpt lat="42.93044" lon="0.74248">
        <ele>1733.3</ele>
        <time>2020-02-23T11:16:56Z</time>
      </trkpt>
      <trkpt lat="42.93044" lon="0.74247">
        <ele>1733.2</ele>
        <time>2020-02-23T11:16:57Z</time>
      </trkpt>
      <trkpt lat="42.93043" lon="0.74246">
        <ele>1733.1</ele>
        <time>2020-02-23T11:16:58Z</time>
      </trkpt>
      <trkpt lat="42.93043" lon="0.74245">
        <ele>1732.9</ele>
        <time>2020-02-23T11:16:59Z</time>
      </trkpt>
      <trkpt lat="42.93042" lon="0.74244">
        <ele>1732.8</ele>
        <time>2020-02-23T11:17:00Z</time>
      </trkpt>
      <trkpt lat="42.93041" lon="0.74243">
        <ele>1732.7</ele>
        <time>2020-02-23T11:17:01Z</time>
      </trkpt>
      <trkpt lat="42.93041" lon="0.74242">
        <ele>1732.6</ele>
        <time>2020-02-23T11:17:02Z</time>
      </trkpt>
      <trkpt lat="42.9304" lon="0.74241">
        <ele>1732.5</ele>
        <time>2020-02-23T11:17:03Z</time>
      </trkpt>
      <trkpt lat="42.9304" lon="0.7424">
        <ele>1732.4</ele>
        <time>2020-02-23T11:17:04Z</time>
      </trkpt>
      <trkpt lat="42.9304" lon="0.74238">
        <ele>1732.3</ele>
        <time>2020-02-23T11:17:05Z</time>
      </trkpt>
      <trkpt lat="42.93039" lon="0.74237">
        <ele>1732.2</ele>
        <time>2020-02-23T11:17:06Z</time>
      </trkpt>
      <trkpt lat="42.93039" lon="0.74236">
        <ele>1732.1</ele>
        <time>2020-02-23T11:17:07Z</time>
      </trkpt>
      <trkpt lat="42.93039" lon="0.74235">
        <ele>1732</ele>
        <time>2020-02-23T11:17:08Z</time>
      </trkpt>
      <trkpt lat="42.93038" lon="0.74233">
        <ele>1731.8</ele>
        <time>2020-02-23T11:17:09Z</time>
      </trkpt>
      <trkpt lat="42.93038" lon="0.74232">
        <ele>1731.8</ele>
        <time>2020-02-23T11:17:10Z</time>
      </trkpt>
      <trkpt lat="42.93037" lon="0.74231">
        <ele>1731.7</ele>
        <time>2020-02-23T11:17:11Z</time>
      </trkpt>
      <trkpt lat="42.93037" lon="0.7423">
        <ele>1731.6</ele>
        <time>2020-02-23T11:17:12Z</time>
      </trkpt>
      <trkpt lat="42.93037" lon="0.74228">
        <ele>1731.5</ele>
        <time>2020-02-23T11:17:13Z</time>
      </trkpt>
      <trkpt lat="42.93036" lon="0.74227">
        <ele>1731.3</ele>
        <time>2020-02-23T11:17:14Z</time>
      </trkpt>
      <trkpt lat="42.93036" lon="0.74225">
        <ele>1731.2</ele>
        <time>2020-02-23T11:17:15Z</time>
      </trkpt>
      <trkpt lat="42.93036" lon="0.74223">
        <ele>1731.1</ele>
        <time>2020-02-23T11:17:16Z</time>
      </trkpt>
      <trkpt lat="42.93036" lon="0.74221">
        <ele>1730.9</ele>
        <time>2020-02-23T11:17:17Z</time>
      </trkpt>
      <trkpt lat="42.93035" lon="0.7422">
        <ele>1730.8</ele>
        <time>2020-02-23T11:17:18Z</time>
      </trkpt>
      <trkpt lat="42.93035" lon="0.7422">
        <ele>1730.8</ele>
        <time>2020-02-23T11:17:19Z</time>
      </trkpt>
      <trkpt lat="42.93035" lon="0.7422">
        <ele>1730.8</ele>
        <time>2020-02-23T11:17:20Z</time>
      </trkpt>
      <trkpt lat="42.93035" lon="0.74217">
        <ele>1730.6</ele>
        <time>2020-02-23T11:17:21Z</time>
      </trkpt>
      <trkpt lat="42.93035" lon="0.74217">
        <ele>1730.6</ele>
        <time>2020-02-23T11:17:22Z</time>
      </trkpt>
      <trkpt lat="42.93034" lon="0.74213">
        <ele>1730.4</ele>
        <time>2020-02-23T11:17:23Z</time>
      </trkpt>
      <trkpt lat="42.93034" lon="0.74213">
        <ele>1730.4</ele>
        <time>2020-02-23T11:17:24Z</time>
      </trkpt>
      <trkpt lat="42.93034" lon="0.7421">
        <ele>1730.1</ele>
        <time>2020-02-23T11:17:25Z</time>
      </trkpt>
      <trkpt lat="42.93034" lon="0.7421">
        <ele>1730.1</ele>
        <time>2020-02-23T11:17:26Z</time>
      </trkpt>
      <trkpt lat="42.93034" lon="0.7421">
        <ele>1730.1</ele>
        <time>2020-02-23T11:17:27Z</time>
      </trkpt>
      <trkpt lat="42.93033" lon="0.74207">
        <ele>1729.9</ele>
        <time>2020-02-23T11:17:28Z</time>
      </trkpt>
      <trkpt lat="42.93033" lon="0.74207">
        <ele>1729.9</ele>
        <time>2020-02-23T11:17:29Z</time>
      </trkpt>
      <trkpt lat="42.93032" lon="0.74203">
        <ele>1729.5</ele>
        <time>2020-02-23T11:17:30Z</time>
      </trkpt>
      <trkpt lat="42.93032" lon="0.74203">
        <ele>1729.5</ele>
        <time>2020-02-23T11:17:31Z</time>
      </trkpt>
      <trkpt lat="42.93032" lon="0.74203">
        <ele>1729.5</ele>
        <time>2020-02-23T11:17:32Z</time>
      </trkpt>
      <trkpt lat="42.93031" lon="0.74201">
        <ele>1729.2</ele>
        <time>2020-02-23T11:17:33Z</time>
      </trkpt>
      <trkpt lat="42.93031" lon="0.74201">
        <ele>1729.2</ele>
        <time>2020-02-23T11:17:34Z</time>
      </trkpt>
      <trkpt lat="42.9303" lon="0.74198">
        <ele>1728.8</ele>
        <time>2020-02-23T11:17:35Z</time>
      </trkpt>
      <trkpt lat="42.9303" lon="0.74198">
        <ele>1728.8</ele>
        <time>2020-02-23T11:17:36Z</time>
      </trkpt>
      <trkpt lat="42.9303" lon="0.74198">
        <ele>1728.8</ele>
        <time>2020-02-23T11:17:37Z</time>
      </trkpt>
      <trkpt lat="42.93029" lon="0.74196">
        <ele>1728.5</ele>
        <time>2020-02-23T11:17:38Z</time>
      </trkpt>
      <trkpt lat="42.93028" lon="0.74193">
        <ele>1728.2</ele>
        <time>2020-02-23T11:17:39Z</time>
      </trkpt>
      <trkpt lat="42.93028" lon="0.74193">
        <ele>1728.2</ele>
        <time>2020-02-23T11:17:40Z</time>
      </trkpt>
      <trkpt lat="42.93028" lon="0.7419">
        <ele>1728.1</ele>
        <time>2020-02-23T11:17:41Z</time>
      </trkpt>
      <trkpt lat="42.93028" lon="0.7419">
        <ele>1728.1</ele>
        <time>2020-02-23T11:17:42Z</time>
      </trkpt>
      <trkpt lat="42.93027" lon="0.74187">
        <ele>1728</ele>
        <time>2020-02-23T11:17:43Z</time>
      </trkpt>
      <trkpt lat="42.93027" lon="0.74187">
        <ele>1728</ele>
        <time>2020-02-23T11:17:44Z</time>
      </trkpt>
      <trkpt lat="42.93027" lon="0.74187">
        <ele>1728</ele>
        <time>2020-02-23T11:17:45Z</time>
      </trkpt>
      <trkpt lat="42.93026" lon="0.74184">
        <ele>1727.8</ele>
        <time>2020-02-23T11:17:46Z</time>
      </trkpt>
      <trkpt lat="42.93025" lon="0.74181">
        <ele>1727.7</ele>
        <time>2020-02-23T11:17:47Z</time>
      </trkpt>
      <trkpt lat="42.93025" lon="0.74181">
        <ele>1727.7</ele>
        <time>2020-02-23T11:17:48Z</time>
      </trkpt>
      <trkpt lat="42.93025" lon="0.74181">
        <ele>1727.7</ele>
        <time>2020-02-23T11:17:49Z</time>
      </trkpt>
      <trkpt lat="42.93025" lon="0.74179">
        <ele>1727.4</ele>
        <time>2020-02-23T11:17:50Z</time>
      </trkpt>
      <trkpt lat="42.93024" lon="0.74176">
        <ele>1727.1</ele>
        <time>2020-02-23T11:17:51Z</time>
      </trkpt>
      <trkpt lat="42.93024" lon="0.74176">
        <ele>1727.1</ele>
        <time>2020-02-23T11:17:52Z</time>
      </trkpt>
      <trkpt lat="42.93024" lon="0.74176">
        <ele>1727.1</ele>
        <time>2020-02-23T11:17:53Z</time>
      </trkpt>
      <trkpt lat="42.93024" lon="0.74173">
        <ele>1726.8</ele>
        <time>2020-02-23T11:17:54Z</time>
      </trkpt>
      <trkpt lat="42.93024" lon="0.7417">
        <ele>1726.4</ele>
        <time>2020-02-23T11:17:55Z</time>
      </trkpt>
      <trkpt lat="42.93024" lon="0.7417">
        <ele>1726.4</ele>
        <time>2020-02-23T11:17:56Z</time>
      </trkpt>
      <trkpt lat="42.93023" lon="0.74167">
        <ele>1726.1</ele>
        <time>2020-02-23T11:17:57Z</time>
      </trkpt>
      <trkpt lat="42.93023" lon="0.74167">
        <ele>1726.1</ele>
        <time>2020-02-23T11:17:58Z</time>
      </trkpt>
      <trkpt lat="42.93023" lon="0.74167">
        <ele>1726.1</ele>
        <time>2020-02-23T11:17:59Z</time>
      </trkpt>
      <trkpt lat="42.93022" lon="0.74165">
        <ele>1725.8</ele>
        <time>2020-02-23T11:18:00Z</time>
      </trkpt>
      <trkpt lat="42.93022" lon="0.74165">
        <ele>1725.8</ele>
        <time>2020-02-23T11:18:01Z</time>
      </trkpt>
      <trkpt lat="42.93022" lon="0.74165">
        <ele>1725.8</ele>
        <time>2020-02-23T11:18:02Z</time>
      </trkpt>
      <trkpt lat="42.93022" lon="0.74162">
        <ele>1725.5</ele>
        <time>2020-02-23T11:18:03Z</time>
      </trkpt>
      <trkpt lat="42.93022" lon="0.74162">
        <ele>1725.5</ele>
        <time>2020-02-23T11:18:04Z</time>
      </trkpt>
      <trkpt lat="42.93022" lon="0.74162">
        <ele>1725.5</ele>
        <time>2020-02-23T11:18:05Z</time>
      </trkpt>
      <trkpt lat="42.93022" lon="0.74162">
        <ele>1725.5</ele>
        <time>2020-02-23T11:18:06Z</time>
      </trkpt>
      <trkpt lat="42.93022" lon="0.74162">
        <ele>1725.5</ele>
        <time>2020-02-23T11:18:07Z</time>
      </trkpt>
      <trkpt lat="42.93022" lon="0.74162">
        <ele>1725.5</ele>
        <time>2020-02-23T11:18:08Z</time>
      </trkpt>
      <trkpt lat="42.93022" lon="0.74162">
        <ele>1725.5</ele>
        <time>2020-02-23T11:18:09Z</time>
      </trkpt>
      <trkpt lat="42.93022" lon="0.74162">
        <ele>1725.5</ele>
        <time>2020-02-23T11:18:10Z</time>
      </trkpt>
      <trkpt lat="42.93022" lon="0.74162">
        <ele>1725.5</ele>
        <time>2020-02-23T11:18:11Z</time>
      </trkpt>
      <trkpt lat="42.93022" lon="0.74162">
        <ele>1725.5</ele>
        <time>2020-02-23T11:18:12Z</time>
      </trkpt>
      <trkpt lat="42.93022" lon="0.74162">
        <ele>1725.5</ele>
        <time>2020-02-23T11:18:13Z</time>
      </trkpt>
      <trkpt lat="42.93022" lon="0.74162">
        <ele>1725.5</ele>
        <time>2020-02-23T11:18:14Z</time>
      </trkpt>
      <trkpt lat="42.93022" lon="0.74162">
        <ele>1725.5</ele>
        <time>2020-02-23T11:18:15Z</time>
      </trkpt>
      <trkpt lat="42.93022" lon="0.74162">
        <ele>1725.5</ele>
        <time>2020-02-23T11:18:16Z</time>
      </trkpt>
      <trkpt lat="42.93022" lon="0.74162">
        <ele>1725.5</ele>
        <time>2020-02-23T11:18:17Z</time>
      </trkpt>
      <trkpt lat="42.93022" lon="0.74162">
        <ele>1725.5</ele>
        <time>2020-02-23T11:18:18Z</time>
      </trkpt>
      <trkpt lat="42.93022" lon="0.74162">
        <ele>1725.5</ele>
        <time>2020-02-23T11:18:19Z</time>
      </trkpt>
      <trkpt lat="42.93022" lon="0.74162">
        <ele>1725.5</ele>
        <time>2020-02-23T11:18:20Z</time>
      </trkpt>
      <trkpt lat="42.93022" lon="0.74162">
        <ele>1725.5</ele>
        <time>2020-02-23T11:18:21Z</time>
      </trkpt>
      <trkpt lat="42.93022" lon="0.74162">
        <ele>1725.5</ele>
        <time>2020-02-23T11:18:22Z</time>
      </trkpt>
      <trkpt lat="42.93022" lon="0.74162">
        <ele>1725.5</ele>
        <time>2020-02-23T11:18:23Z</time>
      </trkpt>
      <trkpt lat="42.93022" lon="0.74162">
        <ele>1725.5</ele>
        <time>2020-02-23T11:18:24Z</time>
      </trkpt>
      <trkpt lat="42.93022" lon="0.74162">
        <ele>1725.5</ele>
        <time>2020-02-23T11:18:25Z</time>
      </trkpt>
      <trkpt lat="42.93022" lon="0.74162">
        <ele>1725.5</ele>
        <time>2020-02-23T11:18:26Z</time>
      </trkpt>
      <trkpt lat="42.93022" lon="0.74162">
        <ele>1725.5</ele>
        <time>2020-02-23T11:18:27Z</time>
      </trkpt>
      <trkpt lat="42.93022" lon="0.74162">
        <ele>1725.5</ele>
        <time>2020-02-23T11:18:28Z</time>
      </trkpt>
      <trkpt lat="42.93022" lon="0.74162">
        <ele>1725.5</ele>
        <time>2020-02-23T11:18:29Z</time>
      </trkpt>
      <trkpt lat="42.93022" lon="0.74162">
        <ele>1725.5</ele>
        <time>2020-02-23T11:18:30Z</time>
      </trkpt>
      <trkpt lat="42.93022" lon="0.74162">
        <ele>1725.5</ele>
        <time>2020-02-23T11:18:31Z</time>
      </trkpt>
      <trkpt lat="42.93022" lon="0.74162">
        <ele>1725.5</ele>
        <time>2020-02-23T11:18:32Z</time>
      </trkpt>
      <trkpt lat="42.93022" lon="0.74162">
        <ele>1725.5</ele>
        <time>2020-02-23T11:18:33Z</time>
      </trkpt>
      <trkpt lat="42.93022" lon="0.74162">
        <ele>1725.5</ele>
        <time>2020-02-23T11:18:34Z</time>
      </trkpt>
      <trkpt lat="42.93023" lon="0.74164">
        <ele>1725.3</ele>
        <time>2020-02-23T11:18:35Z</time>
      </trkpt>
      <trkpt lat="42.93023" lon="0.74164">
        <ele>1725.3</ele>
        <time>2020-02-23T11:18:36Z</time>
      </trkpt>
      <trkpt lat="42.93023" lon="0.74164">
        <ele>1725.3</ele>
        <time>2020-02-23T11:18:37Z</time>
      </trkpt>
      <trkpt lat="42.93023" lon="0.74164">
        <ele>1725.3</ele>
        <time>2020-02-23T11:18:38Z</time>
      </trkpt>
      <trkpt lat="42.93023" lon="0.74164">
        <ele>1725.3</ele>
        <time>2020-02-23T11:18:39Z</time>
      </trkpt>
      <trkpt lat="42.93023" lon="0.74164">
        <ele>1725.3</ele>
        <time>2020-02-23T11:18:40Z</time>
      </trkpt>
      <trkpt lat="42.93023" lon="0.74164">
        <ele>1725.3</ele>
        <time>2020-02-23T11:18:41Z</time>
      </trkpt>
      <trkpt lat="42.93023" lon="0.74164">
        <ele>1725.3</ele>
        <time>2020-02-23T11:18:42Z</time>
      </trkpt>
      <trkpt lat="42.93023" lon="0.74164">
        <ele>1725.3</ele>
        <time>2020-02-23T11:18:43Z</time>
      </trkpt>
      <trkpt lat="42.93023" lon="0.74164">
        <ele>1725.3</ele>
        <time>2020-02-23T11:18:44Z</time>
      </trkpt>
      <trkpt lat="42.93023" lon="0.74164">
        <ele>1725.3</ele>
        <time>2020-02-23T11:18:45Z</time>
      </trkpt>
      <trkpt lat="42.93023" lon="0.74164">
        <ele>1725.3</ele>
        <time>2020-02-23T11:18:46Z</time>
      </trkpt>
      <trkpt lat="42.93023" lon="0.74164">
        <ele>1725.3</ele>
        <time>2020-02-23T11:18:47Z</time>
      </trkpt>
      <trkpt lat="42.93023" lon="0.74164">
        <ele>1725.3</ele>
        <time>2020-02-23T11:18:48Z</time>
      </trkpt>
      <trkpt lat="42.93023" lon="0.74164">
        <ele>1725.3</ele>
        <time>2020-02-23T11:18:49Z</time>
      </trkpt>
      <trkpt lat="42.93023" lon="0.74164">
        <ele>1725.3</ele>
        <time>2020-02-23T11:18:50Z</time>
      </trkpt>
      <trkpt lat="42.93023" lon="0.74164">
        <ele>1725.3</ele>
        <time>2020-02-23T11:18:51Z</time>
      </trkpt>
      <trkpt lat="42.93023" lon="0.74164">
        <ele>1725.3</ele>
        <time>2020-02-23T11:18:52Z</time>
      </trkpt>
      <trkpt lat="42.93023" lon="0.74164">
        <ele>1725.3</ele>
        <time>2020-02-23T11:18:53Z</time>
      </trkpt>
      <trkpt lat="42.93023" lon="0.74164">
        <ele>1725.3</ele>
        <time>2020-02-23T11:18:54Z</time>
      </trkpt>
      <trkpt lat="42.93023" lon="0.74164">
        <ele>1725.3</ele>
        <time>2020-02-23T11:18:55Z</time>
      </trkpt>
      <trkpt lat="42.93023" lon="0.74161">
        <ele>1725</ele>
        <time>2020-02-23T11:18:56Z</time>
      </trkpt>
      <trkpt lat="42.93022" lon="0.74158">
        <ele>1724.6</ele>
        <time>2020-02-23T11:18:57Z</time>
      </trkpt>
      <trkpt lat="42.93022" lon="0.74158">
        <ele>1724.6</ele>
        <time>2020-02-23T11:18:58Z</time>
      </trkpt>
      <trkpt lat="42.93022" lon="0.74158">
        <ele>1724.6</ele>
        <time>2020-02-23T11:18:59Z</time>
      </trkpt>
      <trkpt lat="42.9302" lon="0.74156">
        <ele>1724.2</ele>
        <time>2020-02-23T11:19:00Z</time>
      </trkpt>
      <trkpt lat="42.9302" lon="0.74156">
        <ele>1724.2</ele>
        <time>2020-02-23T11:19:01Z</time>
      </trkpt>
      <trkpt lat="42.9302" lon="0.74156">
        <ele>1724.2</ele>
        <time>2020-02-23T11:19:02Z</time>
      </trkpt>
      <trkpt lat="42.9302" lon="0.74156">
        <ele>1724.2</ele>
        <time>2020-02-23T11:19:03Z</time>
      </trkpt>
      <trkpt lat="42.9302" lon="0.74153">
        <ele>1723.9</ele>
        <time>2020-02-23T11:19:04Z</time>
      </trkpt>
      <trkpt lat="42.9302" lon="0.74153">
        <ele>1723.9</ele>
        <time>2020-02-23T11:19:05Z</time>
      </trkpt>
      <trkpt lat="42.9302" lon="0.74153">
        <ele>1723.9</ele>
        <time>2020-02-23T11:19:06Z</time>
      </trkpt>
      <trkpt lat="42.9302" lon="0.74153">
        <ele>1723.9</ele>
        <time>2020-02-23T11:19:07Z</time>
      </trkpt>
      <trkpt lat="42.93018" lon="0.74152">
        <ele>1723.5</ele>
        <time>2020-02-23T11:19:08Z</time>
      </trkpt>
      <trkpt lat="42.93018" lon="0.74152">
        <ele>1723.5</ele>
        <time>2020-02-23T11:19:09Z</time>
      </trkpt>
      <trkpt lat="42.93017" lon="0.7415">
        <ele>1723.2</ele>
        <time>2020-02-23T11:19:10Z</time>
      </trkpt>
      <trkpt lat="42.93017" lon="0.7415">
        <ele>1723.2</ele>
        <time>2020-02-23T11:19:11Z</time>
      </trkpt>
      <trkpt lat="42.93017" lon="0.7415">
        <ele>1723.2</ele>
        <time>2020-02-23T11:19:12Z</time>
      </trkpt>
      <trkpt lat="42.93017" lon="0.7415">
        <ele>1723.2</ele>
        <time>2020-02-23T11:19:13Z</time>
      </trkpt>
      <trkpt lat="42.93016" lon="0.74147">
        <ele>1722.9</ele>
        <time>2020-02-23T11:19:14Z</time>
      </trkpt>
      <trkpt lat="42.93015" lon="0.74144">
        <ele>1722.6</ele>
        <time>2020-02-23T11:19:15Z</time>
      </trkpt>
      <trkpt lat="42.93015" lon="0.74144">
        <ele>1722.6</ele>
        <time>2020-02-23T11:19:16Z</time>
      </trkpt>
      <trkpt lat="42.93014" lon="0.74141">
        <ele>1722.4</ele>
        <time>2020-02-23T11:19:17Z</time>
      </trkpt>
      <trkpt lat="42.93014" lon="0.74141">
        <ele>1722.4</ele>
        <time>2020-02-23T11:19:18Z</time>
      </trkpt>
      <trkpt lat="42.93014" lon="0.74141">
        <ele>1722.4</ele>
        <time>2020-02-23T11:19:19Z</time>
      </trkpt>
      <trkpt lat="42.93012" lon="0.74139">
        <ele>1722.1</ele>
        <time>2020-02-23T11:19:20Z</time>
      </trkpt>
      <trkpt lat="42.93012" lon="0.74139">
        <ele>1722.1</ele>
        <time>2020-02-23T11:19:21Z</time>
      </trkpt>
      <trkpt lat="42.93012" lon="0.74139">
        <ele>1722.1</ele>
        <time>2020-02-23T11:19:22Z</time>
      </trkpt>
      <trkpt lat="42.9301" lon="0.74137">
        <ele>1721.9</ele>
        <time>2020-02-23T11:19:23Z</time>
      </trkpt>
      <trkpt lat="42.9301" lon="0.74137">
        <ele>1721.9</ele>
        <time>2020-02-23T11:19:24Z</time>
      </trkpt>
      <trkpt lat="42.9301" lon="0.74137">
        <ele>1721.9</ele>
        <time>2020-02-23T11:19:25Z</time>
      </trkpt>
      <trkpt lat="42.93009" lon="0.74134">
        <ele>1721.8</ele>
        <time>2020-02-23T11:19:26Z</time>
      </trkpt>
      <trkpt lat="42.93009" lon="0.74134">
        <ele>1721.8</ele>
        <time>2020-02-23T11:19:27Z</time>
      </trkpt>
      <trkpt lat="42.93008" lon="0.74131">
        <ele>1721.6</ele>
        <time>2020-02-23T11:19:28Z</time>
      </trkpt>
      <trkpt lat="42.93008" lon="0.74131">
        <ele>1721.6</ele>
        <time>2020-02-23T11:19:29Z</time>
      </trkpt>
      <trkpt lat="42.93008" lon="0.74131">
        <ele>1721.6</ele>
        <time>2020-02-23T11:19:30Z</time>
      </trkpt>
      <trkpt lat="42.93007" lon="0.74129">
        <ele>1721.5</ele>
        <time>2020-02-23T11:19:31Z</time>
      </trkpt>
      <trkpt lat="42.93006" lon="0.74127">
        <ele>1721.4</ele>
        <time>2020-02-23T11:19:32Z</time>
      </trkpt>
      <trkpt lat="42.93006" lon="0.74127">
        <ele>1721.4</ele>
        <time>2020-02-23T11:19:33Z</time>
      </trkpt>
      <trkpt lat="42.93006" lon="0.74127">
        <ele>1721.4</ele>
        <time>2020-02-23T11:19:34Z</time>
      </trkpt>
      <trkpt lat="42.93006" lon="0.74127">
        <ele>1721.4</ele>
        <time>2020-02-23T11:19:35Z</time>
      </trkpt>
      <trkpt lat="42.93005" lon="0.74125">
        <ele>1721.1</ele>
        <time>2020-02-23T11:19:36Z</time>
      </trkpt>
      <trkpt lat="42.93004" lon="0.74122">
        <ele>1720.8</ele>
        <time>2020-02-23T11:19:37Z</time>
      </trkpt>
      <trkpt lat="42.93004" lon="0.74122">
        <ele>1720.8</ele>
        <time>2020-02-23T11:19:38Z</time>
      </trkpt>
      <trkpt lat="42.93004" lon="0.74122">
        <ele>1720.8</ele>
        <time>2020-02-23T11:19:39Z</time>
      </trkpt>
      <trkpt lat="42.93003" lon="0.7412">
        <ele>1720.6</ele>
        <time>2020-02-23T11:19:40Z</time>
      </trkpt>
      <trkpt lat="42.93001" lon="0.7412">
        <ele>1720.3</ele>
        <time>2020-02-23T11:19:41Z</time>
      </trkpt>
      <trkpt lat="42.93001" lon="0.7412">
        <ele>1720.3</ele>
        <time>2020-02-23T11:19:42Z</time>
      </trkpt>
      <trkpt lat="42.93001" lon="0.7412">
        <ele>1720.3</ele>
        <time>2020-02-23T11:19:43Z</time>
      </trkpt>
      <trkpt lat="42.92998" lon="0.74118">
        <ele>1719.9</ele>
        <time>2020-02-23T11:19:44Z</time>
      </trkpt>
      <trkpt lat="42.92998" lon="0.74118">
        <ele>1719.9</ele>
        <time>2020-02-23T11:19:45Z</time>
      </trkpt>
      <trkpt lat="42.92998" lon="0.74118">
        <ele>1719.9</ele>
        <time>2020-02-23T11:19:46Z</time>
      </trkpt>
      <trkpt lat="42.92998" lon="0.74118">
        <ele>1719.9</ele>
        <time>2020-02-23T11:19:47Z</time>
      </trkpt>
      <trkpt lat="42.92997" lon="0.74116">
        <ele>1719.8</ele>
        <time>2020-02-23T11:19:48Z</time>
      </trkpt>
      <trkpt lat="42.92997" lon="0.74116">
        <ele>1719.8</ele>
        <time>2020-02-23T11:19:49Z</time>
      </trkpt>
      <trkpt lat="42.92997" lon="0.74116">
        <ele>1719.8</ele>
        <time>2020-02-23T11:19:50Z</time>
      </trkpt>
      <trkpt lat="42.92994" lon="0.74114">
        <ele>1719.6</ele>
        <time>2020-02-23T11:19:51Z</time>
      </trkpt>
      <trkpt lat="42.92994" lon="0.74114">
        <ele>1719.6</ele>
        <time>2020-02-23T11:19:52Z</time>
      </trkpt>
      <trkpt lat="42.92994" lon="0.74114">
        <ele>1719.6</ele>
        <time>2020-02-23T11:19:53Z</time>
      </trkpt>
      <trkpt lat="42.92992" lon="0.74114">
        <ele>1719.4</ele>
        <time>2020-02-23T11:19:54Z</time>
      </trkpt>
      <trkpt lat="42.92992" lon="0.74114">
        <ele>1719.4</ele>
        <time>2020-02-23T11:19:55Z</time>
      </trkpt>
      <trkpt lat="42.92992" lon="0.74114">
        <ele>1719.4</ele>
        <time>2020-02-23T11:19:56Z</time>
      </trkpt>
      <trkpt lat="42.9299" lon="0.74113">
        <ele>1719.2</ele>
        <time>2020-02-23T11:19:57Z</time>
      </trkpt>
      <trkpt lat="42.9299" lon="0.74113">
        <ele>1719.2</ele>
        <time>2020-02-23T11:19:58Z</time>
      </trkpt>
      <trkpt lat="42.92988" lon="0.74112">
        <ele>1719</ele>
        <time>2020-02-23T11:19:59Z</time>
      </trkpt>
      <trkpt lat="42.92988" lon="0.74112">
        <ele>1719</ele>
        <time>2020-02-23T11:20:00Z</time>
      </trkpt>
      <trkpt lat="42.92988" lon="0.74112">
        <ele>1719</ele>
        <time>2020-02-23T11:20:01Z</time>
      </trkpt>
      <trkpt lat="42.92988" lon="0.74112">
        <ele>1719</ele>
        <time>2020-02-23T11:20:02Z</time>
      </trkpt>
      <trkpt lat="42.92986" lon="0.74111">
        <ele>1718.8</ele>
        <time>2020-02-23T11:20:03Z</time>
      </trkpt>
      <trkpt lat="42.92986" lon="0.74111">
        <ele>1718.8</ele>
        <time>2020-02-23T11:20:04Z</time>
      </trkpt>
      <trkpt lat="42.92986" lon="0.74111">
        <ele>1718.8</ele>
        <time>2020-02-23T11:20:05Z</time>
      </trkpt>
      <trkpt lat="42.92986" lon="0.74111">
        <ele>1718.8</ele>
        <time>2020-02-23T11:20:06Z</time>
      </trkpt>
      <trkpt lat="42.92986" lon="0.74111">
        <ele>1718.8</ele>
        <time>2020-02-23T11:20:07Z</time>
      </trkpt>
      <trkpt lat="42.92983" lon="0.7411">
        <ele>1718.7</ele>
        <time>2020-02-23T11:20:08Z</time>
      </trkpt>
      <trkpt lat="42.92983" lon="0.7411">
        <ele>1718.7</ele>
        <time>2020-02-23T11:20:09Z</time>
      </trkpt>
      <trkpt lat="42.92981" lon="0.74109">
        <ele>1718.4</ele>
        <time>2020-02-23T11:20:10Z</time>
      </trkpt>
      <trkpt lat="42.92981" lon="0.74109">
        <ele>1718.4</ele>
        <time>2020-02-23T11:20:11Z</time>
      </trkpt>
      <trkpt lat="42.92981" lon="0.74109">
        <ele>1718.4</ele>
        <time>2020-02-23T11:20:12Z</time>
      </trkpt>
      <trkpt lat="42.92978" lon="0.74108">
        <ele>1718.3</ele>
        <time>2020-02-23T11:20:13Z</time>
      </trkpt>
      <trkpt lat="42.92978" lon="0.74108">
        <ele>1718.3</ele>
        <time>2020-02-23T11:20:14Z</time>
      </trkpt>
      <trkpt lat="42.92978" lon="0.74108">
        <ele>1718.3</ele>
        <time>2020-02-23T11:20:15Z</time>
      </trkpt>
      <trkpt lat="42.92977" lon="0.74106">
        <ele>1718.2</ele>
        <time>2020-02-23T11:20:16Z</time>
      </trkpt>
      <trkpt lat="42.92977" lon="0.74106">
        <ele>1718.2</ele>
        <time>2020-02-23T11:20:17Z</time>
      </trkpt>
      <trkpt lat="42.92977" lon="0.74106">
        <ele>1718.2</ele>
        <time>2020-02-23T11:20:18Z</time>
      </trkpt>
      <trkpt lat="42.92976" lon="0.74104">
        <ele>1718.1</ele>
        <time>2020-02-23T11:20:19Z</time>
      </trkpt>
      <trkpt lat="42.92976" lon="0.74104">
        <ele>1718.1</ele>
        <time>2020-02-23T11:20:20Z</time>
      </trkpt>
      <trkpt lat="42.92974" lon="0.74101">
        <ele>1717.9</ele>
        <time>2020-02-23T11:20:21Z</time>
      </trkpt>
      <trkpt lat="42.92974" lon="0.74101">
        <ele>1717.9</ele>
        <time>2020-02-23T11:20:22Z</time>
      </trkpt>
      <trkpt lat="42.92974" lon="0.74101">
        <ele>1717.9</ele>
        <time>2020-02-23T11:20:23Z</time>
      </trkpt>
      <trkpt lat="42.92974" lon="0.74101">
        <ele>1717.9</ele>
        <time>2020-02-23T11:20:24Z</time>
      </trkpt>
      <trkpt lat="42.92972" lon="0.741">
        <ele>1717.9</ele>
        <time>2020-02-23T11:20:25Z</time>
      </trkpt>
      <trkpt lat="42.92969" lon="0.74098">
        <ele>1717.9</ele>
        <time>2020-02-23T11:20:26Z</time>
      </trkpt>
      <trkpt lat="42.92969" lon="0.74098">
        <ele>1717.9</ele>
        <time>2020-02-23T11:20:27Z</time>
      </trkpt>
      <trkpt lat="42.92969" lon="0.74098">
        <ele>1717.9</ele>
        <time>2020-02-23T11:20:28Z</time>
      </trkpt>
      <trkpt lat="42.92967" lon="0.74097">
        <ele>1717.9</ele>
        <time>2020-02-23T11:20:29Z</time>
      </trkpt>
      <trkpt lat="42.92967" lon="0.74097">
        <ele>1717.9</ele>
        <time>2020-02-23T11:20:30Z</time>
      </trkpt>
      <trkpt lat="42.92967" lon="0.74097">
        <ele>1717.9</ele>
        <time>2020-02-23T11:20:31Z</time>
      </trkpt>
      <trkpt lat="42.92966" lon="0.74096">
        <ele>1718</ele>
        <time>2020-02-23T11:20:32Z</time>
      </trkpt>
      <trkpt lat="42.92966" lon="0.74096">
        <ele>1718</ele>
        <time>2020-02-23T11:20:33Z</time>
      </trkpt>
      <trkpt lat="42.92964" lon="0.74094">
        <ele>1718</ele>
        <time>2020-02-23T11:20:34Z</time>
      </trkpt>
      <trkpt lat="42.92964" lon="0.74094">
        <ele>1718</ele>
        <time>2020-02-23T11:20:35Z</time>
      </trkpt>
      <trkpt lat="42.92964" lon="0.74094">
        <ele>1718</ele>
        <time>2020-02-23T11:20:36Z</time>
      </trkpt>
      <trkpt lat="42.92962" lon="0.74093">
        <ele>1717.7</ele>
        <time>2020-02-23T11:20:37Z</time>
      </trkpt>
      <trkpt lat="42.92962" lon="0.74093">
        <ele>1717.7</ele>
        <time>2020-02-23T11:20:38Z</time>
      </trkpt>
      <trkpt lat="42.92962" lon="0.74093">
        <ele>1717.7</ele>
        <time>2020-02-23T11:20:39Z</time>
      </trkpt>
      <trkpt lat="42.9296" lon="0.74091">
        <ele>1717.4</ele>
        <time>2020-02-23T11:20:40Z</time>
      </trkpt>
      <trkpt lat="42.9296" lon="0.74091">
        <ele>1717.4</ele>
        <time>2020-02-23T11:20:41Z</time>
      </trkpt>
      <trkpt lat="42.92958" lon="0.7409">
        <ele>1717.2</ele>
        <time>2020-02-23T11:20:42Z</time>
      </trkpt>
      <trkpt lat="42.92958" lon="0.7409">
        <ele>1717.2</ele>
        <time>2020-02-23T11:20:43Z</time>
      </trkpt>
      <trkpt lat="42.92958" lon="0.7409">
        <ele>1717.2</ele>
        <time>2020-02-23T11:20:44Z</time>
      </trkpt>
      <trkpt lat="42.92957" lon="0.74087">
        <ele>1716.9</ele>
        <time>2020-02-23T11:20:45Z</time>
      </trkpt>
      <trkpt lat="42.92957" lon="0.74087">
        <ele>1716.9</ele>
        <time>2020-02-23T11:20:46Z</time>
      </trkpt>
      <trkpt lat="42.92957" lon="0.74087">
        <ele>1716.9</ele>
        <time>2020-02-23T11:20:47Z</time>
      </trkpt>
      <trkpt lat="42.92955" lon="0.74085">
        <ele>1716.9</ele>
        <time>2020-02-23T11:20:48Z</time>
      </trkpt>
      <trkpt lat="42.92954" lon="0.74082">
        <ele>1716.9</ele>
        <time>2020-02-23T11:20:49Z</time>
      </trkpt>
      <trkpt lat="42.92954" lon="0.74082">
        <ele>1716.9</ele>
        <time>2020-02-23T11:20:50Z</time>
      </trkpt>
      <trkpt lat="42.92953" lon="0.7408">
        <ele>1716.9</ele>
        <time>2020-02-23T11:20:51Z</time>
      </trkpt>
      <trkpt lat="42.92953" lon="0.7408">
        <ele>1716.9</ele>
        <time>2020-02-23T11:20:52Z</time>
      </trkpt>
      <trkpt lat="42.92953" lon="0.7408">
        <ele>1716.9</ele>
        <time>2020-02-23T11:20:53Z</time>
      </trkpt>
      <trkpt lat="42.92952" lon="0.74078">
        <ele>1717</ele>
        <time>2020-02-23T11:20:54Z</time>
      </trkpt>
      <trkpt lat="42.92952" lon="0.74078">
        <ele>1717</ele>
        <time>2020-02-23T11:20:55Z</time>
      </trkpt>
      <trkpt lat="42.92952" lon="0.74078">
        <ele>1717</ele>
        <time>2020-02-23T11:20:56Z</time>
      </trkpt>
      <trkpt lat="42.92952" lon="0.74078">
        <ele>1717</ele>
        <time>2020-02-23T11:20:57Z</time>
      </trkpt>
      <trkpt lat="42.92952" lon="0.74078">
        <ele>1717</ele>
        <time>2020-02-23T11:20:58Z</time>
      </trkpt>
      <trkpt lat="42.92949" lon="0.74075">
        <ele>1716.9</ele>
        <time>2020-02-23T11:20:59Z</time>
      </trkpt>
      <trkpt lat="42.92949" lon="0.74075">
        <ele>1716.9</ele>
        <time>2020-02-23T11:21:00Z</time>
      </trkpt>
      <trkpt lat="42.92948" lon="0.74072">
        <ele>1716.7</ele>
        <time>2020-02-23T11:21:01Z</time>
      </trkpt>
      <trkpt lat="42.92948" lon="0.74072">
        <ele>1716.7</ele>
        <time>2020-02-23T11:21:02Z</time>
      </trkpt>
      <trkpt lat="42.92948" lon="0.74072">
        <ele>1716.7</ele>
        <time>2020-02-23T11:21:03Z</time>
      </trkpt>
      <trkpt lat="42.92948" lon="0.74072">
        <ele>1716.7</ele>
        <time>2020-02-23T11:21:04Z</time>
      </trkpt>
      <trkpt lat="42.92947" lon="0.74069">
        <ele>1716.5</ele>
        <time>2020-02-23T11:21:05Z</time>
      </trkpt>
      <trkpt lat="42.92947" lon="0.74069">
        <ele>1716.5</ele>
        <time>2020-02-23T11:21:06Z</time>
      </trkpt>
      <trkpt lat="42.92944" lon="0.74067">
        <ele>1716.2</ele>
        <time>2020-02-23T11:21:07Z</time>
      </trkpt>
      <trkpt lat="42.92944" lon="0.74067">
        <ele>1716.2</ele>
        <time>2020-02-23T11:21:08Z</time>
      </trkpt>
      <trkpt lat="42.92944" lon="0.74067">
        <ele>1716.2</ele>
        <time>2020-02-23T11:21:09Z</time>
      </trkpt>
      <trkpt lat="42.92944" lon="0.74067">
        <ele>1716.2</ele>
        <time>2020-02-23T11:21:10Z</time>
      </trkpt>
      <trkpt lat="42.92941" lon="0.74065">
        <ele>1716.3</ele>
        <time>2020-02-23T11:21:11Z</time>
      </trkpt>
      <trkpt lat="42.92941" lon="0.74065">
        <ele>1716.3</ele>
        <time>2020-02-23T11:21:12Z</time>
      </trkpt>
      <trkpt lat="42.92939" lon="0.74064">
        <ele>1717.6</ele>
        <time>2020-02-23T11:21:13Z</time>
      </trkpt>
      <trkpt lat="42.92939" lon="0.74064">
        <ele>1717.6</ele>
        <time>2020-02-23T11:21:14Z</time>
      </trkpt>
      <trkpt lat="42.92937" lon="0.74063">
        <ele>1716.9</ele>
        <time>2020-02-23T11:21:15Z</time>
      </trkpt>
      <trkpt lat="42.92937" lon="0.74063">
        <ele>1716.9</ele>
        <time>2020-02-23T11:21:16Z</time>
      </trkpt>
      <trkpt lat="42.92937" lon="0.74063">
        <ele>1716.9</ele>
        <time>2020-02-23T11:21:17Z</time>
      </trkpt>
      <trkpt lat="42.92936" lon="0.7406">
        <ele>1718.1</ele>
        <time>2020-02-23T11:21:18Z</time>
      </trkpt>
      <trkpt lat="42.92936" lon="0.7406">
        <ele>1718.1</ele>
        <time>2020-02-23T11:21:19Z</time>
      </trkpt>
      <trkpt lat="42.92936" lon="0.7406">
        <ele>1718.1</ele>
        <time>2020-02-23T11:21:20Z</time>
      </trkpt>
      <trkpt lat="42.92934" lon="0.74058">
        <ele>1717.4</ele>
        <time>2020-02-23T11:21:21Z</time>
      </trkpt>
      <trkpt lat="42.92934" lon="0.74058">
        <ele>1717.4</ele>
        <time>2020-02-23T11:21:22Z</time>
      </trkpt>
      <trkpt lat="42.92934" lon="0.74058">
        <ele>1717.4</ele>
        <time>2020-02-23T11:21:23Z</time>
      </trkpt>
      <trkpt lat="42.92934" lon="0.74058">
        <ele>1717.4</ele>
        <time>2020-02-23T11:21:24Z</time>
      </trkpt>
      <trkpt lat="42.92932" lon="0.74056">
        <ele>1718.6</ele>
        <time>2020-02-23T11:21:25Z</time>
      </trkpt>
      <trkpt lat="42.92932" lon="0.74056">
        <ele>1718.6</ele>
        <time>2020-02-23T11:21:26Z</time>
      </trkpt>
      <trkpt lat="42.92932" lon="0.74056">
        <ele>1718.6</ele>
        <time>2020-02-23T11:21:27Z</time>
      </trkpt>
      <trkpt lat="42.9293" lon="0.74054">
        <ele>1718.9</ele>
        <time>2020-02-23T11:21:28Z</time>
      </trkpt>
      <trkpt lat="42.9293" lon="0.74054">
        <ele>1718.9</ele>
        <time>2020-02-23T11:21:29Z</time>
      </trkpt>
      <trkpt lat="42.9293" lon="0.74054">
        <ele>1718.9</ele>
        <time>2020-02-23T11:21:30Z</time>
      </trkpt>
      <trkpt lat="42.9293" lon="0.74054">
        <ele>1718.9</ele>
        <time>2020-02-23T11:21:31Z</time>
      </trkpt>
      <trkpt lat="42.92928" lon="0.74054">
        <ele>1720</ele>
        <time>2020-02-23T11:21:32Z</time>
      </trkpt>
      <trkpt lat="42.92928" lon="0.74054">
        <ele>1720</ele>
        <time>2020-02-23T11:21:33Z</time>
      </trkpt>
      <trkpt lat="42.92928" lon="0.74054">
        <ele>1720</ele>
        <time>2020-02-23T11:21:34Z</time>
      </trkpt>
      <trkpt lat="42.92925" lon="0.74055">
        <ele>1721.9</ele>
        <time>2020-02-23T11:21:35Z</time>
      </trkpt>
      <trkpt lat="42.92925" lon="0.74055">
        <ele>1721.9</ele>
        <time>2020-02-23T11:21:36Z</time>
      </trkpt>
      <trkpt lat="42.92922" lon="0.74055">
        <ele>1721.9</ele>
        <time>2020-02-23T11:21:37Z</time>
      </trkpt>
      <trkpt lat="42.92922" lon="0.74055">
        <ele>1721.9</ele>
        <time>2020-02-23T11:21:38Z</time>
      </trkpt>
      <trkpt lat="42.92922" lon="0.74055">
        <ele>1721.9</ele>
        <time>2020-02-23T11:21:39Z</time>
      </trkpt>
      <trkpt lat="42.92922" lon="0.74055">
        <ele>1721.9</ele>
        <time>2020-02-23T11:21:40Z</time>
      </trkpt>
      <trkpt lat="42.92922" lon="0.74055">
        <ele>1721.9</ele>
        <time>2020-02-23T11:21:41Z</time>
      </trkpt>
      <trkpt lat="42.9292" lon="0.74055">
        <ele>1722.3</ele>
        <time>2020-02-23T11:21:42Z</time>
      </trkpt>
      <trkpt lat="42.9292" lon="0.74055">
        <ele>1722.3</ele>
        <time>2020-02-23T11:21:43Z</time>
      </trkpt>
      <trkpt lat="42.9292" lon="0.74055">
        <ele>1722.3</ele>
        <time>2020-02-23T11:21:44Z</time>
      </trkpt>
      <trkpt lat="42.92918" lon="0.74054">
        <ele>1723.5</ele>
        <time>2020-02-23T11:21:45Z</time>
      </trkpt>
      <trkpt lat="42.92918" lon="0.74054">
        <ele>1723.5</ele>
        <time>2020-02-23T11:21:46Z</time>
      </trkpt>
      <trkpt lat="42.92916" lon="0.74054">
        <ele>1723.5</ele>
        <time>2020-02-23T11:21:47Z</time>
      </trkpt>
      <trkpt lat="42.92916" lon="0.74054">
        <ele>1723.5</ele>
        <time>2020-02-23T11:21:48Z</time>
      </trkpt>
      <trkpt lat="42.92916" lon="0.74054">
        <ele>1723.5</ele>
        <time>2020-02-23T11:21:49Z</time>
      </trkpt>
      <trkpt lat="42.92914" lon="0.74054">
        <ele>1724.6</ele>
        <time>2020-02-23T11:21:50Z</time>
      </trkpt>
      <trkpt lat="42.92914" lon="0.74054">
        <ele>1724.6</ele>
        <time>2020-02-23T11:21:51Z</time>
      </trkpt>
      <trkpt lat="42.92914" lon="0.74054">
        <ele>1724.6</ele>
        <time>2020-02-23T11:21:52Z</time>
      </trkpt>
      <trkpt lat="42.92912" lon="0.74054">
        <ele>1725.7</ele>
        <time>2020-02-23T11:21:53Z</time>
      </trkpt>
      <trkpt lat="42.92912" lon="0.74054">
        <ele>1725.7</ele>
        <time>2020-02-23T11:21:54Z</time>
      </trkpt>
      <trkpt lat="42.92912" lon="0.74054">
        <ele>1725.7</ele>
        <time>2020-02-23T11:21:55Z</time>
      </trkpt>
      <trkpt lat="42.92912" lon="0.74054">
        <ele>1725.7</ele>
        <time>2020-02-23T11:21:56Z</time>
      </trkpt>
      <trkpt lat="42.9291" lon="0.74054">
        <ele>1725.7</ele>
        <time>2020-02-23T11:21:57Z</time>
      </trkpt>
      <trkpt lat="42.9291" lon="0.74054">
        <ele>1725.7</ele>
        <time>2020-02-23T11:21:58Z</time>
      </trkpt>
      <trkpt lat="42.9291" lon="0.74054">
        <ele>1725.7</ele>
        <time>2020-02-23T11:21:59Z</time>
      </trkpt>
      <trkpt lat="42.9291" lon="0.74054">
        <ele>1725.7</ele>
        <time>2020-02-23T11:22:00Z</time>
      </trkpt>
      <trkpt lat="42.9291" lon="0.74054">
        <ele>1725.7</ele>
        <time>2020-02-23T11:22:01Z</time>
      </trkpt>
      <trkpt lat="42.9291" lon="0.74054">
        <ele>1725.7</ele>
        <time>2020-02-23T11:22:02Z</time>
      </trkpt>
      <trkpt lat="42.9291" lon="0.74054">
        <ele>1725.7</ele>
        <time>2020-02-23T11:22:03Z</time>
      </trkpt>
      <trkpt lat="42.92908" lon="0.74054">
        <ele>1726.7</ele>
        <time>2020-02-23T11:22:04Z</time>
      </trkpt>
      <trkpt lat="42.92908" lon="0.74054">
        <ele>1726.7</ele>
        <time>2020-02-23T11:22:05Z</time>
      </trkpt>
      <trkpt lat="42.92908" lon="0.74054">
        <ele>1726.7</ele>
        <time>2020-02-23T11:22:06Z</time>
      </trkpt>
      <trkpt lat="42.92908" lon="0.74054">
        <ele>1726.7</ele>
        <time>2020-02-23T11:22:07Z</time>
      </trkpt>
      <trkpt lat="42.92908" lon="0.74054">
        <ele>1726.7</ele>
        <time>2020-02-23T11:22:08Z</time>
      </trkpt>
      <trkpt lat="42.92908" lon="0.74054">
        <ele>1726.7</ele>
        <time>2020-02-23T11:22:09Z</time>
      </trkpt>
      <trkpt lat="42.92907" lon="0.74052">
        <ele>1726.7</ele>
        <time>2020-02-23T11:22:10Z</time>
      </trkpt>
      <trkpt lat="42.92907" lon="0.74052">
        <ele>1726.7</ele>
        <time>2020-02-23T11:22:11Z</time>
      </trkpt>
      <trkpt lat="42.92907" lon="0.74052">
        <ele>1726.7</ele>
        <time>2020-02-23T11:22:12Z</time>
      </trkpt>
      <trkpt lat="42.92905" lon="0.7405">
        <ele>1726.8</ele>
        <time>2020-02-23T11:22:13Z</time>
      </trkpt>
      <trkpt lat="42.92905" lon="0.7405">
        <ele>1726.8</ele>
        <time>2020-02-23T11:22:14Z</time>
      </trkpt>
      <trkpt lat="42.92903" lon="0.74049">
        <ele>1727.6</ele>
        <time>2020-02-23T11:22:15Z</time>
      </trkpt>
      <trkpt lat="42.92903" lon="0.74049">
        <ele>1727.6</ele>
        <time>2020-02-23T11:22:16Z</time>
      </trkpt>
      <trkpt lat="42.92901" lon="0.74048">
        <ele>1727.6</ele>
        <time>2020-02-23T11:22:17Z</time>
      </trkpt>
      <trkpt lat="42.92901" lon="0.74048">
        <ele>1727.6</ele>
        <time>2020-02-23T11:22:18Z</time>
      </trkpt>
      <trkpt lat="42.92898" lon="0.74048">
        <ele>1728.3</ele>
        <time>2020-02-23T11:22:19Z</time>
      </trkpt>
      <trkpt lat="42.92898" lon="0.74048">
        <ele>1728.3</ele>
        <time>2020-02-23T11:22:20Z</time>
      </trkpt>
      <trkpt lat="42.92896" lon="0.74047">
        <ele>1729.1</ele>
        <time>2020-02-23T11:22:21Z</time>
      </trkpt>
      <trkpt lat="42.92896" lon="0.74047">
        <ele>1729.1</ele>
        <time>2020-02-23T11:22:22Z</time>
      </trkpt>
      <trkpt lat="42.92896" lon="0.74047">
        <ele>1729.1</ele>
        <time>2020-02-23T11:22:23Z</time>
      </trkpt>
      <trkpt lat="42.92894" lon="0.74047">
        <ele>1729.1</ele>
        <time>2020-02-23T11:22:24Z</time>
      </trkpt>
      <trkpt lat="42.92894" lon="0.74047">
        <ele>1729.1</ele>
        <time>2020-02-23T11:22:25Z</time>
      </trkpt>
      <trkpt lat="42.92894" lon="0.74047">
        <ele>1729.1</ele>
        <time>2020-02-23T11:22:26Z</time>
      </trkpt>
      <trkpt lat="42.92892" lon="0.74046">
        <ele>1729</ele>
        <time>2020-02-23T11:22:27Z</time>
      </trkpt>
      <trkpt lat="42.92892" lon="0.74046">
        <ele>1729</ele>
        <time>2020-02-23T11:22:28Z</time>
      </trkpt>
      <trkpt lat="42.92892" lon="0.74046">
        <ele>1729</ele>
        <time>2020-02-23T11:22:29Z</time>
      </trkpt>
      <trkpt lat="42.92892" lon="0.74046">
        <ele>1729</ele>
        <time>2020-02-23T11:22:30Z</time>
      </trkpt>
      <trkpt lat="42.92892" lon="0.74046">
        <ele>1729</ele>
        <time>2020-02-23T11:22:31Z</time>
      </trkpt>
      <trkpt lat="42.92889" lon="0.74046">
        <ele>1729.8</ele>
        <time>2020-02-23T11:22:32Z</time>
      </trkpt>
      <trkpt lat="42.92889" lon="0.74046">
        <ele>1729.8</ele>
        <time>2020-02-23T11:22:33Z</time>
      </trkpt>
      <trkpt lat="42.92887" lon="0.74045">
        <ele>1729.8</ele>
        <time>2020-02-23T11:22:34Z</time>
      </trkpt>
      <trkpt lat="42.92887" lon="0.74045">
        <ele>1729.8</ele>
        <time>2020-02-23T11:22:35Z</time>
      </trkpt>
      <trkpt lat="42.92887" lon="0.74045">
        <ele>1729.8</ele>
        <time>2020-02-23T11:22:36Z</time>
      </trkpt>
      <trkpt lat="42.92885" lon="0.74045">
        <ele>1730.5</ele>
        <time>2020-02-23T11:22:37Z</time>
      </trkpt>
      <trkpt lat="42.92885" lon="0.74045">
        <ele>1730.5</ele>
        <time>2020-02-23T11:22:38Z</time>
      </trkpt>
      <trkpt lat="42.92885" lon="0.74045">
        <ele>1730.5</ele>
        <time>2020-02-23T11:22:39Z</time>
      </trkpt>
      <trkpt lat="42.92885" lon="0.74045">
        <ele>1730.5</ele>
        <time>2020-02-23T11:22:40Z</time>
      </trkpt>
      <trkpt lat="42.92883" lon="0.74044">
        <ele>1731.1</ele>
        <time>2020-02-23T11:22:41Z</time>
      </trkpt>
      <trkpt lat="42.92883" lon="0.74044">
        <ele>1731.1</ele>
        <time>2020-02-23T11:22:42Z</time>
      </trkpt>
      <trkpt lat="42.92882" lon="0.74042">
        <ele>1731.1</ele>
        <time>2020-02-23T11:22:43Z</time>
      </trkpt>
      <trkpt lat="42.92882" lon="0.74042">
        <ele>1731.1</ele>
        <time>2020-02-23T11:22:44Z</time>
      </trkpt>
      <trkpt lat="42.92882" lon="0.74042">
        <ele>1731.1</ele>
        <time>2020-02-23T11:22:45Z</time>
      </trkpt>
      <trkpt lat="42.92882" lon="0.74042">
        <ele>1731.1</ele>
        <time>2020-02-23T11:22:46Z</time>
      </trkpt>
      <trkpt lat="42.9288" lon="0.7404">
        <ele>1730.8</ele>
        <time>2020-02-23T11:22:47Z</time>
      </trkpt>
      <trkpt lat="42.9288" lon="0.7404">
        <ele>1730.8</ele>
        <time>2020-02-23T11:22:48Z</time>
      </trkpt>
      <trkpt lat="42.9288" lon="0.7404">
        <ele>1730.8</ele>
        <time>2020-02-23T11:22:49Z</time>
      </trkpt>
      <trkpt lat="42.9288" lon="0.7404">
        <ele>1730.8</ele>
        <time>2020-02-23T11:22:50Z</time>
      </trkpt>
      <trkpt lat="42.92878" lon="0.74038">
        <ele>1730.8</ele>
        <time>2020-02-23T11:22:51Z</time>
      </trkpt>
      <trkpt lat="42.92878" lon="0.74038">
        <ele>1730.8</ele>
        <time>2020-02-23T11:22:52Z</time>
      </trkpt>
      <trkpt lat="42.92878" lon="0.74038">
        <ele>1730.8</ele>
        <time>2020-02-23T11:22:53Z</time>
      </trkpt>
      <trkpt lat="42.92877" lon="0.74035">
        <ele>1730.4</ele>
        <time>2020-02-23T11:22:54Z</time>
      </trkpt>
      <trkpt lat="42.92877" lon="0.74035">
        <ele>1730.4</ele>
        <time>2020-02-23T11:22:55Z</time>
      </trkpt>
      <trkpt lat="42.92877" lon="0.74035">
        <ele>1730.4</ele>
        <time>2020-02-23T11:22:56Z</time>
      </trkpt>
      <trkpt lat="42.92876" lon="0.74032">
        <ele>1729.5</ele>
        <time>2020-02-23T11:22:57Z</time>
      </trkpt>
      <trkpt lat="42.92876" lon="0.74032">
        <ele>1729.5</ele>
        <time>2020-02-23T11:22:58Z</time>
      </trkpt>
      <trkpt lat="42.92876" lon="0.74032">
        <ele>1729.5</ele>
        <time>2020-02-23T11:22:59Z</time>
      </trkpt>
      <trkpt lat="42.92874" lon="0.7403">
        <ele>1729.9</ele>
        <time>2020-02-23T11:23:00Z</time>
      </trkpt>
      <trkpt lat="42.92874" lon="0.7403">
        <ele>1729.9</ele>
        <time>2020-02-23T11:23:01Z</time>
      </trkpt>
      <trkpt lat="42.92872" lon="0.74028">
        <ele>1729</ele>
        <time>2020-02-23T11:23:02Z</time>
      </trkpt>
      <trkpt lat="42.92872" lon="0.74028">
        <ele>1729</ele>
        <time>2020-02-23T11:23:03Z</time>
      </trkpt>
      <trkpt lat="42.92872" lon="0.74028">
        <ele>1729</ele>
        <time>2020-02-23T11:23:04Z</time>
      </trkpt>
      <trkpt lat="42.92872" lon="0.74028">
        <ele>1729</ele>
        <time>2020-02-23T11:23:05Z</time>
      </trkpt>
      <trkpt lat="42.9287" lon="0.74027">
        <ele>1729.5</ele>
        <time>2020-02-23T11:23:06Z</time>
      </trkpt>
      <trkpt lat="42.9287" lon="0.74027">
        <ele>1729.5</ele>
        <time>2020-02-23T11:23:07Z</time>
      </trkpt>
      <trkpt lat="42.92868" lon="0.74025">
        <ele>1730.1</ele>
        <time>2020-02-23T11:23:08Z</time>
      </trkpt>
      <trkpt lat="42.92868" lon="0.74025">
        <ele>1730.1</ele>
        <time>2020-02-23T11:23:09Z</time>
      </trkpt>
      <trkpt lat="42.92868" lon="0.74025">
        <ele>1730.1</ele>
        <time>2020-02-23T11:23:10Z</time>
      </trkpt>
      <trkpt lat="42.92866" lon="0.74024">
        <ele>1729.1</ele>
        <time>2020-02-23T11:23:11Z</time>
      </trkpt>
      <trkpt lat="42.92866" lon="0.74024">
        <ele>1729.1</ele>
        <time>2020-02-23T11:23:12Z</time>
      </trkpt>
      <trkpt lat="42.92866" lon="0.74024">
        <ele>1729.1</ele>
        <time>2020-02-23T11:23:13Z</time>
      </trkpt>
      <trkpt lat="42.92864" lon="0.74023">
        <ele>1729.7</ele>
        <time>2020-02-23T11:23:14Z</time>
      </trkpt>
      <trkpt lat="42.92864" lon="0.74023">
        <ele>1729.7</ele>
        <time>2020-02-23T11:23:15Z</time>
      </trkpt>
      <trkpt lat="42.92864" lon="0.74023">
        <ele>1729.7</ele>
        <time>2020-02-23T11:23:16Z</time>
      </trkpt>
      <trkpt lat="42.92864" lon="0.74023">
        <ele>1729.7</ele>
        <time>2020-02-23T11:23:17Z</time>
      </trkpt>
      <trkpt lat="42.92861" lon="0.74023">
        <ele>1730.2</ele>
        <time>2020-02-23T11:23:18Z</time>
      </trkpt>
      <trkpt lat="42.92861" lon="0.74023">
        <ele>1730.2</ele>
        <time>2020-02-23T11:23:19Z</time>
      </trkpt>
      <trkpt lat="42.92859" lon="0.74022">
        <ele>1730.2</ele>
        <time>2020-02-23T11:23:20Z</time>
      </trkpt>
      <trkpt lat="42.92859" lon="0.74022">
        <ele>1730.2</ele>
        <time>2020-02-23T11:23:21Z</time>
      </trkpt>
      <trkpt lat="42.92859" lon="0.74022">
        <ele>1730.2</ele>
        <time>2020-02-23T11:23:22Z</time>
      </trkpt>
      <trkpt lat="42.92857" lon="0.7402">
        <ele>1729.7</ele>
        <time>2020-02-23T11:23:23Z</time>
      </trkpt>
      <trkpt lat="42.92857" lon="0.7402">
        <ele>1729.7</ele>
        <time>2020-02-23T11:23:24Z</time>
      </trkpt>
      <trkpt lat="42.92857" lon="0.7402">
        <ele>1729.7</ele>
        <time>2020-02-23T11:23:25Z</time>
      </trkpt>
      <trkpt lat="42.92857" lon="0.7402">
        <ele>1729.7</ele>
        <time>2020-02-23T11:23:26Z</time>
      </trkpt>
      <trkpt lat="42.92856" lon="0.74018">
        <ele>1729.7</ele>
        <time>2020-02-23T11:23:27Z</time>
      </trkpt>
      <trkpt lat="42.92856" lon="0.74018">
        <ele>1729.7</ele>
        <time>2020-02-23T11:23:28Z</time>
      </trkpt>
      <trkpt lat="42.92856" lon="0.74018">
        <ele>1729.7</ele>
        <time>2020-02-23T11:23:29Z</time>
      </trkpt>
      <trkpt lat="42.92855" lon="0.74016">
        <ele>1729.3</ele>
        <time>2020-02-23T11:23:30Z</time>
      </trkpt>
      <trkpt lat="42.92855" lon="0.74016">
        <ele>1729.3</ele>
        <time>2020-02-23T11:23:31Z</time>
      </trkpt>
      <trkpt lat="42.92855" lon="0.74016">
        <ele>1729.3</ele>
        <time>2020-02-23T11:23:32Z</time>
      </trkpt>
      <trkpt lat="42.92855" lon="0.74016">
        <ele>1729.3</ele>
        <time>2020-02-23T11:23:33Z</time>
      </trkpt>
      <trkpt lat="42.92854" lon="0.74013">
        <ele>1729.3</ele>
        <time>2020-02-23T11:23:34Z</time>
      </trkpt>
      <trkpt lat="42.92854" lon="0.74013">
        <ele>1729.3</ele>
        <time>2020-02-23T11:23:35Z</time>
      </trkpt>
      <trkpt lat="42.92854" lon="0.74013">
        <ele>1729.3</ele>
        <time>2020-02-23T11:23:36Z</time>
      </trkpt>
      <trkpt lat="42.92853" lon="0.74011">
        <ele>1728.3</ele>
        <time>2020-02-23T11:23:37Z</time>
      </trkpt>
      <trkpt lat="42.92853" lon="0.74011">
        <ele>1728.3</ele>
        <time>2020-02-23T11:23:38Z</time>
      </trkpt>
      <trkpt lat="42.92853" lon="0.74011">
        <ele>1728.3</ele>
        <time>2020-02-23T11:23:39Z</time>
      </trkpt>
      <trkpt lat="42.92853" lon="0.74011">
        <ele>1728.3</ele>
        <time>2020-02-23T11:23:40Z</time>
      </trkpt>
      <trkpt lat="42.92852" lon="0.74008">
        <ele>1728.7</ele>
        <time>2020-02-23T11:23:41Z</time>
      </trkpt>
      <trkpt lat="42.92852" lon="0.74008">
        <ele>1728.7</ele>
        <time>2020-02-23T11:23:42Z</time>
      </trkpt>
      <trkpt lat="42.9285" lon="0.74005">
        <ele>1727.7</ele>
        <time>2020-02-23T11:23:43Z</time>
      </trkpt>
      <trkpt lat="42.9285" lon="0.74005">
        <ele>1727.7</ele>
        <time>2020-02-23T11:23:44Z</time>
      </trkpt>
      <trkpt lat="42.9285" lon="0.74005">
        <ele>1727.7</ele>
        <time>2020-02-23T11:23:45Z</time>
      </trkpt>
      <trkpt lat="42.9285" lon="0.74005">
        <ele>1727.7</ele>
        <time>2020-02-23T11:23:46Z</time>
      </trkpt>
      <trkpt lat="42.92849" lon="0.74001">
        <ele>1726.6</ele>
        <time>2020-02-23T11:23:47Z</time>
      </trkpt>
      <trkpt lat="42.92849" lon="0.74001">
        <ele>1726.6</ele>
        <time>2020-02-23T11:23:48Z</time>
      </trkpt>
      <trkpt lat="42.92849" lon="0.74001">
        <ele>1726.6</ele>
        <time>2020-02-23T11:23:49Z</time>
      </trkpt>
      <trkpt lat="42.92848" lon="0.73999">
        <ele>1726</ele>
        <time>2020-02-23T11:23:50Z</time>
      </trkpt>
      <trkpt lat="42.92848" lon="0.73999">
        <ele>1726</ele>
        <time>2020-02-23T11:23:51Z</time>
      </trkpt>
      <trkpt lat="42.92848" lon="0.73999">
        <ele>1726</ele>
        <time>2020-02-23T11:23:52Z</time>
      </trkpt>
      <trkpt lat="42.92848" lon="0.73999">
        <ele>1726</ele>
        <time>2020-02-23T11:23:53Z</time>
      </trkpt>
      <trkpt lat="42.92847" lon="0.73996">
        <ele>1726</ele>
        <time>2020-02-23T11:23:54Z</time>
      </trkpt>
      <trkpt lat="42.92847" lon="0.73996">
        <ele>1726</ele>
        <time>2020-02-23T11:23:55Z</time>
      </trkpt>
      <trkpt lat="42.92846" lon="0.73993">
        <ele>1725.5</ele>
        <time>2020-02-23T11:23:56Z</time>
      </trkpt>
      <trkpt lat="42.92846" lon="0.73993">
        <ele>1725.5</ele>
        <time>2020-02-23T11:23:57Z</time>
      </trkpt>
      <trkpt lat="42.92846" lon="0.73993">
        <ele>1725.5</ele>
        <time>2020-02-23T11:23:58Z</time>
      </trkpt>
      <trkpt lat="42.92844" lon="0.73992">
        <ele>1725.5</ele>
        <time>2020-02-23T11:23:59Z</time>
      </trkpt>
      <trkpt lat="42.92844" lon="0.73992">
        <ele>1725.5</ele>
        <time>2020-02-23T11:24:00Z</time>
      </trkpt>
      <trkpt lat="42.92844" lon="0.73992">
        <ele>1725.5</ele>
        <time>2020-02-23T11:24:01Z</time>
      </trkpt>
      <trkpt lat="42.92844" lon="0.73992">
        <ele>1725.5</ele>
        <time>2020-02-23T11:24:02Z</time>
      </trkpt>
      <trkpt lat="42.92844" lon="0.73992">
        <ele>1725.5</ele>
        <time>2020-02-23T11:24:03Z</time>
      </trkpt>
      <trkpt lat="42.92844" lon="0.73992">
        <ele>1725.5</ele>
        <time>2020-02-23T11:24:04Z</time>
      </trkpt>
      <trkpt lat="42.92843" lon="0.73989">
        <ele>1725.1</ele>
        <time>2020-02-23T11:24:05Z</time>
      </trkpt>
      <trkpt lat="42.92843" lon="0.73989">
        <ele>1725.1</ele>
        <time>2020-02-23T11:24:06Z</time>
      </trkpt>
      <trkpt lat="42.92842" lon="0.73986">
        <ele>1724.2</ele>
        <time>2020-02-23T11:24:07Z</time>
      </trkpt>
      <trkpt lat="42.92842" lon="0.73986">
        <ele>1724.2</ele>
        <time>2020-02-23T11:24:08Z</time>
      </trkpt>
      <trkpt lat="42.92842" lon="0.73986">
        <ele>1724.2</ele>
        <time>2020-02-23T11:24:09Z</time>
      </trkpt>
      <trkpt lat="42.92842" lon="0.73986">
        <ele>1724.2</ele>
        <time>2020-02-23T11:24:10Z</time>
      </trkpt>
      <trkpt lat="42.92841" lon="0.73983">
        <ele>1724.2</ele>
        <time>2020-02-23T11:24:11Z</time>
      </trkpt>
      <trkpt lat="42.92841" lon="0.73983">
        <ele>1724.2</ele>
        <time>2020-02-23T11:24:12Z</time>
      </trkpt>
      <trkpt lat="42.9284" lon="0.7398">
        <ele>1723.4</ele>
        <time>2020-02-23T11:24:13Z</time>
      </trkpt>
      <trkpt lat="42.9284" lon="0.7398">
        <ele>1723.4</ele>
        <time>2020-02-23T11:24:14Z</time>
      </trkpt>
      <trkpt lat="42.9284" lon="0.7398">
        <ele>1723.4</ele>
        <time>2020-02-23T11:24:15Z</time>
      </trkpt>
      <trkpt lat="42.9284" lon="0.7398">
        <ele>1723.4</ele>
        <time>2020-02-23T11:24:16Z</time>
      </trkpt>
      <trkpt lat="42.92839" lon="0.73978">
        <ele>1723.8</ele>
        <time>2020-02-23T11:24:17Z</time>
      </trkpt>
      <trkpt lat="42.92839" lon="0.73978">
        <ele>1723.8</ele>
        <time>2020-02-23T11:24:18Z</time>
      </trkpt>
      <trkpt lat="42.92839" lon="0.73978">
        <ele>1723.8</ele>
        <time>2020-02-23T11:24:19Z</time>
      </trkpt>
      <trkpt lat="42.92838" lon="0.73975">
        <ele>1722.9</ele>
        <time>2020-02-23T11:24:20Z</time>
      </trkpt>
      <trkpt lat="42.92838" lon="0.73975">
        <ele>1722.9</ele>
        <time>2020-02-23T11:24:21Z</time>
      </trkpt>
      <trkpt lat="42.92838" lon="0.73975">
        <ele>1722.9</ele>
        <time>2020-02-23T11:24:22Z</time>
      </trkpt>
      <trkpt lat="42.92837" lon="0.73972">
        <ele>1722.4</ele>
        <time>2020-02-23T11:24:23Z</time>
      </trkpt>
      <trkpt lat="42.92837" lon="0.73972">
        <ele>1722.4</ele>
        <time>2020-02-23T11:24:24Z</time>
      </trkpt>
      <trkpt lat="42.92837" lon="0.73972">
        <ele>1722.4</ele>
        <time>2020-02-23T11:24:25Z</time>
      </trkpt>
      <trkpt lat="42.92836" lon="0.7397">
        <ele>1722.4</ele>
        <time>2020-02-23T11:24:26Z</time>
      </trkpt>
      <trkpt lat="42.92836" lon="0.7397">
        <ele>1722.4</ele>
        <time>2020-02-23T11:24:27Z</time>
      </trkpt>
      <trkpt lat="42.92836" lon="0.7397">
        <ele>1722.4</ele>
        <time>2020-02-23T11:24:28Z</time>
      </trkpt>
      <trkpt lat="42.92834" lon="0.73968">
        <ele>1721.3</ele>
        <time>2020-02-23T11:24:29Z</time>
      </trkpt>
      <trkpt lat="42.92834" lon="0.73968">
        <ele>1721.3</ele>
        <time>2020-02-23T11:24:30Z</time>
      </trkpt>
      <trkpt lat="42.92834" lon="0.73968">
        <ele>1721.3</ele>
        <time>2020-02-23T11:24:31Z</time>
      </trkpt>
      <trkpt lat="42.92834" lon="0.73968">
        <ele>1721.3</ele>
        <time>2020-02-23T11:24:32Z</time>
      </trkpt>
      <trkpt lat="42.92834" lon="0.73968">
        <ele>1721.3</ele>
        <time>2020-02-23T11:24:33Z</time>
      </trkpt>
      <trkpt lat="42.92833" lon="0.73965">
        <ele>1721.7</ele>
        <time>2020-02-23T11:24:34Z</time>
      </trkpt>
      <trkpt lat="42.92833" lon="0.73965">
        <ele>1721.7</ele>
        <time>2020-02-23T11:24:35Z</time>
      </trkpt>
      <trkpt lat="42.92833" lon="0.73965">
        <ele>1721.7</ele>
        <time>2020-02-23T11:24:36Z</time>
      </trkpt>
      <trkpt lat="42.92833" lon="0.73965">
        <ele>1721.7</ele>
        <time>2020-02-23T11:24:37Z</time>
      </trkpt>
      <trkpt lat="42.92833" lon="0.73965">
        <ele>1721.7</ele>
        <time>2020-02-23T11:24:38Z</time>
      </trkpt>
      <trkpt lat="42.92833" lon="0.73965">
        <ele>1721.7</ele>
        <time>2020-02-23T11:24:39Z</time>
      </trkpt>
      <trkpt lat="42.92833" lon="0.73965">
        <ele>1721.7</ele>
        <time>2020-02-23T11:24:40Z</time>
      </trkpt>
      <trkpt lat="42.92831" lon="0.73967">
        <ele>1721.7</ele>
        <time>2020-02-23T11:24:41Z</time>
      </trkpt>
      <trkpt lat="42.92831" lon="0.73967">
        <ele>1721.7</ele>
        <time>2020-02-23T11:24:42Z</time>
      </trkpt>
      <trkpt lat="42.92831" lon="0.73967">
        <ele>1721.7</ele>
        <time>2020-02-23T11:24:43Z</time>
      </trkpt>
      <trkpt lat="42.92831" lon="0.73967">
        <ele>1721.7</ele>
        <time>2020-02-23T11:24:44Z</time>
      </trkpt>
      <trkpt lat="42.92831" lon="0.73967">
        <ele>1721.7</ele>
        <time>2020-02-23T11:24:45Z</time>
      </trkpt>
      <trkpt lat="42.92831" lon="0.73967">
        <ele>1721.7</ele>
        <time>2020-02-23T11:24:46Z</time>
      </trkpt>
      <trkpt lat="42.92831" lon="0.73967">
        <ele>1721.7</ele>
        <time>2020-02-23T11:24:47Z</time>
      </trkpt>
      <trkpt lat="42.92831" lon="0.73967">
        <ele>1721.7</ele>
        <time>2020-02-23T11:24:48Z</time>
      </trkpt>
      <trkpt lat="42.92831" lon="0.73967">
        <ele>1721.7</ele>
        <time>2020-02-23T11:24:49Z</time>
      </trkpt>
      <trkpt lat="42.92831" lon="0.73967">
        <ele>1721.7</ele>
        <time>2020-02-23T11:24:50Z</time>
      </trkpt>
      <trkpt lat="42.92831" lon="0.73967">
        <ele>1721.7</ele>
        <time>2020-02-23T11:24:51Z</time>
      </trkpt>
      <trkpt lat="42.92831" lon="0.73967">
        <ele>1721.7</ele>
        <time>2020-02-23T11:24:52Z</time>
      </trkpt>
      <trkpt lat="42.92831" lon="0.73967">
        <ele>1721.7</ele>
        <time>2020-02-23T11:24:53Z</time>
      </trkpt>
      <trkpt lat="42.92831" lon="0.73967">
        <ele>1721.7</ele>
        <time>2020-02-23T11:24:54Z</time>
      </trkpt>
      <trkpt lat="42.92831" lon="0.73967">
        <ele>1721.7</ele>
        <time>2020-02-23T11:24:55Z</time>
      </trkpt>
      <trkpt lat="42.92831" lon="0.73967">
        <ele>1721.7</ele>
        <time>2020-02-23T11:24:56Z</time>
      </trkpt>
      <trkpt lat="42.92831" lon="0.73967">
        <ele>1721.8</ele>
        <time>2020-02-23T11:24:57Z</time>
      </trkpt>
      <trkpt lat="42.92831" lon="0.73967">
        <ele>1722</ele>
        <time>2020-02-23T11:24:58Z</time>
      </trkpt>
      <trkpt lat="42.92831" lon="0.73967">
        <ele>1722.1</ele>
        <time>2020-02-23T11:24:59Z</time>
      </trkpt>
      <trkpt lat="42.92831" lon="0.73967">
        <ele>1722.3</ele>
        <time>2020-02-23T11:25:00Z</time>
      </trkpt>
      <trkpt lat="42.92831" lon="0.73967">
        <ele>1722.4</ele>
        <time>2020-02-23T11:25:01Z</time>
      </trkpt>
      <trkpt lat="42.92831" lon="0.73967">
        <ele>1722.6</ele>
        <time>2020-02-23T11:25:02Z</time>
      </trkpt>
      <trkpt lat="42.92831" lon="0.73967">
        <ele>1722.7</ele>
        <time>2020-02-23T11:25:03Z</time>
      </trkpt>
      <trkpt lat="42.92831" lon="0.73967">
        <ele>1722.9</ele>
        <time>2020-02-23T11:25:04Z</time>
      </trkpt>
      <trkpt lat="42.92831" lon="0.73967">
        <ele>1723</ele>
        <time>2020-02-23T11:25:05Z</time>
      </trkpt>
      <trkpt lat="42.92831" lon="0.73967">
        <ele>1723.2</ele>
        <time>2020-02-23T11:25:06Z</time>
      </trkpt>
      <trkpt lat="42.92831" lon="0.73967">
        <ele>1723.3</ele>
        <time>2020-02-23T11:25:07Z</time>
      </trkpt>
      <trkpt lat="42.92831" lon="0.73967">
        <ele>1723.4</ele>
        <time>2020-02-23T11:25:08Z</time>
      </trkpt>
      <trkpt lat="42.92831" lon="0.73967">
        <ele>1723.6</ele>
        <time>2020-02-23T11:25:09Z</time>
      </trkpt>
      <trkpt lat="42.92831" lon="0.73967">
        <ele>1723.7</ele>
        <time>2020-02-23T11:25:10Z</time>
      </trkpt>
      <trkpt lat="42.92831" lon="0.73967">
        <ele>1723.9</ele>
        <time>2020-02-23T11:25:11Z</time>
      </trkpt>
      <trkpt lat="42.92831" lon="0.73967">
        <ele>1724</ele>
        <time>2020-02-23T11:25:12Z</time>
      </trkpt>
      <trkpt lat="42.92831" lon="0.73967">
        <ele>1724.2</ele>
        <time>2020-02-23T11:25:13Z</time>
      </trkpt>
      <trkpt lat="42.92829" lon="0.73966">
        <ele>1724.7</ele>
        <time>2020-02-23T11:25:14Z</time>
      </trkpt>
      <trkpt lat="42.92829" lon="0.73966">
        <ele>1724.9</ele>
        <time>2020-02-23T11:25:15Z</time>
      </trkpt>
      <trkpt lat="42.92828" lon="0.73964">
        <ele>1723.9</ele>
        <time>2020-02-23T11:25:16Z</time>
      </trkpt>
      <trkpt lat="42.92828" lon="0.73964">
        <ele>1724</ele>
        <time>2020-02-23T11:25:17Z</time>
      </trkpt>
      <trkpt lat="42.92828" lon="0.73964">
        <ele>1724.2</ele>
        <time>2020-02-23T11:25:18Z</time>
      </trkpt>
      <trkpt lat="42.92828" lon="0.73964">
        <ele>1724.3</ele>
        <time>2020-02-23T11:25:19Z</time>
      </trkpt>
      <trkpt lat="42.92826" lon="0.73962">
        <ele>1724.9</ele>
        <time>2020-02-23T11:25:20Z</time>
      </trkpt>
      <trkpt lat="42.92826" lon="0.73962">
        <ele>1725</ele>
        <time>2020-02-23T11:25:21Z</time>
      </trkpt>
      <trkpt lat="42.92826" lon="0.73962">
        <ele>1725.1</ele>
        <time>2020-02-23T11:25:22Z</time>
      </trkpt>
      <trkpt lat="42.92826" lon="0.73962">
        <ele>1725.3</ele>
        <time>2020-02-23T11:25:23Z</time>
      </trkpt>
      <trkpt lat="42.92826" lon="0.73962">
        <ele>1725.4</ele>
        <time>2020-02-23T11:25:24Z</time>
      </trkpt>
      <trkpt lat="42.92826" lon="0.73962">
        <ele>1725.6</ele>
        <time>2020-02-23T11:25:25Z</time>
      </trkpt>
      <trkpt lat="42.92826" lon="0.73962">
        <ele>1725.7</ele>
        <time>2020-02-23T11:25:26Z</time>
      </trkpt>
      <trkpt lat="42.92826" lon="0.73962">
        <ele>1725.9</ele>
        <time>2020-02-23T11:25:27Z</time>
      </trkpt>
      <trkpt lat="42.92826" lon="0.73962">
        <ele>1726</ele>
        <time>2020-02-23T11:25:28Z</time>
      </trkpt>
      <trkpt lat="42.92826" lon="0.73962">
        <ele>1726.2</ele>
        <time>2020-02-23T11:25:29Z</time>
      </trkpt>
      <trkpt lat="42.92826" lon="0.73962">
        <ele>1726.3</ele>
        <time>2020-02-23T11:25:30Z</time>
      </trkpt>
      <trkpt lat="42.92826" lon="0.73962">
        <ele>1726.4</ele>
        <time>2020-02-23T11:25:31Z</time>
      </trkpt>
      <trkpt lat="42.92826" lon="0.73962">
        <ele>1726.6</ele>
        <time>2020-02-23T11:25:32Z</time>
      </trkpt>
      <trkpt lat="42.92826" lon="0.73962">
        <ele>1726.7</ele>
        <time>2020-02-23T11:25:33Z</time>
      </trkpt>
      <trkpt lat="42.92826" lon="0.73962">
        <ele>1726.9</ele>
        <time>2020-02-23T11:25:34Z</time>
      </trkpt>
      <trkpt lat="42.92826" lon="0.73962">
        <ele>1727</ele>
        <time>2020-02-23T11:25:35Z</time>
      </trkpt>
      <trkpt lat="42.92826" lon="0.73962">
        <ele>1727.2</ele>
        <time>2020-02-23T11:25:36Z</time>
      </trkpt>
      <trkpt lat="42.92826" lon="0.73962">
        <ele>1727.3</ele>
        <time>2020-02-23T11:25:37Z</time>
      </trkpt>
      <trkpt lat="42.92826" lon="0.73962">
        <ele>1727.4</ele>
        <time>2020-02-23T11:25:38Z</time>
      </trkpt>
      <trkpt lat="42.92826" lon="0.73962">
        <ele>1727.6</ele>
        <time>2020-02-23T11:25:39Z</time>
      </trkpt>
      <trkpt lat="42.92826" lon="0.73962">
        <ele>1727.7</ele>
        <time>2020-02-23T11:25:40Z</time>
      </trkpt>
      <trkpt lat="42.92826" lon="0.73962">
        <ele>1727.9</ele>
        <time>2020-02-23T11:25:41Z</time>
      </trkpt>
      <trkpt lat="42.92826" lon="0.73962">
        <ele>1728</ele>
        <time>2020-02-23T11:25:42Z</time>
      </trkpt>
      <trkpt lat="42.92826" lon="0.73962">
        <ele>1728.2</ele>
        <time>2020-02-23T11:25:43Z</time>
      </trkpt>
      <trkpt lat="42.92826" lon="0.73962">
        <ele>1728.3</ele>
        <time>2020-02-23T11:25:44Z</time>
      </trkpt>
      <trkpt lat="42.92826" lon="0.73962">
        <ele>1728.5</ele>
        <time>2020-02-23T11:25:45Z</time>
      </trkpt>
      <trkpt lat="42.92826" lon="0.73962">
        <ele>1728.6</ele>
        <time>2020-02-23T11:25:46Z</time>
      </trkpt>
      <trkpt lat="42.92826" lon="0.73962">
        <ele>1728.7</ele>
        <time>2020-02-23T11:25:47Z</time>
      </trkpt>
      <trkpt lat="42.92826" lon="0.73962">
        <ele>1728.9</ele>
        <time>2020-02-23T11:25:48Z</time>
      </trkpt>
      <trkpt lat="42.92826" lon="0.73962">
        <ele>1729</ele>
        <time>2020-02-23T11:25:49Z</time>
      </trkpt>
      <trkpt lat="42.92826" lon="0.73962">
        <ele>1729.2</ele>
        <time>2020-02-23T11:25:50Z</time>
      </trkpt>
      <trkpt lat="42.92826" lon="0.73962">
        <ele>1729.3</ele>
        <time>2020-02-23T11:25:51Z</time>
      </trkpt>
      <trkpt lat="42.92826" lon="0.73962">
        <ele>1729.5</ele>
        <time>2020-02-23T11:25:52Z</time>
      </trkpt>
      <trkpt lat="42.92826" lon="0.73962">
        <ele>1729.6</ele>
        <time>2020-02-23T11:25:53Z</time>
      </trkpt>
      <trkpt lat="42.92826" lon="0.73962">
        <ele>1729.8</ele>
        <time>2020-02-23T11:25:54Z</time>
      </trkpt>
      <trkpt lat="42.92826" lon="0.73962">
        <ele>1729.9</ele>
        <time>2020-02-23T11:25:55Z</time>
      </trkpt>
      <trkpt lat="42.92826" lon="0.73962">
        <ele>1730</ele>
        <time>2020-02-23T11:25:56Z</time>
      </trkpt>
      <trkpt lat="42.92826" lon="0.73962">
        <ele>1730.2</ele>
        <time>2020-02-23T11:25:57Z</time>
      </trkpt>
      <trkpt lat="42.92826" lon="0.73962">
        <ele>1730.3</ele>
        <time>2020-02-23T11:25:58Z</time>
      </trkpt>
      <trkpt lat="42.92827" lon="0.7396">
        <ele>1729.4</ele>
        <time>2020-02-23T11:25:59Z</time>
      </trkpt>
      <trkpt lat="42.92827" lon="0.7396">
        <ele>1729.5</ele>
        <time>2020-02-23T11:26:00Z</time>
      </trkpt>
      <trkpt lat="42.92827" lon="0.7396">
        <ele>1729.7</ele>
        <time>2020-02-23T11:26:01Z</time>
      </trkpt>
      <trkpt lat="42.92827" lon="0.7396">
        <ele>1729.8</ele>
        <time>2020-02-23T11:26:02Z</time>
      </trkpt>
      <trkpt lat="42.92827" lon="0.7396">
        <ele>1729.9</ele>
        <time>2020-02-23T11:26:03Z</time>
      </trkpt>
      <trkpt lat="42.92827" lon="0.7396">
        <ele>1730.1</ele>
        <time>2020-02-23T11:26:04Z</time>
      </trkpt>
      <trkpt lat="42.92827" lon="0.7396">
        <ele>1730.2</ele>
        <time>2020-02-23T11:26:05Z</time>
      </trkpt>
      <trkpt lat="42.92827" lon="0.7396">
        <ele>1730.4</ele>
        <time>2020-02-23T11:26:06Z</time>
      </trkpt>
      <trkpt lat="42.92827" lon="0.7396">
        <ele>1730.5</ele>
        <time>2020-02-23T11:26:07Z</time>
      </trkpt>
      <trkpt lat="42.92827" lon="0.7396">
        <ele>1730.7</ele>
        <time>2020-02-23T11:26:08Z</time>
      </trkpt>
      <trkpt lat="42.92827" lon="0.7396">
        <ele>1730.8</ele>
        <time>2020-02-23T11:26:09Z</time>
      </trkpt>
      <trkpt lat="42.92827" lon="0.7396">
        <ele>1731</ele>
        <time>2020-02-23T11:26:10Z</time>
      </trkpt>
      <trkpt lat="42.92827" lon="0.7396">
        <ele>1731.1</ele>
        <time>2020-02-23T11:26:11Z</time>
      </trkpt>
      <trkpt lat="42.92827" lon="0.7396">
        <ele>1731.2</ele>
        <time>2020-02-23T11:26:12Z</time>
      </trkpt>
      <trkpt lat="42.92827" lon="0.7396">
        <ele>1731.4</ele>
        <time>2020-02-23T11:26:13Z</time>
      </trkpt>
      <trkpt lat="42.92827" lon="0.7396">
        <ele>1731.5</ele>
        <time>2020-02-23T11:26:14Z</time>
      </trkpt>
      <trkpt lat="42.92827" lon="0.7396">
        <ele>1731.7</ele>
        <time>2020-02-23T11:26:15Z</time>
      </trkpt>
      <trkpt lat="42.92827" lon="0.7396">
        <ele>1731.8</ele>
        <time>2020-02-23T11:26:16Z</time>
      </trkpt>
      <trkpt lat="42.92827" lon="0.7396">
        <ele>1732</ele>
        <time>2020-02-23T11:26:17Z</time>
      </trkpt>
      <trkpt lat="42.92827" lon="0.7396">
        <ele>1732.1</ele>
        <time>2020-02-23T11:26:18Z</time>
      </trkpt>
      <trkpt lat="42.92827" lon="0.7396">
        <ele>1732.3</ele>
        <time>2020-02-23T11:26:19Z</time>
      </trkpt>
      <trkpt lat="42.92827" lon="0.7396">
        <ele>1732.4</ele>
        <time>2020-02-23T11:26:20Z</time>
      </trkpt>
      <trkpt lat="42.92827" lon="0.7396">
        <ele>1732.5</ele>
        <time>2020-02-23T11:26:21Z</time>
      </trkpt>
      <trkpt lat="42.92827" lon="0.7396">
        <ele>1732.7</ele>
        <time>2020-02-23T11:26:22Z</time>
      </trkpt>
      <trkpt lat="42.92827" lon="0.7396">
        <ele>1732.8</ele>
        <time>2020-02-23T11:26:23Z</time>
      </trkpt>
      <trkpt lat="42.92827" lon="0.7396">
        <ele>1733</ele>
        <time>2020-02-23T11:26:24Z</time>
      </trkpt>
      <trkpt lat="42.92827" lon="0.7396">
        <ele>1733.1</ele>
        <time>2020-02-23T11:26:25Z</time>
      </trkpt>
      <trkpt lat="42.92827" lon="0.7396">
        <ele>1733.3</ele>
        <time>2020-02-23T11:26:26Z</time>
      </trkpt>
      <trkpt lat="42.92827" lon="0.7396">
        <ele>1733.4</ele>
        <time>2020-02-23T11:26:27Z</time>
      </trkpt>
      <trkpt lat="42.92827" lon="0.7396">
        <ele>1733.5</ele>
        <time>2020-02-23T11:26:28Z</time>
      </trkpt>
      <trkpt lat="42.92827" lon="0.7396">
        <ele>1733.7</ele>
        <time>2020-02-23T11:26:29Z</time>
      </trkpt>
      <trkpt lat="42.92827" lon="0.7396">
        <ele>1733.8</ele>
        <time>2020-02-23T11:26:30Z</time>
      </trkpt>
      <trkpt lat="42.92827" lon="0.7396">
        <ele>1734</ele>
        <time>2020-02-23T11:26:31Z</time>
      </trkpt>
      <trkpt lat="42.92827" lon="0.7396">
        <ele>1734.1</ele>
        <time>2020-02-23T11:26:32Z</time>
      </trkpt>
      <trkpt lat="42.92827" lon="0.7396">
        <ele>1734.3</ele>
        <time>2020-02-23T11:26:33Z</time>
      </trkpt>
      <trkpt lat="42.92827" lon="0.7396">
        <ele>1734.4</ele>
        <time>2020-02-23T11:26:34Z</time>
      </trkpt>
      <trkpt lat="42.92827" lon="0.7396">
        <ele>1734.6</ele>
        <time>2020-02-23T11:26:35Z</time>
      </trkpt>
      <trkpt lat="42.92827" lon="0.7396">
        <ele>1734.7</ele>
        <time>2020-02-23T11:26:36Z</time>
      </trkpt>
      <trkpt lat="42.92825" lon="0.73959">
        <ele>1734.7</ele>
        <time>2020-02-23T11:26:37Z</time>
      </trkpt>
      <trkpt lat="42.92825" lon="0.73959">
        <ele>1734.7</ele>
        <time>2020-02-23T11:26:38Z</time>
      </trkpt>
      <trkpt lat="42.92825" lon="0.73959">
        <ele>1734.7</ele>
        <time>2020-02-23T11:26:39Z</time>
      </trkpt>
      <trkpt lat="42.92825" lon="0.73959">
        <ele>1734.7</ele>
        <time>2020-02-23T11:26:40Z</time>
      </trkpt>
      <trkpt lat="42.92825" lon="0.73959">
        <ele>1734.7</ele>
        <time>2020-02-23T11:26:41Z</time>
      </trkpt>
      <trkpt lat="42.92825" lon="0.73959">
        <ele>1734.7</ele>
        <time>2020-02-23T11:26:42Z</time>
      </trkpt>
      <trkpt lat="42.92825" lon="0.73959">
        <ele>1734.7</ele>
        <time>2020-02-23T11:26:43Z</time>
      </trkpt>
      <trkpt lat="42.92825" lon="0.73959">
        <ele>1734.7</ele>
        <time>2020-02-23T11:26:44Z</time>
      </trkpt>
      <trkpt lat="42.92825" lon="0.73959">
        <ele>1734.7</ele>
        <time>2020-02-23T11:26:45Z</time>
      </trkpt>
      <trkpt lat="42.92825" lon="0.73959">
        <ele>1734.7</ele>
        <time>2020-02-23T11:26:46Z</time>
      </trkpt>
      <trkpt lat="42.92825" lon="0.73959">
        <ele>1734.7</ele>
        <time>2020-02-23T11:26:47Z</time>
      </trkpt>
      <trkpt lat="42.92825" lon="0.73957">
        <ele>1734.7</ele>
        <time>2020-02-23T11:26:48Z</time>
      </trkpt>
      <trkpt lat="42.92825" lon="0.73957">
        <ele>1734.7</ele>
        <time>2020-02-23T11:26:49Z</time>
      </trkpt>
      <trkpt lat="42.92825" lon="0.73957">
        <ele>1734.7</ele>
        <time>2020-02-23T11:26:50Z</time>
      </trkpt>
      <trkpt lat="42.92825" lon="0.73957">
        <ele>1734.7</ele>
        <time>2020-02-23T11:26:51Z</time>
      </trkpt>
      <trkpt lat="42.92824" lon="0.73955">
        <ele>1734</ele>
        <time>2020-02-23T11:26:52Z</time>
      </trkpt>
      <trkpt lat="42.92824" lon="0.73955">
        <ele>1734</ele>
        <time>2020-02-23T11:26:53Z</time>
      </trkpt>
      <trkpt lat="42.92824" lon="0.73955">
        <ele>1734</ele>
        <time>2020-02-23T11:26:54Z</time>
      </trkpt>
      <trkpt lat="42.92824" lon="0.73955">
        <ele>1734</ele>
        <time>2020-02-23T11:26:55Z</time>
      </trkpt>
      <trkpt lat="42.92824" lon="0.73955">
        <ele>1734</ele>
        <time>2020-02-23T11:26:56Z</time>
      </trkpt>
      <trkpt lat="42.92824" lon="0.73955">
        <ele>1734</ele>
        <time>2020-02-23T11:26:57Z</time>
      </trkpt>
      <trkpt lat="42.92824" lon="0.73955">
        <ele>1734</ele>
        <time>2020-02-23T11:26:58Z</time>
      </trkpt>
      <trkpt lat="42.92824" lon="0.73955">
        <ele>1734</ele>
        <time>2020-02-23T11:26:59Z</time>
      </trkpt>
      <trkpt lat="42.92824" lon="0.73955">
        <ele>1734</ele>
        <time>2020-02-23T11:27:00Z</time>
      </trkpt>
      <trkpt lat="42.92824" lon="0.73955">
        <ele>1734</ele>
        <time>2020-02-23T11:27:01Z</time>
      </trkpt>
      <trkpt lat="42.92824" lon="0.73955">
        <ele>1734</ele>
        <time>2020-02-23T11:27:02Z</time>
      </trkpt>
      <trkpt lat="42.92822" lon="0.73954">
        <ele>1734</ele>
        <time>2020-02-23T11:27:03Z</time>
      </trkpt>
      <trkpt lat="42.92822" lon="0.73954">
        <ele>1734</ele>
        <time>2020-02-23T11:27:04Z</time>
      </trkpt>
      <trkpt lat="42.92822" lon="0.73954">
        <ele>1734</ele>
        <time>2020-02-23T11:27:05Z</time>
      </trkpt>
      <trkpt lat="42.92822" lon="0.73954">
        <ele>1734</ele>
        <time>2020-02-23T11:27:06Z</time>
      </trkpt>
      <trkpt lat="42.92822" lon="0.73954">
        <ele>1734</ele>
        <time>2020-02-23T11:27:07Z</time>
      </trkpt>
      <trkpt lat="42.92822" lon="0.73954">
        <ele>1734</ele>
        <time>2020-02-23T11:27:08Z</time>
      </trkpt>
      <trkpt lat="42.92822" lon="0.73954">
        <ele>1734</ele>
        <time>2020-02-23T11:27:09Z</time>
      </trkpt>
      <trkpt lat="42.92822" lon="0.73954">
        <ele>1734</ele>
        <time>2020-02-23T11:27:10Z</time>
      </trkpt>
      <trkpt lat="42.92822" lon="0.73954">
        <ele>1734</ele>
        <time>2020-02-23T11:27:11Z</time>
      </trkpt>
      <trkpt lat="42.92822" lon="0.73954">
        <ele>1734</ele>
        <time>2020-02-23T11:27:12Z</time>
      </trkpt>
      <trkpt lat="42.92822" lon="0.73954">
        <ele>1734</ele>
        <time>2020-02-23T11:27:13Z</time>
      </trkpt>
      <trkpt lat="42.92822" lon="0.73954">
        <ele>1734</ele>
        <time>2020-02-23T11:27:14Z</time>
      </trkpt>
      <trkpt lat="42.92822" lon="0.73954">
        <ele>1734</ele>
        <time>2020-02-23T11:27:15Z</time>
      </trkpt>
      <trkpt lat="42.92822" lon="0.73954">
        <ele>1734</ele>
        <time>2020-02-23T11:27:16Z</time>
      </trkpt>
      <trkpt lat="42.92822" lon="0.73954">
        <ele>1734</ele>
        <time>2020-02-23T11:27:17Z</time>
      </trkpt>
      <trkpt lat="42.92822" lon="0.73954">
        <ele>1734</ele>
        <time>2020-02-23T11:27:18Z</time>
      </trkpt>
      <trkpt lat="42.92822" lon="0.73954">
        <ele>1734</ele>
        <time>2020-02-23T11:27:19Z</time>
      </trkpt>
      <trkpt lat="42.92822" lon="0.73954">
        <ele>1734</ele>
        <time>2020-02-23T11:27:20Z</time>
      </trkpt>
      <trkpt lat="42.92822" lon="0.73954">
        <ele>1734</ele>
        <time>2020-02-23T11:27:21Z</time>
      </trkpt>
      <trkpt lat="42.92822" lon="0.73954">
        <ele>1734</ele>
        <time>2020-02-23T11:27:22Z</time>
      </trkpt>
      <trkpt lat="42.92822" lon="0.73954">
        <ele>1734</ele>
        <time>2020-02-23T11:27:23Z</time>
      </trkpt>
      <trkpt lat="42.92822" lon="0.73954">
        <ele>1734</ele>
        <time>2020-02-23T11:27:24Z</time>
      </trkpt>
      <trkpt lat="42.92822" lon="0.73954">
        <ele>1734</ele>
        <time>2020-02-23T11:27:25Z</time>
      </trkpt>
      <trkpt lat="42.92822" lon="0.73954">
        <ele>1734</ele>
        <time>2020-02-23T11:27:26Z</time>
      </trkpt>
      <trkpt lat="42.92822" lon="0.73954">
        <ele>1734</ele>
        <time>2020-02-23T11:27:27Z</time>
      </trkpt>
      <trkpt lat="42.92822" lon="0.73954">
        <ele>1734</ele>
        <time>2020-02-23T11:27:28Z</time>
      </trkpt>
      <trkpt lat="42.92822" lon="0.73954">
        <ele>1734</ele>
        <time>2020-02-23T11:27:29Z</time>
      </trkpt>
      <trkpt lat="42.92822" lon="0.73954">
        <ele>1734</ele>
        <time>2020-02-23T11:27:30Z</time>
      </trkpt>
      <trkpt lat="42.92822" lon="0.73954">
        <ele>1734</ele>
        <time>2020-02-23T11:27:31Z</time>
      </trkpt>
      <trkpt lat="42.92822" lon="0.73954">
        <ele>1734</ele>
        <time>2020-02-23T11:27:32Z</time>
      </trkpt>
      <trkpt lat="42.92822" lon="0.73954">
        <ele>1734</ele>
        <time>2020-02-23T11:27:33Z</time>
      </trkpt>
      <trkpt lat="42.92822" lon="0.73954">
        <ele>1734</ele>
        <time>2020-02-23T11:27:34Z</time>
      </trkpt>
      <trkpt lat="42.92822" lon="0.73954">
        <ele>1734</ele>
        <time>2020-02-23T11:27:35Z</time>
      </trkpt>
      <trkpt lat="42.92822" lon="0.73954">
        <ele>1734</ele>
        <time>2020-02-23T11:27:36Z</time>
      </trkpt>
      <trkpt lat="42.92822" lon="0.73954">
        <ele>1734</ele>
        <time>2020-02-23T11:27:37Z</time>
      </trkpt>
      <trkpt lat="42.92822" lon="0.73954">
        <ele>1734</ele>
        <time>2020-02-23T11:27:38Z</time>
      </trkpt>
      <trkpt lat="42.92822" lon="0.73954">
        <ele>1734</ele>
        <time>2020-02-23T11:27:39Z</time>
      </trkpt>
      <trkpt lat="42.92822" lon="0.73954">
        <ele>1734</ele>
        <time>2020-02-23T11:27:40Z</time>
      </trkpt>
      <trkpt lat="42.92822" lon="0.73954">
        <ele>1734</ele>
        <time>2020-02-23T11:27:41Z</time>
      </trkpt>
      <trkpt lat="42.92822" lon="0.73954">
        <ele>1734</ele>
        <time>2020-02-23T11:27:42Z</time>
      </trkpt>
      <trkpt lat="42.92822" lon="0.73954">
        <ele>1734</ele>
        <time>2020-02-23T11:27:43Z</time>
      </trkpt>
      <trkpt lat="42.92822" lon="0.73954">
        <ele>1734</ele>
        <time>2020-02-23T11:27:44Z</time>
      </trkpt>
      <trkpt lat="42.92822" lon="0.73954">
        <ele>1734</ele>
        <time>2020-02-23T11:27:45Z</time>
      </trkpt>
      <trkpt lat="42.92822" lon="0.73954">
        <ele>1734</ele>
        <time>2020-02-23T11:27:46Z</time>
      </trkpt>
      <trkpt lat="42.92824" lon="0.73955">
        <ele>1734</ele>
        <time>2020-02-23T11:27:47Z</time>
      </trkpt>
      <trkpt lat="42.92824" lon="0.73955">
        <ele>1734</ele>
        <time>2020-02-23T11:27:48Z</time>
      </trkpt>
      <trkpt lat="42.92824" lon="0.73955">
        <ele>1734</ele>
        <time>2020-02-23T11:27:49Z</time>
      </trkpt>
      <trkpt lat="42.92824" lon="0.73955">
        <ele>1734</ele>
        <time>2020-02-23T11:27:50Z</time>
      </trkpt>
      <trkpt lat="42.92824" lon="0.73955">
        <ele>1734</ele>
        <time>2020-02-23T11:27:51Z</time>
      </trkpt>
      <trkpt lat="42.92824" lon="0.73955">
        <ele>1734</ele>
        <time>2020-02-23T11:27:52Z</time>
      </trkpt>
      <trkpt lat="42.92824" lon="0.73955">
        <ele>1734</ele>
        <time>2020-02-23T11:27:53Z</time>
      </trkpt>
      <trkpt lat="42.92824" lon="0.73955">
        <ele>1734</ele>
        <time>2020-02-23T11:27:54Z</time>
      </trkpt>
      <trkpt lat="42.92824" lon="0.73955">
        <ele>1734</ele>
        <time>2020-02-23T11:27:55Z</time>
      </trkpt>
      <trkpt lat="42.92824" lon="0.73955">
        <ele>1734</ele>
        <time>2020-02-23T11:27:56Z</time>
      </trkpt>
      <trkpt lat="42.92824" lon="0.73955">
        <ele>1734</ele>
        <time>2020-02-23T11:27:57Z</time>
      </trkpt>
      <trkpt lat="42.92824" lon="0.73955">
        <ele>1734</ele>
        <time>2020-02-23T11:27:58Z</time>
      </trkpt>
      <trkpt lat="42.92824" lon="0.73955">
        <ele>1734</ele>
        <time>2020-02-23T11:27:59Z</time>
      </trkpt>
      <trkpt lat="42.92824" lon="0.73955">
        <ele>1734</ele>
        <time>2020-02-23T11:28:00Z</time>
      </trkpt>
      <trkpt lat="42.92824" lon="0.73955">
        <ele>1734</ele>
        <time>2020-02-23T11:28:01Z</time>
      </trkpt>
      <trkpt lat="42.92822" lon="0.73955">
        <ele>1734</ele>
        <time>2020-02-23T11:28:02Z</time>
      </trkpt>
      <trkpt lat="42.92822" lon="0.73955">
        <ele>1734</ele>
        <time>2020-02-23T11:28:03Z</time>
      </trkpt>
      <trkpt lat="42.92822" lon="0.73955">
        <ele>1734</ele>
        <time>2020-02-23T11:28:04Z</time>
      </trkpt>
      <trkpt lat="42.92822" lon="0.73955">
        <ele>1734</ele>
        <time>2020-02-23T11:28:05Z</time>
      </trkpt>
      <trkpt lat="42.92822" lon="0.73955">
        <ele>1734</ele>
        <time>2020-02-23T11:28:06Z</time>
      </trkpt>
      <trkpt lat="42.92822" lon="0.73955">
        <ele>1734</ele>
        <time>2020-02-23T11:28:07Z</time>
      </trkpt>
      <trkpt lat="42.92822" lon="0.73955">
        <ele>1734</ele>
        <time>2020-02-23T11:28:08Z</time>
      </trkpt>
      <trkpt lat="42.9282" lon="0.73953">
        <ele>1734.3</ele>
        <time>2020-02-23T11:28:09Z</time>
      </trkpt>
      <trkpt lat="42.9282" lon="0.73953">
        <ele>1734.3</ele>
        <time>2020-02-23T11:28:10Z</time>
      </trkpt>
      <trkpt lat="42.9282" lon="0.73953">
        <ele>1734.3</ele>
        <time>2020-02-23T11:28:11Z</time>
      </trkpt>
      <trkpt lat="42.9282" lon="0.73953">
        <ele>1734.3</ele>
        <time>2020-02-23T11:28:12Z</time>
      </trkpt>
      <trkpt lat="42.9282" lon="0.73953">
        <ele>1734.3</ele>
        <time>2020-02-23T11:28:13Z</time>
      </trkpt>
      <trkpt lat="42.9282" lon="0.73953">
        <ele>1734.3</ele>
        <time>2020-02-23T11:28:14Z</time>
      </trkpt>
      <trkpt lat="42.9282" lon="0.73953">
        <ele>1734.3</ele>
        <time>2020-02-23T11:28:15Z</time>
      </trkpt>
      <trkpt lat="42.9282" lon="0.73953">
        <ele>1734.3</ele>
        <time>2020-02-23T11:28:16Z</time>
      </trkpt>
      <trkpt lat="42.9282" lon="0.73953">
        <ele>1734.3</ele>
        <time>2020-02-23T11:28:17Z</time>
      </trkpt>
      <trkpt lat="42.9282" lon="0.73951">
        <ele>1733.2</ele>
        <time>2020-02-23T11:28:18Z</time>
      </trkpt>
      <trkpt lat="42.9282" lon="0.73951">
        <ele>1733.2</ele>
        <time>2020-02-23T11:28:19Z</time>
      </trkpt>
      <trkpt lat="42.9282" lon="0.73951">
        <ele>1733.2</ele>
        <time>2020-02-23T11:28:20Z</time>
      </trkpt>
      <trkpt lat="42.9282" lon="0.73951">
        <ele>1733.2</ele>
        <time>2020-02-23T11:28:21Z</time>
      </trkpt>
      <trkpt lat="42.9282" lon="0.73951">
        <ele>1733.2</ele>
        <time>2020-02-23T11:28:22Z</time>
      </trkpt>
      <trkpt lat="42.9282" lon="0.73951">
        <ele>1733.2</ele>
        <time>2020-02-23T11:28:23Z</time>
      </trkpt>
      <trkpt lat="42.9282" lon="0.73951">
        <ele>1733.2</ele>
        <time>2020-02-23T11:28:24Z</time>
      </trkpt>
      <trkpt lat="42.9282" lon="0.73951">
        <ele>1733.2</ele>
        <time>2020-02-23T11:28:25Z</time>
      </trkpt>
      <trkpt lat="42.9282" lon="0.73951">
        <ele>1733.2</ele>
        <time>2020-02-23T11:28:26Z</time>
      </trkpt>
      <trkpt lat="42.9282" lon="0.73951">
        <ele>1733.2</ele>
        <time>2020-02-23T11:28:27Z</time>
      </trkpt>
      <trkpt lat="42.9282" lon="0.73951">
        <ele>1733.2</ele>
        <time>2020-02-23T11:28:28Z</time>
      </trkpt>
      <trkpt lat="42.9282" lon="0.73951">
        <ele>1733.2</ele>
        <time>2020-02-23T11:28:29Z</time>
      </trkpt>
      <trkpt lat="42.92818" lon="0.73949">
        <ele>1733.2</ele>
        <time>2020-02-23T11:28:30Z</time>
      </trkpt>
      <trkpt lat="42.92818" lon="0.73949">
        <ele>1733.2</ele>
        <time>2020-02-23T11:28:31Z</time>
      </trkpt>
      <trkpt lat="42.92818" lon="0.7395">
        <ele>1733.4</ele>
        <time>2020-02-23T11:28:32Z</time>
      </trkpt>
      <trkpt lat="42.92818" lon="0.7395">
        <ele>1733.4</ele>
        <time>2020-02-23T11:28:33Z</time>
      </trkpt>
      <trkpt lat="42.92817" lon="0.7395">
        <ele>1733.4</ele>
        <time>2020-02-23T11:28:34Z</time>
      </trkpt>
      <trkpt lat="42.92817" lon="0.7395">
        <ele>1733.4</ele>
        <time>2020-02-23T11:28:35Z</time>
      </trkpt>
      <trkpt lat="42.92817" lon="0.7395">
        <ele>1733.4</ele>
        <time>2020-02-23T11:28:36Z</time>
      </trkpt>
      <trkpt lat="42.92817" lon="0.7395">
        <ele>1733.4</ele>
        <time>2020-02-23T11:28:37Z</time>
      </trkpt>
      <trkpt lat="42.92817" lon="0.7395">
        <ele>1733.4</ele>
        <time>2020-02-23T11:28:38Z</time>
      </trkpt>
      <trkpt lat="42.92816" lon="0.7395">
        <ele>1733.4</ele>
        <time>2020-02-23T11:28:39Z</time>
      </trkpt>
      <trkpt lat="42.92816" lon="0.73951">
        <ele>1733.4</ele>
        <time>2020-02-23T11:28:40Z</time>
      </trkpt>
      <trkpt lat="42.92816" lon="0.73951">
        <ele>1733.4</ele>
        <time>2020-02-23T11:28:41Z</time>
      </trkpt>
      <trkpt lat="42.92816" lon="0.73951">
        <ele>1733.4</ele>
        <time>2020-02-23T11:28:42Z</time>
      </trkpt>
      <trkpt lat="42.92815" lon="0.73951">
        <ele>1733.4</ele>
        <time>2020-02-23T11:28:43Z</time>
      </trkpt>
      <trkpt lat="42.92815" lon="0.73951">
        <ele>1733.4</ele>
        <time>2020-02-23T11:28:44Z</time>
      </trkpt>
      <trkpt lat="42.92815" lon="0.73951">
        <ele>1733.4</ele>
        <time>2020-02-23T11:28:45Z</time>
      </trkpt>
      <trkpt lat="42.92815" lon="0.73951">
        <ele>1733.6</ele>
        <time>2020-02-23T11:28:46Z</time>
      </trkpt>
      <trkpt lat="42.92815" lon="0.73951">
        <ele>1733.6</ele>
        <time>2020-02-23T11:28:47Z</time>
      </trkpt>
      <trkpt lat="42.92814" lon="0.73951">
        <ele>1733.6</ele>
        <time>2020-02-23T11:28:48Z</time>
      </trkpt>
      <trkpt lat="42.92814" lon="0.73952">
        <ele>1733.6</ele>
        <time>2020-02-23T11:28:49Z</time>
      </trkpt>
      <trkpt lat="42.92814" lon="0.73952">
        <ele>1733.6</ele>
        <time>2020-02-23T11:28:50Z</time>
      </trkpt>
      <trkpt lat="42.92814" lon="0.73952">
        <ele>1734.7</ele>
        <time>2020-02-23T11:28:51Z</time>
      </trkpt>
      <trkpt lat="42.92813" lon="0.73952">
        <ele>1734.7</ele>
        <time>2020-02-23T11:28:52Z</time>
      </trkpt>
      <trkpt lat="42.92813" lon="0.73952">
        <ele>1734.7</ele>
        <time>2020-02-23T11:28:53Z</time>
      </trkpt>
      <trkpt lat="42.92813" lon="0.73952">
        <ele>1734.7</ele>
        <time>2020-02-23T11:28:54Z</time>
      </trkpt>
      <trkpt lat="42.92813" lon="0.73952">
        <ele>1734.7</ele>
        <time>2020-02-23T11:28:55Z</time>
      </trkpt>
      <trkpt lat="42.92813" lon="0.73952">
        <ele>1734.7</ele>
        <time>2020-02-23T11:28:56Z</time>
      </trkpt>
      <trkpt lat="42.92812" lon="0.73953">
        <ele>1734.7</ele>
        <time>2020-02-23T11:28:57Z</time>
      </trkpt>
      <trkpt lat="42.92812" lon="0.73953">
        <ele>1734.7</ele>
        <time>2020-02-23T11:28:58Z</time>
      </trkpt>
      <trkpt lat="42.92812" lon="0.73953">
        <ele>1734.7</ele>
        <time>2020-02-23T11:28:59Z</time>
      </trkpt>
      <trkpt lat="42.92812" lon="0.73953">
        <ele>1734.7</ele>
        <time>2020-02-23T11:29:00Z</time>
      </trkpt>
      <trkpt lat="42.92812" lon="0.73953">
        <ele>1734.8</ele>
        <time>2020-02-23T11:29:01Z</time>
      </trkpt>
      <trkpt lat="42.92811" lon="0.73953">
        <ele>1734.8</ele>
        <time>2020-02-23T11:29:02Z</time>
      </trkpt>
      <trkpt lat="42.92811" lon="0.73953">
        <ele>1734.8</ele>
        <time>2020-02-23T11:29:03Z</time>
      </trkpt>
      <trkpt lat="42.92811" lon="0.73953">
        <ele>1734.8</ele>
        <time>2020-02-23T11:29:04Z</time>
      </trkpt>
      <trkpt lat="42.92811" lon="0.73953">
        <ele>1734.8</ele>
        <time>2020-02-23T11:29:05Z</time>
      </trkpt>
      <trkpt lat="42.9281" lon="0.73954">
        <ele>1734.8</ele>
        <time>2020-02-23T11:29:06Z</time>
      </trkpt>
      <trkpt lat="42.9281" lon="0.73954">
        <ele>1734.8</ele>
        <time>2020-02-23T11:29:07Z</time>
      </trkpt>
      <trkpt lat="42.9281" lon="0.73954">
        <ele>1734.8</ele>
        <time>2020-02-23T11:29:08Z</time>
      </trkpt>
      <trkpt lat="42.9281" lon="0.73954">
        <ele>1734.8</ele>
        <time>2020-02-23T11:29:09Z</time>
      </trkpt>
      <trkpt lat="42.9281" lon="0.73954">
        <ele>1734.8</ele>
        <time>2020-02-23T11:29:10Z</time>
      </trkpt>
      <trkpt lat="42.9281" lon="0.73954">
        <ele>1734.8</ele>
        <time>2020-02-23T11:29:11Z</time>
      </trkpt>
      <trkpt lat="42.92809" lon="0.73951">
        <ele>1733.8</ele>
        <time>2020-02-23T11:29:12Z</time>
      </trkpt>
      <trkpt lat="42.92809" lon="0.73951">
        <ele>1733.8</ele>
        <time>2020-02-23T11:29:13Z</time>
      </trkpt>
      <trkpt lat="42.92809" lon="0.73951">
        <ele>1733.8</ele>
        <time>2020-02-23T11:29:14Z</time>
      </trkpt>
      <trkpt lat="42.92809" lon="0.73948">
        <ele>1733.8</ele>
        <time>2020-02-23T11:29:15Z</time>
      </trkpt>
      <trkpt lat="42.92809" lon="0.73948">
        <ele>1733.8</ele>
        <time>2020-02-23T11:29:16Z</time>
      </trkpt>
      <trkpt lat="42.92809" lon="0.73948">
        <ele>1733.8</ele>
        <time>2020-02-23T11:29:17Z</time>
      </trkpt>
      <trkpt lat="42.92809" lon="0.73948">
        <ele>1733.8</ele>
        <time>2020-02-23T11:29:18Z</time>
      </trkpt>
      <trkpt lat="42.92809" lon="0.73948">
        <ele>1733.8</ele>
        <time>2020-02-23T11:29:19Z</time>
      </trkpt>
      <trkpt lat="42.92808" lon="0.73946">
        <ele>1732.8</ele>
        <time>2020-02-23T11:29:20Z</time>
      </trkpt>
      <trkpt lat="42.92808" lon="0.73946">
        <ele>1732.8</ele>
        <time>2020-02-23T11:29:21Z</time>
      </trkpt>
      <trkpt lat="42.92808" lon="0.73945">
        <ele>1732.8</ele>
        <time>2020-02-23T11:29:22Z</time>
      </trkpt>
      <trkpt lat="42.92808" lon="0.73944">
        <ele>1732.8</ele>
        <time>2020-02-23T11:29:23Z</time>
      </trkpt>
      <trkpt lat="42.92808" lon="0.73943">
        <ele>1732.8</ele>
        <time>2020-02-23T11:29:24Z</time>
      </trkpt>
      <trkpt lat="42.92808" lon="0.73943">
        <ele>1731.7</ele>
        <time>2020-02-23T11:29:25Z</time>
      </trkpt>
      <trkpt lat="42.92808" lon="0.73942">
        <ele>1731.7</ele>
        <time>2020-02-23T11:29:26Z</time>
      </trkpt>
      <trkpt lat="42.92808" lon="0.73941">
        <ele>1731.7</ele>
        <time>2020-02-23T11:29:27Z</time>
      </trkpt>
      <trkpt lat="42.92808" lon="0.73941">
        <ele>1731.7</ele>
        <time>2020-02-23T11:29:28Z</time>
      </trkpt>
      <trkpt lat="42.92808" lon="0.7394">
        <ele>1731.7</ele>
        <time>2020-02-23T11:29:29Z</time>
      </trkpt>
      <trkpt lat="42.92808" lon="0.73939">
        <ele>1731.7</ele>
        <time>2020-02-23T11:29:30Z</time>
      </trkpt>
      <trkpt lat="42.92808" lon="0.73939">
        <ele>1730.5</ele>
        <time>2020-02-23T11:29:31Z</time>
      </trkpt>
      <trkpt lat="42.92808" lon="0.73939">
        <ele>1730.5</ele>
        <time>2020-02-23T11:29:32Z</time>
      </trkpt>
      <trkpt lat="42.92808" lon="0.73939">
        <ele>1730.5</ele>
        <time>2020-02-23T11:29:33Z</time>
      </trkpt>
      <trkpt lat="42.92808" lon="0.73939">
        <ele>1730.5</ele>
        <time>2020-02-23T11:29:34Z</time>
      </trkpt>
      <trkpt lat="42.92808" lon="0.73939">
        <ele>1730.5</ele>
        <time>2020-02-23T11:29:35Z</time>
      </trkpt>
      <trkpt lat="42.92808" lon="0.73939">
        <ele>1730.5</ele>
        <time>2020-02-23T11:29:36Z</time>
      </trkpt>
      <trkpt lat="42.92808" lon="0.73939">
        <ele>1730.5</ele>
        <time>2020-02-23T11:29:37Z</time>
      </trkpt>
      <trkpt lat="42.92808" lon="0.73939">
        <ele>1730.5</ele>
        <time>2020-02-23T11:29:38Z</time>
      </trkpt>
      <trkpt lat="42.92808" lon="0.73939">
        <ele>1730.5</ele>
        <time>2020-02-23T11:29:39Z</time>
      </trkpt>
      <trkpt lat="42.92806" lon="0.73937">
        <ele>1730.5</ele>
        <time>2020-02-23T11:29:40Z</time>
      </trkpt>
      <trkpt lat="42.92806" lon="0.73937">
        <ele>1730.5</ele>
        <time>2020-02-23T11:29:41Z</time>
      </trkpt>
      <trkpt lat="42.92806" lon="0.73937">
        <ele>1730.5</ele>
        <time>2020-02-23T11:29:42Z</time>
      </trkpt>
      <trkpt lat="42.92806" lon="0.73937">
        <ele>1730.5</ele>
        <time>2020-02-23T11:29:43Z</time>
      </trkpt>
      <trkpt lat="42.92806" lon="0.73937">
        <ele>1730.5</ele>
        <time>2020-02-23T11:29:44Z</time>
      </trkpt>
      <trkpt lat="42.92804" lon="0.73937">
        <ele>1730.6</ele>
        <time>2020-02-23T11:29:45Z</time>
      </trkpt>
      <trkpt lat="42.92804" lon="0.73937">
        <ele>1730.6</ele>
        <time>2020-02-23T11:29:46Z</time>
      </trkpt>
      <trkpt lat="42.92802" lon="0.73936">
        <ele>1730.6</ele>
        <time>2020-02-23T11:29:47Z</time>
      </trkpt>
      <trkpt lat="42.92802" lon="0.73936">
        <ele>1730.6</ele>
        <time>2020-02-23T11:29:48Z</time>
      </trkpt>
      <trkpt lat="42.928" lon="0.73936">
        <ele>1730.7</ele>
        <time>2020-02-23T11:29:49Z</time>
      </trkpt>
      <trkpt lat="42.928" lon="0.73936">
        <ele>1730.7</ele>
        <time>2020-02-23T11:29:50Z</time>
      </trkpt>
      <trkpt lat="42.928" lon="0.73936">
        <ele>1730.7</ele>
        <time>2020-02-23T11:29:51Z</time>
      </trkpt>
      <trkpt lat="42.928" lon="0.73936">
        <ele>1730.7</ele>
        <time>2020-02-23T11:29:52Z</time>
      </trkpt>
      <trkpt lat="42.928" lon="0.73936">
        <ele>1730.7</ele>
        <time>2020-02-23T11:29:53Z</time>
      </trkpt>
      <trkpt lat="42.928" lon="0.73936">
        <ele>1730.7</ele>
        <time>2020-02-23T11:29:54Z</time>
      </trkpt>
      <trkpt lat="42.928" lon="0.73936">
        <ele>1730.7</ele>
        <time>2020-02-23T11:29:55Z</time>
      </trkpt>
      <trkpt lat="42.928" lon="0.73936">
        <ele>1730.7</ele>
        <time>2020-02-23T11:29:56Z</time>
      </trkpt>
      <trkpt lat="42.92798" lon="0.73935">
        <ele>1730.8</ele>
        <time>2020-02-23T11:29:57Z</time>
      </trkpt>
      <trkpt lat="42.92798" lon="0.73935">
        <ele>1730.8</ele>
        <time>2020-02-23T11:29:58Z</time>
      </trkpt>
      <trkpt lat="42.92798" lon="0.73935">
        <ele>1730.8</ele>
        <time>2020-02-23T11:29:59Z</time>
      </trkpt>
      <trkpt lat="42.92797" lon="0.73933">
        <ele>1730.1</ele>
        <time>2020-02-23T11:30:00Z</time>
      </trkpt>
      <trkpt lat="42.92797" lon="0.73933">
        <ele>1730.1</ele>
        <time>2020-02-23T11:30:01Z</time>
      </trkpt>
      <trkpt lat="42.92797" lon="0.73933">
        <ele>1730.1</ele>
        <time>2020-02-23T11:30:02Z</time>
      </trkpt>
      <trkpt lat="42.92795" lon="0.7393">
        <ele>1729.3</ele>
        <time>2020-02-23T11:30:03Z</time>
      </trkpt>
      <trkpt lat="42.92795" lon="0.7393">
        <ele>1729.3</ele>
        <time>2020-02-23T11:30:04Z</time>
      </trkpt>
      <trkpt lat="42.92794" lon="0.73927">
        <ele>1728.8</ele>
        <time>2020-02-23T11:30:05Z</time>
      </trkpt>
      <trkpt lat="42.92794" lon="0.73927">
        <ele>1728.8</ele>
        <time>2020-02-23T11:30:06Z</time>
      </trkpt>
      <trkpt lat="42.92794" lon="0.73927">
        <ele>1728.8</ele>
        <time>2020-02-23T11:30:07Z</time>
      </trkpt>
      <trkpt lat="42.92794" lon="0.73927">
        <ele>1728.8</ele>
        <time>2020-02-23T11:30:08Z</time>
      </trkpt>
      <trkpt lat="42.92794" lon="0.73924">
        <ele>1728</ele>
        <time>2020-02-23T11:30:09Z</time>
      </trkpt>
      <trkpt lat="42.92794" lon="0.73924">
        <ele>1728</ele>
        <time>2020-02-23T11:30:10Z</time>
      </trkpt>
      <trkpt lat="42.92794" lon="0.73924">
        <ele>1728</ele>
        <time>2020-02-23T11:30:11Z</time>
      </trkpt>
      <trkpt lat="42.92795" lon="0.73921">
        <ele>1727</ele>
        <time>2020-02-23T11:30:12Z</time>
      </trkpt>
      <trkpt lat="42.92795" lon="0.73921">
        <ele>1727</ele>
        <time>2020-02-23T11:30:13Z</time>
      </trkpt>
      <trkpt lat="42.92795" lon="0.73919">
        <ele>1726.2</ele>
        <time>2020-02-23T11:30:14Z</time>
      </trkpt>
      <trkpt lat="42.92795" lon="0.73919">
        <ele>1726.2</ele>
        <time>2020-02-23T11:30:15Z</time>
      </trkpt>
      <trkpt lat="42.92795" lon="0.73916">
        <ele>1725.1</ele>
        <time>2020-02-23T11:30:16Z</time>
      </trkpt>
      <trkpt lat="42.92795" lon="0.73916">
        <ele>1725.1</ele>
        <time>2020-02-23T11:30:17Z</time>
      </trkpt>
      <trkpt lat="42.92796" lon="0.73912">
        <ele>1723.9</ele>
        <time>2020-02-23T11:30:18Z</time>
      </trkpt>
      <trkpt lat="42.92796" lon="0.73908">
        <ele>1722.8</ele>
        <time>2020-02-23T11:30:19Z</time>
      </trkpt>
      <trkpt lat="42.92796" lon="0.73908">
        <ele>1722.8</ele>
        <time>2020-02-23T11:30:20Z</time>
      </trkpt>
      <trkpt lat="42.92796" lon="0.73908">
        <ele>1722.8</ele>
        <time>2020-02-23T11:30:21Z</time>
      </trkpt>
      <trkpt lat="42.92796" lon="0.73905">
        <ele>1722</ele>
        <time>2020-02-23T11:30:22Z</time>
      </trkpt>
      <trkpt lat="42.92796" lon="0.73905">
        <ele>1722</ele>
        <time>2020-02-23T11:30:23Z</time>
      </trkpt>
      <trkpt lat="42.92795" lon="0.73902">
        <ele>1721.3</ele>
        <time>2020-02-23T11:30:24Z</time>
      </trkpt>
      <trkpt lat="42.92795" lon="0.73902">
        <ele>1721.3</ele>
        <time>2020-02-23T11:30:25Z</time>
      </trkpt>
      <trkpt lat="42.92796" lon="0.73899">
        <ele>1720.3</ele>
        <time>2020-02-23T11:30:26Z</time>
      </trkpt>
      <trkpt lat="42.92796" lon="0.73899">
        <ele>1720.3</ele>
        <time>2020-02-23T11:30:27Z</time>
      </trkpt>
      <trkpt lat="42.92796" lon="0.73899">
        <ele>1720.3</ele>
        <time>2020-02-23T11:30:28Z</time>
      </trkpt>
      <trkpt lat="42.92796" lon="0.73895">
        <ele>1719.1</ele>
        <time>2020-02-23T11:30:29Z</time>
      </trkpt>
      <trkpt lat="42.92796" lon="0.73895">
        <ele>1719.1</ele>
        <time>2020-02-23T11:30:30Z</time>
      </trkpt>
      <trkpt lat="42.92797" lon="0.73891">
        <ele>1718</ele>
        <time>2020-02-23T11:30:31Z</time>
      </trkpt>
      <trkpt lat="42.92797" lon="0.73891">
        <ele>1718</ele>
        <time>2020-02-23T11:30:32Z</time>
      </trkpt>
      <trkpt lat="42.92797" lon="0.73889">
        <ele>1717.4</ele>
        <time>2020-02-23T11:30:33Z</time>
      </trkpt>
      <trkpt lat="42.92797" lon="0.73889">
        <ele>1717.4</ele>
        <time>2020-02-23T11:30:34Z</time>
      </trkpt>
      <trkpt lat="42.92797" lon="0.73889">
        <ele>1717.4</ele>
        <time>2020-02-23T11:30:35Z</time>
      </trkpt>
      <trkpt lat="42.92798" lon="0.73885">
        <ele>1716.6</ele>
        <time>2020-02-23T11:30:36Z</time>
      </trkpt>
      <trkpt lat="42.92799" lon="0.73883">
        <ele>1716</ele>
        <time>2020-02-23T11:30:37Z</time>
      </trkpt>
      <trkpt lat="42.92799" lon="0.73883">
        <ele>1716</ele>
        <time>2020-02-23T11:30:38Z</time>
      </trkpt>
      <trkpt lat="42.92799" lon="0.73883">
        <ele>1716</ele>
        <time>2020-02-23T11:30:39Z</time>
      </trkpt>
      <trkpt lat="42.928" lon="0.7388">
        <ele>1715.4</ele>
        <time>2020-02-23T11:30:40Z</time>
      </trkpt>
      <trkpt lat="42.928" lon="0.7388">
        <ele>1715.4</ele>
        <time>2020-02-23T11:30:41Z</time>
      </trkpt>
      <trkpt lat="42.92801" lon="0.73877">
        <ele>1714.5</ele>
        <time>2020-02-23T11:30:42Z</time>
      </trkpt>
      <trkpt lat="42.92801" lon="0.73877">
        <ele>1714.5</ele>
        <time>2020-02-23T11:30:43Z</time>
      </trkpt>
      <trkpt lat="42.92801" lon="0.73877">
        <ele>1714.5</ele>
        <time>2020-02-23T11:30:44Z</time>
      </trkpt>
      <trkpt lat="42.92801" lon="0.73875">
        <ele>1713.5</ele>
        <time>2020-02-23T11:30:45Z</time>
      </trkpt>
      <trkpt lat="42.92801" lon="0.73875">
        <ele>1713.5</ele>
        <time>2020-02-23T11:30:46Z</time>
      </trkpt>
      <trkpt lat="42.92801" lon="0.73872">
        <ele>1712.5</ele>
        <time>2020-02-23T11:30:47Z</time>
      </trkpt>
      <trkpt lat="42.92802" lon="0.7387">
        <ele>1711.5</ele>
        <time>2020-02-23T11:30:48Z</time>
      </trkpt>
      <trkpt lat="42.92802" lon="0.7387">
        <ele>1711.5</ele>
        <time>2020-02-23T11:30:49Z</time>
      </trkpt>
      <trkpt lat="42.92802" lon="0.7387">
        <ele>1711.5</ele>
        <time>2020-02-23T11:30:50Z</time>
      </trkpt>
      <trkpt lat="42.92802" lon="0.7387">
        <ele>1711.5</ele>
        <time>2020-02-23T11:30:51Z</time>
      </trkpt>
      <trkpt lat="42.92803" lon="0.73867">
        <ele>1710.4</ele>
        <time>2020-02-23T11:30:52Z</time>
      </trkpt>
      <trkpt lat="42.92803" lon="0.73867">
        <ele>1710.4</ele>
        <time>2020-02-23T11:30:53Z</time>
      </trkpt>
      <trkpt lat="42.92803" lon="0.73867">
        <ele>1710.4</ele>
        <time>2020-02-23T11:30:54Z</time>
      </trkpt>
      <trkpt lat="42.92805" lon="0.73865">
        <ele>1709.8</ele>
        <time>2020-02-23T11:30:55Z</time>
      </trkpt>
      <trkpt lat="42.92805" lon="0.73865">
        <ele>1709.8</ele>
        <time>2020-02-23T11:30:56Z</time>
      </trkpt>
      <trkpt lat="42.92805" lon="0.73865">
        <ele>1709.8</ele>
        <time>2020-02-23T11:30:57Z</time>
      </trkpt>
      <trkpt lat="42.92805" lon="0.73865">
        <ele>1709.8</ele>
        <time>2020-02-23T11:30:58Z</time>
      </trkpt>
      <trkpt lat="42.92806" lon="0.73862">
        <ele>1709</ele>
        <time>2020-02-23T11:30:59Z</time>
      </trkpt>
      <trkpt lat="42.92806" lon="0.73862">
        <ele>1709</ele>
        <time>2020-02-23T11:31:00Z</time>
      </trkpt>
      <trkpt lat="42.92806" lon="0.73862">
        <ele>1709</ele>
        <time>2020-02-23T11:31:01Z</time>
      </trkpt>
      <trkpt lat="42.92806" lon="0.73859">
        <ele>1708.3</ele>
        <time>2020-02-23T11:31:02Z</time>
      </trkpt>
      <trkpt lat="42.92806" lon="0.73859">
        <ele>1708.3</ele>
        <time>2020-02-23T11:31:03Z</time>
      </trkpt>
      <trkpt lat="42.92806" lon="0.73859">
        <ele>1708.3</ele>
        <time>2020-02-23T11:31:04Z</time>
      </trkpt>
      <trkpt lat="42.92807" lon="0.73856">
        <ele>1707.7</ele>
        <time>2020-02-23T11:31:05Z</time>
      </trkpt>
      <trkpt lat="42.92807" lon="0.73856">
        <ele>1707.7</ele>
        <time>2020-02-23T11:31:06Z</time>
      </trkpt>
      <trkpt lat="42.92807" lon="0.73856">
        <ele>1707.7</ele>
        <time>2020-02-23T11:31:07Z</time>
      </trkpt>
      <trkpt lat="42.92808" lon="0.73853">
        <ele>1706.9</ele>
        <time>2020-02-23T11:31:08Z</time>
      </trkpt>
      <trkpt lat="42.92808" lon="0.73853">
        <ele>1706.9</ele>
        <time>2020-02-23T11:31:09Z</time>
      </trkpt>
      <trkpt lat="42.92808" lon="0.73853">
        <ele>1706.9</ele>
        <time>2020-02-23T11:31:10Z</time>
      </trkpt>
      <trkpt lat="42.92808" lon="0.73853">
        <ele>1706.9</ele>
        <time>2020-02-23T11:31:11Z</time>
      </trkpt>
      <trkpt lat="42.92808" lon="0.73851">
        <ele>1706.3</ele>
        <time>2020-02-23T11:31:12Z</time>
      </trkpt>
      <trkpt lat="42.92808" lon="0.73851">
        <ele>1706.3</ele>
        <time>2020-02-23T11:31:13Z</time>
      </trkpt>
      <trkpt lat="42.92808" lon="0.73851">
        <ele>1706.3</ele>
        <time>2020-02-23T11:31:14Z</time>
      </trkpt>
      <trkpt lat="42.92809" lon="0.73848">
        <ele>1705.6</ele>
        <time>2020-02-23T11:31:15Z</time>
      </trkpt>
      <trkpt lat="42.92809" lon="0.73848">
        <ele>1705.6</ele>
        <time>2020-02-23T11:31:16Z</time>
      </trkpt>
      <trkpt lat="42.92809" lon="0.73848">
        <ele>1705.6</ele>
        <time>2020-02-23T11:31:17Z</time>
      </trkpt>
      <trkpt lat="42.92809" lon="0.73848">
        <ele>1705.6</ele>
        <time>2020-02-23T11:31:18Z</time>
      </trkpt>
      <trkpt lat="42.92809" lon="0.73848">
        <ele>1705.6</ele>
        <time>2020-02-23T11:31:19Z</time>
      </trkpt>
      <trkpt lat="42.9281" lon="0.73846">
        <ele>1704.9</ele>
        <time>2020-02-23T11:31:20Z</time>
      </trkpt>
      <trkpt lat="42.9281" lon="0.73846">
        <ele>1704.9</ele>
        <time>2020-02-23T11:31:21Z</time>
      </trkpt>
      <trkpt lat="42.92811" lon="0.73844">
        <ele>1704.2</ele>
        <time>2020-02-23T11:31:22Z</time>
      </trkpt>
      <trkpt lat="42.92811" lon="0.73844">
        <ele>1704.2</ele>
        <time>2020-02-23T11:31:23Z</time>
      </trkpt>
      <trkpt lat="42.92811" lon="0.73844">
        <ele>1704.2</ele>
        <time>2020-02-23T11:31:24Z</time>
      </trkpt>
      <trkpt lat="42.92811" lon="0.73841">
        <ele>1703.5</ele>
        <time>2020-02-23T11:31:25Z</time>
      </trkpt>
      <trkpt lat="42.92811" lon="0.73841">
        <ele>1703.5</ele>
        <time>2020-02-23T11:31:26Z</time>
      </trkpt>
      <trkpt lat="42.92811" lon="0.73841">
        <ele>1703.5</ele>
        <time>2020-02-23T11:31:27Z</time>
      </trkpt>
      <trkpt lat="42.92812" lon="0.73838">
        <ele>1702.8</ele>
        <time>2020-02-23T11:31:28Z</time>
      </trkpt>
      <trkpt lat="42.92812" lon="0.73838">
        <ele>1702.8</ele>
        <time>2020-02-23T11:31:29Z</time>
      </trkpt>
      <trkpt lat="42.92812" lon="0.73838">
        <ele>1702.8</ele>
        <time>2020-02-23T11:31:30Z</time>
      </trkpt>
      <trkpt lat="42.92812" lon="0.73838">
        <ele>1702.8</ele>
        <time>2020-02-23T11:31:31Z</time>
      </trkpt>
      <trkpt lat="42.92813" lon="0.73836">
        <ele>1702</ele>
        <time>2020-02-23T11:31:32Z</time>
      </trkpt>
      <trkpt lat="42.92813" lon="0.73836">
        <ele>1702</ele>
        <time>2020-02-23T11:31:33Z</time>
      </trkpt>
      <trkpt lat="42.92813" lon="0.73836">
        <ele>1702</ele>
        <time>2020-02-23T11:31:34Z</time>
      </trkpt>
      <trkpt lat="42.92813" lon="0.73836">
        <ele>1702</ele>
        <time>2020-02-23T11:31:35Z</time>
      </trkpt>
      <trkpt lat="42.92813" lon="0.73833">
        <ele>1701.2</ele>
        <time>2020-02-23T11:31:36Z</time>
      </trkpt>
      <trkpt lat="42.92813" lon="0.73833">
        <ele>1701.2</ele>
        <time>2020-02-23T11:31:37Z</time>
      </trkpt>
      <trkpt lat="42.92813" lon="0.73833">
        <ele>1701.2</ele>
        <time>2020-02-23T11:31:38Z</time>
      </trkpt>
      <trkpt lat="42.92815" lon="0.7383">
        <ele>1700.5</ele>
        <time>2020-02-23T11:31:39Z</time>
      </trkpt>
      <trkpt lat="42.92815" lon="0.7383">
        <ele>1700.5</ele>
        <time>2020-02-23T11:31:40Z</time>
      </trkpt>
      <trkpt lat="42.92817" lon="0.73828">
        <ele>1699.7</ele>
        <time>2020-02-23T11:31:41Z</time>
      </trkpt>
      <trkpt lat="42.92817" lon="0.73828">
        <ele>1699.7</ele>
        <time>2020-02-23T11:31:42Z</time>
      </trkpt>
      <trkpt lat="42.92817" lon="0.73828">
        <ele>1699.7</ele>
        <time>2020-02-23T11:31:43Z</time>
      </trkpt>
      <trkpt lat="42.92817" lon="0.73828">
        <ele>1699.7</ele>
        <time>2020-02-23T11:31:44Z</time>
      </trkpt>
      <trkpt lat="42.92818" lon="0.73826">
        <ele>1699.2</ele>
        <time>2020-02-23T11:31:45Z</time>
      </trkpt>
      <trkpt lat="42.92818" lon="0.73826">
        <ele>1699.2</ele>
        <time>2020-02-23T11:31:46Z</time>
      </trkpt>
      <trkpt lat="42.92821" lon="0.73821">
        <ele>1697.9</ele>
        <time>2020-02-23T11:31:47Z</time>
      </trkpt>
      <trkpt lat="42.92821" lon="0.73821">
        <ele>1697.9</ele>
        <time>2020-02-23T11:31:48Z</time>
      </trkpt>
      <trkpt lat="42.92821" lon="0.73821">
        <ele>1697.9</ele>
        <time>2020-02-23T11:31:49Z</time>
      </trkpt>
      <trkpt lat="42.92822" lon="0.73819">
        <ele>1697.2</ele>
        <time>2020-02-23T11:31:50Z</time>
      </trkpt>
      <trkpt lat="42.92822" lon="0.73819">
        <ele>1697.2</ele>
        <time>2020-02-23T11:31:51Z</time>
      </trkpt>
      <trkpt lat="42.92824" lon="0.73818">
        <ele>1696.6</ele>
        <time>2020-02-23T11:31:52Z</time>
      </trkpt>
      <trkpt lat="42.92824" lon="0.73818">
        <ele>1696.6</ele>
        <time>2020-02-23T11:31:53Z</time>
      </trkpt>
      <trkpt lat="42.92824" lon="0.73818">
        <ele>1696.6</ele>
        <time>2020-02-23T11:31:54Z</time>
      </trkpt>
      <trkpt lat="42.92825" lon="0.73815">
        <ele>1695.9</ele>
        <time>2020-02-23T11:31:55Z</time>
      </trkpt>
      <trkpt lat="42.92825" lon="0.73815">
        <ele>1695.9</ele>
        <time>2020-02-23T11:31:56Z</time>
      </trkpt>
      <trkpt lat="42.92825" lon="0.73813">
        <ele>1695.4</ele>
        <time>2020-02-23T11:31:57Z</time>
      </trkpt>
      <trkpt lat="42.92825" lon="0.73813">
        <ele>1695.4</ele>
        <time>2020-02-23T11:31:58Z</time>
      </trkpt>
      <trkpt lat="42.92825" lon="0.73813">
        <ele>1695.4</ele>
        <time>2020-02-23T11:31:59Z</time>
      </trkpt>
      <trkpt lat="42.92825" lon="0.73807">
        <ele>1693.5</ele>
        <time>2020-02-23T11:32:00Z</time>
      </trkpt>
      <trkpt lat="42.92825" lon="0.73807">
        <ele>1693.5</ele>
        <time>2020-02-23T11:32:01Z</time>
      </trkpt>
      <trkpt lat="42.92825" lon="0.73807">
        <ele>1693.5</ele>
        <time>2020-02-23T11:32:02Z</time>
      </trkpt>
      <trkpt lat="42.92826" lon="0.73804">
        <ele>1693.1</ele>
        <time>2020-02-23T11:32:03Z</time>
      </trkpt>
      <trkpt lat="42.92826" lon="0.73804">
        <ele>1693.1</ele>
        <time>2020-02-23T11:32:04Z</time>
      </trkpt>
      <trkpt lat="42.92827" lon="0.73802">
        <ele>1692.8</ele>
        <time>2020-02-23T11:32:05Z</time>
      </trkpt>
      <trkpt lat="42.92827" lon="0.73802">
        <ele>1692.8</ele>
        <time>2020-02-23T11:32:06Z</time>
      </trkpt>
      <trkpt lat="42.92827" lon="0.73802">
        <ele>1692.8</ele>
        <time>2020-02-23T11:32:07Z</time>
      </trkpt>
      <trkpt lat="42.92829" lon="0.73801">
        <ele>1692.3</ele>
        <time>2020-02-23T11:32:08Z</time>
      </trkpt>
      <trkpt lat="42.92829" lon="0.73801">
        <ele>1692.3</ele>
        <time>2020-02-23T11:32:09Z</time>
      </trkpt>
      <trkpt lat="42.92831" lon="0.73799">
        <ele>1691.9</ele>
        <time>2020-02-23T11:32:10Z</time>
      </trkpt>
      <trkpt lat="42.92831" lon="0.73799">
        <ele>1691.9</ele>
        <time>2020-02-23T11:32:11Z</time>
      </trkpt>
      <trkpt lat="42.92833" lon="0.73797">
        <ele>1691.5</ele>
        <time>2020-02-23T11:32:12Z</time>
      </trkpt>
      <trkpt lat="42.92833" lon="0.73797">
        <ele>1691.5</ele>
        <time>2020-02-23T11:32:13Z</time>
      </trkpt>
      <trkpt lat="42.92833" lon="0.73797">
        <ele>1691.5</ele>
        <time>2020-02-23T11:32:14Z</time>
      </trkpt>
      <trkpt lat="42.92833" lon="0.73797">
        <ele>1691.5</ele>
        <time>2020-02-23T11:32:15Z</time>
      </trkpt>
      <trkpt lat="42.92834" lon="0.73794">
        <ele>1691.1</ele>
        <time>2020-02-23T11:32:16Z</time>
      </trkpt>
      <trkpt lat="42.92834" lon="0.73794">
        <ele>1691.1</ele>
        <time>2020-02-23T11:32:17Z</time>
      </trkpt>
      <trkpt lat="42.92834" lon="0.73794">
        <ele>1691.1</ele>
        <time>2020-02-23T11:32:18Z</time>
      </trkpt>
      <trkpt lat="42.92834" lon="0.73794">
        <ele>1691.1</ele>
        <time>2020-02-23T11:32:19Z</time>
      </trkpt>
      <trkpt lat="42.92836" lon="0.73792">
        <ele>1690.7</ele>
        <time>2020-02-23T11:32:20Z</time>
      </trkpt>
      <trkpt lat="42.92836" lon="0.73792">
        <ele>1690.7</ele>
        <time>2020-02-23T11:32:21Z</time>
      </trkpt>
      <trkpt lat="42.92836" lon="0.73792">
        <ele>1690.7</ele>
        <time>2020-02-23T11:32:22Z</time>
      </trkpt>
      <trkpt lat="42.92837" lon="0.73789">
        <ele>1690.3</ele>
        <time>2020-02-23T11:32:23Z</time>
      </trkpt>
      <trkpt lat="42.92837" lon="0.73789">
        <ele>1690.3</ele>
        <time>2020-02-23T11:32:24Z</time>
      </trkpt>
      <trkpt lat="42.92837" lon="0.73789">
        <ele>1690.3</ele>
        <time>2020-02-23T11:32:25Z</time>
      </trkpt>
      <trkpt lat="42.92837" lon="0.73789">
        <ele>1690.3</ele>
        <time>2020-02-23T11:32:26Z</time>
      </trkpt>
      <trkpt lat="42.92837" lon="0.73789">
        <ele>1690.3</ele>
        <time>2020-02-23T11:32:27Z</time>
      </trkpt>
      <trkpt lat="42.92839" lon="0.73787">
        <ele>1689.8</ele>
        <time>2020-02-23T11:32:28Z</time>
      </trkpt>
      <trkpt lat="42.92839" lon="0.73787">
        <ele>1689.8</ele>
        <time>2020-02-23T11:32:29Z</time>
      </trkpt>
      <trkpt lat="42.9284" lon="0.73785">
        <ele>1689.5</ele>
        <time>2020-02-23T11:32:30Z</time>
      </trkpt>
      <trkpt lat="42.9284" lon="0.73785">
        <ele>1689.5</ele>
        <time>2020-02-23T11:32:31Z</time>
      </trkpt>
      <trkpt lat="42.92842" lon="0.73783">
        <ele>1689.1</ele>
        <time>2020-02-23T11:32:32Z</time>
      </trkpt>
      <trkpt lat="42.92842" lon="0.73783">
        <ele>1689.1</ele>
        <time>2020-02-23T11:32:33Z</time>
      </trkpt>
      <trkpt lat="42.92843" lon="0.7378">
        <ele>1688.6</ele>
        <time>2020-02-23T11:32:34Z</time>
      </trkpt>
      <trkpt lat="42.92843" lon="0.7378">
        <ele>1688.6</ele>
        <time>2020-02-23T11:32:35Z</time>
      </trkpt>
      <trkpt lat="42.92844" lon="0.73778">
        <ele>1688.3</ele>
        <time>2020-02-23T11:32:36Z</time>
      </trkpt>
      <trkpt lat="42.92844" lon="0.73778">
        <ele>1688.3</ele>
        <time>2020-02-23T11:32:37Z</time>
      </trkpt>
      <trkpt lat="42.92844" lon="0.73774">
        <ele>1688</ele>
        <time>2020-02-23T11:32:38Z</time>
      </trkpt>
      <trkpt lat="42.92844" lon="0.73774">
        <ele>1688</ele>
        <time>2020-02-23T11:32:39Z</time>
      </trkpt>
      <trkpt lat="42.92845" lon="0.73772">
        <ele>1687.6</ele>
        <time>2020-02-23T11:32:40Z</time>
      </trkpt>
      <trkpt lat="42.92845" lon="0.73769">
        <ele>1687.3</ele>
        <time>2020-02-23T11:32:41Z</time>
      </trkpt>
      <trkpt lat="42.92845" lon="0.73769">
        <ele>1687.3</ele>
        <time>2020-02-23T11:32:42Z</time>
      </trkpt>
      <trkpt lat="42.92845" lon="0.73769">
        <ele>1687.3</ele>
        <time>2020-02-23T11:32:43Z</time>
      </trkpt>
      <trkpt lat="42.92845" lon="0.73769">
        <ele>1687.3</ele>
        <time>2020-02-23T11:32:44Z</time>
      </trkpt>
      <trkpt lat="42.92846" lon="0.73767">
        <ele>1687</ele>
        <time>2020-02-23T11:32:45Z</time>
      </trkpt>
      <trkpt lat="42.92846" lon="0.73767">
        <ele>1687</ele>
        <time>2020-02-23T11:32:46Z</time>
      </trkpt>
      <trkpt lat="42.92846" lon="0.73767">
        <ele>1687</ele>
        <time>2020-02-23T11:32:47Z</time>
      </trkpt>
      <trkpt lat="42.92847" lon="0.73763">
        <ele>1686.6</ele>
        <time>2020-02-23T11:32:48Z</time>
      </trkpt>
      <trkpt lat="42.92847" lon="0.73763">
        <ele>1686.6</ele>
        <time>2020-02-23T11:32:49Z</time>
      </trkpt>
      <trkpt lat="42.92847" lon="0.73761">
        <ele>1686.2</ele>
        <time>2020-02-23T11:32:50Z</time>
      </trkpt>
      <trkpt lat="42.92847" lon="0.73761">
        <ele>1686.2</ele>
        <time>2020-02-23T11:32:51Z</time>
      </trkpt>
      <trkpt lat="42.92848" lon="0.73757">
        <ele>1685.7</ele>
        <time>2020-02-23T11:32:52Z</time>
      </trkpt>
      <trkpt lat="42.92849" lon="0.73754">
        <ele>1685.4</ele>
        <time>2020-02-23T11:32:53Z</time>
      </trkpt>
      <trkpt lat="42.92849" lon="0.73754">
        <ele>1685.4</ele>
        <time>2020-02-23T11:32:54Z</time>
      </trkpt>
      <trkpt lat="42.92849" lon="0.73754">
        <ele>1685.4</ele>
        <time>2020-02-23T11:32:55Z</time>
      </trkpt>
      <trkpt lat="42.9285" lon="0.73752">
        <ele>1685.1</ele>
        <time>2020-02-23T11:32:56Z</time>
      </trkpt>
      <trkpt lat="42.9285" lon="0.73752">
        <ele>1685.1</ele>
        <time>2020-02-23T11:32:57Z</time>
      </trkpt>
      <trkpt lat="42.9285" lon="0.73752">
        <ele>1685.1</ele>
        <time>2020-02-23T11:32:58Z</time>
      </trkpt>
      <trkpt lat="42.92852" lon="0.7375">
        <ele>1684.6</ele>
        <time>2020-02-23T11:32:59Z</time>
      </trkpt>
      <trkpt lat="42.92852" lon="0.7375">
        <ele>1684.6</ele>
        <time>2020-02-23T11:33:00Z</time>
      </trkpt>
      <trkpt lat="42.92853" lon="0.73748">
        <ele>1684.4</ele>
        <time>2020-02-23T11:33:01Z</time>
      </trkpt>
      <trkpt lat="42.92853" lon="0.73748">
        <ele>1684.4</ele>
        <time>2020-02-23T11:33:02Z</time>
      </trkpt>
      <trkpt lat="42.92853" lon="0.73748">
        <ele>1684.4</ele>
        <time>2020-02-23T11:33:03Z</time>
      </trkpt>
      <trkpt lat="42.92854" lon="0.73745">
        <ele>1684</ele>
        <time>2020-02-23T11:33:04Z</time>
      </trkpt>
      <trkpt lat="42.92854" lon="0.73745">
        <ele>1684</ele>
        <time>2020-02-23T11:33:05Z</time>
      </trkpt>
      <trkpt lat="42.92854" lon="0.73745">
        <ele>1684</ele>
        <time>2020-02-23T11:33:06Z</time>
      </trkpt>
      <trkpt lat="42.92855" lon="0.73741">
        <ele>1683.6</ele>
        <time>2020-02-23T11:33:07Z</time>
      </trkpt>
      <trkpt lat="42.92855" lon="0.73741">
        <ele>1683.6</ele>
        <time>2020-02-23T11:33:08Z</time>
      </trkpt>
      <trkpt lat="42.92856" lon="0.73739">
        <ele>1683.3</ele>
        <time>2020-02-23T11:33:09Z</time>
      </trkpt>
      <trkpt lat="42.92856" lon="0.73739">
        <ele>1683.3</ele>
        <time>2020-02-23T11:33:10Z</time>
      </trkpt>
      <trkpt lat="42.92856" lon="0.73739">
        <ele>1683.3</ele>
        <time>2020-02-23T11:33:11Z</time>
      </trkpt>
      <trkpt lat="42.92857" lon="0.73736">
        <ele>1682.9</ele>
        <time>2020-02-23T11:33:12Z</time>
      </trkpt>
      <trkpt lat="42.92857" lon="0.73736">
        <ele>1682.9</ele>
        <time>2020-02-23T11:33:13Z</time>
      </trkpt>
      <trkpt lat="42.92857" lon="0.73736">
        <ele>1682.9</ele>
        <time>2020-02-23T11:33:14Z</time>
      </trkpt>
      <trkpt lat="42.92858" lon="0.73733">
        <ele>1682.4</ele>
        <time>2020-02-23T11:33:15Z</time>
      </trkpt>
      <trkpt lat="42.92858" lon="0.73733">
        <ele>1682.4</ele>
        <time>2020-02-23T11:33:16Z</time>
      </trkpt>
      <trkpt lat="42.92859" lon="0.73731">
        <ele>1682.1</ele>
        <time>2020-02-23T11:33:17Z</time>
      </trkpt>
      <trkpt lat="42.92859" lon="0.73731">
        <ele>1682.1</ele>
        <time>2020-02-23T11:33:18Z</time>
      </trkpt>
      <trkpt lat="42.92859" lon="0.73731">
        <ele>1682.1</ele>
        <time>2020-02-23T11:33:19Z</time>
      </trkpt>
      <trkpt lat="42.92859" lon="0.73731">
        <ele>1682.1</ele>
        <time>2020-02-23T11:33:20Z</time>
      </trkpt>
      <trkpt lat="42.92859" lon="0.73731">
        <ele>1682.1</ele>
        <time>2020-02-23T11:33:21Z</time>
      </trkpt>
      <trkpt lat="42.92859" lon="0.73731">
        <ele>1682.1</ele>
        <time>2020-02-23T11:33:22Z</time>
      </trkpt>
      <trkpt lat="42.92859" lon="0.73731">
        <ele>1682.1</ele>
        <time>2020-02-23T11:33:23Z</time>
      </trkpt>
      <trkpt lat="42.92859" lon="0.73731">
        <ele>1682.1</ele>
        <time>2020-02-23T11:33:24Z</time>
      </trkpt>
      <trkpt lat="42.92859" lon="0.73731">
        <ele>1682.1</ele>
        <time>2020-02-23T11:33:25Z</time>
      </trkpt>
      <trkpt lat="42.92859" lon="0.73731">
        <ele>1682.1</ele>
        <time>2020-02-23T11:33:26Z</time>
      </trkpt>
      <trkpt lat="42.92859" lon="0.73731">
        <ele>1682.1</ele>
        <time>2020-02-23T11:33:27Z</time>
      </trkpt>
      <trkpt lat="42.92859" lon="0.73731">
        <ele>1682.1</ele>
        <time>2020-02-23T11:33:28Z</time>
      </trkpt>
      <trkpt lat="42.92859" lon="0.73731">
        <ele>1682.1</ele>
        <time>2020-02-23T11:33:29Z</time>
      </trkpt>
      <trkpt lat="42.92859" lon="0.73728">
        <ele>1681.7</ele>
        <time>2020-02-23T11:33:30Z</time>
      </trkpt>
      <trkpt lat="42.92859" lon="0.73728">
        <ele>1681.7</ele>
        <time>2020-02-23T11:33:31Z</time>
      </trkpt>
      <trkpt lat="42.92859" lon="0.73728">
        <ele>1681.7</ele>
        <time>2020-02-23T11:33:32Z</time>
      </trkpt>
      <trkpt lat="42.92857" lon="0.73727">
        <ele>1681.3</ele>
        <time>2020-02-23T11:33:33Z</time>
      </trkpt>
      <trkpt lat="42.92857" lon="0.73727">
        <ele>1681.3</ele>
        <time>2020-02-23T11:33:34Z</time>
      </trkpt>
      <trkpt lat="42.92857" lon="0.73727">
        <ele>1681.3</ele>
        <time>2020-02-23T11:33:35Z</time>
      </trkpt>
      <trkpt lat="42.92857" lon="0.73727">
        <ele>1681.3</ele>
        <time>2020-02-23T11:33:36Z</time>
      </trkpt>
      <trkpt lat="42.92857" lon="0.73727">
        <ele>1681.3</ele>
        <time>2020-02-23T11:33:37Z</time>
      </trkpt>
      <trkpt lat="42.92855" lon="0.73727">
        <ele>1680.9</ele>
        <time>2020-02-23T11:33:38Z</time>
      </trkpt>
      <trkpt lat="42.92855" lon="0.73727">
        <ele>1680.9</ele>
        <time>2020-02-23T11:33:39Z</time>
      </trkpt>
      <trkpt lat="42.92855" lon="0.73727">
        <ele>1680.9</ele>
        <time>2020-02-23T11:33:40Z</time>
      </trkpt>
      <trkpt lat="42.92855" lon="0.73727">
        <ele>1680.9</ele>
        <time>2020-02-23T11:33:41Z</time>
      </trkpt>
      <trkpt lat="42.92853" lon="0.73729">
        <ele>1680.5</ele>
        <time>2020-02-23T11:33:42Z</time>
      </trkpt>
      <trkpt lat="42.92853" lon="0.73729">
        <ele>1680.5</ele>
        <time>2020-02-23T11:33:43Z</time>
      </trkpt>
      <trkpt lat="42.92853" lon="0.73729">
        <ele>1680.5</ele>
        <time>2020-02-23T11:33:44Z</time>
      </trkpt>
      <trkpt lat="42.92853" lon="0.73729">
        <ele>1680.5</ele>
        <time>2020-02-23T11:33:45Z</time>
      </trkpt>
      <trkpt lat="42.92851" lon="0.73729">
        <ele>1680.2</ele>
        <time>2020-02-23T11:33:46Z</time>
      </trkpt>
      <trkpt lat="42.92851" lon="0.73729">
        <ele>1680.2</ele>
        <time>2020-02-23T11:33:47Z</time>
      </trkpt>
      <trkpt lat="42.92849" lon="0.73729">
        <ele>1679.9</ele>
        <time>2020-02-23T11:33:48Z</time>
      </trkpt>
      <trkpt lat="42.92847" lon="0.73729">
        <ele>1679.6</ele>
        <time>2020-02-23T11:33:49Z</time>
      </trkpt>
      <trkpt lat="42.92847" lon="0.73729">
        <ele>1679.6</ele>
        <time>2020-02-23T11:33:50Z</time>
      </trkpt>
      <trkpt lat="42.92847" lon="0.73729">
        <ele>1679.6</ele>
        <time>2020-02-23T11:33:51Z</time>
      </trkpt>
      <trkpt lat="42.92847" lon="0.73729">
        <ele>1679.6</ele>
        <time>2020-02-23T11:33:52Z</time>
      </trkpt>
      <trkpt lat="42.92845" lon="0.73729">
        <ele>1679.2</ele>
        <time>2020-02-23T11:33:53Z</time>
      </trkpt>
      <trkpt lat="42.92845" lon="0.73729">
        <ele>1679.2</ele>
        <time>2020-02-23T11:33:54Z</time>
      </trkpt>
      <trkpt lat="42.92842" lon="0.7373">
        <ele>1678.8</ele>
        <time>2020-02-23T11:33:55Z</time>
      </trkpt>
      <trkpt lat="42.92842" lon="0.7373">
        <ele>1678.8</ele>
        <time>2020-02-23T11:33:56Z</time>
      </trkpt>
      <trkpt lat="42.92842" lon="0.7373">
        <ele>1678.8</ele>
        <time>2020-02-23T11:33:57Z</time>
      </trkpt>
      <trkpt lat="42.9284" lon="0.73731">
        <ele>1678.5</ele>
        <time>2020-02-23T11:33:58Z</time>
      </trkpt>
      <trkpt lat="42.9284" lon="0.73731">
        <ele>1678.5</ele>
        <time>2020-02-23T11:33:59Z</time>
      </trkpt>
      <trkpt lat="42.92838" lon="0.7373">
        <ele>1678.1</ele>
        <time>2020-02-23T11:34:00Z</time>
      </trkpt>
      <trkpt lat="42.92838" lon="0.7373">
        <ele>1678.1</ele>
        <time>2020-02-23T11:34:01Z</time>
      </trkpt>
      <trkpt lat="42.92838" lon="0.7373">
        <ele>1678.1</ele>
        <time>2020-02-23T11:34:02Z</time>
      </trkpt>
      <trkpt lat="42.92836" lon="0.73729">
        <ele>1677.7</ele>
        <time>2020-02-23T11:34:03Z</time>
      </trkpt>
      <trkpt lat="42.92836" lon="0.73729">
        <ele>1677.7</ele>
        <time>2020-02-23T11:34:04Z</time>
      </trkpt>
      <trkpt lat="42.92834" lon="0.73727">
        <ele>1677.3</ele>
        <time>2020-02-23T11:34:05Z</time>
      </trkpt>
      <trkpt lat="42.92834" lon="0.73727">
        <ele>1677.3</ele>
        <time>2020-02-23T11:34:06Z</time>
      </trkpt>
      <trkpt lat="42.92833" lon="0.73724">
        <ele>1676.9</ele>
        <time>2020-02-23T11:34:07Z</time>
      </trkpt>
      <trkpt lat="42.92833" lon="0.73724">
        <ele>1676.9</ele>
        <time>2020-02-23T11:34:08Z</time>
      </trkpt>
      <trkpt lat="42.92833" lon="0.73724">
        <ele>1676.9</ele>
        <time>2020-02-23T11:34:09Z</time>
      </trkpt>
      <trkpt lat="42.92831" lon="0.73723">
        <ele>1676.4</ele>
        <time>2020-02-23T11:34:10Z</time>
      </trkpt>
      <trkpt lat="42.92831" lon="0.73723">
        <ele>1676.4</ele>
        <time>2020-02-23T11:34:11Z</time>
      </trkpt>
      <trkpt lat="42.92829" lon="0.7372">
        <ele>1675.9</ele>
        <time>2020-02-23T11:34:12Z</time>
      </trkpt>
      <trkpt lat="42.92829" lon="0.7372">
        <ele>1675.9</ele>
        <time>2020-02-23T11:34:13Z</time>
      </trkpt>
      <trkpt lat="42.92829" lon="0.7372">
        <ele>1675.9</ele>
        <time>2020-02-23T11:34:14Z</time>
      </trkpt>
      <trkpt lat="42.92828" lon="0.73719">
        <ele>1675.5</ele>
        <time>2020-02-23T11:34:15Z</time>
      </trkpt>
      <trkpt lat="42.92826" lon="0.73717">
        <ele>1675.1</ele>
        <time>2020-02-23T11:34:16Z</time>
      </trkpt>
      <trkpt lat="42.92826" lon="0.73717">
        <ele>1675.1</ele>
        <time>2020-02-23T11:34:17Z</time>
      </trkpt>
      <trkpt lat="42.92826" lon="0.73717">
        <ele>1675.1</ele>
        <time>2020-02-23T11:34:18Z</time>
      </trkpt>
      <trkpt lat="42.92824" lon="0.73715">
        <ele>1674.5</ele>
        <time>2020-02-23T11:34:19Z</time>
      </trkpt>
      <trkpt lat="42.92824" lon="0.73715">
        <ele>1674.5</ele>
        <time>2020-02-23T11:34:20Z</time>
      </trkpt>
      <trkpt lat="42.92823" lon="0.73713">
        <ele>1674</ele>
        <time>2020-02-23T11:34:21Z</time>
      </trkpt>
      <trkpt lat="42.92823" lon="0.73713">
        <ele>1674</ele>
        <time>2020-02-23T11:34:22Z</time>
      </trkpt>
      <trkpt lat="42.92822" lon="0.7371">
        <ele>1673.5</ele>
        <time>2020-02-23T11:34:23Z</time>
      </trkpt>
      <trkpt lat="42.92822" lon="0.7371">
        <ele>1673.5</ele>
        <time>2020-02-23T11:34:24Z</time>
      </trkpt>
      <trkpt lat="42.92821" lon="0.73707">
        <ele>1673</ele>
        <time>2020-02-23T11:34:25Z</time>
      </trkpt>
      <trkpt lat="42.92821" lon="0.73707">
        <ele>1673</ele>
        <time>2020-02-23T11:34:26Z</time>
      </trkpt>
      <trkpt lat="42.92821" lon="0.73707">
        <ele>1673</ele>
        <time>2020-02-23T11:34:27Z</time>
      </trkpt>
      <trkpt lat="42.9282" lon="0.73704">
        <ele>1672.5</ele>
        <time>2020-02-23T11:34:28Z</time>
      </trkpt>
      <trkpt lat="42.92819" lon="0.73702">
        <ele>1672.1</ele>
        <time>2020-02-23T11:34:29Z</time>
      </trkpt>
      <trkpt lat="42.92819" lon="0.73702">
        <ele>1672.1</ele>
        <time>2020-02-23T11:34:30Z</time>
      </trkpt>
      <trkpt lat="42.92819" lon="0.73702">
        <ele>1672.1</ele>
        <time>2020-02-23T11:34:31Z</time>
      </trkpt>
      <trkpt lat="42.92818" lon="0.73699">
        <ele>1671.5</ele>
        <time>2020-02-23T11:34:32Z</time>
      </trkpt>
      <trkpt lat="42.92818" lon="0.73696">
        <ele>1671</ele>
        <time>2020-02-23T11:34:33Z</time>
      </trkpt>
      <trkpt lat="42.92818" lon="0.73696">
        <ele>1671</ele>
        <time>2020-02-23T11:34:34Z</time>
      </trkpt>
      <trkpt lat="42.92818" lon="0.73696">
        <ele>1671</ele>
        <time>2020-02-23T11:34:35Z</time>
      </trkpt>
      <trkpt lat="42.92818" lon="0.73696">
        <ele>1671</ele>
        <time>2020-02-23T11:34:36Z</time>
      </trkpt>
      <trkpt lat="42.92817" lon="0.73693">
        <ele>1670.4</ele>
        <time>2020-02-23T11:34:37Z</time>
      </trkpt>
      <trkpt lat="42.92817" lon="0.73693">
        <ele>1670.4</ele>
        <time>2020-02-23T11:34:38Z</time>
      </trkpt>
      <trkpt lat="42.92817" lon="0.7369">
        <ele>1669.9</ele>
        <time>2020-02-23T11:34:39Z</time>
      </trkpt>
      <trkpt lat="42.92817" lon="0.7369">
        <ele>1669.9</ele>
        <time>2020-02-23T11:34:40Z</time>
      </trkpt>
      <trkpt lat="42.92817" lon="0.73688">
        <ele>1669.4</ele>
        <time>2020-02-23T11:34:41Z</time>
      </trkpt>
      <trkpt lat="42.92817" lon="0.73688">
        <ele>1669.4</ele>
        <time>2020-02-23T11:34:42Z</time>
      </trkpt>
      <trkpt lat="42.92817" lon="0.73688">
        <ele>1669.4</ele>
        <time>2020-02-23T11:34:43Z</time>
      </trkpt>
      <trkpt lat="42.92817" lon="0.73688">
        <ele>1669.4</ele>
        <time>2020-02-23T11:34:44Z</time>
      </trkpt>
      <trkpt lat="42.92816" lon="0.73685">
        <ele>1668.8</ele>
        <time>2020-02-23T11:34:45Z</time>
      </trkpt>
      <trkpt lat="42.92816" lon="0.73685">
        <ele>1668.8</ele>
        <time>2020-02-23T11:34:46Z</time>
      </trkpt>
      <trkpt lat="42.92816" lon="0.73685">
        <ele>1668.8</ele>
        <time>2020-02-23T11:34:47Z</time>
      </trkpt>
      <trkpt lat="42.92816" lon="0.73685">
        <ele>1668.8</ele>
        <time>2020-02-23T11:34:48Z</time>
      </trkpt>
      <trkpt lat="42.92816" lon="0.73682">
        <ele>1668.3</ele>
        <time>2020-02-23T11:34:49Z</time>
      </trkpt>
      <trkpt lat="42.92816" lon="0.73682">
        <ele>1668.3</ele>
        <time>2020-02-23T11:34:50Z</time>
      </trkpt>
      <trkpt lat="42.92816" lon="0.73682">
        <ele>1668.3</ele>
        <time>2020-02-23T11:34:51Z</time>
      </trkpt>
      <trkpt lat="42.92815" lon="0.7368">
        <ele>1667.7</ele>
        <time>2020-02-23T11:34:52Z</time>
      </trkpt>
      <trkpt lat="42.92815" lon="0.7368">
        <ele>1667.7</ele>
        <time>2020-02-23T11:34:53Z</time>
      </trkpt>
      <trkpt lat="42.92815" lon="0.7368">
        <ele>1667.7</ele>
        <time>2020-02-23T11:34:54Z</time>
      </trkpt>
      <trkpt lat="42.92813" lon="0.73676">
        <ele>1667.1</ele>
        <time>2020-02-23T11:34:55Z</time>
      </trkpt>
      <trkpt lat="42.92813" lon="0.73674">
        <ele>1666.5</ele>
        <time>2020-02-23T11:34:56Z</time>
      </trkpt>
      <trkpt lat="42.92813" lon="0.73674">
        <ele>1666.5</ele>
        <time>2020-02-23T11:34:57Z</time>
      </trkpt>
      <trkpt lat="42.92813" lon="0.73674">
        <ele>1666.5</ele>
        <time>2020-02-23T11:34:58Z</time>
      </trkpt>
      <trkpt lat="42.92813" lon="0.73674">
        <ele>1666.5</ele>
        <time>2020-02-23T11:34:59Z</time>
      </trkpt>
      <trkpt lat="42.92813" lon="0.73674">
        <ele>1666.5</ele>
        <time>2020-02-23T11:35:00Z</time>
      </trkpt>
      <trkpt lat="42.92811" lon="0.73671">
        <ele>1666</ele>
        <time>2020-02-23T11:35:01Z</time>
      </trkpt>
      <trkpt lat="42.92811" lon="0.73671">
        <ele>1666</ele>
        <time>2020-02-23T11:35:02Z</time>
      </trkpt>
      <trkpt lat="42.92811" lon="0.73671">
        <ele>1666</ele>
        <time>2020-02-23T11:35:03Z</time>
      </trkpt>
      <trkpt lat="42.9281" lon="0.73669">
        <ele>1665.5</ele>
        <time>2020-02-23T11:35:04Z</time>
      </trkpt>
      <trkpt lat="42.9281" lon="0.73669">
        <ele>1665.5</ele>
        <time>2020-02-23T11:35:05Z</time>
      </trkpt>
      <trkpt lat="42.9281" lon="0.73669">
        <ele>1665.5</ele>
        <time>2020-02-23T11:35:06Z</time>
      </trkpt>
      <trkpt lat="42.9281" lon="0.73665">
        <ele>1665</ele>
        <time>2020-02-23T11:35:07Z</time>
      </trkpt>
      <trkpt lat="42.9281" lon="0.73665">
        <ele>1665</ele>
        <time>2020-02-23T11:35:08Z</time>
      </trkpt>
      <trkpt lat="42.9281" lon="0.73663">
        <ele>1664.6</ele>
        <time>2020-02-23T11:35:09Z</time>
      </trkpt>
      <trkpt lat="42.9281" lon="0.73663">
        <ele>1664.6</ele>
        <time>2020-02-23T11:35:10Z</time>
      </trkpt>
      <trkpt lat="42.9281" lon="0.73663">
        <ele>1664.6</ele>
        <time>2020-02-23T11:35:11Z</time>
      </trkpt>
      <trkpt lat="42.9281" lon="0.73663">
        <ele>1664.6</ele>
        <time>2020-02-23T11:35:12Z</time>
      </trkpt>
      <trkpt lat="42.9281" lon="0.73663">
        <ele>1664.6</ele>
        <time>2020-02-23T11:35:13Z</time>
      </trkpt>
      <trkpt lat="42.9281" lon="0.73663">
        <ele>1664.6</ele>
        <time>2020-02-23T11:35:14Z</time>
      </trkpt>
      <trkpt lat="42.9281" lon="0.73663">
        <ele>1664.6</ele>
        <time>2020-02-23T11:35:15Z</time>
      </trkpt>
      <trkpt lat="42.9281" lon="0.73663">
        <ele>1664.6</ele>
        <time>2020-02-23T11:35:16Z</time>
      </trkpt>
      <trkpt lat="42.92811" lon="0.73662">
        <ele>1664.2</ele>
        <time>2020-02-23T11:35:17Z</time>
      </trkpt>
      <trkpt lat="42.92811" lon="0.73662">
        <ele>1664.2</ele>
        <time>2020-02-23T11:35:18Z</time>
      </trkpt>
      <trkpt lat="42.92811" lon="0.73662">
        <ele>1664.2</ele>
        <time>2020-02-23T11:35:19Z</time>
      </trkpt>
      <trkpt lat="42.92811" lon="0.73662">
        <ele>1664.2</ele>
        <time>2020-02-23T11:35:20Z</time>
      </trkpt>
      <trkpt lat="42.92811" lon="0.73662">
        <ele>1664.2</ele>
        <time>2020-02-23T11:35:21Z</time>
      </trkpt>
      <trkpt lat="42.92811" lon="0.73662">
        <ele>1664.2</ele>
        <time>2020-02-23T11:35:22Z</time>
      </trkpt>
      <trkpt lat="42.92809" lon="0.73661">
        <ele>1663.8</ele>
        <time>2020-02-23T11:35:23Z</time>
      </trkpt>
      <trkpt lat="42.92809" lon="0.73661">
        <ele>1663.8</ele>
        <time>2020-02-23T11:35:24Z</time>
      </trkpt>
      <trkpt lat="42.92809" lon="0.73661">
        <ele>1663.8</ele>
        <time>2020-02-23T11:35:25Z</time>
      </trkpt>
      <trkpt lat="42.92809" lon="0.73661">
        <ele>1663.8</ele>
        <time>2020-02-23T11:35:26Z</time>
      </trkpt>
      <trkpt lat="42.92807" lon="0.73661">
        <ele>1663.4</ele>
        <time>2020-02-23T11:35:27Z</time>
      </trkpt>
      <trkpt lat="42.92807" lon="0.73661">
        <ele>1663.4</ele>
        <time>2020-02-23T11:35:28Z</time>
      </trkpt>
      <trkpt lat="42.92807" lon="0.73661">
        <ele>1663.4</ele>
        <time>2020-02-23T11:35:29Z</time>
      </trkpt>
      <trkpt lat="42.92807" lon="0.73661">
        <ele>1663.4</ele>
        <time>2020-02-23T11:35:30Z</time>
      </trkpt>
      <trkpt lat="42.92807" lon="0.73661">
        <ele>1663.4</ele>
        <time>2020-02-23T11:35:31Z</time>
      </trkpt>
      <trkpt lat="42.92806" lon="0.73659">
        <ele>1663</ele>
        <time>2020-02-23T11:35:32Z</time>
      </trkpt>
      <trkpt lat="42.92806" lon="0.73659">
        <ele>1663</ele>
        <time>2020-02-23T11:35:33Z</time>
      </trkpt>
      <trkpt lat="42.92806" lon="0.73659">
        <ele>1663</ele>
        <time>2020-02-23T11:35:34Z</time>
      </trkpt>
      <trkpt lat="42.92806" lon="0.73659">
        <ele>1663</ele>
        <time>2020-02-23T11:35:35Z</time>
      </trkpt>
      <trkpt lat="42.92806" lon="0.73659">
        <ele>1663</ele>
        <time>2020-02-23T11:35:36Z</time>
      </trkpt>
      <trkpt lat="42.92806" lon="0.73659">
        <ele>1663</ele>
        <time>2020-02-23T11:35:37Z</time>
      </trkpt>
      <trkpt lat="42.92806" lon="0.73659">
        <ele>1663</ele>
        <time>2020-02-23T11:35:38Z</time>
      </trkpt>
      <trkpt lat="42.92806" lon="0.73659">
        <ele>1663</ele>
        <time>2020-02-23T11:35:39Z</time>
      </trkpt>
      <trkpt lat="42.92806" lon="0.73659">
        <ele>1663</ele>
        <time>2020-02-23T11:35:40Z</time>
      </trkpt>
      <trkpt lat="42.92806" lon="0.73659">
        <ele>1663</ele>
        <time>2020-02-23T11:35:41Z</time>
      </trkpt>
      <trkpt lat="42.92806" lon="0.73659">
        <ele>1663</ele>
        <time>2020-02-23T11:35:42Z</time>
      </trkpt>
      <trkpt lat="42.92806" lon="0.73659">
        <ele>1663</ele>
        <time>2020-02-23T11:35:43Z</time>
      </trkpt>
      <trkpt lat="42.92806" lon="0.73659">
        <ele>1663</ele>
        <time>2020-02-23T11:35:44Z</time>
      </trkpt>
      <trkpt lat="42.92806" lon="0.73659">
        <ele>1663</ele>
        <time>2020-02-23T11:35:45Z</time>
      </trkpt>
      <trkpt lat="42.92806" lon="0.73659">
        <ele>1663</ele>
        <time>2020-02-23T11:35:46Z</time>
      </trkpt>
      <trkpt lat="42.92806" lon="0.73659">
        <ele>1663</ele>
        <time>2020-02-23T11:35:47Z</time>
      </trkpt>
      <trkpt lat="42.92806" lon="0.73659">
        <ele>1663</ele>
        <time>2020-02-23T11:35:48Z</time>
      </trkpt>
      <trkpt lat="42.92807" lon="0.73657">
        <ele>1662.5</ele>
        <time>2020-02-23T11:35:49Z</time>
      </trkpt>
      <trkpt lat="42.92807" lon="0.73657">
        <ele>1662.5</ele>
        <time>2020-02-23T11:35:50Z</time>
      </trkpt>
      <trkpt lat="42.92807" lon="0.73657">
        <ele>1662.5</ele>
        <time>2020-02-23T11:35:51Z</time>
      </trkpt>
      <trkpt lat="42.92807" lon="0.73657">
        <ele>1662.5</ele>
        <time>2020-02-23T11:35:52Z</time>
      </trkpt>
      <trkpt lat="42.92807" lon="0.73654">
        <ele>1662.1</ele>
        <time>2020-02-23T11:35:53Z</time>
      </trkpt>
      <trkpt lat="42.92807" lon="0.73654">
        <ele>1662.1</ele>
        <time>2020-02-23T11:35:54Z</time>
      </trkpt>
      <trkpt lat="42.92807" lon="0.73654">
        <ele>1662.1</ele>
        <time>2020-02-23T11:35:55Z</time>
      </trkpt>
      <trkpt lat="42.92807" lon="0.73654">
        <ele>1662.1</ele>
        <time>2020-02-23T11:35:56Z</time>
      </trkpt>
      <trkpt lat="42.92807" lon="0.73654">
        <ele>1662.1</ele>
        <time>2020-02-23T11:35:57Z</time>
      </trkpt>
      <trkpt lat="42.92807" lon="0.73654">
        <ele>1662.1</ele>
        <time>2020-02-23T11:35:58Z</time>
      </trkpt>
      <trkpt lat="42.9281" lon="0.73654">
        <ele>1661.6</ele>
        <time>2020-02-23T11:35:59Z</time>
      </trkpt>
      <trkpt lat="42.9281" lon="0.73654">
        <ele>1661.6</ele>
        <time>2020-02-23T11:36:00Z</time>
      </trkpt>
      <trkpt lat="42.9281" lon="0.73654">
        <ele>1661.6</ele>
        <time>2020-02-23T11:36:01Z</time>
      </trkpt>
      <trkpt lat="42.9281" lon="0.73654">
        <ele>1661.6</ele>
        <time>2020-02-23T11:36:02Z</time>
      </trkpt>
      <trkpt lat="42.9281" lon="0.73651">
        <ele>1661</ele>
        <time>2020-02-23T11:36:03Z</time>
      </trkpt>
      <trkpt lat="42.9281" lon="0.73651">
        <ele>1661</ele>
        <time>2020-02-23T11:36:04Z</time>
      </trkpt>
      <trkpt lat="42.9281" lon="0.73651">
        <ele>1661</ele>
        <time>2020-02-23T11:36:05Z</time>
      </trkpt>
      <trkpt lat="42.92811" lon="0.73649">
        <ele>1660.6</ele>
        <time>2020-02-23T11:36:06Z</time>
      </trkpt>
      <trkpt lat="42.92811" lon="0.73649">
        <ele>1660.6</ele>
        <time>2020-02-23T11:36:07Z</time>
      </trkpt>
      <trkpt lat="42.92811" lon="0.73649">
        <ele>1660.6</ele>
        <time>2020-02-23T11:36:08Z</time>
      </trkpt>
      <trkpt lat="42.92811" lon="0.73649">
        <ele>1660.6</ele>
        <time>2020-02-23T11:36:09Z</time>
      </trkpt>
      <trkpt lat="42.92811" lon="0.73649">
        <ele>1660.6</ele>
        <time>2020-02-23T11:36:10Z</time>
      </trkpt>
      <trkpt lat="42.92811" lon="0.73649">
        <ele>1660.6</ele>
        <time>2020-02-23T11:36:11Z</time>
      </trkpt>
      <trkpt lat="42.92811" lon="0.73649">
        <ele>1660.6</ele>
        <time>2020-02-23T11:36:12Z</time>
      </trkpt>
      <trkpt lat="42.92811" lon="0.73646">
        <ele>1660.2</ele>
        <time>2020-02-23T11:36:13Z</time>
      </trkpt>
      <trkpt lat="42.92811" lon="0.73646">
        <ele>1660.2</ele>
        <time>2020-02-23T11:36:14Z</time>
      </trkpt>
      <trkpt lat="42.92811" lon="0.73646">
        <ele>1660.2</ele>
        <time>2020-02-23T11:36:15Z</time>
      </trkpt>
      <trkpt lat="42.92811" lon="0.73646">
        <ele>1660.2</ele>
        <time>2020-02-23T11:36:16Z</time>
      </trkpt>
      <trkpt lat="42.92811" lon="0.73646">
        <ele>1660.2</ele>
        <time>2020-02-23T11:36:17Z</time>
      </trkpt>
      <trkpt lat="42.9281" lon="0.73644">
        <ele>1659.7</ele>
        <time>2020-02-23T11:36:18Z</time>
      </trkpt>
      <trkpt lat="42.9281" lon="0.7364">
        <ele>1659.2</ele>
        <time>2020-02-23T11:36:19Z</time>
      </trkpt>
      <trkpt lat="42.9281" lon="0.7364">
        <ele>1659.2</ele>
        <time>2020-02-23T11:36:20Z</time>
      </trkpt>
      <trkpt lat="42.9281" lon="0.73638">
        <ele>1658.8</ele>
        <time>2020-02-23T11:36:21Z</time>
      </trkpt>
      <trkpt lat="42.9281" lon="0.73638">
        <ele>1658.8</ele>
        <time>2020-02-23T11:36:22Z</time>
      </trkpt>
      <trkpt lat="42.9281" lon="0.73638">
        <ele>1658.8</ele>
        <time>2020-02-23T11:36:23Z</time>
      </trkpt>
      <trkpt lat="42.9281" lon="0.73635">
        <ele>1658.4</ele>
        <time>2020-02-23T11:36:24Z</time>
      </trkpt>
      <trkpt lat="42.9281" lon="0.73635">
        <ele>1658.4</ele>
        <time>2020-02-23T11:36:25Z</time>
      </trkpt>
      <trkpt lat="42.9281" lon="0.73635">
        <ele>1658.4</ele>
        <time>2020-02-23T11:36:26Z</time>
      </trkpt>
      <trkpt lat="42.92809" lon="0.73632">
        <ele>1657.8</ele>
        <time>2020-02-23T11:36:27Z</time>
      </trkpt>
      <trkpt lat="42.92809" lon="0.73632">
        <ele>1657.8</ele>
        <time>2020-02-23T11:36:28Z</time>
      </trkpt>
      <trkpt lat="42.92809" lon="0.73629">
        <ele>1657.4</ele>
        <time>2020-02-23T11:36:29Z</time>
      </trkpt>
      <trkpt lat="42.92809" lon="0.73629">
        <ele>1657.4</ele>
        <time>2020-02-23T11:36:30Z</time>
      </trkpt>
      <trkpt lat="42.92809" lon="0.73629">
        <ele>1657.4</ele>
        <time>2020-02-23T11:36:31Z</time>
      </trkpt>
      <trkpt lat="42.92809" lon="0.73626">
        <ele>1656.8</ele>
        <time>2020-02-23T11:36:32Z</time>
      </trkpt>
      <trkpt lat="42.92809" lon="0.73626">
        <ele>1656.8</ele>
        <time>2020-02-23T11:36:33Z</time>
      </trkpt>
      <trkpt lat="42.92809" lon="0.73622">
        <ele>1656.2</ele>
        <time>2020-02-23T11:36:34Z</time>
      </trkpt>
      <trkpt lat="42.92809" lon="0.73622">
        <ele>1656.2</ele>
        <time>2020-02-23T11:36:35Z</time>
      </trkpt>
      <trkpt lat="42.92809" lon="0.73622">
        <ele>1656.2</ele>
        <time>2020-02-23T11:36:36Z</time>
      </trkpt>
      <trkpt lat="42.92809" lon="0.73622">
        <ele>1656.2</ele>
        <time>2020-02-23T11:36:37Z</time>
      </trkpt>
      <trkpt lat="42.9281" lon="0.7362">
        <ele>1655.6</ele>
        <time>2020-02-23T11:36:38Z</time>
      </trkpt>
      <trkpt lat="42.9281" lon="0.7362">
        <ele>1655.6</ele>
        <time>2020-02-23T11:36:39Z</time>
      </trkpt>
      <trkpt lat="42.9281" lon="0.7362">
        <ele>1655.6</ele>
        <time>2020-02-23T11:36:40Z</time>
      </trkpt>
      <trkpt lat="42.9281" lon="0.73617">
        <ele>1655</ele>
        <time>2020-02-23T11:36:41Z</time>
      </trkpt>
      <trkpt lat="42.9281" lon="0.73617">
        <ele>1655</ele>
        <time>2020-02-23T11:36:42Z</time>
      </trkpt>
      <trkpt lat="42.9281" lon="0.73613">
        <ele>1654.4</ele>
        <time>2020-02-23T11:36:43Z</time>
      </trkpt>
      <trkpt lat="42.9281" lon="0.73613">
        <ele>1654.4</ele>
        <time>2020-02-23T11:36:44Z</time>
      </trkpt>
      <trkpt lat="42.9281" lon="0.73613">
        <ele>1654.4</ele>
        <time>2020-02-23T11:36:45Z</time>
      </trkpt>
      <trkpt lat="42.9281" lon="0.7361">
        <ele>1653.8</ele>
        <time>2020-02-23T11:36:46Z</time>
      </trkpt>
      <trkpt lat="42.9281" lon="0.7361">
        <ele>1653.8</ele>
        <time>2020-02-23T11:36:47Z</time>
      </trkpt>
      <trkpt lat="42.9281" lon="0.73607">
        <ele>1653.2</ele>
        <time>2020-02-23T11:36:48Z</time>
      </trkpt>
      <trkpt lat="42.9281" lon="0.73607">
        <ele>1653.2</ele>
        <time>2020-02-23T11:36:49Z</time>
      </trkpt>
      <trkpt lat="42.92812" lon="0.73605">
        <ele>1652.7</ele>
        <time>2020-02-23T11:36:50Z</time>
      </trkpt>
      <trkpt lat="42.92812" lon="0.73605">
        <ele>1652.7</ele>
        <time>2020-02-23T11:36:51Z</time>
      </trkpt>
      <trkpt lat="42.92812" lon="0.73605">
        <ele>1652.7</ele>
        <time>2020-02-23T11:36:52Z</time>
      </trkpt>
      <trkpt lat="42.92812" lon="0.73602">
        <ele>1652.1</ele>
        <time>2020-02-23T11:36:53Z</time>
      </trkpt>
      <trkpt lat="42.92812" lon="0.73602">
        <ele>1652.1</ele>
        <time>2020-02-23T11:36:54Z</time>
      </trkpt>
      <trkpt lat="42.92813" lon="0.73599">
        <ele>1651.5</ele>
        <time>2020-02-23T11:36:55Z</time>
      </trkpt>
      <trkpt lat="42.92813" lon="0.73599">
        <ele>1651.5</ele>
        <time>2020-02-23T11:36:56Z</time>
      </trkpt>
      <trkpt lat="42.92813" lon="0.73596">
        <ele>1650.8</ele>
        <time>2020-02-23T11:36:57Z</time>
      </trkpt>
      <trkpt lat="42.92813" lon="0.73596">
        <ele>1650.8</ele>
        <time>2020-02-23T11:36:58Z</time>
      </trkpt>
      <trkpt lat="42.92814" lon="0.73593">
        <ele>1650.1</ele>
        <time>2020-02-23T11:36:59Z</time>
      </trkpt>
      <trkpt lat="42.92814" lon="0.73593">
        <ele>1650.1</ele>
        <time>2020-02-23T11:37:00Z</time>
      </trkpt>
      <trkpt lat="42.92814" lon="0.7359">
        <ele>1649.5</ele>
        <time>2020-02-23T11:37:01Z</time>
      </trkpt>
      <trkpt lat="42.92814" lon="0.7359">
        <ele>1649.5</ele>
        <time>2020-02-23T11:37:02Z</time>
      </trkpt>
      <trkpt lat="42.92816" lon="0.73587">
        <ele>1648.6</ele>
        <time>2020-02-23T11:37:03Z</time>
      </trkpt>
      <trkpt lat="42.92816" lon="0.73587">
        <ele>1648.6</ele>
        <time>2020-02-23T11:37:04Z</time>
      </trkpt>
      <trkpt lat="42.92818" lon="0.73583">
        <ele>1647.7</ele>
        <time>2020-02-23T11:37:05Z</time>
      </trkpt>
      <trkpt lat="42.92818" lon="0.73583">
        <ele>1647.7</ele>
        <time>2020-02-23T11:37:06Z</time>
      </trkpt>
      <trkpt lat="42.92818" lon="0.73583">
        <ele>1647.7</ele>
        <time>2020-02-23T11:37:07Z</time>
      </trkpt>
      <trkpt lat="42.92819" lon="0.7358">
        <ele>1646.9</ele>
        <time>2020-02-23T11:37:08Z</time>
      </trkpt>
      <trkpt lat="42.92819" lon="0.7358">
        <ele>1646.9</ele>
        <time>2020-02-23T11:37:09Z</time>
      </trkpt>
      <trkpt lat="42.9282" lon="0.73576">
        <ele>1645.9</ele>
        <time>2020-02-23T11:37:10Z</time>
      </trkpt>
      <trkpt lat="42.9282" lon="0.73576">
        <ele>1645.9</ele>
        <time>2020-02-23T11:37:11Z</time>
      </trkpt>
      <trkpt lat="42.92821" lon="0.73574">
        <ele>1645.2</ele>
        <time>2020-02-23T11:37:12Z</time>
      </trkpt>
      <trkpt lat="42.92821" lon="0.73574">
        <ele>1645.2</ele>
        <time>2020-02-23T11:37:13Z</time>
      </trkpt>
      <trkpt lat="42.92821" lon="0.73574">
        <ele>1645.2</ele>
        <time>2020-02-23T11:37:14Z</time>
      </trkpt>
      <trkpt lat="42.92822" lon="0.7357">
        <ele>1644.3</ele>
        <time>2020-02-23T11:37:15Z</time>
      </trkpt>
      <trkpt lat="42.92822" lon="0.7357">
        <ele>1644.3</ele>
        <time>2020-02-23T11:37:16Z</time>
      </trkpt>
      <trkpt lat="42.92822" lon="0.7357">
        <ele>1644.3</ele>
        <time>2020-02-23T11:37:17Z</time>
      </trkpt>
      <trkpt lat="42.92822" lon="0.73567">
        <ele>1643.6</ele>
        <time>2020-02-23T11:37:18Z</time>
      </trkpt>
      <trkpt lat="42.92822" lon="0.73567">
        <ele>1643.6</ele>
        <time>2020-02-23T11:37:19Z</time>
      </trkpt>
      <trkpt lat="42.92823" lon="0.73565">
        <ele>1643</ele>
        <time>2020-02-23T11:37:20Z</time>
      </trkpt>
      <trkpt lat="42.92823" lon="0.73565">
        <ele>1643</ele>
        <time>2020-02-23T11:37:21Z</time>
      </trkpt>
      <trkpt lat="42.92823" lon="0.73565">
        <ele>1643</ele>
        <time>2020-02-23T11:37:22Z</time>
      </trkpt>
      <trkpt lat="42.92823" lon="0.73562">
        <ele>1642.4</ele>
        <time>2020-02-23T11:37:23Z</time>
      </trkpt>
      <trkpt lat="42.92823" lon="0.73562">
        <ele>1642.4</ele>
        <time>2020-02-23T11:37:24Z</time>
      </trkpt>
      <trkpt lat="42.92823" lon="0.7356">
        <ele>1641.8</ele>
        <time>2020-02-23T11:37:25Z</time>
      </trkpt>
      <trkpt lat="42.92823" lon="0.7356">
        <ele>1641.8</ele>
        <time>2020-02-23T11:37:26Z</time>
      </trkpt>
      <trkpt lat="42.92823" lon="0.7356">
        <ele>1641.8</ele>
        <time>2020-02-23T11:37:27Z</time>
      </trkpt>
      <trkpt lat="42.92823" lon="0.7356">
        <ele>1641.8</ele>
        <time>2020-02-23T11:37:28Z</time>
      </trkpt>
      <trkpt lat="42.92825" lon="0.73557">
        <ele>1640.8</ele>
        <time>2020-02-23T11:37:29Z</time>
      </trkpt>
      <trkpt lat="42.92825" lon="0.73557">
        <ele>1640.8</ele>
        <time>2020-02-23T11:37:30Z</time>
      </trkpt>
      <trkpt lat="42.92825" lon="0.73557">
        <ele>1640.8</ele>
        <time>2020-02-23T11:37:31Z</time>
      </trkpt>
      <trkpt lat="42.92827" lon="0.73555">
        <ele>1639.9</ele>
        <time>2020-02-23T11:37:32Z</time>
      </trkpt>
      <trkpt lat="42.92827" lon="0.73555">
        <ele>1639.9</ele>
        <time>2020-02-23T11:37:33Z</time>
      </trkpt>
      <trkpt lat="42.92827" lon="0.73552">
        <ele>1639.1</ele>
        <time>2020-02-23T11:37:34Z</time>
      </trkpt>
      <trkpt lat="42.92827" lon="0.73552">
        <ele>1639.1</ele>
        <time>2020-02-23T11:37:35Z</time>
      </trkpt>
      <trkpt lat="42.92827" lon="0.73549">
        <ele>1638.2</ele>
        <time>2020-02-23T11:37:36Z</time>
      </trkpt>
      <trkpt lat="42.92827" lon="0.73549">
        <ele>1638.2</ele>
        <time>2020-02-23T11:37:37Z</time>
      </trkpt>
      <trkpt lat="42.92827" lon="0.73549">
        <ele>1638.2</ele>
        <time>2020-02-23T11:37:38Z</time>
      </trkpt>
      <trkpt lat="42.92826" lon="0.73545">
        <ele>1637.3</ele>
        <time>2020-02-23T11:37:39Z</time>
      </trkpt>
      <trkpt lat="42.92826" lon="0.73545">
        <ele>1637.3</ele>
        <time>2020-02-23T11:37:40Z</time>
      </trkpt>
      <trkpt lat="42.92825" lon="0.73543">
        <ele>1636.6</ele>
        <time>2020-02-23T11:37:41Z</time>
      </trkpt>
      <trkpt lat="42.92825" lon="0.73543">
        <ele>1636.6</ele>
        <time>2020-02-23T11:37:42Z</time>
      </trkpt>
      <trkpt lat="42.92825" lon="0.73543">
        <ele>1636.6</ele>
        <time>2020-02-23T11:37:43Z</time>
      </trkpt>
      <trkpt lat="42.92824" lon="0.7354">
        <ele>1635.7</ele>
        <time>2020-02-23T11:37:44Z</time>
      </trkpt>
      <trkpt lat="42.92824" lon="0.7354">
        <ele>1635.7</ele>
        <time>2020-02-23T11:37:45Z</time>
      </trkpt>
      <trkpt lat="42.92823" lon="0.73537">
        <ele>1634.8</ele>
        <time>2020-02-23T11:37:46Z</time>
      </trkpt>
      <trkpt lat="42.92823" lon="0.73537">
        <ele>1634.8</ele>
        <time>2020-02-23T11:37:47Z</time>
      </trkpt>
      <trkpt lat="42.92823" lon="0.73537">
        <ele>1634.8</ele>
        <time>2020-02-23T11:37:48Z</time>
      </trkpt>
      <trkpt lat="42.92823" lon="0.73534">
        <ele>1633.8</ele>
        <time>2020-02-23T11:37:49Z</time>
      </trkpt>
      <trkpt lat="42.92823" lon="0.73534">
        <ele>1633.8</ele>
        <time>2020-02-23T11:37:50Z</time>
      </trkpt>
      <trkpt lat="42.92823" lon="0.73534">
        <ele>1633.8</ele>
        <time>2020-02-23T11:37:51Z</time>
      </trkpt>
      <trkpt lat="42.92823" lon="0.73531">
        <ele>1632.9</ele>
        <time>2020-02-23T11:37:52Z</time>
      </trkpt>
      <trkpt lat="42.92823" lon="0.73531">
        <ele>1632.9</ele>
        <time>2020-02-23T11:37:53Z</time>
      </trkpt>
      <trkpt lat="42.92823" lon="0.73531">
        <ele>1632.9</ele>
        <time>2020-02-23T11:37:54Z</time>
      </trkpt>
      <trkpt lat="42.92821" lon="0.73528">
        <ele>1632.2</ele>
        <time>2020-02-23T11:37:55Z</time>
      </trkpt>
      <trkpt lat="42.92821" lon="0.73528">
        <ele>1632.2</ele>
        <time>2020-02-23T11:37:56Z</time>
      </trkpt>
      <trkpt lat="42.92821" lon="0.73528">
        <ele>1632.2</ele>
        <time>2020-02-23T11:37:57Z</time>
      </trkpt>
      <trkpt lat="42.92819" lon="0.73527">
        <ele>1631.4</ele>
        <time>2020-02-23T11:37:58Z</time>
      </trkpt>
      <trkpt lat="42.92819" lon="0.73527">
        <ele>1631.4</ele>
        <time>2020-02-23T11:37:59Z</time>
      </trkpt>
      <trkpt lat="42.92819" lon="0.73527">
        <ele>1631.4</ele>
        <time>2020-02-23T11:38:00Z</time>
      </trkpt>
      <trkpt lat="42.92819" lon="0.73527">
        <ele>1631.4</ele>
        <time>2020-02-23T11:38:01Z</time>
      </trkpt>
      <trkpt lat="42.92819" lon="0.73525">
        <ele>1630.8</ele>
        <time>2020-02-23T11:38:02Z</time>
      </trkpt>
      <trkpt lat="42.92819" lon="0.73525">
        <ele>1630.8</ele>
        <time>2020-02-23T11:38:03Z</time>
      </trkpt>
      <trkpt lat="42.92819" lon="0.73525">
        <ele>1630.8</ele>
        <time>2020-02-23T11:38:04Z</time>
      </trkpt>
      <trkpt lat="42.92819" lon="0.73525">
        <ele>1630.8</ele>
        <time>2020-02-23T11:38:05Z</time>
      </trkpt>
      <trkpt lat="42.92819" lon="0.73525">
        <ele>1630.8</ele>
        <time>2020-02-23T11:38:06Z</time>
      </trkpt>
      <trkpt lat="42.92819" lon="0.73525">
        <ele>1630.8</ele>
        <time>2020-02-23T11:38:07Z</time>
      </trkpt>
      <trkpt lat="42.92819" lon="0.73525">
        <ele>1630.8</ele>
        <time>2020-02-23T11:38:08Z</time>
      </trkpt>
      <trkpt lat="42.92819" lon="0.73525">
        <ele>1630.8</ele>
        <time>2020-02-23T11:38:09Z</time>
      </trkpt>
      <trkpt lat="42.92817" lon="0.73524">
        <ele>1630.1</ele>
        <time>2020-02-23T11:38:10Z</time>
      </trkpt>
      <trkpt lat="42.92817" lon="0.73524">
        <ele>1630.1</ele>
        <time>2020-02-23T11:38:11Z</time>
      </trkpt>
      <trkpt lat="42.92817" lon="0.73524">
        <ele>1630.1</ele>
        <time>2020-02-23T11:38:12Z</time>
      </trkpt>
      <trkpt lat="42.92817" lon="0.73524">
        <ele>1630.1</ele>
        <time>2020-02-23T11:38:13Z</time>
      </trkpt>
      <trkpt lat="42.92817" lon="0.73524">
        <ele>1630.1</ele>
        <time>2020-02-23T11:38:14Z</time>
      </trkpt>
      <trkpt lat="42.92817" lon="0.73524">
        <ele>1630.1</ele>
        <time>2020-02-23T11:38:15Z</time>
      </trkpt>
      <trkpt lat="42.92817" lon="0.73524">
        <ele>1630.1</ele>
        <time>2020-02-23T11:38:16Z</time>
      </trkpt>
      <trkpt lat="42.92817" lon="0.73524">
        <ele>1630.1</ele>
        <time>2020-02-23T11:38:17Z</time>
      </trkpt>
      <trkpt lat="42.92817" lon="0.73524">
        <ele>1630.1</ele>
        <time>2020-02-23T11:38:18Z</time>
      </trkpt>
      <trkpt lat="42.92817" lon="0.73524">
        <ele>1630.1</ele>
        <time>2020-02-23T11:38:19Z</time>
      </trkpt>
      <trkpt lat="42.92817" lon="0.73524">
        <ele>1630.1</ele>
        <time>2020-02-23T11:38:20Z</time>
      </trkpt>
      <trkpt lat="42.92817" lon="0.73524">
        <ele>1630.1</ele>
        <time>2020-02-23T11:38:21Z</time>
      </trkpt>
      <trkpt lat="42.92817" lon="0.73524">
        <ele>1630.1</ele>
        <time>2020-02-23T11:38:22Z</time>
      </trkpt>
      <trkpt lat="42.92817" lon="0.73524">
        <ele>1630.1</ele>
        <time>2020-02-23T11:38:23Z</time>
      </trkpt>
      <trkpt lat="42.92817" lon="0.73524">
        <ele>1630.1</ele>
        <time>2020-02-23T11:38:24Z</time>
      </trkpt>
      <trkpt lat="42.92817" lon="0.73524">
        <ele>1630.1</ele>
        <time>2020-02-23T11:38:25Z</time>
      </trkpt>
      <trkpt lat="42.92817" lon="0.73524">
        <ele>1630.1</ele>
        <time>2020-02-23T11:38:26Z</time>
      </trkpt>
      <trkpt lat="42.92817" lon="0.73524">
        <ele>1630.1</ele>
        <time>2020-02-23T11:38:27Z</time>
      </trkpt>
      <trkpt lat="42.92817" lon="0.73524">
        <ele>1630.1</ele>
        <time>2020-02-23T11:38:28Z</time>
      </trkpt>
      <trkpt lat="42.92817" lon="0.73524">
        <ele>1630.1</ele>
        <time>2020-02-23T11:38:29Z</time>
      </trkpt>
      <trkpt lat="42.92817" lon="0.73524">
        <ele>1630.1</ele>
        <time>2020-02-23T11:38:30Z</time>
      </trkpt>
      <trkpt lat="42.92815" lon="0.73522">
        <ele>1629.3</ele>
        <time>2020-02-23T11:38:31Z</time>
      </trkpt>
      <trkpt lat="42.92815" lon="0.73522">
        <ele>1629.3</ele>
        <time>2020-02-23T11:38:32Z</time>
      </trkpt>
      <trkpt lat="42.92815" lon="0.73522">
        <ele>1629.3</ele>
        <time>2020-02-23T11:38:33Z</time>
      </trkpt>
      <trkpt lat="42.92815" lon="0.73522">
        <ele>1629.3</ele>
        <time>2020-02-23T11:38:34Z</time>
      </trkpt>
      <trkpt lat="42.92813" lon="0.73522">
        <ele>1628.4</ele>
        <time>2020-02-23T11:38:35Z</time>
      </trkpt>
      <trkpt lat="42.92813" lon="0.73522">
        <ele>1628.4</ele>
        <time>2020-02-23T11:38:36Z</time>
      </trkpt>
      <trkpt lat="42.92813" lon="0.73522">
        <ele>1628.4</ele>
        <time>2020-02-23T11:38:37Z</time>
      </trkpt>
      <trkpt lat="42.92813" lon="0.73522">
        <ele>1628.4</ele>
        <time>2020-02-23T11:38:38Z</time>
      </trkpt>
      <trkpt lat="42.92813" lon="0.73522">
        <ele>1628.4</ele>
        <time>2020-02-23T11:38:39Z</time>
      </trkpt>
      <trkpt lat="42.92813" lon="0.73522">
        <ele>1628.4</ele>
        <time>2020-02-23T11:38:40Z</time>
      </trkpt>
      <trkpt lat="42.92811" lon="0.73521">
        <ele>1627.7</ele>
        <time>2020-02-23T11:38:41Z</time>
      </trkpt>
      <trkpt lat="42.92811" lon="0.73521">
        <ele>1627.7</ele>
        <time>2020-02-23T11:38:42Z</time>
      </trkpt>
      <trkpt lat="42.92811" lon="0.73521">
        <ele>1627.7</ele>
        <time>2020-02-23T11:38:43Z</time>
      </trkpt>
      <trkpt lat="42.9281" lon="0.73519">
        <ele>1627</ele>
        <time>2020-02-23T11:38:44Z</time>
      </trkpt>
      <trkpt lat="42.9281" lon="0.73519">
        <ele>1627</ele>
        <time>2020-02-23T11:38:45Z</time>
      </trkpt>
      <trkpt lat="42.9281" lon="0.73519">
        <ele>1627</ele>
        <time>2020-02-23T11:38:46Z</time>
      </trkpt>
      <trkpt lat="42.9281" lon="0.73519">
        <ele>1627</ele>
        <time>2020-02-23T11:38:47Z</time>
      </trkpt>
      <trkpt lat="42.9281" lon="0.73519">
        <ele>1627</ele>
        <time>2020-02-23T11:38:48Z</time>
      </trkpt>
      <trkpt lat="42.9281" lon="0.73519">
        <ele>1627</ele>
        <time>2020-02-23T11:38:49Z</time>
      </trkpt>
      <trkpt lat="42.9281" lon="0.73519">
        <ele>1627</ele>
        <time>2020-02-23T11:38:50Z</time>
      </trkpt>
      <trkpt lat="42.9281" lon="0.73519">
        <ele>1627</ele>
        <time>2020-02-23T11:38:51Z</time>
      </trkpt>
      <trkpt lat="42.9281" lon="0.73519">
        <ele>1627</ele>
        <time>2020-02-23T11:38:52Z</time>
      </trkpt>
      <trkpt lat="42.92809" lon="0.73516">
        <ele>1626.2</ele>
        <time>2020-02-23T11:38:53Z</time>
      </trkpt>
      <trkpt lat="42.92809" lon="0.73516">
        <ele>1626.2</ele>
        <time>2020-02-23T11:38:54Z</time>
      </trkpt>
      <trkpt lat="42.92809" lon="0.73516">
        <ele>1626.2</ele>
        <time>2020-02-23T11:38:55Z</time>
      </trkpt>
      <trkpt lat="42.92807" lon="0.73515">
        <ele>1625.2</ele>
        <time>2020-02-23T11:38:56Z</time>
      </trkpt>
      <trkpt lat="42.92807" lon="0.73515">
        <ele>1625.2</ele>
        <time>2020-02-23T11:38:57Z</time>
      </trkpt>
      <trkpt lat="42.92807" lon="0.73515">
        <ele>1625.2</ele>
        <time>2020-02-23T11:38:58Z</time>
      </trkpt>
      <trkpt lat="42.92805" lon="0.73512">
        <ele>1624.4</ele>
        <time>2020-02-23T11:38:59Z</time>
      </trkpt>
      <trkpt lat="42.92805" lon="0.73512">
        <ele>1624.4</ele>
        <time>2020-02-23T11:39:00Z</time>
      </trkpt>
      <trkpt lat="42.92805" lon="0.73512">
        <ele>1624.4</ele>
        <time>2020-02-23T11:39:01Z</time>
      </trkpt>
      <trkpt lat="42.92805" lon="0.73512">
        <ele>1624.4</ele>
        <time>2020-02-23T11:39:02Z</time>
      </trkpt>
      <trkpt lat="42.92805" lon="0.7351">
        <ele>1623.7</ele>
        <time>2020-02-23T11:39:03Z</time>
      </trkpt>
      <trkpt lat="42.92805" lon="0.7351">
        <ele>1623.7</ele>
        <time>2020-02-23T11:39:04Z</time>
      </trkpt>
      <trkpt lat="42.92805" lon="0.7351">
        <ele>1623.7</ele>
        <time>2020-02-23T11:39:05Z</time>
      </trkpt>
      <trkpt lat="42.92803" lon="0.73508">
        <ele>1623</ele>
        <time>2020-02-23T11:39:06Z</time>
      </trkpt>
      <trkpt lat="42.92803" lon="0.73508">
        <ele>1623</ele>
        <time>2020-02-23T11:39:07Z</time>
      </trkpt>
      <trkpt lat="42.92803" lon="0.73508">
        <ele>1623</ele>
        <time>2020-02-23T11:39:08Z</time>
      </trkpt>
      <trkpt lat="42.92803" lon="0.73508">
        <ele>1623</ele>
        <time>2020-02-23T11:39:09Z</time>
      </trkpt>
      <trkpt lat="42.92802" lon="0.73505">
        <ele>1622.2</ele>
        <time>2020-02-23T11:39:10Z</time>
      </trkpt>
      <trkpt lat="42.92802" lon="0.73505">
        <ele>1622.2</ele>
        <time>2020-02-23T11:39:11Z</time>
      </trkpt>
      <trkpt lat="42.92802" lon="0.73505">
        <ele>1622.2</ele>
        <time>2020-02-23T11:39:12Z</time>
      </trkpt>
      <trkpt lat="42.92803" lon="0.73501">
        <ele>1621.3</ele>
        <time>2020-02-23T11:39:13Z</time>
      </trkpt>
      <trkpt lat="42.92803" lon="0.73501">
        <ele>1621.3</ele>
        <time>2020-02-23T11:39:14Z</time>
      </trkpt>
      <trkpt lat="42.92803" lon="0.73501">
        <ele>1621.3</ele>
        <time>2020-02-23T11:39:15Z</time>
      </trkpt>
      <trkpt lat="42.92804" lon="0.735">
        <ele>1620.7</ele>
        <time>2020-02-23T11:39:16Z</time>
      </trkpt>
      <trkpt lat="42.92804" lon="0.735">
        <ele>1620.7</ele>
        <time>2020-02-23T11:39:17Z</time>
      </trkpt>
      <trkpt lat="42.92805" lon="0.73497">
        <ele>1620</ele>
        <time>2020-02-23T11:39:18Z</time>
      </trkpt>
      <trkpt lat="42.92805" lon="0.73497">
        <ele>1620</ele>
        <time>2020-02-23T11:39:19Z</time>
      </trkpt>
      <trkpt lat="42.92805" lon="0.73497">
        <ele>1620</ele>
        <time>2020-02-23T11:39:20Z</time>
      </trkpt>
      <trkpt lat="42.92806" lon="0.73494">
        <ele>1619.1</ele>
        <time>2020-02-23T11:39:21Z</time>
      </trkpt>
      <trkpt lat="42.92806" lon="0.73494">
        <ele>1619.1</ele>
        <time>2020-02-23T11:39:22Z</time>
      </trkpt>
      <trkpt lat="42.92808" lon="0.73492">
        <ele>1618.5</ele>
        <time>2020-02-23T11:39:23Z</time>
      </trkpt>
      <trkpt lat="42.92808" lon="0.73492">
        <ele>1618.5</ele>
        <time>2020-02-23T11:39:24Z</time>
      </trkpt>
      <trkpt lat="42.92808" lon="0.7349">
        <ele>1617.9</ele>
        <time>2020-02-23T11:39:25Z</time>
      </trkpt>
      <trkpt lat="42.92808" lon="0.7349">
        <ele>1617.9</ele>
        <time>2020-02-23T11:39:26Z</time>
      </trkpt>
      <trkpt lat="42.92808" lon="0.7349">
        <ele>1617.9</ele>
        <time>2020-02-23T11:39:27Z</time>
      </trkpt>
      <trkpt lat="42.92808" lon="0.7349">
        <ele>1617.9</ele>
        <time>2020-02-23T11:39:28Z</time>
      </trkpt>
      <trkpt lat="42.92808" lon="0.7349">
        <ele>1617.9</ele>
        <time>2020-02-23T11:39:29Z</time>
      </trkpt>
      <trkpt lat="42.92808" lon="0.7349">
        <ele>1617.9</ele>
        <time>2020-02-23T11:39:30Z</time>
      </trkpt>
      <trkpt lat="42.92808" lon="0.7349">
        <ele>1617.9</ele>
        <time>2020-02-23T11:39:31Z</time>
      </trkpt>
      <trkpt lat="42.92808" lon="0.73487">
        <ele>1617.4</ele>
        <time>2020-02-23T11:39:32Z</time>
      </trkpt>
      <trkpt lat="42.92808" lon="0.73487">
        <ele>1617.4</ele>
        <time>2020-02-23T11:39:33Z</time>
      </trkpt>
      <trkpt lat="42.92808" lon="0.73487">
        <ele>1617.4</ele>
        <time>2020-02-23T11:39:34Z</time>
      </trkpt>
      <trkpt lat="42.92808" lon="0.73485">
        <ele>1616.8</ele>
        <time>2020-02-23T11:39:35Z</time>
      </trkpt>
      <trkpt lat="42.92808" lon="0.73485">
        <ele>1616.8</ele>
        <time>2020-02-23T11:39:36Z</time>
      </trkpt>
      <trkpt lat="42.92808" lon="0.73485">
        <ele>1616.8</ele>
        <time>2020-02-23T11:39:37Z</time>
      </trkpt>
      <trkpt lat="42.92809" lon="0.73481">
        <ele>1616.1</ele>
        <time>2020-02-23T11:39:38Z</time>
      </trkpt>
      <trkpt lat="42.92809" lon="0.73481">
        <ele>1616.1</ele>
        <time>2020-02-23T11:39:39Z</time>
      </trkpt>
      <trkpt lat="42.92809" lon="0.73481">
        <ele>1616.1</ele>
        <time>2020-02-23T11:39:40Z</time>
      </trkpt>
      <trkpt lat="42.92808" lon="0.73478">
        <ele>1615.5</ele>
        <time>2020-02-23T11:39:41Z</time>
      </trkpt>
      <trkpt lat="42.92808" lon="0.73478">
        <ele>1615.5</ele>
        <time>2020-02-23T11:39:42Z</time>
      </trkpt>
      <trkpt lat="42.92808" lon="0.73478">
        <ele>1615.5</ele>
        <time>2020-02-23T11:39:43Z</time>
      </trkpt>
      <trkpt lat="42.92809" lon="0.73476">
        <ele>1614.9</ele>
        <time>2020-02-23T11:39:44Z</time>
      </trkpt>
      <trkpt lat="42.92809" lon="0.73476">
        <ele>1614.9</ele>
        <time>2020-02-23T11:39:45Z</time>
      </trkpt>
      <trkpt lat="42.92809" lon="0.73476">
        <ele>1614.9</ele>
        <time>2020-02-23T11:39:46Z</time>
      </trkpt>
      <trkpt lat="42.9281" lon="0.73472">
        <ele>1614.1</ele>
        <time>2020-02-23T11:39:47Z</time>
      </trkpt>
      <trkpt lat="42.9281" lon="0.73472">
        <ele>1614.1</ele>
        <time>2020-02-23T11:39:48Z</time>
      </trkpt>
      <trkpt lat="42.9281" lon="0.73472">
        <ele>1614.1</ele>
        <time>2020-02-23T11:39:49Z</time>
      </trkpt>
      <trkpt lat="42.9281" lon="0.73469">
        <ele>1613.4</ele>
        <time>2020-02-23T11:39:50Z</time>
      </trkpt>
      <trkpt lat="42.9281" lon="0.73469">
        <ele>1613.4</ele>
        <time>2020-02-23T11:39:51Z</time>
      </trkpt>
      <trkpt lat="42.9281" lon="0.73469">
        <ele>1613.4</ele>
        <time>2020-02-23T11:39:52Z</time>
      </trkpt>
      <trkpt lat="42.92811" lon="0.73466">
        <ele>1612.8</ele>
        <time>2020-02-23T11:39:53Z</time>
      </trkpt>
      <trkpt lat="42.92811" lon="0.73466">
        <ele>1612.8</ele>
        <time>2020-02-23T11:39:54Z</time>
      </trkpt>
      <trkpt lat="42.92811" lon="0.73466">
        <ele>1612.8</ele>
        <time>2020-02-23T11:39:55Z</time>
      </trkpt>
      <trkpt lat="42.92811" lon="0.73464">
        <ele>1612.3</ele>
        <time>2020-02-23T11:39:56Z</time>
      </trkpt>
      <trkpt lat="42.92811" lon="0.73464">
        <ele>1612.3</ele>
        <time>2020-02-23T11:39:57Z</time>
      </trkpt>
      <trkpt lat="42.92811" lon="0.73464">
        <ele>1612.3</ele>
        <time>2020-02-23T11:39:58Z</time>
      </trkpt>
      <trkpt lat="42.92813" lon="0.73461">
        <ele>1611.6</ele>
        <time>2020-02-23T11:39:59Z</time>
      </trkpt>
      <trkpt lat="42.92813" lon="0.73461">
        <ele>1611.6</ele>
        <time>2020-02-23T11:40:00Z</time>
      </trkpt>
      <trkpt lat="42.92813" lon="0.73461">
        <ele>1611.6</ele>
        <time>2020-02-23T11:40:01Z</time>
      </trkpt>
      <trkpt lat="42.92813" lon="0.73458">
        <ele>1611.2</ele>
        <time>2020-02-23T11:40:02Z</time>
      </trkpt>
      <trkpt lat="42.92813" lon="0.73458">
        <ele>1611.2</ele>
        <time>2020-02-23T11:40:03Z</time>
      </trkpt>
      <trkpt lat="42.92813" lon="0.73458">
        <ele>1611.2</ele>
        <time>2020-02-23T11:40:04Z</time>
      </trkpt>
      <trkpt lat="42.92813" lon="0.73458">
        <ele>1611.2</ele>
        <time>2020-02-23T11:40:05Z</time>
      </trkpt>
      <trkpt lat="42.92813" lon="0.73456">
        <ele>1610.7</ele>
        <time>2020-02-23T11:40:06Z</time>
      </trkpt>
      <trkpt lat="42.92813" lon="0.73456">
        <ele>1610.7</ele>
        <time>2020-02-23T11:40:07Z</time>
      </trkpt>
      <trkpt lat="42.92814" lon="0.73453">
        <ele>1610.1</ele>
        <time>2020-02-23T11:40:08Z</time>
      </trkpt>
      <trkpt lat="42.92814" lon="0.73453">
        <ele>1610.1</ele>
        <time>2020-02-23T11:40:09Z</time>
      </trkpt>
      <trkpt lat="42.92814" lon="0.73453">
        <ele>1610.1</ele>
        <time>2020-02-23T11:40:10Z</time>
      </trkpt>
      <trkpt lat="42.92814" lon="0.7345">
        <ele>1609.6</ele>
        <time>2020-02-23T11:40:11Z</time>
      </trkpt>
      <trkpt lat="42.92815" lon="0.73448">
        <ele>1609.1</ele>
        <time>2020-02-23T11:40:12Z</time>
      </trkpt>
      <trkpt lat="42.92815" lon="0.73448">
        <ele>1609.1</ele>
        <time>2020-02-23T11:40:13Z</time>
      </trkpt>
      <trkpt lat="42.92815" lon="0.73448">
        <ele>1609.1</ele>
        <time>2020-02-23T11:40:14Z</time>
      </trkpt>
      <trkpt lat="42.92816" lon="0.73446">
        <ele>1608.6</ele>
        <time>2020-02-23T11:40:15Z</time>
      </trkpt>
      <trkpt lat="42.92816" lon="0.73446">
        <ele>1608.6</ele>
        <time>2020-02-23T11:40:16Z</time>
      </trkpt>
      <trkpt lat="42.92816" lon="0.73443">
        <ele>1608.2</ele>
        <time>2020-02-23T11:40:17Z</time>
      </trkpt>
      <trkpt lat="42.92816" lon="0.73443">
        <ele>1608.2</ele>
        <time>2020-02-23T11:40:18Z</time>
      </trkpt>
      <trkpt lat="42.92816" lon="0.73443">
        <ele>1608.2</ele>
        <time>2020-02-23T11:40:19Z</time>
      </trkpt>
      <trkpt lat="42.92816" lon="0.73443">
        <ele>1608.2</ele>
        <time>2020-02-23T11:40:20Z</time>
      </trkpt>
      <trkpt lat="42.92818" lon="0.7344">
        <ele>1607.6</ele>
        <time>2020-02-23T11:40:21Z</time>
      </trkpt>
      <trkpt lat="42.92818" lon="0.7344">
        <ele>1607.6</ele>
        <time>2020-02-23T11:40:22Z</time>
      </trkpt>
      <trkpt lat="42.92818" lon="0.7344">
        <ele>1607.6</ele>
        <time>2020-02-23T11:40:23Z</time>
      </trkpt>
      <trkpt lat="42.9282" lon="0.73438">
        <ele>1607</ele>
        <time>2020-02-23T11:40:24Z</time>
      </trkpt>
      <trkpt lat="42.9282" lon="0.73438">
        <ele>1607</ele>
        <time>2020-02-23T11:40:25Z</time>
      </trkpt>
      <trkpt lat="42.92822" lon="0.73436">
        <ele>1606.5</ele>
        <time>2020-02-23T11:40:26Z</time>
      </trkpt>
      <trkpt lat="42.92822" lon="0.73436">
        <ele>1606.5</ele>
        <time>2020-02-23T11:40:27Z</time>
      </trkpt>
      <trkpt lat="42.92822" lon="0.73436">
        <ele>1606.5</ele>
        <time>2020-02-23T11:40:28Z</time>
      </trkpt>
      <trkpt lat="42.92822" lon="0.73436">
        <ele>1606.5</ele>
        <time>2020-02-23T11:40:29Z</time>
      </trkpt>
      <trkpt lat="42.92822" lon="0.73436">
        <ele>1606.5</ele>
        <time>2020-02-23T11:40:30Z</time>
      </trkpt>
      <trkpt lat="42.92823" lon="0.73434">
        <ele>1606.1</ele>
        <time>2020-02-23T11:40:31Z</time>
      </trkpt>
      <trkpt lat="42.92823" lon="0.73434">
        <ele>1606.1</ele>
        <time>2020-02-23T11:40:32Z</time>
      </trkpt>
      <trkpt lat="42.92823" lon="0.73434">
        <ele>1606.1</ele>
        <time>2020-02-23T11:40:33Z</time>
      </trkpt>
      <trkpt lat="42.92823" lon="0.73434">
        <ele>1606.1</ele>
        <time>2020-02-23T11:40:34Z</time>
      </trkpt>
      <trkpt lat="42.92824" lon="0.73432">
        <ele>1605.7</ele>
        <time>2020-02-23T11:40:35Z</time>
      </trkpt>
      <trkpt lat="42.92824" lon="0.73432">
        <ele>1605.7</ele>
        <time>2020-02-23T11:40:36Z</time>
      </trkpt>
      <trkpt lat="42.92824" lon="0.73432">
        <ele>1605.7</ele>
        <time>2020-02-23T11:40:37Z</time>
      </trkpt>
      <trkpt lat="42.92824" lon="0.73432">
        <ele>1605.7</ele>
        <time>2020-02-23T11:40:38Z</time>
      </trkpt>
      <trkpt lat="42.92825" lon="0.7343">
        <ele>1605.2</ele>
        <time>2020-02-23T11:40:39Z</time>
      </trkpt>
      <trkpt lat="42.92825" lon="0.7343">
        <ele>1605.2</ele>
        <time>2020-02-23T11:40:40Z</time>
      </trkpt>
      <trkpt lat="42.92825" lon="0.7343">
        <ele>1605.2</ele>
        <time>2020-02-23T11:40:41Z</time>
      </trkpt>
      <trkpt lat="42.92826" lon="0.73428">
        <ele>1604.7</ele>
        <time>2020-02-23T11:40:42Z</time>
      </trkpt>
      <trkpt lat="42.92826" lon="0.73428">
        <ele>1604.7</ele>
        <time>2020-02-23T11:40:43Z</time>
      </trkpt>
      <trkpt lat="42.92826" lon="0.73428">
        <ele>1604.7</ele>
        <time>2020-02-23T11:40:44Z</time>
      </trkpt>
      <trkpt lat="42.92828" lon="0.73425">
        <ele>1604.1</ele>
        <time>2020-02-23T11:40:45Z</time>
      </trkpt>
      <trkpt lat="42.92828" lon="0.73425">
        <ele>1604.1</ele>
        <time>2020-02-23T11:40:46Z</time>
      </trkpt>
      <trkpt lat="42.92829" lon="0.73423">
        <ele>1603.7</ele>
        <time>2020-02-23T11:40:47Z</time>
      </trkpt>
      <trkpt lat="42.92829" lon="0.73423">
        <ele>1603.7</ele>
        <time>2020-02-23T11:40:48Z</time>
      </trkpt>
      <trkpt lat="42.9283" lon="0.73421">
        <ele>1603.2</ele>
        <time>2020-02-23T11:40:49Z</time>
      </trkpt>
      <trkpt lat="42.9283" lon="0.73421">
        <ele>1603.2</ele>
        <time>2020-02-23T11:40:50Z</time>
      </trkpt>
      <trkpt lat="42.9283" lon="0.73421">
        <ele>1603.2</ele>
        <time>2020-02-23T11:40:51Z</time>
      </trkpt>
      <trkpt lat="42.9283" lon="0.73421">
        <ele>1603.2</ele>
        <time>2020-02-23T11:40:52Z</time>
      </trkpt>
      <trkpt lat="42.92832" lon="0.73418">
        <ele>1602.7</ele>
        <time>2020-02-23T11:40:53Z</time>
      </trkpt>
      <trkpt lat="42.92832" lon="0.73418">
        <ele>1602.7</ele>
        <time>2020-02-23T11:40:54Z</time>
      </trkpt>
      <trkpt lat="42.92832" lon="0.73418">
        <ele>1602.7</ele>
        <time>2020-02-23T11:40:55Z</time>
      </trkpt>
      <trkpt lat="42.92834" lon="0.73416">
        <ele>1602.1</ele>
        <time>2020-02-23T11:40:56Z</time>
      </trkpt>
      <trkpt lat="42.92834" lon="0.73416">
        <ele>1602.1</ele>
        <time>2020-02-23T11:40:57Z</time>
      </trkpt>
      <trkpt lat="42.92834" lon="0.73416">
        <ele>1602.1</ele>
        <time>2020-02-23T11:40:58Z</time>
      </trkpt>
      <trkpt lat="42.92834" lon="0.73416">
        <ele>1602.1</ele>
        <time>2020-02-23T11:40:59Z</time>
      </trkpt>
      <trkpt lat="42.92834" lon="0.73416">
        <ele>1602.1</ele>
        <time>2020-02-23T11:41:00Z</time>
      </trkpt>
      <trkpt lat="42.92834" lon="0.73416">
        <ele>1602.1</ele>
        <time>2020-02-23T11:41:01Z</time>
      </trkpt>
      <trkpt lat="42.92834" lon="0.73416">
        <ele>1602.1</ele>
        <time>2020-02-23T11:41:02Z</time>
      </trkpt>
      <trkpt lat="42.92834" lon="0.73416">
        <ele>1602.1</ele>
        <time>2020-02-23T11:41:03Z</time>
      </trkpt>
      <trkpt lat="42.92834" lon="0.73416">
        <ele>1602.1</ele>
        <time>2020-02-23T11:41:04Z</time>
      </trkpt>
      <trkpt lat="42.92835" lon="0.73415">
        <ele>1601.7</ele>
        <time>2020-02-23T11:41:05Z</time>
      </trkpt>
      <trkpt lat="42.92835" lon="0.73415">
        <ele>1601.7</ele>
        <time>2020-02-23T11:41:06Z</time>
      </trkpt>
      <trkpt lat="42.92835" lon="0.73415">
        <ele>1601.7</ele>
        <time>2020-02-23T11:41:07Z</time>
      </trkpt>
      <trkpt lat="42.92835" lon="0.73415">
        <ele>1601.7</ele>
        <time>2020-02-23T11:41:08Z</time>
      </trkpt>
      <trkpt lat="42.92835" lon="0.73415">
        <ele>1601.7</ele>
        <time>2020-02-23T11:41:09Z</time>
      </trkpt>
      <trkpt lat="42.92835" lon="0.73415">
        <ele>1601.7</ele>
        <time>2020-02-23T11:41:10Z</time>
      </trkpt>
      <trkpt lat="42.92835" lon="0.73415">
        <ele>1601.7</ele>
        <time>2020-02-23T11:41:11Z</time>
      </trkpt>
      <trkpt lat="42.92835" lon="0.73412">
        <ele>1601.2</ele>
        <time>2020-02-23T11:41:12Z</time>
      </trkpt>
      <trkpt lat="42.92835" lon="0.73412">
        <ele>1601.2</ele>
        <time>2020-02-23T11:41:13Z</time>
      </trkpt>
      <trkpt lat="42.92835" lon="0.73412">
        <ele>1601.2</ele>
        <time>2020-02-23T11:41:14Z</time>
      </trkpt>
      <trkpt lat="42.92835" lon="0.73412">
        <ele>1601.2</ele>
        <time>2020-02-23T11:41:15Z</time>
      </trkpt>
      <trkpt lat="42.92835" lon="0.73409">
        <ele>1600.7</ele>
        <time>2020-02-23T11:41:16Z</time>
      </trkpt>
      <trkpt lat="42.92835" lon="0.73409">
        <ele>1600.7</ele>
        <time>2020-02-23T11:41:17Z</time>
      </trkpt>
      <trkpt lat="42.92835" lon="0.73409">
        <ele>1600.7</ele>
        <time>2020-02-23T11:41:18Z</time>
      </trkpt>
      <trkpt lat="42.92835" lon="0.73409">
        <ele>1600.7</ele>
        <time>2020-02-23T11:41:19Z</time>
      </trkpt>
      <trkpt lat="42.92837" lon="0.73406">
        <ele>1600.1</ele>
        <time>2020-02-23T11:41:20Z</time>
      </trkpt>
      <trkpt lat="42.92837" lon="0.73406">
        <ele>1600.1</ele>
        <time>2020-02-23T11:41:21Z</time>
      </trkpt>
      <trkpt lat="42.92837" lon="0.73406">
        <ele>1600.1</ele>
        <time>2020-02-23T11:41:22Z</time>
      </trkpt>
      <trkpt lat="42.92838" lon="0.73404">
        <ele>1599.6</ele>
        <time>2020-02-23T11:41:23Z</time>
      </trkpt>
      <trkpt lat="42.92838" lon="0.73404">
        <ele>1599.6</ele>
        <time>2020-02-23T11:41:24Z</time>
      </trkpt>
      <trkpt lat="42.92838" lon="0.73404">
        <ele>1599.6</ele>
        <time>2020-02-23T11:41:25Z</time>
      </trkpt>
      <trkpt lat="42.92838" lon="0.73401">
        <ele>1599.1</ele>
        <time>2020-02-23T11:41:26Z</time>
      </trkpt>
      <trkpt lat="42.92838" lon="0.73401">
        <ele>1599.1</ele>
        <time>2020-02-23T11:41:27Z</time>
      </trkpt>
      <trkpt lat="42.92838" lon="0.73401">
        <ele>1599.1</ele>
        <time>2020-02-23T11:41:28Z</time>
      </trkpt>
      <trkpt lat="42.92838" lon="0.73398">
        <ele>1598.7</ele>
        <time>2020-02-23T11:41:29Z</time>
      </trkpt>
      <trkpt lat="42.92838" lon="0.73398">
        <ele>1598.7</ele>
        <time>2020-02-23T11:41:30Z</time>
      </trkpt>
      <trkpt lat="42.92838" lon="0.73398">
        <ele>1598.7</ele>
        <time>2020-02-23T11:41:31Z</time>
      </trkpt>
      <trkpt lat="42.92838" lon="0.73398">
        <ele>1598.7</ele>
        <time>2020-02-23T11:41:32Z</time>
      </trkpt>
      <trkpt lat="42.92838" lon="0.73398">
        <ele>1598.7</ele>
        <time>2020-02-23T11:41:33Z</time>
      </trkpt>
      <trkpt lat="42.92839" lon="0.73395">
        <ele>1598.3</ele>
        <time>2020-02-23T11:41:34Z</time>
      </trkpt>
      <trkpt lat="42.92839" lon="0.73395">
        <ele>1598.3</ele>
        <time>2020-02-23T11:41:35Z</time>
      </trkpt>
      <trkpt lat="42.92839" lon="0.73395">
        <ele>1598.3</ele>
        <time>2020-02-23T11:41:36Z</time>
      </trkpt>
      <trkpt lat="42.92839" lon="0.73395">
        <ele>1598.3</ele>
        <time>2020-02-23T11:41:37Z</time>
      </trkpt>
      <trkpt lat="42.92839" lon="0.73392">
        <ele>1597.8</ele>
        <time>2020-02-23T11:41:38Z</time>
      </trkpt>
      <trkpt lat="42.92839" lon="0.73392">
        <ele>1597.8</ele>
        <time>2020-02-23T11:41:39Z</time>
      </trkpt>
      <trkpt lat="42.92839" lon="0.73392">
        <ele>1597.8</ele>
        <time>2020-02-23T11:41:40Z</time>
      </trkpt>
      <trkpt lat="42.92839" lon="0.73392">
        <ele>1597.8</ele>
        <time>2020-02-23T11:41:41Z</time>
      </trkpt>
      <trkpt lat="42.92839" lon="0.73389">
        <ele>1597.3</ele>
        <time>2020-02-23T11:41:42Z</time>
      </trkpt>
      <trkpt lat="42.92839" lon="0.73389">
        <ele>1597.3</ele>
        <time>2020-02-23T11:41:43Z</time>
      </trkpt>
      <trkpt lat="42.92839" lon="0.73389">
        <ele>1597.3</ele>
        <time>2020-02-23T11:41:44Z</time>
      </trkpt>
      <trkpt lat="42.92839" lon="0.73389">
        <ele>1597.3</ele>
        <time>2020-02-23T11:41:45Z</time>
      </trkpt>
      <trkpt lat="42.9284" lon="0.73386">
        <ele>1596.6</ele>
        <time>2020-02-23T11:41:46Z</time>
      </trkpt>
      <trkpt lat="42.9284" lon="0.73386">
        <ele>1596.6</ele>
        <time>2020-02-23T11:41:47Z</time>
      </trkpt>
      <trkpt lat="42.9284" lon="0.73386">
        <ele>1596.6</ele>
        <time>2020-02-23T11:41:48Z</time>
      </trkpt>
      <trkpt lat="42.92841" lon="0.73383">
        <ele>1596.1</ele>
        <time>2020-02-23T11:41:49Z</time>
      </trkpt>
      <trkpt lat="42.92841" lon="0.73383">
        <ele>1596.1</ele>
        <time>2020-02-23T11:41:50Z</time>
      </trkpt>
      <trkpt lat="42.92841" lon="0.73383">
        <ele>1596.1</ele>
        <time>2020-02-23T11:41:51Z</time>
      </trkpt>
      <trkpt lat="42.92842" lon="0.73381">
        <ele>1595.6</ele>
        <time>2020-02-23T11:41:52Z</time>
      </trkpt>
      <trkpt lat="42.92842" lon="0.73381">
        <ele>1595.6</ele>
        <time>2020-02-23T11:41:53Z</time>
      </trkpt>
      <trkpt lat="42.92842" lon="0.73381">
        <ele>1595.6</ele>
        <time>2020-02-23T11:41:54Z</time>
      </trkpt>
      <trkpt lat="42.92843" lon="0.73378">
        <ele>1595.1</ele>
        <time>2020-02-23T11:41:55Z</time>
      </trkpt>
      <trkpt lat="42.92843" lon="0.73378">
        <ele>1595.1</ele>
        <time>2020-02-23T11:41:56Z</time>
      </trkpt>
      <trkpt lat="42.92843" lon="0.73378">
        <ele>1595.1</ele>
        <time>2020-02-23T11:41:57Z</time>
      </trkpt>
      <trkpt lat="42.92844" lon="0.73375">
        <ele>1594.5</ele>
        <time>2020-02-23T11:41:58Z</time>
      </trkpt>
      <trkpt lat="42.92844" lon="0.73375">
        <ele>1594.5</ele>
        <time>2020-02-23T11:41:59Z</time>
      </trkpt>
      <trkpt lat="42.92844" lon="0.73375">
        <ele>1594.5</ele>
        <time>2020-02-23T11:42:00Z</time>
      </trkpt>
      <trkpt lat="42.92844" lon="0.73375">
        <ele>1594.5</ele>
        <time>2020-02-23T11:42:01Z</time>
      </trkpt>
      <trkpt lat="42.92844" lon="0.73375">
        <ele>1594.5</ele>
        <time>2020-02-23T11:42:02Z</time>
      </trkpt>
      <trkpt lat="42.92844" lon="0.73375">
        <ele>1594.5</ele>
        <time>2020-02-23T11:42:03Z</time>
      </trkpt>
      <trkpt lat="42.92844" lon="0.73372">
        <ele>1594</ele>
        <time>2020-02-23T11:42:04Z</time>
      </trkpt>
      <trkpt lat="42.92844" lon="0.73372">
        <ele>1594</ele>
        <time>2020-02-23T11:42:05Z</time>
      </trkpt>
      <trkpt lat="42.92844" lon="0.73372">
        <ele>1594</ele>
        <time>2020-02-23T11:42:06Z</time>
      </trkpt>
      <trkpt lat="42.92844" lon="0.73372">
        <ele>1594</ele>
        <time>2020-02-23T11:42:07Z</time>
      </trkpt>
      <trkpt lat="42.92844" lon="0.73372">
        <ele>1594</ele>
        <time>2020-02-23T11:42:08Z</time>
      </trkpt>
      <trkpt lat="42.92844" lon="0.73372">
        <ele>1594</ele>
        <time>2020-02-23T11:42:09Z</time>
      </trkpt>
      <trkpt lat="42.92844" lon="0.73372">
        <ele>1594</ele>
        <time>2020-02-23T11:42:10Z</time>
      </trkpt>
      <trkpt lat="42.92844" lon="0.73372">
        <ele>1594</ele>
        <time>2020-02-23T11:42:11Z</time>
      </trkpt>
      <trkpt lat="42.92844" lon="0.73372">
        <ele>1594</ele>
        <time>2020-02-23T11:42:12Z</time>
      </trkpt>
      <trkpt lat="42.92844" lon="0.73372">
        <ele>1594</ele>
        <time>2020-02-23T11:42:13Z</time>
      </trkpt>
      <trkpt lat="42.92844" lon="0.73372">
        <ele>1594</ele>
        <time>2020-02-23T11:42:14Z</time>
      </trkpt>
      <trkpt lat="42.92844" lon="0.73372">
        <ele>1594</ele>
        <time>2020-02-23T11:42:15Z</time>
      </trkpt>
      <trkpt lat="42.92844" lon="0.73372">
        <ele>1594</ele>
        <time>2020-02-23T11:42:16Z</time>
      </trkpt>
      <trkpt lat="42.92844" lon="0.73372">
        <ele>1594</ele>
        <time>2020-02-23T11:42:17Z</time>
      </trkpt>
      <trkpt lat="42.92844" lon="0.73372">
        <ele>1594</ele>
        <time>2020-02-23T11:42:18Z</time>
      </trkpt>
      <trkpt lat="42.92844" lon="0.73372">
        <ele>1594</ele>
        <time>2020-02-23T11:42:19Z</time>
      </trkpt>
      <trkpt lat="42.92844" lon="0.73372">
        <ele>1594</ele>
        <time>2020-02-23T11:42:20Z</time>
      </trkpt>
      <trkpt lat="42.92844" lon="0.73372">
        <ele>1594</ele>
        <time>2020-02-23T11:42:21Z</time>
      </trkpt>
      <trkpt lat="42.92844" lon="0.73372">
        <ele>1594</ele>
        <time>2020-02-23T11:42:22Z</time>
      </trkpt>
      <trkpt lat="42.92844" lon="0.73372">
        <ele>1594</ele>
        <time>2020-02-23T11:42:23Z</time>
      </trkpt>
      <trkpt lat="42.92844" lon="0.73372">
        <ele>1594</ele>
        <time>2020-02-23T11:42:24Z</time>
      </trkpt>
      <trkpt lat="42.92844" lon="0.73372">
        <ele>1594</ele>
        <time>2020-02-23T11:42:25Z</time>
      </trkpt>
      <trkpt lat="42.92844" lon="0.73372">
        <ele>1594</ele>
        <time>2020-02-23T11:42:26Z</time>
      </trkpt>
      <trkpt lat="42.92844" lon="0.73372">
        <ele>1594</ele>
        <time>2020-02-23T11:42:27Z</time>
      </trkpt>
      <trkpt lat="42.92844" lon="0.73372">
        <ele>1594</ele>
        <time>2020-02-23T11:42:28Z</time>
      </trkpt>
      <trkpt lat="42.92844" lon="0.73372">
        <ele>1594</ele>
        <time>2020-02-23T11:42:29Z</time>
      </trkpt>
      <trkpt lat="42.92844" lon="0.73372">
        <ele>1594</ele>
        <time>2020-02-23T11:42:30Z</time>
      </trkpt>
      <trkpt lat="42.92844" lon="0.73372">
        <ele>1594</ele>
        <time>2020-02-23T11:42:31Z</time>
      </trkpt>
      <trkpt lat="42.92844" lon="0.73372">
        <ele>1594</ele>
        <time>2020-02-23T11:42:32Z</time>
      </trkpt>
      <trkpt lat="42.92844" lon="0.73372">
        <ele>1594</ele>
        <time>2020-02-23T11:42:33Z</time>
      </trkpt>
      <trkpt lat="42.92842" lon="0.73373">
        <ele>1593.4</ele>
        <time>2020-02-23T11:42:34Z</time>
      </trkpt>
      <trkpt lat="42.92842" lon="0.73373">
        <ele>1593.4</ele>
        <time>2020-02-23T11:42:35Z</time>
      </trkpt>
      <trkpt lat="42.92842" lon="0.73373">
        <ele>1593.4</ele>
        <time>2020-02-23T11:42:36Z</time>
      </trkpt>
      <trkpt lat="42.92842" lon="0.73373">
        <ele>1593.4</ele>
        <time>2020-02-23T11:42:37Z</time>
      </trkpt>
      <trkpt lat="42.92842" lon="0.73373">
        <ele>1593.4</ele>
        <time>2020-02-23T11:42:38Z</time>
      </trkpt>
      <trkpt lat="42.92842" lon="0.7337">
        <ele>1592.9</ele>
        <time>2020-02-23T11:42:39Z</time>
      </trkpt>
      <trkpt lat="42.92842" lon="0.7337">
        <ele>1592.9</ele>
        <time>2020-02-23T11:42:40Z</time>
      </trkpt>
      <trkpt lat="42.92842" lon="0.7337">
        <ele>1592.9</ele>
        <time>2020-02-23T11:42:41Z</time>
      </trkpt>
      <trkpt lat="42.92842" lon="0.7337">
        <ele>1592.9</ele>
        <time>2020-02-23T11:42:42Z</time>
      </trkpt>
      <trkpt lat="42.92842" lon="0.7337">
        <ele>1592.9</ele>
        <time>2020-02-23T11:42:43Z</time>
      </trkpt>
      <trkpt lat="42.92842" lon="0.7337">
        <ele>1592.9</ele>
        <time>2020-02-23T11:42:44Z</time>
      </trkpt>
      <trkpt lat="42.92842" lon="0.7337">
        <ele>1592.9</ele>
        <time>2020-02-23T11:42:45Z</time>
      </trkpt>
      <trkpt lat="42.92842" lon="0.7337">
        <ele>1592.9</ele>
        <time>2020-02-23T11:42:46Z</time>
      </trkpt>
      <trkpt lat="42.92842" lon="0.7337">
        <ele>1592.9</ele>
        <time>2020-02-23T11:42:47Z</time>
      </trkpt>
      <trkpt lat="42.92842" lon="0.7337">
        <ele>1592.9</ele>
        <time>2020-02-23T11:42:48Z</time>
      </trkpt>
      <trkpt lat="42.92842" lon="0.7337">
        <ele>1592.9</ele>
        <time>2020-02-23T11:42:49Z</time>
      </trkpt>
      <trkpt lat="42.92842" lon="0.7337">
        <ele>1592.9</ele>
        <time>2020-02-23T11:42:50Z</time>
      </trkpt>
      <trkpt lat="42.92842" lon="0.7337">
        <ele>1592.9</ele>
        <time>2020-02-23T11:42:51Z</time>
      </trkpt>
      <trkpt lat="42.92842" lon="0.7337">
        <ele>1592.9</ele>
        <time>2020-02-23T11:42:52Z</time>
      </trkpt>
      <trkpt lat="42.92842" lon="0.7337">
        <ele>1592.9</ele>
        <time>2020-02-23T11:42:53Z</time>
      </trkpt>
      <trkpt lat="42.92842" lon="0.7337">
        <ele>1592.9</ele>
        <time>2020-02-23T11:42:54Z</time>
      </trkpt>
      <trkpt lat="42.92842" lon="0.73367">
        <ele>1592.3</ele>
        <time>2020-02-23T11:42:55Z</time>
      </trkpt>
      <trkpt lat="42.92842" lon="0.73367">
        <ele>1592.3</ele>
        <time>2020-02-23T11:42:56Z</time>
      </trkpt>
      <trkpt lat="42.92842" lon="0.73367">
        <ele>1592.3</ele>
        <time>2020-02-23T11:42:57Z</time>
      </trkpt>
      <trkpt lat="42.92842" lon="0.73367">
        <ele>1592.3</ele>
        <time>2020-02-23T11:42:58Z</time>
      </trkpt>
      <trkpt lat="42.92842" lon="0.73367">
        <ele>1592.3</ele>
        <time>2020-02-23T11:42:59Z</time>
      </trkpt>
      <trkpt lat="42.92842" lon="0.73367">
        <ele>1592.3</ele>
        <time>2020-02-23T11:43:00Z</time>
      </trkpt>
      <trkpt lat="42.92842" lon="0.73367">
        <ele>1592.3</ele>
        <time>2020-02-23T11:43:01Z</time>
      </trkpt>
      <trkpt lat="42.92842" lon="0.73367">
        <ele>1592.3</ele>
        <time>2020-02-23T11:43:02Z</time>
      </trkpt>
      <trkpt lat="42.92842" lon="0.73367">
        <ele>1592.3</ele>
        <time>2020-02-23T11:43:03Z</time>
      </trkpt>
      <trkpt lat="42.92842" lon="0.73367">
        <ele>1592.3</ele>
        <time>2020-02-23T11:43:04Z</time>
      </trkpt>
      <trkpt lat="42.92842" lon="0.73367">
        <ele>1592.3</ele>
        <time>2020-02-23T11:43:05Z</time>
      </trkpt>
      <trkpt lat="42.92842" lon="0.73367">
        <ele>1592.3</ele>
        <time>2020-02-23T11:43:06Z</time>
      </trkpt>
      <trkpt lat="42.92842" lon="0.73367">
        <ele>1592.3</ele>
        <time>2020-02-23T11:43:07Z</time>
      </trkpt>
      <trkpt lat="42.92842" lon="0.73367">
        <ele>1592.3</ele>
        <time>2020-02-23T11:43:08Z</time>
      </trkpt>
      <trkpt lat="42.92842" lon="0.73367">
        <ele>1592.3</ele>
        <time>2020-02-23T11:43:09Z</time>
      </trkpt>
      <trkpt lat="42.92842" lon="0.73367">
        <ele>1592.3</ele>
        <time>2020-02-23T11:43:10Z</time>
      </trkpt>
      <trkpt lat="42.92841" lon="0.73365">
        <ele>1591.7</ele>
        <time>2020-02-23T11:43:11Z</time>
      </trkpt>
      <trkpt lat="42.92841" lon="0.73365">
        <ele>1591.7</ele>
        <time>2020-02-23T11:43:12Z</time>
      </trkpt>
      <trkpt lat="42.92841" lon="0.73365">
        <ele>1591.7</ele>
        <time>2020-02-23T11:43:13Z</time>
      </trkpt>
      <trkpt lat="42.92841" lon="0.73365">
        <ele>1591.7</ele>
        <time>2020-02-23T11:43:14Z</time>
      </trkpt>
      <trkpt lat="42.92841" lon="0.73365">
        <ele>1591.7</ele>
        <time>2020-02-23T11:43:15Z</time>
      </trkpt>
      <trkpt lat="42.92841" lon="0.73365">
        <ele>1591.7</ele>
        <time>2020-02-23T11:43:16Z</time>
      </trkpt>
      <trkpt lat="42.92841" lon="0.73365">
        <ele>1591.7</ele>
        <time>2020-02-23T11:43:17Z</time>
      </trkpt>
      <trkpt lat="42.92841" lon="0.73365">
        <ele>1591.7</ele>
        <time>2020-02-23T11:43:18Z</time>
      </trkpt>
      <trkpt lat="42.92841" lon="0.73365">
        <ele>1591.7</ele>
        <time>2020-02-23T11:43:19Z</time>
      </trkpt>
      <trkpt lat="42.92841" lon="0.73365">
        <ele>1591.7</ele>
        <time>2020-02-23T11:43:20Z</time>
      </trkpt>
      <trkpt lat="42.92841" lon="0.73365">
        <ele>1591.7</ele>
        <time>2020-02-23T11:43:21Z</time>
      </trkpt>
      <trkpt lat="42.92841" lon="0.73365">
        <ele>1591.7</ele>
        <time>2020-02-23T11:43:22Z</time>
      </trkpt>
      <trkpt lat="42.92841" lon="0.73365">
        <ele>1591.7</ele>
        <time>2020-02-23T11:43:23Z</time>
      </trkpt>
      <trkpt lat="42.92842" lon="0.73364">
        <ele>1591.2</ele>
        <time>2020-02-23T11:43:24Z</time>
      </trkpt>
      <trkpt lat="42.92842" lon="0.73364">
        <ele>1591.2</ele>
        <time>2020-02-23T11:43:25Z</time>
      </trkpt>
      <trkpt lat="42.92842" lon="0.73364">
        <ele>1591.2</ele>
        <time>2020-02-23T11:43:26Z</time>
      </trkpt>
      <trkpt lat="42.92842" lon="0.73364">
        <ele>1591.2</ele>
        <time>2020-02-23T11:43:27Z</time>
      </trkpt>
      <trkpt lat="42.92842" lon="0.73364">
        <ele>1591.2</ele>
        <time>2020-02-23T11:43:28Z</time>
      </trkpt>
      <trkpt lat="42.92842" lon="0.73364">
        <ele>1591.2</ele>
        <time>2020-02-23T11:43:29Z</time>
      </trkpt>
      <trkpt lat="42.92842" lon="0.73364">
        <ele>1591.2</ele>
        <time>2020-02-23T11:43:30Z</time>
      </trkpt>
      <trkpt lat="42.92843" lon="0.7336">
        <ele>1590.4</ele>
        <time>2020-02-23T11:43:31Z</time>
      </trkpt>
      <trkpt lat="42.92843" lon="0.7336">
        <ele>1590.4</ele>
        <time>2020-02-23T11:43:32Z</time>
      </trkpt>
      <trkpt lat="42.92843" lon="0.73357">
        <ele>1589.7</ele>
        <time>2020-02-23T11:43:33Z</time>
      </trkpt>
      <trkpt lat="42.92843" lon="0.73354">
        <ele>1588.9</ele>
        <time>2020-02-23T11:43:34Z</time>
      </trkpt>
      <trkpt lat="42.92843" lon="0.73354">
        <ele>1588.9</ele>
        <time>2020-02-23T11:43:35Z</time>
      </trkpt>
      <trkpt lat="42.92843" lon="0.73354">
        <ele>1588.9</ele>
        <time>2020-02-23T11:43:36Z</time>
      </trkpt>
      <trkpt lat="42.92844" lon="0.73352">
        <ele>1588.3</ele>
        <time>2020-02-23T11:43:37Z</time>
      </trkpt>
      <trkpt lat="42.92844" lon="0.73352">
        <ele>1588.3</ele>
        <time>2020-02-23T11:43:38Z</time>
      </trkpt>
      <trkpt lat="42.92844" lon="0.73352">
        <ele>1588.3</ele>
        <time>2020-02-23T11:43:39Z</time>
      </trkpt>
      <trkpt lat="42.92844" lon="0.73352">
        <ele>1588.3</ele>
        <time>2020-02-23T11:43:40Z</time>
      </trkpt>
      <trkpt lat="42.92843" lon="0.73349">
        <ele>1587.6</ele>
        <time>2020-02-23T11:43:41Z</time>
      </trkpt>
      <trkpt lat="42.92843" lon="0.73349">
        <ele>1587.6</ele>
        <time>2020-02-23T11:43:42Z</time>
      </trkpt>
      <trkpt lat="42.92843" lon="0.73349">
        <ele>1587.6</ele>
        <time>2020-02-23T11:43:43Z</time>
      </trkpt>
      <trkpt lat="42.92843" lon="0.73346">
        <ele>1586.9</ele>
        <time>2020-02-23T11:43:44Z</time>
      </trkpt>
      <trkpt lat="42.92843" lon="0.73346">
        <ele>1586.9</ele>
        <time>2020-02-23T11:43:45Z</time>
      </trkpt>
      <trkpt lat="42.92843" lon="0.73346">
        <ele>1586.9</ele>
        <time>2020-02-23T11:43:46Z</time>
      </trkpt>
      <trkpt lat="42.92843" lon="0.73346">
        <ele>1586.9</ele>
        <time>2020-02-23T11:43:47Z</time>
      </trkpt>
      <trkpt lat="42.92844" lon="0.73344">
        <ele>1586.4</ele>
        <time>2020-02-23T11:43:48Z</time>
      </trkpt>
      <trkpt lat="42.92844" lon="0.73344">
        <ele>1586.4</ele>
        <time>2020-02-23T11:43:49Z</time>
      </trkpt>
      <trkpt lat="42.92844" lon="0.73344">
        <ele>1586.4</ele>
        <time>2020-02-23T11:43:50Z</time>
      </trkpt>
      <trkpt lat="42.92844" lon="0.73344">
        <ele>1586.4</ele>
        <time>2020-02-23T11:43:51Z</time>
      </trkpt>
      <trkpt lat="42.92844" lon="0.73344">
        <ele>1586.4</ele>
        <time>2020-02-23T11:43:52Z</time>
      </trkpt>
      <trkpt lat="42.92845" lon="0.73342">
        <ele>1585.7</ele>
        <time>2020-02-23T11:43:53Z</time>
      </trkpt>
      <trkpt lat="42.92845" lon="0.73342">
        <ele>1585.7</ele>
        <time>2020-02-23T11:43:54Z</time>
      </trkpt>
      <trkpt lat="42.92845" lon="0.73342">
        <ele>1585.7</ele>
        <time>2020-02-23T11:43:55Z</time>
      </trkpt>
      <trkpt lat="42.92845" lon="0.73339">
        <ele>1585.1</ele>
        <time>2020-02-23T11:43:56Z</time>
      </trkpt>
      <trkpt lat="42.92845" lon="0.73339">
        <ele>1585.1</ele>
        <time>2020-02-23T11:43:57Z</time>
      </trkpt>
      <trkpt lat="42.92845" lon="0.73339">
        <ele>1585.1</ele>
        <time>2020-02-23T11:43:58Z</time>
      </trkpt>
      <trkpt lat="42.92845" lon="0.73339">
        <ele>1585.1</ele>
        <time>2020-02-23T11:43:59Z</time>
      </trkpt>
      <trkpt lat="42.92845" lon="0.73339">
        <ele>1585.1</ele>
        <time>2020-02-23T11:44:00Z</time>
      </trkpt>
      <trkpt lat="42.92844" lon="0.73336">
        <ele>1584.2</ele>
        <time>2020-02-23T11:44:01Z</time>
      </trkpt>
      <trkpt lat="42.92844" lon="0.73336">
        <ele>1584.2</ele>
        <time>2020-02-23T11:44:02Z</time>
      </trkpt>
      <trkpt lat="42.92844" lon="0.73336">
        <ele>1584.2</ele>
        <time>2020-02-23T11:44:03Z</time>
      </trkpt>
      <trkpt lat="42.92844" lon="0.73336">
        <ele>1584.2</ele>
        <time>2020-02-23T11:44:04Z</time>
      </trkpt>
      <trkpt lat="42.92844" lon="0.73336">
        <ele>1584.2</ele>
        <time>2020-02-23T11:44:05Z</time>
      </trkpt>
      <trkpt lat="42.92844" lon="0.73333">
        <ele>1583.5</ele>
        <time>2020-02-23T11:44:06Z</time>
      </trkpt>
      <trkpt lat="42.92844" lon="0.73333">
        <ele>1583.5</ele>
        <time>2020-02-23T11:44:07Z</time>
      </trkpt>
      <trkpt lat="42.92844" lon="0.73333">
        <ele>1583.5</ele>
        <time>2020-02-23T11:44:08Z</time>
      </trkpt>
      <trkpt lat="42.92844" lon="0.73333">
        <ele>1583.5</ele>
        <time>2020-02-23T11:44:09Z</time>
      </trkpt>
      <trkpt lat="42.92843" lon="0.73331">
        <ele>1582.9</ele>
        <time>2020-02-23T11:44:10Z</time>
      </trkpt>
      <trkpt lat="42.92843" lon="0.73331">
        <ele>1582.9</ele>
        <time>2020-02-23T11:44:11Z</time>
      </trkpt>
      <trkpt lat="42.92843" lon="0.73331">
        <ele>1582.9</ele>
        <time>2020-02-23T11:44:12Z</time>
      </trkpt>
      <trkpt lat="42.92843" lon="0.73331">
        <ele>1582.9</ele>
        <time>2020-02-23T11:44:13Z</time>
      </trkpt>
      <trkpt lat="42.92841" lon="0.73329">
        <ele>1582.2</ele>
        <time>2020-02-23T11:44:14Z</time>
      </trkpt>
      <trkpt lat="42.92841" lon="0.73329">
        <ele>1582.2</ele>
        <time>2020-02-23T11:44:15Z</time>
      </trkpt>
      <trkpt lat="42.92841" lon="0.73329">
        <ele>1582.2</ele>
        <time>2020-02-23T11:44:16Z</time>
      </trkpt>
      <trkpt lat="42.92841" lon="0.73329">
        <ele>1582.2</ele>
        <time>2020-02-23T11:44:17Z</time>
      </trkpt>
      <trkpt lat="42.92841" lon="0.73329">
        <ele>1582.2</ele>
        <time>2020-02-23T11:44:18Z</time>
      </trkpt>
      <trkpt lat="42.92841" lon="0.73329">
        <ele>1582.2</ele>
        <time>2020-02-23T11:44:19Z</time>
      </trkpt>
      <trkpt lat="42.92841" lon="0.73329">
        <ele>1582.2</ele>
        <time>2020-02-23T11:44:20Z</time>
      </trkpt>
      <trkpt lat="42.9284" lon="0.73328">
        <ele>1581.5</ele>
        <time>2020-02-23T11:44:21Z</time>
      </trkpt>
      <trkpt lat="42.9284" lon="0.73328">
        <ele>1581.5</ele>
        <time>2020-02-23T11:44:22Z</time>
      </trkpt>
      <trkpt lat="42.9284" lon="0.73328">
        <ele>1581.5</ele>
        <time>2020-02-23T11:44:23Z</time>
      </trkpt>
      <trkpt lat="42.9284" lon="0.73328">
        <ele>1581.5</ele>
        <time>2020-02-23T11:44:24Z</time>
      </trkpt>
      <trkpt lat="42.9284" lon="0.73328">
        <ele>1581.5</ele>
        <time>2020-02-23T11:44:25Z</time>
      </trkpt>
      <trkpt lat="42.9284" lon="0.73328">
        <ele>1581.5</ele>
        <time>2020-02-23T11:44:26Z</time>
      </trkpt>
      <trkpt lat="42.9284" lon="0.73325">
        <ele>1580.7</ele>
        <time>2020-02-23T11:44:27Z</time>
      </trkpt>
      <trkpt lat="42.9284" lon="0.73325">
        <ele>1580.7</ele>
        <time>2020-02-23T11:44:28Z</time>
      </trkpt>
      <trkpt lat="42.9284" lon="0.73325">
        <ele>1580.7</ele>
        <time>2020-02-23T11:44:29Z</time>
      </trkpt>
      <trkpt lat="42.92842" lon="0.73323">
        <ele>1580.1</ele>
        <time>2020-02-23T11:44:30Z</time>
      </trkpt>
      <trkpt lat="42.92842" lon="0.73323">
        <ele>1580.1</ele>
        <time>2020-02-23T11:44:31Z</time>
      </trkpt>
      <trkpt lat="42.92843" lon="0.73322">
        <ele>1579.5</ele>
        <time>2020-02-23T11:44:32Z</time>
      </trkpt>
      <trkpt lat="42.92843" lon="0.73322">
        <ele>1579.5</ele>
        <time>2020-02-23T11:44:33Z</time>
      </trkpt>
      <trkpt lat="42.92843" lon="0.73322">
        <ele>1579.5</ele>
        <time>2020-02-23T11:44:34Z</time>
      </trkpt>
      <trkpt lat="42.92843" lon="0.73322">
        <ele>1579.5</ele>
        <time>2020-02-23T11:44:35Z</time>
      </trkpt>
      <trkpt lat="42.92845" lon="0.73321">
        <ele>1578.8</ele>
        <time>2020-02-23T11:44:36Z</time>
      </trkpt>
      <trkpt lat="42.92845" lon="0.73321">
        <ele>1578.8</ele>
        <time>2020-02-23T11:44:37Z</time>
      </trkpt>
      <trkpt lat="42.92845" lon="0.73321">
        <ele>1578.8</ele>
        <time>2020-02-23T11:44:38Z</time>
      </trkpt>
      <trkpt lat="42.92845" lon="0.73321">
        <ele>1578.8</ele>
        <time>2020-02-23T11:44:39Z</time>
      </trkpt>
      <trkpt lat="42.92845" lon="0.73321">
        <ele>1578.8</ele>
        <time>2020-02-23T11:44:40Z</time>
      </trkpt>
      <trkpt lat="42.92846" lon="0.73319">
        <ele>1578.1</ele>
        <time>2020-02-23T11:44:41Z</time>
      </trkpt>
      <trkpt lat="42.92846" lon="0.73319">
        <ele>1578.1</ele>
        <time>2020-02-23T11:44:42Z</time>
      </trkpt>
      <trkpt lat="42.92846" lon="0.73319">
        <ele>1578.1</ele>
        <time>2020-02-23T11:44:43Z</time>
      </trkpt>
      <trkpt lat="42.92846" lon="0.73319">
        <ele>1578.2</ele>
        <time>2020-02-23T11:44:44Z</time>
      </trkpt>
      <trkpt lat="42.92846" lon="0.73319">
        <ele>1578.2</ele>
        <time>2020-02-23T11:44:45Z</time>
      </trkpt>
      <trkpt lat="42.92846" lon="0.73319">
        <ele>1578.2</ele>
        <time>2020-02-23T11:44:46Z</time>
      </trkpt>
      <trkpt lat="42.92846" lon="0.73319">
        <ele>1578.2</ele>
        <time>2020-02-23T11:44:47Z</time>
      </trkpt>
      <trkpt lat="42.92847" lon="0.73315">
        <ele>1577.3</ele>
        <time>2020-02-23T11:44:48Z</time>
      </trkpt>
      <trkpt lat="42.92847" lon="0.73315">
        <ele>1577.3</ele>
        <time>2020-02-23T11:44:49Z</time>
      </trkpt>
      <trkpt lat="42.92847" lon="0.73315">
        <ele>1577.3</ele>
        <time>2020-02-23T11:44:50Z</time>
      </trkpt>
      <trkpt lat="42.92847" lon="0.73315">
        <ele>1577.3</ele>
        <time>2020-02-23T11:44:51Z</time>
      </trkpt>
      <trkpt lat="42.92847" lon="0.73315">
        <ele>1577.3</ele>
        <time>2020-02-23T11:44:52Z</time>
      </trkpt>
      <trkpt lat="42.92848" lon="0.73313">
        <ele>1576.7</ele>
        <time>2020-02-23T11:44:53Z</time>
      </trkpt>
      <trkpt lat="42.92848" lon="0.73313">
        <ele>1576.7</ele>
        <time>2020-02-23T11:44:54Z</time>
      </trkpt>
      <trkpt lat="42.92848" lon="0.73313">
        <ele>1576.7</ele>
        <time>2020-02-23T11:44:55Z</time>
      </trkpt>
      <trkpt lat="42.92848" lon="0.73313">
        <ele>1576.7</ele>
        <time>2020-02-23T11:44:56Z</time>
      </trkpt>
      <trkpt lat="42.92848" lon="0.73313">
        <ele>1576.7</ele>
        <time>2020-02-23T11:44:57Z</time>
      </trkpt>
      <trkpt lat="42.92848" lon="0.73313">
        <ele>1576.7</ele>
        <time>2020-02-23T11:44:58Z</time>
      </trkpt>
      <trkpt lat="42.92848" lon="0.73313">
        <ele>1576.7</ele>
        <time>2020-02-23T11:44:59Z</time>
      </trkpt>
      <trkpt lat="42.92848" lon="0.73313">
        <ele>1576.7</ele>
        <time>2020-02-23T11:45:00Z</time>
      </trkpt>
      <trkpt lat="42.92848" lon="0.73313">
        <ele>1576.8</ele>
        <time>2020-02-23T11:45:01Z</time>
      </trkpt>
      <trkpt lat="42.92848" lon="0.73313">
        <ele>1576.8</ele>
        <time>2020-02-23T11:45:02Z</time>
      </trkpt>
      <trkpt lat="42.92846" lon="0.73313">
        <ele>1576</ele>
        <time>2020-02-23T11:45:03Z</time>
      </trkpt>
      <trkpt lat="42.92846" lon="0.73313">
        <ele>1576</ele>
        <time>2020-02-23T11:45:04Z</time>
      </trkpt>
      <trkpt lat="42.92846" lon="0.73313">
        <ele>1576</ele>
        <time>2020-02-23T11:45:05Z</time>
      </trkpt>
      <trkpt lat="42.92846" lon="0.73313">
        <ele>1576</ele>
        <time>2020-02-23T11:45:06Z</time>
      </trkpt>
      <trkpt lat="42.92846" lon="0.73313">
        <ele>1576</ele>
        <time>2020-02-23T11:45:07Z</time>
      </trkpt>
      <trkpt lat="42.92846" lon="0.73313">
        <ele>1576</ele>
        <time>2020-02-23T11:45:08Z</time>
      </trkpt>
      <trkpt lat="42.92846" lon="0.73313">
        <ele>1576.1</ele>
        <time>2020-02-23T11:45:09Z</time>
      </trkpt>
      <trkpt lat="42.92846" lon="0.73313">
        <ele>1576.1</ele>
        <time>2020-02-23T11:45:10Z</time>
      </trkpt>
      <trkpt lat="42.92846" lon="0.73313">
        <ele>1576.1</ele>
        <time>2020-02-23T11:45:11Z</time>
      </trkpt>
      <trkpt lat="42.92846" lon="0.73313">
        <ele>1576.1</ele>
        <time>2020-02-23T11:45:12Z</time>
      </trkpt>
      <trkpt lat="42.92846" lon="0.73313">
        <ele>1576.1</ele>
        <time>2020-02-23T11:45:13Z</time>
      </trkpt>
      <trkpt lat="42.92846" lon="0.73313">
        <ele>1576.1</ele>
        <time>2020-02-23T11:45:14Z</time>
      </trkpt>
      <trkpt lat="42.92846" lon="0.73313">
        <ele>1576.1</ele>
        <time>2020-02-23T11:45:15Z</time>
      </trkpt>
      <trkpt lat="42.92845" lon="0.7331">
        <ele>1575.3</ele>
        <time>2020-02-23T11:45:16Z</time>
      </trkpt>
      <trkpt lat="42.92845" lon="0.7331">
        <ele>1575.3</ele>
        <time>2020-02-23T11:45:17Z</time>
      </trkpt>
      <trkpt lat="42.92845" lon="0.7331">
        <ele>1575.3</ele>
        <time>2020-02-23T11:45:18Z</time>
      </trkpt>
      <trkpt lat="42.92844" lon="0.73308">
        <ele>1574.7</ele>
        <time>2020-02-23T11:45:19Z</time>
      </trkpt>
      <trkpt lat="42.92844" lon="0.73308">
        <ele>1574.7</ele>
        <time>2020-02-23T11:45:20Z</time>
      </trkpt>
      <trkpt lat="42.92844" lon="0.73308">
        <ele>1574.7</ele>
        <time>2020-02-23T11:45:21Z</time>
      </trkpt>
      <trkpt lat="42.92843" lon="0.73307">
        <ele>1574.6</ele>
        <time>2020-02-23T11:45:22Z</time>
      </trkpt>
      <trkpt lat="42.92843" lon="0.73307">
        <ele>1574.5</ele>
        <time>2020-02-23T11:45:23Z</time>
      </trkpt>
      <trkpt lat="42.92843" lon="0.73306">
        <ele>1574.3</ele>
        <time>2020-02-23T11:45:24Z</time>
      </trkpt>
      <trkpt lat="42.92843" lon="0.73306">
        <ele>1574.2</ele>
        <time>2020-02-23T11:45:25Z</time>
      </trkpt>
      <trkpt lat="42.92843" lon="0.73305">
        <ele>1574.1</ele>
        <time>2020-02-23T11:45:26Z</time>
      </trkpt>
      <trkpt lat="42.92843" lon="0.73305">
        <ele>1574</ele>
        <time>2020-02-23T11:45:27Z</time>
      </trkpt>
      <trkpt lat="42.92843" lon="0.73305">
        <ele>1573.9</ele>
        <time>2020-02-23T11:45:28Z</time>
      </trkpt>
      <trkpt lat="42.92843" lon="0.73304">
        <ele>1573.7</ele>
        <time>2020-02-23T11:45:29Z</time>
      </trkpt>
      <trkpt lat="42.92843" lon="0.73304">
        <ele>1573.7</ele>
        <time>2020-02-23T11:45:30Z</time>
      </trkpt>
      <trkpt lat="42.92843" lon="0.73303">
        <ele>1573.6</ele>
        <time>2020-02-23T11:45:31Z</time>
      </trkpt>
      <trkpt lat="42.92843" lon="0.73303">
        <ele>1573.5</ele>
        <time>2020-02-23T11:45:32Z</time>
      </trkpt>
      <trkpt lat="42.92843" lon="0.73302">
        <ele>1573.3</ele>
        <time>2020-02-23T11:45:33Z</time>
      </trkpt>
      <trkpt lat="42.92842" lon="0.73302">
        <ele>1573.2</ele>
        <time>2020-02-23T11:45:34Z</time>
      </trkpt>
      <trkpt lat="42.92842" lon="0.73301">
        <ele>1573.1</ele>
        <time>2020-02-23T11:45:35Z</time>
      </trkpt>
      <trkpt lat="42.92842" lon="0.73299">
        <ele>1572.5</ele>
        <time>2020-02-23T11:45:36Z</time>
      </trkpt>
      <trkpt lat="42.92842" lon="0.73299">
        <ele>1572.5</ele>
        <time>2020-02-23T11:45:37Z</time>
      </trkpt>
      <trkpt lat="42.92843" lon="0.73297">
        <ele>1571.9</ele>
        <time>2020-02-23T11:45:38Z</time>
      </trkpt>
      <trkpt lat="42.92843" lon="0.73297">
        <ele>1571.9</ele>
        <time>2020-02-23T11:45:39Z</time>
      </trkpt>
      <trkpt lat="42.92843" lon="0.73297">
        <ele>1571.9</ele>
        <time>2020-02-23T11:45:40Z</time>
      </trkpt>
      <trkpt lat="42.92843" lon="0.73297">
        <ele>1571.9</ele>
        <time>2020-02-23T11:45:41Z</time>
      </trkpt>
      <trkpt lat="42.92845" lon="0.73294">
        <ele>1570.8</ele>
        <time>2020-02-23T11:45:42Z</time>
      </trkpt>
      <trkpt lat="42.92845" lon="0.73294">
        <ele>1570.8</ele>
        <time>2020-02-23T11:45:43Z</time>
      </trkpt>
      <trkpt lat="42.92847" lon="0.73292">
        <ele>1570</ele>
        <time>2020-02-23T11:45:44Z</time>
      </trkpt>
      <trkpt lat="42.92847" lon="0.73292">
        <ele>1570</ele>
        <time>2020-02-23T11:45:45Z</time>
      </trkpt>
      <trkpt lat="42.92847" lon="0.73292">
        <ele>1570</ele>
        <time>2020-02-23T11:45:46Z</time>
      </trkpt>
      <trkpt lat="42.92849" lon="0.73289">
        <ele>1569</ele>
        <time>2020-02-23T11:45:47Z</time>
      </trkpt>
      <trkpt lat="42.92849" lon="0.73289">
        <ele>1569</ele>
        <time>2020-02-23T11:45:48Z</time>
      </trkpt>
      <trkpt lat="42.92849" lon="0.73289">
        <ele>1569</ele>
        <time>2020-02-23T11:45:49Z</time>
      </trkpt>
      <trkpt lat="42.92849" lon="0.73289">
        <ele>1569</ele>
        <time>2020-02-23T11:45:50Z</time>
      </trkpt>
      <trkpt lat="42.9285" lon="0.73288">
        <ele>1568.3</ele>
        <time>2020-02-23T11:45:51Z</time>
      </trkpt>
      <trkpt lat="42.9285" lon="0.73288">
        <ele>1568.3</ele>
        <time>2020-02-23T11:45:52Z</time>
      </trkpt>
      <trkpt lat="42.9285" lon="0.73288">
        <ele>1568.3</ele>
        <time>2020-02-23T11:45:53Z</time>
      </trkpt>
      <trkpt lat="42.9285" lon="0.73285">
        <ele>1567.6</ele>
        <time>2020-02-23T11:45:54Z</time>
      </trkpt>
      <trkpt lat="42.9285" lon="0.73285">
        <ele>1567.6</ele>
        <time>2020-02-23T11:45:55Z</time>
      </trkpt>
      <trkpt lat="42.9285" lon="0.73285">
        <ele>1567.6</ele>
        <time>2020-02-23T11:45:56Z</time>
      </trkpt>
      <trkpt lat="42.9285" lon="0.73285">
        <ele>1567.6</ele>
        <time>2020-02-23T11:45:57Z</time>
      </trkpt>
      <trkpt lat="42.9285" lon="0.73285">
        <ele>1567.7</ele>
        <time>2020-02-23T11:45:58Z</time>
      </trkpt>
      <trkpt lat="42.9285" lon="0.73282">
        <ele>1566.9</ele>
        <time>2020-02-23T11:45:59Z</time>
      </trkpt>
      <trkpt lat="42.9285" lon="0.73282">
        <ele>1566.9</ele>
        <time>2020-02-23T11:46:00Z</time>
      </trkpt>
      <trkpt lat="42.92849" lon="0.7328">
        <ele>1566.2</ele>
        <time>2020-02-23T11:46:01Z</time>
      </trkpt>
      <trkpt lat="42.92849" lon="0.7328">
        <ele>1566.2</ele>
        <time>2020-02-23T11:46:02Z</time>
      </trkpt>
      <trkpt lat="42.92849" lon="0.7328">
        <ele>1566.2</ele>
        <time>2020-02-23T11:46:03Z</time>
      </trkpt>
      <trkpt lat="42.9285" lon="0.73277">
        <ele>1565.6</ele>
        <time>2020-02-23T11:46:04Z</time>
      </trkpt>
      <trkpt lat="42.9285" lon="0.73277">
        <ele>1565.6</ele>
        <time>2020-02-23T11:46:05Z</time>
      </trkpt>
      <trkpt lat="42.9285" lon="0.73277">
        <ele>1565.6</ele>
        <time>2020-02-23T11:46:06Z</time>
      </trkpt>
      <trkpt lat="42.9285" lon="0.73277">
        <ele>1565.6</ele>
        <time>2020-02-23T11:46:07Z</time>
      </trkpt>
      <trkpt lat="42.9285" lon="0.73277">
        <ele>1565.6</ele>
        <time>2020-02-23T11:46:08Z</time>
      </trkpt>
      <trkpt lat="42.9285" lon="0.73277">
        <ele>1565.6</ele>
        <time>2020-02-23T11:46:09Z</time>
      </trkpt>
      <trkpt lat="42.92851" lon="0.73275">
        <ele>1564.8</ele>
        <time>2020-02-23T11:46:10Z</time>
      </trkpt>
      <trkpt lat="42.92851" lon="0.73275">
        <ele>1564.8</ele>
        <time>2020-02-23T11:46:11Z</time>
      </trkpt>
      <trkpt lat="42.92852" lon="0.73272">
        <ele>1564</ele>
        <time>2020-02-23T11:46:12Z</time>
      </trkpt>
      <trkpt lat="42.92852" lon="0.73272">
        <ele>1564</ele>
        <time>2020-02-23T11:46:13Z</time>
      </trkpt>
      <trkpt lat="42.92852" lon="0.73272">
        <ele>1564</ele>
        <time>2020-02-23T11:46:14Z</time>
      </trkpt>
      <trkpt lat="42.92852" lon="0.73272">
        <ele>1564</ele>
        <time>2020-02-23T11:46:15Z</time>
      </trkpt>
      <trkpt lat="42.92852" lon="0.73272">
        <ele>1564</ele>
        <time>2020-02-23T11:46:16Z</time>
      </trkpt>
      <trkpt lat="42.92854" lon="0.7327">
        <ele>1563.1</ele>
        <time>2020-02-23T11:46:17Z</time>
      </trkpt>
      <trkpt lat="42.92854" lon="0.7327">
        <ele>1563.1</ele>
        <time>2020-02-23T11:46:18Z</time>
      </trkpt>
      <trkpt lat="42.92854" lon="0.7327">
        <ele>1563.1</ele>
        <time>2020-02-23T11:46:19Z</time>
      </trkpt>
      <trkpt lat="42.92854" lon="0.7327">
        <ele>1563.1</ele>
        <time>2020-02-23T11:46:20Z</time>
      </trkpt>
      <trkpt lat="42.92854" lon="0.7327">
        <ele>1563.1</ele>
        <time>2020-02-23T11:46:21Z</time>
      </trkpt>
      <trkpt lat="42.92854" lon="0.7327">
        <ele>1563.1</ele>
        <time>2020-02-23T11:46:22Z</time>
      </trkpt>
      <trkpt lat="42.92856" lon="0.73268">
        <ele>1562.2</ele>
        <time>2020-02-23T11:46:23Z</time>
      </trkpt>
      <trkpt lat="42.92856" lon="0.73268">
        <ele>1562.2</ele>
        <time>2020-02-23T11:46:24Z</time>
      </trkpt>
      <trkpt lat="42.92856" lon="0.73268">
        <ele>1562.2</ele>
        <time>2020-02-23T11:46:25Z</time>
      </trkpt>
      <trkpt lat="42.92857" lon="0.73266">
        <ele>1561.5</ele>
        <time>2020-02-23T11:46:26Z</time>
      </trkpt>
      <trkpt lat="42.92857" lon="0.73266">
        <ele>1561.5</ele>
        <time>2020-02-23T11:46:27Z</time>
      </trkpt>
      <trkpt lat="42.92857" lon="0.73266">
        <ele>1561.5</ele>
        <time>2020-02-23T11:46:28Z</time>
      </trkpt>
      <trkpt lat="42.92857" lon="0.73266">
        <ele>1561.5</ele>
        <time>2020-02-23T11:46:29Z</time>
      </trkpt>
      <trkpt lat="42.92857" lon="0.73262">
        <ele>1560.5</ele>
        <time>2020-02-23T11:46:30Z</time>
      </trkpt>
      <trkpt lat="42.92857" lon="0.73262">
        <ele>1560.5</ele>
        <time>2020-02-23T11:46:31Z</time>
      </trkpt>
      <trkpt lat="42.92858" lon="0.7326">
        <ele>1559.7</ele>
        <time>2020-02-23T11:46:32Z</time>
      </trkpt>
      <trkpt lat="42.92858" lon="0.7326">
        <ele>1559.7</ele>
        <time>2020-02-23T11:46:33Z</time>
      </trkpt>
      <trkpt lat="42.92858" lon="0.73257">
        <ele>1558.9</ele>
        <time>2020-02-23T11:46:34Z</time>
      </trkpt>
      <trkpt lat="42.92858" lon="0.73257">
        <ele>1558.9</ele>
        <time>2020-02-23T11:46:35Z</time>
      </trkpt>
      <trkpt lat="42.92858" lon="0.73257">
        <ele>1558.9</ele>
        <time>2020-02-23T11:46:36Z</time>
      </trkpt>
      <trkpt lat="42.92858" lon="0.73253">
        <ele>1557.9</ele>
        <time>2020-02-23T11:46:37Z</time>
      </trkpt>
      <trkpt lat="42.92858" lon="0.73253">
        <ele>1557.9</ele>
        <time>2020-02-23T11:46:38Z</time>
      </trkpt>
      <trkpt lat="42.92858" lon="0.73251">
        <ele>1557.1</ele>
        <time>2020-02-23T11:46:39Z</time>
      </trkpt>
      <trkpt lat="42.92858" lon="0.73251">
        <ele>1557.1</ele>
        <time>2020-02-23T11:46:40Z</time>
      </trkpt>
      <trkpt lat="42.92858" lon="0.73251">
        <ele>1557.1</ele>
        <time>2020-02-23T11:46:41Z</time>
      </trkpt>
      <trkpt lat="42.92858" lon="0.73248">
        <ele>1556.3</ele>
        <time>2020-02-23T11:46:42Z</time>
      </trkpt>
      <trkpt lat="42.92858" lon="0.73248">
        <ele>1556.3</ele>
        <time>2020-02-23T11:46:43Z</time>
      </trkpt>
      <trkpt lat="42.92858" lon="0.73248">
        <ele>1556.3</ele>
        <time>2020-02-23T11:46:44Z</time>
      </trkpt>
      <trkpt lat="42.92858" lon="0.73248">
        <ele>1556.3</ele>
        <time>2020-02-23T11:46:45Z</time>
      </trkpt>
      <trkpt lat="42.92857" lon="0.73244">
        <ele>1555.3</ele>
        <time>2020-02-23T11:46:46Z</time>
      </trkpt>
      <trkpt lat="42.92857" lon="0.73244">
        <ele>1555.3</ele>
        <time>2020-02-23T11:46:47Z</time>
      </trkpt>
      <trkpt lat="42.92857" lon="0.73244">
        <ele>1555.3</ele>
        <time>2020-02-23T11:46:48Z</time>
      </trkpt>
      <trkpt lat="42.92856" lon="0.73242">
        <ele>1554.7</ele>
        <time>2020-02-23T11:46:49Z</time>
      </trkpt>
      <trkpt lat="42.92856" lon="0.73242">
        <ele>1554.7</ele>
        <time>2020-02-23T11:46:50Z</time>
      </trkpt>
      <trkpt lat="42.92856" lon="0.73242">
        <ele>1554.7</ele>
        <time>2020-02-23T11:46:51Z</time>
      </trkpt>
      <trkpt lat="42.92856" lon="0.73242">
        <ele>1554.7</ele>
        <time>2020-02-23T11:46:52Z</time>
      </trkpt>
      <trkpt lat="42.92856" lon="0.73242">
        <ele>1554.7</ele>
        <time>2020-02-23T11:46:53Z</time>
      </trkpt>
      <trkpt lat="42.92855" lon="0.73241">
        <ele>1554.1</ele>
        <time>2020-02-23T11:46:54Z</time>
      </trkpt>
      <trkpt lat="42.92855" lon="0.73241">
        <ele>1554.1</ele>
        <time>2020-02-23T11:46:55Z</time>
      </trkpt>
      <trkpt lat="42.92855" lon="0.73241">
        <ele>1554.1</ele>
        <time>2020-02-23T11:46:56Z</time>
      </trkpt>
      <trkpt lat="42.92855" lon="0.73241">
        <ele>1554.1</ele>
        <time>2020-02-23T11:46:57Z</time>
      </trkpt>
      <trkpt lat="42.92855" lon="0.73241">
        <ele>1554.1</ele>
        <time>2020-02-23T11:46:58Z</time>
      </trkpt>
      <trkpt lat="42.92855" lon="0.73241">
        <ele>1554.1</ele>
        <time>2020-02-23T11:46:59Z</time>
      </trkpt>
      <trkpt lat="42.92855" lon="0.73241">
        <ele>1554.1</ele>
        <time>2020-02-23T11:47:00Z</time>
      </trkpt>
      <trkpt lat="42.92855" lon="0.73241">
        <ele>1554.1</ele>
        <time>2020-02-23T11:47:01Z</time>
      </trkpt>
      <trkpt lat="42.92855" lon="0.73241">
        <ele>1554.1</ele>
        <time>2020-02-23T11:47:02Z</time>
      </trkpt>
      <trkpt lat="42.92855" lon="0.73241">
        <ele>1554.1</ele>
        <time>2020-02-23T11:47:03Z</time>
      </trkpt>
      <trkpt lat="42.92855" lon="0.73241">
        <ele>1554.1</ele>
        <time>2020-02-23T11:47:04Z</time>
      </trkpt>
      <trkpt lat="42.92855" lon="0.73241">
        <ele>1554.1</ele>
        <time>2020-02-23T11:47:05Z</time>
      </trkpt>
      <trkpt lat="42.92855" lon="0.73241">
        <ele>1554.1</ele>
        <time>2020-02-23T11:47:06Z</time>
      </trkpt>
      <trkpt lat="42.92855" lon="0.73241">
        <ele>1554.1</ele>
        <time>2020-02-23T11:47:07Z</time>
      </trkpt>
      <trkpt lat="42.92855" lon="0.73241">
        <ele>1554.1</ele>
        <time>2020-02-23T11:47:08Z</time>
      </trkpt>
      <trkpt lat="42.92853" lon="0.73239">
        <ele>1553.4</ele>
        <time>2020-02-23T11:47:09Z</time>
      </trkpt>
      <trkpt lat="42.92853" lon="0.73239">
        <ele>1553.4</ele>
        <time>2020-02-23T11:47:10Z</time>
      </trkpt>
      <trkpt lat="42.92853" lon="0.73239">
        <ele>1553.4</ele>
        <time>2020-02-23T11:47:11Z</time>
      </trkpt>
      <trkpt lat="42.92854" lon="0.73237">
        <ele>1552.7</ele>
        <time>2020-02-23T11:47:12Z</time>
      </trkpt>
      <trkpt lat="42.92854" lon="0.73237">
        <ele>1552.7</ele>
        <time>2020-02-23T11:47:13Z</time>
      </trkpt>
      <trkpt lat="42.92854" lon="0.73237">
        <ele>1552.7</ele>
        <time>2020-02-23T11:47:14Z</time>
      </trkpt>
      <trkpt lat="42.92854" lon="0.73234">
        <ele>1551.9</ele>
        <time>2020-02-23T11:47:15Z</time>
      </trkpt>
      <trkpt lat="42.92854" lon="0.73234">
        <ele>1551.9</ele>
        <time>2020-02-23T11:47:16Z</time>
      </trkpt>
      <trkpt lat="42.92854" lon="0.73234">
        <ele>1551.9</ele>
        <time>2020-02-23T11:47:17Z</time>
      </trkpt>
      <trkpt lat="42.92854" lon="0.73234">
        <ele>1551.9</ele>
        <time>2020-02-23T11:47:18Z</time>
      </trkpt>
      <trkpt lat="42.92856" lon="0.73231">
        <ele>1551</ele>
        <time>2020-02-23T11:47:19Z</time>
      </trkpt>
      <trkpt lat="42.92856" lon="0.73231">
        <ele>1551</ele>
        <time>2020-02-23T11:47:20Z</time>
      </trkpt>
      <trkpt lat="42.92856" lon="0.7323">
        <ele>1550.9</ele>
        <time>2020-02-23T11:47:21Z</time>
      </trkpt>
      <trkpt lat="42.92856" lon="0.7323">
        <ele>1550.8</ele>
        <time>2020-02-23T11:47:22Z</time>
      </trkpt>
      <trkpt lat="42.92856" lon="0.73229">
        <ele>1550.7</ele>
        <time>2020-02-23T11:47:23Z</time>
      </trkpt>
      <trkpt lat="42.92856" lon="0.73229">
        <ele>1550.5</ele>
        <time>2020-02-23T11:47:24Z</time>
      </trkpt>
      <trkpt lat="42.92856" lon="0.73229">
        <ele>1550.4</ele>
        <time>2020-02-23T11:47:25Z</time>
      </trkpt>
      <trkpt lat="42.92856" lon="0.73228">
        <ele>1550.3</ele>
        <time>2020-02-23T11:47:26Z</time>
      </trkpt>
      <trkpt lat="42.92857" lon="0.73228">
        <ele>1550.2</ele>
        <time>2020-02-23T11:47:27Z</time>
      </trkpt>
      <trkpt lat="42.92857" lon="0.73227">
        <ele>1550.1</ele>
        <time>2020-02-23T11:47:28Z</time>
      </trkpt>
      <trkpt lat="42.92857" lon="0.73227">
        <ele>1550</ele>
        <time>2020-02-23T11:47:29Z</time>
      </trkpt>
      <trkpt lat="42.92857" lon="0.73226">
        <ele>1549.9</ele>
        <time>2020-02-23T11:47:30Z</time>
      </trkpt>
      <trkpt lat="42.92857" lon="0.73226">
        <ele>1549.8</ele>
        <time>2020-02-23T11:47:31Z</time>
      </trkpt>
      <trkpt lat="42.92857" lon="0.73226">
        <ele>1549.7</ele>
        <time>2020-02-23T11:47:32Z</time>
      </trkpt>
      <trkpt lat="42.92857" lon="0.73225">
        <ele>1549.6</ele>
        <time>2020-02-23T11:47:33Z</time>
      </trkpt>
      <trkpt lat="42.92858" lon="0.73225">
        <ele>1549.5</ele>
        <time>2020-02-23T11:47:34Z</time>
      </trkpt>
      <trkpt lat="42.92858" lon="0.73224">
        <ele>1549.4</ele>
        <time>2020-02-23T11:47:35Z</time>
      </trkpt>
      <trkpt lat="42.92858" lon="0.73224">
        <ele>1549.3</ele>
        <time>2020-02-23T11:47:36Z</time>
      </trkpt>
      <trkpt lat="42.92858" lon="0.73223">
        <ele>1549.3</ele>
        <time>2020-02-23T11:47:37Z</time>
      </trkpt>
      <trkpt lat="42.92858" lon="0.73223">
        <ele>1549.2</ele>
        <time>2020-02-23T11:47:38Z</time>
      </trkpt>
      <trkpt lat="42.92858" lon="0.73223">
        <ele>1549.2</ele>
        <time>2020-02-23T11:47:39Z</time>
      </trkpt>
      <trkpt lat="42.92858" lon="0.73222">
        <ele>1549.2</ele>
        <time>2020-02-23T11:47:40Z</time>
      </trkpt>
      <trkpt lat="42.92859" lon="0.73222">
        <ele>1549.1</ele>
        <time>2020-02-23T11:47:41Z</time>
      </trkpt>
      <trkpt lat="42.92859" lon="0.73221">
        <ele>1549.1</ele>
        <time>2020-02-23T11:47:42Z</time>
      </trkpt>
      <trkpt lat="42.92859" lon="0.73221">
        <ele>1549</ele>
        <time>2020-02-23T11:47:43Z</time>
      </trkpt>
      <trkpt lat="42.92859" lon="0.7322">
        <ele>1549</ele>
        <time>2020-02-23T11:47:44Z</time>
      </trkpt>
      <trkpt lat="42.92859" lon="0.7322">
        <ele>1548.9</ele>
        <time>2020-02-23T11:47:45Z</time>
      </trkpt>
      <trkpt lat="42.92859" lon="0.7322">
        <ele>1548.9</ele>
        <time>2020-02-23T11:47:46Z</time>
      </trkpt>
      <trkpt lat="42.92859" lon="0.73219">
        <ele>1548.8</ele>
        <time>2020-02-23T11:47:47Z</time>
      </trkpt>
      <trkpt lat="42.9286" lon="0.73218">
        <ele>1548.7</ele>
        <time>2020-02-23T11:47:48Z</time>
      </trkpt>
      <trkpt lat="42.9286" lon="0.73217">
        <ele>1548.6</ele>
        <time>2020-02-23T11:47:49Z</time>
      </trkpt>
      <trkpt lat="42.9286" lon="0.73216">
        <ele>1548.5</ele>
        <time>2020-02-23T11:47:50Z</time>
      </trkpt>
      <trkpt lat="42.9286" lon="0.73214">
        <ele>1548.4</ele>
        <time>2020-02-23T11:47:51Z</time>
      </trkpt>
      <trkpt lat="42.92861" lon="0.73213">
        <ele>1548.2</ele>
        <time>2020-02-23T11:47:52Z</time>
      </trkpt>
      <trkpt lat="42.92861" lon="0.73212">
        <ele>1548.1</ele>
        <time>2020-02-23T11:47:53Z</time>
      </trkpt>
      <trkpt lat="42.92861" lon="0.73211">
        <ele>1548</ele>
        <time>2020-02-23T11:47:54Z</time>
      </trkpt>
      <trkpt lat="42.92861" lon="0.7321">
        <ele>1547.9</ele>
        <time>2020-02-23T11:47:55Z</time>
      </trkpt>
      <trkpt lat="42.92861" lon="0.73209">
        <ele>1547.8</ele>
        <time>2020-02-23T11:47:56Z</time>
      </trkpt>
      <trkpt lat="42.92862" lon="0.73207">
        <ele>1547.8</ele>
        <time>2020-02-23T11:47:57Z</time>
      </trkpt>
      <trkpt lat="42.92865" lon="0.73206">
        <ele>1547.5</ele>
        <time>2020-02-23T11:47:58Z</time>
      </trkpt>
      <trkpt lat="42.92865" lon="0.73206">
        <ele>1547.5</ele>
        <time>2020-02-23T11:47:59Z</time>
      </trkpt>
      <trkpt lat="42.92865" lon="0.73206">
        <ele>1547.5</ele>
        <time>2020-02-23T11:48:00Z</time>
      </trkpt>
      <trkpt lat="42.92865" lon="0.73206">
        <ele>1547.5</ele>
        <time>2020-02-23T11:48:01Z</time>
      </trkpt>
      <trkpt lat="42.92866" lon="0.73204">
        <ele>1547.4</ele>
        <time>2020-02-23T11:48:02Z</time>
      </trkpt>
      <trkpt lat="42.92866" lon="0.73204">
        <ele>1547.4</ele>
        <time>2020-02-23T11:48:03Z</time>
      </trkpt>
      <trkpt lat="42.92868" lon="0.73203">
        <ele>1547.2</ele>
        <time>2020-02-23T11:48:04Z</time>
      </trkpt>
      <trkpt lat="42.92868" lon="0.73203">
        <ele>1547.2</ele>
        <time>2020-02-23T11:48:05Z</time>
      </trkpt>
      <trkpt lat="42.92868" lon="0.73203">
        <ele>1547.2</ele>
        <time>2020-02-23T11:48:06Z</time>
      </trkpt>
      <trkpt lat="42.92868" lon="0.73203">
        <ele>1547.2</ele>
        <time>2020-02-23T11:48:07Z</time>
      </trkpt>
      <trkpt lat="42.9287" lon="0.73202">
        <ele>1546.9</ele>
        <time>2020-02-23T11:48:08Z</time>
      </trkpt>
      <trkpt lat="42.9287" lon="0.73202">
        <ele>1546.9</ele>
        <time>2020-02-23T11:48:09Z</time>
      </trkpt>
      <trkpt lat="42.9287" lon="0.73202">
        <ele>1546.9</ele>
        <time>2020-02-23T11:48:10Z</time>
      </trkpt>
      <trkpt lat="42.92872" lon="0.73202">
        <ele>1546.4</ele>
        <time>2020-02-23T11:48:11Z</time>
      </trkpt>
      <trkpt lat="42.92875" lon="0.732">
        <ele>1545.7</ele>
        <time>2020-02-23T11:48:12Z</time>
      </trkpt>
      <trkpt lat="42.92875" lon="0.732">
        <ele>1545.7</ele>
        <time>2020-02-23T11:48:13Z</time>
      </trkpt>
      <trkpt lat="42.92876" lon="0.732">
        <ele>1545.3</ele>
        <time>2020-02-23T11:48:14Z</time>
      </trkpt>
      <trkpt lat="42.92876" lon="0.732">
        <ele>1545.3</ele>
        <time>2020-02-23T11:48:15Z</time>
      </trkpt>
      <trkpt lat="42.92879" lon="0.732">
        <ele>1544.7</ele>
        <time>2020-02-23T11:48:16Z</time>
      </trkpt>
      <trkpt lat="42.92879" lon="0.732">
        <ele>1544.7</ele>
        <time>2020-02-23T11:48:17Z</time>
      </trkpt>
      <trkpt lat="42.92881" lon="0.732">
        <ele>1544.5</ele>
        <time>2020-02-23T11:48:18Z</time>
      </trkpt>
      <trkpt lat="42.92881" lon="0.732">
        <ele>1544.5</ele>
        <time>2020-02-23T11:48:19Z</time>
      </trkpt>
      <trkpt lat="42.92881" lon="0.732">
        <ele>1544.5</ele>
        <time>2020-02-23T11:48:20Z</time>
      </trkpt>
      <trkpt lat="42.92881" lon="0.732">
        <ele>1544.5</ele>
        <time>2020-02-23T11:48:21Z</time>
      </trkpt>
      <trkpt lat="42.92883" lon="0.732">
        <ele>1544.3</ele>
        <time>2020-02-23T11:48:22Z</time>
      </trkpt>
      <trkpt lat="42.92883" lon="0.732">
        <ele>1544.3</ele>
        <time>2020-02-23T11:48:23Z</time>
      </trkpt>
      <trkpt lat="42.92883" lon="0.732">
        <ele>1544.3</ele>
        <time>2020-02-23T11:48:24Z</time>
      </trkpt>
      <trkpt lat="42.92883" lon="0.732">
        <ele>1544.3</ele>
        <time>2020-02-23T11:48:25Z</time>
      </trkpt>
      <trkpt lat="42.92883" lon="0.732">
        <ele>1544.3</ele>
        <time>2020-02-23T11:48:26Z</time>
      </trkpt>
      <trkpt lat="42.92886" lon="0.73201">
        <ele>1544</ele>
        <time>2020-02-23T11:48:27Z</time>
      </trkpt>
      <trkpt lat="42.92886" lon="0.73201">
        <ele>1544</ele>
        <time>2020-02-23T11:48:28Z</time>
      </trkpt>
      <trkpt lat="42.92886" lon="0.73201">
        <ele>1544</ele>
        <time>2020-02-23T11:48:29Z</time>
      </trkpt>
      <trkpt lat="42.92889" lon="0.73201">
        <ele>1543.8</ele>
        <time>2020-02-23T11:48:30Z</time>
      </trkpt>
      <trkpt lat="42.92889" lon="0.73201">
        <ele>1543.8</ele>
        <time>2020-02-23T11:48:31Z</time>
      </trkpt>
      <trkpt lat="42.92891" lon="0.732">
        <ele>1543.2</ele>
        <time>2020-02-23T11:48:32Z</time>
      </trkpt>
      <trkpt lat="42.92891" lon="0.732">
        <ele>1543.2</ele>
        <time>2020-02-23T11:48:33Z</time>
      </trkpt>
      <trkpt lat="42.92893" lon="0.73201">
        <ele>1542.7</ele>
        <time>2020-02-23T11:48:34Z</time>
      </trkpt>
      <trkpt lat="42.92893" lon="0.73201">
        <ele>1542.7</ele>
        <time>2020-02-23T11:48:35Z</time>
      </trkpt>
      <trkpt lat="42.92896" lon="0.732">
        <ele>1541.9</ele>
        <time>2020-02-23T11:48:36Z</time>
      </trkpt>
      <trkpt lat="42.92896" lon="0.732">
        <ele>1541.9</ele>
        <time>2020-02-23T11:48:37Z</time>
      </trkpt>
      <trkpt lat="42.92896" lon="0.732">
        <ele>1541.9</ele>
        <time>2020-02-23T11:48:38Z</time>
      </trkpt>
      <trkpt lat="42.92896" lon="0.732">
        <ele>1541.9</ele>
        <time>2020-02-23T11:48:39Z</time>
      </trkpt>
      <trkpt lat="42.92899" lon="0.732">
        <ele>1541.2</ele>
        <time>2020-02-23T11:48:40Z</time>
      </trkpt>
      <trkpt lat="42.92899" lon="0.732">
        <ele>1541.2</ele>
        <time>2020-02-23T11:48:41Z</time>
      </trkpt>
      <trkpt lat="42.92899" lon="0.732">
        <ele>1541.2</ele>
        <time>2020-02-23T11:48:42Z</time>
      </trkpt>
      <trkpt lat="42.92901" lon="0.732">
        <ele>1540.6</ele>
        <time>2020-02-23T11:48:43Z</time>
      </trkpt>
      <trkpt lat="42.92903" lon="0.73199">
        <ele>1540</ele>
        <time>2020-02-23T11:48:44Z</time>
      </trkpt>
      <trkpt lat="42.92903" lon="0.73199">
        <ele>1540</ele>
        <time>2020-02-23T11:48:45Z</time>
      </trkpt>
      <trkpt lat="42.92903" lon="0.73199">
        <ele>1540</ele>
        <time>2020-02-23T11:48:46Z</time>
      </trkpt>
      <trkpt lat="42.92905" lon="0.73198">
        <ele>1539.4</ele>
        <time>2020-02-23T11:48:47Z</time>
      </trkpt>
      <trkpt lat="42.92905" lon="0.73198">
        <ele>1539.4</ele>
        <time>2020-02-23T11:48:48Z</time>
      </trkpt>
      <trkpt lat="42.92905" lon="0.73198">
        <ele>1539.4</ele>
        <time>2020-02-23T11:48:49Z</time>
      </trkpt>
      <trkpt lat="42.92907" lon="0.73198">
        <ele>1538.7</ele>
        <time>2020-02-23T11:48:50Z</time>
      </trkpt>
      <trkpt lat="42.92907" lon="0.73198">
        <ele>1538.7</ele>
        <time>2020-02-23T11:48:51Z</time>
      </trkpt>
      <trkpt lat="42.92907" lon="0.73198">
        <ele>1538.7</ele>
        <time>2020-02-23T11:48:52Z</time>
      </trkpt>
      <trkpt lat="42.92909" lon="0.73198">
        <ele>1538.1</ele>
        <time>2020-02-23T11:48:53Z</time>
      </trkpt>
      <trkpt lat="42.92909" lon="0.73198">
        <ele>1538.1</ele>
        <time>2020-02-23T11:48:54Z</time>
      </trkpt>
      <trkpt lat="42.92909" lon="0.73198">
        <ele>1538.1</ele>
        <time>2020-02-23T11:48:55Z</time>
      </trkpt>
      <trkpt lat="42.9291" lon="0.73197">
        <ele>1537.9</ele>
        <time>2020-02-23T11:48:56Z</time>
      </trkpt>
      <trkpt lat="42.9291" lon="0.73196">
        <ele>1537.8</ele>
        <time>2020-02-23T11:48:57Z</time>
      </trkpt>
      <trkpt lat="42.92911" lon="0.73195">
        <ele>1537.8</ele>
        <time>2020-02-23T11:48:58Z</time>
      </trkpt>
      <trkpt lat="42.92911" lon="0.73194">
        <ele>1537.7</ele>
        <time>2020-02-23T11:48:59Z</time>
      </trkpt>
      <trkpt lat="42.92912" lon="0.73193">
        <ele>1537.6</ele>
        <time>2020-02-23T11:49:00Z</time>
      </trkpt>
      <trkpt lat="42.92913" lon="0.73192">
        <ele>1537.6</ele>
        <time>2020-02-23T11:49:01Z</time>
      </trkpt>
      <trkpt lat="42.92913" lon="0.73191">
        <ele>1537.5</ele>
        <time>2020-02-23T11:49:02Z</time>
      </trkpt>
      <trkpt lat="42.92914" lon="0.7319">
        <ele>1537.4</ele>
        <time>2020-02-23T11:49:03Z</time>
      </trkpt>
      <trkpt lat="42.92914" lon="0.73189">
        <ele>1537.4</ele>
        <time>2020-02-23T11:49:04Z</time>
      </trkpt>
      <trkpt lat="42.92915" lon="0.73188">
        <ele>1537.3</ele>
        <time>2020-02-23T11:49:05Z</time>
      </trkpt>
      <trkpt lat="42.92915" lon="0.73187">
        <ele>1537.3</ele>
        <time>2020-02-23T11:49:06Z</time>
      </trkpt>
      <trkpt lat="42.92914" lon="0.73187">
        <ele>1537.2</ele>
        <time>2020-02-23T11:49:07Z</time>
      </trkpt>
      <trkpt lat="42.92914" lon="0.73186">
        <ele>1537.1</ele>
        <time>2020-02-23T11:49:08Z</time>
      </trkpt>
      <trkpt lat="42.92914" lon="0.73185">
        <ele>1536.9</ele>
        <time>2020-02-23T11:49:09Z</time>
      </trkpt>
      <trkpt lat="42.92914" lon="0.73184">
        <ele>1536.8</ele>
        <time>2020-02-23T11:49:10Z</time>
      </trkpt>
      <trkpt lat="42.92914" lon="0.73184">
        <ele>1536.6</ele>
        <time>2020-02-23T11:49:11Z</time>
      </trkpt>
      <trkpt lat="42.92913" lon="0.73183">
        <ele>1536.5</ele>
        <time>2020-02-23T11:49:12Z</time>
      </trkpt>
      <trkpt lat="42.92913" lon="0.73182">
        <ele>1536.4</ele>
        <time>2020-02-23T11:49:13Z</time>
      </trkpt>
      <trkpt lat="42.92913" lon="0.73182">
        <ele>1536.4</ele>
        <time>2020-02-23T11:49:14Z</time>
      </trkpt>
      <trkpt lat="42.92912" lon="0.7318">
        <ele>1535.8</ele>
        <time>2020-02-23T11:49:15Z</time>
      </trkpt>
      <trkpt lat="42.92912" lon="0.7318">
        <ele>1535.8</ele>
        <time>2020-02-23T11:49:16Z</time>
      </trkpt>
      <trkpt lat="42.92912" lon="0.7318">
        <ele>1535.8</ele>
        <time>2020-02-23T11:49:17Z</time>
      </trkpt>
      <trkpt lat="42.92912" lon="0.7318">
        <ele>1535.8</ele>
        <time>2020-02-23T11:49:18Z</time>
      </trkpt>
      <trkpt lat="42.92912" lon="0.7318">
        <ele>1535.8</ele>
        <time>2020-02-23T11:49:19Z</time>
      </trkpt>
      <trkpt lat="42.92912" lon="0.7318">
        <ele>1535.8</ele>
        <time>2020-02-23T11:49:20Z</time>
      </trkpt>
      <trkpt lat="42.92912" lon="0.7318">
        <ele>1535.8</ele>
        <time>2020-02-23T11:49:21Z</time>
      </trkpt>
      <trkpt lat="42.92912" lon="0.7318">
        <ele>1535.8</ele>
        <time>2020-02-23T11:49:22Z</time>
      </trkpt>
      <trkpt lat="42.92912" lon="0.7318">
        <ele>1535.8</ele>
        <time>2020-02-23T11:49:23Z</time>
      </trkpt>
      <trkpt lat="42.92912" lon="0.7318">
        <ele>1535.8</ele>
        <time>2020-02-23T11:49:24Z</time>
      </trkpt>
      <trkpt lat="42.92914" lon="0.73181">
        <ele>1535.2</ele>
        <time>2020-02-23T11:49:25Z</time>
      </trkpt>
      <trkpt lat="42.92914" lon="0.73181">
        <ele>1535.2</ele>
        <time>2020-02-23T11:49:26Z</time>
      </trkpt>
      <trkpt lat="42.92914" lon="0.73181">
        <ele>1535.2</ele>
        <time>2020-02-23T11:49:27Z</time>
      </trkpt>
      <trkpt lat="42.92916" lon="0.7318">
        <ele>1534.7</ele>
        <time>2020-02-23T11:49:28Z</time>
      </trkpt>
      <trkpt lat="42.92916" lon="0.7318">
        <ele>1534.7</ele>
        <time>2020-02-23T11:49:29Z</time>
      </trkpt>
      <trkpt lat="42.92916" lon="0.7318">
        <ele>1534.7</ele>
        <time>2020-02-23T11:49:30Z</time>
      </trkpt>
      <trkpt lat="42.92916" lon="0.7318">
        <ele>1534.7</ele>
        <time>2020-02-23T11:49:31Z</time>
      </trkpt>
      <trkpt lat="42.92915" lon="0.73177">
        <ele>1534.2</ele>
        <time>2020-02-23T11:49:32Z</time>
      </trkpt>
      <trkpt lat="42.92915" lon="0.73177">
        <ele>1534.2</ele>
        <time>2020-02-23T11:49:33Z</time>
      </trkpt>
      <trkpt lat="42.92915" lon="0.73176">
        <ele>1533.8</ele>
        <time>2020-02-23T11:49:34Z</time>
      </trkpt>
      <trkpt lat="42.92915" lon="0.73174">
        <ele>1533.4</ele>
        <time>2020-02-23T11:49:35Z</time>
      </trkpt>
      <trkpt lat="42.92915" lon="0.73172">
        <ele>1533.1</ele>
        <time>2020-02-23T11:49:36Z</time>
      </trkpt>
      <trkpt lat="42.92915" lon="0.7317">
        <ele>1532.7</ele>
        <time>2020-02-23T11:49:37Z</time>
      </trkpt>
      <trkpt lat="42.92915" lon="0.73168">
        <ele>1532.3</ele>
        <time>2020-02-23T11:49:38Z</time>
      </trkpt>
      <trkpt lat="42.92915" lon="0.73164">
        <ele>1531.2</ele>
        <time>2020-02-23T11:49:39Z</time>
      </trkpt>
      <trkpt lat="42.92915" lon="0.73164">
        <ele>1531.2</ele>
        <time>2020-02-23T11:49:40Z</time>
      </trkpt>
      <trkpt lat="42.92915" lon="0.73164">
        <ele>1531.2</ele>
        <time>2020-02-23T11:49:41Z</time>
      </trkpt>
      <trkpt lat="42.92914" lon="0.73161">
        <ele>1530.6</ele>
        <time>2020-02-23T11:49:42Z</time>
      </trkpt>
      <trkpt lat="42.92914" lon="0.73161">
        <ele>1530.6</ele>
        <time>2020-02-23T11:49:43Z</time>
      </trkpt>
      <trkpt lat="42.92914" lon="0.73161">
        <ele>1530.6</ele>
        <time>2020-02-23T11:49:44Z</time>
      </trkpt>
      <trkpt lat="42.92914" lon="0.73161">
        <ele>1530.6</ele>
        <time>2020-02-23T11:49:45Z</time>
      </trkpt>
      <trkpt lat="42.92914" lon="0.73161">
        <ele>1530.6</ele>
        <time>2020-02-23T11:49:46Z</time>
      </trkpt>
      <trkpt lat="42.92914" lon="0.73161">
        <ele>1530.6</ele>
        <time>2020-02-23T11:49:47Z</time>
      </trkpt>
      <trkpt lat="42.92914" lon="0.73161">
        <ele>1530.6</ele>
        <time>2020-02-23T11:49:48Z</time>
      </trkpt>
      <trkpt lat="42.92914" lon="0.73161">
        <ele>1530.6</ele>
        <time>2020-02-23T11:49:49Z</time>
      </trkpt>
      <trkpt lat="42.92914" lon="0.73161">
        <ele>1530.6</ele>
        <time>2020-02-23T11:49:50Z</time>
      </trkpt>
      <trkpt lat="42.92914" lon="0.73161">
        <ele>1530.6</ele>
        <time>2020-02-23T11:49:51Z</time>
      </trkpt>
      <trkpt lat="42.92916" lon="0.73162">
        <ele>1529.9</ele>
        <time>2020-02-23T11:49:52Z</time>
      </trkpt>
      <trkpt lat="42.92916" lon="0.73162">
        <ele>1529.9</ele>
        <time>2020-02-23T11:49:53Z</time>
      </trkpt>
      <trkpt lat="42.92916" lon="0.73162">
        <ele>1529.9</ele>
        <time>2020-02-23T11:49:54Z</time>
      </trkpt>
      <trkpt lat="42.92916" lon="0.73165">
        <ele>1529</ele>
        <time>2020-02-23T11:49:55Z</time>
      </trkpt>
      <trkpt lat="42.92916" lon="0.73165">
        <ele>1529</ele>
        <time>2020-02-23T11:49:56Z</time>
      </trkpt>
      <trkpt lat="42.92916" lon="0.73165">
        <ele>1529</ele>
        <time>2020-02-23T11:49:57Z</time>
      </trkpt>
      <trkpt lat="42.92916" lon="0.73165">
        <ele>1529</ele>
        <time>2020-02-23T11:49:58Z</time>
      </trkpt>
      <trkpt lat="42.92917" lon="0.73167">
        <ele>1528.3</ele>
        <time>2020-02-23T11:49:59Z</time>
      </trkpt>
      <trkpt lat="42.92917" lon="0.73167">
        <ele>1528.3</ele>
        <time>2020-02-23T11:50:00Z</time>
      </trkpt>
      <trkpt lat="42.92917" lon="0.73167">
        <ele>1528.3</ele>
        <time>2020-02-23T11:50:01Z</time>
      </trkpt>
      <trkpt lat="42.92917" lon="0.73167">
        <ele>1528.3</ele>
        <time>2020-02-23T11:50:02Z</time>
      </trkpt>
      <trkpt lat="42.92919" lon="0.73164">
        <ele>1527.2</ele>
        <time>2020-02-23T11:50:03Z</time>
      </trkpt>
      <trkpt lat="42.92919" lon="0.73164">
        <ele>1527.2</ele>
        <time>2020-02-23T11:50:04Z</time>
      </trkpt>
      <trkpt lat="42.92919" lon="0.73164">
        <ele>1527.2</ele>
        <time>2020-02-23T11:50:05Z</time>
      </trkpt>
      <trkpt lat="42.92919" lon="0.73164">
        <ele>1527.2</ele>
        <time>2020-02-23T11:50:06Z</time>
      </trkpt>
      <trkpt lat="42.92919" lon="0.73164">
        <ele>1527.2</ele>
        <time>2020-02-23T11:50:07Z</time>
      </trkpt>
      <trkpt lat="42.92919" lon="0.73164">
        <ele>1527.2</ele>
        <time>2020-02-23T11:50:08Z</time>
      </trkpt>
      <trkpt lat="42.9292" lon="0.73162">
        <ele>1526.4</ele>
        <time>2020-02-23T11:50:09Z</time>
      </trkpt>
      <trkpt lat="42.9292" lon="0.73162">
        <ele>1526.4</ele>
        <time>2020-02-23T11:50:10Z</time>
      </trkpt>
      <trkpt lat="42.9292" lon="0.73162">
        <ele>1526.4</ele>
        <time>2020-02-23T11:50:11Z</time>
      </trkpt>
      <trkpt lat="42.9292" lon="0.73162">
        <ele>1526.4</ele>
        <time>2020-02-23T11:50:12Z</time>
      </trkpt>
      <trkpt lat="42.9292" lon="0.73162">
        <ele>1526.4</ele>
        <time>2020-02-23T11:50:13Z</time>
      </trkpt>
      <trkpt lat="42.92918" lon="0.73163">
        <ele>1525.7</ele>
        <time>2020-02-23T11:50:14Z</time>
      </trkpt>
      <trkpt lat="42.92918" lon="0.73163">
        <ele>1525.7</ele>
        <time>2020-02-23T11:50:15Z</time>
      </trkpt>
      <trkpt lat="42.92918" lon="0.73163">
        <ele>1525.7</ele>
        <time>2020-02-23T11:50:16Z</time>
      </trkpt>
      <trkpt lat="42.92918" lon="0.73163">
        <ele>1525.7</ele>
        <time>2020-02-23T11:50:17Z</time>
      </trkpt>
      <trkpt lat="42.92918" lon="0.73163">
        <ele>1525.7</ele>
        <time>2020-02-23T11:50:18Z</time>
      </trkpt>
      <trkpt lat="42.92918" lon="0.73163">
        <ele>1525.7</ele>
        <time>2020-02-23T11:50:19Z</time>
      </trkpt>
      <trkpt lat="42.92918" lon="0.73163">
        <ele>1525.7</ele>
        <time>2020-02-23T11:50:20Z</time>
      </trkpt>
      <trkpt lat="42.92917" lon="0.73159">
        <ele>1524.6</ele>
        <time>2020-02-23T11:50:21Z</time>
      </trkpt>
      <trkpt lat="42.92917" lon="0.73159">
        <ele>1524.6</ele>
        <time>2020-02-23T11:50:22Z</time>
      </trkpt>
      <trkpt lat="42.92919" lon="0.73156">
        <ele>1523.5</ele>
        <time>2020-02-23T11:50:23Z</time>
      </trkpt>
      <trkpt lat="42.92919" lon="0.73156">
        <ele>1523.5</ele>
        <time>2020-02-23T11:50:24Z</time>
      </trkpt>
      <trkpt lat="42.92921" lon="0.73154">
        <ele>1522.5</ele>
        <time>2020-02-23T11:50:25Z</time>
      </trkpt>
      <trkpt lat="42.92921" lon="0.73154">
        <ele>1522.5</ele>
        <time>2020-02-23T11:50:26Z</time>
      </trkpt>
      <trkpt lat="42.92923" lon="0.73153">
        <ele>1521.5</ele>
        <time>2020-02-23T11:50:27Z</time>
      </trkpt>
      <trkpt lat="42.92923" lon="0.73153">
        <ele>1521.5</ele>
        <time>2020-02-23T11:50:28Z</time>
      </trkpt>
      <trkpt lat="42.92925" lon="0.73152">
        <ele>1520.7</ele>
        <time>2020-02-23T11:50:29Z</time>
      </trkpt>
      <trkpt lat="42.92927" lon="0.73151">
        <ele>1519.9</ele>
        <time>2020-02-23T11:50:30Z</time>
      </trkpt>
      <trkpt lat="42.92927" lon="0.73151">
        <ele>1519.9</ele>
        <time>2020-02-23T11:50:31Z</time>
      </trkpt>
      <trkpt lat="42.92927" lon="0.73151">
        <ele>1519.9</ele>
        <time>2020-02-23T11:50:32Z</time>
      </trkpt>
      <trkpt lat="42.92929" lon="0.7315">
        <ele>1519</ele>
        <time>2020-02-23T11:50:33Z</time>
      </trkpt>
      <trkpt lat="42.92932" lon="0.73149">
        <ele>1517.9</ele>
        <time>2020-02-23T11:50:34Z</time>
      </trkpt>
      <trkpt lat="42.92932" lon="0.73149">
        <ele>1517.9</ele>
        <time>2020-02-23T11:50:35Z</time>
      </trkpt>
      <trkpt lat="42.92932" lon="0.73149">
        <ele>1517.9</ele>
        <time>2020-02-23T11:50:36Z</time>
      </trkpt>
      <trkpt lat="42.92934" lon="0.73148">
        <ele>1517</ele>
        <time>2020-02-23T11:50:37Z</time>
      </trkpt>
      <trkpt lat="42.92934" lon="0.73148">
        <ele>1517</ele>
        <time>2020-02-23T11:50:38Z</time>
      </trkpt>
      <trkpt lat="42.92934" lon="0.73148">
        <ele>1517</ele>
        <time>2020-02-23T11:50:39Z</time>
      </trkpt>
      <trkpt lat="42.92937" lon="0.73147">
        <ele>1515.8</ele>
        <time>2020-02-23T11:50:40Z</time>
      </trkpt>
      <trkpt lat="42.92937" lon="0.73147">
        <ele>1515.8</ele>
        <time>2020-02-23T11:50:41Z</time>
      </trkpt>
      <trkpt lat="42.92937" lon="0.73147">
        <ele>1515.8</ele>
        <time>2020-02-23T11:50:42Z</time>
      </trkpt>
      <trkpt lat="42.92937" lon="0.73147">
        <ele>1515.8</ele>
        <time>2020-02-23T11:50:43Z</time>
      </trkpt>
      <trkpt lat="42.92937" lon="0.73147">
        <ele>1515.8</ele>
        <time>2020-02-23T11:50:44Z</time>
      </trkpt>
      <trkpt lat="42.92939" lon="0.73147">
        <ele>1515.1</ele>
        <time>2020-02-23T11:50:45Z</time>
      </trkpt>
      <trkpt lat="42.92939" lon="0.73147">
        <ele>1515.1</ele>
        <time>2020-02-23T11:50:46Z</time>
      </trkpt>
      <trkpt lat="42.92939" lon="0.73147">
        <ele>1515.1</ele>
        <time>2020-02-23T11:50:47Z</time>
      </trkpt>
      <trkpt lat="42.92939" lon="0.73147">
        <ele>1515.1</ele>
        <time>2020-02-23T11:50:48Z</time>
      </trkpt>
      <trkpt lat="42.9294" lon="0.73148">
        <ele>1514.3</ele>
        <time>2020-02-23T11:50:49Z</time>
      </trkpt>
      <trkpt lat="42.9294" lon="0.73148">
        <ele>1514.3</ele>
        <time>2020-02-23T11:50:50Z</time>
      </trkpt>
      <trkpt lat="42.9294" lon="0.73148">
        <ele>1514.3</ele>
        <time>2020-02-23T11:50:51Z</time>
      </trkpt>
      <trkpt lat="42.9294" lon="0.73148">
        <ele>1514.3</ele>
        <time>2020-02-23T11:50:52Z</time>
      </trkpt>
      <trkpt lat="42.9294" lon="0.73148">
        <ele>1514.3</ele>
        <time>2020-02-23T11:50:53Z</time>
      </trkpt>
      <trkpt lat="42.9294" lon="0.73148">
        <ele>1514.3</ele>
        <time>2020-02-23T11:50:54Z</time>
      </trkpt>
      <trkpt lat="42.9294" lon="0.73148">
        <ele>1514.3</ele>
        <time>2020-02-23T11:50:55Z</time>
      </trkpt>
      <trkpt lat="42.9294" lon="0.73148">
        <ele>1514.3</ele>
        <time>2020-02-23T11:50:56Z</time>
      </trkpt>
      <trkpt lat="42.92939" lon="0.73145">
        <ele>1513.5</ele>
        <time>2020-02-23T11:50:57Z</time>
      </trkpt>
      <trkpt lat="42.92939" lon="0.73145">
        <ele>1513.5</ele>
        <time>2020-02-23T11:50:58Z</time>
      </trkpt>
      <trkpt lat="42.92939" lon="0.73145">
        <ele>1513.5</ele>
        <time>2020-02-23T11:50:59Z</time>
      </trkpt>
      <trkpt lat="42.92939" lon="0.73145">
        <ele>1513.5</ele>
        <time>2020-02-23T11:51:00Z</time>
      </trkpt>
      <trkpt lat="42.92939" lon="0.73145">
        <ele>1513.5</ele>
        <time>2020-02-23T11:51:01Z</time>
      </trkpt>
      <trkpt lat="42.92938" lon="0.73143">
        <ele>1512.5</ele>
        <time>2020-02-23T11:51:02Z</time>
      </trkpt>
      <trkpt lat="42.92938" lon="0.73143">
        <ele>1512.5</ele>
        <time>2020-02-23T11:51:03Z</time>
      </trkpt>
      <trkpt lat="42.92938" lon="0.73143">
        <ele>1512.5</ele>
        <time>2020-02-23T11:51:04Z</time>
      </trkpt>
      <trkpt lat="42.92938" lon="0.73143">
        <ele>1512.5</ele>
        <time>2020-02-23T11:51:05Z</time>
      </trkpt>
      <trkpt lat="42.92938" lon="0.73143">
        <ele>1512.5</ele>
        <time>2020-02-23T11:51:06Z</time>
      </trkpt>
      <trkpt lat="42.92938" lon="0.73143">
        <ele>1512.5</ele>
        <time>2020-02-23T11:51:07Z</time>
      </trkpt>
      <trkpt lat="42.92938" lon="0.73143">
        <ele>1512.5</ele>
        <time>2020-02-23T11:51:08Z</time>
      </trkpt>
      <trkpt lat="42.92938" lon="0.73143">
        <ele>1512.5</ele>
        <time>2020-02-23T11:51:09Z</time>
      </trkpt>
      <trkpt lat="42.92938" lon="0.73143">
        <ele>1512.5</ele>
        <time>2020-02-23T11:51:10Z</time>
      </trkpt>
      <trkpt lat="42.92938" lon="0.73143">
        <ele>1512.5</ele>
        <time>2020-02-23T11:51:11Z</time>
      </trkpt>
      <trkpt lat="42.92937" lon="0.73141">
        <ele>1511.6</ele>
        <time>2020-02-23T11:51:12Z</time>
      </trkpt>
      <trkpt lat="42.92937" lon="0.73141">
        <ele>1511.6</ele>
        <time>2020-02-23T11:51:13Z</time>
      </trkpt>
      <trkpt lat="42.92937" lon="0.73141">
        <ele>1511.6</ele>
        <time>2020-02-23T11:51:14Z</time>
      </trkpt>
      <trkpt lat="42.92937" lon="0.73141">
        <ele>1511.6</ele>
        <time>2020-02-23T11:51:15Z</time>
      </trkpt>
      <trkpt lat="42.92937" lon="0.73141">
        <ele>1511.6</ele>
        <time>2020-02-23T11:51:16Z</time>
      </trkpt>
      <trkpt lat="42.92937" lon="0.73138">
        <ele>1510.4</ele>
        <time>2020-02-23T11:51:17Z</time>
      </trkpt>
      <trkpt lat="42.92937" lon="0.73138">
        <ele>1510.4</ele>
        <time>2020-02-23T11:51:18Z</time>
      </trkpt>
      <trkpt lat="42.92937" lon="0.73138">
        <ele>1510.4</ele>
        <time>2020-02-23T11:51:19Z</time>
      </trkpt>
      <trkpt lat="42.92937" lon="0.73138">
        <ele>1510.4</ele>
        <time>2020-02-23T11:51:20Z</time>
      </trkpt>
      <trkpt lat="42.92939" lon="0.73136">
        <ele>1509.1</ele>
        <time>2020-02-23T11:51:21Z</time>
      </trkpt>
      <trkpt lat="42.92939" lon="0.73136">
        <ele>1509.1</ele>
        <time>2020-02-23T11:51:22Z</time>
      </trkpt>
      <trkpt lat="42.92939" lon="0.73136">
        <ele>1509.1</ele>
        <time>2020-02-23T11:51:23Z</time>
      </trkpt>
      <trkpt lat="42.92941" lon="0.73133">
        <ele>1507.8</ele>
        <time>2020-02-23T11:51:24Z</time>
      </trkpt>
      <trkpt lat="42.92941" lon="0.73133">
        <ele>1507.8</ele>
        <time>2020-02-23T11:51:25Z</time>
      </trkpt>
      <trkpt lat="42.92941" lon="0.73133">
        <ele>1507.8</ele>
        <time>2020-02-23T11:51:26Z</time>
      </trkpt>
      <trkpt lat="42.92944" lon="0.73132">
        <ele>1506.2</ele>
        <time>2020-02-23T11:51:27Z</time>
      </trkpt>
      <trkpt lat="42.92944" lon="0.73132">
        <ele>1506.2</ele>
        <time>2020-02-23T11:51:28Z</time>
      </trkpt>
      <trkpt lat="42.92946" lon="0.73132">
        <ele>1505</ele>
        <time>2020-02-23T11:51:29Z</time>
      </trkpt>
      <trkpt lat="42.92946" lon="0.73132">
        <ele>1505</ele>
        <time>2020-02-23T11:51:30Z</time>
      </trkpt>
      <trkpt lat="42.92948" lon="0.73131">
        <ele>1503.7</ele>
        <time>2020-02-23T11:51:31Z</time>
      </trkpt>
      <trkpt lat="42.92948" lon="0.73131">
        <ele>1503.7</ele>
        <time>2020-02-23T11:51:32Z</time>
      </trkpt>
      <trkpt lat="42.9295" lon="0.73132">
        <ele>1502.5</ele>
        <time>2020-02-23T11:51:33Z</time>
      </trkpt>
      <trkpt lat="42.9295" lon="0.73132">
        <ele>1502.5</ele>
        <time>2020-02-23T11:51:34Z</time>
      </trkpt>
      <trkpt lat="42.92951" lon="0.7313">
        <ele>1501.7</ele>
        <time>2020-02-23T11:51:35Z</time>
      </trkpt>
      <trkpt lat="42.92952" lon="0.73128">
        <ele>1500.8</ele>
        <time>2020-02-23T11:51:36Z</time>
      </trkpt>
      <trkpt lat="42.92953" lon="0.73127">
        <ele>1500</ele>
        <time>2020-02-23T11:51:37Z</time>
      </trkpt>
      <trkpt lat="42.92953" lon="0.73125">
        <ele>1499.3</ele>
        <time>2020-02-23T11:51:38Z</time>
      </trkpt>
      <trkpt lat="42.92954" lon="0.73123">
        <ele>1498.4</ele>
        <time>2020-02-23T11:51:39Z</time>
      </trkpt>
      <trkpt lat="42.92955" lon="0.73122">
        <ele>1497.6</ele>
        <time>2020-02-23T11:51:40Z</time>
      </trkpt>
      <trkpt lat="42.92956" lon="0.7312">
        <ele>1496.8</ele>
        <time>2020-02-23T11:51:41Z</time>
      </trkpt>
      <trkpt lat="42.92957" lon="0.73119">
        <ele>1496</ele>
        <time>2020-02-23T11:51:42Z</time>
      </trkpt>
      <trkpt lat="42.92958" lon="0.73118">
        <ele>1495.3</ele>
        <time>2020-02-23T11:51:43Z</time>
      </trkpt>
      <trkpt lat="42.92959" lon="0.73117">
        <ele>1494.5</ele>
        <time>2020-02-23T11:51:44Z</time>
      </trkpt>
      <trkpt lat="42.9296" lon="0.73115">
        <ele>1493.8</ele>
        <time>2020-02-23T11:51:45Z</time>
      </trkpt>
      <trkpt lat="42.92962" lon="0.73115">
        <ele>1492.8</ele>
        <time>2020-02-23T11:51:46Z</time>
      </trkpt>
      <trkpt lat="42.92962" lon="0.73115">
        <ele>1492.8</ele>
        <time>2020-02-23T11:51:47Z</time>
      </trkpt>
      <trkpt lat="42.92962" lon="0.73115">
        <ele>1492.8</ele>
        <time>2020-02-23T11:51:48Z</time>
      </trkpt>
      <trkpt lat="42.92962" lon="0.73115">
        <ele>1492.8</ele>
        <time>2020-02-23T11:51:49Z</time>
      </trkpt>
      <trkpt lat="42.92962" lon="0.73115">
        <ele>1492.8</ele>
        <time>2020-02-23T11:51:50Z</time>
      </trkpt>
      <trkpt lat="42.92962" lon="0.73115">
        <ele>1492.8</ele>
        <time>2020-02-23T11:51:51Z</time>
      </trkpt>
      <trkpt lat="42.92962" lon="0.73115">
        <ele>1492.8</ele>
        <time>2020-02-23T11:51:52Z</time>
      </trkpt>
      <trkpt lat="42.92962" lon="0.73115">
        <ele>1492.8</ele>
        <time>2020-02-23T11:51:53Z</time>
      </trkpt>
      <trkpt lat="42.92961" lon="0.73112">
        <ele>1491.4</ele>
        <time>2020-02-23T11:51:54Z</time>
      </trkpt>
      <trkpt lat="42.92961" lon="0.73112">
        <ele>1491.4</ele>
        <time>2020-02-23T11:51:55Z</time>
      </trkpt>
      <trkpt lat="42.92961" lon="0.73112">
        <ele>1491.4</ele>
        <time>2020-02-23T11:51:56Z</time>
      </trkpt>
      <trkpt lat="42.9296" lon="0.7311">
        <ele>1490.3</ele>
        <time>2020-02-23T11:51:57Z</time>
      </trkpt>
      <trkpt lat="42.9296" lon="0.7311">
        <ele>1490.3</ele>
        <time>2020-02-23T11:51:58Z</time>
      </trkpt>
      <trkpt lat="42.92958" lon="0.73109">
        <ele>1489.2</ele>
        <time>2020-02-23T11:51:59Z</time>
      </trkpt>
      <trkpt lat="42.92958" lon="0.73109">
        <ele>1489.2</ele>
        <time>2020-02-23T11:52:00Z</time>
      </trkpt>
      <trkpt lat="42.92958" lon="0.73109">
        <ele>1489.2</ele>
        <time>2020-02-23T11:52:01Z</time>
      </trkpt>
      <trkpt lat="42.92956" lon="0.73106">
        <ele>1487.9</ele>
        <time>2020-02-23T11:52:02Z</time>
      </trkpt>
      <trkpt lat="42.92956" lon="0.73106">
        <ele>1487.9</ele>
        <time>2020-02-23T11:52:03Z</time>
      </trkpt>
      <trkpt lat="42.92956" lon="0.73106">
        <ele>1487.9</ele>
        <time>2020-02-23T11:52:04Z</time>
      </trkpt>
      <trkpt lat="42.92956" lon="0.73106">
        <ele>1487.9</ele>
        <time>2020-02-23T11:52:05Z</time>
      </trkpt>
      <trkpt lat="42.92956" lon="0.73106">
        <ele>1487.9</ele>
        <time>2020-02-23T11:52:06Z</time>
      </trkpt>
      <trkpt lat="42.92954" lon="0.73106">
        <ele>1486.6</ele>
        <time>2020-02-23T11:52:07Z</time>
      </trkpt>
      <trkpt lat="42.92954" lon="0.73106">
        <ele>1486.6</ele>
        <time>2020-02-23T11:52:08Z</time>
      </trkpt>
      <trkpt lat="42.92954" lon="0.73106">
        <ele>1486.6</ele>
        <time>2020-02-23T11:52:09Z</time>
      </trkpt>
      <trkpt lat="42.92954" lon="0.73106">
        <ele>1486.6</ele>
        <time>2020-02-23T11:52:10Z</time>
      </trkpt>
      <trkpt lat="42.92954" lon="0.73106">
        <ele>1486.6</ele>
        <time>2020-02-23T11:52:11Z</time>
      </trkpt>
      <trkpt lat="42.92952" lon="0.73105">
        <ele>1485.2</ele>
        <time>2020-02-23T11:52:12Z</time>
      </trkpt>
      <trkpt lat="42.92952" lon="0.73105">
        <ele>1485.2</ele>
        <time>2020-02-23T11:52:13Z</time>
      </trkpt>
      <trkpt lat="42.92949" lon="0.73105">
        <ele>1484</ele>
        <time>2020-02-23T11:52:14Z</time>
      </trkpt>
      <trkpt lat="42.92949" lon="0.73105">
        <ele>1484</ele>
        <time>2020-02-23T11:52:15Z</time>
      </trkpt>
      <trkpt lat="42.92949" lon="0.73105">
        <ele>1484</ele>
        <time>2020-02-23T11:52:16Z</time>
      </trkpt>
      <trkpt lat="42.92949" lon="0.73105">
        <ele>1484</ele>
        <time>2020-02-23T11:52:17Z</time>
      </trkpt>
      <trkpt lat="42.92949" lon="0.73105">
        <ele>1484</ele>
        <time>2020-02-23T11:52:18Z</time>
      </trkpt>
      <trkpt lat="42.92949" lon="0.73105">
        <ele>1484</ele>
        <time>2020-02-23T11:52:19Z</time>
      </trkpt>
      <trkpt lat="42.92949" lon="0.73105">
        <ele>1484</ele>
        <time>2020-02-23T11:52:20Z</time>
      </trkpt>
      <trkpt lat="42.92949" lon="0.73105">
        <ele>1484</ele>
        <time>2020-02-23T11:52:21Z</time>
      </trkpt>
      <trkpt lat="42.92949" lon="0.73105">
        <ele>1484</ele>
        <time>2020-02-23T11:52:22Z</time>
      </trkpt>
      <trkpt lat="42.92949" lon="0.73105">
        <ele>1484</ele>
        <time>2020-02-23T11:52:23Z</time>
      </trkpt>
      <trkpt lat="42.92949" lon="0.73105">
        <ele>1484</ele>
        <time>2020-02-23T11:52:24Z</time>
      </trkpt>
      <trkpt lat="42.92949" lon="0.73105">
        <ele>1484</ele>
        <time>2020-02-23T11:52:25Z</time>
      </trkpt>
      <trkpt lat="42.92949" lon="0.73105">
        <ele>1484</ele>
        <time>2020-02-23T11:52:26Z</time>
      </trkpt>
      <trkpt lat="42.92949" lon="0.73105">
        <ele>1484</ele>
        <time>2020-02-23T11:52:27Z</time>
      </trkpt>
      <trkpt lat="42.92951" lon="0.73103">
        <ele>1482.7</ele>
        <time>2020-02-23T11:52:28Z</time>
      </trkpt>
      <trkpt lat="42.92951" lon="0.73103">
        <ele>1482.7</ele>
        <time>2020-02-23T11:52:29Z</time>
      </trkpt>
      <trkpt lat="42.92951" lon="0.73103">
        <ele>1482.7</ele>
        <time>2020-02-23T11:52:30Z</time>
      </trkpt>
      <trkpt lat="42.92953" lon="0.73102">
        <ele>1481.7</ele>
        <time>2020-02-23T11:52:31Z</time>
      </trkpt>
      <trkpt lat="42.92953" lon="0.73102">
        <ele>1481.7</ele>
        <time>2020-02-23T11:52:32Z</time>
      </trkpt>
      <trkpt lat="42.92955" lon="0.731">
        <ele>1480.3</ele>
        <time>2020-02-23T11:52:33Z</time>
      </trkpt>
      <trkpt lat="42.92955" lon="0.731">
        <ele>1480.3</ele>
        <time>2020-02-23T11:52:34Z</time>
      </trkpt>
      <trkpt lat="42.92955" lon="0.731">
        <ele>1480.3</ele>
        <time>2020-02-23T11:52:35Z</time>
      </trkpt>
      <trkpt lat="42.92955" lon="0.731">
        <ele>1480.3</ele>
        <time>2020-02-23T11:52:36Z</time>
      </trkpt>
      <trkpt lat="42.92957" lon="0.73099">
        <ele>1478.5</ele>
        <time>2020-02-23T11:52:37Z</time>
      </trkpt>
      <trkpt lat="42.92957" lon="0.73099">
        <ele>1478.5</ele>
        <time>2020-02-23T11:52:38Z</time>
      </trkpt>
      <trkpt lat="42.92957" lon="0.73099">
        <ele>1478.5</ele>
        <time>2020-02-23T11:52:39Z</time>
      </trkpt>
      <trkpt lat="42.92957" lon="0.73099">
        <ele>1478.5</ele>
        <time>2020-02-23T11:52:40Z</time>
      </trkpt>
      <trkpt lat="42.92957" lon="0.73099">
        <ele>1478.5</ele>
        <time>2020-02-23T11:52:41Z</time>
      </trkpt>
      <trkpt lat="42.92957" lon="0.73099">
        <ele>1478.5</ele>
        <time>2020-02-23T11:52:42Z</time>
      </trkpt>
      <trkpt lat="42.92957" lon="0.73099">
        <ele>1478.5</ele>
        <time>2020-02-23T11:52:43Z</time>
      </trkpt>
      <trkpt lat="42.92957" lon="0.73096">
        <ele>1476.7</ele>
        <time>2020-02-23T11:52:44Z</time>
      </trkpt>
      <trkpt lat="42.92957" lon="0.73096">
        <ele>1476.7</ele>
        <time>2020-02-23T11:52:45Z</time>
      </trkpt>
      <trkpt lat="42.92957" lon="0.73096">
        <ele>1476.7</ele>
        <time>2020-02-23T11:52:46Z</time>
      </trkpt>
      <trkpt lat="42.92959" lon="0.73096">
        <ele>1475.2</ele>
        <time>2020-02-23T11:52:47Z</time>
      </trkpt>
      <trkpt lat="42.92959" lon="0.73096">
        <ele>1475.2</ele>
        <time>2020-02-23T11:52:48Z</time>
      </trkpt>
      <trkpt lat="42.92959" lon="0.73096">
        <ele>1475.2</ele>
        <time>2020-02-23T11:52:49Z</time>
      </trkpt>
      <trkpt lat="42.92961" lon="0.73097">
        <ele>1473.7</ele>
        <time>2020-02-23T11:52:50Z</time>
      </trkpt>
      <trkpt lat="42.92961" lon="0.73097">
        <ele>1473.7</ele>
        <time>2020-02-23T11:52:51Z</time>
      </trkpt>
      <trkpt lat="42.92963" lon="0.73097">
        <ele>1472.3</ele>
        <time>2020-02-23T11:52:52Z</time>
      </trkpt>
      <trkpt lat="42.92963" lon="0.73097">
        <ele>1472.3</ele>
        <time>2020-02-23T11:52:53Z</time>
      </trkpt>
      <trkpt lat="42.92965" lon="0.73097">
        <ele>1471.3</ele>
        <time>2020-02-23T11:52:54Z</time>
      </trkpt>
      <trkpt lat="42.92965" lon="0.73097">
        <ele>1471.3</ele>
        <time>2020-02-23T11:52:55Z</time>
      </trkpt>
      <trkpt lat="42.92965" lon="0.73097">
        <ele>1471.3</ele>
        <time>2020-02-23T11:52:56Z</time>
      </trkpt>
      <trkpt lat="42.92965" lon="0.73097">
        <ele>1471.3</ele>
        <time>2020-02-23T11:52:57Z</time>
      </trkpt>
      <trkpt lat="42.92965" lon="0.73097">
        <ele>1471.3</ele>
        <time>2020-02-23T11:52:58Z</time>
      </trkpt>
      <trkpt lat="42.92965" lon="0.73097">
        <ele>1471.3</ele>
        <time>2020-02-23T11:52:59Z</time>
      </trkpt>
      <trkpt lat="42.92967" lon="0.73096">
        <ele>1470.2</ele>
        <time>2020-02-23T11:53:00Z</time>
      </trkpt>
      <trkpt lat="42.92967" lon="0.73096">
        <ele>1470.2</ele>
        <time>2020-02-23T11:53:01Z</time>
      </trkpt>
      <trkpt lat="42.92968" lon="0.73095">
        <ele>1469.2</ele>
        <time>2020-02-23T11:53:02Z</time>
      </trkpt>
      <trkpt lat="42.92968" lon="0.73095">
        <ele>1469.2</ele>
        <time>2020-02-23T11:53:03Z</time>
      </trkpt>
      <trkpt lat="42.92968" lon="0.73095">
        <ele>1469.2</ele>
        <time>2020-02-23T11:53:04Z</time>
      </trkpt>
      <trkpt lat="42.92968" lon="0.73095">
        <ele>1469.2</ele>
        <time>2020-02-23T11:53:05Z</time>
      </trkpt>
      <trkpt lat="42.9297" lon="0.73092">
        <ele>1467.8</ele>
        <time>2020-02-23T11:53:06Z</time>
      </trkpt>
      <trkpt lat="42.92972" lon="0.73091">
        <ele>1467.2</ele>
        <time>2020-02-23T11:53:07Z</time>
      </trkpt>
      <trkpt lat="42.92972" lon="0.73091">
        <ele>1467.2</ele>
        <time>2020-02-23T11:53:08Z</time>
      </trkpt>
      <trkpt lat="42.92972" lon="0.73091">
        <ele>1467.2</ele>
        <time>2020-02-23T11:53:09Z</time>
      </trkpt>
      <trkpt lat="42.92972" lon="0.73091">
        <ele>1467.2</ele>
        <time>2020-02-23T11:53:10Z</time>
      </trkpt>
      <trkpt lat="42.92974" lon="0.73089">
        <ele>1466.7</ele>
        <time>2020-02-23T11:53:11Z</time>
      </trkpt>
      <trkpt lat="42.92974" lon="0.73089">
        <ele>1466.7</ele>
        <time>2020-02-23T11:53:12Z</time>
      </trkpt>
      <trkpt lat="42.92974" lon="0.73089">
        <ele>1466.7</ele>
        <time>2020-02-23T11:53:13Z</time>
      </trkpt>
      <trkpt lat="42.92974" lon="0.73089">
        <ele>1466.7</ele>
        <time>2020-02-23T11:53:14Z</time>
      </trkpt>
      <trkpt lat="42.92975" lon="0.73087">
        <ele>1466.2</ele>
        <time>2020-02-23T11:53:15Z</time>
      </trkpt>
      <trkpt lat="42.92975" lon="0.73087">
        <ele>1466.2</ele>
        <time>2020-02-23T11:53:16Z</time>
      </trkpt>
      <trkpt lat="42.92976" lon="0.73086">
        <ele>1466</ele>
        <time>2020-02-23T11:53:17Z</time>
      </trkpt>
      <trkpt lat="42.92977" lon="0.73086">
        <ele>1465.8</ele>
        <time>2020-02-23T11:53:18Z</time>
      </trkpt>
      <trkpt lat="42.92978" lon="0.73085">
        <ele>1465.6</ele>
        <time>2020-02-23T11:53:19Z</time>
      </trkpt>
      <trkpt lat="42.92979" lon="0.73085">
        <ele>1465.1</ele>
        <time>2020-02-23T11:53:20Z</time>
      </trkpt>
      <trkpt lat="42.9298" lon="0.73084">
        <ele>1464.6</ele>
        <time>2020-02-23T11:53:21Z</time>
      </trkpt>
      <trkpt lat="42.92981" lon="0.73084">
        <ele>1464.1</ele>
        <time>2020-02-23T11:53:22Z</time>
      </trkpt>
      <trkpt lat="42.92982" lon="0.73083">
        <ele>1463.5</ele>
        <time>2020-02-23T11:53:23Z</time>
      </trkpt>
      <trkpt lat="42.92983" lon="0.73083">
        <ele>1463.1</ele>
        <time>2020-02-23T11:53:24Z</time>
      </trkpt>
      <trkpt lat="42.92984" lon="0.73082">
        <ele>1462.5</ele>
        <time>2020-02-23T11:53:25Z</time>
      </trkpt>
      <trkpt lat="42.92984" lon="0.73082">
        <ele>1462.4</ele>
        <time>2020-02-23T11:53:26Z</time>
      </trkpt>
      <trkpt lat="42.92984" lon="0.73082">
        <ele>1462.4</ele>
        <time>2020-02-23T11:53:27Z</time>
      </trkpt>
      <trkpt lat="42.92984" lon="0.73082">
        <ele>1462.3</ele>
        <time>2020-02-23T11:53:28Z</time>
      </trkpt>
      <trkpt lat="42.92984" lon="0.73082">
        <ele>1462.2</ele>
        <time>2020-02-23T11:53:29Z</time>
      </trkpt>
      <trkpt lat="42.92984" lon="0.73082">
        <ele>1462.1</ele>
        <time>2020-02-23T11:53:30Z</time>
      </trkpt>
      <trkpt lat="42.92984" lon="0.73082">
        <ele>1462</ele>
        <time>2020-02-23T11:53:31Z</time>
      </trkpt>
      <trkpt lat="42.92984" lon="0.73081">
        <ele>1461.9</ele>
        <time>2020-02-23T11:53:32Z</time>
      </trkpt>
      <trkpt lat="42.92985" lon="0.73081">
        <ele>1461.9</ele>
        <time>2020-02-23T11:53:33Z</time>
      </trkpt>
      <trkpt lat="42.92985" lon="0.73081">
        <ele>1461.8</ele>
        <time>2020-02-23T11:53:34Z</time>
      </trkpt>
      <trkpt lat="42.92985" lon="0.73081">
        <ele>1461.7</ele>
        <time>2020-02-23T11:53:35Z</time>
      </trkpt>
      <trkpt lat="42.92985" lon="0.73081">
        <ele>1461.6</ele>
        <time>2020-02-23T11:53:36Z</time>
      </trkpt>
      <trkpt lat="42.92985" lon="0.73081">
        <ele>1461.6</ele>
        <time>2020-02-23T11:53:37Z</time>
      </trkpt>
      <trkpt lat="42.92985" lon="0.7308">
        <ele>1461.5</ele>
        <time>2020-02-23T11:53:38Z</time>
      </trkpt>
      <trkpt lat="42.92985" lon="0.7308">
        <ele>1461.4</ele>
        <time>2020-02-23T11:53:39Z</time>
      </trkpt>
      <trkpt lat="42.92985" lon="0.7308">
        <ele>1461.3</ele>
        <time>2020-02-23T11:53:40Z</time>
      </trkpt>
      <trkpt lat="42.92985" lon="0.7308">
        <ele>1461.2</ele>
        <time>2020-02-23T11:53:41Z</time>
      </trkpt>
      <trkpt lat="42.92986" lon="0.7308">
        <ele>1461.1</ele>
        <time>2020-02-23T11:53:42Z</time>
      </trkpt>
      <trkpt lat="42.92986" lon="0.7308">
        <ele>1461</ele>
        <time>2020-02-23T11:53:43Z</time>
      </trkpt>
      <trkpt lat="42.92986" lon="0.7308">
        <ele>1461</ele>
        <time>2020-02-23T11:53:44Z</time>
      </trkpt>
      <trkpt lat="42.92986" lon="0.73079">
        <ele>1460.9</ele>
        <time>2020-02-23T11:53:45Z</time>
      </trkpt>
      <trkpt lat="42.92986" lon="0.73079">
        <ele>1460.8</ele>
        <time>2020-02-23T11:53:46Z</time>
      </trkpt>
      <trkpt lat="42.92986" lon="0.73079">
        <ele>1460.8</ele>
        <time>2020-02-23T11:53:47Z</time>
      </trkpt>
      <trkpt lat="42.92986" lon="0.73079">
        <ele>1460.8</ele>
        <time>2020-02-23T11:53:48Z</time>
      </trkpt>
      <trkpt lat="42.92986" lon="0.73079">
        <ele>1460.8</ele>
        <time>2020-02-23T11:53:49Z</time>
      </trkpt>
      <trkpt lat="42.92986" lon="0.73079">
        <ele>1460.7</ele>
        <time>2020-02-23T11:53:50Z</time>
      </trkpt>
      <trkpt lat="42.92987" lon="0.73078">
        <ele>1460.7</ele>
        <time>2020-02-23T11:53:51Z</time>
      </trkpt>
      <trkpt lat="42.92987" lon="0.73078">
        <ele>1460.7</ele>
        <time>2020-02-23T11:53:52Z</time>
      </trkpt>
      <trkpt lat="42.92987" lon="0.73078">
        <ele>1460.6</ele>
        <time>2020-02-23T11:53:53Z</time>
      </trkpt>
      <trkpt lat="42.92988" lon="0.73075">
        <ele>1460.2</ele>
        <time>2020-02-23T11:53:54Z</time>
      </trkpt>
      <trkpt lat="42.92987" lon="0.73072">
        <ele>1459.8</ele>
        <time>2020-02-23T11:53:55Z</time>
      </trkpt>
      <trkpt lat="42.92987" lon="0.73072">
        <ele>1459.8</ele>
        <time>2020-02-23T11:53:56Z</time>
      </trkpt>
      <trkpt lat="42.92987" lon="0.73072">
        <ele>1459.8</ele>
        <time>2020-02-23T11:53:57Z</time>
      </trkpt>
      <trkpt lat="42.92988" lon="0.73069">
        <ele>1459.5</ele>
        <time>2020-02-23T11:53:58Z</time>
      </trkpt>
      <trkpt lat="42.92988" lon="0.73069">
        <ele>1459.5</ele>
        <time>2020-02-23T11:53:59Z</time>
      </trkpt>
      <trkpt lat="42.92988" lon="0.73069">
        <ele>1459.5</ele>
        <time>2020-02-23T11:54:00Z</time>
      </trkpt>
      <trkpt lat="42.92988" lon="0.73069">
        <ele>1459.5</ele>
        <time>2020-02-23T11:54:01Z</time>
      </trkpt>
      <trkpt lat="42.92988" lon="0.73069">
        <ele>1459.5</ele>
        <time>2020-02-23T11:54:02Z</time>
      </trkpt>
      <trkpt lat="42.92988" lon="0.73069">
        <ele>1459.5</ele>
        <time>2020-02-23T11:54:03Z</time>
      </trkpt>
      <trkpt lat="42.92986" lon="0.73067">
        <ele>1458.9</ele>
        <time>2020-02-23T11:54:04Z</time>
      </trkpt>
      <trkpt lat="42.92984" lon="0.73065">
        <ele>1457.6</ele>
        <time>2020-02-23T11:54:05Z</time>
      </trkpt>
      <trkpt lat="42.92984" lon="0.73065">
        <ele>1457.6</ele>
        <time>2020-02-23T11:54:06Z</time>
      </trkpt>
      <trkpt lat="42.92984" lon="0.73065">
        <ele>1457.6</ele>
        <time>2020-02-23T11:54:07Z</time>
      </trkpt>
      <trkpt lat="42.92984" lon="0.73065">
        <ele>1457.6</ele>
        <time>2020-02-23T11:54:08Z</time>
      </trkpt>
      <trkpt lat="42.92984" lon="0.73065">
        <ele>1457.6</ele>
        <time>2020-02-23T11:54:09Z</time>
      </trkpt>
      <trkpt lat="42.92984" lon="0.73065">
        <ele>1457.6</ele>
        <time>2020-02-23T11:54:10Z</time>
      </trkpt>
      <trkpt lat="42.92984" lon="0.73065">
        <ele>1457.6</ele>
        <time>2020-02-23T11:54:11Z</time>
      </trkpt>
      <trkpt lat="42.92984" lon="0.73065">
        <ele>1457.6</ele>
        <time>2020-02-23T11:54:12Z</time>
      </trkpt>
      <trkpt lat="42.92986" lon="0.73064">
        <ele>1456.4</ele>
        <time>2020-02-23T11:54:13Z</time>
      </trkpt>
      <trkpt lat="42.92986" lon="0.73064">
        <ele>1456.4</ele>
        <time>2020-02-23T11:54:14Z</time>
      </trkpt>
      <trkpt lat="42.92986" lon="0.73064">
        <ele>1456.4</ele>
        <time>2020-02-23T11:54:15Z</time>
      </trkpt>
      <trkpt lat="42.92986" lon="0.73064">
        <ele>1456.4</ele>
        <time>2020-02-23T11:54:16Z</time>
      </trkpt>
      <trkpt lat="42.92988" lon="0.73063">
        <ele>1455.4</ele>
        <time>2020-02-23T11:54:17Z</time>
      </trkpt>
      <trkpt lat="42.92988" lon="0.73063">
        <ele>1455.4</ele>
        <time>2020-02-23T11:54:18Z</time>
      </trkpt>
      <trkpt lat="42.92989" lon="0.73062">
        <ele>1455</ele>
        <time>2020-02-23T11:54:19Z</time>
      </trkpt>
      <trkpt lat="42.92989" lon="0.73061">
        <ele>1454.6</ele>
        <time>2020-02-23T11:54:20Z</time>
      </trkpt>
      <trkpt lat="42.9299" lon="0.7306">
        <ele>1454.1</ele>
        <time>2020-02-23T11:54:21Z</time>
      </trkpt>
      <trkpt lat="42.9299" lon="0.73059">
        <ele>1453.7</ele>
        <time>2020-02-23T11:54:22Z</time>
      </trkpt>
      <trkpt lat="42.92991" lon="0.73058">
        <ele>1453.3</ele>
        <time>2020-02-23T11:54:23Z</time>
      </trkpt>
      <trkpt lat="42.92991" lon="0.73057">
        <ele>1452.9</ele>
        <time>2020-02-23T11:54:24Z</time>
      </trkpt>
      <trkpt lat="42.92992" lon="0.73056">
        <ele>1452.4</ele>
        <time>2020-02-23T11:54:25Z</time>
      </trkpt>
      <trkpt lat="42.92992" lon="0.73055">
        <ele>1452</ele>
        <time>2020-02-23T11:54:26Z</time>
      </trkpt>
      <trkpt lat="42.92993" lon="0.73054">
        <ele>1451.6</ele>
        <time>2020-02-23T11:54:27Z</time>
      </trkpt>
      <trkpt lat="42.92993" lon="0.73053">
        <ele>1451.2</ele>
        <time>2020-02-23T11:54:28Z</time>
      </trkpt>
      <trkpt lat="42.92994" lon="0.73052">
        <ele>1450.7</ele>
        <time>2020-02-23T11:54:29Z</time>
      </trkpt>
      <trkpt lat="42.92994" lon="0.73051">
        <ele>1450.5</ele>
        <time>2020-02-23T11:54:30Z</time>
      </trkpt>
      <trkpt lat="42.92995" lon="0.73051">
        <ele>1450.3</ele>
        <time>2020-02-23T11:54:31Z</time>
      </trkpt>
      <trkpt lat="42.92995" lon="0.7305">
        <ele>1450.2</ele>
        <time>2020-02-23T11:54:32Z</time>
      </trkpt>
      <trkpt lat="42.92995" lon="0.7305">
        <ele>1450.1</ele>
        <time>2020-02-23T11:54:33Z</time>
      </trkpt>
      <trkpt lat="42.92996" lon="0.7305">
        <ele>1450.1</ele>
        <time>2020-02-23T11:54:34Z</time>
      </trkpt>
      <trkpt lat="42.92996" lon="0.73049">
        <ele>1450</ele>
        <time>2020-02-23T11:54:35Z</time>
      </trkpt>
      <trkpt lat="42.92996" lon="0.73049">
        <ele>1449.9</ele>
        <time>2020-02-23T11:54:36Z</time>
      </trkpt>
      <trkpt lat="42.92997" lon="0.73048">
        <ele>1449.9</ele>
        <time>2020-02-23T11:54:37Z</time>
      </trkpt>
      <trkpt lat="42.92997" lon="0.73048">
        <ele>1449.8</ele>
        <time>2020-02-23T11:54:38Z</time>
      </trkpt>
      <trkpt lat="42.92997" lon="0.73048">
        <ele>1449.7</ele>
        <time>2020-02-23T11:54:39Z</time>
      </trkpt>
      <trkpt lat="42.92998" lon="0.73047">
        <ele>1449.7</ele>
        <time>2020-02-23T11:54:40Z</time>
      </trkpt>
      <trkpt lat="42.92998" lon="0.73047">
        <ele>1449.6</ele>
        <time>2020-02-23T11:54:41Z</time>
      </trkpt>
      <trkpt lat="42.92998" lon="0.73047">
        <ele>1449.5</ele>
        <time>2020-02-23T11:54:42Z</time>
      </trkpt>
      <trkpt lat="42.92999" lon="0.73046">
        <ele>1449.5</ele>
        <time>2020-02-23T11:54:43Z</time>
      </trkpt>
      <trkpt lat="42.92999" lon="0.73046">
        <ele>1449.4</ele>
        <time>2020-02-23T11:54:44Z</time>
      </trkpt>
      <trkpt lat="42.92999" lon="0.73045">
        <ele>1449.3</ele>
        <time>2020-02-23T11:54:45Z</time>
      </trkpt>
      <trkpt lat="42.93" lon="0.73045">
        <ele>1449.3</ele>
        <time>2020-02-23T11:54:46Z</time>
      </trkpt>
      <trkpt lat="42.93" lon="0.73045">
        <ele>1449.2</ele>
        <time>2020-02-23T11:54:47Z</time>
      </trkpt>
      <trkpt lat="42.93" lon="0.73044">
        <ele>1449.1</ele>
        <time>2020-02-23T11:54:48Z</time>
      </trkpt>
      <trkpt lat="42.93001" lon="0.73044">
        <ele>1449.1</ele>
        <time>2020-02-23T11:54:49Z</time>
      </trkpt>
      <trkpt lat="42.93001" lon="0.73043">
        <ele>1449</ele>
        <time>2020-02-23T11:54:50Z</time>
      </trkpt>
      <trkpt lat="42.93001" lon="0.73043">
        <ele>1449</ele>
        <time>2020-02-23T11:54:51Z</time>
      </trkpt>
      <trkpt lat="42.93001" lon="0.73042">
        <ele>1448.9</ele>
        <time>2020-02-23T11:54:52Z</time>
      </trkpt>
      <trkpt lat="42.93001" lon="0.73042">
        <ele>1448.8</ele>
        <time>2020-02-23T11:54:53Z</time>
      </trkpt>
      <trkpt lat="42.93001" lon="0.73041">
        <ele>1448.8</ele>
        <time>2020-02-23T11:54:54Z</time>
      </trkpt>
      <trkpt lat="42.93001" lon="0.73041">
        <ele>1448.7</ele>
        <time>2020-02-23T11:54:55Z</time>
      </trkpt>
      <trkpt lat="42.93002" lon="0.7304">
        <ele>1448.7</ele>
        <time>2020-02-23T11:54:56Z</time>
      </trkpt>
      <trkpt lat="42.93002" lon="0.7304">
        <ele>1448.6</ele>
        <time>2020-02-23T11:54:57Z</time>
      </trkpt>
      <trkpt lat="42.93002" lon="0.73039">
        <ele>1448.6</ele>
        <time>2020-02-23T11:54:58Z</time>
      </trkpt>
      <trkpt lat="42.93002" lon="0.73039">
        <ele>1448.5</ele>
        <time>2020-02-23T11:54:59Z</time>
      </trkpt>
      <trkpt lat="42.93002" lon="0.73038">
        <ele>1448.5</ele>
        <time>2020-02-23T11:55:00Z</time>
      </trkpt>
      <trkpt lat="42.93002" lon="0.73038">
        <ele>1448.4</ele>
        <time>2020-02-23T11:55:01Z</time>
      </trkpt>
      <trkpt lat="42.93002" lon="0.73037">
        <ele>1448.4</ele>
        <time>2020-02-23T11:55:02Z</time>
      </trkpt>
      <trkpt lat="42.93003" lon="0.73037">
        <ele>1448.3</ele>
        <time>2020-02-23T11:55:03Z</time>
      </trkpt>
      <trkpt lat="42.93003" lon="0.73036">
        <ele>1448.3</ele>
        <time>2020-02-23T11:55:04Z</time>
      </trkpt>
      <trkpt lat="42.93003" lon="0.73036">
        <ele>1448.2</ele>
        <time>2020-02-23T11:55:05Z</time>
      </trkpt>
      <trkpt lat="42.93003" lon="0.73035">
        <ele>1448.2</ele>
        <time>2020-02-23T11:55:06Z</time>
      </trkpt>
      <trkpt lat="42.93003" lon="0.73035">
        <ele>1448.1</ele>
        <time>2020-02-23T11:55:07Z</time>
      </trkpt>
      <trkpt lat="42.93003" lon="0.73034">
        <ele>1448.1</ele>
        <time>2020-02-23T11:55:08Z</time>
      </trkpt>
      <trkpt lat="42.93003" lon="0.73034">
        <ele>1448.1</ele>
        <time>2020-02-23T11:55:09Z</time>
      </trkpt>
      <trkpt lat="42.93003" lon="0.73033">
        <ele>1448</ele>
        <time>2020-02-23T11:55:10Z</time>
      </trkpt>
      <trkpt lat="42.93004" lon="0.73033">
        <ele>1448</ele>
        <time>2020-02-23T11:55:11Z</time>
      </trkpt>
      <trkpt lat="42.93004" lon="0.73032">
        <ele>1447.9</ele>
        <time>2020-02-23T11:55:12Z</time>
      </trkpt>
      <trkpt lat="42.93004" lon="0.73032">
        <ele>1447.9</ele>
        <time>2020-02-23T11:55:13Z</time>
      </trkpt>
      <trkpt lat="42.93004" lon="0.73031">
        <ele>1447.8</ele>
        <time>2020-02-23T11:55:14Z</time>
      </trkpt>
      <trkpt lat="42.93004" lon="0.73031">
        <ele>1447.8</ele>
        <time>2020-02-23T11:55:15Z</time>
      </trkpt>
      <trkpt lat="42.93004" lon="0.7303">
        <ele>1447.7</ele>
        <time>2020-02-23T11:55:16Z</time>
      </trkpt>
      <trkpt lat="42.93004" lon="0.73029">
        <ele>1447.7</ele>
        <time>2020-02-23T11:55:17Z</time>
      </trkpt>
      <trkpt lat="42.93004" lon="0.73028">
        <ele>1447.7</ele>
        <time>2020-02-23T11:55:18Z</time>
      </trkpt>
      <trkpt lat="42.93004" lon="0.73027">
        <ele>1447.6</ele>
        <time>2020-02-23T11:55:19Z</time>
      </trkpt>
      <trkpt lat="42.93004" lon="0.73026">
        <ele>1447.6</ele>
        <time>2020-02-23T11:55:20Z</time>
      </trkpt>
      <trkpt lat="42.93004" lon="0.73025">
        <ele>1447.6</ele>
        <time>2020-02-23T11:55:21Z</time>
      </trkpt>
      <trkpt lat="42.93003" lon="0.73024">
        <ele>1447.5</ele>
        <time>2020-02-23T11:55:22Z</time>
      </trkpt>
      <trkpt lat="42.93003" lon="0.73023">
        <ele>1447.5</ele>
        <time>2020-02-23T11:55:23Z</time>
      </trkpt>
      <trkpt lat="42.93003" lon="0.73022">
        <ele>1447.5</ele>
        <time>2020-02-23T11:55:24Z</time>
      </trkpt>
      <trkpt lat="42.93003" lon="0.73021">
        <ele>1447.4</ele>
        <time>2020-02-23T11:55:25Z</time>
      </trkpt>
      <trkpt lat="42.93003" lon="0.7302">
        <ele>1447.4</ele>
        <time>2020-02-23T11:55:26Z</time>
      </trkpt>
      <trkpt lat="42.93003" lon="0.73019">
        <ele>1447.4</ele>
        <time>2020-02-23T11:55:27Z</time>
      </trkpt>
      <trkpt lat="42.93003" lon="0.73018">
        <ele>1447.3</ele>
        <time>2020-02-23T11:55:28Z</time>
      </trkpt>
      <trkpt lat="42.93003" lon="0.73017">
        <ele>1447.2</ele>
        <time>2020-02-23T11:55:29Z</time>
      </trkpt>
      <trkpt lat="42.93004" lon="0.73016">
        <ele>1447.2</ele>
        <time>2020-02-23T11:55:30Z</time>
      </trkpt>
      <trkpt lat="42.93004" lon="0.73016">
        <ele>1447.1</ele>
        <time>2020-02-23T11:55:31Z</time>
      </trkpt>
      <trkpt lat="42.93005" lon="0.73015">
        <ele>1447</ele>
        <time>2020-02-23T11:55:32Z</time>
      </trkpt>
      <trkpt lat="42.93006" lon="0.73014">
        <ele>1447</ele>
        <time>2020-02-23T11:55:33Z</time>
      </trkpt>
      <trkpt lat="42.93006" lon="0.73014">
        <ele>1446.9</ele>
        <time>2020-02-23T11:55:34Z</time>
      </trkpt>
      <trkpt lat="42.93007" lon="0.73013">
        <ele>1446.8</ele>
        <time>2020-02-23T11:55:35Z</time>
      </trkpt>
      <trkpt lat="42.93007" lon="0.73012">
        <ele>1446.8</ele>
        <time>2020-02-23T11:55:36Z</time>
      </trkpt>
      <trkpt lat="42.93008" lon="0.73012">
        <ele>1446.7</ele>
        <time>2020-02-23T11:55:37Z</time>
      </trkpt>
      <trkpt lat="42.93008" lon="0.73011">
        <ele>1446.7</ele>
        <time>2020-02-23T11:55:38Z</time>
      </trkpt>
      <trkpt lat="42.93009" lon="0.7301">
        <ele>1446.6</ele>
        <time>2020-02-23T11:55:39Z</time>
      </trkpt>
      <trkpt lat="42.93009" lon="0.7301">
        <ele>1446.6</ele>
        <time>2020-02-23T11:55:40Z</time>
      </trkpt>
      <trkpt lat="42.9301" lon="0.7301">
        <ele>1446.6</ele>
        <time>2020-02-23T11:55:41Z</time>
      </trkpt>
      <trkpt lat="42.9301" lon="0.73009">
        <ele>1446.6</ele>
        <time>2020-02-23T11:55:42Z</time>
      </trkpt>
      <trkpt lat="42.9301" lon="0.73009">
        <ele>1446.5</ele>
        <time>2020-02-23T11:55:43Z</time>
      </trkpt>
      <trkpt lat="42.9301" lon="0.73009">
        <ele>1446.5</ele>
        <time>2020-02-23T11:55:44Z</time>
      </trkpt>
      <trkpt lat="42.93011" lon="0.73008">
        <ele>1446.5</ele>
        <time>2020-02-23T11:55:45Z</time>
      </trkpt>
      <trkpt lat="42.93011" lon="0.73008">
        <ele>1446.5</ele>
        <time>2020-02-23T11:55:46Z</time>
      </trkpt>
      <trkpt lat="42.93011" lon="0.73008">
        <ele>1446.5</ele>
        <time>2020-02-23T11:55:47Z</time>
      </trkpt>
      <trkpt lat="42.93011" lon="0.73007">
        <ele>1446.5</ele>
        <time>2020-02-23T11:55:48Z</time>
      </trkpt>
      <trkpt lat="42.93012" lon="0.73007">
        <ele>1446.4</ele>
        <time>2020-02-23T11:55:49Z</time>
      </trkpt>
      <trkpt lat="42.93012" lon="0.73006">
        <ele>1446.4</ele>
        <time>2020-02-23T11:55:50Z</time>
      </trkpt>
      <trkpt lat="42.93012" lon="0.73006">
        <ele>1446.4</ele>
        <time>2020-02-23T11:55:51Z</time>
      </trkpt>
      <trkpt lat="42.93014" lon="0.73004">
        <ele>1446.3</ele>
        <time>2020-02-23T11:55:52Z</time>
      </trkpt>
      <trkpt lat="42.93014" lon="0.73004">
        <ele>1446.3</ele>
        <time>2020-02-23T11:55:53Z</time>
      </trkpt>
      <trkpt lat="42.93014" lon="0.73004">
        <ele>1446.3</ele>
        <time>2020-02-23T11:55:54Z</time>
      </trkpt>
      <trkpt lat="42.93014" lon="0.73004">
        <ele>1446.3</ele>
        <time>2020-02-23T11:55:55Z</time>
      </trkpt>
      <trkpt lat="42.93016" lon="0.73001">
        <ele>1446.5</ele>
        <time>2020-02-23T11:55:56Z</time>
      </trkpt>
      <trkpt lat="42.93016" lon="0.73001">
        <ele>1446.5</ele>
        <time>2020-02-23T11:55:57Z</time>
      </trkpt>
      <trkpt lat="42.93016" lon="0.73001">
        <ele>1446.5</ele>
        <time>2020-02-23T11:55:58Z</time>
      </trkpt>
      <trkpt lat="42.93016" lon="0.73001">
        <ele>1446.5</ele>
        <time>2020-02-23T11:55:59Z</time>
      </trkpt>
      <trkpt lat="42.93016" lon="0.73001">
        <ele>1446.5</ele>
        <time>2020-02-23T11:56:00Z</time>
      </trkpt>
      <trkpt lat="42.93016" lon="0.73001">
        <ele>1446.5</ele>
        <time>2020-02-23T11:56:01Z</time>
      </trkpt>
      <trkpt lat="42.93018" lon="0.73003">
        <ele>1447.1</ele>
        <time>2020-02-23T11:56:02Z</time>
      </trkpt>
      <trkpt lat="42.93018" lon="0.73003">
        <ele>1447.1</ele>
        <time>2020-02-23T11:56:03Z</time>
      </trkpt>
      <trkpt lat="42.93018" lon="0.73003">
        <ele>1447.1</ele>
        <time>2020-02-23T11:56:04Z</time>
      </trkpt>
      <trkpt lat="42.9302" lon="0.73003">
        <ele>1447.6</ele>
        <time>2020-02-23T11:56:05Z</time>
      </trkpt>
      <trkpt lat="42.9302" lon="0.73003">
        <ele>1447.6</ele>
        <time>2020-02-23T11:56:06Z</time>
      </trkpt>
      <trkpt lat="42.9302" lon="0.73003">
        <ele>1447.6</ele>
        <time>2020-02-23T11:56:07Z</time>
      </trkpt>
      <trkpt lat="42.9302" lon="0.73003">
        <ele>1447.6</ele>
        <time>2020-02-23T11:56:08Z</time>
      </trkpt>
      <trkpt lat="42.9302" lon="0.73003">
        <ele>1447.6</ele>
        <time>2020-02-23T11:56:09Z</time>
      </trkpt>
      <trkpt lat="42.93023" lon="0.73001">
        <ele>1448.2</ele>
        <time>2020-02-23T11:56:10Z</time>
      </trkpt>
      <trkpt lat="42.93023" lon="0.73001">
        <ele>1448.2</ele>
        <time>2020-02-23T11:56:11Z</time>
      </trkpt>
      <trkpt lat="42.93023" lon="0.73001">
        <ele>1448.2</ele>
        <time>2020-02-23T11:56:12Z</time>
      </trkpt>
      <trkpt lat="42.93023" lon="0.73001">
        <ele>1448.2</ele>
        <time>2020-02-23T11:56:13Z</time>
      </trkpt>
      <trkpt lat="42.93023" lon="0.73001">
        <ele>1448.2</ele>
        <time>2020-02-23T11:56:14Z</time>
      </trkpt>
      <trkpt lat="42.93026" lon="0.73">
        <ele>1448.7</ele>
        <time>2020-02-23T11:56:15Z</time>
      </trkpt>
      <trkpt lat="42.93026" lon="0.73">
        <ele>1448.7</ele>
        <time>2020-02-23T11:56:16Z</time>
      </trkpt>
      <trkpt lat="42.93026" lon="0.73">
        <ele>1448.7</ele>
        <time>2020-02-23T11:56:17Z</time>
      </trkpt>
      <trkpt lat="42.93026" lon="0.73">
        <ele>1448.7</ele>
        <time>2020-02-23T11:56:18Z</time>
      </trkpt>
      <trkpt lat="42.93028" lon="0.72999">
        <ele>1449</ele>
        <time>2020-02-23T11:56:19Z</time>
      </trkpt>
      <trkpt lat="42.93028" lon="0.72999">
        <ele>1449</ele>
        <time>2020-02-23T11:56:20Z</time>
      </trkpt>
      <trkpt lat="42.93031" lon="0.72998">
        <ele>1449.3</ele>
        <time>2020-02-23T11:56:21Z</time>
      </trkpt>
      <trkpt lat="42.93031" lon="0.72998">
        <ele>1449.3</ele>
        <time>2020-02-23T11:56:22Z</time>
      </trkpt>
      <trkpt lat="42.93031" lon="0.72998">
        <ele>1449.3</ele>
        <time>2020-02-23T11:56:23Z</time>
      </trkpt>
      <trkpt lat="42.93033" lon="0.72998">
        <ele>1449.6</ele>
        <time>2020-02-23T11:56:24Z</time>
      </trkpt>
      <trkpt lat="42.93033" lon="0.72998">
        <ele>1449.6</ele>
        <time>2020-02-23T11:56:25Z</time>
      </trkpt>
      <trkpt lat="42.93033" lon="0.72998">
        <ele>1449.6</ele>
        <time>2020-02-23T11:56:26Z</time>
      </trkpt>
      <trkpt lat="42.93034" lon="0.72998">
        <ele>1449.7</ele>
        <time>2020-02-23T11:56:27Z</time>
      </trkpt>
      <trkpt lat="42.93035" lon="0.72998">
        <ele>1449.9</ele>
        <time>2020-02-23T11:56:28Z</time>
      </trkpt>
      <trkpt lat="42.93036" lon="0.72998">
        <ele>1450.1</ele>
        <time>2020-02-23T11:56:29Z</time>
      </trkpt>
      <trkpt lat="42.93037" lon="0.72998">
        <ele>1450.3</ele>
        <time>2020-02-23T11:56:30Z</time>
      </trkpt>
      <trkpt lat="42.93038" lon="0.72998">
        <ele>1450.5</ele>
        <time>2020-02-23T11:56:31Z</time>
      </trkpt>
      <trkpt lat="42.93038" lon="0.72998">
        <ele>1450.6</ele>
        <time>2020-02-23T11:56:32Z</time>
      </trkpt>
      <trkpt lat="42.93039" lon="0.72998">
        <ele>1450.8</ele>
        <time>2020-02-23T11:56:33Z</time>
      </trkpt>
      <trkpt lat="42.93039" lon="0.72998">
        <ele>1450.8</ele>
        <time>2020-02-23T11:56:34Z</time>
      </trkpt>
      <trkpt lat="42.93039" lon="0.72998">
        <ele>1450.8</ele>
        <time>2020-02-23T11:56:35Z</time>
      </trkpt>
      <trkpt lat="42.93039" lon="0.72998">
        <ele>1450.8</ele>
        <time>2020-02-23T11:56:36Z</time>
      </trkpt>
      <trkpt lat="42.93044" lon="0.72999">
        <ele>1451.7</ele>
        <time>2020-02-23T11:56:37Z</time>
      </trkpt>
      <trkpt lat="42.93044" lon="0.72999">
        <ele>1451.7</ele>
        <time>2020-02-23T11:56:38Z</time>
      </trkpt>
      <trkpt lat="42.93044" lon="0.72999">
        <ele>1451.7</ele>
        <time>2020-02-23T11:56:39Z</time>
      </trkpt>
      <trkpt lat="42.93044" lon="0.72999">
        <ele>1451.7</ele>
        <time>2020-02-23T11:56:40Z</time>
      </trkpt>
      <trkpt lat="42.93045" lon="0.72999">
        <ele>1451.8</ele>
        <time>2020-02-23T11:56:41Z</time>
      </trkpt>
      <trkpt lat="42.93045" lon="0.72999">
        <ele>1451.8</ele>
        <time>2020-02-23T11:56:42Z</time>
      </trkpt>
      <trkpt lat="42.93046" lon="0.72999">
        <ele>1451.8</ele>
        <time>2020-02-23T11:56:43Z</time>
      </trkpt>
      <trkpt lat="42.93047" lon="0.72998">
        <ele>1451.9</ele>
        <time>2020-02-23T11:56:44Z</time>
      </trkpt>
      <trkpt lat="42.93047" lon="0.72998">
        <ele>1451.9</ele>
        <time>2020-02-23T11:56:45Z</time>
      </trkpt>
      <trkpt lat="42.93048" lon="0.72998">
        <ele>1451.9</ele>
        <time>2020-02-23T11:56:46Z</time>
      </trkpt>
      <trkpt lat="42.93049" lon="0.72998">
        <ele>1452</ele>
        <time>2020-02-23T11:56:47Z</time>
      </trkpt>
      <trkpt lat="42.93049" lon="0.72998">
        <ele>1452</ele>
        <time>2020-02-23T11:56:48Z</time>
      </trkpt>
      <trkpt lat="42.9305" lon="0.72998">
        <ele>1452</ele>
        <time>2020-02-23T11:56:49Z</time>
      </trkpt>
      <trkpt lat="42.93052" lon="0.72996">
        <ele>1452.2</ele>
        <time>2020-02-23T11:56:50Z</time>
      </trkpt>
      <trkpt lat="42.93052" lon="0.72996">
        <ele>1452.2</ele>
        <time>2020-02-23T11:56:51Z</time>
      </trkpt>
      <trkpt lat="42.93052" lon="0.72996">
        <ele>1452.2</ele>
        <time>2020-02-23T11:56:52Z</time>
      </trkpt>
      <trkpt lat="42.93052" lon="0.72996">
        <ele>1452.2</ele>
        <time>2020-02-23T11:56:53Z</time>
      </trkpt>
      <trkpt lat="42.93053" lon="0.72994">
        <ele>1452.2</ele>
        <time>2020-02-23T11:56:54Z</time>
      </trkpt>
      <trkpt lat="42.93053" lon="0.72994">
        <ele>1452.2</ele>
        <time>2020-02-23T11:56:55Z</time>
      </trkpt>
      <trkpt lat="42.93053" lon="0.72994">
        <ele>1452.2</ele>
        <time>2020-02-23T11:56:56Z</time>
      </trkpt>
      <trkpt lat="42.93055" lon="0.72992">
        <ele>1452.2</ele>
        <time>2020-02-23T11:56:57Z</time>
      </trkpt>
      <trkpt lat="42.93055" lon="0.72992">
        <ele>1452.2</ele>
        <time>2020-02-23T11:56:58Z</time>
      </trkpt>
      <trkpt lat="42.93057" lon="0.72991">
        <ele>1452.1</ele>
        <time>2020-02-23T11:56:59Z</time>
      </trkpt>
      <trkpt lat="42.93057" lon="0.72991">
        <ele>1452.1</ele>
        <time>2020-02-23T11:57:00Z</time>
      </trkpt>
      <trkpt lat="42.93057" lon="0.72991">
        <ele>1452.1</ele>
        <time>2020-02-23T11:57:01Z</time>
      </trkpt>
      <trkpt lat="42.93059" lon="0.72992">
        <ele>1452.1</ele>
        <time>2020-02-23T11:57:02Z</time>
      </trkpt>
      <trkpt lat="42.93059" lon="0.72992">
        <ele>1452.1</ele>
        <time>2020-02-23T11:57:03Z</time>
      </trkpt>
      <trkpt lat="42.93059" lon="0.72992">
        <ele>1452.1</ele>
        <time>2020-02-23T11:57:04Z</time>
      </trkpt>
      <trkpt lat="42.93059" lon="0.72992">
        <ele>1452.1</ele>
        <time>2020-02-23T11:57:05Z</time>
      </trkpt>
      <trkpt lat="42.93061" lon="0.72992">
        <ele>1452.1</ele>
        <time>2020-02-23T11:57:06Z</time>
      </trkpt>
      <trkpt lat="42.93061" lon="0.72992">
        <ele>1452.1</ele>
        <time>2020-02-23T11:57:07Z</time>
      </trkpt>
      <trkpt lat="42.93061" lon="0.72992">
        <ele>1452.1</ele>
        <time>2020-02-23T11:57:08Z</time>
      </trkpt>
      <trkpt lat="42.93061" lon="0.72992">
        <ele>1452.1</ele>
        <time>2020-02-23T11:57:09Z</time>
      </trkpt>
      <trkpt lat="42.93061" lon="0.72992">
        <ele>1452.1</ele>
        <time>2020-02-23T11:57:10Z</time>
      </trkpt>
      <trkpt lat="42.93061" lon="0.72992">
        <ele>1452.1</ele>
        <time>2020-02-23T11:57:11Z</time>
      </trkpt>
      <trkpt lat="42.93061" lon="0.72992">
        <ele>1452.1</ele>
        <time>2020-02-23T11:57:12Z</time>
      </trkpt>
      <trkpt lat="42.93065" lon="0.72993">
        <ele>1452</ele>
        <time>2020-02-23T11:57:13Z</time>
      </trkpt>
      <trkpt lat="42.93065" lon="0.72993">
        <ele>1452</ele>
        <time>2020-02-23T11:57:14Z</time>
      </trkpt>
      <trkpt lat="42.93065" lon="0.72993">
        <ele>1452</ele>
        <time>2020-02-23T11:57:15Z</time>
      </trkpt>
      <trkpt lat="42.93065" lon="0.72993">
        <ele>1452</ele>
        <time>2020-02-23T11:57:16Z</time>
      </trkpt>
      <trkpt lat="42.93066" lon="0.72994">
        <ele>1452</ele>
        <time>2020-02-23T11:57:17Z</time>
      </trkpt>
      <trkpt lat="42.93067" lon="0.72995">
        <ele>1452</ele>
        <time>2020-02-23T11:57:18Z</time>
      </trkpt>
      <trkpt lat="42.93068" lon="0.72995">
        <ele>1451.9</ele>
        <time>2020-02-23T11:57:19Z</time>
      </trkpt>
      <trkpt lat="42.93069" lon="0.72996">
        <ele>1451.9</ele>
        <time>2020-02-23T11:57:20Z</time>
      </trkpt>
      <trkpt lat="42.93069" lon="0.72996">
        <ele>1451.9</ele>
        <time>2020-02-23T11:57:21Z</time>
      </trkpt>
      <trkpt lat="42.93069" lon="0.72996">
        <ele>1451.9</ele>
        <time>2020-02-23T11:57:22Z</time>
      </trkpt>
      <trkpt lat="42.93071" lon="0.72999">
        <ele>1451.9</ele>
        <time>2020-02-23T11:57:23Z</time>
      </trkpt>
      <trkpt lat="42.93071" lon="0.72999">
        <ele>1451.9</ele>
        <time>2020-02-23T11:57:24Z</time>
      </trkpt>
      <trkpt lat="42.93071" lon="0.72999">
        <ele>1451.9</ele>
        <time>2020-02-23T11:57:25Z</time>
      </trkpt>
      <trkpt lat="42.93072" lon="0.72999">
        <ele>1451.8</ele>
        <time>2020-02-23T11:57:26Z</time>
      </trkpt>
      <trkpt lat="42.93072" lon="0.73">
        <ele>1451.8</ele>
        <time>2020-02-23T11:57:27Z</time>
      </trkpt>
      <trkpt lat="42.93073" lon="0.73">
        <ele>1451.8</ele>
        <time>2020-02-23T11:57:28Z</time>
      </trkpt>
      <trkpt lat="42.93074" lon="0.73001">
        <ele>1451.8</ele>
        <time>2020-02-23T11:57:29Z</time>
      </trkpt>
      <trkpt lat="42.93074" lon="0.73001">
        <ele>1451.8</ele>
        <time>2020-02-23T11:57:30Z</time>
      </trkpt>
      <trkpt lat="42.93075" lon="0.73002">
        <ele>1451.8</ele>
        <time>2020-02-23T11:57:31Z</time>
      </trkpt>
      <trkpt lat="42.93076" lon="0.73002">
        <ele>1451.7</ele>
        <time>2020-02-23T11:57:32Z</time>
      </trkpt>
      <trkpt lat="42.93076" lon="0.73003">
        <ele>1451.7</ele>
        <time>2020-02-23T11:57:33Z</time>
      </trkpt>
      <trkpt lat="42.93077" lon="0.73003">
        <ele>1451.7</ele>
        <time>2020-02-23T11:57:34Z</time>
      </trkpt>
      <trkpt lat="42.93077" lon="0.73004">
        <ele>1451.7</ele>
        <time>2020-02-23T11:57:35Z</time>
      </trkpt>
      <trkpt lat="42.93078" lon="0.73004">
        <ele>1451.6</ele>
        <time>2020-02-23T11:57:36Z</time>
      </trkpt>
      <trkpt lat="42.93078" lon="0.73004">
        <ele>1451.6</ele>
        <time>2020-02-23T11:57:37Z</time>
      </trkpt>
      <trkpt lat="42.93079" lon="0.73005">
        <ele>1451.6</ele>
        <time>2020-02-23T11:57:38Z</time>
      </trkpt>
      <trkpt lat="42.93079" lon="0.73005">
        <ele>1451.6</ele>
        <time>2020-02-23T11:57:39Z</time>
      </trkpt>
      <trkpt lat="42.93079" lon="0.73006">
        <ele>1451.6</ele>
        <time>2020-02-23T11:57:40Z</time>
      </trkpt>
      <trkpt lat="42.9308" lon="0.73006">
        <ele>1451.5</ele>
        <time>2020-02-23T11:57:41Z</time>
      </trkpt>
      <trkpt lat="42.9308" lon="0.73006">
        <ele>1451.5</ele>
        <time>2020-02-23T11:57:42Z</time>
      </trkpt>
      <trkpt lat="42.9308" lon="0.73006">
        <ele>1451.5</ele>
        <time>2020-02-23T11:57:43Z</time>
      </trkpt>
      <trkpt lat="42.9308" lon="0.73006">
        <ele>1451.5</ele>
        <time>2020-02-23T11:57:44Z</time>
      </trkpt>
      <trkpt lat="42.93083" lon="0.73008">
        <ele>1451.4</ele>
        <time>2020-02-23T11:57:45Z</time>
      </trkpt>
      <trkpt lat="42.93083" lon="0.73008">
        <ele>1451.4</ele>
        <time>2020-02-23T11:57:46Z</time>
      </trkpt>
      <trkpt lat="42.93083" lon="0.73008">
        <ele>1451.4</ele>
        <time>2020-02-23T11:57:47Z</time>
      </trkpt>
      <trkpt lat="42.93085" lon="0.73007">
        <ele>1451.3</ele>
        <time>2020-02-23T11:57:48Z</time>
      </trkpt>
      <trkpt lat="42.93085" lon="0.73007">
        <ele>1451.3</ele>
        <time>2020-02-23T11:57:49Z</time>
      </trkpt>
      <trkpt lat="42.93087" lon="0.73007">
        <ele>1451.2</ele>
        <time>2020-02-23T11:57:50Z</time>
      </trkpt>
      <trkpt lat="42.93087" lon="0.73007">
        <ele>1451.2</ele>
        <time>2020-02-23T11:57:51Z</time>
      </trkpt>
      <trkpt lat="42.93087" lon="0.73007">
        <ele>1451.2</ele>
        <time>2020-02-23T11:57:52Z</time>
      </trkpt>
      <trkpt lat="42.93089" lon="0.73006">
        <ele>1451.1</ele>
        <time>2020-02-23T11:57:53Z</time>
      </trkpt>
      <trkpt lat="42.93089" lon="0.73006">
        <ele>1451.1</ele>
        <time>2020-02-23T11:57:54Z</time>
      </trkpt>
      <trkpt lat="42.93089" lon="0.73006">
        <ele>1451.1</ele>
        <time>2020-02-23T11:57:55Z</time>
      </trkpt>
      <trkpt lat="42.93089" lon="0.73006">
        <ele>1451.1</ele>
        <time>2020-02-23T11:57:56Z</time>
      </trkpt>
      <trkpt lat="42.93089" lon="0.73006">
        <ele>1451.1</ele>
        <time>2020-02-23T11:57:57Z</time>
      </trkpt>
      <trkpt lat="42.93091" lon="0.73003">
        <ele>1450.9</ele>
        <time>2020-02-23T11:57:58Z</time>
      </trkpt>
      <trkpt lat="42.93091" lon="0.73003">
        <ele>1450.9</ele>
        <time>2020-02-23T11:57:59Z</time>
      </trkpt>
      <trkpt lat="42.93091" lon="0.73003">
        <ele>1450.9</ele>
        <time>2020-02-23T11:58:00Z</time>
      </trkpt>
      <trkpt lat="42.93093" lon="0.73">
        <ele>1450.4</ele>
        <time>2020-02-23T11:58:01Z</time>
      </trkpt>
      <trkpt lat="42.93093" lon="0.73">
        <ele>1450.4</ele>
        <time>2020-02-23T11:58:02Z</time>
      </trkpt>
      <trkpt lat="42.93094" lon="0.72999">
        <ele>1450.1</ele>
        <time>2020-02-23T11:58:03Z</time>
      </trkpt>
      <trkpt lat="42.93094" lon="0.72999">
        <ele>1449.9</ele>
        <time>2020-02-23T11:58:04Z</time>
      </trkpt>
      <trkpt lat="42.93095" lon="0.72998">
        <ele>1449.6</ele>
        <time>2020-02-23T11:58:05Z</time>
      </trkpt>
      <trkpt lat="42.93096" lon="0.72997">
        <ele>1449.4</ele>
        <time>2020-02-23T11:58:06Z</time>
      </trkpt>
      <trkpt lat="42.93097" lon="0.72996">
        <ele>1449.1</ele>
        <time>2020-02-23T11:58:07Z</time>
      </trkpt>
      <trkpt lat="42.93097" lon="0.72996">
        <ele>1449</ele>
        <time>2020-02-23T11:58:08Z</time>
      </trkpt>
      <trkpt lat="42.93098" lon="0.72995">
        <ele>1448.8</ele>
        <time>2020-02-23T11:58:09Z</time>
      </trkpt>
      <trkpt lat="42.93098" lon="0.72995">
        <ele>1448.7</ele>
        <time>2020-02-23T11:58:10Z</time>
      </trkpt>
      <trkpt lat="42.93099" lon="0.72994">
        <ele>1448.5</ele>
        <time>2020-02-23T11:58:11Z</time>
      </trkpt>
      <trkpt lat="42.93099" lon="0.72993">
        <ele>1448.5</ele>
        <time>2020-02-23T11:58:12Z</time>
      </trkpt>
      <trkpt lat="42.93099" lon="0.72993">
        <ele>1448.4</ele>
        <time>2020-02-23T11:58:13Z</time>
      </trkpt>
      <trkpt lat="42.931" lon="0.72992">
        <ele>1448.4</ele>
        <time>2020-02-23T11:58:14Z</time>
      </trkpt>
      <trkpt lat="42.931" lon="0.72992">
        <ele>1448.3</ele>
        <time>2020-02-23T11:58:15Z</time>
      </trkpt>
      <trkpt lat="42.931" lon="0.72992">
        <ele>1448.3</ele>
        <time>2020-02-23T11:58:16Z</time>
      </trkpt>
      <trkpt lat="42.93102" lon="0.72989">
        <ele>1448.1</ele>
        <time>2020-02-23T11:58:17Z</time>
      </trkpt>
      <trkpt lat="42.93102" lon="0.72989">
        <ele>1448.1</ele>
        <time>2020-02-23T11:58:18Z</time>
      </trkpt>
      <trkpt lat="42.93104" lon="0.72988">
        <ele>1448</ele>
        <time>2020-02-23T11:58:19Z</time>
      </trkpt>
      <trkpt lat="42.93104" lon="0.72988">
        <ele>1448</ele>
        <time>2020-02-23T11:58:20Z</time>
      </trkpt>
      <trkpt lat="42.93106" lon="0.72987">
        <ele>1447.8</ele>
        <time>2020-02-23T11:58:21Z</time>
      </trkpt>
      <trkpt lat="42.93106" lon="0.72987">
        <ele>1447.8</ele>
        <time>2020-02-23T11:58:22Z</time>
      </trkpt>
      <trkpt lat="42.93106" lon="0.72987">
        <ele>1447.8</ele>
        <time>2020-02-23T11:58:23Z</time>
      </trkpt>
      <trkpt lat="42.93106" lon="0.72987">
        <ele>1447.8</ele>
        <time>2020-02-23T11:58:24Z</time>
      </trkpt>
      <trkpt lat="42.93108" lon="0.72985">
        <ele>1447.8</ele>
        <time>2020-02-23T11:58:25Z</time>
      </trkpt>
      <trkpt lat="42.93108" lon="0.72985">
        <ele>1447.8</ele>
        <time>2020-02-23T11:58:26Z</time>
      </trkpt>
      <trkpt lat="42.93111" lon="0.72985">
        <ele>1447.8</ele>
        <time>2020-02-23T11:58:27Z</time>
      </trkpt>
      <trkpt lat="42.93111" lon="0.72985">
        <ele>1447.8</ele>
        <time>2020-02-23T11:58:28Z</time>
      </trkpt>
      <trkpt lat="42.93112" lon="0.72984">
        <ele>1447.8</ele>
        <time>2020-02-23T11:58:29Z</time>
      </trkpt>
      <trkpt lat="42.93112" lon="0.72984">
        <ele>1447.8</ele>
        <time>2020-02-23T11:58:30Z</time>
      </trkpt>
      <trkpt lat="42.93113" lon="0.72984">
        <ele>1447.8</ele>
        <time>2020-02-23T11:58:31Z</time>
      </trkpt>
      <trkpt lat="42.93114" lon="0.72984">
        <ele>1447.8</ele>
        <time>2020-02-23T11:58:32Z</time>
      </trkpt>
      <trkpt lat="42.93115" lon="0.72984">
        <ele>1447.8</ele>
        <time>2020-02-23T11:58:33Z</time>
      </trkpt>
      <trkpt lat="42.93116" lon="0.72984">
        <ele>1447.8</ele>
        <time>2020-02-23T11:58:34Z</time>
      </trkpt>
      <trkpt lat="42.93116" lon="0.72984">
        <ele>1447.7</ele>
        <time>2020-02-23T11:58:35Z</time>
      </trkpt>
      <trkpt lat="42.93117" lon="0.72984">
        <ele>1447.7</ele>
        <time>2020-02-23T11:58:36Z</time>
      </trkpt>
      <trkpt lat="42.93117" lon="0.72984">
        <ele>1447.7</ele>
        <time>2020-02-23T11:58:37Z</time>
      </trkpt>
      <trkpt lat="42.93119" lon="0.72982">
        <ele>1447.6</ele>
        <time>2020-02-23T11:58:38Z</time>
      </trkpt>
      <trkpt lat="42.93119" lon="0.72982">
        <ele>1447.6</ele>
        <time>2020-02-23T11:58:39Z</time>
      </trkpt>
      <trkpt lat="42.93119" lon="0.72982">
        <ele>1447.6</ele>
        <time>2020-02-23T11:58:40Z</time>
      </trkpt>
      <trkpt lat="42.93121" lon="0.72978">
        <ele>1447.3</ele>
        <time>2020-02-23T11:58:41Z</time>
      </trkpt>
      <trkpt lat="42.93121" lon="0.72978">
        <ele>1447.3</ele>
        <time>2020-02-23T11:58:42Z</time>
      </trkpt>
      <trkpt lat="42.93121" lon="0.72978">
        <ele>1447.3</ele>
        <time>2020-02-23T11:58:43Z</time>
      </trkpt>
      <trkpt lat="42.93121" lon="0.72978">
        <ele>1447.3</ele>
        <time>2020-02-23T11:58:44Z</time>
      </trkpt>
      <trkpt lat="42.93123" lon="0.72976">
        <ele>1447.5</ele>
        <time>2020-02-23T11:58:45Z</time>
      </trkpt>
      <trkpt lat="42.93123" lon="0.72976">
        <ele>1447.5</ele>
        <time>2020-02-23T11:58:46Z</time>
      </trkpt>
      <trkpt lat="42.93123" lon="0.72976">
        <ele>1447.5</ele>
        <time>2020-02-23T11:58:47Z</time>
      </trkpt>
      <trkpt lat="42.93123" lon="0.72976">
        <ele>1447.5</ele>
        <time>2020-02-23T11:58:48Z</time>
      </trkpt>
      <trkpt lat="42.93126" lon="0.72973">
        <ele>1447.8</ele>
        <time>2020-02-23T11:58:49Z</time>
      </trkpt>
      <trkpt lat="42.93126" lon="0.72973">
        <ele>1447.8</ele>
        <time>2020-02-23T11:58:50Z</time>
      </trkpt>
      <trkpt lat="42.93126" lon="0.72973">
        <ele>1447.8</ele>
        <time>2020-02-23T11:58:51Z</time>
      </trkpt>
      <trkpt lat="42.93126" lon="0.72973">
        <ele>1447.8</ele>
        <time>2020-02-23T11:58:52Z</time>
      </trkpt>
      <trkpt lat="42.93126" lon="0.72973">
        <ele>1447.8</ele>
        <time>2020-02-23T11:58:53Z</time>
      </trkpt>
      <trkpt lat="42.93129" lon="0.72973">
        <ele>1448.1</ele>
        <time>2020-02-23T11:58:54Z</time>
      </trkpt>
      <trkpt lat="42.93129" lon="0.72973">
        <ele>1448.1</ele>
        <time>2020-02-23T11:58:55Z</time>
      </trkpt>
      <trkpt lat="42.93131" lon="0.72971">
        <ele>1448.4</ele>
        <time>2020-02-23T11:58:56Z</time>
      </trkpt>
      <trkpt lat="42.93131" lon="0.72971">
        <ele>1448.4</ele>
        <time>2020-02-23T11:58:57Z</time>
      </trkpt>
      <trkpt lat="42.93132" lon="0.72969">
        <ele>1448.7</ele>
        <time>2020-02-23T11:58:58Z</time>
      </trkpt>
      <trkpt lat="42.93132" lon="0.72969">
        <ele>1448.7</ele>
        <time>2020-02-23T11:58:59Z</time>
      </trkpt>
      <trkpt lat="42.93134" lon="0.72967">
        <ele>1449</ele>
        <time>2020-02-23T11:59:00Z</time>
      </trkpt>
      <trkpt lat="42.93134" lon="0.72967">
        <ele>1449</ele>
        <time>2020-02-23T11:59:01Z</time>
      </trkpt>
      <trkpt lat="42.93134" lon="0.72967">
        <ele>1449</ele>
        <time>2020-02-23T11:59:02Z</time>
      </trkpt>
      <trkpt lat="42.93134" lon="0.72967">
        <ele>1449</ele>
        <time>2020-02-23T11:59:03Z</time>
      </trkpt>
      <trkpt lat="42.93136" lon="0.72965">
        <ele>1449.4</ele>
        <time>2020-02-23T11:59:04Z</time>
      </trkpt>
      <trkpt lat="42.93138" lon="0.72965">
        <ele>1449.7</ele>
        <time>2020-02-23T11:59:05Z</time>
      </trkpt>
      <trkpt lat="42.93138" lon="0.72965">
        <ele>1449.7</ele>
        <time>2020-02-23T11:59:06Z</time>
      </trkpt>
      <trkpt lat="42.93138" lon="0.72965">
        <ele>1449.7</ele>
        <time>2020-02-23T11:59:07Z</time>
      </trkpt>
      <trkpt lat="42.9314" lon="0.72966">
        <ele>1450</ele>
        <time>2020-02-23T11:59:08Z</time>
      </trkpt>
      <trkpt lat="42.9314" lon="0.72966">
        <ele>1450</ele>
        <time>2020-02-23T11:59:09Z</time>
      </trkpt>
      <trkpt lat="42.93142" lon="0.72966">
        <ele>1450.4</ele>
        <time>2020-02-23T11:59:10Z</time>
      </trkpt>
      <trkpt lat="42.93142" lon="0.72966">
        <ele>1450.4</ele>
        <time>2020-02-23T11:59:11Z</time>
      </trkpt>
      <trkpt lat="42.93142" lon="0.72966">
        <ele>1450.4</ele>
        <time>2020-02-23T11:59:12Z</time>
      </trkpt>
      <trkpt lat="42.93144" lon="0.72965">
        <ele>1450.9</ele>
        <time>2020-02-23T11:59:13Z</time>
      </trkpt>
      <trkpt lat="42.93144" lon="0.72965">
        <ele>1450.9</ele>
        <time>2020-02-23T11:59:14Z</time>
      </trkpt>
      <trkpt lat="42.93146" lon="0.72964">
        <ele>1451.3</ele>
        <time>2020-02-23T11:59:15Z</time>
      </trkpt>
      <trkpt lat="42.93146" lon="0.72964">
        <ele>1451.3</ele>
        <time>2020-02-23T11:59:16Z</time>
      </trkpt>
      <trkpt lat="42.93148" lon="0.72964">
        <ele>1451.6</ele>
        <time>2020-02-23T11:59:17Z</time>
      </trkpt>
      <trkpt lat="42.93148" lon="0.72964">
        <ele>1451.6</ele>
        <time>2020-02-23T11:59:18Z</time>
      </trkpt>
      <trkpt lat="42.93148" lon="0.72964">
        <ele>1451.6</ele>
        <time>2020-02-23T11:59:19Z</time>
      </trkpt>
      <trkpt lat="42.9315" lon="0.72963">
        <ele>1452.2</ele>
        <time>2020-02-23T11:59:20Z</time>
      </trkpt>
      <trkpt lat="42.9315" lon="0.72963">
        <ele>1452.2</ele>
        <time>2020-02-23T11:59:21Z</time>
      </trkpt>
      <trkpt lat="42.93152" lon="0.72963">
        <ele>1452.7</ele>
        <time>2020-02-23T11:59:22Z</time>
      </trkpt>
      <trkpt lat="42.93152" lon="0.72963">
        <ele>1452.7</ele>
        <time>2020-02-23T11:59:23Z</time>
      </trkpt>
      <trkpt lat="42.93155" lon="0.72964">
        <ele>1453.2</ele>
        <time>2020-02-23T11:59:24Z</time>
      </trkpt>
      <trkpt lat="42.93155" lon="0.72964">
        <ele>1453.2</ele>
        <time>2020-02-23T11:59:25Z</time>
      </trkpt>
      <trkpt lat="42.93155" lon="0.72964">
        <ele>1453.2</ele>
        <time>2020-02-23T11:59:26Z</time>
      </trkpt>
      <trkpt lat="42.93157" lon="0.72964">
        <ele>1453.7</ele>
        <time>2020-02-23T11:59:27Z</time>
      </trkpt>
      <trkpt lat="42.93157" lon="0.72964">
        <ele>1453.7</ele>
        <time>2020-02-23T11:59:28Z</time>
      </trkpt>
      <trkpt lat="42.93157" lon="0.72964">
        <ele>1453.7</ele>
        <time>2020-02-23T11:59:29Z</time>
      </trkpt>
      <trkpt lat="42.93157" lon="0.72964">
        <ele>1453.7</ele>
        <time>2020-02-23T11:59:30Z</time>
      </trkpt>
      <trkpt lat="42.93159" lon="0.72962">
        <ele>1453.9</ele>
        <time>2020-02-23T11:59:31Z</time>
      </trkpt>
      <trkpt lat="42.93159" lon="0.72962">
        <ele>1453.9</ele>
        <time>2020-02-23T11:59:32Z</time>
      </trkpt>
      <trkpt lat="42.93161" lon="0.72962">
        <ele>1454</ele>
        <time>2020-02-23T11:59:33Z</time>
      </trkpt>
      <trkpt lat="42.93162" lon="0.72961">
        <ele>1454.2</ele>
        <time>2020-02-23T11:59:34Z</time>
      </trkpt>
      <trkpt lat="42.93162" lon="0.72961">
        <ele>1454.2</ele>
        <time>2020-02-23T11:59:35Z</time>
      </trkpt>
      <trkpt lat="42.93162" lon="0.72961">
        <ele>1454.2</ele>
        <time>2020-02-23T11:59:36Z</time>
      </trkpt>
      <trkpt lat="42.93164" lon="0.7296">
        <ele>1454.3</ele>
        <time>2020-02-23T11:59:37Z</time>
      </trkpt>
      <trkpt lat="42.93164" lon="0.7296">
        <ele>1454.3</ele>
        <time>2020-02-23T11:59:38Z</time>
      </trkpt>
      <trkpt lat="42.93166" lon="0.72959">
        <ele>1454.6</ele>
        <time>2020-02-23T11:59:39Z</time>
      </trkpt>
      <trkpt lat="42.93166" lon="0.72959">
        <ele>1454.6</ele>
        <time>2020-02-23T11:59:40Z</time>
      </trkpt>
      <trkpt lat="42.93167" lon="0.72958">
        <ele>1455</ele>
        <time>2020-02-23T11:59:41Z</time>
      </trkpt>
      <trkpt lat="42.93167" lon="0.72958">
        <ele>1455</ele>
        <time>2020-02-23T11:59:42Z</time>
      </trkpt>
      <trkpt lat="42.93169" lon="0.72959">
        <ele>1455.4</ele>
        <time>2020-02-23T11:59:43Z</time>
      </trkpt>
      <trkpt lat="42.93169" lon="0.72959">
        <ele>1455.4</ele>
        <time>2020-02-23T11:59:44Z</time>
      </trkpt>
      <trkpt lat="42.93169" lon="0.72959">
        <ele>1455.4</ele>
        <time>2020-02-23T11:59:45Z</time>
      </trkpt>
      <trkpt lat="42.93169" lon="0.72959">
        <ele>1455.4</ele>
        <time>2020-02-23T11:59:46Z</time>
      </trkpt>
      <trkpt lat="42.93172" lon="0.72962">
        <ele>1456.2</ele>
        <time>2020-02-23T11:59:47Z</time>
      </trkpt>
      <trkpt lat="42.93172" lon="0.72962">
        <ele>1456.2</ele>
        <time>2020-02-23T11:59:48Z</time>
      </trkpt>
      <trkpt lat="42.93172" lon="0.72962">
        <ele>1456.2</ele>
        <time>2020-02-23T11:59:49Z</time>
      </trkpt>
      <trkpt lat="42.93174" lon="0.72964">
        <ele>1456.7</ele>
        <time>2020-02-23T11:59:50Z</time>
      </trkpt>
      <trkpt lat="42.93174" lon="0.72964">
        <ele>1456.7</ele>
        <time>2020-02-23T11:59:51Z</time>
      </trkpt>
      <trkpt lat="42.93174" lon="0.72964">
        <ele>1456.7</ele>
        <time>2020-02-23T11:59:52Z</time>
      </trkpt>
      <trkpt lat="42.93175" lon="0.72965">
        <ele>1457.1</ele>
        <time>2020-02-23T11:59:53Z</time>
      </trkpt>
      <trkpt lat="42.93175" lon="0.72965">
        <ele>1457.1</ele>
        <time>2020-02-23T11:59:54Z</time>
      </trkpt>
      <trkpt lat="42.93178" lon="0.72966">
        <ele>1457.5</ele>
        <time>2020-02-23T11:59:55Z</time>
      </trkpt>
      <trkpt lat="42.93178" lon="0.72966">
        <ele>1457.5</ele>
        <time>2020-02-23T11:59:56Z</time>
      </trkpt>
      <trkpt lat="42.93178" lon="0.72966">
        <ele>1457.5</ele>
        <time>2020-02-23T11:59:57Z</time>
      </trkpt>
      <trkpt lat="42.9318" lon="0.72967">
        <ele>1457.9</ele>
        <time>2020-02-23T11:59:58Z</time>
      </trkpt>
      <trkpt lat="42.9318" lon="0.72967">
        <ele>1457.9</ele>
        <time>2020-02-23T11:59:59Z</time>
      </trkpt>
      <trkpt lat="42.9318" lon="0.72967">
        <ele>1457.9</ele>
        <time>2020-02-23T12:00:00Z</time>
      </trkpt>
      <trkpt lat="42.9318" lon="0.72967">
        <ele>1457.9</ele>
        <time>2020-02-23T12:00:01Z</time>
      </trkpt>
      <trkpt lat="42.9318" lon="0.72967">
        <ele>1457.9</ele>
        <time>2020-02-23T12:00:02Z</time>
      </trkpt>
      <trkpt lat="42.93182" lon="0.72967">
        <ele>1458.2</ele>
        <time>2020-02-23T12:00:03Z</time>
      </trkpt>
      <trkpt lat="42.93182" lon="0.72967">
        <ele>1458.2</ele>
        <time>2020-02-23T12:00:04Z</time>
      </trkpt>
      <trkpt lat="42.93184" lon="0.72968">
        <ele>1458.2</ele>
        <time>2020-02-23T12:00:05Z</time>
      </trkpt>
      <trkpt lat="42.93184" lon="0.72968">
        <ele>1458.2</ele>
        <time>2020-02-23T12:00:06Z</time>
      </trkpt>
      <trkpt lat="42.93184" lon="0.72968">
        <ele>1458.2</ele>
        <time>2020-02-23T12:00:07Z</time>
      </trkpt>
      <trkpt lat="42.93186" lon="0.72969">
        <ele>1458.3</ele>
        <time>2020-02-23T12:00:08Z</time>
      </trkpt>
      <trkpt lat="42.93186" lon="0.72969">
        <ele>1458.3</ele>
        <time>2020-02-23T12:00:09Z</time>
      </trkpt>
      <trkpt lat="42.93187" lon="0.72971">
        <ele>1458.5</ele>
        <time>2020-02-23T12:00:10Z</time>
      </trkpt>
      <trkpt lat="42.93187" lon="0.72971">
        <ele>1458.5</ele>
        <time>2020-02-23T12:00:11Z</time>
      </trkpt>
      <trkpt lat="42.93187" lon="0.72971">
        <ele>1458.5</ele>
        <time>2020-02-23T12:00:12Z</time>
      </trkpt>
      <trkpt lat="42.93187" lon="0.72971">
        <ele>1458.5</ele>
        <time>2020-02-23T12:00:13Z</time>
      </trkpt>
      <trkpt lat="42.93187" lon="0.72971">
        <ele>1458.5</ele>
        <time>2020-02-23T12:00:14Z</time>
      </trkpt>
      <trkpt lat="42.9319" lon="0.72974">
        <ele>1458.8</ele>
        <time>2020-02-23T12:00:15Z</time>
      </trkpt>
      <trkpt lat="42.9319" lon="0.72974">
        <ele>1458.8</ele>
        <time>2020-02-23T12:00:16Z</time>
      </trkpt>
      <trkpt lat="42.9319" lon="0.72974">
        <ele>1458.8</ele>
        <time>2020-02-23T12:00:17Z</time>
      </trkpt>
      <trkpt lat="42.9319" lon="0.72974">
        <ele>1458.8</ele>
        <time>2020-02-23T12:00:18Z</time>
      </trkpt>
      <trkpt lat="42.93192" lon="0.72975">
        <ele>1458.8</ele>
        <time>2020-02-23T12:00:19Z</time>
      </trkpt>
      <trkpt lat="42.93192" lon="0.72975">
        <ele>1458.8</ele>
        <time>2020-02-23T12:00:20Z</time>
      </trkpt>
      <trkpt lat="42.93194" lon="0.72976">
        <ele>1458.7</ele>
        <time>2020-02-23T12:00:21Z</time>
      </trkpt>
      <trkpt lat="42.93194" lon="0.72976">
        <ele>1458.7</ele>
        <time>2020-02-23T12:00:22Z</time>
      </trkpt>
      <trkpt lat="42.93195" lon="0.72976">
        <ele>1458.7</ele>
        <time>2020-02-23T12:00:23Z</time>
      </trkpt>
      <trkpt lat="42.93196" lon="0.72976">
        <ele>1458.7</ele>
        <time>2020-02-23T12:00:24Z</time>
      </trkpt>
      <trkpt lat="42.93196" lon="0.72976">
        <ele>1458.7</ele>
        <time>2020-02-23T12:00:25Z</time>
      </trkpt>
      <trkpt lat="42.93197" lon="0.72976">
        <ele>1458.6</ele>
        <time>2020-02-23T12:00:26Z</time>
      </trkpt>
      <trkpt lat="42.93198" lon="0.72976">
        <ele>1458.6</ele>
        <time>2020-02-23T12:00:27Z</time>
      </trkpt>
      <trkpt lat="42.93198" lon="0.72977">
        <ele>1458.6</ele>
        <time>2020-02-23T12:00:28Z</time>
      </trkpt>
      <trkpt lat="42.93199" lon="0.72977">
        <ele>1458.6</ele>
        <time>2020-02-23T12:00:29Z</time>
      </trkpt>
      <trkpt lat="42.93199" lon="0.72977">
        <ele>1458.6</ele>
        <time>2020-02-23T12:00:30Z</time>
      </trkpt>
      <trkpt lat="42.932" lon="0.72977">
        <ele>1458.6</ele>
        <time>2020-02-23T12:00:31Z</time>
      </trkpt>
      <trkpt lat="42.932" lon="0.72978">
        <ele>1458.6</ele>
        <time>2020-02-23T12:00:32Z</time>
      </trkpt>
      <trkpt lat="42.93201" lon="0.72978">
        <ele>1458.6</ele>
        <time>2020-02-23T12:00:33Z</time>
      </trkpt>
      <trkpt lat="42.93201" lon="0.72978">
        <ele>1458.5</ele>
        <time>2020-02-23T12:00:34Z</time>
      </trkpt>
      <trkpt lat="42.93202" lon="0.72979">
        <ele>1458.5</ele>
        <time>2020-02-23T12:00:35Z</time>
      </trkpt>
      <trkpt lat="42.93202" lon="0.72979">
        <ele>1458.5</ele>
        <time>2020-02-23T12:00:36Z</time>
      </trkpt>
      <trkpt lat="42.93203" lon="0.72979">
        <ele>1458.5</ele>
        <time>2020-02-23T12:00:37Z</time>
      </trkpt>
      <trkpt lat="42.93203" lon="0.72979">
        <ele>1458.5</ele>
        <time>2020-02-23T12:00:38Z</time>
      </trkpt>
      <trkpt lat="42.93206" lon="0.72979">
        <ele>1458.5</ele>
        <time>2020-02-23T12:00:39Z</time>
      </trkpt>
      <trkpt lat="42.93206" lon="0.72979">
        <ele>1458.5</ele>
        <time>2020-02-23T12:00:40Z</time>
      </trkpt>
      <trkpt lat="42.93206" lon="0.72979">
        <ele>1458.5</ele>
        <time>2020-02-23T12:00:41Z</time>
      </trkpt>
      <trkpt lat="42.93206" lon="0.72979">
        <ele>1458.5</ele>
        <time>2020-02-23T12:00:42Z</time>
      </trkpt>
      <trkpt lat="42.93208" lon="0.72979">
        <ele>1458.5</ele>
        <time>2020-02-23T12:00:43Z</time>
      </trkpt>
      <trkpt lat="42.93208" lon="0.72979">
        <ele>1458.5</ele>
        <time>2020-02-23T12:00:44Z</time>
      </trkpt>
      <trkpt lat="42.93208" lon="0.72979">
        <ele>1458.5</ele>
        <time>2020-02-23T12:00:45Z</time>
      </trkpt>
      <trkpt lat="42.9321" lon="0.72979">
        <ele>1458.6</ele>
        <time>2020-02-23T12:00:46Z</time>
      </trkpt>
      <trkpt lat="42.9321" lon="0.72979">
        <ele>1458.6</ele>
        <time>2020-02-23T12:00:47Z</time>
      </trkpt>
      <trkpt lat="42.9321" lon="0.72979">
        <ele>1458.6</ele>
        <time>2020-02-23T12:00:48Z</time>
      </trkpt>
      <trkpt lat="42.93212" lon="0.72977">
        <ele>1458.7</ele>
        <time>2020-02-23T12:00:49Z</time>
      </trkpt>
      <trkpt lat="42.93212" lon="0.72977">
        <ele>1458.7</ele>
        <time>2020-02-23T12:00:50Z</time>
      </trkpt>
      <trkpt lat="42.93212" lon="0.72977">
        <ele>1458.7</ele>
        <time>2020-02-23T12:00:51Z</time>
      </trkpt>
      <trkpt lat="42.93214" lon="0.72977">
        <ele>1458.8</ele>
        <time>2020-02-23T12:00:52Z</time>
      </trkpt>
      <trkpt lat="42.93214" lon="0.72977">
        <ele>1458.8</ele>
        <time>2020-02-23T12:00:53Z</time>
      </trkpt>
      <trkpt lat="42.93216" lon="0.72976">
        <ele>1458.9</ele>
        <time>2020-02-23T12:00:54Z</time>
      </trkpt>
      <trkpt lat="42.93217" lon="0.72975">
        <ele>1458.8</ele>
        <time>2020-02-23T12:00:55Z</time>
      </trkpt>
      <trkpt lat="42.93218" lon="0.72974">
        <ele>1458.8</ele>
        <time>2020-02-23T12:00:56Z</time>
      </trkpt>
      <trkpt lat="42.9322" lon="0.72973">
        <ele>1458.7</ele>
        <time>2020-02-23T12:00:57Z</time>
      </trkpt>
      <trkpt lat="42.93221" lon="0.72972">
        <ele>1458.7</ele>
        <time>2020-02-23T12:00:58Z</time>
      </trkpt>
      <trkpt lat="42.93222" lon="0.72971">
        <ele>1458.6</ele>
        <time>2020-02-23T12:00:59Z</time>
      </trkpt>
      <trkpt lat="42.93224" lon="0.72969">
        <ele>1458.6</ele>
        <time>2020-02-23T12:01:00Z</time>
      </trkpt>
      <trkpt lat="42.93225" lon="0.72967">
        <ele>1458.5</ele>
        <time>2020-02-23T12:01:01Z</time>
      </trkpt>
      <trkpt lat="42.93226" lon="0.72965">
        <ele>1458.4</ele>
        <time>2020-02-23T12:01:02Z</time>
      </trkpt>
      <trkpt lat="42.93227" lon="0.72963">
        <ele>1458.3</ele>
        <time>2020-02-23T12:01:03Z</time>
      </trkpt>
      <trkpt lat="42.93228" lon="0.7296">
        <ele>1458.2</ele>
        <time>2020-02-23T12:01:04Z</time>
      </trkpt>
      <trkpt lat="42.93228" lon="0.7296">
        <ele>1458.2</ele>
        <time>2020-02-23T12:01:05Z</time>
      </trkpt>
      <trkpt lat="42.93228" lon="0.72957">
        <ele>1458.1</ele>
        <time>2020-02-23T12:01:06Z</time>
      </trkpt>
      <trkpt lat="42.93228" lon="0.72957">
        <ele>1458.1</ele>
        <time>2020-02-23T12:01:07Z</time>
      </trkpt>
      <trkpt lat="42.93229" lon="0.72954">
        <ele>1458.1</ele>
        <time>2020-02-23T12:01:08Z</time>
      </trkpt>
      <trkpt lat="42.93229" lon="0.72954">
        <ele>1458.1</ele>
        <time>2020-02-23T12:01:09Z</time>
      </trkpt>
      <trkpt lat="42.9323" lon="0.72951">
        <ele>1458</ele>
        <time>2020-02-23T12:01:10Z</time>
      </trkpt>
      <trkpt lat="42.9323" lon="0.72951">
        <ele>1458</ele>
        <time>2020-02-23T12:01:11Z</time>
      </trkpt>
      <trkpt lat="42.93232" lon="0.72949">
        <ele>1457.9</ele>
        <time>2020-02-23T12:01:12Z</time>
      </trkpt>
      <trkpt lat="42.93232" lon="0.72949">
        <ele>1457.9</ele>
        <time>2020-02-23T12:01:13Z</time>
      </trkpt>
      <trkpt lat="42.93233" lon="0.72946">
        <ele>1457.9</ele>
        <time>2020-02-23T12:01:14Z</time>
      </trkpt>
      <trkpt lat="42.93233" lon="0.72946">
        <ele>1457.9</ele>
        <time>2020-02-23T12:01:15Z</time>
      </trkpt>
      <trkpt lat="42.93235" lon="0.72943">
        <ele>1458.1</ele>
        <time>2020-02-23T12:01:16Z</time>
      </trkpt>
      <trkpt lat="42.93235" lon="0.72943">
        <ele>1458.1</ele>
        <time>2020-02-23T12:01:17Z</time>
      </trkpt>
      <trkpt lat="42.93236" lon="0.72941">
        <ele>1458.2</ele>
        <time>2020-02-23T12:01:18Z</time>
      </trkpt>
      <trkpt lat="42.93236" lon="0.72941">
        <ele>1458.2</ele>
        <time>2020-02-23T12:01:19Z</time>
      </trkpt>
      <trkpt lat="42.93238" lon="0.72939">
        <ele>1458.3</ele>
        <time>2020-02-23T12:01:20Z</time>
      </trkpt>
      <trkpt lat="42.93238" lon="0.72939">
        <ele>1458.3</ele>
        <time>2020-02-23T12:01:21Z</time>
      </trkpt>
      <trkpt lat="42.9324" lon="0.72938">
        <ele>1458.2</ele>
        <time>2020-02-23T12:01:22Z</time>
      </trkpt>
      <trkpt lat="42.9324" lon="0.72938">
        <ele>1458.2</ele>
        <time>2020-02-23T12:01:23Z</time>
      </trkpt>
      <trkpt lat="42.93242" lon="0.72936">
        <ele>1458.1</ele>
        <time>2020-02-23T12:01:24Z</time>
      </trkpt>
      <trkpt lat="42.93242" lon="0.72936">
        <ele>1458.1</ele>
        <time>2020-02-23T12:01:25Z</time>
      </trkpt>
      <trkpt lat="42.93244" lon="0.72934">
        <ele>1457.9</ele>
        <time>2020-02-23T12:01:26Z</time>
      </trkpt>
      <trkpt lat="42.93244" lon="0.72934">
        <ele>1457.9</ele>
        <time>2020-02-23T12:01:27Z</time>
      </trkpt>
      <trkpt lat="42.93246" lon="0.72932">
        <ele>1457.8</ele>
        <time>2020-02-23T12:01:28Z</time>
      </trkpt>
      <trkpt lat="42.93246" lon="0.72932">
        <ele>1457.8</ele>
        <time>2020-02-23T12:01:29Z</time>
      </trkpt>
      <trkpt lat="42.93248" lon="0.7293">
        <ele>1457.6</ele>
        <time>2020-02-23T12:01:30Z</time>
      </trkpt>
      <trkpt lat="42.93248" lon="0.7293">
        <ele>1457.6</ele>
        <time>2020-02-23T12:01:31Z</time>
      </trkpt>
      <trkpt lat="42.93248" lon="0.7293">
        <ele>1457.6</ele>
        <time>2020-02-23T12:01:32Z</time>
      </trkpt>
      <trkpt lat="42.9325" lon="0.72928">
        <ele>1457.5</ele>
        <time>2020-02-23T12:01:33Z</time>
      </trkpt>
      <trkpt lat="42.9325" lon="0.72928">
        <ele>1457.5</ele>
        <time>2020-02-23T12:01:34Z</time>
      </trkpt>
      <trkpt lat="42.9325" lon="0.72928">
        <ele>1457.5</ele>
        <time>2020-02-23T12:01:35Z</time>
      </trkpt>
      <trkpt lat="42.93253" lon="0.72927">
        <ele>1457.4</ele>
        <time>2020-02-23T12:01:36Z</time>
      </trkpt>
      <trkpt lat="42.93253" lon="0.72927">
        <ele>1457.4</ele>
        <time>2020-02-23T12:01:37Z</time>
      </trkpt>
      <trkpt lat="42.93255" lon="0.72926">
        <ele>1457.3</ele>
        <time>2020-02-23T12:01:38Z</time>
      </trkpt>
      <trkpt lat="42.93255" lon="0.72926">
        <ele>1457.3</ele>
        <time>2020-02-23T12:01:39Z</time>
      </trkpt>
      <trkpt lat="42.93255" lon="0.72926">
        <ele>1457.3</ele>
        <time>2020-02-23T12:01:40Z</time>
      </trkpt>
      <trkpt lat="42.93257" lon="0.72925">
        <ele>1457.4</ele>
        <time>2020-02-23T12:01:41Z</time>
      </trkpt>
      <trkpt lat="42.93257" lon="0.72925">
        <ele>1457.4</ele>
        <time>2020-02-23T12:01:42Z</time>
      </trkpt>
      <trkpt lat="42.93257" lon="0.72925">
        <ele>1457.4</ele>
        <time>2020-02-23T12:01:43Z</time>
      </trkpt>
      <trkpt lat="42.93258" lon="0.72926">
        <ele>1457.5</ele>
        <time>2020-02-23T12:01:44Z</time>
      </trkpt>
      <trkpt lat="42.93258" lon="0.72926">
        <ele>1457.5</ele>
        <time>2020-02-23T12:01:45Z</time>
      </trkpt>
      <trkpt lat="42.93258" lon="0.72926">
        <ele>1457.5</ele>
        <time>2020-02-23T12:01:46Z</time>
      </trkpt>
      <trkpt lat="42.93261" lon="0.72927">
        <ele>1457.6</ele>
        <time>2020-02-23T12:01:47Z</time>
      </trkpt>
      <trkpt lat="42.93261" lon="0.72927">
        <ele>1457.6</ele>
        <time>2020-02-23T12:01:48Z</time>
      </trkpt>
      <trkpt lat="42.93264" lon="0.72928">
        <ele>1457.7</ele>
        <time>2020-02-23T12:01:49Z</time>
      </trkpt>
      <trkpt lat="42.93264" lon="0.72928">
        <ele>1457.7</ele>
        <time>2020-02-23T12:01:50Z</time>
      </trkpt>
      <trkpt lat="42.93264" lon="0.72928">
        <ele>1457.7</ele>
        <time>2020-02-23T12:01:51Z</time>
      </trkpt>
      <trkpt lat="42.93266" lon="0.72928">
        <ele>1457.5</ele>
        <time>2020-02-23T12:01:52Z</time>
      </trkpt>
      <trkpt lat="42.93266" lon="0.72928">
        <ele>1457.5</ele>
        <time>2020-02-23T12:01:53Z</time>
      </trkpt>
      <trkpt lat="42.93268" lon="0.72929">
        <ele>1457.3</ele>
        <time>2020-02-23T12:01:54Z</time>
      </trkpt>
      <trkpt lat="42.93268" lon="0.72929">
        <ele>1457.3</ele>
        <time>2020-02-23T12:01:55Z</time>
      </trkpt>
      <trkpt lat="42.9327" lon="0.7293">
        <ele>1457.1</ele>
        <time>2020-02-23T12:01:56Z</time>
      </trkpt>
      <trkpt lat="42.9327" lon="0.7293">
        <ele>1457.1</ele>
        <time>2020-02-23T12:01:57Z</time>
      </trkpt>
      <trkpt lat="42.9327" lon="0.7293">
        <ele>1457.1</ele>
        <time>2020-02-23T12:01:58Z</time>
      </trkpt>
      <trkpt lat="42.93273" lon="0.72931">
        <ele>1457</ele>
        <time>2020-02-23T12:01:59Z</time>
      </trkpt>
      <trkpt lat="42.93273" lon="0.72931">
        <ele>1457</ele>
        <time>2020-02-23T12:02:00Z</time>
      </trkpt>
      <trkpt lat="42.93275" lon="0.72932">
        <ele>1457.1</ele>
        <time>2020-02-23T12:02:01Z</time>
      </trkpt>
      <trkpt lat="42.93275" lon="0.72932">
        <ele>1457.1</ele>
        <time>2020-02-23T12:02:02Z</time>
      </trkpt>
      <trkpt lat="42.93277" lon="0.72932">
        <ele>1457.2</ele>
        <time>2020-02-23T12:02:03Z</time>
      </trkpt>
      <trkpt lat="42.93277" lon="0.72932">
        <ele>1457.2</ele>
        <time>2020-02-23T12:02:04Z</time>
      </trkpt>
      <trkpt lat="42.93277" lon="0.72932">
        <ele>1457.2</ele>
        <time>2020-02-23T12:02:05Z</time>
      </trkpt>
      <trkpt lat="42.93279" lon="0.7293">
        <ele>1457.3</ele>
        <time>2020-02-23T12:02:06Z</time>
      </trkpt>
      <trkpt lat="42.93279" lon="0.7293">
        <ele>1457.3</ele>
        <time>2020-02-23T12:02:07Z</time>
      </trkpt>
      <trkpt lat="42.93279" lon="0.7293">
        <ele>1457.3</ele>
        <time>2020-02-23T12:02:08Z</time>
      </trkpt>
      <trkpt lat="42.93281" lon="0.72928">
        <ele>1457.2</ele>
        <time>2020-02-23T12:02:09Z</time>
      </trkpt>
      <trkpt lat="42.93281" lon="0.72928">
        <ele>1457.2</ele>
        <time>2020-02-23T12:02:10Z</time>
      </trkpt>
      <trkpt lat="42.93282" lon="0.72926">
        <ele>1457</ele>
        <time>2020-02-23T12:02:11Z</time>
      </trkpt>
      <trkpt lat="42.93282" lon="0.72926">
        <ele>1457</ele>
        <time>2020-02-23T12:02:12Z</time>
      </trkpt>
      <trkpt lat="42.93282" lon="0.72926">
        <ele>1457</ele>
        <time>2020-02-23T12:02:13Z</time>
      </trkpt>
      <trkpt lat="42.93284" lon="0.72924">
        <ele>1456.8</ele>
        <time>2020-02-23T12:02:14Z</time>
      </trkpt>
      <trkpt lat="42.93284" lon="0.72924">
        <ele>1456.8</ele>
        <time>2020-02-23T12:02:15Z</time>
      </trkpt>
      <trkpt lat="42.93284" lon="0.72924">
        <ele>1456.8</ele>
        <time>2020-02-23T12:02:16Z</time>
      </trkpt>
      <trkpt lat="42.93286" lon="0.72924">
        <ele>1456.6</ele>
        <time>2020-02-23T12:02:17Z</time>
      </trkpt>
      <trkpt lat="42.93286" lon="0.72924">
        <ele>1456.6</ele>
        <time>2020-02-23T12:02:18Z</time>
      </trkpt>
      <trkpt lat="42.93286" lon="0.72924">
        <ele>1456.6</ele>
        <time>2020-02-23T12:02:19Z</time>
      </trkpt>
      <trkpt lat="42.93288" lon="0.72924">
        <ele>1456.5</ele>
        <time>2020-02-23T12:02:20Z</time>
      </trkpt>
      <trkpt lat="42.93288" lon="0.72924">
        <ele>1456.5</ele>
        <time>2020-02-23T12:02:21Z</time>
      </trkpt>
      <trkpt lat="42.93288" lon="0.72924">
        <ele>1456.5</ele>
        <time>2020-02-23T12:02:22Z</time>
      </trkpt>
      <trkpt lat="42.9329" lon="0.72923">
        <ele>1456.6</ele>
        <time>2020-02-23T12:02:23Z</time>
      </trkpt>
      <trkpt lat="42.9329" lon="0.72923">
        <ele>1456.6</ele>
        <time>2020-02-23T12:02:24Z</time>
      </trkpt>
      <trkpt lat="42.93292" lon="0.72924">
        <ele>1456.6</ele>
        <time>2020-02-23T12:02:25Z</time>
      </trkpt>
      <trkpt lat="42.93292" lon="0.72924">
        <ele>1456.6</ele>
        <time>2020-02-23T12:02:26Z</time>
      </trkpt>
      <trkpt lat="42.93292" lon="0.72924">
        <ele>1456.6</ele>
        <time>2020-02-23T12:02:27Z</time>
      </trkpt>
      <trkpt lat="42.93292" lon="0.72924">
        <ele>1456.6</ele>
        <time>2020-02-23T12:02:28Z</time>
      </trkpt>
      <trkpt lat="42.93292" lon="0.72924">
        <ele>1456.6</ele>
        <time>2020-02-23T12:02:29Z</time>
      </trkpt>
      <trkpt lat="42.93294" lon="0.72923">
        <ele>1456.6</ele>
        <time>2020-02-23T12:02:30Z</time>
      </trkpt>
      <trkpt lat="42.93294" lon="0.72923">
        <ele>1456.6</ele>
        <time>2020-02-23T12:02:31Z</time>
      </trkpt>
      <trkpt lat="42.93294" lon="0.72923">
        <ele>1456.6</ele>
        <time>2020-02-23T12:02:32Z</time>
      </trkpt>
      <trkpt lat="42.93296" lon="0.72923">
        <ele>1456.6</ele>
        <time>2020-02-23T12:02:33Z</time>
      </trkpt>
      <trkpt lat="42.93296" lon="0.72923">
        <ele>1456.6</ele>
        <time>2020-02-23T12:02:34Z</time>
      </trkpt>
      <trkpt lat="42.93296" lon="0.72923">
        <ele>1456.6</ele>
        <time>2020-02-23T12:02:35Z</time>
      </trkpt>
      <trkpt lat="42.93296" lon="0.72923">
        <ele>1456.6</ele>
        <time>2020-02-23T12:02:36Z</time>
      </trkpt>
      <trkpt lat="42.93296" lon="0.72923">
        <ele>1456.6</ele>
        <time>2020-02-23T12:02:37Z</time>
      </trkpt>
      <trkpt lat="42.93296" lon="0.72923">
        <ele>1456.6</ele>
        <time>2020-02-23T12:02:38Z</time>
      </trkpt>
      <trkpt lat="42.93298" lon="0.72921">
        <ele>1456.6</ele>
        <time>2020-02-23T12:02:39Z</time>
      </trkpt>
      <trkpt lat="42.93298" lon="0.72921">
        <ele>1456.6</ele>
        <time>2020-02-23T12:02:40Z</time>
      </trkpt>
      <trkpt lat="42.93298" lon="0.72921">
        <ele>1456.6</ele>
        <time>2020-02-23T12:02:41Z</time>
      </trkpt>
      <trkpt lat="42.93298" lon="0.72921">
        <ele>1456.6</ele>
        <time>2020-02-23T12:02:42Z</time>
      </trkpt>
      <trkpt lat="42.933" lon="0.72921">
        <ele>1456.6</ele>
        <time>2020-02-23T12:02:43Z</time>
      </trkpt>
      <trkpt lat="42.933" lon="0.72921">
        <ele>1456.6</ele>
        <time>2020-02-23T12:02:44Z</time>
      </trkpt>
      <trkpt lat="42.933" lon="0.72921">
        <ele>1456.6</ele>
        <time>2020-02-23T12:02:45Z</time>
      </trkpt>
      <trkpt lat="42.933" lon="0.72921">
        <ele>1456.6</ele>
        <time>2020-02-23T12:02:46Z</time>
      </trkpt>
      <trkpt lat="42.93302" lon="0.7292">
        <ele>1456.6</ele>
        <time>2020-02-23T12:02:47Z</time>
      </trkpt>
      <trkpt lat="42.93302" lon="0.7292">
        <ele>1456.6</ele>
        <time>2020-02-23T12:02:48Z</time>
      </trkpt>
      <trkpt lat="42.93302" lon="0.7292">
        <ele>1456.6</ele>
        <time>2020-02-23T12:02:49Z</time>
      </trkpt>
      <trkpt lat="42.93302" lon="0.7292">
        <ele>1456.6</ele>
        <time>2020-02-23T12:02:50Z</time>
      </trkpt>
      <trkpt lat="42.93304" lon="0.72921">
        <ele>1456.4</ele>
        <time>2020-02-23T12:02:51Z</time>
      </trkpt>
      <trkpt lat="42.93304" lon="0.72921">
        <ele>1456.4</ele>
        <time>2020-02-23T12:02:52Z</time>
      </trkpt>
      <trkpt lat="42.93304" lon="0.72921">
        <ele>1456.4</ele>
        <time>2020-02-23T12:02:53Z</time>
      </trkpt>
      <trkpt lat="42.93304" lon="0.72921">
        <ele>1456.4</ele>
        <time>2020-02-23T12:02:54Z</time>
      </trkpt>
      <trkpt lat="42.93306" lon="0.72921">
        <ele>1456.1</ele>
        <time>2020-02-23T12:02:55Z</time>
      </trkpt>
      <trkpt lat="42.93306" lon="0.72921">
        <ele>1456.1</ele>
        <time>2020-02-23T12:02:56Z</time>
      </trkpt>
      <trkpt lat="42.93306" lon="0.72921">
        <ele>1456.1</ele>
        <time>2020-02-23T12:02:57Z</time>
      </trkpt>
      <trkpt lat="42.93308" lon="0.72921">
        <ele>1455.8</ele>
        <time>2020-02-23T12:02:58Z</time>
      </trkpt>
      <trkpt lat="42.93308" lon="0.72921">
        <ele>1455.8</ele>
        <time>2020-02-23T12:02:59Z</time>
      </trkpt>
      <trkpt lat="42.93308" lon="0.72921">
        <ele>1455.8</ele>
        <time>2020-02-23T12:03:00Z</time>
      </trkpt>
      <trkpt lat="42.9331" lon="0.72921">
        <ele>1455.5</ele>
        <time>2020-02-23T12:03:01Z</time>
      </trkpt>
      <trkpt lat="42.9331" lon="0.72921">
        <ele>1455.5</ele>
        <time>2020-02-23T12:03:02Z</time>
      </trkpt>
      <trkpt lat="42.9331" lon="0.72921">
        <ele>1455.5</ele>
        <time>2020-02-23T12:03:03Z</time>
      </trkpt>
      <trkpt lat="42.9331" lon="0.72921">
        <ele>1455.5</ele>
        <time>2020-02-23T12:03:04Z</time>
      </trkpt>
      <trkpt lat="42.93312" lon="0.72921">
        <ele>1455.4</ele>
        <time>2020-02-23T12:03:05Z</time>
      </trkpt>
      <trkpt lat="42.93312" lon="0.72921">
        <ele>1455.4</ele>
        <time>2020-02-23T12:03:06Z</time>
      </trkpt>
      <trkpt lat="42.93312" lon="0.72921">
        <ele>1455.4</ele>
        <time>2020-02-23T12:03:07Z</time>
      </trkpt>
      <trkpt lat="42.93312" lon="0.72921">
        <ele>1455.4</ele>
        <time>2020-02-23T12:03:08Z</time>
      </trkpt>
      <trkpt lat="42.93314" lon="0.72921">
        <ele>1455.4</ele>
        <time>2020-02-23T12:03:09Z</time>
      </trkpt>
      <trkpt lat="42.93314" lon="0.72921">
        <ele>1455.4</ele>
        <time>2020-02-23T12:03:10Z</time>
      </trkpt>
      <trkpt lat="42.93314" lon="0.72921">
        <ele>1455.4</ele>
        <time>2020-02-23T12:03:11Z</time>
      </trkpt>
      <trkpt lat="42.93316" lon="0.72921">
        <ele>1455.3</ele>
        <time>2020-02-23T12:03:12Z</time>
      </trkpt>
      <trkpt lat="42.93316" lon="0.72921">
        <ele>1455.3</ele>
        <time>2020-02-23T12:03:13Z</time>
      </trkpt>
      <trkpt lat="42.93316" lon="0.72921">
        <ele>1455.3</ele>
        <time>2020-02-23T12:03:14Z</time>
      </trkpt>
      <trkpt lat="42.93316" lon="0.72921">
        <ele>1455.3</ele>
        <time>2020-02-23T12:03:15Z</time>
      </trkpt>
      <trkpt lat="42.93316" lon="0.72921">
        <ele>1455.3</ele>
        <time>2020-02-23T12:03:16Z</time>
      </trkpt>
      <trkpt lat="42.93316" lon="0.72921">
        <ele>1455.3</ele>
        <time>2020-02-23T12:03:17Z</time>
      </trkpt>
      <trkpt lat="42.93319" lon="0.72922">
        <ele>1455.3</ele>
        <time>2020-02-23T12:03:18Z</time>
      </trkpt>
      <trkpt lat="42.93319" lon="0.72922">
        <ele>1455.3</ele>
        <time>2020-02-23T12:03:19Z</time>
      </trkpt>
      <trkpt lat="42.93319" lon="0.72922">
        <ele>1455.3</ele>
        <time>2020-02-23T12:03:20Z</time>
      </trkpt>
      <trkpt lat="42.93321" lon="0.72922">
        <ele>1455</ele>
        <time>2020-02-23T12:03:21Z</time>
      </trkpt>
      <trkpt lat="42.93321" lon="0.72922">
        <ele>1455</ele>
        <time>2020-02-23T12:03:22Z</time>
      </trkpt>
      <trkpt lat="42.93321" lon="0.72922">
        <ele>1455</ele>
        <time>2020-02-23T12:03:23Z</time>
      </trkpt>
      <trkpt lat="42.93321" lon="0.72922">
        <ele>1455</ele>
        <time>2020-02-23T12:03:24Z</time>
      </trkpt>
      <trkpt lat="42.93322" lon="0.7292">
        <ele>1454.8</ele>
        <time>2020-02-23T12:03:25Z</time>
      </trkpt>
      <trkpt lat="42.93322" lon="0.7292">
        <ele>1454.8</ele>
        <time>2020-02-23T12:03:26Z</time>
      </trkpt>
      <trkpt lat="42.93322" lon="0.7292">
        <ele>1454.8</ele>
        <time>2020-02-23T12:03:27Z</time>
      </trkpt>
      <trkpt lat="42.93322" lon="0.7292">
        <ele>1454.8</ele>
        <time>2020-02-23T12:03:28Z</time>
      </trkpt>
      <trkpt lat="42.93322" lon="0.7292">
        <ele>1454.8</ele>
        <time>2020-02-23T12:03:29Z</time>
      </trkpt>
      <trkpt lat="42.93324" lon="0.72918">
        <ele>1454.6</ele>
        <time>2020-02-23T12:03:30Z</time>
      </trkpt>
      <trkpt lat="42.93324" lon="0.72918">
        <ele>1454.6</ele>
        <time>2020-02-23T12:03:31Z</time>
      </trkpt>
      <trkpt lat="42.93324" lon="0.72918">
        <ele>1454.6</ele>
        <time>2020-02-23T12:03:32Z</time>
      </trkpt>
      <trkpt lat="42.93326" lon="0.72917">
        <ele>1454.3</ele>
        <time>2020-02-23T12:03:33Z</time>
      </trkpt>
      <trkpt lat="42.93326" lon="0.72917">
        <ele>1454.3</ele>
        <time>2020-02-23T12:03:34Z</time>
      </trkpt>
      <trkpt lat="42.93326" lon="0.72917">
        <ele>1454.3</ele>
        <time>2020-02-23T12:03:35Z</time>
      </trkpt>
      <trkpt lat="42.93328" lon="0.72916">
        <ele>1454.1</ele>
        <time>2020-02-23T12:03:36Z</time>
      </trkpt>
      <trkpt lat="42.93328" lon="0.72916">
        <ele>1454.1</ele>
        <time>2020-02-23T12:03:37Z</time>
      </trkpt>
      <trkpt lat="42.9333" lon="0.72915">
        <ele>1453.9</ele>
        <time>2020-02-23T12:03:38Z</time>
      </trkpt>
      <trkpt lat="42.9333" lon="0.72915">
        <ele>1453.9</ele>
        <time>2020-02-23T12:03:39Z</time>
      </trkpt>
      <trkpt lat="42.9333" lon="0.72915">
        <ele>1453.9</ele>
        <time>2020-02-23T12:03:40Z</time>
      </trkpt>
      <trkpt lat="42.93332" lon="0.72914">
        <ele>1453.7</ele>
        <time>2020-02-23T12:03:41Z</time>
      </trkpt>
      <trkpt lat="42.93332" lon="0.72914">
        <ele>1453.7</ele>
        <time>2020-02-23T12:03:42Z</time>
      </trkpt>
      <trkpt lat="42.93332" lon="0.72914">
        <ele>1453.7</ele>
        <time>2020-02-23T12:03:43Z</time>
      </trkpt>
      <trkpt lat="42.93332" lon="0.72914">
        <ele>1453.7</ele>
        <time>2020-02-23T12:03:44Z</time>
      </trkpt>
      <trkpt lat="42.93334" lon="0.72913">
        <ele>1453.5</ele>
        <time>2020-02-23T12:03:45Z</time>
      </trkpt>
      <trkpt lat="42.93334" lon="0.72913">
        <ele>1453.5</ele>
        <time>2020-02-23T12:03:46Z</time>
      </trkpt>
      <trkpt lat="42.93336" lon="0.72912">
        <ele>1453.3</ele>
        <time>2020-02-23T12:03:47Z</time>
      </trkpt>
      <trkpt lat="42.93336" lon="0.72912">
        <ele>1453.3</ele>
        <time>2020-02-23T12:03:48Z</time>
      </trkpt>
      <trkpt lat="42.93337" lon="0.72912">
        <ele>1453</ele>
        <time>2020-02-23T12:03:49Z</time>
      </trkpt>
      <trkpt lat="42.93337" lon="0.72912">
        <ele>1453</ele>
        <time>2020-02-23T12:03:50Z</time>
      </trkpt>
      <trkpt lat="42.93337" lon="0.72912">
        <ele>1453</ele>
        <time>2020-02-23T12:03:51Z</time>
      </trkpt>
      <trkpt lat="42.93339" lon="0.72911">
        <ele>1452.6</ele>
        <time>2020-02-23T12:03:52Z</time>
      </trkpt>
      <trkpt lat="42.93339" lon="0.72911">
        <ele>1452.6</ele>
        <time>2020-02-23T12:03:53Z</time>
      </trkpt>
      <trkpt lat="42.93339" lon="0.72911">
        <ele>1452.6</ele>
        <time>2020-02-23T12:03:54Z</time>
      </trkpt>
      <trkpt lat="42.93341" lon="0.72911">
        <ele>1452.3</ele>
        <time>2020-02-23T12:03:55Z</time>
      </trkpt>
      <trkpt lat="42.93341" lon="0.72911">
        <ele>1452.3</ele>
        <time>2020-02-23T12:03:56Z</time>
      </trkpt>
      <trkpt lat="42.93341" lon="0.72911">
        <ele>1452.3</ele>
        <time>2020-02-23T12:03:57Z</time>
      </trkpt>
      <trkpt lat="42.93343" lon="0.72911">
        <ele>1451.9</ele>
        <time>2020-02-23T12:03:58Z</time>
      </trkpt>
      <trkpt lat="42.93343" lon="0.72911">
        <ele>1451.9</ele>
        <time>2020-02-23T12:03:59Z</time>
      </trkpt>
      <trkpt lat="42.93345" lon="0.7291">
        <ele>1451.6</ele>
        <time>2020-02-23T12:04:00Z</time>
      </trkpt>
      <trkpt lat="42.93345" lon="0.7291">
        <ele>1451.6</ele>
        <time>2020-02-23T12:04:01Z</time>
      </trkpt>
      <trkpt lat="42.93345" lon="0.7291">
        <ele>1451.6</ele>
        <time>2020-02-23T12:04:02Z</time>
      </trkpt>
      <trkpt lat="42.93347" lon="0.7291">
        <ele>1451.4</ele>
        <time>2020-02-23T12:04:03Z</time>
      </trkpt>
      <trkpt lat="42.93347" lon="0.7291">
        <ele>1451.4</ele>
        <time>2020-02-23T12:04:04Z</time>
      </trkpt>
      <trkpt lat="42.93347" lon="0.7291">
        <ele>1451.4</ele>
        <time>2020-02-23T12:04:05Z</time>
      </trkpt>
      <trkpt lat="42.93349" lon="0.72908">
        <ele>1451.2</ele>
        <time>2020-02-23T12:04:06Z</time>
      </trkpt>
      <trkpt lat="42.93349" lon="0.72908">
        <ele>1451.2</ele>
        <time>2020-02-23T12:04:07Z</time>
      </trkpt>
      <trkpt lat="42.93349" lon="0.72908">
        <ele>1451.2</ele>
        <time>2020-02-23T12:04:08Z</time>
      </trkpt>
      <trkpt lat="42.93351" lon="0.72908">
        <ele>1451</ele>
        <time>2020-02-23T12:04:09Z</time>
      </trkpt>
      <trkpt lat="42.93351" lon="0.72908">
        <ele>1451</ele>
        <time>2020-02-23T12:04:10Z</time>
      </trkpt>
      <trkpt lat="42.93351" lon="0.72908">
        <ele>1451</ele>
        <time>2020-02-23T12:04:11Z</time>
      </trkpt>
      <trkpt lat="42.93351" lon="0.72908">
        <ele>1451</ele>
        <time>2020-02-23T12:04:12Z</time>
      </trkpt>
      <trkpt lat="42.93353" lon="0.72907">
        <ele>1450.8</ele>
        <time>2020-02-23T12:04:13Z</time>
      </trkpt>
      <trkpt lat="42.93353" lon="0.72907">
        <ele>1450.8</ele>
        <time>2020-02-23T12:04:14Z</time>
      </trkpt>
      <trkpt lat="42.93353" lon="0.72907">
        <ele>1450.8</ele>
        <time>2020-02-23T12:04:15Z</time>
      </trkpt>
      <trkpt lat="42.93353" lon="0.72907">
        <ele>1450.8</ele>
        <time>2020-02-23T12:04:16Z</time>
      </trkpt>
      <trkpt lat="42.93353" lon="0.72907">
        <ele>1450.8</ele>
        <time>2020-02-23T12:04:17Z</time>
      </trkpt>
      <trkpt lat="42.93353" lon="0.72907">
        <ele>1450.8</ele>
        <time>2020-02-23T12:04:18Z</time>
      </trkpt>
      <trkpt lat="42.93353" lon="0.72907">
        <ele>1450.8</ele>
        <time>2020-02-23T12:04:19Z</time>
      </trkpt>
      <trkpt lat="42.93353" lon="0.72907">
        <ele>1450.8</ele>
        <time>2020-02-23T12:04:20Z</time>
      </trkpt>
      <trkpt lat="42.93354" lon="0.72904">
        <ele>1450.6</ele>
        <time>2020-02-23T12:04:21Z</time>
      </trkpt>
      <trkpt lat="42.93354" lon="0.72904">
        <ele>1450.6</ele>
        <time>2020-02-23T12:04:22Z</time>
      </trkpt>
      <trkpt lat="42.93354" lon="0.72904">
        <ele>1450.6</ele>
        <time>2020-02-23T12:04:23Z</time>
      </trkpt>
      <trkpt lat="42.93355" lon="0.72901">
        <ele>1450.5</ele>
        <time>2020-02-23T12:04:24Z</time>
      </trkpt>
      <trkpt lat="42.93355" lon="0.72901">
        <ele>1450.5</ele>
        <time>2020-02-23T12:04:25Z</time>
      </trkpt>
      <trkpt lat="42.93357" lon="0.729">
        <ele>1450.3</ele>
        <time>2020-02-23T12:04:26Z</time>
      </trkpt>
      <trkpt lat="42.93357" lon="0.729">
        <ele>1450.3</ele>
        <time>2020-02-23T12:04:27Z</time>
      </trkpt>
      <trkpt lat="42.93357" lon="0.729">
        <ele>1450.3</ele>
        <time>2020-02-23T12:04:28Z</time>
      </trkpt>
      <trkpt lat="42.93359" lon="0.72899">
        <ele>1450.1</ele>
        <time>2020-02-23T12:04:29Z</time>
      </trkpt>
      <trkpt lat="42.93359" lon="0.72899">
        <ele>1450.1</ele>
        <time>2020-02-23T12:04:30Z</time>
      </trkpt>
      <trkpt lat="42.93359" lon="0.72899">
        <ele>1450.1</ele>
        <time>2020-02-23T12:04:31Z</time>
      </trkpt>
      <trkpt lat="42.93361" lon="0.72898">
        <ele>1450</ele>
        <time>2020-02-23T12:04:32Z</time>
      </trkpt>
      <trkpt lat="42.93361" lon="0.72898">
        <ele>1450</ele>
        <time>2020-02-23T12:04:33Z</time>
      </trkpt>
      <trkpt lat="42.93361" lon="0.72898">
        <ele>1450</ele>
        <time>2020-02-23T12:04:34Z</time>
      </trkpt>
      <trkpt lat="42.93363" lon="0.72898">
        <ele>1449.8</ele>
        <time>2020-02-23T12:04:35Z</time>
      </trkpt>
      <trkpt lat="42.93363" lon="0.72898">
        <ele>1449.8</ele>
        <time>2020-02-23T12:04:36Z</time>
      </trkpt>
      <trkpt lat="42.93363" lon="0.72898">
        <ele>1449.8</ele>
        <time>2020-02-23T12:04:37Z</time>
      </trkpt>
      <trkpt lat="42.93366" lon="0.72899">
        <ele>1449.7</ele>
        <time>2020-02-23T12:04:38Z</time>
      </trkpt>
      <trkpt lat="42.93366" lon="0.72899">
        <ele>1449.7</ele>
        <time>2020-02-23T12:04:39Z</time>
      </trkpt>
      <trkpt lat="42.93368" lon="0.72899">
        <ele>1449.6</ele>
        <time>2020-02-23T12:04:40Z</time>
      </trkpt>
      <trkpt lat="42.93368" lon="0.72899">
        <ele>1449.6</ele>
        <time>2020-02-23T12:04:41Z</time>
      </trkpt>
      <trkpt lat="42.9337" lon="0.72899">
        <ele>1449.4</ele>
        <time>2020-02-23T12:04:42Z</time>
      </trkpt>
      <trkpt lat="42.9337" lon="0.72899">
        <ele>1449.4</ele>
        <time>2020-02-23T12:04:43Z</time>
      </trkpt>
      <trkpt lat="42.93372" lon="0.72899">
        <ele>1449.3</ele>
        <time>2020-02-23T12:04:44Z</time>
      </trkpt>
      <trkpt lat="42.93372" lon="0.72899">
        <ele>1449.2</ele>
        <time>2020-02-23T12:04:45Z</time>
      </trkpt>
      <trkpt lat="42.93374" lon="0.72898">
        <ele>1449.1</ele>
        <time>2020-02-23T12:04:46Z</time>
      </trkpt>
      <trkpt lat="42.93374" lon="0.72898">
        <ele>1449.1</ele>
        <time>2020-02-23T12:04:47Z</time>
      </trkpt>
      <trkpt lat="42.93374" lon="0.72898">
        <ele>1449.1</ele>
        <time>2020-02-23T12:04:48Z</time>
      </trkpt>
      <trkpt lat="42.93374" lon="0.72898">
        <ele>1449.1</ele>
        <time>2020-02-23T12:04:49Z</time>
      </trkpt>
      <trkpt lat="42.93376" lon="0.72897">
        <ele>1449</ele>
        <time>2020-02-23T12:04:50Z</time>
      </trkpt>
      <trkpt lat="42.93376" lon="0.72897">
        <ele>1449</ele>
        <time>2020-02-23T12:04:51Z</time>
      </trkpt>
      <trkpt lat="42.93376" lon="0.72897">
        <ele>1449</ele>
        <time>2020-02-23T12:04:52Z</time>
      </trkpt>
      <trkpt lat="42.93378" lon="0.72896">
        <ele>1448.9</ele>
        <time>2020-02-23T12:04:53Z</time>
      </trkpt>
      <trkpt lat="42.93378" lon="0.72896">
        <ele>1448.9</ele>
        <time>2020-02-23T12:04:54Z</time>
      </trkpt>
      <trkpt lat="42.93378" lon="0.72896">
        <ele>1448.9</ele>
        <time>2020-02-23T12:04:55Z</time>
      </trkpt>
      <trkpt lat="42.93381" lon="0.72894">
        <ele>1448.6</ele>
        <time>2020-02-23T12:04:56Z</time>
      </trkpt>
      <trkpt lat="42.93382" lon="0.72893">
        <ele>1448.4</ele>
        <time>2020-02-23T12:04:57Z</time>
      </trkpt>
      <trkpt lat="42.93382" lon="0.72893">
        <ele>1448.4</ele>
        <time>2020-02-23T12:04:58Z</time>
      </trkpt>
      <trkpt lat="42.93382" lon="0.72893">
        <ele>1448.4</ele>
        <time>2020-02-23T12:04:59Z</time>
      </trkpt>
      <trkpt lat="42.93384" lon="0.72893">
        <ele>1448.2</ele>
        <time>2020-02-23T12:05:00Z</time>
      </trkpt>
      <trkpt lat="42.93387" lon="0.72892">
        <ele>1448.1</ele>
        <time>2020-02-23T12:05:01Z</time>
      </trkpt>
      <trkpt lat="42.93387" lon="0.72892">
        <ele>1448.1</ele>
        <time>2020-02-23T12:05:02Z</time>
      </trkpt>
      <trkpt lat="42.93387" lon="0.72892">
        <ele>1448.1</ele>
        <time>2020-02-23T12:05:03Z</time>
      </trkpt>
      <trkpt lat="42.9339" lon="0.72891">
        <ele>1448</ele>
        <time>2020-02-23T12:05:04Z</time>
      </trkpt>
      <trkpt lat="42.9339" lon="0.72891">
        <ele>1448</ele>
        <time>2020-02-23T12:05:05Z</time>
      </trkpt>
      <trkpt lat="42.9339" lon="0.72891">
        <ele>1448</ele>
        <time>2020-02-23T12:05:06Z</time>
      </trkpt>
      <trkpt lat="42.93392" lon="0.7289">
        <ele>1447.9</ele>
        <time>2020-02-23T12:05:07Z</time>
      </trkpt>
      <trkpt lat="42.93392" lon="0.7289">
        <ele>1447.9</ele>
        <time>2020-02-23T12:05:08Z</time>
      </trkpt>
      <trkpt lat="42.93393" lon="0.72889">
        <ele>1447.8</ele>
        <time>2020-02-23T12:05:09Z</time>
      </trkpt>
      <trkpt lat="42.93395" lon="0.72889">
        <ele>1447.7</ele>
        <time>2020-02-23T12:05:10Z</time>
      </trkpt>
      <trkpt lat="42.93395" lon="0.72889">
        <ele>1447.7</ele>
        <time>2020-02-23T12:05:11Z</time>
      </trkpt>
      <trkpt lat="42.93395" lon="0.72889">
        <ele>1447.7</ele>
        <time>2020-02-23T12:05:12Z</time>
      </trkpt>
      <trkpt lat="42.93395" lon="0.72889">
        <ele>1447.7</ele>
        <time>2020-02-23T12:05:13Z</time>
      </trkpt>
      <trkpt lat="42.93398" lon="0.72888">
        <ele>1447.6</ele>
        <time>2020-02-23T12:05:14Z</time>
      </trkpt>
      <trkpt lat="42.93398" lon="0.72888">
        <ele>1447.6</ele>
        <time>2020-02-23T12:05:15Z</time>
      </trkpt>
      <trkpt lat="42.93398" lon="0.72888">
        <ele>1447.6</ele>
        <time>2020-02-23T12:05:16Z</time>
      </trkpt>
      <trkpt lat="42.93399" lon="0.72887">
        <ele>1447.5</ele>
        <time>2020-02-23T12:05:17Z</time>
      </trkpt>
      <trkpt lat="42.93399" lon="0.72887">
        <ele>1447.4</ele>
        <time>2020-02-23T12:05:18Z</time>
      </trkpt>
      <trkpt lat="42.93401" lon="0.72885">
        <ele>1447.3</ele>
        <time>2020-02-23T12:05:19Z</time>
      </trkpt>
      <trkpt lat="42.93401" lon="0.72885">
        <ele>1447.3</ele>
        <time>2020-02-23T12:05:20Z</time>
      </trkpt>
      <trkpt lat="42.93401" lon="0.72885">
        <ele>1447.3</ele>
        <time>2020-02-23T12:05:21Z</time>
      </trkpt>
      <trkpt lat="42.93401" lon="0.72885">
        <ele>1447.3</ele>
        <time>2020-02-23T12:05:22Z</time>
      </trkpt>
      <trkpt lat="42.93403" lon="0.72884">
        <ele>1447.2</ele>
        <time>2020-02-23T12:05:23Z</time>
      </trkpt>
      <trkpt lat="42.93403" lon="0.72884">
        <ele>1447.2</ele>
        <time>2020-02-23T12:05:24Z</time>
      </trkpt>
      <trkpt lat="42.93403" lon="0.72884">
        <ele>1447.2</ele>
        <time>2020-02-23T12:05:25Z</time>
      </trkpt>
      <trkpt lat="42.93403" lon="0.72884">
        <ele>1447.2</ele>
        <time>2020-02-23T12:05:26Z</time>
      </trkpt>
      <trkpt lat="42.93403" lon="0.72884">
        <ele>1447.2</ele>
        <time>2020-02-23T12:05:27Z</time>
      </trkpt>
      <trkpt lat="42.93403" lon="0.72884">
        <ele>1447.2</ele>
        <time>2020-02-23T12:05:28Z</time>
      </trkpt>
      <trkpt lat="42.93403" lon="0.72884">
        <ele>1447.2</ele>
        <time>2020-02-23T12:05:29Z</time>
      </trkpt>
      <trkpt lat="42.93403" lon="0.72884">
        <ele>1447.2</ele>
        <time>2020-02-23T12:05:30Z</time>
      </trkpt>
      <trkpt lat="42.93403" lon="0.72884">
        <ele>1447.2</ele>
        <time>2020-02-23T12:05:31Z</time>
      </trkpt>
      <trkpt lat="42.93404" lon="0.72881">
        <ele>1447</ele>
        <time>2020-02-23T12:05:32Z</time>
      </trkpt>
      <trkpt lat="42.93404" lon="0.72881">
        <ele>1447</ele>
        <time>2020-02-23T12:05:33Z</time>
      </trkpt>
      <trkpt lat="42.93404" lon="0.72881">
        <ele>1447</ele>
        <time>2020-02-23T12:05:34Z</time>
      </trkpt>
      <trkpt lat="42.93406" lon="0.7288">
        <ele>1446.9</ele>
        <time>2020-02-23T12:05:35Z</time>
      </trkpt>
      <trkpt lat="42.93406" lon="0.7288">
        <ele>1446.9</ele>
        <time>2020-02-23T12:05:36Z</time>
      </trkpt>
      <trkpt lat="42.93406" lon="0.7288">
        <ele>1446.9</ele>
        <time>2020-02-23T12:05:37Z</time>
      </trkpt>
      <trkpt lat="42.93406" lon="0.7288">
        <ele>1446.9</ele>
        <time>2020-02-23T12:05:38Z</time>
      </trkpt>
      <trkpt lat="42.93408" lon="0.72879">
        <ele>1446.8</ele>
        <time>2020-02-23T12:05:39Z</time>
      </trkpt>
      <trkpt lat="42.93408" lon="0.72879">
        <ele>1446.8</ele>
        <time>2020-02-23T12:05:40Z</time>
      </trkpt>
      <trkpt lat="42.93408" lon="0.72879">
        <ele>1446.8</ele>
        <time>2020-02-23T12:05:41Z</time>
      </trkpt>
      <trkpt lat="42.9341" lon="0.72879">
        <ele>1446.7</ele>
        <time>2020-02-23T12:05:42Z</time>
      </trkpt>
      <trkpt lat="42.9341" lon="0.72879">
        <ele>1446.7</ele>
        <time>2020-02-23T12:05:43Z</time>
      </trkpt>
      <trkpt lat="42.9341" lon="0.72879">
        <ele>1446.7</ele>
        <time>2020-02-23T12:05:44Z</time>
      </trkpt>
      <trkpt lat="42.93412" lon="0.72877">
        <ele>1446.6</ele>
        <time>2020-02-23T12:05:45Z</time>
      </trkpt>
      <trkpt lat="42.93412" lon="0.72877">
        <ele>1446.6</ele>
        <time>2020-02-23T12:05:46Z</time>
      </trkpt>
      <trkpt lat="42.93412" lon="0.72877">
        <ele>1446.6</ele>
        <time>2020-02-23T12:05:47Z</time>
      </trkpt>
      <trkpt lat="42.93413" lon="0.72875">
        <ele>1446.5</ele>
        <time>2020-02-23T12:05:48Z</time>
      </trkpt>
      <trkpt lat="42.93413" lon="0.72875">
        <ele>1446.5</ele>
        <time>2020-02-23T12:05:49Z</time>
      </trkpt>
      <trkpt lat="42.93415" lon="0.72873">
        <ele>1446.4</ele>
        <time>2020-02-23T12:05:50Z</time>
      </trkpt>
      <trkpt lat="42.93415" lon="0.72873">
        <ele>1446.4</ele>
        <time>2020-02-23T12:05:51Z</time>
      </trkpt>
      <trkpt lat="42.93415" lon="0.72873">
        <ele>1446.4</ele>
        <time>2020-02-23T12:05:52Z</time>
      </trkpt>
      <trkpt lat="42.93417" lon="0.72872">
        <ele>1446.3</ele>
        <time>2020-02-23T12:05:53Z</time>
      </trkpt>
      <trkpt lat="42.93417" lon="0.72872">
        <ele>1446.3</ele>
        <time>2020-02-23T12:05:54Z</time>
      </trkpt>
      <trkpt lat="42.93419" lon="0.72871">
        <ele>1446.2</ele>
        <time>2020-02-23T12:05:55Z</time>
      </trkpt>
      <trkpt lat="42.93419" lon="0.72871">
        <ele>1446.2</ele>
        <time>2020-02-23T12:05:56Z</time>
      </trkpt>
      <trkpt lat="42.93421" lon="0.7287">
        <ele>1446.1</ele>
        <time>2020-02-23T12:05:57Z</time>
      </trkpt>
      <trkpt lat="42.93421" lon="0.7287">
        <ele>1446.1</ele>
        <time>2020-02-23T12:05:58Z</time>
      </trkpt>
      <trkpt lat="42.93423" lon="0.72869">
        <ele>1446.1</ele>
        <time>2020-02-23T12:05:59Z</time>
      </trkpt>
      <trkpt lat="42.93423" lon="0.72869">
        <ele>1446.1</ele>
        <time>2020-02-23T12:06:00Z</time>
      </trkpt>
      <trkpt lat="42.93423" lon="0.72869">
        <ele>1446.1</ele>
        <time>2020-02-23T12:06:01Z</time>
      </trkpt>
      <trkpt lat="42.93425" lon="0.72868">
        <ele>1446.1</ele>
        <time>2020-02-23T12:06:02Z</time>
      </trkpt>
      <trkpt lat="42.93425" lon="0.72868">
        <ele>1446.1</ele>
        <time>2020-02-23T12:06:03Z</time>
      </trkpt>
      <trkpt lat="42.93425" lon="0.72868">
        <ele>1446.1</ele>
        <time>2020-02-23T12:06:04Z</time>
      </trkpt>
      <trkpt lat="42.93425" lon="0.72868">
        <ele>1446.1</ele>
        <time>2020-02-23T12:06:05Z</time>
      </trkpt>
      <trkpt lat="42.93425" lon="0.72868">
        <ele>1446.1</ele>
        <time>2020-02-23T12:06:06Z</time>
      </trkpt>
      <trkpt lat="42.93425" lon="0.72868">
        <ele>1446.1</ele>
        <time>2020-02-23T12:06:07Z</time>
      </trkpt>
      <trkpt lat="42.93425" lon="0.72868">
        <ele>1446.1</ele>
        <time>2020-02-23T12:06:08Z</time>
      </trkpt>
      <trkpt lat="42.93425" lon="0.72868">
        <ele>1446.1</ele>
        <time>2020-02-23T12:06:09Z</time>
      </trkpt>
      <trkpt lat="42.93425" lon="0.72868">
        <ele>1446.1</ele>
        <time>2020-02-23T12:06:10Z</time>
      </trkpt>
      <trkpt lat="42.93425" lon="0.72868">
        <ele>1446.1</ele>
        <time>2020-02-23T12:06:11Z</time>
      </trkpt>
      <trkpt lat="42.93425" lon="0.72868">
        <ele>1446.1</ele>
        <time>2020-02-23T12:06:12Z</time>
      </trkpt>
      <trkpt lat="42.93425" lon="0.72868">
        <ele>1446.1</ele>
        <time>2020-02-23T12:06:13Z</time>
      </trkpt>
      <trkpt lat="42.93425" lon="0.72868">
        <ele>1446.1</ele>
        <time>2020-02-23T12:06:14Z</time>
      </trkpt>
      <trkpt lat="42.93425" lon="0.72868">
        <ele>1446.1</ele>
        <time>2020-02-23T12:06:15Z</time>
      </trkpt>
      <trkpt lat="42.93425" lon="0.72868">
        <ele>1446.1</ele>
        <time>2020-02-23T12:06:16Z</time>
      </trkpt>
      <trkpt lat="42.93425" lon="0.72868">
        <ele>1446.1</ele>
        <time>2020-02-23T12:06:17Z</time>
      </trkpt>
      <trkpt lat="42.93425" lon="0.72868">
        <ele>1446.1</ele>
        <time>2020-02-23T12:06:18Z</time>
      </trkpt>
      <trkpt lat="42.93425" lon="0.72868">
        <ele>1446.1</ele>
        <time>2020-02-23T12:06:19Z</time>
      </trkpt>
      <trkpt lat="42.93425" lon="0.72868">
        <ele>1446.1</ele>
        <time>2020-02-23T12:06:20Z</time>
      </trkpt>
      <trkpt lat="42.93425" lon="0.72868">
        <ele>1446.1</ele>
        <time>2020-02-23T12:06:21Z</time>
      </trkpt>
      <trkpt lat="42.93426" lon="0.72866">
        <ele>1446.1</ele>
        <time>2020-02-23T12:06:22Z</time>
      </trkpt>
      <trkpt lat="42.93426" lon="0.72866">
        <ele>1446.1</ele>
        <time>2020-02-23T12:06:23Z</time>
      </trkpt>
      <trkpt lat="42.93426" lon="0.72866">
        <ele>1446.1</ele>
        <time>2020-02-23T12:06:24Z</time>
      </trkpt>
      <trkpt lat="42.93426" lon="0.72866">
        <ele>1446.1</ele>
        <time>2020-02-23T12:06:25Z</time>
      </trkpt>
      <trkpt lat="42.93427" lon="0.72864">
        <ele>1446.1</ele>
        <time>2020-02-23T12:06:26Z</time>
      </trkpt>
      <trkpt lat="42.93427" lon="0.72864">
        <ele>1446.1</ele>
        <time>2020-02-23T12:06:27Z</time>
      </trkpt>
      <trkpt lat="42.93427" lon="0.72864">
        <ele>1446.1</ele>
        <time>2020-02-23T12:06:28Z</time>
      </trkpt>
      <trkpt lat="42.93427" lon="0.72864">
        <ele>1446.1</ele>
        <time>2020-02-23T12:06:29Z</time>
      </trkpt>
      <trkpt lat="42.93427" lon="0.72864">
        <ele>1446.1</ele>
        <time>2020-02-23T12:06:30Z</time>
      </trkpt>
      <trkpt lat="42.93429" lon="0.72861">
        <ele>1446.1</ele>
        <time>2020-02-23T12:06:31Z</time>
      </trkpt>
      <trkpt lat="42.93429" lon="0.72861">
        <ele>1446.1</ele>
        <time>2020-02-23T12:06:32Z</time>
      </trkpt>
      <trkpt lat="42.93429" lon="0.72861">
        <ele>1446.1</ele>
        <time>2020-02-23T12:06:33Z</time>
      </trkpt>
      <trkpt lat="42.93429" lon="0.72861">
        <ele>1446.1</ele>
        <time>2020-02-23T12:06:34Z</time>
      </trkpt>
      <trkpt lat="42.93429" lon="0.72861">
        <ele>1446.1</ele>
        <time>2020-02-23T12:06:35Z</time>
      </trkpt>
      <trkpt lat="42.93429" lon="0.72861">
        <ele>1446.1</ele>
        <time>2020-02-23T12:06:36Z</time>
      </trkpt>
      <trkpt lat="42.93431" lon="0.7286">
        <ele>1446.2</ele>
        <time>2020-02-23T12:06:37Z</time>
      </trkpt>
      <trkpt lat="42.93431" lon="0.7286">
        <ele>1446.2</ele>
        <time>2020-02-23T12:06:38Z</time>
      </trkpt>
      <trkpt lat="42.93431" lon="0.7286">
        <ele>1446.2</ele>
        <time>2020-02-23T12:06:39Z</time>
      </trkpt>
      <trkpt lat="42.93431" lon="0.7286">
        <ele>1446.2</ele>
        <time>2020-02-23T12:06:40Z</time>
      </trkpt>
      <trkpt lat="42.93433" lon="0.7286">
        <ele>1446.2</ele>
        <time>2020-02-23T12:06:41Z</time>
      </trkpt>
      <trkpt lat="42.93433" lon="0.7286">
        <ele>1446.2</ele>
        <time>2020-02-23T12:06:42Z</time>
      </trkpt>
      <trkpt lat="42.93433" lon="0.7286">
        <ele>1446.2</ele>
        <time>2020-02-23T12:06:43Z</time>
      </trkpt>
      <trkpt lat="42.93433" lon="0.7286">
        <ele>1446.2</ele>
        <time>2020-02-23T12:06:44Z</time>
      </trkpt>
      <trkpt lat="42.93435" lon="0.7286">
        <ele>1446.3</ele>
        <time>2020-02-23T12:06:45Z</time>
      </trkpt>
      <trkpt lat="42.93435" lon="0.7286">
        <ele>1446.3</ele>
        <time>2020-02-23T12:06:46Z</time>
      </trkpt>
      <trkpt lat="42.93435" lon="0.7286">
        <ele>1446.3</ele>
        <time>2020-02-23T12:06:47Z</time>
      </trkpt>
      <trkpt lat="42.93436" lon="0.72859">
        <ele>1446.3</ele>
        <time>2020-02-23T12:06:48Z</time>
      </trkpt>
      <trkpt lat="42.93436" lon="0.72859">
        <ele>1446.3</ele>
        <time>2020-02-23T12:06:49Z</time>
      </trkpt>
      <trkpt lat="42.93436" lon="0.72859">
        <ele>1446.3</ele>
        <time>2020-02-23T12:06:50Z</time>
      </trkpt>
      <trkpt lat="42.93436" lon="0.72859">
        <ele>1446.3</ele>
        <time>2020-02-23T12:06:51Z</time>
      </trkpt>
      <trkpt lat="42.93438" lon="0.72856">
        <ele>1446.2</ele>
        <time>2020-02-23T12:06:52Z</time>
      </trkpt>
      <trkpt lat="42.93438" lon="0.72856">
        <ele>1446.2</ele>
        <time>2020-02-23T12:06:53Z</time>
      </trkpt>
      <trkpt lat="42.93438" lon="0.72856">
        <ele>1446.2</ele>
        <time>2020-02-23T12:06:54Z</time>
      </trkpt>
      <trkpt lat="42.93438" lon="0.72856">
        <ele>1446.2</ele>
        <time>2020-02-23T12:06:55Z</time>
      </trkpt>
      <trkpt lat="42.9344" lon="0.72855">
        <ele>1446.2</ele>
        <time>2020-02-23T12:06:56Z</time>
      </trkpt>
      <trkpt lat="42.9344" lon="0.72855">
        <ele>1446.2</ele>
        <time>2020-02-23T12:06:57Z</time>
      </trkpt>
      <trkpt lat="42.9344" lon="0.72855">
        <ele>1446.2</ele>
        <time>2020-02-23T12:06:58Z</time>
      </trkpt>
      <trkpt lat="42.9344" lon="0.72855">
        <ele>1446.2</ele>
        <time>2020-02-23T12:06:59Z</time>
      </trkpt>
      <trkpt lat="42.9344" lon="0.72855">
        <ele>1446.2</ele>
        <time>2020-02-23T12:07:00Z</time>
      </trkpt>
      <trkpt lat="42.93442" lon="0.72853">
        <ele>1446.3</ele>
        <time>2020-02-23T12:07:01Z</time>
      </trkpt>
      <trkpt lat="42.93442" lon="0.72853">
        <ele>1446.3</ele>
        <time>2020-02-23T12:07:02Z</time>
      </trkpt>
      <trkpt lat="42.93442" lon="0.72853">
        <ele>1446.3</ele>
        <time>2020-02-23T12:07:03Z</time>
      </trkpt>
      <trkpt lat="42.93443" lon="0.72852">
        <ele>1446.4</ele>
        <time>2020-02-23T12:07:04Z</time>
      </trkpt>
      <trkpt lat="42.93443" lon="0.72852">
        <ele>1446.4</ele>
        <time>2020-02-23T12:07:05Z</time>
      </trkpt>
      <trkpt lat="42.93443" lon="0.72852">
        <ele>1446.4</ele>
        <time>2020-02-23T12:07:06Z</time>
      </trkpt>
      <trkpt lat="42.93443" lon="0.72852">
        <ele>1446.4</ele>
        <time>2020-02-23T12:07:07Z</time>
      </trkpt>
      <trkpt lat="42.93445" lon="0.72851">
        <ele>1446.5</ele>
        <time>2020-02-23T12:07:08Z</time>
      </trkpt>
      <trkpt lat="42.93445" lon="0.72851">
        <ele>1446.5</ele>
        <time>2020-02-23T12:07:09Z</time>
      </trkpt>
      <trkpt lat="42.93445" lon="0.72851">
        <ele>1446.5</ele>
        <time>2020-02-23T12:07:10Z</time>
      </trkpt>
      <trkpt lat="42.93445" lon="0.72851">
        <ele>1446.5</ele>
        <time>2020-02-23T12:07:11Z</time>
      </trkpt>
      <trkpt lat="42.93446" lon="0.72848">
        <ele>1446.6</ele>
        <time>2020-02-23T12:07:12Z</time>
      </trkpt>
      <trkpt lat="42.93446" lon="0.72848">
        <ele>1446.6</ele>
        <time>2020-02-23T12:07:13Z</time>
      </trkpt>
      <trkpt lat="42.93447" lon="0.72846">
        <ele>1446.8</ele>
        <time>2020-02-23T12:07:14Z</time>
      </trkpt>
      <trkpt lat="42.93447" lon="0.72846">
        <ele>1446.8</ele>
        <time>2020-02-23T12:07:15Z</time>
      </trkpt>
      <trkpt lat="42.93447" lon="0.72846">
        <ele>1446.8</ele>
        <time>2020-02-23T12:07:16Z</time>
      </trkpt>
      <trkpt lat="42.93449" lon="0.72846">
        <ele>1446.7</ele>
        <time>2020-02-23T12:07:17Z</time>
      </trkpt>
      <trkpt lat="42.93449" lon="0.72846">
        <ele>1446.7</ele>
        <time>2020-02-23T12:07:18Z</time>
      </trkpt>
      <trkpt lat="42.93449" lon="0.72846">
        <ele>1446.7</ele>
        <time>2020-02-23T12:07:19Z</time>
      </trkpt>
      <trkpt lat="42.93451" lon="0.72844">
        <ele>1446.5</ele>
        <time>2020-02-23T12:07:20Z</time>
      </trkpt>
      <trkpt lat="42.93451" lon="0.72844">
        <ele>1446.5</ele>
        <time>2020-02-23T12:07:21Z</time>
      </trkpt>
      <trkpt lat="42.93453" lon="0.72843">
        <ele>1446.4</ele>
        <time>2020-02-23T12:07:22Z</time>
      </trkpt>
      <trkpt lat="42.93453" lon="0.72843">
        <ele>1446.4</ele>
        <time>2020-02-23T12:07:23Z</time>
      </trkpt>
      <trkpt lat="42.93453" lon="0.72843">
        <ele>1446.4</ele>
        <time>2020-02-23T12:07:24Z</time>
      </trkpt>
      <trkpt lat="42.93455" lon="0.72841">
        <ele>1445.9</ele>
        <time>2020-02-23T12:07:25Z</time>
      </trkpt>
      <trkpt lat="42.93455" lon="0.72841">
        <ele>1445.9</ele>
        <time>2020-02-23T12:07:26Z</time>
      </trkpt>
      <trkpt lat="42.93455" lon="0.72841">
        <ele>1445.9</ele>
        <time>2020-02-23T12:07:27Z</time>
      </trkpt>
      <trkpt lat="42.93456" lon="0.7284">
        <ele>1445.2</ele>
        <time>2020-02-23T12:07:28Z</time>
      </trkpt>
      <trkpt lat="42.93456" lon="0.7284">
        <ele>1445.2</ele>
        <time>2020-02-23T12:07:29Z</time>
      </trkpt>
      <trkpt lat="42.93457" lon="0.72837">
        <ele>1444.5</ele>
        <time>2020-02-23T12:07:30Z</time>
      </trkpt>
      <trkpt lat="42.93457" lon="0.72837">
        <ele>1444.5</ele>
        <time>2020-02-23T12:07:31Z</time>
      </trkpt>
      <trkpt lat="42.93458" lon="0.72834">
        <ele>1443.8</ele>
        <time>2020-02-23T12:07:32Z</time>
      </trkpt>
      <trkpt lat="42.93458" lon="0.72834">
        <ele>1443.8</ele>
        <time>2020-02-23T12:07:33Z</time>
      </trkpt>
      <trkpt lat="42.93459" lon="0.72831">
        <ele>1443.1</ele>
        <time>2020-02-23T12:07:34Z</time>
      </trkpt>
      <trkpt lat="42.93459" lon="0.72831">
        <ele>1443.1</ele>
        <time>2020-02-23T12:07:35Z</time>
      </trkpt>
      <trkpt lat="42.93459" lon="0.72831">
        <ele>1443.1</ele>
        <time>2020-02-23T12:07:36Z</time>
      </trkpt>
      <trkpt lat="42.9346" lon="0.72828">
        <ele>1442.3</ele>
        <time>2020-02-23T12:07:37Z</time>
      </trkpt>
      <trkpt lat="42.9346" lon="0.72828">
        <ele>1442.3</ele>
        <time>2020-02-23T12:07:38Z</time>
      </trkpt>
      <trkpt lat="42.9346" lon="0.72828">
        <ele>1442.3</ele>
        <time>2020-02-23T12:07:39Z</time>
      </trkpt>
      <trkpt lat="42.9346" lon="0.72828">
        <ele>1442.3</ele>
        <time>2020-02-23T12:07:40Z</time>
      </trkpt>
      <trkpt lat="42.93462" lon="0.72826">
        <ele>1441.5</ele>
        <time>2020-02-23T12:07:41Z</time>
      </trkpt>
      <trkpt lat="42.93462" lon="0.72826">
        <ele>1441.5</ele>
        <time>2020-02-23T12:07:42Z</time>
      </trkpt>
      <trkpt lat="42.93462" lon="0.72826">
        <ele>1441.5</ele>
        <time>2020-02-23T12:07:43Z</time>
      </trkpt>
      <trkpt lat="42.93462" lon="0.72826">
        <ele>1441.5</ele>
        <time>2020-02-23T12:07:44Z</time>
      </trkpt>
      <trkpt lat="42.93462" lon="0.72823">
        <ele>1440.7</ele>
        <time>2020-02-23T12:07:45Z</time>
      </trkpt>
      <trkpt lat="42.93462" lon="0.72823">
        <ele>1440.7</ele>
        <time>2020-02-23T12:07:46Z</time>
      </trkpt>
      <trkpt lat="42.93462" lon="0.72823">
        <ele>1440.7</ele>
        <time>2020-02-23T12:07:47Z</time>
      </trkpt>
      <trkpt lat="42.93463" lon="0.72821">
        <ele>1440</ele>
        <time>2020-02-23T12:07:48Z</time>
      </trkpt>
      <trkpt lat="42.93463" lon="0.72821">
        <ele>1440</ele>
        <time>2020-02-23T12:07:49Z</time>
      </trkpt>
      <trkpt lat="42.93463" lon="0.72821">
        <ele>1440</ele>
        <time>2020-02-23T12:07:50Z</time>
      </trkpt>
      <trkpt lat="42.93465" lon="0.72819">
        <ele>1439.3</ele>
        <time>2020-02-23T12:07:51Z</time>
      </trkpt>
      <trkpt lat="42.93465" lon="0.72819">
        <ele>1439.3</ele>
        <time>2020-02-23T12:07:52Z</time>
      </trkpt>
      <trkpt lat="42.93466" lon="0.72816">
        <ele>1438.3</ele>
        <time>2020-02-23T12:07:53Z</time>
      </trkpt>
      <trkpt lat="42.93466" lon="0.72816">
        <ele>1438.3</ele>
        <time>2020-02-23T12:07:54Z</time>
      </trkpt>
      <trkpt lat="42.93466" lon="0.72816">
        <ele>1438.3</ele>
        <time>2020-02-23T12:07:55Z</time>
      </trkpt>
      <trkpt lat="42.93468" lon="0.72814">
        <ele>1437.6</ele>
        <time>2020-02-23T12:07:56Z</time>
      </trkpt>
      <trkpt lat="42.93468" lon="0.72814">
        <ele>1437.6</ele>
        <time>2020-02-23T12:07:57Z</time>
      </trkpt>
      <trkpt lat="42.93468" lon="0.72812">
        <ele>1437.1</ele>
        <time>2020-02-23T12:07:58Z</time>
      </trkpt>
      <trkpt lat="42.93468" lon="0.72812">
        <ele>1437.1</ele>
        <time>2020-02-23T12:07:59Z</time>
      </trkpt>
      <trkpt lat="42.9347" lon="0.7281">
        <ele>1436.5</ele>
        <time>2020-02-23T12:08:00Z</time>
      </trkpt>
      <trkpt lat="42.9347" lon="0.7281">
        <ele>1436.5</ele>
        <time>2020-02-23T12:08:01Z</time>
      </trkpt>
      <trkpt lat="42.93471" lon="0.72807">
        <ele>1436</ele>
        <time>2020-02-23T12:08:02Z</time>
      </trkpt>
      <trkpt lat="42.93471" lon="0.72807">
        <ele>1436</ele>
        <time>2020-02-23T12:08:03Z</time>
      </trkpt>
      <trkpt lat="42.93473" lon="0.72804">
        <ele>1435.4</ele>
        <time>2020-02-23T12:08:04Z</time>
      </trkpt>
      <trkpt lat="42.93473" lon="0.72804">
        <ele>1435.4</ele>
        <time>2020-02-23T12:08:05Z</time>
      </trkpt>
      <trkpt lat="42.93473" lon="0.72804">
        <ele>1435.4</ele>
        <time>2020-02-23T12:08:06Z</time>
      </trkpt>
      <trkpt lat="42.93473" lon="0.72804">
        <ele>1435.4</ele>
        <time>2020-02-23T12:08:07Z</time>
      </trkpt>
      <trkpt lat="42.93474" lon="0.72802">
        <ele>1435.4</ele>
        <time>2020-02-23T12:08:08Z</time>
      </trkpt>
      <trkpt lat="42.93474" lon="0.72802">
        <ele>1435.4</ele>
        <time>2020-02-23T12:08:09Z</time>
      </trkpt>
      <trkpt lat="42.93474" lon="0.72802">
        <ele>1435.4</ele>
        <time>2020-02-23T12:08:10Z</time>
      </trkpt>
      <trkpt lat="42.93474" lon="0.72802">
        <ele>1435.4</ele>
        <time>2020-02-23T12:08:11Z</time>
      </trkpt>
      <trkpt lat="42.93474" lon="0.72802">
        <ele>1435.4</ele>
        <time>2020-02-23T12:08:12Z</time>
      </trkpt>
      <trkpt lat="42.93476" lon="0.728">
        <ele>1435.3</ele>
        <time>2020-02-23T12:08:13Z</time>
      </trkpt>
      <trkpt lat="42.93476" lon="0.728">
        <ele>1435.3</ele>
        <time>2020-02-23T12:08:14Z</time>
      </trkpt>
      <trkpt lat="42.93476" lon="0.728">
        <ele>1435.3</ele>
        <time>2020-02-23T12:08:15Z</time>
      </trkpt>
      <trkpt lat="42.93476" lon="0.728">
        <ele>1435.3</ele>
        <time>2020-02-23T12:08:16Z</time>
      </trkpt>
      <trkpt lat="42.93477" lon="0.72798">
        <ele>1435.3</ele>
        <time>2020-02-23T12:08:17Z</time>
      </trkpt>
      <trkpt lat="42.93477" lon="0.72798">
        <ele>1435.3</ele>
        <time>2020-02-23T12:08:18Z</time>
      </trkpt>
      <trkpt lat="42.93477" lon="0.72798">
        <ele>1435.3</ele>
        <time>2020-02-23T12:08:19Z</time>
      </trkpt>
      <trkpt lat="42.93478" lon="0.72797">
        <ele>1435.2</ele>
        <time>2020-02-23T12:08:20Z</time>
      </trkpt>
      <trkpt lat="42.93478" lon="0.72797">
        <ele>1435.2</ele>
        <time>2020-02-23T12:08:21Z</time>
      </trkpt>
      <trkpt lat="42.93478" lon="0.72797">
        <ele>1435.2</ele>
        <time>2020-02-23T12:08:22Z</time>
      </trkpt>
      <trkpt lat="42.93478" lon="0.72797">
        <ele>1435.2</ele>
        <time>2020-02-23T12:08:23Z</time>
      </trkpt>
      <trkpt lat="42.93479" lon="0.72794">
        <ele>1435.4</ele>
        <time>2020-02-23T12:08:24Z</time>
      </trkpt>
      <trkpt lat="42.93479" lon="0.72794">
        <ele>1435.4</ele>
        <time>2020-02-23T12:08:25Z</time>
      </trkpt>
      <trkpt lat="42.93479" lon="0.72794">
        <ele>1435.4</ele>
        <time>2020-02-23T12:08:26Z</time>
      </trkpt>
      <trkpt lat="42.93479" lon="0.7279">
        <ele>1435.5</ele>
        <time>2020-02-23T12:08:27Z</time>
      </trkpt>
      <trkpt lat="42.93479" lon="0.7279">
        <ele>1435.5</ele>
        <time>2020-02-23T12:08:28Z</time>
      </trkpt>
      <trkpt lat="42.9348" lon="0.72787">
        <ele>1435.6</ele>
        <time>2020-02-23T12:08:29Z</time>
      </trkpt>
      <trkpt lat="42.9348" lon="0.72787">
        <ele>1435.6</ele>
        <time>2020-02-23T12:08:30Z</time>
      </trkpt>
      <trkpt lat="42.9348" lon="0.72787">
        <ele>1435.6</ele>
        <time>2020-02-23T12:08:31Z</time>
      </trkpt>
      <trkpt lat="42.93481" lon="0.72786">
        <ele>1435.7</ele>
        <time>2020-02-23T12:08:32Z</time>
      </trkpt>
      <trkpt lat="42.93481" lon="0.72786">
        <ele>1435.7</ele>
        <time>2020-02-23T12:08:33Z</time>
      </trkpt>
      <trkpt lat="42.93481" lon="0.72786">
        <ele>1435.7</ele>
        <time>2020-02-23T12:08:34Z</time>
      </trkpt>
      <trkpt lat="42.93483" lon="0.72785">
        <ele>1435.5</ele>
        <time>2020-02-23T12:08:35Z</time>
      </trkpt>
      <trkpt lat="42.93485" lon="0.72783">
        <ele>1435.4</ele>
        <time>2020-02-23T12:08:36Z</time>
      </trkpt>
      <trkpt lat="42.93485" lon="0.72783">
        <ele>1435.4</ele>
        <time>2020-02-23T12:08:37Z</time>
      </trkpt>
      <trkpt lat="42.93485" lon="0.72783">
        <ele>1435.4</ele>
        <time>2020-02-23T12:08:38Z</time>
      </trkpt>
      <trkpt lat="42.93487" lon="0.72782">
        <ele>1435.2</ele>
        <time>2020-02-23T12:08:39Z</time>
      </trkpt>
      <trkpt lat="42.93487" lon="0.72782">
        <ele>1435.2</ele>
        <time>2020-02-23T12:08:40Z</time>
      </trkpt>
      <trkpt lat="42.93487" lon="0.72782">
        <ele>1435.2</ele>
        <time>2020-02-23T12:08:41Z</time>
      </trkpt>
      <trkpt lat="42.93488" lon="0.72781">
        <ele>1435.1</ele>
        <time>2020-02-23T12:08:42Z</time>
      </trkpt>
      <trkpt lat="42.9349" lon="0.72779">
        <ele>1434.8</ele>
        <time>2020-02-23T12:08:43Z</time>
      </trkpt>
      <trkpt lat="42.9349" lon="0.72779">
        <ele>1434.8</ele>
        <time>2020-02-23T12:08:44Z</time>
      </trkpt>
      <trkpt lat="42.9349" lon="0.72779">
        <ele>1434.8</ele>
        <time>2020-02-23T12:08:45Z</time>
      </trkpt>
      <trkpt lat="42.93492" lon="0.72778">
        <ele>1434.6</ele>
        <time>2020-02-23T12:08:46Z</time>
      </trkpt>
      <trkpt lat="42.93492" lon="0.72778">
        <ele>1434.6</ele>
        <time>2020-02-23T12:08:47Z</time>
      </trkpt>
      <trkpt lat="42.93493" lon="0.72776">
        <ele>1434.4</ele>
        <time>2020-02-23T12:08:48Z</time>
      </trkpt>
      <trkpt lat="42.93494" lon="0.72773">
        <ele>1434.1</ele>
        <time>2020-02-23T12:08:49Z</time>
      </trkpt>
      <trkpt lat="42.93494" lon="0.72773">
        <ele>1434.1</ele>
        <time>2020-02-23T12:08:50Z</time>
      </trkpt>
      <trkpt lat="42.93494" lon="0.72773">
        <ele>1434.1</ele>
        <time>2020-02-23T12:08:51Z</time>
      </trkpt>
      <trkpt lat="42.93496" lon="0.72771">
        <ele>1434</ele>
        <time>2020-02-23T12:08:52Z</time>
      </trkpt>
      <trkpt lat="42.93496" lon="0.72771">
        <ele>1434</ele>
        <time>2020-02-23T12:08:53Z</time>
      </trkpt>
      <trkpt lat="42.93498" lon="0.7277">
        <ele>1434</ele>
        <time>2020-02-23T12:08:54Z</time>
      </trkpt>
      <trkpt lat="42.93498" lon="0.7277">
        <ele>1434</ele>
        <time>2020-02-23T12:08:55Z</time>
      </trkpt>
      <trkpt lat="42.935" lon="0.72768">
        <ele>1433.9</ele>
        <time>2020-02-23T12:08:56Z</time>
      </trkpt>
      <trkpt lat="42.935" lon="0.72768">
        <ele>1433.9</ele>
        <time>2020-02-23T12:08:57Z</time>
      </trkpt>
      <trkpt lat="42.935" lon="0.72768">
        <ele>1433.9</ele>
        <time>2020-02-23T12:08:58Z</time>
      </trkpt>
      <trkpt lat="42.93502" lon="0.72766">
        <ele>1433.9</ele>
        <time>2020-02-23T12:08:59Z</time>
      </trkpt>
      <trkpt lat="42.93502" lon="0.72766">
        <ele>1433.9</ele>
        <time>2020-02-23T12:09:00Z</time>
      </trkpt>
      <trkpt lat="42.93502" lon="0.72766">
        <ele>1433.9</ele>
        <time>2020-02-23T12:09:01Z</time>
      </trkpt>
      <trkpt lat="42.93504" lon="0.72764">
        <ele>1433.9</ele>
        <time>2020-02-23T12:09:02Z</time>
      </trkpt>
      <trkpt lat="42.93506" lon="0.72762">
        <ele>1433.9</ele>
        <time>2020-02-23T12:09:03Z</time>
      </trkpt>
      <trkpt lat="42.93506" lon="0.72762">
        <ele>1433.9</ele>
        <time>2020-02-23T12:09:04Z</time>
      </trkpt>
      <trkpt lat="42.93507" lon="0.72759">
        <ele>1433.8</ele>
        <time>2020-02-23T12:09:05Z</time>
      </trkpt>
      <trkpt lat="42.93507" lon="0.72759">
        <ele>1433.8</ele>
        <time>2020-02-23T12:09:06Z</time>
      </trkpt>
      <trkpt lat="42.93507" lon="0.72759">
        <ele>1433.8</ele>
        <time>2020-02-23T12:09:07Z</time>
      </trkpt>
      <trkpt lat="42.93508" lon="0.72757">
        <ele>1433.5</ele>
        <time>2020-02-23T12:09:08Z</time>
      </trkpt>
      <trkpt lat="42.93508" lon="0.72757">
        <ele>1433.5</ele>
        <time>2020-02-23T12:09:09Z</time>
      </trkpt>
      <trkpt lat="42.93509" lon="0.72754">
        <ele>1433.2</ele>
        <time>2020-02-23T12:09:10Z</time>
      </trkpt>
      <trkpt lat="42.93509" lon="0.72754">
        <ele>1433.2</ele>
        <time>2020-02-23T12:09:11Z</time>
      </trkpt>
      <trkpt lat="42.93511" lon="0.72753">
        <ele>1433.1</ele>
        <time>2020-02-23T12:09:12Z</time>
      </trkpt>
      <trkpt lat="42.93511" lon="0.72753">
        <ele>1433.1</ele>
        <time>2020-02-23T12:09:13Z</time>
      </trkpt>
      <trkpt lat="42.93511" lon="0.72753">
        <ele>1433.1</ele>
        <time>2020-02-23T12:09:14Z</time>
      </trkpt>
      <trkpt lat="42.93513" lon="0.72751">
        <ele>1433.1</ele>
        <time>2020-02-23T12:09:15Z</time>
      </trkpt>
      <trkpt lat="42.93513" lon="0.72751">
        <ele>1433.1</ele>
        <time>2020-02-23T12:09:16Z</time>
      </trkpt>
      <trkpt lat="42.93514" lon="0.72748">
        <ele>1433.2</ele>
        <time>2020-02-23T12:09:17Z</time>
      </trkpt>
      <trkpt lat="42.93514" lon="0.72748">
        <ele>1433.2</ele>
        <time>2020-02-23T12:09:18Z</time>
      </trkpt>
      <trkpt lat="42.93516" lon="0.72747">
        <ele>1433.2</ele>
        <time>2020-02-23T12:09:19Z</time>
      </trkpt>
      <trkpt lat="42.93516" lon="0.72747">
        <ele>1433.2</ele>
        <time>2020-02-23T12:09:20Z</time>
      </trkpt>
      <trkpt lat="42.93517" lon="0.72745">
        <ele>1433.2</ele>
        <time>2020-02-23T12:09:21Z</time>
      </trkpt>
      <trkpt lat="42.93517" lon="0.72745">
        <ele>1433.2</ele>
        <time>2020-02-23T12:09:22Z</time>
      </trkpt>
      <trkpt lat="42.93517" lon="0.72745">
        <ele>1433.2</ele>
        <time>2020-02-23T12:09:23Z</time>
      </trkpt>
      <trkpt lat="42.93517" lon="0.72741">
        <ele>1433.3</ele>
        <time>2020-02-23T12:09:24Z</time>
      </trkpt>
      <trkpt lat="42.93517" lon="0.72741">
        <ele>1433.3</ele>
        <time>2020-02-23T12:09:25Z</time>
      </trkpt>
      <trkpt lat="42.93517" lon="0.72741">
        <ele>1433.3</ele>
        <time>2020-02-23T12:09:26Z</time>
      </trkpt>
      <trkpt lat="42.93517" lon="0.72738">
        <ele>1433.3</ele>
        <time>2020-02-23T12:09:27Z</time>
      </trkpt>
      <trkpt lat="42.93517" lon="0.72738">
        <ele>1433.3</ele>
        <time>2020-02-23T12:09:28Z</time>
      </trkpt>
      <trkpt lat="42.93517" lon="0.72738">
        <ele>1433.3</ele>
        <time>2020-02-23T12:09:29Z</time>
      </trkpt>
      <trkpt lat="42.93518" lon="0.72735">
        <ele>1433.3</ele>
        <time>2020-02-23T12:09:30Z</time>
      </trkpt>
      <trkpt lat="42.93518" lon="0.72735">
        <ele>1433.3</ele>
        <time>2020-02-23T12:09:31Z</time>
      </trkpt>
      <trkpt lat="42.93518" lon="0.72735">
        <ele>1433.3</ele>
        <time>2020-02-23T12:09:32Z</time>
      </trkpt>
      <trkpt lat="42.93518" lon="0.72735">
        <ele>1433.3</ele>
        <time>2020-02-23T12:09:33Z</time>
      </trkpt>
      <trkpt lat="42.93518" lon="0.72735">
        <ele>1433.3</ele>
        <time>2020-02-23T12:09:34Z</time>
      </trkpt>
      <trkpt lat="42.93519" lon="0.72733">
        <ele>1433.2</ele>
        <time>2020-02-23T12:09:35Z</time>
      </trkpt>
      <trkpt lat="42.93519" lon="0.72733">
        <ele>1433.2</ele>
        <time>2020-02-23T12:09:36Z</time>
      </trkpt>
      <trkpt lat="42.93519" lon="0.72733">
        <ele>1433.2</ele>
        <time>2020-02-23T12:09:37Z</time>
      </trkpt>
      <trkpt lat="42.93519" lon="0.72733">
        <ele>1433.2</ele>
        <time>2020-02-23T12:09:38Z</time>
      </trkpt>
      <trkpt lat="42.93519" lon="0.7273">
        <ele>1433.2</ele>
        <time>2020-02-23T12:09:39Z</time>
      </trkpt>
      <trkpt lat="42.93519" lon="0.7273">
        <ele>1433.2</ele>
        <time>2020-02-23T12:09:40Z</time>
      </trkpt>
      <trkpt lat="42.9352" lon="0.72727">
        <ele>1433.1</ele>
        <time>2020-02-23T12:09:41Z</time>
      </trkpt>
      <trkpt lat="42.9352" lon="0.72727">
        <ele>1433.1</ele>
        <time>2020-02-23T12:09:42Z</time>
      </trkpt>
      <trkpt lat="42.93521" lon="0.72724">
        <ele>1432.8</ele>
        <time>2020-02-23T12:09:43Z</time>
      </trkpt>
      <trkpt lat="42.93521" lon="0.72724">
        <ele>1432.8</ele>
        <time>2020-02-23T12:09:44Z</time>
      </trkpt>
      <trkpt lat="42.93521" lon="0.72721">
        <ele>1432.3</ele>
        <time>2020-02-23T12:09:45Z</time>
      </trkpt>
      <trkpt lat="42.93521" lon="0.72721">
        <ele>1432.3</ele>
        <time>2020-02-23T12:09:46Z</time>
      </trkpt>
      <trkpt lat="42.93521" lon="0.72721">
        <ele>1432.3</ele>
        <time>2020-02-23T12:09:47Z</time>
      </trkpt>
      <trkpt lat="42.93521" lon="0.72718">
        <ele>1432</ele>
        <time>2020-02-23T12:09:48Z</time>
      </trkpt>
      <trkpt lat="42.9352" lon="0.72715">
        <ele>1431.5</ele>
        <time>2020-02-23T12:09:49Z</time>
      </trkpt>
      <trkpt lat="42.9352" lon="0.72715">
        <ele>1431.5</ele>
        <time>2020-02-23T12:09:50Z</time>
      </trkpt>
      <trkpt lat="42.9352" lon="0.72715">
        <ele>1431.5</ele>
        <time>2020-02-23T12:09:51Z</time>
      </trkpt>
      <trkpt lat="42.9352" lon="0.72712">
        <ele>1431.3</ele>
        <time>2020-02-23T12:09:52Z</time>
      </trkpt>
      <trkpt lat="42.9352" lon="0.72712">
        <ele>1431.3</ele>
        <time>2020-02-23T12:09:53Z</time>
      </trkpt>
      <trkpt lat="42.9352" lon="0.72712">
        <ele>1431.3</ele>
        <time>2020-02-23T12:09:54Z</time>
      </trkpt>
      <trkpt lat="42.93519" lon="0.72709">
        <ele>1431.3</ele>
        <time>2020-02-23T12:09:55Z</time>
      </trkpt>
      <trkpt lat="42.93519" lon="0.72709">
        <ele>1431.3</ele>
        <time>2020-02-23T12:09:56Z</time>
      </trkpt>
      <trkpt lat="42.93518" lon="0.72707">
        <ele>1431.2</ele>
        <time>2020-02-23T12:09:57Z</time>
      </trkpt>
      <trkpt lat="42.93518" lon="0.72707">
        <ele>1431.2</ele>
        <time>2020-02-23T12:09:58Z</time>
      </trkpt>
      <trkpt lat="42.93518" lon="0.72707">
        <ele>1431.2</ele>
        <time>2020-02-23T12:09:59Z</time>
      </trkpt>
      <trkpt lat="42.93518" lon="0.72703">
        <ele>1431.1</ele>
        <time>2020-02-23T12:10:00Z</time>
      </trkpt>
      <trkpt lat="42.93518" lon="0.72703">
        <ele>1431.1</ele>
        <time>2020-02-23T12:10:01Z</time>
      </trkpt>
      <trkpt lat="42.93518" lon="0.727">
        <ele>1431</ele>
        <time>2020-02-23T12:10:02Z</time>
      </trkpt>
      <trkpt lat="42.93518" lon="0.727">
        <ele>1431</ele>
        <time>2020-02-23T12:10:03Z</time>
      </trkpt>
      <trkpt lat="42.93518" lon="0.727">
        <ele>1431</ele>
        <time>2020-02-23T12:10:04Z</time>
      </trkpt>
      <trkpt lat="42.93518" lon="0.727">
        <ele>1431</ele>
        <time>2020-02-23T12:10:05Z</time>
      </trkpt>
      <trkpt lat="42.93518" lon="0.72697">
        <ele>1430.9</ele>
        <time>2020-02-23T12:10:06Z</time>
      </trkpt>
      <trkpt lat="42.93518" lon="0.72697">
        <ele>1430.9</ele>
        <time>2020-02-23T12:10:07Z</time>
      </trkpt>
      <trkpt lat="42.93518" lon="0.72697">
        <ele>1430.9</ele>
        <time>2020-02-23T12:10:08Z</time>
      </trkpt>
      <trkpt lat="42.93518" lon="0.72697">
        <ele>1430.9</ele>
        <time>2020-02-23T12:10:09Z</time>
      </trkpt>
      <trkpt lat="42.93518" lon="0.72697">
        <ele>1430.9</ele>
        <time>2020-02-23T12:10:10Z</time>
      </trkpt>
      <trkpt lat="42.93518" lon="0.72694">
        <ele>1430.7</ele>
        <time>2020-02-23T12:10:11Z</time>
      </trkpt>
      <trkpt lat="42.93518" lon="0.72694">
        <ele>1430.7</ele>
        <time>2020-02-23T12:10:12Z</time>
      </trkpt>
      <trkpt lat="42.93518" lon="0.72694">
        <ele>1430.7</ele>
        <time>2020-02-23T12:10:13Z</time>
      </trkpt>
      <trkpt lat="42.93519" lon="0.72691">
        <ele>1430.6</ele>
        <time>2020-02-23T12:10:14Z</time>
      </trkpt>
      <trkpt lat="42.93519" lon="0.72691">
        <ele>1430.6</ele>
        <time>2020-02-23T12:10:15Z</time>
      </trkpt>
      <trkpt lat="42.93519" lon="0.72691">
        <ele>1430.6</ele>
        <time>2020-02-23T12:10:16Z</time>
      </trkpt>
      <trkpt lat="42.93519" lon="0.72691">
        <ele>1430.6</ele>
        <time>2020-02-23T12:10:17Z</time>
      </trkpt>
      <trkpt lat="42.9352" lon="0.72689">
        <ele>1430.4</ele>
        <time>2020-02-23T12:10:18Z</time>
      </trkpt>
      <trkpt lat="42.9352" lon="0.72689">
        <ele>1430.4</ele>
        <time>2020-02-23T12:10:19Z</time>
      </trkpt>
      <trkpt lat="42.93521" lon="0.72686">
        <ele>1430.1</ele>
        <time>2020-02-23T12:10:20Z</time>
      </trkpt>
      <trkpt lat="42.93521" lon="0.72686">
        <ele>1430.1</ele>
        <time>2020-02-23T12:10:21Z</time>
      </trkpt>
      <trkpt lat="42.93521" lon="0.72686">
        <ele>1430.1</ele>
        <time>2020-02-23T12:10:22Z</time>
      </trkpt>
      <trkpt lat="42.93521" lon="0.72686">
        <ele>1430.1</ele>
        <time>2020-02-23T12:10:23Z</time>
      </trkpt>
      <trkpt lat="42.93521" lon="0.72683">
        <ele>1429.7</ele>
        <time>2020-02-23T12:10:24Z</time>
      </trkpt>
      <trkpt lat="42.93521" lon="0.72683">
        <ele>1429.7</ele>
        <time>2020-02-23T12:10:25Z</time>
      </trkpt>
      <trkpt lat="42.93521" lon="0.72683">
        <ele>1429.7</ele>
        <time>2020-02-23T12:10:26Z</time>
      </trkpt>
      <trkpt lat="42.93521" lon="0.7268">
        <ele>1429.3</ele>
        <time>2020-02-23T12:10:27Z</time>
      </trkpt>
      <trkpt lat="42.93521" lon="0.7268">
        <ele>1429.3</ele>
        <time>2020-02-23T12:10:28Z</time>
      </trkpt>
      <trkpt lat="42.93521" lon="0.7268">
        <ele>1429.3</ele>
        <time>2020-02-23T12:10:29Z</time>
      </trkpt>
      <trkpt lat="42.93521" lon="0.72677">
        <ele>1429</ele>
        <time>2020-02-23T12:10:30Z</time>
      </trkpt>
      <trkpt lat="42.93521" lon="0.72677">
        <ele>1429</ele>
        <time>2020-02-23T12:10:31Z</time>
      </trkpt>
      <trkpt lat="42.93521" lon="0.72677">
        <ele>1429</ele>
        <time>2020-02-23T12:10:32Z</time>
      </trkpt>
      <trkpt lat="42.9352" lon="0.72674">
        <ele>1428.9</ele>
        <time>2020-02-23T12:10:33Z</time>
      </trkpt>
      <trkpt lat="42.9352" lon="0.72674">
        <ele>1428.9</ele>
        <time>2020-02-23T12:10:34Z</time>
      </trkpt>
      <trkpt lat="42.9352" lon="0.72674">
        <ele>1428.9</ele>
        <time>2020-02-23T12:10:35Z</time>
      </trkpt>
      <trkpt lat="42.93519" lon="0.72671">
        <ele>1428.7</ele>
        <time>2020-02-23T12:10:36Z</time>
      </trkpt>
      <trkpt lat="42.93519" lon="0.72671">
        <ele>1428.7</ele>
        <time>2020-02-23T12:10:37Z</time>
      </trkpt>
      <trkpt lat="42.93519" lon="0.72671">
        <ele>1428.7</ele>
        <time>2020-02-23T12:10:38Z</time>
      </trkpt>
      <trkpt lat="42.93518" lon="0.72668">
        <ele>1428.5</ele>
        <time>2020-02-23T12:10:39Z</time>
      </trkpt>
      <trkpt lat="42.93518" lon="0.72668">
        <ele>1428.5</ele>
        <time>2020-02-23T12:10:40Z</time>
      </trkpt>
      <trkpt lat="42.93518" lon="0.72668">
        <ele>1428.5</ele>
        <time>2020-02-23T12:10:41Z</time>
      </trkpt>
      <trkpt lat="42.93518" lon="0.72665">
        <ele>1428.3</ele>
        <time>2020-02-23T12:10:42Z</time>
      </trkpt>
      <trkpt lat="42.93518" lon="0.72665">
        <ele>1428.3</ele>
        <time>2020-02-23T12:10:43Z</time>
      </trkpt>
      <trkpt lat="42.93518" lon="0.72665">
        <ele>1428.3</ele>
        <time>2020-02-23T12:10:44Z</time>
      </trkpt>
      <trkpt lat="42.93518" lon="0.72662">
        <ele>1428.1</ele>
        <time>2020-02-23T12:10:45Z</time>
      </trkpt>
      <trkpt lat="42.93518" lon="0.72662">
        <ele>1428.1</ele>
        <time>2020-02-23T12:10:46Z</time>
      </trkpt>
      <trkpt lat="42.93519" lon="0.7266">
        <ele>1427.8</ele>
        <time>2020-02-23T12:10:47Z</time>
      </trkpt>
      <trkpt lat="42.93519" lon="0.7266">
        <ele>1427.8</ele>
        <time>2020-02-23T12:10:48Z</time>
      </trkpt>
      <trkpt lat="42.93519" lon="0.7266">
        <ele>1427.8</ele>
        <time>2020-02-23T12:10:49Z</time>
      </trkpt>
      <trkpt lat="42.93519" lon="0.72657">
        <ele>1427.5</ele>
        <time>2020-02-23T12:10:50Z</time>
      </trkpt>
      <trkpt lat="42.93519" lon="0.72657">
        <ele>1427.5</ele>
        <time>2020-02-23T12:10:51Z</time>
      </trkpt>
      <trkpt lat="42.93519" lon="0.72657">
        <ele>1427.5</ele>
        <time>2020-02-23T12:10:52Z</time>
      </trkpt>
      <trkpt lat="42.93519" lon="0.72655">
        <ele>1427.3</ele>
        <time>2020-02-23T12:10:53Z</time>
      </trkpt>
      <trkpt lat="42.93519" lon="0.72655">
        <ele>1427.3</ele>
        <time>2020-02-23T12:10:54Z</time>
      </trkpt>
      <trkpt lat="42.93519" lon="0.72655">
        <ele>1427.3</ele>
        <time>2020-02-23T12:10:55Z</time>
      </trkpt>
      <trkpt lat="42.93519" lon="0.72652">
        <ele>1426.9</ele>
        <time>2020-02-23T12:10:56Z</time>
      </trkpt>
      <trkpt lat="42.93519" lon="0.72652">
        <ele>1426.9</ele>
        <time>2020-02-23T12:10:57Z</time>
      </trkpt>
      <trkpt lat="42.93519" lon="0.72652">
        <ele>1426.9</ele>
        <time>2020-02-23T12:10:58Z</time>
      </trkpt>
      <trkpt lat="42.9352" lon="0.72648">
        <ele>1426.4</ele>
        <time>2020-02-23T12:10:59Z</time>
      </trkpt>
      <trkpt lat="42.9352" lon="0.72648">
        <ele>1426.4</ele>
        <time>2020-02-23T12:11:00Z</time>
      </trkpt>
      <trkpt lat="42.9352" lon="0.72648">
        <ele>1426.4</ele>
        <time>2020-02-23T12:11:01Z</time>
      </trkpt>
      <trkpt lat="42.9352" lon="0.72645">
        <ele>1425.9</ele>
        <time>2020-02-23T12:11:02Z</time>
      </trkpt>
      <trkpt lat="42.9352" lon="0.72645">
        <ele>1425.9</ele>
        <time>2020-02-23T12:11:03Z</time>
      </trkpt>
      <trkpt lat="42.9352" lon="0.72645">
        <ele>1425.9</ele>
        <time>2020-02-23T12:11:04Z</time>
      </trkpt>
      <trkpt lat="42.9352" lon="0.72645">
        <ele>1425.9</ele>
        <time>2020-02-23T12:11:05Z</time>
      </trkpt>
      <trkpt lat="42.9352" lon="0.72645">
        <ele>1425.9</ele>
        <time>2020-02-23T12:11:06Z</time>
      </trkpt>
      <trkpt lat="42.9352" lon="0.72645">
        <ele>1425.9</ele>
        <time>2020-02-23T12:11:07Z</time>
      </trkpt>
      <trkpt lat="42.93521" lon="0.72643">
        <ele>1425.5</ele>
        <time>2020-02-23T12:11:08Z</time>
      </trkpt>
      <trkpt lat="42.93521" lon="0.72643">
        <ele>1425.5</ele>
        <time>2020-02-23T12:11:09Z</time>
      </trkpt>
      <trkpt lat="42.93521" lon="0.72643">
        <ele>1425.5</ele>
        <time>2020-02-23T12:11:10Z</time>
      </trkpt>
      <trkpt lat="42.93521" lon="0.72643">
        <ele>1425.5</ele>
        <time>2020-02-23T12:11:11Z</time>
      </trkpt>
      <trkpt lat="42.93521" lon="0.72643">
        <ele>1425.5</ele>
        <time>2020-02-23T12:11:12Z</time>
      </trkpt>
      <trkpt lat="42.93522" lon="0.72641">
        <ele>1425.2</ele>
        <time>2020-02-23T12:11:13Z</time>
      </trkpt>
      <trkpt lat="42.93522" lon="0.72641">
        <ele>1425.2</ele>
        <time>2020-02-23T12:11:14Z</time>
      </trkpt>
      <trkpt lat="42.93522" lon="0.72641">
        <ele>1425.2</ele>
        <time>2020-02-23T12:11:15Z</time>
      </trkpt>
      <trkpt lat="42.93522" lon="0.72641">
        <ele>1425.2</ele>
        <time>2020-02-23T12:11:16Z</time>
      </trkpt>
      <trkpt lat="42.93523" lon="0.72638">
        <ele>1424.9</ele>
        <time>2020-02-23T12:11:17Z</time>
      </trkpt>
      <trkpt lat="42.93523" lon="0.72638">
        <ele>1424.9</ele>
        <time>2020-02-23T12:11:18Z</time>
      </trkpt>
      <trkpt lat="42.93523" lon="0.72638">
        <ele>1424.9</ele>
        <time>2020-02-23T12:11:19Z</time>
      </trkpt>
      <trkpt lat="42.93523" lon="0.72638">
        <ele>1424.9</ele>
        <time>2020-02-23T12:11:20Z</time>
      </trkpt>
      <trkpt lat="42.93523" lon="0.72638">
        <ele>1424.9</ele>
        <time>2020-02-23T12:11:21Z</time>
      </trkpt>
      <trkpt lat="42.93523" lon="0.72638">
        <ele>1424.9</ele>
        <time>2020-02-23T12:11:22Z</time>
      </trkpt>
      <trkpt lat="42.93524" lon="0.72636">
        <ele>1424.6</ele>
        <time>2020-02-23T12:11:23Z</time>
      </trkpt>
      <trkpt lat="42.93524" lon="0.72636">
        <ele>1424.6</ele>
        <time>2020-02-23T12:11:24Z</time>
      </trkpt>
      <trkpt lat="42.93524" lon="0.72636">
        <ele>1424.6</ele>
        <time>2020-02-23T12:11:25Z</time>
      </trkpt>
      <trkpt lat="42.93524" lon="0.72636">
        <ele>1424.6</ele>
        <time>2020-02-23T12:11:26Z</time>
      </trkpt>
      <trkpt lat="42.93524" lon="0.72636">
        <ele>1424.6</ele>
        <time>2020-02-23T12:11:27Z</time>
      </trkpt>
      <trkpt lat="42.93524" lon="0.72633">
        <ele>1424.4</ele>
        <time>2020-02-23T12:11:28Z</time>
      </trkpt>
      <trkpt lat="42.93524" lon="0.72633">
        <ele>1424.4</ele>
        <time>2020-02-23T12:11:29Z</time>
      </trkpt>
      <trkpt lat="42.93523" lon="0.72631">
        <ele>1424.1</ele>
        <time>2020-02-23T12:11:30Z</time>
      </trkpt>
      <trkpt lat="42.93523" lon="0.72631">
        <ele>1424.1</ele>
        <time>2020-02-23T12:11:31Z</time>
      </trkpt>
      <trkpt lat="42.93523" lon="0.72631">
        <ele>1424.1</ele>
        <time>2020-02-23T12:11:32Z</time>
      </trkpt>
      <trkpt lat="42.93523" lon="0.72631">
        <ele>1424.1</ele>
        <time>2020-02-23T12:11:33Z</time>
      </trkpt>
      <trkpt lat="42.93523" lon="0.72628">
        <ele>1423.8</ele>
        <time>2020-02-23T12:11:34Z</time>
      </trkpt>
      <trkpt lat="42.93523" lon="0.72628">
        <ele>1423.8</ele>
        <time>2020-02-23T12:11:35Z</time>
      </trkpt>
      <trkpt lat="42.93523" lon="0.72628">
        <ele>1423.8</ele>
        <time>2020-02-23T12:11:36Z</time>
      </trkpt>
      <trkpt lat="42.93522" lon="0.72626">
        <ele>1423.5</ele>
        <time>2020-02-23T12:11:37Z</time>
      </trkpt>
      <trkpt lat="42.93522" lon="0.72626">
        <ele>1423.5</ele>
        <time>2020-02-23T12:11:38Z</time>
      </trkpt>
      <trkpt lat="42.93522" lon="0.72626">
        <ele>1423.5</ele>
        <time>2020-02-23T12:11:39Z</time>
      </trkpt>
      <trkpt lat="42.93522" lon="0.72626">
        <ele>1423.5</ele>
        <time>2020-02-23T12:11:40Z</time>
      </trkpt>
      <trkpt lat="42.93522" lon="0.72623">
        <ele>1423.1</ele>
        <time>2020-02-23T12:11:41Z</time>
      </trkpt>
      <trkpt lat="42.93522" lon="0.72623">
        <ele>1423.1</ele>
        <time>2020-02-23T12:11:42Z</time>
      </trkpt>
      <trkpt lat="42.93522" lon="0.72623">
        <ele>1423.1</ele>
        <time>2020-02-23T12:11:43Z</time>
      </trkpt>
      <trkpt lat="42.93522" lon="0.72623">
        <ele>1423.1</ele>
        <time>2020-02-23T12:11:44Z</time>
      </trkpt>
      <trkpt lat="42.93522" lon="0.7262">
        <ele>1422.9</ele>
        <time>2020-02-23T12:11:45Z</time>
      </trkpt>
      <trkpt lat="42.93522" lon="0.7262">
        <ele>1422.9</ele>
        <time>2020-02-23T12:11:46Z</time>
      </trkpt>
      <trkpt lat="42.93522" lon="0.7262">
        <ele>1422.9</ele>
        <time>2020-02-23T12:11:47Z</time>
      </trkpt>
      <trkpt lat="42.93522" lon="0.7262">
        <ele>1422.9</ele>
        <time>2020-02-23T12:11:48Z</time>
      </trkpt>
      <trkpt lat="42.93523" lon="0.72618">
        <ele>1422.5</ele>
        <time>2020-02-23T12:11:49Z</time>
      </trkpt>
      <trkpt lat="42.93523" lon="0.72618">
        <ele>1422.5</ele>
        <time>2020-02-23T12:11:50Z</time>
      </trkpt>
      <trkpt lat="42.93523" lon="0.72618">
        <ele>1422.5</ele>
        <time>2020-02-23T12:11:51Z</time>
      </trkpt>
      <trkpt lat="42.93523" lon="0.72618">
        <ele>1422.5</ele>
        <time>2020-02-23T12:11:52Z</time>
      </trkpt>
      <trkpt lat="42.93523" lon="0.72618">
        <ele>1422.5</ele>
        <time>2020-02-23T12:11:53Z</time>
      </trkpt>
      <trkpt lat="42.93523" lon="0.72618">
        <ele>1422.5</ele>
        <time>2020-02-23T12:11:54Z</time>
      </trkpt>
      <trkpt lat="42.93523" lon="0.72615">
        <ele>1422.2</ele>
        <time>2020-02-23T12:11:55Z</time>
      </trkpt>
      <trkpt lat="42.93523" lon="0.72615">
        <ele>1422.2</ele>
        <time>2020-02-23T12:11:56Z</time>
      </trkpt>
      <trkpt lat="42.93523" lon="0.72615">
        <ele>1422.2</ele>
        <time>2020-02-23T12:11:57Z</time>
      </trkpt>
      <trkpt lat="42.93523" lon="0.72615">
        <ele>1422.2</ele>
        <time>2020-02-23T12:11:58Z</time>
      </trkpt>
      <trkpt lat="42.93523" lon="0.72615">
        <ele>1422.2</ele>
        <time>2020-02-23T12:11:59Z</time>
      </trkpt>
      <trkpt lat="42.93522" lon="0.72612">
        <ele>1421.9</ele>
        <time>2020-02-23T12:12:00Z</time>
      </trkpt>
      <trkpt lat="42.93522" lon="0.72612">
        <ele>1421.9</ele>
        <time>2020-02-23T12:12:01Z</time>
      </trkpt>
      <trkpt lat="42.93523" lon="0.72611">
        <ele>1421.7</ele>
        <time>2020-02-23T12:12:02Z</time>
      </trkpt>
      <trkpt lat="42.93524" lon="0.72609">
        <ele>1421.5</ele>
        <time>2020-02-23T12:12:03Z</time>
      </trkpt>
      <trkpt lat="42.93524" lon="0.72608">
        <ele>1421.3</ele>
        <time>2020-02-23T12:12:04Z</time>
      </trkpt>
      <trkpt lat="42.93525" lon="0.72607">
        <ele>1421.1</ele>
        <time>2020-02-23T12:12:05Z</time>
      </trkpt>
      <trkpt lat="42.93526" lon="0.72605">
        <ele>1421</ele>
        <time>2020-02-23T12:12:06Z</time>
      </trkpt>
      <trkpt lat="42.93526" lon="0.72604">
        <ele>1420.8</ele>
        <time>2020-02-23T12:12:07Z</time>
      </trkpt>
      <trkpt lat="42.93527" lon="0.72602">
        <ele>1420.5</ele>
        <time>2020-02-23T12:12:08Z</time>
      </trkpt>
      <trkpt lat="42.93528" lon="0.72601">
        <ele>1420.2</ele>
        <time>2020-02-23T12:12:09Z</time>
      </trkpt>
      <trkpt lat="42.93527" lon="0.726">
        <ele>1419.9</ele>
        <time>2020-02-23T12:12:10Z</time>
      </trkpt>
      <trkpt lat="42.93527" lon="0.72599">
        <ele>1419.6</ele>
        <time>2020-02-23T12:12:11Z</time>
      </trkpt>
      <trkpt lat="42.93527" lon="0.72597">
        <ele>1419.4</ele>
        <time>2020-02-23T12:12:12Z</time>
      </trkpt>
      <trkpt lat="42.93526" lon="0.72596">
        <ele>1419.1</ele>
        <time>2020-02-23T12:12:13Z</time>
      </trkpt>
      <trkpt lat="42.93526" lon="0.72595">
        <ele>1418.9</ele>
        <time>2020-02-23T12:12:14Z</time>
      </trkpt>
      <trkpt lat="42.93526" lon="0.72594">
        <ele>1418.6</ele>
        <time>2020-02-23T12:12:15Z</time>
      </trkpt>
      <trkpt lat="42.93525" lon="0.72593">
        <ele>1418.4</ele>
        <time>2020-02-23T12:12:16Z</time>
      </trkpt>
      <trkpt lat="42.93525" lon="0.72592">
        <ele>1418.3</ele>
        <time>2020-02-23T12:12:17Z</time>
      </trkpt>
      <trkpt lat="42.93524" lon="0.7259">
        <ele>1418.1</ele>
        <time>2020-02-23T12:12:18Z</time>
      </trkpt>
      <trkpt lat="42.93524" lon="0.72589">
        <ele>1417.9</ele>
        <time>2020-02-23T12:12:19Z</time>
      </trkpt>
      <trkpt lat="42.93524" lon="0.72588">
        <ele>1417.8</ele>
        <time>2020-02-23T12:12:20Z</time>
      </trkpt>
      <trkpt lat="42.93525" lon="0.72588">
        <ele>1417.8</ele>
        <time>2020-02-23T12:12:21Z</time>
      </trkpt>
      <trkpt lat="42.93525" lon="0.72587">
        <ele>1417.6</ele>
        <time>2020-02-23T12:12:22Z</time>
      </trkpt>
      <trkpt lat="42.93525" lon="0.72586">
        <ele>1417.5</ele>
        <time>2020-02-23T12:12:23Z</time>
      </trkpt>
      <trkpt lat="42.93526" lon="0.72586">
        <ele>1417.4</ele>
        <time>2020-02-23T12:12:24Z</time>
      </trkpt>
      <trkpt lat="42.93526" lon="0.72585">
        <ele>1417.3</ele>
        <time>2020-02-23T12:12:25Z</time>
      </trkpt>
      <trkpt lat="42.93526" lon="0.72584">
        <ele>1417.2</ele>
        <time>2020-02-23T12:12:26Z</time>
      </trkpt>
      <trkpt lat="42.93527" lon="0.72584">
        <ele>1417</ele>
        <time>2020-02-23T12:12:27Z</time>
      </trkpt>
      <trkpt lat="42.93527" lon="0.72583">
        <ele>1416.9</ele>
        <time>2020-02-23T12:12:28Z</time>
      </trkpt>
      <trkpt lat="42.93527" lon="0.72582">
        <ele>1416.8</ele>
        <time>2020-02-23T12:12:29Z</time>
      </trkpt>
      <trkpt lat="42.93527" lon="0.72581">
        <ele>1416.7</ele>
        <time>2020-02-23T12:12:30Z</time>
      </trkpt>
      <trkpt lat="42.93528" lon="0.72581">
        <ele>1416.6</ele>
        <time>2020-02-23T12:12:31Z</time>
      </trkpt>
      <trkpt lat="42.93528" lon="0.7258">
        <ele>1416.5</ele>
        <time>2020-02-23T12:12:32Z</time>
      </trkpt>
      <trkpt lat="42.93528" lon="0.72579">
        <ele>1416.5</ele>
        <time>2020-02-23T12:12:33Z</time>
      </trkpt>
      <trkpt lat="42.93529" lon="0.72579">
        <ele>1416.5</ele>
        <time>2020-02-23T12:12:34Z</time>
      </trkpt>
      <trkpt lat="42.93528" lon="0.72578">
        <ele>1416.5</ele>
        <time>2020-02-23T12:12:35Z</time>
      </trkpt>
      <trkpt lat="42.93528" lon="0.72577">
        <ele>1416.4</ele>
        <time>2020-02-23T12:12:36Z</time>
      </trkpt>
      <trkpt lat="42.93528" lon="0.72576">
        <ele>1416.4</ele>
        <time>2020-02-23T12:12:37Z</time>
      </trkpt>
      <trkpt lat="42.93527" lon="0.72576">
        <ele>1416.4</ele>
        <time>2020-02-23T12:12:38Z</time>
      </trkpt>
      <trkpt lat="42.93527" lon="0.72575">
        <ele>1416.4</ele>
        <time>2020-02-23T12:12:39Z</time>
      </trkpt>
      <trkpt lat="42.93526" lon="0.72574">
        <ele>1416.3</ele>
        <time>2020-02-23T12:12:40Z</time>
      </trkpt>
      <trkpt lat="42.93526" lon="0.72574">
        <ele>1416.3</ele>
        <time>2020-02-23T12:12:41Z</time>
      </trkpt>
      <trkpt lat="42.93526" lon="0.72574">
        <ele>1416.3</ele>
        <time>2020-02-23T12:12:42Z</time>
      </trkpt>
      <trkpt lat="42.93526" lon="0.72574">
        <ele>1416.3</ele>
        <time>2020-02-23T12:12:43Z</time>
      </trkpt>
      <trkpt lat="42.93525" lon="0.72572">
        <ele>1415.9</ele>
        <time>2020-02-23T12:12:44Z</time>
      </trkpt>
      <trkpt lat="42.93525" lon="0.72572">
        <ele>1415.9</ele>
        <time>2020-02-23T12:12:45Z</time>
      </trkpt>
      <trkpt lat="42.93525" lon="0.72572">
        <ele>1415.9</ele>
        <time>2020-02-23T12:12:46Z</time>
      </trkpt>
      <trkpt lat="42.93525" lon="0.72572">
        <ele>1415.9</ele>
        <time>2020-02-23T12:12:47Z</time>
      </trkpt>
      <trkpt lat="42.93525" lon="0.72572">
        <ele>1415.9</ele>
        <time>2020-02-23T12:12:48Z</time>
      </trkpt>
      <trkpt lat="42.93525" lon="0.72572">
        <ele>1415.9</ele>
        <time>2020-02-23T12:12:49Z</time>
      </trkpt>
      <trkpt lat="42.93525" lon="0.72569">
        <ele>1415.5</ele>
        <time>2020-02-23T12:12:50Z</time>
      </trkpt>
      <trkpt lat="42.93525" lon="0.72569">
        <ele>1415.5</ele>
        <time>2020-02-23T12:12:51Z</time>
      </trkpt>
      <trkpt lat="42.93525" lon="0.72569">
        <ele>1415.5</ele>
        <time>2020-02-23T12:12:52Z</time>
      </trkpt>
      <trkpt lat="42.93524" lon="0.72566">
        <ele>1415.2</ele>
        <time>2020-02-23T12:12:53Z</time>
      </trkpt>
      <trkpt lat="42.93524" lon="0.72566">
        <ele>1415.2</ele>
        <time>2020-02-23T12:12:54Z</time>
      </trkpt>
      <trkpt lat="42.93524" lon="0.72564">
        <ele>1415.1</ele>
        <time>2020-02-23T12:12:55Z</time>
      </trkpt>
      <trkpt lat="42.93524" lon="0.72564">
        <ele>1415.1</ele>
        <time>2020-02-23T12:12:56Z</time>
      </trkpt>
      <trkpt lat="42.93524" lon="0.72564">
        <ele>1415.1</ele>
        <time>2020-02-23T12:12:57Z</time>
      </trkpt>
      <trkpt lat="42.93524" lon="0.72564">
        <ele>1415.1</ele>
        <time>2020-02-23T12:12:58Z</time>
      </trkpt>
      <trkpt lat="42.93524" lon="0.72564">
        <ele>1415.1</ele>
        <time>2020-02-23T12:12:59Z</time>
      </trkpt>
      <trkpt lat="42.93524" lon="0.72564">
        <ele>1415.1</ele>
        <time>2020-02-23T12:13:00Z</time>
      </trkpt>
      <trkpt lat="42.93523" lon="0.72561">
        <ele>1414.9</ele>
        <time>2020-02-23T12:13:01Z</time>
      </trkpt>
      <trkpt lat="42.93523" lon="0.72561">
        <ele>1414.9</ele>
        <time>2020-02-23T12:13:02Z</time>
      </trkpt>
      <trkpt lat="42.93525" lon="0.72559">
        <ele>1414.8</ele>
        <time>2020-02-23T12:13:03Z</time>
      </trkpt>
      <trkpt lat="42.93525" lon="0.72559">
        <ele>1414.8</ele>
        <time>2020-02-23T12:13:04Z</time>
      </trkpt>
      <trkpt lat="42.93525" lon="0.72559">
        <ele>1414.8</ele>
        <time>2020-02-23T12:13:05Z</time>
      </trkpt>
      <trkpt lat="42.93525" lon="0.72559">
        <ele>1414.8</ele>
        <time>2020-02-23T12:13:06Z</time>
      </trkpt>
      <trkpt lat="42.93525" lon="0.72559">
        <ele>1414.8</ele>
        <time>2020-02-23T12:13:07Z</time>
      </trkpt>
      <trkpt lat="42.93525" lon="0.72559">
        <ele>1414.8</ele>
        <time>2020-02-23T12:13:08Z</time>
      </trkpt>
      <trkpt lat="42.93527" lon="0.72559">
        <ele>1414.7</ele>
        <time>2020-02-23T12:13:09Z</time>
      </trkpt>
      <trkpt lat="42.93527" lon="0.72559">
        <ele>1414.7</ele>
        <time>2020-02-23T12:13:10Z</time>
      </trkpt>
      <trkpt lat="42.93527" lon="0.72559">
        <ele>1414.7</ele>
        <time>2020-02-23T12:13:11Z</time>
      </trkpt>
      <trkpt lat="42.93527" lon="0.72559">
        <ele>1414.7</ele>
        <time>2020-02-23T12:13:12Z</time>
      </trkpt>
      <trkpt lat="42.93527" lon="0.72559">
        <ele>1414.7</ele>
        <time>2020-02-23T12:13:13Z</time>
      </trkpt>
      <trkpt lat="42.93527" lon="0.72559">
        <ele>1414.7</ele>
        <time>2020-02-23T12:13:14Z</time>
      </trkpt>
      <trkpt lat="42.93529" lon="0.72557">
        <ele>1414.6</ele>
        <time>2020-02-23T12:13:15Z</time>
      </trkpt>
      <trkpt lat="42.93529" lon="0.72557">
        <ele>1414.6</ele>
        <time>2020-02-23T12:13:16Z</time>
      </trkpt>
      <trkpt lat="42.93529" lon="0.72557">
        <ele>1414.6</ele>
        <time>2020-02-23T12:13:17Z</time>
      </trkpt>
      <trkpt lat="42.93531" lon="0.72556">
        <ele>1414.6</ele>
        <time>2020-02-23T12:13:18Z</time>
      </trkpt>
      <trkpt lat="42.93531" lon="0.72556">
        <ele>1414.6</ele>
        <time>2020-02-23T12:13:19Z</time>
      </trkpt>
      <trkpt lat="42.93531" lon="0.72556">
        <ele>1414.6</ele>
        <time>2020-02-23T12:13:20Z</time>
      </trkpt>
      <trkpt lat="42.93533" lon="0.72556">
        <ele>1414.5</ele>
        <time>2020-02-23T12:13:21Z</time>
      </trkpt>
      <trkpt lat="42.93533" lon="0.72556">
        <ele>1414.5</ele>
        <time>2020-02-23T12:13:22Z</time>
      </trkpt>
      <trkpt lat="42.93535" lon="0.72555">
        <ele>1414.3</ele>
        <time>2020-02-23T12:13:23Z</time>
      </trkpt>
      <trkpt lat="42.93535" lon="0.72555">
        <ele>1414.3</ele>
        <time>2020-02-23T12:13:24Z</time>
      </trkpt>
      <trkpt lat="42.93535" lon="0.72555">
        <ele>1414.3</ele>
        <time>2020-02-23T12:13:25Z</time>
      </trkpt>
      <trkpt lat="42.93538" lon="0.72553">
        <ele>1414.1</ele>
        <time>2020-02-23T12:13:26Z</time>
      </trkpt>
      <trkpt lat="42.9354" lon="0.72551">
        <ele>1413.8</ele>
        <time>2020-02-23T12:13:27Z</time>
      </trkpt>
      <trkpt lat="42.93542" lon="0.72549">
        <ele>1413.8</ele>
        <time>2020-02-23T12:13:28Z</time>
      </trkpt>
      <trkpt lat="42.93545" lon="0.72547">
        <ele>1413.8</ele>
        <time>2020-02-23T12:13:29Z</time>
      </trkpt>
      <trkpt lat="42.93546" lon="0.72544">
        <ele>1413.8</ele>
        <time>2020-02-23T12:13:30Z</time>
      </trkpt>
      <trkpt lat="42.93547" lon="0.72541">
        <ele>1413.5</ele>
        <time>2020-02-23T12:13:31Z</time>
      </trkpt>
      <trkpt lat="42.93548" lon="0.72538">
        <ele>1413.2</ele>
        <time>2020-02-23T12:13:32Z</time>
      </trkpt>
      <trkpt lat="42.93549" lon="0.72535">
        <ele>1412.9</ele>
        <time>2020-02-23T12:13:33Z</time>
      </trkpt>
      <trkpt lat="42.93551" lon="0.72531">
        <ele>1412.4</ele>
        <time>2020-02-23T12:13:34Z</time>
      </trkpt>
      <trkpt lat="42.93552" lon="0.72529">
        <ele>1412.1</ele>
        <time>2020-02-23T12:13:35Z</time>
      </trkpt>
      <trkpt lat="42.93552" lon="0.72529">
        <ele>1412.1</ele>
        <time>2020-02-23T12:13:36Z</time>
      </trkpt>
      <trkpt lat="42.93554" lon="0.72526">
        <ele>1411.7</ele>
        <time>2020-02-23T12:13:37Z</time>
      </trkpt>
      <trkpt lat="42.93554" lon="0.72526">
        <ele>1411.7</ele>
        <time>2020-02-23T12:13:38Z</time>
      </trkpt>
      <trkpt lat="42.93554" lon="0.72523">
        <ele>1411.4</ele>
        <time>2020-02-23T12:13:39Z</time>
      </trkpt>
      <trkpt lat="42.93554" lon="0.72523">
        <ele>1411.4</ele>
        <time>2020-02-23T12:13:40Z</time>
      </trkpt>
      <trkpt lat="42.93556" lon="0.72521">
        <ele>1411.4</ele>
        <time>2020-02-23T12:13:41Z</time>
      </trkpt>
      <trkpt lat="42.93556" lon="0.72521">
        <ele>1411.4</ele>
        <time>2020-02-23T12:13:42Z</time>
      </trkpt>
      <trkpt lat="42.93556" lon="0.72521">
        <ele>1411.4</ele>
        <time>2020-02-23T12:13:43Z</time>
      </trkpt>
      <trkpt lat="42.93558" lon="0.7252">
        <ele>1411.5</ele>
        <time>2020-02-23T12:13:44Z</time>
      </trkpt>
      <trkpt lat="42.93558" lon="0.7252">
        <ele>1411.5</ele>
        <time>2020-02-23T12:13:45Z</time>
      </trkpt>
      <trkpt lat="42.93561" lon="0.72518">
        <ele>1411.6</ele>
        <time>2020-02-23T12:13:46Z</time>
      </trkpt>
      <trkpt lat="42.93561" lon="0.72518">
        <ele>1411.6</ele>
        <time>2020-02-23T12:13:47Z</time>
      </trkpt>
      <trkpt lat="42.93562" lon="0.72515">
        <ele>1411.7</ele>
        <time>2020-02-23T12:13:48Z</time>
      </trkpt>
      <trkpt lat="42.93562" lon="0.72515">
        <ele>1411.7</ele>
        <time>2020-02-23T12:13:49Z</time>
      </trkpt>
      <trkpt lat="42.93563" lon="0.72513">
        <ele>1411.6</ele>
        <time>2020-02-23T12:13:50Z</time>
      </trkpt>
      <trkpt lat="42.93563" lon="0.72513">
        <ele>1411.6</ele>
        <time>2020-02-23T12:13:51Z</time>
      </trkpt>
      <trkpt lat="42.93565" lon="0.72511">
        <ele>1411.5</ele>
        <time>2020-02-23T12:13:52Z</time>
      </trkpt>
      <trkpt lat="42.93565" lon="0.72511">
        <ele>1411.5</ele>
        <time>2020-02-23T12:13:53Z</time>
      </trkpt>
      <trkpt lat="42.93567" lon="0.72509">
        <ele>1411.5</ele>
        <time>2020-02-23T12:13:54Z</time>
      </trkpt>
      <trkpt lat="42.93567" lon="0.72509">
        <ele>1411.5</ele>
        <time>2020-02-23T12:13:55Z</time>
      </trkpt>
      <trkpt lat="42.93569" lon="0.72508">
        <ele>1411.4</ele>
        <time>2020-02-23T12:13:56Z</time>
      </trkpt>
      <trkpt lat="42.93569" lon="0.72508">
        <ele>1411.4</ele>
        <time>2020-02-23T12:13:57Z</time>
      </trkpt>
      <trkpt lat="42.93569" lon="0.72508">
        <ele>1411.4</ele>
        <time>2020-02-23T12:13:58Z</time>
      </trkpt>
      <trkpt lat="42.93569" lon="0.72508">
        <ele>1411.4</ele>
        <time>2020-02-23T12:13:59Z</time>
      </trkpt>
      <trkpt lat="42.93569" lon="0.72508">
        <ele>1411.4</ele>
        <time>2020-02-23T12:14:00Z</time>
      </trkpt>
      <trkpt lat="42.9357" lon="0.72505">
        <ele>1411.4</ele>
        <time>2020-02-23T12:14:01Z</time>
      </trkpt>
      <trkpt lat="42.9357" lon="0.72505">
        <ele>1411.4</ele>
        <time>2020-02-23T12:14:02Z</time>
      </trkpt>
      <trkpt lat="42.9357" lon="0.72505">
        <ele>1411.4</ele>
        <time>2020-02-23T12:14:03Z</time>
      </trkpt>
      <trkpt lat="42.9357" lon="0.72505">
        <ele>1411.4</ele>
        <time>2020-02-23T12:14:04Z</time>
      </trkpt>
      <trkpt lat="42.93571" lon="0.72504">
        <ele>1411.4</ele>
        <time>2020-02-23T12:14:05Z</time>
      </trkpt>
      <trkpt lat="42.93571" lon="0.72504">
        <ele>1411.4</ele>
        <time>2020-02-23T12:14:06Z</time>
      </trkpt>
      <trkpt lat="42.93571" lon="0.72504">
        <ele>1411.4</ele>
        <time>2020-02-23T12:14:07Z</time>
      </trkpt>
      <trkpt lat="42.93573" lon="0.72502">
        <ele>1411.4</ele>
        <time>2020-02-23T12:14:08Z</time>
      </trkpt>
      <trkpt lat="42.93573" lon="0.72502">
        <ele>1411.4</ele>
        <time>2020-02-23T12:14:09Z</time>
      </trkpt>
      <trkpt lat="42.93575" lon="0.72501">
        <ele>1411.4</ele>
        <time>2020-02-23T12:14:10Z</time>
      </trkpt>
      <trkpt lat="42.93575" lon="0.72501">
        <ele>1411.4</ele>
        <time>2020-02-23T12:14:11Z</time>
      </trkpt>
      <trkpt lat="42.93575" lon="0.72501">
        <ele>1411.4</ele>
        <time>2020-02-23T12:14:12Z</time>
      </trkpt>
      <trkpt lat="42.93576" lon="0.725">
        <ele>1411.5</ele>
        <time>2020-02-23T12:14:13Z</time>
      </trkpt>
      <trkpt lat="42.93576" lon="0.725">
        <ele>1411.5</ele>
        <time>2020-02-23T12:14:14Z</time>
      </trkpt>
      <trkpt lat="42.93576" lon="0.725">
        <ele>1411.5</ele>
        <time>2020-02-23T12:14:15Z</time>
      </trkpt>
      <trkpt lat="42.93576" lon="0.725">
        <ele>1411.5</ele>
        <time>2020-02-23T12:14:16Z</time>
      </trkpt>
      <trkpt lat="42.93579" lon="0.725">
        <ele>1411.5</ele>
        <time>2020-02-23T12:14:17Z</time>
      </trkpt>
      <trkpt lat="42.93579" lon="0.725">
        <ele>1411.5</ele>
        <time>2020-02-23T12:14:18Z</time>
      </trkpt>
      <trkpt lat="42.93579" lon="0.725">
        <ele>1411.5</ele>
        <time>2020-02-23T12:14:19Z</time>
      </trkpt>
      <trkpt lat="42.93579" lon="0.725">
        <ele>1411.5</ele>
        <time>2020-02-23T12:14:20Z</time>
      </trkpt>
      <trkpt lat="42.9358" lon="0.72499">
        <ele>1411.5</ele>
        <time>2020-02-23T12:14:21Z</time>
      </trkpt>
      <trkpt lat="42.9358" lon="0.72499">
        <ele>1411.5</ele>
        <time>2020-02-23T12:14:22Z</time>
      </trkpt>
      <trkpt lat="42.9358" lon="0.72499">
        <ele>1411.5</ele>
        <time>2020-02-23T12:14:23Z</time>
      </trkpt>
      <trkpt lat="42.9358" lon="0.72499">
        <ele>1411.5</ele>
        <time>2020-02-23T12:14:24Z</time>
      </trkpt>
      <trkpt lat="42.9358" lon="0.72499">
        <ele>1411.5</ele>
        <time>2020-02-23T12:14:25Z</time>
      </trkpt>
      <trkpt lat="42.93582" lon="0.72496">
        <ele>1411.6</ele>
        <time>2020-02-23T12:14:26Z</time>
      </trkpt>
      <trkpt lat="42.93582" lon="0.72496">
        <ele>1411.6</ele>
        <time>2020-02-23T12:14:27Z</time>
      </trkpt>
      <trkpt lat="42.93582" lon="0.72496">
        <ele>1411.6</ele>
        <time>2020-02-23T12:14:28Z</time>
      </trkpt>
      <trkpt lat="42.93583" lon="0.72495">
        <ele>1411.7</ele>
        <time>2020-02-23T12:14:29Z</time>
      </trkpt>
      <trkpt lat="42.93583" lon="0.72495">
        <ele>1411.7</ele>
        <time>2020-02-23T12:14:30Z</time>
      </trkpt>
      <trkpt lat="42.93583" lon="0.72495">
        <ele>1411.7</ele>
        <time>2020-02-23T12:14:31Z</time>
      </trkpt>
      <trkpt lat="42.93583" lon="0.72495">
        <ele>1411.7</ele>
        <time>2020-02-23T12:14:32Z</time>
      </trkpt>
      <trkpt lat="42.93583" lon="0.72495">
        <ele>1411.7</ele>
        <time>2020-02-23T12:14:33Z</time>
      </trkpt>
      <trkpt lat="42.93583" lon="0.72495">
        <ele>1411.7</ele>
        <time>2020-02-23T12:14:34Z</time>
      </trkpt>
      <trkpt lat="42.93583" lon="0.72495">
        <ele>1411.7</ele>
        <time>2020-02-23T12:14:35Z</time>
      </trkpt>
      <trkpt lat="42.93585" lon="0.72493">
        <ele>1411.8</ele>
        <time>2020-02-23T12:14:36Z</time>
      </trkpt>
      <trkpt lat="42.93585" lon="0.72493">
        <ele>1411.8</ele>
        <time>2020-02-23T12:14:37Z</time>
      </trkpt>
      <trkpt lat="42.93585" lon="0.72493">
        <ele>1411.8</ele>
        <time>2020-02-23T12:14:38Z</time>
      </trkpt>
      <trkpt lat="42.93586" lon="0.72491">
        <ele>1411.8</ele>
        <time>2020-02-23T12:14:39Z</time>
      </trkpt>
      <trkpt lat="42.93586" lon="0.72491">
        <ele>1411.8</ele>
        <time>2020-02-23T12:14:40Z</time>
      </trkpt>
      <trkpt lat="42.93586" lon="0.72491">
        <ele>1411.8</ele>
        <time>2020-02-23T12:14:41Z</time>
      </trkpt>
      <trkpt lat="42.93587" lon="0.72488">
        <ele>1411.7</ele>
        <time>2020-02-23T12:14:42Z</time>
      </trkpt>
      <trkpt lat="42.93587" lon="0.72488">
        <ele>1411.7</ele>
        <time>2020-02-23T12:14:43Z</time>
      </trkpt>
      <trkpt lat="42.93587" lon="0.72488">
        <ele>1411.7</ele>
        <time>2020-02-23T12:14:44Z</time>
      </trkpt>
      <trkpt lat="42.93589" lon="0.72487">
        <ele>1411.5</ele>
        <time>2020-02-23T12:14:45Z</time>
      </trkpt>
      <trkpt lat="42.93589" lon="0.72487">
        <ele>1411.5</ele>
        <time>2020-02-23T12:14:46Z</time>
      </trkpt>
      <trkpt lat="42.93591" lon="0.72486">
        <ele>1411.4</ele>
        <time>2020-02-23T12:14:47Z</time>
      </trkpt>
      <trkpt lat="42.93591" lon="0.72486">
        <ele>1411.4</ele>
        <time>2020-02-23T12:14:48Z</time>
      </trkpt>
      <trkpt lat="42.93591" lon="0.72486">
        <ele>1411.4</ele>
        <time>2020-02-23T12:14:49Z</time>
      </trkpt>
      <trkpt lat="42.93591" lon="0.72486">
        <ele>1411.4</ele>
        <time>2020-02-23T12:14:50Z</time>
      </trkpt>
      <trkpt lat="42.93591" lon="0.72486">
        <ele>1411.4</ele>
        <time>2020-02-23T12:14:51Z</time>
      </trkpt>
      <trkpt lat="42.93593" lon="0.72486">
        <ele>1411.4</ele>
        <time>2020-02-23T12:14:52Z</time>
      </trkpt>
      <trkpt lat="42.93593" lon="0.72486">
        <ele>1411.4</ele>
        <time>2020-02-23T12:14:53Z</time>
      </trkpt>
      <trkpt lat="42.93593" lon="0.72486">
        <ele>1411.4</ele>
        <time>2020-02-23T12:14:54Z</time>
      </trkpt>
      <trkpt lat="42.93593" lon="0.72486">
        <ele>1411.4</ele>
        <time>2020-02-23T12:14:55Z</time>
      </trkpt>
      <trkpt lat="42.93595" lon="0.72485">
        <ele>1411.3</ele>
        <time>2020-02-23T12:14:56Z</time>
      </trkpt>
      <trkpt lat="42.93595" lon="0.72485">
        <ele>1411.3</ele>
        <time>2020-02-23T12:14:57Z</time>
      </trkpt>
      <trkpt lat="42.93595" lon="0.72485">
        <ele>1411.3</ele>
        <time>2020-02-23T12:14:58Z</time>
      </trkpt>
      <trkpt lat="42.93597" lon="0.72485">
        <ele>1411.3</ele>
        <time>2020-02-23T12:14:59Z</time>
      </trkpt>
      <trkpt lat="42.93597" lon="0.72485">
        <ele>1411.3</ele>
        <time>2020-02-23T12:15:00Z</time>
      </trkpt>
      <trkpt lat="42.93597" lon="0.72485">
        <ele>1411.3</ele>
        <time>2020-02-23T12:15:01Z</time>
      </trkpt>
      <trkpt lat="42.93597" lon="0.72485">
        <ele>1411.3</ele>
        <time>2020-02-23T12:15:02Z</time>
      </trkpt>
      <trkpt lat="42.93597" lon="0.72485">
        <ele>1411.3</ele>
        <time>2020-02-23T12:15:03Z</time>
      </trkpt>
      <trkpt lat="42.93597" lon="0.72485">
        <ele>1411.3</ele>
        <time>2020-02-23T12:15:04Z</time>
      </trkpt>
      <trkpt lat="42.93597" lon="0.72485">
        <ele>1411.3</ele>
        <time>2020-02-23T12:15:05Z</time>
      </trkpt>
      <trkpt lat="42.93597" lon="0.72485">
        <ele>1411.3</ele>
        <time>2020-02-23T12:15:06Z</time>
      </trkpt>
      <trkpt lat="42.93597" lon="0.72485">
        <ele>1411.3</ele>
        <time>2020-02-23T12:15:07Z</time>
      </trkpt>
      <trkpt lat="42.93597" lon="0.72485">
        <ele>1411.3</ele>
        <time>2020-02-23T12:15:08Z</time>
      </trkpt>
      <trkpt lat="42.93597" lon="0.72485">
        <ele>1411.3</ele>
        <time>2020-02-23T12:15:09Z</time>
      </trkpt>
      <trkpt lat="42.93597" lon="0.72485">
        <ele>1411.3</ele>
        <time>2020-02-23T12:15:10Z</time>
      </trkpt>
      <trkpt lat="42.93597" lon="0.72485">
        <ele>1411.3</ele>
        <time>2020-02-23T12:15:11Z</time>
      </trkpt>
      <trkpt lat="42.93597" lon="0.72485">
        <ele>1411.3</ele>
        <time>2020-02-23T12:15:12Z</time>
      </trkpt>
      <trkpt lat="42.93597" lon="0.72485">
        <ele>1411.3</ele>
        <time>2020-02-23T12:15:13Z</time>
      </trkpt>
      <trkpt lat="42.93597" lon="0.72485">
        <ele>1411.3</ele>
        <time>2020-02-23T12:15:14Z</time>
      </trkpt>
      <trkpt lat="42.93597" lon="0.72485">
        <ele>1411.3</ele>
        <time>2020-02-23T12:15:15Z</time>
      </trkpt>
      <trkpt lat="42.93597" lon="0.72485">
        <ele>1411.3</ele>
        <time>2020-02-23T12:15:16Z</time>
      </trkpt>
      <trkpt lat="42.93597" lon="0.72485">
        <ele>1411.3</ele>
        <time>2020-02-23T12:15:17Z</time>
      </trkpt>
      <trkpt lat="42.93597" lon="0.72485">
        <ele>1411.3</ele>
        <time>2020-02-23T12:15:18Z</time>
      </trkpt>
      <trkpt lat="42.93598" lon="0.72482">
        <ele>1411.3</ele>
        <time>2020-02-23T12:15:19Z</time>
      </trkpt>
      <trkpt lat="42.93599" lon="0.7248">
        <ele>1411.1</ele>
        <time>2020-02-23T12:15:20Z</time>
      </trkpt>
      <trkpt lat="42.93599" lon="0.7248">
        <ele>1411.1</ele>
        <time>2020-02-23T12:15:21Z</time>
      </trkpt>
      <trkpt lat="42.93599" lon="0.7248">
        <ele>1411.1</ele>
        <time>2020-02-23T12:15:22Z</time>
      </trkpt>
      <trkpt lat="42.936" lon="0.72478">
        <ele>1410.8</ele>
        <time>2020-02-23T12:15:23Z</time>
      </trkpt>
      <trkpt lat="42.936" lon="0.72478">
        <ele>1410.8</ele>
        <time>2020-02-23T12:15:24Z</time>
      </trkpt>
      <trkpt lat="42.93601" lon="0.72476">
        <ele>1410.6</ele>
        <time>2020-02-23T12:15:25Z</time>
      </trkpt>
      <trkpt lat="42.93601" lon="0.72476">
        <ele>1410.6</ele>
        <time>2020-02-23T12:15:26Z</time>
      </trkpt>
      <trkpt lat="42.93601" lon="0.72476">
        <ele>1410.6</ele>
        <time>2020-02-23T12:15:27Z</time>
      </trkpt>
      <trkpt lat="42.93601" lon="0.72476">
        <ele>1410.6</ele>
        <time>2020-02-23T12:15:28Z</time>
      </trkpt>
      <trkpt lat="42.93601" lon="0.72476">
        <ele>1410.6</ele>
        <time>2020-02-23T12:15:29Z</time>
      </trkpt>
      <trkpt lat="42.93602" lon="0.72472">
        <ele>1410.3</ele>
        <time>2020-02-23T12:15:30Z</time>
      </trkpt>
      <trkpt lat="42.93602" lon="0.72472">
        <ele>1410.3</ele>
        <time>2020-02-23T12:15:31Z</time>
      </trkpt>
      <trkpt lat="42.93602" lon="0.72472">
        <ele>1410.3</ele>
        <time>2020-02-23T12:15:32Z</time>
      </trkpt>
      <trkpt lat="42.93604" lon="0.72469">
        <ele>1409.7</ele>
        <time>2020-02-23T12:15:33Z</time>
      </trkpt>
      <trkpt lat="42.93604" lon="0.72469">
        <ele>1409.7</ele>
        <time>2020-02-23T12:15:34Z</time>
      </trkpt>
      <trkpt lat="42.93605" lon="0.72467">
        <ele>1409.2</ele>
        <time>2020-02-23T12:15:35Z</time>
      </trkpt>
      <trkpt lat="42.93605" lon="0.72467">
        <ele>1409.2</ele>
        <time>2020-02-23T12:15:36Z</time>
      </trkpt>
      <trkpt lat="42.93606" lon="0.72464">
        <ele>1408.6</ele>
        <time>2020-02-23T12:15:37Z</time>
      </trkpt>
      <trkpt lat="42.93606" lon="0.72464">
        <ele>1408.6</ele>
        <time>2020-02-23T12:15:38Z</time>
      </trkpt>
      <trkpt lat="42.93608" lon="0.72462">
        <ele>1408</ele>
        <time>2020-02-23T12:15:39Z</time>
      </trkpt>
      <trkpt lat="42.93608" lon="0.72462">
        <ele>1408</ele>
        <time>2020-02-23T12:15:40Z</time>
      </trkpt>
      <trkpt lat="42.93608" lon="0.72462">
        <ele>1408</ele>
        <time>2020-02-23T12:15:41Z</time>
      </trkpt>
      <trkpt lat="42.93609" lon="0.72461">
        <ele>1407.8</ele>
        <time>2020-02-23T12:15:42Z</time>
      </trkpt>
      <trkpt lat="42.9361" lon="0.72459">
        <ele>1407.6</ele>
        <time>2020-02-23T12:15:43Z</time>
      </trkpt>
      <trkpt lat="42.93611" lon="0.72458">
        <ele>1407.4</ele>
        <time>2020-02-23T12:15:44Z</time>
      </trkpt>
      <trkpt lat="42.93612" lon="0.72456">
        <ele>1407.2</ele>
        <time>2020-02-23T12:15:45Z</time>
      </trkpt>
      <trkpt lat="42.93613" lon="0.72455">
        <ele>1407</ele>
        <time>2020-02-23T12:15:46Z</time>
      </trkpt>
      <trkpt lat="42.93613" lon="0.72455">
        <ele>1407</ele>
        <time>2020-02-23T12:15:47Z</time>
      </trkpt>
      <trkpt lat="42.93613" lon="0.72455">
        <ele>1407</ele>
        <time>2020-02-23T12:15:48Z</time>
      </trkpt>
      <trkpt lat="42.93614" lon="0.72452">
        <ele>1406.6</ele>
        <time>2020-02-23T12:15:49Z</time>
      </trkpt>
      <trkpt lat="42.93614" lon="0.72452">
        <ele>1406.6</ele>
        <time>2020-02-23T12:15:50Z</time>
      </trkpt>
      <trkpt lat="42.93614" lon="0.72452">
        <ele>1406.6</ele>
        <time>2020-02-23T12:15:51Z</time>
      </trkpt>
      <trkpt lat="42.93616" lon="0.72449">
        <ele>1406.4</ele>
        <time>2020-02-23T12:15:52Z</time>
      </trkpt>
      <trkpt lat="42.93617" lon="0.72447">
        <ele>1406.2</ele>
        <time>2020-02-23T12:15:53Z</time>
      </trkpt>
      <trkpt lat="42.93617" lon="0.72447">
        <ele>1406.2</ele>
        <time>2020-02-23T12:15:54Z</time>
      </trkpt>
      <trkpt lat="42.93617" lon="0.72447">
        <ele>1406.2</ele>
        <time>2020-02-23T12:15:55Z</time>
      </trkpt>
      <trkpt lat="42.93617" lon="0.72447">
        <ele>1406.2</ele>
        <time>2020-02-23T12:15:56Z</time>
      </trkpt>
      <trkpt lat="42.93617" lon="0.72447">
        <ele>1406.2</ele>
        <time>2020-02-23T12:15:57Z</time>
      </trkpt>
      <trkpt lat="42.93618" lon="0.72444">
        <ele>1405.9</ele>
        <time>2020-02-23T12:15:58Z</time>
      </trkpt>
      <trkpt lat="42.93618" lon="0.72444">
        <ele>1405.9</ele>
        <time>2020-02-23T12:15:59Z</time>
      </trkpt>
      <trkpt lat="42.93619" lon="0.72443">
        <ele>1405.8</ele>
        <time>2020-02-23T12:16:00Z</time>
      </trkpt>
      <trkpt lat="42.93619" lon="0.72442">
        <ele>1405.7</ele>
        <time>2020-02-23T12:16:01Z</time>
      </trkpt>
      <trkpt lat="42.93619" lon="0.72441">
        <ele>1405.6</ele>
        <time>2020-02-23T12:16:02Z</time>
      </trkpt>
      <trkpt lat="42.9362" lon="0.72441">
        <ele>1405.5</ele>
        <time>2020-02-23T12:16:03Z</time>
      </trkpt>
      <trkpt lat="42.9362" lon="0.7244">
        <ele>1405.3</ele>
        <time>2020-02-23T12:16:04Z</time>
      </trkpt>
      <trkpt lat="42.9362" lon="0.72439">
        <ele>1405.1</ele>
        <time>2020-02-23T12:16:05Z</time>
      </trkpt>
      <trkpt lat="42.93622" lon="0.72437">
        <ele>1404.6</ele>
        <time>2020-02-23T12:16:06Z</time>
      </trkpt>
      <trkpt lat="42.93622" lon="0.72437">
        <ele>1404.6</ele>
        <time>2020-02-23T12:16:07Z</time>
      </trkpt>
      <trkpt lat="42.93622" lon="0.72437">
        <ele>1404.6</ele>
        <time>2020-02-23T12:16:08Z</time>
      </trkpt>
      <trkpt lat="42.93624" lon="0.72435">
        <ele>1404.1</ele>
        <time>2020-02-23T12:16:09Z</time>
      </trkpt>
      <trkpt lat="42.93624" lon="0.72435">
        <ele>1404.1</ele>
        <time>2020-02-23T12:16:10Z</time>
      </trkpt>
      <trkpt lat="42.93624" lon="0.72435">
        <ele>1404.1</ele>
        <time>2020-02-23T12:16:11Z</time>
      </trkpt>
      <trkpt lat="42.93626" lon="0.72433">
        <ele>1403.9</ele>
        <time>2020-02-23T12:16:12Z</time>
      </trkpt>
      <trkpt lat="42.93626" lon="0.72433">
        <ele>1403.9</ele>
        <time>2020-02-23T12:16:13Z</time>
      </trkpt>
      <trkpt lat="42.93628" lon="0.72431">
        <ele>1403.7</ele>
        <time>2020-02-23T12:16:14Z</time>
      </trkpt>
      <trkpt lat="42.93628" lon="0.72431">
        <ele>1403.7</ele>
        <time>2020-02-23T12:16:15Z</time>
      </trkpt>
      <trkpt lat="42.93628" lon="0.72431">
        <ele>1403.7</ele>
        <time>2020-02-23T12:16:16Z</time>
      </trkpt>
      <trkpt lat="42.93628" lon="0.72431">
        <ele>1403.7</ele>
        <time>2020-02-23T12:16:17Z</time>
      </trkpt>
      <trkpt lat="42.9363" lon="0.72431">
        <ele>1404</ele>
        <time>2020-02-23T12:16:18Z</time>
      </trkpt>
      <trkpt lat="42.9363" lon="0.72431">
        <ele>1404</ele>
        <time>2020-02-23T12:16:19Z</time>
      </trkpt>
      <trkpt lat="42.93632" lon="0.72429">
        <ele>1404.3</ele>
        <time>2020-02-23T12:16:20Z</time>
      </trkpt>
      <trkpt lat="42.93632" lon="0.72429">
        <ele>1404.3</ele>
        <time>2020-02-23T12:16:21Z</time>
      </trkpt>
      <trkpt lat="42.93632" lon="0.72429">
        <ele>1404.3</ele>
        <time>2020-02-23T12:16:22Z</time>
      </trkpt>
      <trkpt lat="42.93634" lon="0.72426">
        <ele>1404</ele>
        <time>2020-02-23T12:16:23Z</time>
      </trkpt>
      <trkpt lat="42.93634" lon="0.72426">
        <ele>1404</ele>
        <time>2020-02-23T12:16:24Z</time>
      </trkpt>
      <trkpt lat="42.93634" lon="0.72426">
        <ele>1404</ele>
        <time>2020-02-23T12:16:25Z</time>
      </trkpt>
      <trkpt lat="42.93636" lon="0.72424">
        <ele>1403.6</ele>
        <time>2020-02-23T12:16:26Z</time>
      </trkpt>
      <trkpt lat="42.93638" lon="0.72422">
        <ele>1403.8</ele>
        <time>2020-02-23T12:16:27Z</time>
      </trkpt>
      <trkpt lat="42.93638" lon="0.72422">
        <ele>1403.8</ele>
        <time>2020-02-23T12:16:28Z</time>
      </trkpt>
      <trkpt lat="42.93638" lon="0.72422">
        <ele>1403.8</ele>
        <time>2020-02-23T12:16:29Z</time>
      </trkpt>
      <trkpt lat="42.9364" lon="0.72421">
        <ele>1404</ele>
        <time>2020-02-23T12:16:30Z</time>
      </trkpt>
      <trkpt lat="42.9364" lon="0.72421">
        <ele>1404</ele>
        <time>2020-02-23T12:16:31Z</time>
      </trkpt>
      <trkpt lat="42.93642" lon="0.7242">
        <ele>1404.1</ele>
        <time>2020-02-23T12:16:32Z</time>
      </trkpt>
      <trkpt lat="42.93642" lon="0.7242">
        <ele>1404.1</ele>
        <time>2020-02-23T12:16:33Z</time>
      </trkpt>
      <trkpt lat="42.93642" lon="0.7242">
        <ele>1404.1</ele>
        <time>2020-02-23T12:16:34Z</time>
      </trkpt>
      <trkpt lat="42.93644" lon="0.72418">
        <ele>1403.8</ele>
        <time>2020-02-23T12:16:35Z</time>
      </trkpt>
      <trkpt lat="42.93644" lon="0.72418">
        <ele>1403.8</ele>
        <time>2020-02-23T12:16:36Z</time>
      </trkpt>
      <trkpt lat="42.93644" lon="0.72418">
        <ele>1403.8</ele>
        <time>2020-02-23T12:16:37Z</time>
      </trkpt>
      <trkpt lat="42.93646" lon="0.72417">
        <ele>1403.6</ele>
        <time>2020-02-23T12:16:38Z</time>
      </trkpt>
      <trkpt lat="42.93646" lon="0.72417">
        <ele>1403.6</ele>
        <time>2020-02-23T12:16:39Z</time>
      </trkpt>
      <trkpt lat="42.93648" lon="0.72416">
        <ele>1403.5</ele>
        <time>2020-02-23T12:16:40Z</time>
      </trkpt>
      <trkpt lat="42.93648" lon="0.72416">
        <ele>1403.5</ele>
        <time>2020-02-23T12:16:41Z</time>
      </trkpt>
      <trkpt lat="42.93648" lon="0.72416">
        <ele>1403.5</ele>
        <time>2020-02-23T12:16:42Z</time>
      </trkpt>
      <trkpt lat="42.93648" lon="0.72416">
        <ele>1403.5</ele>
        <time>2020-02-23T12:16:43Z</time>
      </trkpt>
      <trkpt lat="42.93648" lon="0.72416">
        <ele>1403.5</ele>
        <time>2020-02-23T12:16:44Z</time>
      </trkpt>
      <trkpt lat="42.93648" lon="0.72416">
        <ele>1403.5</ele>
        <time>2020-02-23T12:16:45Z</time>
      </trkpt>
      <trkpt lat="42.93648" lon="0.72416">
        <ele>1403.5</ele>
        <time>2020-02-23T12:16:46Z</time>
      </trkpt>
      <trkpt lat="42.93648" lon="0.72416">
        <ele>1403.5</ele>
        <time>2020-02-23T12:16:47Z</time>
      </trkpt>
      <trkpt lat="42.9365" lon="0.72416">
        <ele>1403.8</ele>
        <time>2020-02-23T12:16:48Z</time>
      </trkpt>
      <trkpt lat="42.9365" lon="0.72416">
        <ele>1403.8</ele>
        <time>2020-02-23T12:16:49Z</time>
      </trkpt>
      <trkpt lat="42.9365" lon="0.72416">
        <ele>1403.8</ele>
        <time>2020-02-23T12:16:50Z</time>
      </trkpt>
      <trkpt lat="42.9365" lon="0.72416">
        <ele>1403.8</ele>
        <time>2020-02-23T12:16:51Z</time>
      </trkpt>
      <trkpt lat="42.93653" lon="0.72416">
        <ele>1404</ele>
        <time>2020-02-23T12:16:52Z</time>
      </trkpt>
      <trkpt lat="42.93654" lon="0.72418">
        <ele>1404</ele>
        <time>2020-02-23T12:16:53Z</time>
      </trkpt>
      <trkpt lat="42.93654" lon="0.72418">
        <ele>1404</ele>
        <time>2020-02-23T12:16:54Z</time>
      </trkpt>
      <trkpt lat="42.93656" lon="0.72419">
        <ele>1404.1</ele>
        <time>2020-02-23T12:16:55Z</time>
      </trkpt>
      <trkpt lat="42.93656" lon="0.72419">
        <ele>1404.1</ele>
        <time>2020-02-23T12:16:56Z</time>
      </trkpt>
      <trkpt lat="42.93656" lon="0.72419">
        <ele>1404.1</ele>
        <time>2020-02-23T12:16:57Z</time>
      </trkpt>
      <trkpt lat="42.93656" lon="0.72419">
        <ele>1404.1</ele>
        <time>2020-02-23T12:16:58Z</time>
      </trkpt>
      <trkpt lat="42.93656" lon="0.72419">
        <ele>1404.1</ele>
        <time>2020-02-23T12:16:59Z</time>
      </trkpt>
      <trkpt lat="42.93656" lon="0.72419">
        <ele>1404.1</ele>
        <time>2020-02-23T12:17:00Z</time>
      </trkpt>
      <trkpt lat="42.93656" lon="0.72419">
        <ele>1404.1</ele>
        <time>2020-02-23T12:17:01Z</time>
      </trkpt>
      <trkpt lat="42.93659" lon="0.7242">
        <ele>1404.7</ele>
        <time>2020-02-23T12:17:02Z</time>
      </trkpt>
      <trkpt lat="42.93659" lon="0.7242">
        <ele>1404.7</ele>
        <time>2020-02-23T12:17:03Z</time>
      </trkpt>
      <trkpt lat="42.93659" lon="0.7242">
        <ele>1404.7</ele>
        <time>2020-02-23T12:17:04Z</time>
      </trkpt>
      <trkpt lat="42.93659" lon="0.7242">
        <ele>1404.7</ele>
        <time>2020-02-23T12:17:05Z</time>
      </trkpt>
      <trkpt lat="42.93659" lon="0.7242">
        <ele>1404.7</ele>
        <time>2020-02-23T12:17:06Z</time>
      </trkpt>
      <trkpt lat="42.93661" lon="0.72422">
        <ele>1405.2</ele>
        <time>2020-02-23T12:17:07Z</time>
      </trkpt>
      <trkpt lat="42.93661" lon="0.72422">
        <ele>1405.2</ele>
        <time>2020-02-23T12:17:08Z</time>
      </trkpt>
      <trkpt lat="42.93661" lon="0.72422">
        <ele>1405.2</ele>
        <time>2020-02-23T12:17:09Z</time>
      </trkpt>
      <trkpt lat="42.93661" lon="0.72422">
        <ele>1405.2</ele>
        <time>2020-02-23T12:17:10Z</time>
      </trkpt>
      <trkpt lat="42.93663" lon="0.72422">
        <ele>1405.7</ele>
        <time>2020-02-23T12:17:11Z</time>
      </trkpt>
      <trkpt lat="42.93663" lon="0.72422">
        <ele>1405.7</ele>
        <time>2020-02-23T12:17:12Z</time>
      </trkpt>
      <trkpt lat="42.93663" lon="0.72422">
        <ele>1405.7</ele>
        <time>2020-02-23T12:17:13Z</time>
      </trkpt>
      <trkpt lat="42.93663" lon="0.72422">
        <ele>1405.7</ele>
        <time>2020-02-23T12:17:14Z</time>
      </trkpt>
      <trkpt lat="42.93663" lon="0.72422">
        <ele>1405.7</ele>
        <time>2020-02-23T12:17:15Z</time>
      </trkpt>
      <trkpt lat="42.93663" lon="0.72422">
        <ele>1405.7</ele>
        <time>2020-02-23T12:17:16Z</time>
      </trkpt>
      <trkpt lat="42.93665" lon="0.72422">
        <ele>1406.2</ele>
        <time>2020-02-23T12:17:17Z</time>
      </trkpt>
      <trkpt lat="42.93665" lon="0.72422">
        <ele>1406.2</ele>
        <time>2020-02-23T12:17:18Z</time>
      </trkpt>
      <trkpt lat="42.93665" lon="0.72422">
        <ele>1406.2</ele>
        <time>2020-02-23T12:17:19Z</time>
      </trkpt>
      <trkpt lat="42.93665" lon="0.72422">
        <ele>1406.2</ele>
        <time>2020-02-23T12:17:20Z</time>
      </trkpt>
      <trkpt lat="42.93665" lon="0.72422">
        <ele>1406.2</ele>
        <time>2020-02-23T12:17:21Z</time>
      </trkpt>
      <trkpt lat="42.93668" lon="0.72422">
        <ele>1406.7</ele>
        <time>2020-02-23T12:17:22Z</time>
      </trkpt>
      <trkpt lat="42.93668" lon="0.72422">
        <ele>1406.7</ele>
        <time>2020-02-23T12:17:23Z</time>
      </trkpt>
      <trkpt lat="42.93668" lon="0.72422">
        <ele>1406.7</ele>
        <time>2020-02-23T12:17:24Z</time>
      </trkpt>
      <trkpt lat="42.93668" lon="0.72422">
        <ele>1406.7</ele>
        <time>2020-02-23T12:17:25Z</time>
      </trkpt>
      <trkpt lat="42.93669" lon="0.72424">
        <ele>1407</ele>
        <time>2020-02-23T12:17:26Z</time>
      </trkpt>
      <trkpt lat="42.93671" lon="0.72425">
        <ele>1407.3</ele>
        <time>2020-02-23T12:17:27Z</time>
      </trkpt>
      <trkpt lat="42.93671" lon="0.72425">
        <ele>1407.3</ele>
        <time>2020-02-23T12:17:28Z</time>
      </trkpt>
      <trkpt lat="42.93674" lon="0.72427">
        <ele>1407.8</ele>
        <time>2020-02-23T12:17:29Z</time>
      </trkpt>
      <trkpt lat="42.93674" lon="0.72427">
        <ele>1407.8</ele>
        <time>2020-02-23T12:17:30Z</time>
      </trkpt>
      <trkpt lat="42.93674" lon="0.72427">
        <ele>1407.8</ele>
        <time>2020-02-23T12:17:31Z</time>
      </trkpt>
      <trkpt lat="42.93676" lon="0.72428">
        <ele>1408.2</ele>
        <time>2020-02-23T12:17:32Z</time>
      </trkpt>
      <trkpt lat="42.93676" lon="0.72428">
        <ele>1408.2</ele>
        <time>2020-02-23T12:17:33Z</time>
      </trkpt>
      <trkpt lat="42.93677" lon="0.7243">
        <ele>1408.5</ele>
        <time>2020-02-23T12:17:34Z</time>
      </trkpt>
      <trkpt lat="42.93677" lon="0.7243">
        <ele>1408.5</ele>
        <time>2020-02-23T12:17:35Z</time>
      </trkpt>
      <trkpt lat="42.93677" lon="0.7243">
        <ele>1408.5</ele>
        <time>2020-02-23T12:17:36Z</time>
      </trkpt>
      <trkpt lat="42.93677" lon="0.7243">
        <ele>1408.5</ele>
        <time>2020-02-23T12:17:37Z</time>
      </trkpt>
      <trkpt lat="42.9368" lon="0.72432">
        <ele>1408.7</ele>
        <time>2020-02-23T12:17:38Z</time>
      </trkpt>
      <trkpt lat="42.9368" lon="0.72432">
        <ele>1408.7</ele>
        <time>2020-02-23T12:17:39Z</time>
      </trkpt>
      <trkpt lat="42.93682" lon="0.72433">
        <ele>1408.8</ele>
        <time>2020-02-23T12:17:40Z</time>
      </trkpt>
      <trkpt lat="42.93682" lon="0.72433">
        <ele>1408.8</ele>
        <time>2020-02-23T12:17:41Z</time>
      </trkpt>
      <trkpt lat="42.93682" lon="0.72433">
        <ele>1408.8</ele>
        <time>2020-02-23T12:17:42Z</time>
      </trkpt>
      <trkpt lat="42.93685" lon="0.72434">
        <ele>1408.8</ele>
        <time>2020-02-23T12:17:43Z</time>
      </trkpt>
      <trkpt lat="42.93685" lon="0.72434">
        <ele>1408.8</ele>
        <time>2020-02-23T12:17:44Z</time>
      </trkpt>
      <trkpt lat="42.93685" lon="0.72434">
        <ele>1408.8</ele>
        <time>2020-02-23T12:17:45Z</time>
      </trkpt>
      <trkpt lat="42.93687" lon="0.72434">
        <ele>1409.1</ele>
        <time>2020-02-23T12:17:46Z</time>
      </trkpt>
      <trkpt lat="42.93687" lon="0.72434">
        <ele>1409.1</ele>
        <time>2020-02-23T12:17:47Z</time>
      </trkpt>
      <trkpt lat="42.93687" lon="0.72434">
        <ele>1409.1</ele>
        <time>2020-02-23T12:17:48Z</time>
      </trkpt>
      <trkpt lat="42.93689" lon="0.72434">
        <ele>1409.4</ele>
        <time>2020-02-23T12:17:49Z</time>
      </trkpt>
      <trkpt lat="42.93689" lon="0.72434">
        <ele>1409.4</ele>
        <time>2020-02-23T12:17:50Z</time>
      </trkpt>
      <trkpt lat="42.93689" lon="0.72434">
        <ele>1409.4</ele>
        <time>2020-02-23T12:17:51Z</time>
      </trkpt>
      <trkpt lat="42.93691" lon="0.72434">
        <ele>1409.8</ele>
        <time>2020-02-23T12:17:52Z</time>
      </trkpt>
      <trkpt lat="42.93691" lon="0.72434">
        <ele>1409.8</ele>
        <time>2020-02-23T12:17:53Z</time>
      </trkpt>
      <trkpt lat="42.93691" lon="0.72434">
        <ele>1409.8</ele>
        <time>2020-02-23T12:17:54Z</time>
      </trkpt>
      <trkpt lat="42.93694" lon="0.72434">
        <ele>1410</ele>
        <time>2020-02-23T12:17:55Z</time>
      </trkpt>
      <trkpt lat="42.93694" lon="0.72434">
        <ele>1410</ele>
        <time>2020-02-23T12:17:56Z</time>
      </trkpt>
      <trkpt lat="42.93694" lon="0.72434">
        <ele>1410</ele>
        <time>2020-02-23T12:17:57Z</time>
      </trkpt>
      <trkpt lat="42.93697" lon="0.72433">
        <ele>1410.1</ele>
        <time>2020-02-23T12:17:58Z</time>
      </trkpt>
      <trkpt lat="42.93697" lon="0.72433">
        <ele>1410.1</ele>
        <time>2020-02-23T12:17:59Z</time>
      </trkpt>
      <trkpt lat="42.937" lon="0.72432">
        <ele>1410.2</ele>
        <time>2020-02-23T12:18:00Z</time>
      </trkpt>
      <trkpt lat="42.93703" lon="0.72432">
        <ele>1410.3</ele>
        <time>2020-02-23T12:18:01Z</time>
      </trkpt>
      <trkpt lat="42.93703" lon="0.72432">
        <ele>1410.3</ele>
        <time>2020-02-23T12:18:02Z</time>
      </trkpt>
      <trkpt lat="42.93703" lon="0.72432">
        <ele>1410.3</ele>
        <time>2020-02-23T12:18:03Z</time>
      </trkpt>
      <trkpt lat="42.93706" lon="0.72431">
        <ele>1410.5</ele>
        <time>2020-02-23T12:18:04Z</time>
      </trkpt>
      <trkpt lat="42.93706" lon="0.72431">
        <ele>1410.5</ele>
        <time>2020-02-23T12:18:05Z</time>
      </trkpt>
      <trkpt lat="42.93706" lon="0.72431">
        <ele>1410.5</ele>
        <time>2020-02-23T12:18:06Z</time>
      </trkpt>
      <trkpt lat="42.93706" lon="0.72431">
        <ele>1410.5</ele>
        <time>2020-02-23T12:18:07Z</time>
      </trkpt>
      <trkpt lat="42.93706" lon="0.72431">
        <ele>1410.5</ele>
        <time>2020-02-23T12:18:08Z</time>
      </trkpt>
      <trkpt lat="42.93706" lon="0.72431">
        <ele>1410.5</ele>
        <time>2020-02-23T12:18:09Z</time>
      </trkpt>
      <trkpt lat="42.93706" lon="0.72431">
        <ele>1410.5</ele>
        <time>2020-02-23T12:18:10Z</time>
      </trkpt>
      <trkpt lat="42.9371" lon="0.72432">
        <ele>1410.7</ele>
        <time>2020-02-23T12:18:11Z</time>
      </trkpt>
      <trkpt lat="42.9371" lon="0.72432">
        <ele>1410.7</ele>
        <time>2020-02-23T12:18:12Z</time>
      </trkpt>
      <trkpt lat="42.93715" lon="0.72426">
        <ele>1411.5</ele>
        <time>2020-02-23T12:18:13Z</time>
      </trkpt>
      <trkpt lat="42.9372" lon="0.7242">
        <ele>1411.6</ele>
        <time>2020-02-23T12:18:14Z</time>
      </trkpt>
      <trkpt lat="42.93725" lon="0.72415">
        <ele>1411.4</ele>
        <time>2020-02-23T12:18:15Z</time>
      </trkpt>
      <trkpt lat="42.93729" lon="0.72409">
        <ele>1411.7</ele>
        <time>2020-02-23T12:18:16Z</time>
      </trkpt>
      <trkpt lat="42.93734" lon="0.72404">
        <ele>1411.4</ele>
        <time>2020-02-23T12:18:17Z</time>
      </trkpt>
      <trkpt lat="42.93739" lon="0.72398">
        <ele>1411.4</ele>
        <time>2020-02-23T12:18:18Z</time>
      </trkpt>
      <trkpt lat="42.93749" lon="0.7239">
        <ele>1410.1</ele>
        <time>2020-02-23T12:18:19Z</time>
      </trkpt>
      <trkpt lat="42.93749" lon="0.7239">
        <ele>1410.1</ele>
        <time>2020-02-23T12:18:20Z</time>
      </trkpt>
      <trkpt lat="42.9375" lon="0.72389">
        <ele>1409.9</ele>
        <time>2020-02-23T12:18:21Z</time>
      </trkpt>
      <trkpt lat="42.93752" lon="0.72388">
        <ele>1409.7</ele>
        <time>2020-02-23T12:18:22Z</time>
      </trkpt>
      <trkpt lat="42.93754" lon="0.72387">
        <ele>1409.5</ele>
        <time>2020-02-23T12:18:23Z</time>
      </trkpt>
      <trkpt lat="42.93756" lon="0.72386">
        <ele>1409.3</ele>
        <time>2020-02-23T12:18:24Z</time>
      </trkpt>
      <trkpt lat="42.93757" lon="0.72385">
        <ele>1409.1</ele>
        <time>2020-02-23T12:18:25Z</time>
      </trkpt>
      <trkpt lat="42.93758" lon="0.72385">
        <ele>1409</ele>
        <time>2020-02-23T12:18:26Z</time>
      </trkpt>
      <trkpt lat="42.93759" lon="0.72385">
        <ele>1408.8</ele>
        <time>2020-02-23T12:18:27Z</time>
      </trkpt>
      <trkpt lat="42.9376" lon="0.72386">
        <ele>1408.7</ele>
        <time>2020-02-23T12:18:28Z</time>
      </trkpt>
      <trkpt lat="42.93761" lon="0.72386">
        <ele>1408.6</ele>
        <time>2020-02-23T12:18:29Z</time>
      </trkpt>
      <trkpt lat="42.93762" lon="0.72386">
        <ele>1408.4</ele>
        <time>2020-02-23T12:18:30Z</time>
      </trkpt>
      <trkpt lat="42.93763" lon="0.72386">
        <ele>1408.3</ele>
        <time>2020-02-23T12:18:31Z</time>
      </trkpt>
      <trkpt lat="42.93764" lon="0.72387">
        <ele>1408.1</ele>
        <time>2020-02-23T12:18:32Z</time>
      </trkpt>
      <trkpt lat="42.93766" lon="0.72387">
        <ele>1408</ele>
        <time>2020-02-23T12:18:33Z</time>
      </trkpt>
      <trkpt lat="42.93767" lon="0.72387">
        <ele>1407.7</ele>
        <time>2020-02-23T12:18:34Z</time>
      </trkpt>
      <trkpt lat="42.93768" lon="0.72387">
        <ele>1407.3</ele>
        <time>2020-02-23T12:18:35Z</time>
      </trkpt>
      <trkpt lat="42.93769" lon="0.72387">
        <ele>1406.9</ele>
        <time>2020-02-23T12:18:36Z</time>
      </trkpt>
      <trkpt lat="42.93771" lon="0.72386">
        <ele>1406.5</ele>
        <time>2020-02-23T12:18:37Z</time>
      </trkpt>
      <trkpt lat="42.93772" lon="0.72386">
        <ele>1406.1</ele>
        <time>2020-02-23T12:18:38Z</time>
      </trkpt>
      <trkpt lat="42.93773" lon="0.72386">
        <ele>1405.7</ele>
        <time>2020-02-23T12:18:39Z</time>
      </trkpt>
      <trkpt lat="42.93775" lon="0.72385">
        <ele>1405.4</ele>
        <time>2020-02-23T12:18:40Z</time>
      </trkpt>
      <trkpt lat="42.93776" lon="0.72385">
        <ele>1405.1</ele>
        <time>2020-02-23T12:18:41Z</time>
      </trkpt>
      <trkpt lat="42.93776" lon="0.72384">
        <ele>1405</ele>
        <time>2020-02-23T12:18:42Z</time>
      </trkpt>
      <trkpt lat="42.93777" lon="0.72383">
        <ele>1404.9</ele>
        <time>2020-02-23T12:18:43Z</time>
      </trkpt>
      <trkpt lat="42.93777" lon="0.72383">
        <ele>1404.8</ele>
        <time>2020-02-23T12:18:44Z</time>
      </trkpt>
      <trkpt lat="42.93778" lon="0.72382">
        <ele>1404.7</ele>
        <time>2020-02-23T12:18:45Z</time>
      </trkpt>
      <trkpt lat="42.93778" lon="0.72381">
        <ele>1404.6</ele>
        <time>2020-02-23T12:18:46Z</time>
      </trkpt>
      <trkpt lat="42.93778" lon="0.7238">
        <ele>1404.5</ele>
        <time>2020-02-23T12:18:47Z</time>
      </trkpt>
      <trkpt lat="42.93779" lon="0.7238">
        <ele>1404.4</ele>
        <time>2020-02-23T12:18:48Z</time>
      </trkpt>
      <trkpt lat="42.93779" lon="0.72379">
        <ele>1404.2</ele>
        <time>2020-02-23T12:18:49Z</time>
      </trkpt>
      <trkpt lat="42.9378" lon="0.72378">
        <ele>1404.1</ele>
        <time>2020-02-23T12:18:50Z</time>
      </trkpt>
      <trkpt lat="42.9378" lon="0.72377">
        <ele>1404</ele>
        <time>2020-02-23T12:18:51Z</time>
      </trkpt>
      <trkpt lat="42.9378" lon="0.72376">
        <ele>1403.8</ele>
        <time>2020-02-23T12:18:52Z</time>
      </trkpt>
      <trkpt lat="42.93781" lon="0.72376">
        <ele>1403.6</ele>
        <time>2020-02-23T12:18:53Z</time>
      </trkpt>
      <trkpt lat="42.93781" lon="0.72375">
        <ele>1403.4</ele>
        <time>2020-02-23T12:18:54Z</time>
      </trkpt>
      <trkpt lat="42.93781" lon="0.72374">
        <ele>1403.3</ele>
        <time>2020-02-23T12:18:55Z</time>
      </trkpt>
      <trkpt lat="42.93782" lon="0.72374">
        <ele>1403.1</ele>
        <time>2020-02-23T12:18:56Z</time>
      </trkpt>
      <trkpt lat="42.93782" lon="0.72373">
        <ele>1403</ele>
        <time>2020-02-23T12:18:57Z</time>
      </trkpt>
      <trkpt lat="42.93782" lon="0.72373">
        <ele>1402.8</ele>
        <time>2020-02-23T12:18:58Z</time>
      </trkpt>
      <trkpt lat="42.93783" lon="0.72372">
        <ele>1402.7</ele>
        <time>2020-02-23T12:18:59Z</time>
      </trkpt>
      <trkpt lat="42.93783" lon="0.72372">
        <ele>1402.5</ele>
        <time>2020-02-23T12:19:00Z</time>
      </trkpt>
      <trkpt lat="42.93783" lon="0.72371">
        <ele>1402.4</ele>
        <time>2020-02-23T12:19:01Z</time>
      </trkpt>
      <trkpt lat="42.93784" lon="0.72371">
        <ele>1402.2</ele>
        <time>2020-02-23T12:19:02Z</time>
      </trkpt>
      <trkpt lat="42.93784" lon="0.7237">
        <ele>1402.1</ele>
        <time>2020-02-23T12:19:03Z</time>
      </trkpt>
      <trkpt lat="42.93784" lon="0.7237">
        <ele>1401.9</ele>
        <time>2020-02-23T12:19:04Z</time>
      </trkpt>
      <trkpt lat="42.93785" lon="0.72369">
        <ele>1401.8</ele>
        <time>2020-02-23T12:19:05Z</time>
      </trkpt>
      <trkpt lat="42.93785" lon="0.72369">
        <ele>1401.6</ele>
        <time>2020-02-23T12:19:06Z</time>
      </trkpt>
      <trkpt lat="42.93785" lon="0.72368">
        <ele>1401.5</ele>
        <time>2020-02-23T12:19:07Z</time>
      </trkpt>
      <trkpt lat="42.93785" lon="0.72368">
        <ele>1401.3</ele>
        <time>2020-02-23T12:19:08Z</time>
      </trkpt>
      <trkpt lat="42.93786" lon="0.72367">
        <ele>1401.2</ele>
        <time>2020-02-23T12:19:09Z</time>
      </trkpt>
      <trkpt lat="42.93786" lon="0.72367">
        <ele>1401.2</ele>
        <time>2020-02-23T12:19:10Z</time>
      </trkpt>
      <trkpt lat="42.93786" lon="0.72366">
        <ele>1401.1</ele>
        <time>2020-02-23T12:19:11Z</time>
      </trkpt>
      <trkpt lat="42.93787" lon="0.72365">
        <ele>1401.1</ele>
        <time>2020-02-23T12:19:12Z</time>
      </trkpt>
      <trkpt lat="42.93787" lon="0.72365">
        <ele>1401.1</ele>
        <time>2020-02-23T12:19:13Z</time>
      </trkpt>
      <trkpt lat="42.93788" lon="0.72364">
        <ele>1400.9</ele>
        <time>2020-02-23T12:19:14Z</time>
      </trkpt>
      <trkpt lat="42.93789" lon="0.72363">
        <ele>1400.8</ele>
        <time>2020-02-23T12:19:15Z</time>
      </trkpt>
      <trkpt lat="42.9379" lon="0.72363">
        <ele>1400.7</ele>
        <time>2020-02-23T12:19:16Z</time>
      </trkpt>
      <trkpt lat="42.93791" lon="0.72362">
        <ele>1400.4</ele>
        <time>2020-02-23T12:19:17Z</time>
      </trkpt>
      <trkpt lat="42.93791" lon="0.72361">
        <ele>1400</ele>
        <time>2020-02-23T12:19:18Z</time>
      </trkpt>
      <trkpt lat="42.93792" lon="0.7236">
        <ele>1399.7</ele>
        <time>2020-02-23T12:19:19Z</time>
      </trkpt>
      <trkpt lat="42.93793" lon="0.7236">
        <ele>1399.4</ele>
        <time>2020-02-23T12:19:20Z</time>
      </trkpt>
      <trkpt lat="42.93794" lon="0.72359">
        <ele>1399.3</ele>
        <time>2020-02-23T12:19:21Z</time>
      </trkpt>
      <trkpt lat="42.93795" lon="0.72358">
        <ele>1399.2</ele>
        <time>2020-02-23T12:19:22Z</time>
      </trkpt>
      <trkpt lat="42.93796" lon="0.72358">
        <ele>1399.1</ele>
        <time>2020-02-23T12:19:23Z</time>
      </trkpt>
      <trkpt lat="42.93796" lon="0.72358">
        <ele>1399</ele>
        <time>2020-02-23T12:19:24Z</time>
      </trkpt>
      <trkpt lat="42.93797" lon="0.72358">
        <ele>1399</ele>
        <time>2020-02-23T12:19:25Z</time>
      </trkpt>
      <trkpt lat="42.93798" lon="0.72358">
        <ele>1398.9</ele>
        <time>2020-02-23T12:19:26Z</time>
      </trkpt>
      <trkpt lat="42.93799" lon="0.72358">
        <ele>1398.8</ele>
        <time>2020-02-23T12:19:27Z</time>
      </trkpt>
      <trkpt lat="42.93799" lon="0.72357">
        <ele>1398.8</ele>
        <time>2020-02-23T12:19:28Z</time>
      </trkpt>
      <trkpt lat="42.938" lon="0.72357">
        <ele>1398.7</ele>
        <time>2020-02-23T12:19:29Z</time>
      </trkpt>
      <trkpt lat="42.93801" lon="0.72357">
        <ele>1398.6</ele>
        <time>2020-02-23T12:19:30Z</time>
      </trkpt>
      <trkpt lat="42.93801" lon="0.72357">
        <ele>1398.6</ele>
        <time>2020-02-23T12:19:31Z</time>
      </trkpt>
      <trkpt lat="42.93801" lon="0.72357">
        <ele>1398.6</ele>
        <time>2020-02-23T12:19:32Z</time>
      </trkpt>
      <trkpt lat="42.93801" lon="0.72357">
        <ele>1398.6</ele>
        <time>2020-02-23T12:19:33Z</time>
      </trkpt>
      <trkpt lat="42.93803" lon="0.72356">
        <ele>1398.4</ele>
        <time>2020-02-23T12:19:34Z</time>
      </trkpt>
      <trkpt lat="42.93803" lon="0.72356">
        <ele>1398.4</ele>
        <time>2020-02-23T12:19:35Z</time>
      </trkpt>
      <trkpt lat="42.93803" lon="0.72356">
        <ele>1398.4</ele>
        <time>2020-02-23T12:19:36Z</time>
      </trkpt>
      <trkpt lat="42.93805" lon="0.72355">
        <ele>1398.3</ele>
        <time>2020-02-23T12:19:37Z</time>
      </trkpt>
      <trkpt lat="42.93805" lon="0.72355">
        <ele>1398.3</ele>
        <time>2020-02-23T12:19:38Z</time>
      </trkpt>
      <trkpt lat="42.93805" lon="0.72355">
        <ele>1398.3</ele>
        <time>2020-02-23T12:19:39Z</time>
      </trkpt>
      <trkpt lat="42.93805" lon="0.72355">
        <ele>1398.3</ele>
        <time>2020-02-23T12:19:40Z</time>
      </trkpt>
      <trkpt lat="42.93805" lon="0.72355">
        <ele>1398.3</ele>
        <time>2020-02-23T12:19:41Z</time>
      </trkpt>
      <trkpt lat="42.93805" lon="0.72355">
        <ele>1398.3</ele>
        <time>2020-02-23T12:19:42Z</time>
      </trkpt>
      <trkpt lat="42.93805" lon="0.72355">
        <ele>1398.3</ele>
        <time>2020-02-23T12:19:43Z</time>
      </trkpt>
      <trkpt lat="42.93807" lon="0.72354">
        <ele>1398.1</ele>
        <time>2020-02-23T12:19:44Z</time>
      </trkpt>
      <trkpt lat="42.93807" lon="0.72354">
        <ele>1398.1</ele>
        <time>2020-02-23T12:19:45Z</time>
      </trkpt>
      <trkpt lat="42.93807" lon="0.72354">
        <ele>1398.1</ele>
        <time>2020-02-23T12:19:46Z</time>
      </trkpt>
      <trkpt lat="42.93809" lon="0.72354">
        <ele>1398</ele>
        <time>2020-02-23T12:19:47Z</time>
      </trkpt>
      <trkpt lat="42.93809" lon="0.72354">
        <ele>1398</ele>
        <time>2020-02-23T12:19:48Z</time>
      </trkpt>
      <trkpt lat="42.93809" lon="0.72354">
        <ele>1398</ele>
        <time>2020-02-23T12:19:49Z</time>
      </trkpt>
      <trkpt lat="42.93811" lon="0.72355">
        <ele>1398</ele>
        <time>2020-02-23T12:19:50Z</time>
      </trkpt>
      <trkpt lat="42.93811" lon="0.72355">
        <ele>1398</ele>
        <time>2020-02-23T12:19:51Z</time>
      </trkpt>
      <trkpt lat="42.93811" lon="0.72355">
        <ele>1398</ele>
        <time>2020-02-23T12:19:52Z</time>
      </trkpt>
      <trkpt lat="42.93811" lon="0.72355">
        <ele>1398</ele>
        <time>2020-02-23T12:19:53Z</time>
      </trkpt>
      <trkpt lat="42.93814" lon="0.72354">
        <ele>1398</ele>
        <time>2020-02-23T12:19:54Z</time>
      </trkpt>
      <trkpt lat="42.93814" lon="0.72354">
        <ele>1398</ele>
        <time>2020-02-23T12:19:55Z</time>
      </trkpt>
      <trkpt lat="42.93816" lon="0.72354">
        <ele>1398.1</ele>
        <time>2020-02-23T12:19:56Z</time>
      </trkpt>
      <trkpt lat="42.93816" lon="0.72354">
        <ele>1398.1</ele>
        <time>2020-02-23T12:19:57Z</time>
      </trkpt>
      <trkpt lat="42.93816" lon="0.72354">
        <ele>1398.1</ele>
        <time>2020-02-23T12:19:58Z</time>
      </trkpt>
      <trkpt lat="42.93816" lon="0.72354">
        <ele>1398.1</ele>
        <time>2020-02-23T12:19:59Z</time>
      </trkpt>
      <trkpt lat="42.93818" lon="0.72355">
        <ele>1398</ele>
        <time>2020-02-23T12:20:00Z</time>
      </trkpt>
      <trkpt lat="42.93818" lon="0.72355">
        <ele>1398</ele>
        <time>2020-02-23T12:20:01Z</time>
      </trkpt>
      <trkpt lat="42.93818" lon="0.72355">
        <ele>1398</ele>
        <time>2020-02-23T12:20:02Z</time>
      </trkpt>
      <trkpt lat="42.93818" lon="0.72355">
        <ele>1398</ele>
        <time>2020-02-23T12:20:03Z</time>
      </trkpt>
      <trkpt lat="42.9382" lon="0.72355">
        <ele>1397.9</ele>
        <time>2020-02-23T12:20:04Z</time>
      </trkpt>
      <trkpt lat="42.9382" lon="0.72355">
        <ele>1397.9</ele>
        <time>2020-02-23T12:20:05Z</time>
      </trkpt>
      <trkpt lat="42.93822" lon="0.72355">
        <ele>1397.7</ele>
        <time>2020-02-23T12:20:06Z</time>
      </trkpt>
      <trkpt lat="42.93822" lon="0.72355">
        <ele>1397.7</ele>
        <time>2020-02-23T12:20:07Z</time>
      </trkpt>
      <trkpt lat="42.93822" lon="0.72355">
        <ele>1397.7</ele>
        <time>2020-02-23T12:20:08Z</time>
      </trkpt>
      <trkpt lat="42.93822" lon="0.72355">
        <ele>1397.7</ele>
        <time>2020-02-23T12:20:09Z</time>
      </trkpt>
      <trkpt lat="42.93825" lon="0.72356">
        <ele>1397.5</ele>
        <time>2020-02-23T12:20:10Z</time>
      </trkpt>
      <trkpt lat="42.93827" lon="0.72356">
        <ele>1397.3</ele>
        <time>2020-02-23T12:20:11Z</time>
      </trkpt>
      <trkpt lat="42.93827" lon="0.72356">
        <ele>1397.3</ele>
        <time>2020-02-23T12:20:12Z</time>
      </trkpt>
      <trkpt lat="42.93829" lon="0.72356">
        <ele>1397.2</ele>
        <time>2020-02-23T12:20:13Z</time>
      </trkpt>
      <trkpt lat="42.93829" lon="0.72356">
        <ele>1397.2</ele>
        <time>2020-02-23T12:20:14Z</time>
      </trkpt>
      <trkpt lat="42.93829" lon="0.72356">
        <ele>1397.2</ele>
        <time>2020-02-23T12:20:15Z</time>
      </trkpt>
      <trkpt lat="42.93831" lon="0.72357">
        <ele>1397</ele>
        <time>2020-02-23T12:20:16Z</time>
      </trkpt>
      <trkpt lat="42.93834" lon="0.72358">
        <ele>1396.7</ele>
        <time>2020-02-23T12:20:17Z</time>
      </trkpt>
      <trkpt lat="42.93834" lon="0.72358">
        <ele>1396.7</ele>
        <time>2020-02-23T12:20:18Z</time>
      </trkpt>
      <trkpt lat="42.93836" lon="0.72359">
        <ele>1396.4</ele>
        <time>2020-02-23T12:20:19Z</time>
      </trkpt>
      <trkpt lat="42.93836" lon="0.72359">
        <ele>1396.4</ele>
        <time>2020-02-23T12:20:20Z</time>
      </trkpt>
      <trkpt lat="42.93836" lon="0.72359">
        <ele>1396.4</ele>
        <time>2020-02-23T12:20:21Z</time>
      </trkpt>
      <trkpt lat="42.93836" lon="0.72359">
        <ele>1396.4</ele>
        <time>2020-02-23T12:20:22Z</time>
      </trkpt>
      <trkpt lat="42.93836" lon="0.72359">
        <ele>1396.4</ele>
        <time>2020-02-23T12:20:23Z</time>
      </trkpt>
      <trkpt lat="42.93839" lon="0.72359">
        <ele>1395.9</ele>
        <time>2020-02-23T12:20:24Z</time>
      </trkpt>
      <trkpt lat="42.93839" lon="0.72359">
        <ele>1395.9</ele>
        <time>2020-02-23T12:20:25Z</time>
      </trkpt>
      <trkpt lat="42.93839" lon="0.72359">
        <ele>1395.9</ele>
        <time>2020-02-23T12:20:26Z</time>
      </trkpt>
      <trkpt lat="42.93842" lon="0.7236">
        <ele>1395.4</ele>
        <time>2020-02-23T12:20:27Z</time>
      </trkpt>
      <trkpt lat="42.93842" lon="0.7236">
        <ele>1395.4</ele>
        <time>2020-02-23T12:20:28Z</time>
      </trkpt>
      <trkpt lat="42.93844" lon="0.7236">
        <ele>1395.1</ele>
        <time>2020-02-23T12:20:29Z</time>
      </trkpt>
      <trkpt lat="42.93844" lon="0.7236">
        <ele>1395.1</ele>
        <time>2020-02-23T12:20:30Z</time>
      </trkpt>
      <trkpt lat="42.93847" lon="0.7236">
        <ele>1394.8</ele>
        <time>2020-02-23T12:20:31Z</time>
      </trkpt>
      <trkpt lat="42.93847" lon="0.7236">
        <ele>1394.8</ele>
        <time>2020-02-23T12:20:32Z</time>
      </trkpt>
      <trkpt lat="42.93848" lon="0.72359">
        <ele>1394.6</ele>
        <time>2020-02-23T12:20:33Z</time>
      </trkpt>
      <trkpt lat="42.93848" lon="0.72359">
        <ele>1394.6</ele>
        <time>2020-02-23T12:20:34Z</time>
      </trkpt>
      <trkpt lat="42.9385" lon="0.72358">
        <ele>1394.3</ele>
        <time>2020-02-23T12:20:35Z</time>
      </trkpt>
      <trkpt lat="42.9385" lon="0.72358">
        <ele>1394.3</ele>
        <time>2020-02-23T12:20:36Z</time>
      </trkpt>
      <trkpt lat="42.9385" lon="0.72358">
        <ele>1394.3</ele>
        <time>2020-02-23T12:20:37Z</time>
      </trkpt>
      <trkpt lat="42.93854" lon="0.72357">
        <ele>1393.7</ele>
        <time>2020-02-23T12:20:38Z</time>
      </trkpt>
      <trkpt lat="42.93854" lon="0.72357">
        <ele>1393.7</ele>
        <time>2020-02-23T12:20:39Z</time>
      </trkpt>
      <trkpt lat="42.93856" lon="0.72354">
        <ele>1393.1</ele>
        <time>2020-02-23T12:20:40Z</time>
      </trkpt>
      <trkpt lat="42.93856" lon="0.72354">
        <ele>1393.1</ele>
        <time>2020-02-23T12:20:41Z</time>
      </trkpt>
      <trkpt lat="42.93856" lon="0.72354">
        <ele>1393.1</ele>
        <time>2020-02-23T12:20:42Z</time>
      </trkpt>
      <trkpt lat="42.93859" lon="0.72352">
        <ele>1392.2</ele>
        <time>2020-02-23T12:20:43Z</time>
      </trkpt>
      <trkpt lat="42.93859" lon="0.72352">
        <ele>1392.2</ele>
        <time>2020-02-23T12:20:44Z</time>
      </trkpt>
      <trkpt lat="42.93859" lon="0.72352">
        <ele>1392.2</ele>
        <time>2020-02-23T12:20:45Z</time>
      </trkpt>
      <trkpt lat="42.93862" lon="0.7235">
        <ele>1391</ele>
        <time>2020-02-23T12:20:46Z</time>
      </trkpt>
      <trkpt lat="42.93862" lon="0.7235">
        <ele>1391</ele>
        <time>2020-02-23T12:20:47Z</time>
      </trkpt>
      <trkpt lat="42.93864" lon="0.72348">
        <ele>1390.2</ele>
        <time>2020-02-23T12:20:48Z</time>
      </trkpt>
      <trkpt lat="42.93866" lon="0.72347">
        <ele>1389.5</ele>
        <time>2020-02-23T12:20:49Z</time>
      </trkpt>
      <trkpt lat="42.93868" lon="0.72345">
        <ele>1388.9</ele>
        <time>2020-02-23T12:20:50Z</time>
      </trkpt>
      <trkpt lat="42.93868" lon="0.72345">
        <ele>1388.9</ele>
        <time>2020-02-23T12:20:51Z</time>
      </trkpt>
      <trkpt lat="42.93868" lon="0.72345">
        <ele>1388.9</ele>
        <time>2020-02-23T12:20:52Z</time>
      </trkpt>
      <trkpt lat="42.93871" lon="0.72342">
        <ele>1387.9</ele>
        <time>2020-02-23T12:20:53Z</time>
      </trkpt>
      <trkpt lat="42.93871" lon="0.72342">
        <ele>1387.9</ele>
        <time>2020-02-23T12:20:54Z</time>
      </trkpt>
      <trkpt lat="42.93873" lon="0.7234">
        <ele>1386.8</ele>
        <time>2020-02-23T12:20:55Z</time>
      </trkpt>
      <trkpt lat="42.93873" lon="0.7234">
        <ele>1386.8</ele>
        <time>2020-02-23T12:20:56Z</time>
      </trkpt>
      <trkpt lat="42.93875" lon="0.72338">
        <ele>1385.6</ele>
        <time>2020-02-23T12:20:57Z</time>
      </trkpt>
      <trkpt lat="42.93876" lon="0.72335">
        <ele>1384.5</ele>
        <time>2020-02-23T12:20:58Z</time>
      </trkpt>
      <trkpt lat="42.93876" lon="0.72335">
        <ele>1384.5</ele>
        <time>2020-02-23T12:20:59Z</time>
      </trkpt>
      <trkpt lat="42.93878" lon="0.72333">
        <ele>1383.3</ele>
        <time>2020-02-23T12:21:00Z</time>
      </trkpt>
      <trkpt lat="42.93878" lon="0.72333">
        <ele>1383.3</ele>
        <time>2020-02-23T12:21:01Z</time>
      </trkpt>
      <trkpt lat="42.9388" lon="0.72331">
        <ele>1382.1</ele>
        <time>2020-02-23T12:21:02Z</time>
      </trkpt>
      <trkpt lat="42.9388" lon="0.72331">
        <ele>1382.1</ele>
        <time>2020-02-23T12:21:03Z</time>
      </trkpt>
      <trkpt lat="42.9388" lon="0.72331">
        <ele>1382.1</ele>
        <time>2020-02-23T12:21:04Z</time>
      </trkpt>
      <trkpt lat="42.93882" lon="0.72329">
        <ele>1380.8</ele>
        <time>2020-02-23T12:21:05Z</time>
      </trkpt>
      <trkpt lat="42.93882" lon="0.72329">
        <ele>1380.8</ele>
        <time>2020-02-23T12:21:06Z</time>
      </trkpt>
      <trkpt lat="42.93882" lon="0.72329">
        <ele>1380.8</ele>
        <time>2020-02-23T12:21:07Z</time>
      </trkpt>
      <trkpt lat="42.93882" lon="0.72329">
        <ele>1380.8</ele>
        <time>2020-02-23T12:21:08Z</time>
      </trkpt>
      <trkpt lat="42.93884" lon="0.72326">
        <ele>1379.2</ele>
        <time>2020-02-23T12:21:09Z</time>
      </trkpt>
      <trkpt lat="42.93884" lon="0.72326">
        <ele>1379.2</ele>
        <time>2020-02-23T12:21:10Z</time>
      </trkpt>
      <trkpt lat="42.93884" lon="0.72326">
        <ele>1379.2</ele>
        <time>2020-02-23T12:21:11Z</time>
      </trkpt>
      <trkpt lat="42.93886" lon="0.72323">
        <ele>1377.8</ele>
        <time>2020-02-23T12:21:12Z</time>
      </trkpt>
      <trkpt lat="42.93886" lon="0.72323">
        <ele>1377.8</ele>
        <time>2020-02-23T12:21:13Z</time>
      </trkpt>
      <trkpt lat="42.93887" lon="0.7232">
        <ele>1376.8</ele>
        <time>2020-02-23T12:21:14Z</time>
      </trkpt>
      <trkpt lat="42.93887" lon="0.7232">
        <ele>1376.8</ele>
        <time>2020-02-23T12:21:15Z</time>
      </trkpt>
      <trkpt lat="42.93887" lon="0.7232">
        <ele>1376.8</ele>
        <time>2020-02-23T12:21:16Z</time>
      </trkpt>
      <trkpt lat="42.93887" lon="0.72317">
        <ele>1375.9</ele>
        <time>2020-02-23T12:21:17Z</time>
      </trkpt>
      <trkpt lat="42.93888" lon="0.72314">
        <ele>1375.1</ele>
        <time>2020-02-23T12:21:18Z</time>
      </trkpt>
      <trkpt lat="42.93889" lon="0.72311">
        <ele>1374.3</ele>
        <time>2020-02-23T12:21:19Z</time>
      </trkpt>
      <trkpt lat="42.93889" lon="0.72311">
        <ele>1374.3</ele>
        <time>2020-02-23T12:21:20Z</time>
      </trkpt>
      <trkpt lat="42.9389" lon="0.72309">
        <ele>1373.7</ele>
        <time>2020-02-23T12:21:21Z</time>
      </trkpt>
      <trkpt lat="42.93891" lon="0.72305">
        <ele>1372.7</ele>
        <time>2020-02-23T12:21:22Z</time>
      </trkpt>
      <trkpt lat="42.93891" lon="0.72305">
        <ele>1372.7</ele>
        <time>2020-02-23T12:21:23Z</time>
      </trkpt>
      <trkpt lat="42.93891" lon="0.72305">
        <ele>1372.7</ele>
        <time>2020-02-23T12:21:24Z</time>
      </trkpt>
      <trkpt lat="42.93892" lon="0.72303">
        <ele>1371.8</ele>
        <time>2020-02-23T12:21:25Z</time>
      </trkpt>
      <trkpt lat="42.93892" lon="0.72303">
        <ele>1371.8</ele>
        <time>2020-02-23T12:21:26Z</time>
      </trkpt>
      <trkpt lat="42.93893" lon="0.723">
        <ele>1371</ele>
        <time>2020-02-23T12:21:27Z</time>
      </trkpt>
      <trkpt lat="42.93893" lon="0.723">
        <ele>1371</ele>
        <time>2020-02-23T12:21:28Z</time>
      </trkpt>
      <trkpt lat="42.93893" lon="0.723">
        <ele>1371</ele>
        <time>2020-02-23T12:21:29Z</time>
      </trkpt>
      <trkpt lat="42.93895" lon="0.72298">
        <ele>1370.2</ele>
        <time>2020-02-23T12:21:30Z</time>
      </trkpt>
      <trkpt lat="42.93895" lon="0.72298">
        <ele>1370.2</ele>
        <time>2020-02-23T12:21:31Z</time>
      </trkpt>
      <trkpt lat="42.93895" lon="0.72298">
        <ele>1370.2</ele>
        <time>2020-02-23T12:21:32Z</time>
      </trkpt>
      <trkpt lat="42.93895" lon="0.72298">
        <ele>1370.2</ele>
        <time>2020-02-23T12:21:33Z</time>
      </trkpt>
      <trkpt lat="42.93896" lon="0.72296">
        <ele>1369.4</ele>
        <time>2020-02-23T12:21:34Z</time>
      </trkpt>
      <trkpt lat="42.93896" lon="0.72296">
        <ele>1369.4</ele>
        <time>2020-02-23T12:21:35Z</time>
      </trkpt>
      <trkpt lat="42.93896" lon="0.72296">
        <ele>1369.4</ele>
        <time>2020-02-23T12:21:36Z</time>
      </trkpt>
      <trkpt lat="42.93897" lon="0.72293">
        <ele>1368.4</ele>
        <time>2020-02-23T12:21:37Z</time>
      </trkpt>
      <trkpt lat="42.93897" lon="0.72293">
        <ele>1368.4</ele>
        <time>2020-02-23T12:21:38Z</time>
      </trkpt>
      <trkpt lat="42.93897" lon="0.72293">
        <ele>1368.4</ele>
        <time>2020-02-23T12:21:39Z</time>
      </trkpt>
      <trkpt lat="42.93899" lon="0.72291">
        <ele>1367.5</ele>
        <time>2020-02-23T12:21:40Z</time>
      </trkpt>
      <trkpt lat="42.93899" lon="0.72291">
        <ele>1367.5</ele>
        <time>2020-02-23T12:21:41Z</time>
      </trkpt>
      <trkpt lat="42.93901" lon="0.72289">
        <ele>1366.5</ele>
        <time>2020-02-23T12:21:42Z</time>
      </trkpt>
      <trkpt lat="42.93901" lon="0.72289">
        <ele>1366.5</ele>
        <time>2020-02-23T12:21:43Z</time>
      </trkpt>
      <trkpt lat="42.93903" lon="0.72286">
        <ele>1365.6</ele>
        <time>2020-02-23T12:21:44Z</time>
      </trkpt>
      <trkpt lat="42.93903" lon="0.72286">
        <ele>1365.6</ele>
        <time>2020-02-23T12:21:45Z</time>
      </trkpt>
      <trkpt lat="42.93905" lon="0.72285">
        <ele>1364.8</ele>
        <time>2020-02-23T12:21:46Z</time>
      </trkpt>
      <trkpt lat="42.93905" lon="0.72285">
        <ele>1364.8</ele>
        <time>2020-02-23T12:21:47Z</time>
      </trkpt>
      <trkpt lat="42.93907" lon="0.72283">
        <ele>1364</ele>
        <time>2020-02-23T12:21:48Z</time>
      </trkpt>
      <trkpt lat="42.93909" lon="0.7228">
        <ele>1363.1</ele>
        <time>2020-02-23T12:21:49Z</time>
      </trkpt>
      <trkpt lat="42.93909" lon="0.7228">
        <ele>1363.1</ele>
        <time>2020-02-23T12:21:50Z</time>
      </trkpt>
      <trkpt lat="42.93912" lon="0.72278">
        <ele>1362.3</ele>
        <time>2020-02-23T12:21:51Z</time>
      </trkpt>
      <trkpt lat="42.93912" lon="0.72278">
        <ele>1362.3</ele>
        <time>2020-02-23T12:21:52Z</time>
      </trkpt>
      <trkpt lat="42.93914" lon="0.72277">
        <ele>1361.7</ele>
        <time>2020-02-23T12:21:53Z</time>
      </trkpt>
      <trkpt lat="42.93914" lon="0.72277">
        <ele>1361.7</ele>
        <time>2020-02-23T12:21:54Z</time>
      </trkpt>
      <trkpt lat="42.93914" lon="0.72277">
        <ele>1361.7</ele>
        <time>2020-02-23T12:21:55Z</time>
      </trkpt>
      <trkpt lat="42.93916" lon="0.72276">
        <ele>1361.1</ele>
        <time>2020-02-23T12:21:56Z</time>
      </trkpt>
      <trkpt lat="42.93918" lon="0.72275">
        <ele>1360.6</ele>
        <time>2020-02-23T12:21:57Z</time>
      </trkpt>
      <trkpt lat="42.93918" lon="0.72275">
        <ele>1360.6</ele>
        <time>2020-02-23T12:21:58Z</time>
      </trkpt>
      <trkpt lat="42.9392" lon="0.72273">
        <ele>1360.2</ele>
        <time>2020-02-23T12:21:59Z</time>
      </trkpt>
      <trkpt lat="42.9392" lon="0.72273">
        <ele>1360.2</ele>
        <time>2020-02-23T12:22:00Z</time>
      </trkpt>
      <trkpt lat="42.93922" lon="0.72272">
        <ele>1359.8</ele>
        <time>2020-02-23T12:22:01Z</time>
      </trkpt>
      <trkpt lat="42.93922" lon="0.72272">
        <ele>1359.8</ele>
        <time>2020-02-23T12:22:02Z</time>
      </trkpt>
      <trkpt lat="42.93922" lon="0.72272">
        <ele>1359.8</ele>
        <time>2020-02-23T12:22:03Z</time>
      </trkpt>
      <trkpt lat="42.93924" lon="0.7227">
        <ele>1359.2</ele>
        <time>2020-02-23T12:22:04Z</time>
      </trkpt>
      <trkpt lat="42.93924" lon="0.7227">
        <ele>1359.2</ele>
        <time>2020-02-23T12:22:05Z</time>
      </trkpt>
      <trkpt lat="42.93927" lon="0.72268">
        <ele>1358.7</ele>
        <time>2020-02-23T12:22:06Z</time>
      </trkpt>
      <trkpt lat="42.93927" lon="0.72268">
        <ele>1358.7</ele>
        <time>2020-02-23T12:22:07Z</time>
      </trkpt>
      <trkpt lat="42.9393" lon="0.72267">
        <ele>1358.2</ele>
        <time>2020-02-23T12:22:08Z</time>
      </trkpt>
      <trkpt lat="42.93932" lon="0.72266">
        <ele>1357.8</ele>
        <time>2020-02-23T12:22:09Z</time>
      </trkpt>
      <trkpt lat="42.93932" lon="0.72266">
        <ele>1357.8</ele>
        <time>2020-02-23T12:22:10Z</time>
      </trkpt>
      <trkpt lat="42.93932" lon="0.72266">
        <ele>1357.8</ele>
        <time>2020-02-23T12:22:11Z</time>
      </trkpt>
      <trkpt lat="42.93935" lon="0.72266">
        <ele>1357.2</ele>
        <time>2020-02-23T12:22:12Z</time>
      </trkpt>
      <trkpt lat="42.93935" lon="0.72266">
        <ele>1357.2</ele>
        <time>2020-02-23T12:22:13Z</time>
      </trkpt>
      <trkpt lat="42.93935" lon="0.72266">
        <ele>1357.2</ele>
        <time>2020-02-23T12:22:14Z</time>
      </trkpt>
      <trkpt lat="42.93937" lon="0.72265">
        <ele>1356.7</ele>
        <time>2020-02-23T12:22:15Z</time>
      </trkpt>
      <trkpt lat="42.93937" lon="0.72265">
        <ele>1356.7</ele>
        <time>2020-02-23T12:22:16Z</time>
      </trkpt>
      <trkpt lat="42.93937" lon="0.72265">
        <ele>1356.7</ele>
        <time>2020-02-23T12:22:17Z</time>
      </trkpt>
      <trkpt lat="42.9394" lon="0.72264">
        <ele>1356.1</ele>
        <time>2020-02-23T12:22:18Z</time>
      </trkpt>
      <trkpt lat="42.9394" lon="0.72264">
        <ele>1356.1</ele>
        <time>2020-02-23T12:22:19Z</time>
      </trkpt>
      <trkpt lat="42.9394" lon="0.72264">
        <ele>1356.1</ele>
        <time>2020-02-23T12:22:20Z</time>
      </trkpt>
      <trkpt lat="42.93942" lon="0.72263">
        <ele>1355.6</ele>
        <time>2020-02-23T12:22:21Z</time>
      </trkpt>
      <trkpt lat="42.93942" lon="0.72263">
        <ele>1355.6</ele>
        <time>2020-02-23T12:22:22Z</time>
      </trkpt>
      <trkpt lat="42.93942" lon="0.72263">
        <ele>1355.6</ele>
        <time>2020-02-23T12:22:23Z</time>
      </trkpt>
      <trkpt lat="42.93944" lon="0.72261">
        <ele>1355.1</ele>
        <time>2020-02-23T12:22:24Z</time>
      </trkpt>
      <trkpt lat="42.93944" lon="0.72261">
        <ele>1355.1</ele>
        <time>2020-02-23T12:22:25Z</time>
      </trkpt>
      <trkpt lat="42.93944" lon="0.72261">
        <ele>1355.1</ele>
        <time>2020-02-23T12:22:26Z</time>
      </trkpt>
      <trkpt lat="42.93945" lon="0.72259">
        <ele>1354.6</ele>
        <time>2020-02-23T12:22:27Z</time>
      </trkpt>
      <trkpt lat="42.93947" lon="0.72256">
        <ele>1354</ele>
        <time>2020-02-23T12:22:28Z</time>
      </trkpt>
      <trkpt lat="42.93947" lon="0.72256">
        <ele>1354</ele>
        <time>2020-02-23T12:22:29Z</time>
      </trkpt>
      <trkpt lat="42.93947" lon="0.72256">
        <ele>1354</ele>
        <time>2020-02-23T12:22:30Z</time>
      </trkpt>
      <trkpt lat="42.93949" lon="0.72253">
        <ele>1353.6</ele>
        <time>2020-02-23T12:22:31Z</time>
      </trkpt>
      <trkpt lat="42.93949" lon="0.72253">
        <ele>1353.6</ele>
        <time>2020-02-23T12:22:32Z</time>
      </trkpt>
      <trkpt lat="42.93952" lon="0.72251">
        <ele>1353.3</ele>
        <time>2020-02-23T12:22:33Z</time>
      </trkpt>
      <trkpt lat="42.93952" lon="0.72251">
        <ele>1353.3</ele>
        <time>2020-02-23T12:22:34Z</time>
      </trkpt>
      <trkpt lat="42.93953" lon="0.7225">
        <ele>1353</ele>
        <time>2020-02-23T12:22:35Z</time>
      </trkpt>
      <trkpt lat="42.93953" lon="0.7225">
        <ele>1353</ele>
        <time>2020-02-23T12:22:36Z</time>
      </trkpt>
      <trkpt lat="42.93953" lon="0.7225">
        <ele>1353</ele>
        <time>2020-02-23T12:22:37Z</time>
      </trkpt>
      <trkpt lat="42.93956" lon="0.72248">
        <ele>1352.7</ele>
        <time>2020-02-23T12:22:38Z</time>
      </trkpt>
      <trkpt lat="42.93956" lon="0.72248">
        <ele>1352.7</ele>
        <time>2020-02-23T12:22:39Z</time>
      </trkpt>
      <trkpt lat="42.93957" lon="0.72247">
        <ele>1352.3</ele>
        <time>2020-02-23T12:22:40Z</time>
      </trkpt>
      <trkpt lat="42.93957" lon="0.72247">
        <ele>1352.3</ele>
        <time>2020-02-23T12:22:41Z</time>
      </trkpt>
      <trkpt lat="42.93957" lon="0.72247">
        <ele>1352.3</ele>
        <time>2020-02-23T12:22:42Z</time>
      </trkpt>
      <trkpt lat="42.9396" lon="0.72245">
        <ele>1351.8</ele>
        <time>2020-02-23T12:22:43Z</time>
      </trkpt>
      <trkpt lat="42.9396" lon="0.72245">
        <ele>1351.8</ele>
        <time>2020-02-23T12:22:44Z</time>
      </trkpt>
      <trkpt lat="42.9396" lon="0.72245">
        <ele>1351.8</ele>
        <time>2020-02-23T12:22:45Z</time>
      </trkpt>
      <trkpt lat="42.9396" lon="0.72245">
        <ele>1351.8</ele>
        <time>2020-02-23T12:22:46Z</time>
      </trkpt>
      <trkpt lat="42.93962" lon="0.72244">
        <ele>1351.3</ele>
        <time>2020-02-23T12:22:47Z</time>
      </trkpt>
      <trkpt lat="42.93962" lon="0.72244">
        <ele>1351.3</ele>
        <time>2020-02-23T12:22:48Z</time>
      </trkpt>
      <trkpt lat="42.93962" lon="0.72244">
        <ele>1351.3</ele>
        <time>2020-02-23T12:22:49Z</time>
      </trkpt>
      <trkpt lat="42.93964" lon="0.72241">
        <ele>1350.7</ele>
        <time>2020-02-23T12:22:50Z</time>
      </trkpt>
      <trkpt lat="42.93964" lon="0.72241">
        <ele>1350.7</ele>
        <time>2020-02-23T12:22:51Z</time>
      </trkpt>
      <trkpt lat="42.93966" lon="0.72239">
        <ele>1350.2</ele>
        <time>2020-02-23T12:22:52Z</time>
      </trkpt>
      <trkpt lat="42.93968" lon="0.72236">
        <ele>1349.7</ele>
        <time>2020-02-23T12:22:53Z</time>
      </trkpt>
      <trkpt lat="42.93968" lon="0.72236">
        <ele>1349.7</ele>
        <time>2020-02-23T12:22:54Z</time>
      </trkpt>
      <trkpt lat="42.9397" lon="0.72234">
        <ele>1349.4</ele>
        <time>2020-02-23T12:22:55Z</time>
      </trkpt>
      <trkpt lat="42.9397" lon="0.72234">
        <ele>1349.4</ele>
        <time>2020-02-23T12:22:56Z</time>
      </trkpt>
      <trkpt lat="42.93971" lon="0.72233">
        <ele>1349</ele>
        <time>2020-02-23T12:22:57Z</time>
      </trkpt>
      <trkpt lat="42.93971" lon="0.72233">
        <ele>1349</ele>
        <time>2020-02-23T12:22:58Z</time>
      </trkpt>
      <trkpt lat="42.93971" lon="0.72233">
        <ele>1349</ele>
        <time>2020-02-23T12:22:59Z</time>
      </trkpt>
      <trkpt lat="42.93971" lon="0.72233">
        <ele>1349</ele>
        <time>2020-02-23T12:23:00Z</time>
      </trkpt>
      <trkpt lat="42.93973" lon="0.72231">
        <ele>1348.6</ele>
        <time>2020-02-23T12:23:01Z</time>
      </trkpt>
      <trkpt lat="42.93973" lon="0.72231">
        <ele>1348.6</ele>
        <time>2020-02-23T12:23:02Z</time>
      </trkpt>
      <trkpt lat="42.93973" lon="0.72231">
        <ele>1348.6</ele>
        <time>2020-02-23T12:23:03Z</time>
      </trkpt>
      <trkpt lat="42.93973" lon="0.72231">
        <ele>1348.6</ele>
        <time>2020-02-23T12:23:04Z</time>
      </trkpt>
      <trkpt lat="42.93974" lon="0.72229">
        <ele>1348.2</ele>
        <time>2020-02-23T12:23:05Z</time>
      </trkpt>
      <trkpt lat="42.93974" lon="0.72229">
        <ele>1348.2</ele>
        <time>2020-02-23T12:23:06Z</time>
      </trkpt>
      <trkpt lat="42.93976" lon="0.72227">
        <ele>1347.8</ele>
        <time>2020-02-23T12:23:07Z</time>
      </trkpt>
      <trkpt lat="42.93976" lon="0.72227">
        <ele>1347.8</ele>
        <time>2020-02-23T12:23:08Z</time>
      </trkpt>
      <trkpt lat="42.93976" lon="0.72227">
        <ele>1347.8</ele>
        <time>2020-02-23T12:23:09Z</time>
      </trkpt>
      <trkpt lat="42.93976" lon="0.72227">
        <ele>1347.8</ele>
        <time>2020-02-23T12:23:10Z</time>
      </trkpt>
      <trkpt lat="42.93976" lon="0.72227">
        <ele>1347.8</ele>
        <time>2020-02-23T12:23:11Z</time>
      </trkpt>
      <trkpt lat="42.93976" lon="0.72227">
        <ele>1347.8</ele>
        <time>2020-02-23T12:23:12Z</time>
      </trkpt>
      <trkpt lat="42.93977" lon="0.72225">
        <ele>1347.4</ele>
        <time>2020-02-23T12:23:13Z</time>
      </trkpt>
      <trkpt lat="42.93977" lon="0.72225">
        <ele>1347.4</ele>
        <time>2020-02-23T12:23:14Z</time>
      </trkpt>
      <trkpt lat="42.93977" lon="0.72225">
        <ele>1347.4</ele>
        <time>2020-02-23T12:23:15Z</time>
      </trkpt>
      <trkpt lat="42.93977" lon="0.72225">
        <ele>1347.4</ele>
        <time>2020-02-23T12:23:16Z</time>
      </trkpt>
      <trkpt lat="42.93977" lon="0.72225">
        <ele>1347.4</ele>
        <time>2020-02-23T12:23:17Z</time>
      </trkpt>
      <trkpt lat="42.93977" lon="0.72225">
        <ele>1347.4</ele>
        <time>2020-02-23T12:23:18Z</time>
      </trkpt>
      <trkpt lat="42.93977" lon="0.72225">
        <ele>1347.4</ele>
        <time>2020-02-23T12:23:19Z</time>
      </trkpt>
      <trkpt lat="42.93977" lon="0.72225">
        <ele>1347.4</ele>
        <time>2020-02-23T12:23:20Z</time>
      </trkpt>
      <trkpt lat="42.93977" lon="0.72225">
        <ele>1347.4</ele>
        <time>2020-02-23T12:23:21Z</time>
      </trkpt>
      <trkpt lat="42.93977" lon="0.72225">
        <ele>1347.4</ele>
        <time>2020-02-23T12:23:22Z</time>
      </trkpt>
    </trkseg>
  </trk>
</gpx>